<?xml version='1.0' encoding='UTF-8'?><gpx version="1.1" creator="JPX - https://github.com/jenetics/jpx" xmlns="http://www.topografix.com/GPX/1/1"><trk><trkseg><trkpt lat="37.3173667" lon="13.6548432"><ele>367.0</ele><time>2026-05-06T08:32:16.397Z</time></trkpt><trkpt lat="37.3173179" lon="13.6549221"><ele>367.0</ele><time>2026-05-06T08:37:27.397Z</time></trkpt><trkpt lat="37.3172477" lon="13.6549979"><ele>367.0</ele><time>2026-05-06T08:37:59.398Z</time></trkpt><trkpt lat="37.3172103" lon="13.6550634"><ele>367.0</ele><time>2026-05-06T08:38:03.398Z</time></trkpt><trkpt lat="37.3171709" lon="13.65516"><ele>367.0</ele><time>2026-05-06T08:38:06.399Z</time></trkpt><trkpt lat="37.3171305" lon="13.6552419"><ele>367.0</ele><time>2026-05-06T08:38:08.337Z</time></trkpt><trkpt lat="37.3170732" lon="13.6553249"><ele>365.66666666666663</ele><time>2026-05-06T08:38:10.397Z</time></trkpt><trkpt lat="37.317033" lon="13.6553873"><ele>364.3333333333333</ele><time>2026-05-06T08:38:12.398Z</time></trkpt><trkpt lat="37.3170026" lon="13.6554638"><ele>363.0</ele><time>2026-05-06T08:38:15.397Z</time></trkpt><trkpt lat="37.3169441" lon="13.6555703"><ele>361.6666666666667</ele><time>2026-05-06T08:38:29.397Z</time></trkpt><trkpt lat="37.3169062" lon="13.6556372"><ele>360.33333333333337</ele><time>2026-05-06T08:38:30.397Z</time></trkpt><trkpt lat="37.3168509" lon="13.6557475"><ele>359.0</ele><time>2026-05-06T08:38:32.397Z</time></trkpt><trkpt lat="37.3168006" lon="13.6558453"><ele>359.0</ele><time>2026-05-06T08:38:34.397Z</time></trkpt><trkpt lat="37.3167421" lon="13.6559494"><ele>359.0</ele><time>2026-05-06T08:38:36.397Z</time></trkpt><trkpt lat="37.3166858" lon="13.6560409"><ele>359.0</ele><time>2026-05-06T08:38:38.398Z</time></trkpt><trkpt lat="37.3166389" lon="13.6561275"><ele>359.0</ele><time>2026-05-06T08:38:40.399Z</time></trkpt><trkpt lat="37.3166102" lon="13.6561992"><ele>359.0</ele><time>2026-05-06T08:38:42.398Z</time></trkpt><trkpt lat="37.3166436" lon="13.6562945"><ele>359.0</ele><time>2026-05-06T08:38:45.397Z</time></trkpt><trkpt lat="37.3167104" lon="13.6563467"><ele>357.7142857142857</ele><time>2026-05-06T08:38:47.397Z</time></trkpt><trkpt lat="37.3167856" lon="13.6564059"><ele>356.42857142857144</ele><time>2026-05-06T08:38:49.397Z</time></trkpt><trkpt lat="37.3168488" lon="13.6564588"><ele>355.1428571428571</ele><time>2026-05-06T08:38:51.397Z</time></trkpt><trkpt lat="37.3169101" lon="13.6565077"><ele>353.8571428571429</ele><time>2026-05-06T08:38:53.398Z</time></trkpt><trkpt lat="37.3169642" lon="13.6565588"><ele>352.57142857142856</ele><time>2026-05-06T08:38:55.398Z</time></trkpt><trkpt lat="37.3170205" lon="13.6566026"><ele>351.2857142857143</ele><time>2026-05-06T08:38:57.396Z</time></trkpt><trkpt lat="37.3170771" lon="13.6566514"><ele>350.0</ele><time>2026-05-06T08:38:59.397Z</time></trkpt><trkpt lat="37.3171261" lon="13.6567095"><ele>350.0</ele><time>2026-05-06T08:39:01.397Z</time></trkpt><trkpt lat="37.317178" lon="13.6567621"><ele>350.0</ele><time>2026-05-06T08:39:03.396Z</time></trkpt><trkpt lat="37.317243" lon="13.6567623"><ele>350.0</ele><time>2026-05-06T08:39:05.398Z</time></trkpt><trkpt lat="37.3173016" lon="13.6567279"><ele>350.0</ele><time>2026-05-06T08:39:07.398Z</time></trkpt><trkpt lat="37.3173843" lon="13.656684"><ele>350.0</ele><time>2026-05-06T08:39:10.397Z</time></trkpt><trkpt lat="37.3174516" lon="13.6567071"><ele>350.0</ele><time>2026-05-06T08:39:13.397Z</time></trkpt><trkpt lat="37.3175201" lon="13.6567498"><ele>350.0</ele><time>2026-05-06T08:39:16.396Z</time></trkpt><trkpt lat="37.3175846" lon="13.6567605"><ele>349.83333333333337</ele><time>2026-05-06T08:39:18.397Z</time></trkpt><trkpt lat="37.3176477" lon="13.6568471"><ele>349.6666666666667</ele><time>2026-05-06T08:39:21.397Z</time></trkpt><trkpt lat="37.3176265" lon="13.6569298"><ele>349.5</ele><time>2026-05-06T08:39:23.397Z</time></trkpt><trkpt lat="37.3175651" lon="13.6569969"><ele>349.3333333333333</ele><time>2026-05-06T08:39:25.398Z</time></trkpt><trkpt lat="37.3175228" lon="13.6570725"><ele>349.16666666666663</ele><time>2026-05-06T08:39:27.398Z</time></trkpt><trkpt lat="37.3174778" lon="13.6571356"><ele>349.0</ele><time>2026-05-06T08:39:29.396Z</time></trkpt><trkpt lat="37.3174513" lon="13.6572264"><ele>347.16666666666663</ele><time>2026-05-06T08:39:43.397Z</time></trkpt><trkpt lat="37.3174555" lon="13.6573409"><ele>345.3333333333333</ele><time>2026-05-06T08:39:46.396Z</time></trkpt><trkpt lat="37.3174731" lon="13.6574452"><ele>343.5</ele><time>2026-05-06T08:39:49.396Z</time></trkpt><trkpt lat="37.3175175" lon="13.6575119"><ele>341.6666666666667</ele><time>2026-05-06T08:39:52.396Z</time></trkpt><trkpt lat="37.3175741" lon="13.6575587"><ele>339.83333333333337</ele><time>2026-05-06T08:39:56.397Z</time></trkpt><trkpt lat="37.3176479" lon="13.6575581"><ele>338.0</ele><time>2026-05-06T08:40:00.398Z</time></trkpt><trkpt lat="37.317714" lon="13.6575492"><ele>338.0</ele><time>2026-05-06T08:40:03.397Z</time></trkpt><trkpt lat="37.3177866" lon="13.6575433"><ele>338.0</ele><time>2026-05-06T08:40:07.397Z</time></trkpt><trkpt lat="37.3178825" lon="13.6575403"><ele>338.0</ele><time>2026-05-06T08:40:20.397Z</time></trkpt><trkpt lat="37.3179519" lon="13.6575549"><ele>338.0</ele><time>2026-05-06T08:40:22.397Z</time></trkpt><trkpt lat="37.3180272" lon="13.6576224"><ele>338.0</ele><time>2026-05-06T08:40:25.397Z</time></trkpt><trkpt lat="37.3180481" lon="13.6577075"><ele>338.0</ele><time>2026-05-06T08:40:27.396Z</time></trkpt><trkpt lat="37.3180751" lon="13.6578072"><ele>337.83333333333337</ele><time>2026-05-06T08:40:30.397Z</time></trkpt><trkpt lat="37.3181519" lon="13.6578355"><ele>337.6666666666667</ele><time>2026-05-06T08:40:33.397Z</time></trkpt><trkpt lat="37.3182138" lon="13.6578209"><ele>337.5</ele><time>2026-05-06T08:40:35.396Z</time></trkpt><trkpt lat="37.3182782" lon="13.6578085"><ele>337.3333333333333</ele><time>2026-05-06T08:40:37.397Z</time></trkpt><trkpt lat="37.3183633" lon="13.6577821"><ele>337.16666666666663</ele><time>2026-05-06T08:40:40.398Z</time></trkpt><trkpt lat="37.3184374" lon="13.6578671"><ele>337.0</ele><time>2026-05-06T08:40:43.396Z</time></trkpt><trkpt lat="37.318461" lon="13.657996"><ele>336.3333333333333</ele><time>2026-05-06T08:40:45.397Z</time></trkpt><trkpt lat="37.3184783" lon="13.6581437"><ele>335.66666666666663</ele><time>2026-05-06T08:40:47.397Z</time></trkpt><trkpt lat="37.318485" lon="13.6582282"><ele>335.0</ele><time>2026-05-06T08:40:48.398Z</time></trkpt><trkpt lat="37.3185137" lon="13.6583099"><ele>334.3333333333333</ele><time>2026-05-06T08:40:49.396Z</time></trkpt><trkpt lat="37.3185264" lon="13.6583876"><ele>333.6666666666667</ele><time>2026-05-06T08:40:50.396Z</time></trkpt><trkpt lat="37.3185476" lon="13.6585379"><ele>333.0</ele><time>2026-05-06T08:40:52.397Z</time></trkpt><trkpt lat="37.3185673" lon="13.658621"><ele>332.6666666666667</ele><time>2026-05-06T08:40:53.397Z</time></trkpt><trkpt lat="37.318591" lon="13.6586973"><ele>332.3333333333333</ele><time>2026-05-06T08:40:54.397Z</time></trkpt><trkpt lat="37.3186107" lon="13.6587853"><ele>332.0</ele><time>2026-05-06T08:40:55.397Z</time></trkpt><trkpt lat="37.3186258" lon="13.6588812"><ele>331.66666666666663</ele><time>2026-05-06T08:40:56.396Z</time></trkpt><trkpt lat="37.3186554" lon="13.6589661"><ele>331.3333333333333</ele><time>2026-05-06T08:40:57.397Z</time></trkpt><trkpt lat="37.3186797" lon="13.6590471"><ele>331.0</ele><time>2026-05-06T08:40:58.398Z</time></trkpt><trkpt lat="37.3187024" lon="13.6591915"><ele>331.0</ele><time>2026-05-06T08:41:00.397Z</time></trkpt><trkpt lat="37.3187276" lon="13.6593133"><ele>331.0</ele><time>2026-05-06T08:41:02.397Z</time></trkpt><trkpt lat="37.3187296" lon="13.6594152"><ele>331.0</ele><time>2026-05-06T08:41:04.397Z</time></trkpt><trkpt lat="37.3187041" lon="13.6594895"><ele>331.0</ele><time>2026-05-06T08:41:09.397Z</time></trkpt><trkpt lat="37.3186355" lon="13.6595406"><ele>331.0</ele><time>2026-05-06T08:41:13.396Z</time></trkpt><trkpt lat="37.3185789" lon="13.6595977"><ele>331.0</ele><time>2026-05-06T08:41:17.397Z</time></trkpt><trkpt lat="37.3185179" lon="13.6596622"><ele>330.16666666666663</ele><time>2026-05-06T08:41:19.396Z</time></trkpt><trkpt lat="37.3184541" lon="13.6597294"><ele>329.3333333333333</ele><time>2026-05-06T08:41:22.397Z</time></trkpt><trkpt lat="37.318421" lon="13.6598175"><ele>328.5</ele><time>2026-05-06T08:41:25.396Z</time></trkpt><trkpt lat="37.3183565" lon="13.659868"><ele>327.6666666666667</ele><time>2026-05-06T08:41:27.398Z</time></trkpt><trkpt lat="37.3182705" lon="13.6599183"><ele>326.83333333333337</ele><time>2026-05-06T08:41:29.396Z</time></trkpt><trkpt lat="37.3181915" lon="13.6599556"><ele>326.0</ele><time>2026-05-06T08:41:31.396Z</time></trkpt><trkpt lat="37.3181269" lon="13.6599857"><ele>325.83333333333337</ele><time>2026-05-06T08:41:33.397Z</time></trkpt><trkpt lat="37.318067" lon="13.6600148"><ele>325.6666666666667</ele><time>2026-05-06T08:41:36.398Z</time></trkpt><trkpt lat="37.3180674" lon="13.6601054"><ele>325.5</ele><time>2026-05-06T08:41:38.397Z</time></trkpt><trkpt lat="37.3180606" lon="13.6602276"><ele>325.3333333333333</ele><time>2026-05-06T08:41:41.397Z</time></trkpt><trkpt lat="37.3180924" lon="13.6603327"><ele>325.16666666666663</ele><time>2026-05-06T08:41:43.397Z</time></trkpt><trkpt lat="37.3181248" lon="13.6604217"><ele>325.0</ele><time>2026-05-06T08:41:45.396Z</time></trkpt><trkpt lat="37.3181691" lon="13.6605257"><ele>324.5</ele><time>2026-05-06T08:41:47.397Z</time></trkpt><trkpt lat="37.3182074" lon="13.6606375"><ele>324.0</ele><time>2026-05-06T08:41:49.396Z</time></trkpt><trkpt lat="37.3182392" lon="13.6607415"><ele>323.5</ele><time>2026-05-06T08:41:51.397Z</time></trkpt><trkpt lat="37.3182746" lon="13.6608405"><ele>323.0</ele><time>2026-05-06T08:41:53.396Z</time></trkpt><trkpt lat="37.318313" lon="13.66093"><ele>322.5</ele><time>2026-05-06T08:41:55.397Z</time></trkpt><trkpt lat="37.3183218" lon="13.6610283"><ele>322.0</ele><time>2026-05-06T08:41:59.397Z</time></trkpt><trkpt lat="37.3182945" lon="13.6611072"><ele>321.3333333333333</ele><time>2026-05-06T08:42:03.396Z</time></trkpt><trkpt lat="37.3182287" lon="13.6611573"><ele>320.66666666666663</ele><time>2026-05-06T08:42:05.397Z</time></trkpt><trkpt lat="37.3181147" lon="13.6611758"><ele>320.0</ele><time>2026-05-06T08:42:07.396Z</time></trkpt><trkpt lat="37.3180445" lon="13.6611604"><ele>319.3333333333333</ele><time>2026-05-06T08:42:08.397Z</time></trkpt><trkpt lat="37.3179744" lon="13.6611261"><ele>318.6666666666667</ele><time>2026-05-06T08:42:09.396Z</time></trkpt><trkpt lat="37.317896" lon="13.6610982"><ele>318.0</ele><time>2026-05-06T08:42:10.396Z</time></trkpt><trkpt lat="37.3178211" lon="13.6610744"><ele>318.0</ele><time>2026-05-06T08:42:11.397Z</time></trkpt><trkpt lat="37.3177573" lon="13.6610626"><ele>318.0</ele><time>2026-05-06T08:42:12.398Z</time></trkpt><trkpt lat="37.3176713" lon="13.6611227"><ele>318.0</ele><time>2026-05-06T08:42:14.398Z</time></trkpt><trkpt lat="37.3176149" lon="13.6612753"><ele>318.0</ele><time>2026-05-06T08:42:16.398Z</time></trkpt><trkpt lat="37.3175869" lon="13.6613629"><ele>318.0</ele><time>2026-05-06T08:42:17.396Z</time></trkpt><trkpt lat="37.3175641" lon="13.6614733"><ele>317.8</ele><time>2026-05-06T08:42:18.397Z</time></trkpt><trkpt lat="37.3175514" lon="13.6615844"><ele>317.6</ele><time>2026-05-06T08:42:19.398Z</time></trkpt><trkpt lat="37.3175467" lon="13.6617004"><ele>317.4</ele><time>2026-05-06T08:42:20.396Z</time></trkpt><trkpt lat="37.3175441" lon="13.6618276"><ele>317.2</ele><time>2026-05-06T08:42:21.398Z</time></trkpt><trkpt lat="37.3175324" lon="13.6619405"><ele>317.0</ele><time>2026-05-06T08:42:22.396Z</time></trkpt><trkpt lat="37.3175189" lon="13.6620482"><ele>317.0</ele><time>2026-05-06T08:42:23.397Z</time></trkpt><trkpt lat="37.3174895" lon="13.6621466"><ele>317.0</ele><time>2026-05-06T08:42:24.397Z</time></trkpt><trkpt lat="37.3174535" lon="13.6622315"><ele>317.0</ele><time>2026-05-06T08:42:25.398Z</time></trkpt><trkpt lat="37.3174074" lon="13.6623009"><ele>317.0</ele><time>2026-05-06T08:42:26.397Z</time></trkpt><trkpt lat="37.317345" lon="13.6623494"><ele>317.0</ele><time>2026-05-06T08:42:27.398Z</time></trkpt><trkpt lat="37.31724" lon="13.6624291"><ele>317.0</ele><time>2026-05-06T08:42:29.397Z</time></trkpt><trkpt lat="37.3171369" lon="13.6624982"><ele>317.57142857142856</ele><time>2026-05-06T08:42:31.398Z</time></trkpt><trkpt lat="37.3170626" lon="13.6625438"><ele>318.1428571428571</ele><time>2026-05-06T08:42:32.397Z</time></trkpt><trkpt lat="37.3170096" lon="13.6625899"><ele>318.71428571428567</ele><time>2026-05-06T08:42:33.397Z</time></trkpt><trkpt lat="37.3169575" lon="13.6626382"><ele>319.2857142857143</ele><time>2026-05-06T08:42:34.397Z</time></trkpt><trkpt lat="37.31688" lon="13.6627102"><ele>319.85714285714283</ele><time>2026-05-06T08:42:36.396Z</time></trkpt><trkpt lat="37.3168238" lon="13.6627481"><ele>320.4285714285714</ele><time>2026-05-06T08:42:39.397Z</time></trkpt><trkpt lat="37.3167511" lon="13.6627724"><ele>321.0</ele><time>2026-05-06T08:42:41.398Z</time></trkpt><trkpt lat="37.3166732" lon="13.6628882"><ele>321.0</ele><time>2026-05-06T08:42:43.396Z</time></trkpt><trkpt lat="37.3166004" lon="13.6629695"><ele>321.0</ele><time>2026-05-06T08:42:45.397Z</time></trkpt><trkpt lat="37.3165074" lon="13.6629897"><ele>321.0</ele><time>2026-05-06T08:42:47.396Z</time></trkpt><trkpt lat="37.3164119" lon="13.6630748"><ele>321.0</ele><time>2026-05-06T08:42:49.396Z</time></trkpt><trkpt lat="37.3163712" lon="13.6631787"><ele>321.0</ele><time>2026-05-06T08:42:50.397Z</time></trkpt><trkpt lat="37.3163279" lon="13.6632578"><ele>320.5</ele><time>2026-05-06T08:42:51.397Z</time></trkpt><trkpt lat="37.3162705" lon="13.663324"><ele>320.0</ele><time>2026-05-06T08:42:52.398Z</time></trkpt><trkpt lat="37.3162137" lon="13.6633914"><ele>319.5</ele><time>2026-05-06T08:42:53.396Z</time></trkpt><trkpt lat="37.3161545" lon="13.6634642"><ele>319.0</ele><time>2026-05-06T08:42:54.397Z</time></trkpt><trkpt lat="37.3160935" lon="13.6635299"><ele>318.5</ele><time>2026-05-06T08:42:55.396Z</time></trkpt><trkpt lat="37.3160222" lon="13.6635784"><ele>318.0</ele><time>2026-05-06T08:42:56.397Z</time></trkpt><trkpt lat="37.3159589" lon="13.6636213"><ele>319.7142857142857</ele><time>2026-05-06T08:42:57.397Z</time></trkpt><trkpt lat="37.3159076" lon="13.6636743"><ele>321.42857142857144</ele><time>2026-05-06T08:42:58.396Z</time></trkpt><trkpt lat="37.3158567" lon="13.6637421"><ele>323.14285714285717</ele><time>2026-05-06T08:42:59.398Z</time></trkpt><trkpt lat="37.3158131" lon="13.663811"><ele>324.8571428571429</ele><time>2026-05-06T08:43:00.397Z</time></trkpt><trkpt lat="37.3157845" lon="13.663891"><ele>326.57142857142856</ele><time>2026-05-06T08:43:01.396Z</time></trkpt><trkpt lat="37.315757" lon="13.6639757"><ele>328.28571428571433</ele><time>2026-05-06T08:43:02.397Z</time></trkpt><trkpt lat="37.3157289" lon="13.6640579"><ele>330.0</ele><time>2026-05-06T08:43:03.397Z</time></trkpt><trkpt lat="37.3156948" lon="13.6641257"><ele>330.0</ele><time>2026-05-06T08:43:04.396Z</time></trkpt><trkpt lat="37.3155886" lon="13.6642011"><ele>330.0</ele><time>2026-05-06T08:43:06.397Z</time></trkpt><trkpt lat="37.3155199" lon="13.6642267"><ele>330.0</ele><time>2026-05-06T08:43:07.397Z</time></trkpt><trkpt lat="37.3154543" lon="13.6642585"><ele>330.0</ele><time>2026-05-06T08:43:08.397Z</time></trkpt><trkpt lat="37.3153934" lon="13.6642986"><ele>330.0</ele><time>2026-05-06T08:43:09.396Z</time></trkpt><trkpt lat="37.315345" lon="13.6643541"><ele>330.0</ele><time>2026-05-06T08:43:10.397Z</time></trkpt><trkpt lat="37.3152937" lon="13.6644676"><ele>330.0</ele><time>2026-05-06T08:43:12.396Z</time></trkpt><trkpt lat="37.3152928" lon="13.6645595"><ele>330.0</ele><time>2026-05-06T08:43:14.396Z</time></trkpt><trkpt lat="37.3153927" lon="13.6645202"><ele>330.0</ele><time>2026-05-06T08:43:16.397Z</time></trkpt><trkpt lat="37.3154537" lon="13.6644891"><ele>330.0</ele><time>2026-05-06T08:43:17.398Z</time></trkpt><trkpt lat="37.3155182" lon="13.6644619"><ele>330.0</ele><time>2026-05-06T08:43:18.398Z</time></trkpt><trkpt lat="37.3155877" lon="13.6644201"><ele>330.0</ele><time>2026-05-06T08:43:19.397Z</time></trkpt><trkpt lat="37.315647" lon="13.6643932"><ele>330.0</ele><time>2026-05-06T08:43:20.397Z</time></trkpt><trkpt lat="37.3157467" lon="13.6643968"><ele>330.0</ele><time>2026-05-06T08:43:22.397Z</time></trkpt><trkpt lat="37.3158253" lon="13.6644437"><ele>330.0</ele><time>2026-05-06T08:43:24.397Z</time></trkpt><trkpt lat="37.3159053" lon="13.6645036"><ele>330.0</ele><time>2026-05-06T08:43:26.397Z</time></trkpt><trkpt lat="37.3159465" lon="13.6646214"><ele>330.0</ele><time>2026-05-06T08:43:28.397Z</time></trkpt><trkpt lat="37.3159055" lon="13.6647818"><ele>330.1666666666667</ele><time>2026-05-06T08:43:30.396Z</time></trkpt><trkpt lat="37.315851" lon="13.6648781"><ele>330.3333333333333</ele><time>2026-05-06T08:43:31.398Z</time></trkpt><trkpt lat="37.3157899" lon="13.6649732"><ele>330.5</ele><time>2026-05-06T08:43:32.398Z</time></trkpt><trkpt lat="37.3157231" lon="13.6650514"><ele>330.66666666666663</ele><time>2026-05-06T08:43:33.397Z</time></trkpt><trkpt lat="37.3156588" lon="13.6651071"><ele>330.8333333333333</ele><time>2026-05-06T08:43:34.397Z</time></trkpt><trkpt lat="37.3155888" lon="13.6651558"><ele>331.0</ele><time>2026-05-06T08:43:35.397Z</time></trkpt><trkpt lat="37.3155198" lon="13.6652067"><ele>331.0</ele><time>2026-05-06T08:43:36.397Z</time></trkpt><trkpt lat="37.3154561" lon="13.6652487"><ele>331.0</ele><time>2026-05-06T08:43:37.397Z</time></trkpt><trkpt lat="37.3153967" lon="13.6652916"><ele>331.0</ele><time>2026-05-06T08:43:38.398Z</time></trkpt><trkpt lat="37.3153424" lon="13.6653392"><ele>331.0</ele><time>2026-05-06T08:43:39.398Z</time></trkpt><trkpt lat="37.3152849" lon="13.6653721"><ele>331.0</ele><time>2026-05-06T08:43:40.396Z</time></trkpt><trkpt lat="37.3151778" lon="13.6654295"><ele>331.0</ele><time>2026-05-06T08:43:42.396Z</time></trkpt><trkpt lat="37.3150897" lon="13.6654827"><ele>330.57142857142856</ele><time>2026-05-06T08:43:44.398Z</time></trkpt><trkpt lat="37.3150319" lon="13.6655379"><ele>330.1428571428571</ele><time>2026-05-06T08:43:46.397Z</time></trkpt><trkpt lat="37.3150023" lon="13.6656111"><ele>329.71428571428567</ele><time>2026-05-06T08:43:48.396Z</time></trkpt><trkpt lat="37.3149999" lon="13.6657012"><ele>329.2857142857143</ele><time>2026-05-06T08:43:50.397Z</time></trkpt><trkpt lat="37.3150163" lon="13.6657909"><ele>328.85714285714283</ele><time>2026-05-06T08:43:52.397Z</time></trkpt><trkpt lat="37.3150251" lon="13.6658916"><ele>328.4285714285714</ele><time>2026-05-06T08:43:54.396Z</time></trkpt><trkpt lat="37.3150313" lon="13.6659893"><ele>328.0</ele><time>2026-05-06T08:43:56.397Z</time></trkpt><trkpt lat="37.3150418" lon="13.6660807"><ele>327.0</ele><time>2026-05-06T08:43:58.396Z</time></trkpt><trkpt lat="37.3150527" lon="13.6661624"><ele>326.0</ele><time>2026-05-06T08:44:00.397Z</time></trkpt><trkpt lat="37.3150426" lon="13.6662483"><ele>325.0</ele><time>2026-05-06T08:44:02.396Z</time></trkpt><trkpt lat="37.3149585" lon="13.6663068"><ele>324.0</ele><time>2026-05-06T08:44:04.396Z</time></trkpt><trkpt lat="37.314833" lon="13.6663143"><ele>323.0</ele><time>2026-05-06T08:44:06.398Z</time></trkpt><trkpt lat="37.314705" lon="13.6663258"><ele>321.4</ele><time>2026-05-06T08:44:08.396Z</time></trkpt><trkpt lat="37.314577" lon="13.6663403"><ele>319.79999999999995</ele><time>2026-05-06T08:44:10.397Z</time></trkpt><trkpt lat="37.3144635" lon="13.6663723"><ele>318.2</ele><time>2026-05-06T08:44:12.396Z</time></trkpt><trkpt lat="37.3144035" lon="13.6664183"><ele>316.6</ele><time>2026-05-06T08:44:14.397Z</time></trkpt><trkpt lat="37.3144066" lon="13.6665313"><ele>315.0</ele><time>2026-05-06T08:44:16.397Z</time></trkpt><trkpt lat="37.3144307" lon="13.6666774"><ele>315.0</ele><time>2026-05-06T08:44:18.396Z</time></trkpt><trkpt lat="37.3144489" lon="13.6667875"><ele>315.0</ele><time>2026-05-06T08:44:20.397Z</time></trkpt><trkpt lat="37.3144468" lon="13.6668692"><ele>315.0</ele><time>2026-05-06T08:44:22.398Z</time></trkpt><trkpt lat="37.314369" lon="13.6669314"><ele>315.0</ele><time>2026-05-06T08:44:25.396Z</time></trkpt><trkpt lat="37.3142637" lon="13.6669413"><ele>315.0</ele><time>2026-05-06T08:44:27.398Z</time></trkpt><trkpt lat="37.3141878" lon="13.6669476"><ele>315.0</ele><time>2026-05-06T08:44:29.397Z</time></trkpt><trkpt lat="37.3141155" lon="13.6669323"><ele>314.25</ele><time>2026-05-06T08:44:33.396Z</time></trkpt><trkpt lat="37.3140348" lon="13.6669514"><ele>313.5</ele><time>2026-05-06T08:44:35.396Z</time></trkpt><trkpt lat="37.3138729" lon="13.667003"><ele>312.75</ele><time>2026-05-06T08:44:37.397Z</time></trkpt><trkpt lat="37.3137753" lon="13.6670332"><ele>312.0</ele><time>2026-05-06T08:44:38.398Z</time></trkpt><trkpt lat="37.3136666" lon="13.6670631"><ele>311.8333333333333</ele><time>2026-05-06T08:44:39.397Z</time></trkpt><trkpt lat="37.3135957" lon="13.6670683"><ele>311.6666666666667</ele><time>2026-05-06T08:44:40.396Z</time></trkpt><trkpt lat="37.313528" lon="13.6670723"><ele>311.5</ele><time>2026-05-06T08:44:41.397Z</time></trkpt><trkpt lat="37.3134619" lon="13.6670172"><ele>311.33333333333337</ele><time>2026-05-06T08:44:43.396Z</time></trkpt><trkpt lat="37.3134475" lon="13.6669247"><ele>311.1666666666667</ele><time>2026-05-06T08:44:44.396Z</time></trkpt><trkpt lat="37.3134349" lon="13.6668097"><ele>311.0</ele><time>2026-05-06T08:44:45.396Z</time></trkpt><trkpt lat="37.3134233" lon="13.6667185"><ele>311.2</ele><time>2026-05-06T08:44:46.396Z</time></trkpt><trkpt lat="37.3134042" lon="13.6666376"><ele>311.40000000000003</ele><time>2026-05-06T08:44:47.397Z</time></trkpt><trkpt lat="37.313322" lon="13.6665782"><ele>311.6</ele><time>2026-05-06T08:44:49.396Z</time></trkpt><trkpt lat="37.3132309" lon="13.6665932"><ele>311.8</ele><time>2026-05-06T08:44:50.397Z</time></trkpt><trkpt lat="37.313138" lon="13.6666195"><ele>312.0</ele><time>2026-05-06T08:44:51.396Z</time></trkpt><trkpt lat="37.3130196" lon="13.6666363"><ele>312.0</ele><time>2026-05-06T08:44:52.396Z</time></trkpt><trkpt lat="37.3129106" lon="13.6666552"><ele>312.0</ele><time>2026-05-06T08:44:53.396Z</time></trkpt><trkpt lat="37.3128191" lon="13.6666643"><ele>312.0</ele><time>2026-05-06T08:44:54.397Z</time></trkpt><trkpt lat="37.3127442" lon="13.6666731"><ele>312.0</ele><time>2026-05-06T08:44:55.396Z</time></trkpt><trkpt lat="37.3126663" lon="13.6667292"><ele>312.0</ele><time>2026-05-06T08:44:57.396Z</time></trkpt><trkpt lat="37.3126152" lon="13.6667905"><ele>312.0</ele><time>2026-05-06T08:44:58.396Z</time></trkpt><trkpt lat="37.312567" lon="13.6668642"><ele>311.25</ele><time>2026-05-06T08:44:59.396Z</time></trkpt><trkpt lat="37.3125053" lon="13.6669869"><ele>310.5</ele><time>2026-05-06T08:45:00.396Z</time></trkpt><trkpt lat="37.3124338" lon="13.6671193"><ele>309.75</ele><time>2026-05-06T08:45:01.397Z</time></trkpt><trkpt lat="37.3123506" lon="13.6672667"><ele>309.0</ele><time>2026-05-06T08:45:02.397Z</time></trkpt><trkpt lat="37.3122685" lon="13.6674136"><ele>309.0</ele><time>2026-05-06T08:45:03.397Z</time></trkpt><trkpt lat="37.3121932" lon="13.6675512"><ele>309.0</ele><time>2026-05-06T08:45:04.396Z</time></trkpt><trkpt lat="37.3121204" lon="13.6676856"><ele>309.0</ele><time>2026-05-06T08:45:05.396Z</time></trkpt><trkpt lat="37.3120569" lon="13.6677977"><ele>309.0</ele><time>2026-05-06T08:45:06.396Z</time></trkpt><trkpt lat="37.3119909" lon="13.6679042"><ele>307.8</ele><time>2026-05-06T08:45:07.397Z</time></trkpt><trkpt lat="37.3119146" lon="13.6679906"><ele>306.59999999999997</ele><time>2026-05-06T08:45:08.396Z</time></trkpt><trkpt lat="37.3118337" lon="13.6680564"><ele>305.4</ele><time>2026-05-06T08:45:09.396Z</time></trkpt><trkpt lat="37.311753" lon="13.6681109"><ele>304.2</ele><time>2026-05-06T08:45:10.397Z</time></trkpt><trkpt lat="37.3116761" lon="13.6681709"><ele>303.0</ele><time>2026-05-06T08:45:11.396Z</time></trkpt><trkpt lat="37.3116055" lon="13.6682328"><ele>303.0</ele><time>2026-05-06T08:45:12.398Z</time></trkpt><trkpt lat="37.3115404" lon="13.668301"><ele>303.0</ele><time>2026-05-06T08:45:13.397Z</time></trkpt><trkpt lat="37.3114769" lon="13.6683789"><ele>303.0</ele><time>2026-05-06T08:45:14.397Z</time></trkpt><trkpt lat="37.3114165" lon="13.6684589"><ele>303.0</ele><time>2026-05-06T08:45:15.398Z</time></trkpt><trkpt lat="37.3113608" lon="13.6685355"><ele>303.0</ele><time>2026-05-06T08:45:16.396Z</time></trkpt><trkpt lat="37.3113057" lon="13.6686221"><ele>303.0</ele><time>2026-05-06T08:45:17.397Z</time></trkpt><trkpt lat="37.3112493" lon="13.6687157"><ele>302.2</ele><time>2026-05-06T08:45:18.396Z</time></trkpt><trkpt lat="37.3111939" lon="13.6688107"><ele>301.4</ele><time>2026-05-06T08:45:19.398Z</time></trkpt><trkpt lat="37.3111378" lon="13.6689125"><ele>300.59999999999997</ele><time>2026-05-06T08:45:20.397Z</time></trkpt><trkpt lat="37.3110805" lon="13.6690282"><ele>299.8</ele><time>2026-05-06T08:45:21.397Z</time></trkpt><trkpt lat="37.3110131" lon="13.6691609"><ele>299.0</ele><time>2026-05-06T08:45:22.396Z</time></trkpt><trkpt lat="37.3109512" lon="13.6692794"><ele>299.0</ele><time>2026-05-06T08:45:23.397Z</time></trkpt><trkpt lat="37.3108901" lon="13.6693989"><ele>299.0</ele><time>2026-05-06T08:45:24.399Z</time></trkpt><trkpt lat="37.3108369" lon="13.6695103"><ele>299.0</ele><time>2026-05-06T08:45:25.397Z</time></trkpt><trkpt lat="37.3107856" lon="13.669617"><ele>299.0</ele><time>2026-05-06T08:45:26.397Z</time></trkpt><trkpt lat="37.3107355" lon="13.6697122"><ele>299.0</ele><time>2026-05-06T08:45:27.396Z</time></trkpt><trkpt lat="37.310685" lon="13.6698087"><ele>298.5</ele><time>2026-05-06T08:45:28.396Z</time></trkpt><trkpt lat="37.3106368" lon="13.6698991"><ele>298.0</ele><time>2026-05-06T08:45:29.396Z</time></trkpt><trkpt lat="37.3105892" lon="13.6699841"><ele>297.5</ele><time>2026-05-06T08:45:30.396Z</time></trkpt><trkpt lat="37.3105433" lon="13.6700738"><ele>297.0</ele><time>2026-05-06T08:45:31.396Z</time></trkpt><trkpt lat="37.3104941" lon="13.6701702"><ele>296.5</ele><time>2026-05-06T08:45:32.397Z</time></trkpt><trkpt lat="37.3104402" lon="13.6702737"><ele>296.0</ele><time>2026-05-06T08:45:33.397Z</time></trkpt><trkpt lat="37.3103847" lon="13.6703788"><ele>295.8</ele><time>2026-05-06T08:45:34.398Z</time></trkpt><trkpt lat="37.3103329" lon="13.670481"><ele>295.6</ele><time>2026-05-06T08:45:35.396Z</time></trkpt><trkpt lat="37.3102816" lon="13.6705803"><ele>295.4</ele><time>2026-05-06T08:45:36.396Z</time></trkpt><trkpt lat="37.3102422" lon="13.6706758"><ele>295.2</ele><time>2026-05-06T08:45:37.396Z</time></trkpt><trkpt lat="37.3101954" lon="13.6707569"><ele>295.0</ele><time>2026-05-06T08:45:38.398Z</time></trkpt><trkpt lat="37.3101357" lon="13.6708493"><ele>295.0</ele><time>2026-05-06T08:45:39.397Z</time></trkpt><trkpt lat="37.3100731" lon="13.6709423"><ele>295.0</ele><time>2026-05-06T08:45:40.397Z</time></trkpt><trkpt lat="37.309997" lon="13.6710364"><ele>295.0</ele><time>2026-05-06T08:45:41.397Z</time></trkpt><trkpt lat="37.3099098" lon="13.6711354"><ele>295.0</ele><time>2026-05-06T08:45:42.396Z</time></trkpt><trkpt lat="37.3098228" lon="13.6712393"><ele>295.0</ele><time>2026-05-06T08:45:43.397Z</time></trkpt><trkpt lat="37.3097377" lon="13.6713308"><ele>294.6</ele><time>2026-05-06T08:45:44.396Z</time></trkpt><trkpt lat="37.3096429" lon="13.6714049"><ele>294.2</ele><time>2026-05-06T08:45:45.396Z</time></trkpt><trkpt lat="37.3095578" lon="13.6714758"><ele>293.8</ele><time>2026-05-06T08:45:46.396Z</time></trkpt><trkpt lat="37.309472" lon="13.6715283"><ele>293.4</ele><time>2026-05-06T08:45:47.397Z</time></trkpt><trkpt lat="37.3093826" lon="13.6715834"><ele>293.0</ele><time>2026-05-06T08:45:48.396Z</time></trkpt><trkpt lat="37.3092853" lon="13.671643"><ele>293.0</ele><time>2026-05-06T08:45:49.396Z</time></trkpt><trkpt lat="37.3091927" lon="13.6717"><ele>293.0</ele><time>2026-05-06T08:45:50.396Z</time></trkpt><trkpt lat="37.3091036" lon="13.6717551"><ele>293.0</ele><time>2026-05-06T08:45:51.396Z</time></trkpt><trkpt lat="37.3090231" lon="13.6718156"><ele>293.0</ele><time>2026-05-06T08:45:52.396Z</time></trkpt><trkpt lat="37.3089428" lon="13.6718782"><ele>293.0</ele><time>2026-05-06T08:45:53.396Z</time></trkpt><trkpt lat="37.3088632" lon="13.6719497"><ele>291.6</ele><time>2026-05-06T08:45:54.397Z</time></trkpt><trkpt lat="37.3087771" lon="13.672019"><ele>290.20000000000005</ele><time>2026-05-06T08:45:55.397Z</time></trkpt><trkpt lat="37.3086997" lon="13.6720891"><ele>288.8</ele><time>2026-05-06T08:45:56.396Z</time></trkpt><trkpt lat="37.3086248" lon="13.6721557"><ele>287.40000000000003</ele><time>2026-05-06T08:45:57.396Z</time></trkpt><trkpt lat="37.3085667" lon="13.6722289"><ele>286.0</ele><time>2026-05-06T08:45:58.397Z</time></trkpt><trkpt lat="37.308513" lon="13.6723077"><ele>286.0</ele><time>2026-05-06T08:45:59.396Z</time></trkpt><trkpt lat="37.3084522" lon="13.6723619"><ele>286.0</ele><time>2026-05-06T08:46:00.397Z</time></trkpt><trkpt lat="37.3083871" lon="13.6723985"><ele>286.0</ele><time>2026-05-06T08:46:01.396Z</time></trkpt><trkpt lat="37.3083073" lon="13.6724248"><ele>286.0</ele><time>2026-05-06T08:46:02.396Z</time></trkpt><trkpt lat="37.3082181" lon="13.6724692"><ele>286.0</ele><time>2026-05-06T08:46:03.396Z</time></trkpt><trkpt lat="37.3081188" lon="13.6725229"><ele>286.0</ele><time>2026-05-06T08:46:04.397Z</time></trkpt><trkpt lat="37.3080231" lon="13.6725607"><ele>286.40000000000003</ele><time>2026-05-06T08:46:05.396Z</time></trkpt><trkpt lat="37.3079174" lon="13.6726072"><ele>286.8</ele><time>2026-05-06T08:46:06.396Z</time></trkpt><trkpt lat="37.3078221" lon="13.6726624"><ele>287.20000000000005</ele><time>2026-05-06T08:46:07.396Z</time></trkpt><trkpt lat="37.3077406" lon="13.6727142"><ele>287.6</ele><time>2026-05-06T08:46:08.396Z</time></trkpt><trkpt lat="37.3076526" lon="13.6727509"><ele>288.0</ele><time>2026-05-06T08:46:09.397Z</time></trkpt><trkpt lat="37.3075545" lon="13.6727844"><ele>287.6</ele><time>2026-05-06T08:46:10.398Z</time></trkpt><trkpt lat="37.307446" lon="13.6728007"><ele>287.20000000000005</ele><time>2026-05-06T08:46:11.396Z</time></trkpt><trkpt lat="37.307335" lon="13.6728159"><ele>286.8</ele><time>2026-05-06T08:46:12.397Z</time></trkpt><trkpt lat="37.3072323" lon="13.6728305"><ele>286.40000000000003</ele><time>2026-05-06T08:46:13.397Z</time></trkpt><trkpt lat="37.3071291" lon="13.6728422"><ele>286.0</ele><time>2026-05-06T08:46:14.396Z</time></trkpt><trkpt lat="37.3070343" lon="13.6728521"><ele>286.0</ele><time>2026-05-06T08:46:15.397Z</time></trkpt><trkpt lat="37.3069369" lon="13.6728735"><ele>286.0</ele><time>2026-05-06T08:46:16.397Z</time></trkpt><trkpt lat="37.3068371" lon="13.6728935"><ele>286.0</ele><time>2026-05-06T08:46:17.397Z</time></trkpt><trkpt lat="37.3067359" lon="13.6729162"><ele>286.0</ele><time>2026-05-06T08:46:18.396Z</time></trkpt><trkpt lat="37.3066381" lon="13.6729459"><ele>286.0</ele><time>2026-05-06T08:46:19.396Z</time></trkpt><trkpt lat="37.3065389" lon="13.6729805"><ele>286.0</ele><time>2026-05-06T08:46:20.397Z</time></trkpt><trkpt lat="37.3064448" lon="13.6730043"><ele>286.0</ele><time>2026-05-06T08:46:21.396Z</time></trkpt><trkpt lat="37.30636" lon="13.6730301"><ele>286.0</ele><time>2026-05-06T08:46:22.398Z</time></trkpt><trkpt lat="37.3062765" lon="13.6730452"><ele>286.0</ele><time>2026-05-06T08:46:23.396Z</time></trkpt><trkpt lat="37.306199" lon="13.6730628"><ele>286.0</ele><time>2026-05-06T08:46:24.396Z</time></trkpt><trkpt lat="37.3061275" lon="13.6730969"><ele>286.0</ele><time>2026-05-06T08:46:25.396Z</time></trkpt><trkpt lat="37.306062" lon="13.6731442"><ele>286.2</ele><time>2026-05-06T08:46:26.397Z</time></trkpt><trkpt lat="37.3060045" lon="13.6732025"><ele>286.40000000000003</ele><time>2026-05-06T08:46:27.396Z</time></trkpt><trkpt lat="37.3059492" lon="13.6732576"><ele>286.6</ele><time>2026-05-06T08:46:28.396Z</time></trkpt><trkpt lat="37.3058409" lon="13.6733512"><ele>286.8</ele><time>2026-05-06T08:46:30.398Z</time></trkpt><trkpt lat="37.3057829" lon="13.6733936"><ele>287.0</ele><time>2026-05-06T08:46:31.397Z</time></trkpt><trkpt lat="37.305662" lon="13.6734748"><ele>287.0</ele><time>2026-05-06T08:46:33.396Z</time></trkpt><trkpt lat="37.3055904" lon="13.6735001"><ele>287.0</ele><time>2026-05-06T08:46:34.397Z</time></trkpt><trkpt lat="37.3055192" lon="13.6735223"><ele>287.0</ele><time>2026-05-06T08:46:35.397Z</time></trkpt><trkpt lat="37.3054424" lon="13.673539"><ele>287.0</ele><time>2026-05-06T08:46:36.396Z</time></trkpt><trkpt lat="37.3053719" lon="13.6735638"><ele>287.0</ele><time>2026-05-06T08:46:37.397Z</time></trkpt><trkpt lat="37.3053042" lon="13.6736014"><ele>287.0</ele><time>2026-05-06T08:46:38.398Z</time></trkpt><trkpt lat="37.3052398" lon="13.6736523"><ele>287.0</ele><time>2026-05-06T08:46:39.397Z</time></trkpt><trkpt lat="37.3051764" lon="13.6737065"><ele>285.42857142857144</ele><time>2026-05-06T08:46:40.397Z</time></trkpt><trkpt lat="37.3051236" lon="13.6737768"><ele>283.8571428571429</ele><time>2026-05-06T08:46:41.396Z</time></trkpt><trkpt lat="37.3050733" lon="13.673843"><ele>282.2857142857143</ele><time>2026-05-06T08:46:42.396Z</time></trkpt><trkpt lat="37.305025" lon="13.6739038"><ele>280.7142857142857</ele><time>2026-05-06T08:46:43.396Z</time></trkpt><trkpt lat="37.3049797" lon="13.6739589"><ele>279.14285714285717</ele><time>2026-05-06T08:46:44.397Z</time></trkpt><trkpt lat="37.3049297" lon="13.6740161"><ele>277.57142857142856</ele><time>2026-05-06T08:46:45.396Z</time></trkpt><trkpt lat="37.3048836" lon="13.674083"><ele>276.0</ele><time>2026-05-06T08:46:46.397Z</time></trkpt><trkpt lat="37.3048384" lon="13.6741557"><ele>276.0</ele><time>2026-05-06T08:46:47.396Z</time></trkpt><trkpt lat="37.3047912" lon="13.6742294"><ele>276.0</ele><time>2026-05-06T08:46:48.397Z</time></trkpt><trkpt lat="37.3047466" lon="13.674309"><ele>276.0</ele><time>2026-05-06T08:46:49.396Z</time></trkpt><trkpt lat="37.3047067" lon="13.6743877"><ele>276.0</ele><time>2026-05-06T08:46:50.398Z</time></trkpt><trkpt lat="37.3046733" lon="13.6744715"><ele>276.0</ele><time>2026-05-06T08:46:51.397Z</time></trkpt><trkpt lat="37.3046472" lon="13.6745572"><ele>276.0</ele><time>2026-05-06T08:46:52.397Z</time></trkpt><trkpt lat="37.3046314" lon="13.6746468"><ele>276.0</ele><time>2026-05-06T08:46:53.396Z</time></trkpt><trkpt lat="37.3046097" lon="13.6747315"><ele>273.57142857142856</ele><time>2026-05-06T08:46:54.397Z</time></trkpt><trkpt lat="37.3045794" lon="13.6748157"><ele>271.14285714285717</ele><time>2026-05-06T08:46:55.396Z</time></trkpt><trkpt lat="37.3045426" lon="13.6748966"><ele>268.7142857142857</ele><time>2026-05-06T08:46:56.397Z</time></trkpt><trkpt lat="37.3044806" lon="13.6749555"><ele>266.2857142857143</ele><time>2026-05-06T08:46:57.398Z</time></trkpt><trkpt lat="37.304423" lon="13.6750106"><ele>263.8571428571429</ele><time>2026-05-06T08:46:58.396Z</time></trkpt><trkpt lat="37.3043651" lon="13.6750721"><ele>261.42857142857144</ele><time>2026-05-06T08:46:59.398Z</time></trkpt><trkpt lat="37.3043166" lon="13.6751452"><ele>259.0</ele><time>2026-05-06T08:47:00.396Z</time></trkpt><trkpt lat="37.3042725" lon="13.6752196"><ele>259.0</ele><time>2026-05-06T08:47:01.397Z</time></trkpt><trkpt lat="37.3042339" lon="13.67529"><ele>259.0</ele><time>2026-05-06T08:47:02.397Z</time></trkpt><trkpt lat="37.3041734" lon="13.6754164"><ele>259.0</ele><time>2026-05-06T08:47:04.396Z</time></trkpt><trkpt lat="37.304112" lon="13.6755282"><ele>259.0</ele><time>2026-05-06T08:47:06.396Z</time></trkpt><trkpt lat="37.3040652" lon="13.6755902"><ele>259.0</ele><time>2026-05-06T08:47:08.397Z</time></trkpt><trkpt lat="37.3040183" lon="13.6756472"><ele>259.0</ele><time>2026-05-06T08:47:12.397Z</time></trkpt><trkpt lat="37.3039769" lon="13.6757293"><ele>259.0</ele><time>2026-05-06T08:47:17.396Z</time></trkpt><trkpt lat="37.3039435" lon="13.6758116"><ele>259.0</ele><time>2026-05-06T08:47:20.397Z</time></trkpt><trkpt lat="37.3038761" lon="13.675862"><ele>259.0</ele><time>2026-05-06T08:47:22.397Z</time></trkpt><trkpt lat="37.3037861" lon="13.6759703"><ele>259.0</ele><time>2026-05-06T08:47:24.397Z</time></trkpt><trkpt lat="37.3037394" lon="13.6760276"><ele>259.0</ele><time>2026-05-06T08:47:25.397Z</time></trkpt><trkpt lat="37.3036873" lon="13.6760811"><ele>259.0</ele><time>2026-05-06T08:47:26.396Z</time></trkpt><trkpt lat="37.3036013" lon="13.6761786"><ele>256.8</ele><time>2026-05-06T08:47:28.397Z</time></trkpt><trkpt lat="37.3035297" lon="13.6762816"><ele>254.59999999999997</ele><time>2026-05-06T08:47:30.396Z</time></trkpt><trkpt lat="37.3034782" lon="13.6763838"><ele>252.4</ele><time>2026-05-06T08:47:32.396Z</time></trkpt><trkpt lat="37.3034135" lon="13.6764715"><ele>250.2</ele><time>2026-05-06T08:47:34.397Z</time></trkpt><trkpt lat="37.3033638" lon="13.6765732"><ele>248.0</ele><time>2026-05-06T08:47:36.397Z</time></trkpt><trkpt lat="37.3033008" lon="13.6766819"><ele>248.0</ele><time>2026-05-06T08:47:38.397Z</time></trkpt><trkpt lat="37.3032468" lon="13.6767927"><ele>248.0</ele><time>2026-05-06T08:47:40.397Z</time></trkpt><trkpt lat="37.3032226" lon="13.6768741"><ele>248.0</ele><time>2026-05-06T08:47:41.396Z</time></trkpt><trkpt lat="37.3031998" lon="13.6769507"><ele>248.0</ele><time>2026-05-06T08:47:42.396Z</time></trkpt><trkpt lat="37.3031545" lon="13.6770913"><ele>248.0</ele><time>2026-05-06T08:47:44.397Z</time></trkpt><trkpt lat="37.3031089" lon="13.6772262"><ele>247.83333333333334</ele><time>2026-05-06T08:47:46.397Z</time></trkpt><trkpt lat="37.3030647" lon="13.6773476"><ele>247.66666666666669</ele><time>2026-05-06T08:47:48.397Z</time></trkpt><trkpt lat="37.3030116" lon="13.6774644"><ele>247.5</ele><time>2026-05-06T08:47:50.396Z</time></trkpt><trkpt lat="37.3029285" lon="13.6775458"><ele>247.33333333333331</ele><time>2026-05-06T08:47:52.396Z</time></trkpt><trkpt lat="37.3028692" lon="13.6775857"><ele>247.16666666666666</ele><time>2026-05-06T08:47:53.398Z</time></trkpt><trkpt lat="37.302811" lon="13.6776174"><ele>247.0</ele><time>2026-05-06T08:47:54.396Z</time></trkpt><trkpt lat="37.302742" lon="13.6776206"><ele>246.99999999999997</ele><time>2026-05-06T08:47:55.396Z</time></trkpt><trkpt lat="37.3026732" lon="13.6776254"><ele>247.0</ele><time>2026-05-06T08:47:56.397Z</time></trkpt><trkpt lat="37.3026049" lon="13.6776159"><ele>247.0</ele><time>2026-05-06T08:47:57.396Z</time></trkpt><trkpt lat="37.3024896" lon="13.67757"><ele>247.0</ele><time>2026-05-06T08:47:59.396Z</time></trkpt><trkpt lat="37.3024285" lon="13.677542"><ele>246.99999999999997</ele><time>2026-05-06T08:48:00.396Z</time></trkpt><trkpt lat="37.3023565" lon="13.6775131"><ele>247.0</ele><time>2026-05-06T08:48:01.397Z</time></trkpt><trkpt lat="37.3022729" lon="13.677475"><ele>246.99999999999997</ele><time>2026-05-06T08:48:02.396Z</time></trkpt><trkpt lat="37.3021854" lon="13.6774461"><ele>247.0</ele><time>2026-05-06T08:48:03.396Z</time></trkpt><trkpt lat="37.3021114" lon="13.6774318"><ele>247.0</ele><time>2026-05-06T08:48:04.396Z</time></trkpt><trkpt lat="37.3020411" lon="13.6774337"><ele>247.0</ele><time>2026-05-06T08:48:05.396Z</time></trkpt><trkpt lat="37.3019646" lon="13.6774515"><ele>246.99999999999997</ele><time>2026-05-06T08:48:06.396Z</time></trkpt><trkpt lat="37.3018913" lon="13.6774864"><ele>247.0</ele><time>2026-05-06T08:48:07.398Z</time></trkpt><trkpt lat="37.3018105" lon="13.6775391"><ele>246.99999999999997</ele><time>2026-05-06T08:48:08.396Z</time></trkpt><trkpt lat="37.3017433" lon="13.677596"><ele>247.0</ele><time>2026-05-06T08:48:09.397Z</time></trkpt><trkpt lat="37.30168" lon="13.6776532"><ele>247.0</ele><time>2026-05-06T08:48:10.396Z</time></trkpt><trkpt lat="37.3016215" lon="13.6777105"><ele>247.0</ele><time>2026-05-06T08:48:11.396Z</time></trkpt><trkpt lat="37.3015686" lon="13.677764"><ele>246.99999999999997</ele><time>2026-05-06T08:48:12.396Z</time></trkpt><trkpt lat="37.3015058" lon="13.6778418"><ele>247.0</ele><time>2026-05-06T08:48:14.396Z</time></trkpt><trkpt lat="37.3014246" lon="13.6779027"><ele>245.39999999999998</ele><time>2026-05-06T08:54:14.396Z</time></trkpt><trkpt lat="37.3013327" lon="13.6779782"><ele>243.79999999999998</ele><time>2026-05-06T08:54:16.396Z</time></trkpt><trkpt lat="37.3012576" lon="13.6780419"><ele>242.2</ele><time>2026-05-06T08:54:18.396Z</time></trkpt><trkpt lat="37.3011899" lon="13.678108"><ele>240.6</ele><time>2026-05-06T08:54:21.396Z</time></trkpt><trkpt lat="37.3011158" lon="13.6781728"><ele>239.0</ele><time>2026-05-06T08:54:46.396Z</time></trkpt><trkpt lat="37.3010551" lon="13.6782306"><ele>239.00000000000003</ele><time>2026-05-06T08:54:48.395Z</time></trkpt><trkpt lat="37.3009942" lon="13.6782986"><ele>239.0</ele><time>2026-05-06T08:54:51.396Z</time></trkpt><trkpt lat="37.3009235" lon="13.6782918"><ele>239.0</ele><time>2026-05-06T08:54:54.396Z</time></trkpt><trkpt lat="37.3008696" lon="13.6782315"><ele>239.0</ele><time>2026-05-06T08:54:57.396Z</time></trkpt><trkpt lat="37.3008215" lon="13.6781507"><ele>239.00000000000003</ele><time>2026-05-06T08:55:00.396Z</time></trkpt><trkpt lat="37.3007875" lon="13.6780828"><ele>239.0</ele><time>2026-05-06T08:55:02.396Z</time></trkpt><trkpt lat="37.3007375" lon="13.6779933"><ele>239.00000000000003</ele><time>2026-05-06T08:55:05.396Z</time></trkpt><trkpt lat="37.3006959" lon="13.6779213"><ele>239.0</ele><time>2026-05-06T08:55:07.396Z</time></trkpt><trkpt lat="37.3006539" lon="13.6778453"><ele>239.0</ele><time>2026-05-06T08:55:09.396Z</time></trkpt><trkpt lat="37.3006134" lon="13.677773"><ele>239.0</ele><time>2026-05-06T08:55:11.396Z</time></trkpt><trkpt lat="37.3005665" lon="13.6777037"><ele>239.00000000000003</ele><time>2026-05-06T08:55:13.397Z</time></trkpt><trkpt lat="37.3005204" lon="13.6776188"><ele>239.0</ele><time>2026-05-06T08:55:15.395Z</time></trkpt><trkpt lat="37.3004945" lon="13.6774826"><ele>238.83333333333334</ele><time>2026-05-06T08:55:17.397Z</time></trkpt><trkpt lat="37.3004568" lon="13.6773171"><ele>238.66666666666669</ele><time>2026-05-06T08:55:19.395Z</time></trkpt><trkpt lat="37.3004418" lon="13.6772314"><ele>238.5</ele><time>2026-05-06T08:55:20.395Z</time></trkpt><trkpt lat="37.3004322" lon="13.6771472"><ele>238.33333333333331</ele><time>2026-05-06T08:55:21.396Z</time></trkpt><trkpt lat="37.3004165" lon="13.6770699"><ele>238.16666666666666</ele><time>2026-05-06T08:55:22.396Z</time></trkpt><trkpt lat="37.3003986" lon="13.6769895"><ele>238.0</ele><time>2026-05-06T08:55:23.397Z</time></trkpt><trkpt lat="37.3003746" lon="13.67691"><ele>239.16666666666666</ele><time>2026-05-06T08:55:24.396Z</time></trkpt><trkpt lat="37.30035" lon="13.6768312"><ele>240.33333333333331</ele><time>2026-05-06T08:55:25.396Z</time></trkpt><trkpt lat="37.3003048" lon="13.6766822"><ele>241.5</ele><time>2026-05-06T08:55:27.396Z</time></trkpt><trkpt lat="37.3002765" lon="13.6766104"><ele>242.66666666666669</ele><time>2026-05-06T08:55:28.396Z</time></trkpt><trkpt lat="37.3002446" lon="13.6765317"><ele>243.83333333333334</ele><time>2026-05-06T08:55:29.396Z</time></trkpt><trkpt lat="37.3002133" lon="13.676456"><ele>245.0</ele><time>2026-05-06T08:55:30.396Z</time></trkpt><trkpt lat="37.3001843" lon="13.676383"><ele>245.0</ele><time>2026-05-06T08:55:31.395Z</time></trkpt><trkpt lat="37.3001445" lon="13.6762948"><ele>245.0</ele><time>2026-05-06T08:55:32.395Z</time></trkpt><trkpt lat="37.3000773" lon="13.6761869"><ele>245.0</ele><time>2026-05-06T08:55:34.396Z</time></trkpt><trkpt lat="37.2999926" lon="13.6761532"><ele>245.0</ele><time>2026-05-06T08:55:36.396Z</time></trkpt><trkpt lat="37.2999043" lon="13.676191"><ele>245.0</ele><time>2026-05-06T08:55:38.396Z</time></trkpt><trkpt lat="37.2998048" lon="13.6762841"><ele>244.4</ele><time>2026-05-06T08:55:40.396Z</time></trkpt><trkpt lat="37.2997144" lon="13.6763414"><ele>243.8</ele><time>2026-05-06T08:55:42.396Z</time></trkpt><trkpt lat="37.2996274" lon="13.6763132"><ele>243.2</ele><time>2026-05-06T08:55:44.397Z</time></trkpt><trkpt lat="37.299535" lon="13.6761849"><ele>242.6</ele><time>2026-05-06T08:55:46.396Z</time></trkpt><trkpt lat="37.2994876" lon="13.676083"><ele>242.0</ele><time>2026-05-06T08:55:47.396Z</time></trkpt><trkpt lat="37.299438" lon="13.6759643"><ele>243.75</ele><time>2026-05-06T08:55:48.396Z</time></trkpt><trkpt lat="37.2993822" lon="13.6758074"><ele>245.5</ele><time>2026-05-06T08:55:49.397Z</time></trkpt><trkpt lat="37.299331" lon="13.6756696"><ele>247.25</ele><time>2026-05-06T08:55:50.396Z</time></trkpt><trkpt lat="37.2992862" lon="13.6755488"><ele>249.0</ele><time>2026-05-06T08:55:51.396Z</time></trkpt><trkpt lat="37.2992421" lon="13.6754404"><ele>249.0</ele><time>2026-05-06T08:55:52.395Z</time></trkpt><trkpt lat="37.2992069" lon="13.6753308"><ele>248.99999999999997</ele><time>2026-05-06T08:55:53.396Z</time></trkpt><trkpt lat="37.2991614" lon="13.6752174"><ele>248.99999999999997</ele><time>2026-05-06T08:55:54.396Z</time></trkpt><trkpt lat="37.2991152" lon="13.675092"><ele>249.0</ele><time>2026-05-06T08:55:55.397Z</time></trkpt><trkpt lat="37.2990617" lon="13.6749612"><ele>249.0</ele><time>2026-05-06T08:55:56.396Z</time></trkpt><trkpt lat="37.2990104" lon="13.6748343"><ele>250.25</ele><time>2026-05-06T08:55:57.396Z</time></trkpt><trkpt lat="37.2989622" lon="13.6747066"><ele>251.5</ele><time>2026-05-06T08:55:58.396Z</time></trkpt><trkpt lat="37.298913" lon="13.6745753"><ele>252.75</ele><time>2026-05-06T08:55:59.395Z</time></trkpt><trkpt lat="37.2988522" lon="13.6744399"><ele>254.0</ele><time>2026-05-06T08:56:00.396Z</time></trkpt><trkpt lat="37.2987929" lon="13.6743013"><ele>256.4</ele><time>2026-05-06T08:56:01.396Z</time></trkpt><trkpt lat="37.2987442" lon="13.6741787"><ele>258.79999999999995</ele><time>2026-05-06T08:56:02.396Z</time></trkpt><trkpt lat="37.2986958" lon="13.6740644"><ele>261.20000000000005</ele><time>2026-05-06T08:56:03.396Z</time></trkpt><trkpt lat="37.2986443" lon="13.673954"><ele>263.6</ele><time>2026-05-06T08:56:04.396Z</time></trkpt><trkpt lat="37.2985996" lon="13.6738537"><ele>266.0</ele><time>2026-05-06T08:56:05.396Z</time></trkpt><trkpt lat="37.2985446" lon="13.6737529"><ele>266.0</ele><time>2026-05-06T08:56:06.396Z</time></trkpt><trkpt lat="37.2984864" lon="13.6736372"><ele>266.0</ele><time>2026-05-06T08:56:07.395Z</time></trkpt><trkpt lat="37.2984276" lon="13.6735164"><ele>266.0</ele><time>2026-05-06T08:56:08.396Z</time></trkpt><trkpt lat="37.298391" lon="13.6734012"><ele>266.0</ele><time>2026-05-06T08:56:09.396Z</time></trkpt><trkpt lat="37.2983433" lon="13.673303"><ele>266.0</ele><time>2026-05-06T08:56:10.396Z</time></trkpt><trkpt lat="37.2983097" lon="13.6732324"><ele>268.0</ele><time>2026-05-06T08:56:11.395Z</time></trkpt><trkpt lat="37.2982538" lon="13.6731496"><ele>270.0</ele><time>2026-05-06T08:56:14.395Z</time></trkpt><trkpt lat="37.2981716" lon="13.6731653"><ele>272.0</ele><time>2026-05-06T08:56:16.396Z</time></trkpt><trkpt lat="37.2980966" lon="13.673227"><ele>274.0</ele><time>2026-05-06T08:56:17.396Z</time></trkpt><trkpt lat="37.2979985" lon="13.6733061"><ele>276.0</ele><time>2026-05-06T08:56:18.395Z</time></trkpt><trkpt lat="37.2978844" lon="13.6734025"><ele>276.3333333333333</ele><time>2026-05-06T08:56:19.396Z</time></trkpt><trkpt lat="37.2977535" lon="13.6735004"><ele>276.66666666666663</ele><time>2026-05-06T08:56:20.397Z</time></trkpt><trkpt lat="37.2976111" lon="13.6736"><ele>277.0</ele><time>2026-05-06T08:56:21.397Z</time></trkpt><trkpt lat="37.2974704" lon="13.6736923"><ele>275.25</ele><time>2026-05-06T08:56:22.396Z</time></trkpt><trkpt lat="37.2973392" lon="13.6737816"><ele>273.5</ele><time>2026-05-06T08:56:23.396Z</time></trkpt><trkpt lat="37.2972143" lon="13.6738763"><ele>271.75</ele><time>2026-05-06T08:56:24.397Z</time></trkpt><trkpt lat="37.2971258" lon="13.6740042"><ele>270.0</ele><time>2026-05-06T08:56:25.396Z</time></trkpt><trkpt lat="37.2970352" lon="13.6741362"><ele>270.0</ele><time>2026-05-06T08:56:26.396Z</time></trkpt><trkpt lat="37.2969566" lon="13.6742904"><ele>270.0</ele><time>2026-05-06T08:56:27.397Z</time></trkpt><trkpt lat="37.2968874" lon="13.6744562"><ele>270.0</ele><time>2026-05-06T08:56:28.396Z</time></trkpt><trkpt lat="37.2968132" lon="13.6746178"><ele>270.0</ele><time>2026-05-06T08:56:29.395Z</time></trkpt><trkpt lat="37.2967418" lon="13.6747732"><ele>269.5</ele><time>2026-05-06T08:56:30.396Z</time></trkpt><trkpt lat="37.296667" lon="13.6748979"><ele>269.0</ele><time>2026-05-06T08:56:31.395Z</time></trkpt><trkpt lat="37.2965851" lon="13.6750226"><ele>268.5</ele><time>2026-05-06T08:56:32.397Z</time></trkpt><trkpt lat="37.2964923" lon="13.6751434"><ele>268.0</ele><time>2026-05-06T08:56:33.396Z</time></trkpt><trkpt lat="37.2963935" lon="13.67526"><ele>266.5</ele><time>2026-05-06T08:56:34.396Z</time></trkpt><trkpt lat="37.2962918" lon="13.6753799"><ele>265.0</ele><time>2026-05-06T08:56:35.395Z</time></trkpt><trkpt lat="37.2961875" lon="13.6755063"><ele>263.5</ele><time>2026-05-06T08:56:36.397Z</time></trkpt><trkpt lat="37.2960811" lon="13.6756288"><ele>262.0</ele><time>2026-05-06T08:56:37.395Z</time></trkpt><trkpt lat="37.2959638" lon="13.6757439"><ele>262.0</ele><time>2026-05-06T08:56:38.396Z</time></trkpt><trkpt lat="37.2958335" lon="13.6758736"><ele>262.0</ele><time>2026-05-06T08:56:39.396Z</time></trkpt><trkpt lat="37.2957069" lon="13.6759989"><ele>262.0</ele><time>2026-05-06T08:56:40.396Z</time></trkpt><trkpt lat="37.2955845" lon="13.6761205"><ele>260.25</ele><time>2026-05-06T08:56:41.397Z</time></trkpt><trkpt lat="37.2954695" lon="13.6762379"><ele>258.5</ele><time>2026-05-06T08:56:42.396Z</time></trkpt><trkpt lat="37.2953636" lon="13.6763487"><ele>256.75</ele><time>2026-05-06T08:56:43.397Z</time></trkpt><trkpt lat="37.2952511" lon="13.6764561"><ele>255.0</ele><time>2026-05-06T08:56:44.396Z</time></trkpt><trkpt lat="37.295136" lon="13.676565"><ele>255.0</ele><time>2026-05-06T08:56:45.396Z</time></trkpt><trkpt lat="37.295021" lon="13.6766857"><ele>255.0</ele><time>2026-05-06T08:56:46.396Z</time></trkpt><trkpt lat="37.294901" lon="13.6768099"><ele>255.0</ele><time>2026-05-06T08:56:47.395Z</time></trkpt><trkpt lat="37.2947817" lon="13.6769358"><ele>254.66666666666669</ele><time>2026-05-06T08:56:48.396Z</time></trkpt><trkpt lat="37.2946597" lon="13.6770607"><ele>254.33333333333334</ele><time>2026-05-06T08:56:49.395Z</time></trkpt><trkpt lat="37.2945381" lon="13.6771842"><ele>254.0</ele><time>2026-05-06T08:56:50.397Z</time></trkpt><trkpt lat="37.2944105" lon="13.6773181"><ele>254.0</ele><time>2026-05-06T08:56:51.395Z</time></trkpt><trkpt lat="37.2942806" lon="13.6774596"><ele>254.0</ele><time>2026-05-06T08:56:52.397Z</time></trkpt><trkpt lat="37.2941565" lon="13.677607"><ele>254.0</ele><time>2026-05-06T08:56:53.396Z</time></trkpt><trkpt lat="37.2940389" lon="13.6777482"><ele>253.33333333333334</ele><time>2026-05-06T08:56:54.395Z</time></trkpt><trkpt lat="37.2939177" lon="13.6778867"><ele>252.66666666666669</ele><time>2026-05-06T08:56:55.397Z</time></trkpt><trkpt lat="37.2937945" lon="13.6780317"><ele>252.0</ele><time>2026-05-06T08:56:56.396Z</time></trkpt><trkpt lat="37.2936683" lon="13.6781724"><ele>252.0</ele><time>2026-05-06T08:56:57.395Z</time></trkpt><trkpt lat="37.2935495" lon="13.6783164"><ele>252.0</ele><time>2026-05-06T08:56:58.397Z</time></trkpt><trkpt lat="37.2934336" lon="13.6784569"><ele>252.0</ele><time>2026-05-06T08:56:59.396Z</time></trkpt><trkpt lat="37.2933198" lon="13.6785912"><ele>252.0</ele><time>2026-05-06T08:57:00.396Z</time></trkpt><trkpt lat="37.2931979" lon="13.6787088"><ele>252.0</ele><time>2026-05-06T08:57:01.396Z</time></trkpt><trkpt lat="37.2930674" lon="13.6788157"><ele>252.0</ele><time>2026-05-06T08:57:02.395Z</time></trkpt><trkpt lat="37.2929345" lon="13.6789177"><ele>252.0</ele><time>2026-05-06T08:57:03.397Z</time></trkpt><trkpt lat="37.2927864" lon="13.6790195"><ele>252.0</ele><time>2026-05-06T08:57:04.396Z</time></trkpt><trkpt lat="37.2926402" lon="13.6791226"><ele>252.0</ele><time>2026-05-06T08:57:05.395Z</time></trkpt><trkpt lat="37.2924893" lon="13.6792249"><ele>252.0</ele><time>2026-05-06T08:57:06.395Z</time></trkpt><trkpt lat="37.2923406" lon="13.6793291"><ele>252.0</ele><time>2026-05-06T08:57:07.396Z</time></trkpt><trkpt lat="37.2921926" lon="13.6794337"><ele>252.0</ele><time>2026-05-06T08:57:08.397Z</time></trkpt><trkpt lat="37.292048" lon="13.6795386"><ele>251.0</ele><time>2026-05-06T08:57:09.396Z</time></trkpt><trkpt lat="37.2918934" lon="13.6796443"><ele>250.0</ele><time>2026-05-06T08:57:10.396Z</time></trkpt><trkpt lat="37.2917451" lon="13.6797434"><ele>249.0</ele><time>2026-05-06T08:57:11.396Z</time></trkpt><trkpt lat="37.2916029" lon="13.6798455"><ele>249.0</ele><time>2026-05-06T08:57:12.395Z</time></trkpt><trkpt lat="37.2914628" lon="13.6799448"><ele>249.0</ele><time>2026-05-06T08:57:13.396Z</time></trkpt><trkpt lat="37.2913288" lon="13.6800427"><ele>249.0</ele><time>2026-05-06T08:57:14.396Z</time></trkpt><trkpt lat="37.2912003" lon="13.6801341"><ele>248.5</ele><time>2026-05-06T08:57:15.395Z</time></trkpt><trkpt lat="37.2910672" lon="13.6802155"><ele>248.0</ele><time>2026-05-06T08:57:16.397Z</time></trkpt><trkpt lat="37.2909251" lon="13.6802915"><ele>247.5</ele><time>2026-05-06T08:57:17.395Z</time></trkpt><trkpt lat="37.2907914" lon="13.6803631"><ele>247.0</ele><time>2026-05-06T08:57:18.396Z</time></trkpt><trkpt lat="37.2906557" lon="13.6804335"><ele>246.0</ele><time>2026-05-06T08:57:19.396Z</time></trkpt><trkpt lat="37.290519" lon="13.6804979"><ele>245.0</ele><time>2026-05-06T08:57:20.395Z</time></trkpt><trkpt lat="37.2903767" lon="13.6805654"><ele>244.0</ele><time>2026-05-06T08:57:21.396Z</time></trkpt><trkpt lat="37.2902389" lon="13.6806378"><ele>243.0</ele><time>2026-05-06T08:57:22.396Z</time></trkpt><trkpt lat="37.2900989" lon="13.6807115"><ele>243.0</ele><time>2026-05-06T08:57:23.395Z</time></trkpt><trkpt lat="37.2899429" lon="13.6807902"><ele>243.0</ele><time>2026-05-06T08:57:24.396Z</time></trkpt><trkpt lat="37.2897897" lon="13.6808695"><ele>243.0</ele><time>2026-05-06T08:57:25.395Z</time></trkpt><trkpt lat="37.2896457" lon="13.6809391"><ele>242.5</ele><time>2026-05-06T08:57:26.395Z</time></trkpt><trkpt lat="37.2895073" lon="13.6810126"><ele>242.0</ele><time>2026-05-06T08:57:27.397Z</time></trkpt><trkpt lat="37.2893751" lon="13.6810876"><ele>241.5</ele><time>2026-05-06T08:57:28.396Z</time></trkpt><trkpt lat="37.2892418" lon="13.6811595"><ele>241.0</ele><time>2026-05-06T08:57:29.396Z</time></trkpt><trkpt lat="37.2891089" lon="13.6812345"><ele>240.25</ele><time>2026-05-06T08:57:30.396Z</time></trkpt><trkpt lat="37.2889874" lon="13.6813159"><ele>239.5</ele><time>2026-05-06T08:57:31.396Z</time></trkpt><trkpt lat="37.2888583" lon="13.6813968"><ele>238.75</ele><time>2026-05-06T08:57:32.396Z</time></trkpt><trkpt lat="37.2887305" lon="13.6814734"><ele>238.0</ele><time>2026-05-06T08:57:33.395Z</time></trkpt><trkpt lat="37.2885935" lon="13.6815474"><ele>236.0</ele><time>2026-05-06T08:57:34.396Z</time></trkpt><trkpt lat="37.2884602" lon="13.6816311"><ele>234.0</ele><time>2026-05-06T08:57:35.396Z</time></trkpt><trkpt lat="37.2883246" lon="13.681716"><ele>232.0</ele><time>2026-05-06T08:57:36.396Z</time></trkpt><trkpt lat="37.2881844" lon="13.6818037"><ele>231.33333333333331</ele><time>2026-05-06T08:57:37.396Z</time></trkpt><trkpt lat="37.2880356" lon="13.6818987"><ele>230.66666666666669</ele><time>2026-05-06T08:57:38.396Z</time></trkpt><trkpt lat="37.2878837" lon="13.6819968"><ele>230.0</ele><time>2026-05-06T08:57:39.396Z</time></trkpt><trkpt lat="37.2877353" lon="13.6820832"><ele>229.33333333333334</ele><time>2026-05-06T08:57:40.395Z</time></trkpt><trkpt lat="37.2875737" lon="13.6821849"><ele>228.66666666666669</ele><time>2026-05-06T08:57:41.396Z</time></trkpt><trkpt lat="37.2874064" lon="13.6822866"><ele>228.0</ele><time>2026-05-06T08:57:42.396Z</time></trkpt><trkpt lat="37.2872453" lon="13.6823821"><ele>227.5</ele><time>2026-05-06T08:57:43.395Z</time></trkpt><trkpt lat="37.28711" lon="13.6824673"><ele>227.0</ele><time>2026-05-06T08:57:44.395Z</time></trkpt><trkpt lat="37.2869762" lon="13.6825461"><ele>226.5</ele><time>2026-05-06T08:57:45.398Z</time></trkpt><trkpt lat="37.2868397" lon="13.6826153"><ele>226.0</ele><time>2026-05-06T08:57:46.396Z</time></trkpt><trkpt lat="37.2866934" lon="13.6826712"><ele>226.0</ele><time>2026-05-06T08:57:47.396Z</time></trkpt><trkpt lat="37.2865567" lon="13.6827305"><ele>226.0</ele><time>2026-05-06T08:57:48.395Z</time></trkpt><trkpt lat="37.2864301" lon="13.68277"><ele>226.0</ele><time>2026-05-06T08:57:49.397Z</time></trkpt><trkpt lat="37.2863123" lon="13.6828129"><ele>226.0</ele><time>2026-05-06T08:57:50.396Z</time></trkpt><trkpt lat="37.2861902" lon="13.6828647"><ele>225.75</ele><time>2026-05-06T08:57:51.396Z</time></trkpt><trkpt lat="37.2860709" lon="13.6829069"><ele>225.5</ele><time>2026-05-06T08:57:52.396Z</time></trkpt><trkpt lat="37.2859566" lon="13.6829475"><ele>225.25</ele><time>2026-05-06T08:57:53.396Z</time></trkpt><trkpt lat="37.2858462" lon="13.6829877"><ele>225.0</ele><time>2026-05-06T08:57:54.395Z</time></trkpt><trkpt lat="37.2857396" lon="13.6830257"><ele>225.0</ele><time>2026-05-06T08:57:55.395Z</time></trkpt><trkpt lat="37.2856362" lon="13.683067"><ele>225.0</ele><time>2026-05-06T08:57:56.395Z</time></trkpt><trkpt lat="37.2855425" lon="13.6831087"><ele>225.0</ele><time>2026-05-06T08:57:57.395Z</time></trkpt><trkpt lat="37.2854442" lon="13.6831509"><ele>225.0</ele><time>2026-05-06T08:57:58.396Z</time></trkpt><trkpt lat="37.2853436" lon="13.6831875"><ele>225.0</ele><time>2026-05-06T08:57:59.395Z</time></trkpt><trkpt lat="37.2852439" lon="13.6832245"><ele>224.4</ele><time>2026-05-06T08:58:00.396Z</time></trkpt><trkpt lat="37.2851443" lon="13.6832648"><ele>223.8</ele><time>2026-05-06T08:58:01.395Z</time></trkpt><trkpt lat="37.2850413" lon="13.6833043"><ele>223.2</ele><time>2026-05-06T08:58:02.395Z</time></trkpt><trkpt lat="37.2849427" lon="13.6833423"><ele>222.6</ele><time>2026-05-06T08:58:03.396Z</time></trkpt><trkpt lat="37.2848389" lon="13.6833801"><ele>222.0</ele><time>2026-05-06T08:58:04.397Z</time></trkpt><trkpt lat="37.2847418" lon="13.6834186"><ele>221.8</ele><time>2026-05-06T08:58:05.396Z</time></trkpt><trkpt lat="37.28465" lon="13.6834526"><ele>221.6</ele><time>2026-05-06T08:58:06.396Z</time></trkpt><trkpt lat="37.2845625" lon="13.6834887"><ele>221.40000000000003</ele><time>2026-05-06T08:58:07.395Z</time></trkpt><trkpt lat="37.2844764" lon="13.6835169"><ele>221.20000000000002</ele><time>2026-05-06T08:58:08.395Z</time></trkpt><trkpt lat="37.2843897" lon="13.6835507"><ele>221.0</ele><time>2026-05-06T08:58:09.395Z</time></trkpt><trkpt lat="37.2843055" lon="13.6835893"><ele>220.60000000000002</ele><time>2026-05-06T08:58:10.395Z</time></trkpt><trkpt lat="37.2842188" lon="13.6836201"><ele>220.20000000000002</ele><time>2026-05-06T08:58:11.395Z</time></trkpt><trkpt lat="37.2841296" lon="13.6836564"><ele>219.79999999999998</ele><time>2026-05-06T08:58:12.395Z</time></trkpt><trkpt lat="37.2840425" lon="13.683688"><ele>219.39999999999998</ele><time>2026-05-06T08:58:13.396Z</time></trkpt><trkpt lat="37.2839533" lon="13.6837165"><ele>219.0</ele><time>2026-05-06T08:58:14.396Z</time></trkpt><trkpt lat="37.2838612" lon="13.6837445"><ele>219.0</ele><time>2026-05-06T08:58:15.396Z</time></trkpt><trkpt lat="37.2837694" lon="13.6837708"><ele>218.99999999999997</ele><time>2026-05-06T08:58:16.395Z</time></trkpt><trkpt lat="37.2836774" lon="13.6837944"><ele>218.99999999999997</ele><time>2026-05-06T08:58:17.395Z</time></trkpt><trkpt lat="37.2835833" lon="13.6838177"><ele>219.0</ele><time>2026-05-06T08:58:18.396Z</time></trkpt><trkpt lat="37.2834873" lon="13.6838449"><ele>219.0</ele><time>2026-05-06T08:58:19.395Z</time></trkpt><trkpt lat="37.2833913" lon="13.6838671"><ele>219.0</ele><time>2026-05-06T08:58:20.396Z</time></trkpt><trkpt lat="37.2832961" lon="13.6838887"><ele>218.99999999999997</ele><time>2026-05-06T08:58:21.396Z</time></trkpt><trkpt lat="37.2832017" lon="13.6839099"><ele>218.99999999999997</ele><time>2026-05-06T08:58:22.395Z</time></trkpt><trkpt lat="37.2831064" lon="13.6839355"><ele>219.0</ele><time>2026-05-06T08:58:23.396Z</time></trkpt><trkpt lat="37.2830136" lon="13.6839566"><ele>219.0</ele><time>2026-05-06T08:58:24.396Z</time></trkpt><trkpt lat="37.2829212" lon="13.6839777"><ele>218.6</ele><time>2026-05-06T08:58:25.396Z</time></trkpt><trkpt lat="37.2828261" lon="13.6840028"><ele>218.2</ele><time>2026-05-06T08:58:26.395Z</time></trkpt><trkpt lat="37.2827402" lon="13.6840342"><ele>217.79999999999998</ele><time>2026-05-06T08:58:27.396Z</time></trkpt><trkpt lat="37.2826459" lon="13.6840645"><ele>217.39999999999998</ele><time>2026-05-06T08:58:28.396Z</time></trkpt><trkpt lat="37.282549" lon="13.6840925"><ele>217.0</ele><time>2026-05-06T08:58:29.396Z</time></trkpt><trkpt lat="37.2824577" lon="13.6841135"><ele>217.0</ele><time>2026-05-06T08:58:30.396Z</time></trkpt><trkpt lat="37.2823631" lon="13.6841431"><ele>217.0</ele><time>2026-05-06T08:58:31.396Z</time></trkpt><trkpt lat="37.2822691" lon="13.6841765"><ele>217.0</ele><time>2026-05-06T08:58:32.396Z</time></trkpt><trkpt lat="37.2821748" lon="13.6842173"><ele>217.0</ele><time>2026-05-06T08:58:33.396Z</time></trkpt><trkpt lat="37.2820838" lon="13.6842526"><ele>217.0</ele><time>2026-05-06T08:58:34.396Z</time></trkpt><trkpt lat="37.2819981" lon="13.684291"><ele>216.66666666666666</ele><time>2026-05-06T08:58:35.395Z</time></trkpt><trkpt lat="37.2819096" lon="13.6843186"><ele>216.33333333333331</ele><time>2026-05-06T08:58:36.395Z</time></trkpt><trkpt lat="37.2818254" lon="13.6843483"><ele>216.0</ele><time>2026-05-06T08:58:37.396Z</time></trkpt><trkpt lat="37.2817442" lon="13.6843773"><ele>215.66666666666669</ele><time>2026-05-06T08:58:38.396Z</time></trkpt><trkpt lat="37.2816605" lon="13.684413"><ele>215.33333333333334</ele><time>2026-05-06T08:58:39.395Z</time></trkpt><trkpt lat="37.2815759" lon="13.6844438"><ele>215.0</ele><time>2026-05-06T08:58:40.396Z</time></trkpt><trkpt lat="37.2814958" lon="13.6844729"><ele>213.0</ele><time>2026-05-06T08:58:41.397Z</time></trkpt><trkpt lat="37.2814104" lon="13.6845053"><ele>211.0</ele><time>2026-05-06T08:58:42.395Z</time></trkpt><trkpt lat="37.2813233" lon="13.6845334"><ele>209.0</ele><time>2026-05-06T08:58:43.397Z</time></trkpt><trkpt lat="37.2812402" lon="13.6845611"><ele>207.0</ele><time>2026-05-06T08:58:44.395Z</time></trkpt><trkpt lat="37.2811501" lon="13.6845934"><ele>205.0</ele><time>2026-05-06T08:58:45.395Z</time></trkpt><trkpt lat="37.2810631" lon="13.6846325"><ele>205.0</ele><time>2026-05-06T08:58:46.396Z</time></trkpt><trkpt lat="37.2809734" lon="13.6846631"><ele>205.0</ele><time>2026-05-06T08:58:47.395Z</time></trkpt><trkpt lat="37.2808817" lon="13.6846971"><ele>205.0</ele><time>2026-05-06T08:58:48.396Z</time></trkpt><trkpt lat="37.2807857" lon="13.6847268"><ele>205.0</ele><time>2026-05-06T08:58:49.395Z</time></trkpt><trkpt lat="37.2806855" lon="13.6847598"><ele>205.0</ele><time>2026-05-06T08:58:50.395Z</time></trkpt><trkpt lat="37.2805906" lon="13.6847941"><ele>205.4</ele><time>2026-05-06T08:58:51.397Z</time></trkpt><trkpt lat="37.280494" lon="13.6848242"><ele>205.8</ele><time>2026-05-06T08:58:52.395Z</time></trkpt><trkpt lat="37.2804041" lon="13.6848535"><ele>206.2</ele><time>2026-05-06T08:58:53.396Z</time></trkpt><trkpt lat="37.2803185" lon="13.6848871"><ele>206.6</ele><time>2026-05-06T08:58:54.396Z</time></trkpt><trkpt lat="37.2802357" lon="13.6849153"><ele>207.0</ele><time>2026-05-06T08:58:55.396Z</time></trkpt><trkpt lat="37.2801531" lon="13.6849361"><ele>207.0</ele><time>2026-05-06T08:58:56.396Z</time></trkpt><trkpt lat="37.2800768" lon="13.6849645"><ele>207.0</ele><time>2026-05-06T08:58:57.395Z</time></trkpt><trkpt lat="37.2800023" lon="13.6849952"><ele>207.0</ele><time>2026-05-06T08:58:58.397Z</time></trkpt><trkpt lat="37.2799297" lon="13.6850222"><ele>207.0</ele><time>2026-05-06T08:58:59.396Z</time></trkpt><trkpt lat="37.2798546" lon="13.6850472"><ele>207.0</ele><time>2026-05-06T08:59:00.395Z</time></trkpt><trkpt lat="37.2797781" lon="13.6850775"><ele>207.0</ele><time>2026-05-06T08:59:01.395Z</time></trkpt><trkpt lat="37.2797079" lon="13.6851009"><ele>207.14285714285717</ele><time>2026-05-06T08:59:02.397Z</time></trkpt><trkpt lat="37.2796335" lon="13.6851267"><ele>207.28571428571428</ele><time>2026-05-06T08:59:03.396Z</time></trkpt><trkpt lat="37.2795623" lon="13.6851553"><ele>207.42857142857144</ele><time>2026-05-06T08:59:04.395Z</time></trkpt><trkpt lat="37.2794937" lon="13.6851829"><ele>207.57142857142858</ele><time>2026-05-06T08:59:05.396Z</time></trkpt><trkpt lat="37.2794278" lon="13.6852065"><ele>207.71428571428572</ele><time>2026-05-06T08:59:06.396Z</time></trkpt><trkpt lat="37.279358" lon="13.6852244"><ele>207.85714285714286</ele><time>2026-05-06T08:59:07.395Z</time></trkpt><trkpt lat="37.2792881" lon="13.6852379"><ele>208.0</ele><time>2026-05-06T08:59:08.395Z</time></trkpt><trkpt lat="37.2792225" lon="13.6852575"><ele>205.83333333333331</ele><time>2026-05-06T08:59:09.395Z</time></trkpt><trkpt lat="37.2790936" lon="13.6852931"><ele>203.66666666666666</ele><time>2026-05-06T08:59:11.397Z</time></trkpt><trkpt lat="37.2790281" lon="13.6853117"><ele>201.5</ele><time>2026-05-06T08:59:12.395Z</time></trkpt><trkpt lat="37.2789666" lon="13.6853296"><ele>199.33333333333331</ele><time>2026-05-06T08:59:13.396Z</time></trkpt><trkpt lat="37.2789034" lon="13.68535"><ele>197.16666666666666</ele><time>2026-05-06T08:59:14.395Z</time></trkpt><trkpt lat="37.2788409" lon="13.685371"><ele>195.0</ele><time>2026-05-06T08:59:15.395Z</time></trkpt><trkpt lat="37.278775" lon="13.6853891"><ele>194.71428571428572</ele><time>2026-05-06T08:59:16.395Z</time></trkpt><trkpt lat="37.2787079" lon="13.6854094"><ele>194.42857142857142</ele><time>2026-05-06T08:59:17.395Z</time></trkpt><trkpt lat="37.2786391" lon="13.6854217"><ele>194.14285714285717</ele><time>2026-05-06T08:59:18.396Z</time></trkpt><trkpt lat="37.2785658" lon="13.6854369"><ele>193.85714285714286</ele><time>2026-05-06T08:59:19.395Z</time></trkpt><trkpt lat="37.2784931" lon="13.6854516"><ele>193.57142857142858</ele><time>2026-05-06T08:59:20.395Z</time></trkpt><trkpt lat="37.278424" lon="13.68547"><ele>193.2857142857143</ele><time>2026-05-06T08:59:21.396Z</time></trkpt><trkpt lat="37.278358" lon="13.685486"><ele>193.0</ele><time>2026-05-06T08:59:22.396Z</time></trkpt><trkpt lat="37.2782916" lon="13.6854987"><ele>193.00000000000003</ele><time>2026-05-06T08:59:23.396Z</time></trkpt><trkpt lat="37.2782265" lon="13.6855023"><ele>193.0</ele><time>2026-05-06T08:59:24.395Z</time></trkpt><trkpt lat="37.2781599" lon="13.6855093"><ele>193.0</ele><time>2026-05-06T08:59:25.395Z</time></trkpt><trkpt lat="37.2780969" lon="13.6855148"><ele>193.0</ele><time>2026-05-06T08:59:26.396Z</time></trkpt><trkpt lat="37.2780311" lon="13.6855194"><ele>193.0</ele><time>2026-05-06T08:59:27.398Z</time></trkpt><trkpt lat="37.2779636" lon="13.6855217"><ele>193.00000000000003</ele><time>2026-05-06T08:59:28.396Z</time></trkpt><trkpt lat="37.2778989" lon="13.6855231"><ele>193.0</ele><time>2026-05-06T08:59:29.397Z</time></trkpt><trkpt lat="37.2778306" lon="13.6855224"><ele>192.2</ele><time>2026-05-06T08:59:30.396Z</time></trkpt><trkpt lat="37.2777296" lon="13.6854965"><ele>191.4</ele><time>2026-05-06T08:59:31.396Z</time></trkpt><trkpt lat="37.2776382" lon="13.6854755"><ele>190.6</ele><time>2026-05-06T08:59:32.396Z</time></trkpt><trkpt lat="37.2775526" lon="13.6854447"><ele>189.79999999999998</ele><time>2026-05-06T08:59:33.395Z</time></trkpt><trkpt lat="37.2774676" lon="13.6854125"><ele>189.0</ele><time>2026-05-06T08:59:34.396Z</time></trkpt><trkpt lat="37.2773925" lon="13.6853775"><ele>189.0</ele><time>2026-05-06T08:59:35.395Z</time></trkpt><trkpt lat="37.2773191" lon="13.6853479"><ele>189.0</ele><time>2026-05-06T08:59:36.395Z</time></trkpt><trkpt lat="37.2772461" lon="13.6853176"><ele>189.0</ele><time>2026-05-06T08:59:37.396Z</time></trkpt><trkpt lat="37.2771749" lon="13.6852902"><ele>189.0</ele><time>2026-05-06T08:59:38.396Z</time></trkpt><trkpt lat="37.277101" lon="13.6852587"><ele>189.0</ele><time>2026-05-06T08:59:39.397Z</time></trkpt><trkpt lat="37.2770348" lon="13.6852288"><ele>189.0</ele><time>2026-05-06T08:59:40.396Z</time></trkpt><trkpt lat="37.2769703" lon="13.6852012"><ele>189.0</ele><time>2026-05-06T08:59:41.397Z</time></trkpt><trkpt lat="37.2768991" lon="13.6851755"><ele>188.83333333333334</ele><time>2026-05-06T08:59:42.396Z</time></trkpt><trkpt lat="37.2768341" lon="13.6851477"><ele>188.66666666666666</ele><time>2026-05-06T08:59:43.396Z</time></trkpt><trkpt lat="37.2767494" lon="13.6851184"><ele>188.5</ele><time>2026-05-06T08:59:44.397Z</time></trkpt><trkpt lat="37.2766729" lon="13.6850884"><ele>188.33333333333331</ele><time>2026-05-06T08:59:45.395Z</time></trkpt><trkpt lat="37.2765989" lon="13.6850526"><ele>188.16666666666666</ele><time>2026-05-06T08:59:46.396Z</time></trkpt><trkpt lat="37.2765258" lon="13.6850124"><ele>188.0</ele><time>2026-05-06T08:59:47.396Z</time></trkpt><trkpt lat="37.2764564" lon="13.6849758"><ele>186.5</ele><time>2026-05-06T08:59:48.396Z</time></trkpt><trkpt lat="37.276391" lon="13.6849351"><ele>185.0</ele><time>2026-05-06T08:59:49.396Z</time></trkpt><trkpt lat="37.2763277" lon="13.6848972"><ele>183.5</ele><time>2026-05-06T08:59:50.397Z</time></trkpt><trkpt lat="37.2762661" lon="13.684862"><ele>182.0</ele><time>2026-05-06T08:59:51.397Z</time></trkpt><trkpt lat="37.2762085" lon="13.6848241"><ele>180.5</ele><time>2026-05-06T08:59:52.395Z</time></trkpt><trkpt lat="37.2761502" lon="13.6847902"><ele>179.0</ele><time>2026-05-06T08:59:53.396Z</time></trkpt><trkpt lat="37.2760446" lon="13.6847355"><ele>179.0</ele><time>2026-05-06T08:59:55.396Z</time></trkpt><trkpt lat="37.2759275" lon="13.6846763"><ele>179.0</ele><time>2026-05-06T08:59:57.397Z</time></trkpt><trkpt lat="37.2758613" lon="13.6846441"><ele>179.0</ele><time>2026-05-06T08:59:58.396Z</time></trkpt><trkpt lat="37.2757944" lon="13.684606"><ele>179.0</ele><time>2026-05-06T08:59:59.395Z</time></trkpt><trkpt lat="37.2757311" lon="13.6845669"><ele>179.0</ele><time>2026-05-06T09:00:00.396Z</time></trkpt><trkpt lat="37.2756596" lon="13.6845327"><ele>179.0</ele><time>2026-05-06T09:00:01.395Z</time></trkpt><trkpt lat="37.2755876" lon="13.6844956"><ele>177.16666666666666</ele><time>2026-05-06T09:00:02.395Z</time></trkpt><trkpt lat="37.2755201" lon="13.6844608"><ele>175.33333333333331</ele><time>2026-05-06T09:00:03.396Z</time></trkpt><trkpt lat="37.2754533" lon="13.6844142"><ele>173.5</ele><time>2026-05-06T09:00:04.396Z</time></trkpt><trkpt lat="37.2753859" lon="13.6843672"><ele>171.66666666666666</ele><time>2026-05-06T09:00:05.395Z</time></trkpt><trkpt lat="37.2753213" lon="13.684319"><ele>169.83333333333334</ele><time>2026-05-06T09:00:06.396Z</time></trkpt><trkpt lat="37.2752561" lon="13.6842667"><ele>168.0</ele><time>2026-05-06T09:00:07.397Z</time></trkpt><trkpt lat="37.2751921" lon="13.6842212"><ele>168.0</ele><time>2026-05-06T09:00:08.396Z</time></trkpt><trkpt lat="37.2751319" lon="13.6841766"><ele>168.0</ele><time>2026-05-06T09:00:09.395Z</time></trkpt><trkpt lat="37.2750706" lon="13.6841311"><ele>168.0</ele><time>2026-05-06T09:00:10.396Z</time></trkpt><trkpt lat="37.2750087" lon="13.6840875"><ele>168.0</ele><time>2026-05-06T09:00:11.396Z</time></trkpt><trkpt lat="37.2749545" lon="13.6840454"><ele>168.0</ele><time>2026-05-06T09:00:12.395Z</time></trkpt><trkpt lat="37.2748985" lon="13.6839941"><ele>168.0</ele><time>2026-05-06T09:00:13.395Z</time></trkpt><trkpt lat="37.2748489" lon="13.6839429"><ele>168.0</ele><time>2026-05-06T09:00:14.396Z</time></trkpt><trkpt lat="37.2747356" lon="13.6838635"><ele>166.83333333333334</ele><time>2026-05-06T09:00:16.395Z</time></trkpt><trkpt lat="37.2746808" lon="13.6838183"><ele>165.66666666666666</ele><time>2026-05-06T09:00:17.395Z</time></trkpt><trkpt lat="37.2746201" lon="13.6837774"><ele>164.5</ele><time>2026-05-06T09:00:18.395Z</time></trkpt><trkpt lat="37.2745646" lon="13.6837304"><ele>163.33333333333331</ele><time>2026-05-06T09:00:19.396Z</time></trkpt><trkpt lat="37.2744672" lon="13.6836591"><ele>162.16666666666666</ele><time>2026-05-06T09:00:21.397Z</time></trkpt><trkpt lat="37.2744069" lon="13.6836155"><ele>161.0</ele><time>2026-05-06T09:00:23.395Z</time></trkpt><trkpt lat="37.2743136" lon="13.6835824"><ele>161.0</ele><time>2026-05-06T09:00:56.395Z</time></trkpt><trkpt lat="37.2742376" lon="13.6835571"><ele>161.0</ele><time>2026-05-06T09:00:57.396Z</time></trkpt><trkpt lat="37.2741184" lon="13.6835128"><ele>161.0</ele><time>2026-05-06T09:00:58.395Z</time></trkpt><trkpt lat="37.2739973" lon="13.6834863"><ele>161.0</ele><time>2026-05-06T09:00:59.397Z</time></trkpt><trkpt lat="37.2738777" lon="13.6834664"><ele>161.0</ele><time>2026-05-06T09:01:00.396Z</time></trkpt><trkpt lat="37.2737631" lon="13.6834436"><ele>158.8</ele><time>2026-05-06T09:01:01.395Z</time></trkpt><trkpt lat="37.2736531" lon="13.6834154"><ele>156.60000000000002</ele><time>2026-05-06T09:01:02.395Z</time></trkpt><trkpt lat="37.2735454" lon="13.683393"><ele>154.4</ele><time>2026-05-06T09:01:03.395Z</time></trkpt><trkpt lat="37.2734439" lon="13.6833711"><ele>152.2</ele><time>2026-05-06T09:01:04.395Z</time></trkpt><trkpt lat="37.2733396" lon="13.6833658"><ele>150.0</ele><time>2026-05-06T09:01:05.396Z</time></trkpt><trkpt lat="37.2732283" lon="13.6833751"><ele>150.0</ele><time>2026-05-06T09:01:06.395Z</time></trkpt><trkpt lat="37.2731205" lon="13.6833914"><ele>150.0</ele><time>2026-05-06T09:01:07.395Z</time></trkpt><trkpt lat="37.2730146" lon="13.683408"><ele>150.0</ele><time>2026-05-06T09:01:08.396Z</time></trkpt><trkpt lat="37.272906" lon="13.6834222"><ele>150.0</ele><time>2026-05-06T09:01:09.396Z</time></trkpt><trkpt lat="37.2727972" lon="13.6834326"><ele>150.0</ele><time>2026-05-06T09:01:10.396Z</time></trkpt><trkpt lat="37.2726919" lon="13.6834392"><ele>147.8</ele><time>2026-05-06T09:01:11.395Z</time></trkpt><trkpt lat="37.2725865" lon="13.6834438"><ele>145.6</ele><time>2026-05-06T09:01:12.397Z</time></trkpt><trkpt lat="37.2724833" lon="13.6834399"><ele>143.4</ele><time>2026-05-06T09:01:13.396Z</time></trkpt><trkpt lat="37.2723808" lon="13.6834242"><ele>141.2</ele><time>2026-05-06T09:01:14.396Z</time></trkpt><trkpt lat="37.2722801" lon="13.6833966"><ele>139.0</ele><time>2026-05-06T09:01:15.395Z</time></trkpt><trkpt lat="37.272179" lon="13.6833704"><ele>137.0</ele><time>2026-05-06T09:01:16.397Z</time></trkpt><trkpt lat="37.2720814" lon="13.6833416"><ele>135.0</ele><time>2026-05-06T09:01:17.397Z</time></trkpt><trkpt lat="37.271991" lon="13.6832983"><ele>133.0</ele><time>2026-05-06T09:01:18.395Z</time></trkpt><trkpt lat="37.271901" lon="13.683264"><ele>131.0</ele><time>2026-05-06T09:01:19.396Z</time></trkpt><trkpt lat="37.2718112" lon="13.6832345"><ele>129.0</ele><time>2026-05-06T09:01:20.395Z</time></trkpt><trkpt lat="37.2717183" lon="13.6832096"><ele>129.0</ele><time>2026-05-06T09:01:21.395Z</time></trkpt><trkpt lat="37.2716271" lon="13.683189"><ele>129.0</ele><time>2026-05-06T09:01:22.396Z</time></trkpt><trkpt lat="37.2715316" lon="13.6831702"><ele>129.0</ele><time>2026-05-06T09:01:23.395Z</time></trkpt><trkpt lat="37.2714422" lon="13.6831549"><ele>129.0</ele><time>2026-05-06T09:01:24.397Z</time></trkpt><trkpt lat="37.2713482" lon="13.6831519"><ele>129.0</ele><time>2026-05-06T09:01:25.395Z</time></trkpt><trkpt lat="37.2712617" lon="13.6831526"><ele>128.0</ele><time>2026-05-06T09:01:26.396Z</time></trkpt><trkpt lat="37.271164" lon="13.6831637"><ele>127.0</ele><time>2026-05-06T09:01:27.396Z</time></trkpt><trkpt lat="37.2710733" lon="13.6831752"><ele>126.0</ele><time>2026-05-06T09:01:28.397Z</time></trkpt><trkpt lat="37.2709799" lon="13.6831951"><ele>125.0</ele><time>2026-05-06T09:01:29.395Z</time></trkpt><trkpt lat="37.2708877" lon="13.6832137"><ele>124.0</ele><time>2026-05-06T09:01:30.395Z</time></trkpt><trkpt lat="37.2707989" lon="13.683232"><ele>124.0</ele><time>2026-05-06T09:01:31.395Z</time></trkpt><trkpt lat="37.2707084" lon="13.6832514"><ele>124.0</ele><time>2026-05-06T09:01:32.395Z</time></trkpt><trkpt lat="37.2706209" lon="13.6832591"><ele>124.0</ele><time>2026-05-06T09:01:33.395Z</time></trkpt><trkpt lat="37.2705324" lon="13.6832616"><ele>124.0</ele><time>2026-05-06T09:01:34.396Z</time></trkpt><trkpt lat="37.2704376" lon="13.6832487"><ele>124.0</ele><time>2026-05-06T09:01:35.396Z</time></trkpt><trkpt lat="37.2703458" lon="13.6832388"><ele>122.4</ele><time>2026-05-06T09:01:36.396Z</time></trkpt><trkpt lat="37.2702496" lon="13.6832349"><ele>120.80000000000001</ele><time>2026-05-06T09:01:37.395Z</time></trkpt><trkpt lat="37.2701551" lon="13.6832314"><ele>119.19999999999999</ele><time>2026-05-06T09:01:38.395Z</time></trkpt><trkpt lat="37.2700576" lon="13.6832368"><ele>117.6</ele><time>2026-05-06T09:01:39.395Z</time></trkpt><trkpt lat="37.2699565" lon="13.6832473"><ele>116.0</ele><time>2026-05-06T09:01:40.395Z</time></trkpt><trkpt lat="37.2698542" lon="13.683267"><ele>113.6</ele><time>2026-05-06T09:01:41.396Z</time></trkpt><trkpt lat="37.2697575" lon="13.6832905"><ele>111.19999999999999</ele><time>2026-05-06T09:01:42.395Z</time></trkpt><trkpt lat="37.2696562" lon="13.6833122"><ele>108.80000000000001</ele><time>2026-05-06T09:01:43.395Z</time></trkpt><trkpt lat="37.2695586" lon="13.6833278"><ele>106.4</ele><time>2026-05-06T09:01:44.395Z</time></trkpt><trkpt lat="37.2694601" lon="13.683344"><ele>104.0</ele><time>2026-05-06T09:01:45.395Z</time></trkpt><trkpt lat="37.2693628" lon="13.6833602"><ele>104.0</ele><time>2026-05-06T09:01:46.395Z</time></trkpt><trkpt lat="37.2692637" lon="13.6833799"><ele>104.0</ele><time>2026-05-06T09:01:47.395Z</time></trkpt><trkpt lat="37.2691656" lon="13.6833982"><ele>104.0</ele><time>2026-05-06T09:01:48.395Z</time></trkpt><trkpt lat="37.2690695" lon="13.683425"><ele>104.0</ele><time>2026-05-06T09:01:49.396Z</time></trkpt><trkpt lat="37.2689714" lon="13.6834561"><ele>104.0</ele><time>2026-05-06T09:01:50.395Z</time></trkpt><trkpt lat="37.2688765" lon="13.6834845"><ele>102.66666666666666</ele><time>2026-05-06T09:01:51.396Z</time></trkpt><trkpt lat="37.2687841" lon="13.6835192"><ele>101.33333333333333</ele><time>2026-05-06T09:01:52.396Z</time></trkpt><trkpt lat="37.2686987" lon="13.6835478"><ele>100.0</ele><time>2026-05-06T09:01:53.395Z</time></trkpt><trkpt lat="37.26862" lon="13.6835756"><ele>98.66666666666666</ele><time>2026-05-06T09:01:54.396Z</time></trkpt><trkpt lat="37.2685536" lon="13.6835862"><ele>97.33333333333333</ele><time>2026-05-06T09:01:55.396Z</time></trkpt><trkpt lat="37.2684836" lon="13.6835887"><ele>96.0</ele><time>2026-05-06T09:01:56.395Z</time></trkpt><trkpt lat="37.2684227" lon="13.6835624"><ele>96.0</ele><time>2026-05-06T09:01:57.396Z</time></trkpt><trkpt lat="37.2683374" lon="13.6834898"><ele>96.0</ele><time>2026-05-06T09:01:59.396Z</time></trkpt><trkpt lat="37.2682744" lon="13.6834024"><ele>96.0</ele><time>2026-05-06T09:02:01.395Z</time></trkpt><trkpt lat="37.2682306" lon="13.6833304"><ele>96.0</ele><time>2026-05-06T09:02:19.396Z</time></trkpt><trkpt lat="37.2681479" lon="13.6832683"><ele>96.0</ele><time>2026-05-06T09:02:21.395Z</time></trkpt><trkpt lat="37.2680849" lon="13.6832505"><ele>96.0</ele><time>2026-05-06T09:02:22.395Z</time></trkpt><trkpt lat="37.2680007" lon="13.6832529"><ele>96.5</ele><time>2026-05-06T09:02:23.396Z</time></trkpt><trkpt lat="37.267925" lon="13.6832801"><ele>97.0</ele><time>2026-05-06T09:02:24.395Z</time></trkpt><trkpt lat="37.2678587" lon="13.6833152"><ele>97.5</ele><time>2026-05-06T09:02:25.395Z</time></trkpt><trkpt lat="37.2677592" lon="13.6833208"><ele>98.0</ele><time>2026-05-06T09:02:27.395Z</time></trkpt><trkpt lat="37.2676925" lon="13.6832108"><ele>98.5</ele><time>2026-05-06T09:02:29.395Z</time></trkpt><trkpt lat="37.2676686" lon="13.6831148"><ele>99.0</ele><time>2026-05-06T09:02:30.395Z</time></trkpt><trkpt lat="37.2676489" lon="13.6829992"><ele>99.0</ele><time>2026-05-06T09:02:31.398Z</time></trkpt><trkpt lat="37.2676348" lon="13.6828936"><ele>99.0</ele><time>2026-05-06T09:02:32.395Z</time></trkpt><trkpt lat="37.2676205" lon="13.6827824"><ele>99.0</ele><time>2026-05-06T09:02:33.395Z</time></trkpt><trkpt lat="37.2676056" lon="13.6826801"><ele>99.0</ele><time>2026-05-06T09:02:34.395Z</time></trkpt><trkpt lat="37.2675912" lon="13.6825646"><ele>99.0</ele><time>2026-05-06T09:02:35.395Z</time></trkpt><trkpt lat="37.267576" lon="13.6824418"><ele>99.16666666666667</ele><time>2026-05-06T09:02:36.395Z</time></trkpt><trkpt lat="37.2675642" lon="13.6823302"><ele>99.33333333333334</ele><time>2026-05-06T09:02:37.396Z</time></trkpt><trkpt lat="37.2675593" lon="13.6822368"><ele>99.5</ele><time>2026-05-06T09:02:38.395Z</time></trkpt><trkpt lat="37.2675617" lon="13.682149"><ele>99.66666666666667</ele><time>2026-05-06T09:02:39.395Z</time></trkpt><trkpt lat="37.2675738" lon="13.6820682"><ele>99.83333333333334</ele><time>2026-05-06T09:02:40.395Z</time></trkpt><trkpt lat="37.2675917" lon="13.6819828"><ele>100.0</ele><time>2026-05-06T09:02:41.396Z</time></trkpt><trkpt lat="37.2676365" lon="13.6818799"><ele>100.0</ele><time>2026-05-06T09:02:42.395Z</time></trkpt><trkpt lat="37.2676928" lon="13.6817865"><ele>100.0</ele><time>2026-05-06T09:02:43.395Z</time></trkpt><trkpt lat="37.2677636" lon="13.6816977"><ele>100.0</ele><time>2026-05-06T09:02:44.395Z</time></trkpt><trkpt lat="37.2678437" lon="13.6816117"><ele>100.0</ele><time>2026-05-06T09:02:45.395Z</time></trkpt><trkpt lat="37.267939" lon="13.6815409"><ele>100.0</ele><time>2026-05-06T09:02:46.396Z</time></trkpt><trkpt lat="37.2680369" lon="13.681482"><ele>99.25</ele><time>2026-05-06T09:02:47.395Z</time></trkpt><trkpt lat="37.2681411" lon="13.681411"><ele>98.5</ele><time>2026-05-06T09:02:48.396Z</time></trkpt><trkpt lat="37.2682495" lon="13.6813293"><ele>97.75</ele><time>2026-05-06T09:02:49.395Z</time></trkpt><trkpt lat="37.2683599" lon="13.6812544"><ele>97.0</ele><time>2026-05-06T09:02:50.395Z</time></trkpt><trkpt lat="37.2684568" lon="13.6811819"><ele>97.0</ele><time>2026-05-06T09:02:51.395Z</time></trkpt><trkpt lat="37.2685551" lon="13.6811144"><ele>97.0</ele><time>2026-05-06T09:02:52.395Z</time></trkpt><trkpt lat="37.2686549" lon="13.6810607"><ele>97.0</ele><time>2026-05-06T09:02:53.395Z</time></trkpt><trkpt lat="37.2687563" lon="13.6810147"><ele>97.0</ele><time>2026-05-06T09:02:54.396Z</time></trkpt><trkpt lat="37.2688578" lon="13.6809716"><ele>97.0</ele><time>2026-05-06T09:02:55.395Z</time></trkpt><trkpt lat="37.2689643" lon="13.6809431"><ele>96.6</ele><time>2026-05-06T09:02:56.395Z</time></trkpt><trkpt lat="37.2690698" lon="13.6809167"><ele>96.19999999999999</ele><time>2026-05-06T09:02:57.395Z</time></trkpt><trkpt lat="37.2691772" lon="13.6808861"><ele>95.8</ele><time>2026-05-06T09:02:58.395Z</time></trkpt><trkpt lat="37.2692807" lon="13.680853"><ele>95.4</ele><time>2026-05-06T09:02:59.396Z</time></trkpt><trkpt lat="37.2693722" lon="13.6808078"><ele>95.0</ele><time>2026-05-06T09:03:00.395Z</time></trkpt><trkpt lat="37.2694457" lon="13.6807277"><ele>95.0</ele><time>2026-05-06T09:03:01.395Z</time></trkpt><trkpt lat="37.2695101" lon="13.6806017"><ele>95.0</ele><time>2026-05-06T09:03:02.396Z</time></trkpt><trkpt lat="37.2695821" lon="13.6804752"><ele>95.0</ele><time>2026-05-06T09:03:03.396Z</time></trkpt><trkpt lat="37.2696536" lon="13.6803349"><ele>95.0</ele><time>2026-05-06T09:03:04.395Z</time></trkpt><trkpt lat="37.2697317" lon="13.6801979"><ele>94.75</ele><time>2026-05-06T09:03:05.396Z</time></trkpt><trkpt lat="37.2698048" lon="13.6800579"><ele>94.5</ele><time>2026-05-06T09:03:06.396Z</time></trkpt><trkpt lat="37.269882" lon="13.6799189"><ele>94.25</ele><time>2026-05-06T09:03:07.395Z</time></trkpt><trkpt lat="37.2699588" lon="13.679782"><ele>94.0</ele><time>2026-05-06T09:03:08.395Z</time></trkpt><trkpt lat="37.270033" lon="13.6796455"><ele>94.0</ele><time>2026-05-06T09:03:09.395Z</time></trkpt><trkpt lat="37.2701126" lon="13.6795123"><ele>94.0</ele><time>2026-05-06T09:03:10.397Z</time></trkpt><trkpt lat="37.2701896" lon="13.6793802"><ele>94.0</ele><time>2026-05-06T09:03:11.395Z</time></trkpt><trkpt lat="37.2702663" lon="13.6792491"><ele>94.0</ele><time>2026-05-06T09:03:12.395Z</time></trkpt><trkpt lat="37.2703449" lon="13.6791208"><ele>94.5</ele><time>2026-05-06T09:03:13.395Z</time></trkpt><trkpt lat="37.2704249" lon="13.6789875"><ele>95.0</ele><time>2026-05-06T09:03:14.396Z</time></trkpt><trkpt lat="37.2705016" lon="13.678854"><ele>95.5</ele><time>2026-05-06T09:03:15.395Z</time></trkpt><trkpt lat="37.27058" lon="13.6787192"><ele>96.0</ele><time>2026-05-06T09:03:16.396Z</time></trkpt><trkpt lat="37.2706581" lon="13.6785827"><ele>94.5</ele><time>2026-05-06T09:03:17.395Z</time></trkpt><trkpt lat="37.2707403" lon="13.6784437"><ele>93.0</ele><time>2026-05-06T09:03:18.395Z</time></trkpt><trkpt lat="37.2708166" lon="13.6783018"><ele>91.5</ele><time>2026-05-06T09:03:19.397Z</time></trkpt><trkpt lat="37.2708965" lon="13.6781625"><ele>90.0</ele><time>2026-05-06T09:03:20.395Z</time></trkpt><trkpt lat="37.2709801" lon="13.6780196"><ele>90.0</ele><time>2026-05-06T09:03:21.395Z</time></trkpt><trkpt lat="37.2710647" lon="13.6778761"><ele>90.0</ele><time>2026-05-06T09:03:22.395Z</time></trkpt><trkpt lat="37.2711444" lon="13.6777363"><ele>90.0</ele><time>2026-05-06T09:03:23.395Z</time></trkpt><trkpt lat="37.2712206" lon="13.6775937"><ele>90.0</ele><time>2026-05-06T09:03:24.396Z</time></trkpt><trkpt lat="37.2712965" lon="13.6774625"><ele>90.5</ele><time>2026-05-06T09:03:25.396Z</time></trkpt><trkpt lat="37.2713763" lon="13.6773322"><ele>91.0</ele><time>2026-05-06T09:03:26.395Z</time></trkpt><trkpt lat="37.271449" lon="13.6772058"><ele>91.5</ele><time>2026-05-06T09:03:27.397Z</time></trkpt><trkpt lat="37.2715205" lon="13.6770757"><ele>92.0</ele><time>2026-05-06T09:03:28.396Z</time></trkpt><trkpt lat="37.2715841" lon="13.6769447"><ele>91.75</ele><time>2026-05-06T09:03:29.396Z</time></trkpt><trkpt lat="37.271638" lon="13.6768059"><ele>91.5</ele><time>2026-05-06T09:03:30.397Z</time></trkpt><trkpt lat="37.2716527" lon="13.6766588"><ele>91.25</ele><time>2026-05-06T09:03:31.396Z</time></trkpt><trkpt lat="37.271648" lon="13.6765126"><ele>91.0</ele><time>2026-05-06T09:03:32.395Z</time></trkpt><trkpt lat="37.2716255" lon="13.6763681"><ele>91.0</ele><time>2026-05-06T09:03:33.395Z</time></trkpt><trkpt lat="37.2715749" lon="13.6762193"><ele>91.0</ele><time>2026-05-06T09:03:34.395Z</time></trkpt><trkpt lat="37.2715157" lon="13.6760834"><ele>91.0</ele><time>2026-05-06T09:03:35.397Z</time></trkpt><trkpt lat="37.2714577" lon="13.6759493"><ele>91.0</ele><time>2026-05-06T09:03:36.395Z</time></trkpt><trkpt lat="37.2714009" lon="13.6758148"><ele>95.0</ele><time>2026-05-06T09:03:37.397Z</time></trkpt><trkpt lat="37.271343" lon="13.6756779"><ele>99.0</ele><time>2026-05-06T09:03:38.396Z</time></trkpt><trkpt lat="37.2712888" lon="13.6755418"><ele>103.0</ele><time>2026-05-06T09:03:39.396Z</time></trkpt><trkpt lat="37.2712413" lon="13.6754048"><ele>107.0</ele><time>2026-05-06T09:03:40.395Z</time></trkpt><trkpt lat="37.2712145" lon="13.6752706"><ele>107.8</ele><time>2026-05-06T09:03:41.395Z</time></trkpt><trkpt lat="37.2711953" lon="13.6751343"><ele>108.6</ele><time>2026-05-06T09:03:42.395Z</time></trkpt><trkpt lat="37.2711857" lon="13.6749968"><ele>109.39999999999999</ele><time>2026-05-06T09:03:43.395Z</time></trkpt><trkpt lat="37.271187" lon="13.6748573"><ele>110.19999999999999</ele><time>2026-05-06T09:03:44.395Z</time></trkpt><trkpt lat="37.2712088" lon="13.6747328"><ele>111.0</ele><time>2026-05-06T09:03:45.395Z</time></trkpt><trkpt lat="37.2712522" lon="13.6746239"><ele>111.0</ele><time>2026-05-06T09:03:46.395Z</time></trkpt><trkpt lat="37.2713047" lon="13.6745132"><ele>111.0</ele><time>2026-05-06T09:03:47.395Z</time></trkpt><trkpt lat="37.271366" lon="13.674404"><ele>111.0</ele><time>2026-05-06T09:03:48.395Z</time></trkpt><trkpt lat="37.2714307" lon="13.6742955"><ele>111.0</ele><time>2026-05-06T09:03:49.395Z</time></trkpt><trkpt lat="37.2714927" lon="13.6741815"><ele>111.0</ele><time>2026-05-06T09:03:50.395Z</time></trkpt><trkpt lat="37.2715584" lon="13.6740666"><ele>105.75</ele><time>2026-05-06T09:03:51.396Z</time></trkpt><trkpt lat="37.2716237" lon="13.6739418"><ele>100.5</ele><time>2026-05-06T09:03:52.396Z</time></trkpt><trkpt lat="37.2716928" lon="13.6738209"><ele>95.25</ele><time>2026-05-06T09:03:53.396Z</time></trkpt><trkpt lat="37.2717561" lon="13.6736886"><ele>90.0</ele><time>2026-05-06T09:03:54.395Z</time></trkpt><trkpt lat="37.2718247" lon="13.6735587"><ele>90.0</ele><time>2026-05-06T09:03:55.395Z</time></trkpt><trkpt lat="37.2718933" lon="13.6734343"><ele>90.0</ele><time>2026-05-06T09:03:56.396Z</time></trkpt><trkpt lat="37.2719638" lon="13.6733064"><ele>90.0</ele><time>2026-05-06T09:03:57.396Z</time></trkpt><trkpt lat="37.2720317" lon="13.6731796"><ele>90.0</ele><time>2026-05-06T09:03:58.396Z</time></trkpt><trkpt lat="37.2721028" lon="13.6730502"><ele>90.0</ele><time>2026-05-06T09:03:59.395Z</time></trkpt><trkpt lat="37.2721758" lon="13.6729188"><ele>90.0</ele><time>2026-05-06T09:04:00.395Z</time></trkpt><trkpt lat="37.2722518" lon="13.6727764"><ele>90.0</ele><time>2026-05-06T09:04:01.395Z</time></trkpt><trkpt lat="37.2723288" lon="13.672644"><ele>90.0</ele><time>2026-05-06T09:04:02.395Z</time></trkpt><trkpt lat="37.2724012" lon="13.6725112"><ele>89.5</ele><time>2026-05-06T09:04:03.395Z</time></trkpt><trkpt lat="37.2724629" lon="13.6723862"><ele>89.0</ele><time>2026-05-06T09:04:04.396Z</time></trkpt><trkpt lat="37.2725115" lon="13.6722444"><ele>88.5</ele><time>2026-05-06T09:04:05.396Z</time></trkpt><trkpt lat="37.2725486" lon="13.6720909"><ele>88.0</ele><time>2026-05-06T09:04:06.396Z</time></trkpt><trkpt lat="37.2725694" lon="13.6719249"><ele>88.0</ele><time>2026-05-06T09:04:07.396Z</time></trkpt><trkpt lat="37.2725891" lon="13.6717608"><ele>88.0</ele><time>2026-05-06T09:04:08.395Z</time></trkpt><trkpt lat="37.2725918" lon="13.6716029"><ele>88.0</ele><time>2026-05-06T09:04:09.395Z</time></trkpt><trkpt lat="37.2725872" lon="13.6714432"><ele>88.0</ele><time>2026-05-06T09:04:10.397Z</time></trkpt><trkpt lat="37.2725465" lon="13.6712577"><ele>87.0</ele><time>2026-05-06T09:04:11.395Z</time></trkpt><trkpt lat="37.2725057" lon="13.6710724"><ele>86.0</ele><time>2026-05-06T09:04:12.395Z</time></trkpt><trkpt lat="37.272461" lon="13.6708735"><ele>85.0</ele><time>2026-05-06T09:04:13.395Z</time></trkpt><trkpt lat="37.2724059" lon="13.6706539"><ele>85.0</ele><time>2026-05-06T09:04:14.395Z</time></trkpt><trkpt lat="37.2723566" lon="13.6704527"><ele>85.0</ele><time>2026-05-06T09:04:15.395Z</time></trkpt><trkpt lat="37.2723151" lon="13.670263"><ele>85.0</ele><time>2026-05-06T09:04:16.395Z</time></trkpt><trkpt lat="37.2722718" lon="13.670091"><ele>88.33333333333333</ele><time>2026-05-06T09:04:17.395Z</time></trkpt><trkpt lat="37.272222" lon="13.6698974"><ele>91.66666666666667</ele><time>2026-05-06T09:04:18.396Z</time></trkpt><trkpt lat="37.2721673" lon="13.6696825"><ele>95.0</ele><time>2026-05-06T09:04:19.396Z</time></trkpt><trkpt lat="37.2721156" lon="13.6694872"><ele>94.5</ele><time>2026-05-06T09:04:20.395Z</time></trkpt><trkpt lat="37.2720709" lon="13.6693034"><ele>94.0</ele><time>2026-05-06T09:04:21.395Z</time></trkpt><trkpt lat="37.2720316" lon="13.6691396"><ele>93.5</ele><time>2026-05-06T09:04:22.395Z</time></trkpt><trkpt lat="37.2719979" lon="13.6689838"><ele>93.0</ele><time>2026-05-06T09:04:23.395Z</time></trkpt><trkpt lat="37.2719809" lon="13.6688214"><ele>93.0</ele><time>2026-05-06T09:04:24.395Z</time></trkpt><trkpt lat="37.2719799" lon="13.6686587"><ele>93.0</ele><time>2026-05-06T09:04:25.395Z</time></trkpt><trkpt lat="37.2720067" lon="13.6684829"><ele>93.0</ele><time>2026-05-06T09:04:26.395Z</time></trkpt><trkpt lat="37.2720373" lon="13.668301"><ele>93.0</ele><time>2026-05-06T09:04:27.395Z</time></trkpt><trkpt lat="37.2720767" lon="13.6681078"><ele>94.25</ele><time>2026-05-06T09:04:28.395Z</time></trkpt><trkpt lat="37.2721111" lon="13.6679305"><ele>95.5</ele><time>2026-05-06T09:04:29.395Z</time></trkpt><trkpt lat="37.2721355" lon="13.6677659"><ele>96.75</ele><time>2026-05-06T09:04:30.395Z</time></trkpt><trkpt lat="37.2721519" lon="13.6676084"><ele>98.0</ele><time>2026-05-06T09:04:31.395Z</time></trkpt><trkpt lat="37.2721613" lon="13.6674627"><ele>98.60000000000001</ele><time>2026-05-06T09:04:32.395Z</time></trkpt><trkpt lat="37.2721753" lon="13.6673283"><ele>99.2</ele><time>2026-05-06T09:04:33.396Z</time></trkpt><trkpt lat="37.2721996" lon="13.6671931"><ele>99.8</ele><time>2026-05-06T09:04:34.395Z</time></trkpt><trkpt lat="37.2722269" lon="13.667055"><ele>100.4</ele><time>2026-05-06T09:04:35.395Z</time></trkpt><trkpt lat="37.2722572" lon="13.6669131"><ele>101.0</ele><time>2026-05-06T09:04:36.396Z</time></trkpt><trkpt lat="37.2722962" lon="13.6667681"><ele>98.75</ele><time>2026-05-06T09:04:37.395Z</time></trkpt><trkpt lat="37.2723434" lon="13.6666263"><ele>96.5</ele><time>2026-05-06T09:04:38.396Z</time></trkpt><trkpt lat="37.2724161" lon="13.6664882"><ele>94.25</ele><time>2026-05-06T09:04:39.395Z</time></trkpt><trkpt lat="37.2724886" lon="13.6663492"><ele>92.0</ele><time>2026-05-06T09:04:40.396Z</time></trkpt><trkpt lat="37.2725647" lon="13.6662114"><ele>93.25</ele><time>2026-05-06T09:04:41.396Z</time></trkpt><trkpt lat="37.272641" lon="13.6660748"><ele>94.5</ele><time>2026-05-06T09:04:42.396Z</time></trkpt><trkpt lat="37.2727109" lon="13.6659472"><ele>95.75</ele><time>2026-05-06T09:04:43.396Z</time></trkpt><trkpt lat="37.2727708" lon="13.6658214"><ele>97.0</ele><time>2026-05-06T09:04:44.396Z</time></trkpt><trkpt lat="37.2728298" lon="13.6656947"><ele>97.0</ele><time>2026-05-06T09:04:45.395Z</time></trkpt><trkpt lat="37.2728838" lon="13.6655816"><ele>97.0</ele><time>2026-05-06T09:04:46.395Z</time></trkpt><trkpt lat="37.2729449" lon="13.6654618"><ele>97.0</ele><time>2026-05-06T09:04:47.395Z</time></trkpt><trkpt lat="37.2730114" lon="13.6653303"><ele>97.0</ele><time>2026-05-06T09:04:48.395Z</time></trkpt><trkpt lat="37.2730587" lon="13.6651979"><ele>96.75</ele><time>2026-05-06T09:04:49.395Z</time></trkpt><trkpt lat="37.2730986" lon="13.6650599"><ele>96.5</ele><time>2026-05-06T09:04:50.396Z</time></trkpt><trkpt lat="37.2731323" lon="13.6649054"><ele>96.25</ele><time>2026-05-06T09:04:51.395Z</time></trkpt><trkpt lat="37.2731629" lon="13.6647314"><ele>96.0</ele><time>2026-05-06T09:04:52.396Z</time></trkpt><trkpt lat="37.2731881" lon="13.6645315"><ele>93.66666666666667</ele><time>2026-05-06T09:04:53.396Z</time></trkpt><trkpt lat="37.2732083" lon="13.6643025"><ele>91.33333333333334</ele><time>2026-05-06T09:04:54.395Z</time></trkpt><trkpt lat="37.2732284" lon="13.6640546"><ele>89.0</ele><time>2026-05-06T09:04:55.396Z</time></trkpt><trkpt lat="37.2732466" lon="13.6637881"><ele>88.66666666666667</ele><time>2026-05-06T09:04:56.396Z</time></trkpt><trkpt lat="37.2732687" lon="13.663506"><ele>88.33333333333333</ele><time>2026-05-06T09:04:57.395Z</time></trkpt><trkpt lat="37.2732957" lon="13.6632308"><ele>88.0</ele><time>2026-05-06T09:04:58.395Z</time></trkpt><trkpt lat="37.2733181" lon="13.662956"><ele>87.33333333333333</ele><time>2026-05-06T09:04:59.395Z</time></trkpt><trkpt lat="37.2733427" lon="13.6626969"><ele>86.66666666666667</ele><time>2026-05-06T09:05:00.396Z</time></trkpt><trkpt lat="37.2733639" lon="13.6624491"><ele>86.0</ele><time>2026-05-06T09:05:01.395Z</time></trkpt><trkpt lat="37.2733837" lon="13.6622201"><ele>86.0</ele><time>2026-05-06T09:05:02.395Z</time></trkpt><trkpt lat="37.2734019" lon="13.6620076"><ele>86.0</ele><time>2026-05-06T09:05:03.395Z</time></trkpt><trkpt lat="37.273418" lon="13.661806"><ele>86.0</ele><time>2026-05-06T09:05:04.396Z</time></trkpt><trkpt lat="37.273433" lon="13.6616092"><ele>86.0</ele><time>2026-05-06T09:05:05.395Z</time></trkpt><trkpt lat="37.2734477" lon="13.6614351"><ele>86.0</ele><time>2026-05-06T09:05:06.395Z</time></trkpt><trkpt lat="37.2734593" lon="13.6612657"><ele>86.0</ele><time>2026-05-06T09:05:07.397Z</time></trkpt><trkpt lat="37.2734718" lon="13.6611032"><ele>86.0</ele><time>2026-05-06T09:05:08.395Z</time></trkpt><trkpt lat="37.2734819" lon="13.6609497"><ele>86.0</ele><time>2026-05-06T09:05:09.395Z</time></trkpt><trkpt lat="37.2734936" lon="13.660796"><ele>86.0</ele><time>2026-05-06T09:05:10.395Z</time></trkpt><trkpt lat="37.2735125" lon="13.6606496"><ele>86.0</ele><time>2026-05-06T09:05:11.396Z</time></trkpt><trkpt lat="37.2735303" lon="13.6605039"><ele>86.0</ele><time>2026-05-06T09:05:12.395Z</time></trkpt><trkpt lat="37.2735404" lon="13.6603586"><ele>85.75</ele><time>2026-05-06T09:05:13.395Z</time></trkpt><trkpt lat="37.2735484" lon="13.6602134"><ele>85.5</ele><time>2026-05-06T09:05:14.395Z</time></trkpt><trkpt lat="37.2735614" lon="13.6600736"><ele>85.25</ele><time>2026-05-06T09:05:15.396Z</time></trkpt><trkpt lat="37.2735755" lon="13.6599343"><ele>85.0</ele><time>2026-05-06T09:05:16.395Z</time></trkpt><trkpt lat="37.2735902" lon="13.6597811"><ele>85.0</ele><time>2026-05-06T09:05:17.395Z</time></trkpt><trkpt lat="37.2736" lon="13.6596322"><ele>85.0</ele><time>2026-05-06T09:05:18.395Z</time></trkpt><trkpt lat="37.2736202" lon="13.6594653"><ele>85.0</ele><time>2026-05-06T09:05:19.395Z</time></trkpt><trkpt lat="37.2736351" lon="13.6592888"><ele>85.0</ele><time>2026-05-06T09:05:20.395Z</time></trkpt><trkpt lat="37.2736424" lon="13.6591192"><ele>85.0</ele><time>2026-05-06T09:05:21.397Z</time></trkpt><trkpt lat="37.2736397" lon="13.6589694"><ele>85.0</ele><time>2026-05-06T09:05:22.395Z</time></trkpt><trkpt lat="37.2736286" lon="13.6588349"><ele>85.0</ele><time>2026-05-06T09:05:23.395Z</time></trkpt><trkpt lat="37.2736066" lon="13.6587146"><ele>85.0</ele><time>2026-05-06T09:05:24.397Z</time></trkpt><trkpt lat="37.2735602" lon="13.658595"><ele>85.0</ele><time>2026-05-06T09:05:25.395Z</time></trkpt><trkpt lat="37.2735036" lon="13.6584738"><ele>84.0</ele><time>2026-05-06T09:05:26.395Z</time></trkpt><trkpt lat="37.273444" lon="13.6583575"><ele>83.0</ele><time>2026-05-06T09:05:27.395Z</time></trkpt><trkpt lat="37.2733917" lon="13.6582453"><ele>82.0</ele><time>2026-05-06T09:05:28.395Z</time></trkpt><trkpt lat="37.2733446" lon="13.6581306"><ele>81.0</ele><time>2026-05-06T09:05:29.396Z</time></trkpt><trkpt lat="37.2733231" lon="13.6580193"><ele>80.0</ele><time>2026-05-06T09:05:30.395Z</time></trkpt><trkpt lat="37.2732981" lon="13.6579083"><ele>80.0</ele><time>2026-05-06T09:05:31.396Z</time></trkpt><trkpt lat="37.2733032" lon="13.6578037"><ele>80.0</ele><time>2026-05-06T09:05:32.395Z</time></trkpt><trkpt lat="37.2733144" lon="13.6577013"><ele>80.0</ele><time>2026-05-06T09:05:33.395Z</time></trkpt><trkpt lat="37.2733276" lon="13.6576058"><ele>80.0</ele><time>2026-05-06T09:05:34.396Z</time></trkpt><trkpt lat="37.2733453" lon="13.6575105"><ele>80.0</ele><time>2026-05-06T09:05:35.396Z</time></trkpt><trkpt lat="37.27336" lon="13.6574182"><ele>80.0</ele><time>2026-05-06T09:05:36.395Z</time></trkpt><trkpt lat="37.2733834" lon="13.6573317"><ele>79.0</ele><time>2026-05-06T09:05:38.395Z</time></trkpt><trkpt lat="37.2734064" lon="13.6572564"><ele>78.0</ele><time>2026-05-06T09:06:13.396Z</time></trkpt><trkpt lat="37.2734285" lon="13.6570961"><ele>77.0</ele><time>2026-05-06T09:06:15.396Z</time></trkpt><trkpt lat="37.2734421" lon="13.6569733"><ele>76.0</ele><time>2026-05-06T09:06:16.396Z</time></trkpt><trkpt lat="37.2734575" lon="13.656862"><ele>75.0</ele><time>2026-05-06T09:06:17.394Z</time></trkpt><trkpt lat="37.2734734" lon="13.6567514"><ele>74.6</ele><time>2026-05-06T09:06:18.395Z</time></trkpt><trkpt lat="37.273497" lon="13.6566434"><ele>74.2</ele><time>2026-05-06T09:06:19.395Z</time></trkpt><trkpt lat="37.2735271" lon="13.6565343"><ele>73.8</ele><time>2026-05-06T09:06:20.394Z</time></trkpt><trkpt lat="37.2735635" lon="13.6564219"><ele>73.4</ele><time>2026-05-06T09:06:21.395Z</time></trkpt><trkpt lat="37.2736176" lon="13.6562866"><ele>73.0</ele><time>2026-05-06T09:06:22.395Z</time></trkpt><trkpt lat="37.2736818" lon="13.6561435"><ele>72.5</ele><time>2026-05-06T09:06:23.395Z</time></trkpt><trkpt lat="37.2737458" lon="13.6560064"><ele>72.0</ele><time>2026-05-06T09:06:24.395Z</time></trkpt><trkpt lat="37.273814" lon="13.6558776"><ele>71.5</ele><time>2026-05-06T09:06:25.395Z</time></trkpt><trkpt lat="37.2738778" lon="13.6557526"><ele>71.0</ele><time>2026-05-06T09:06:26.396Z</time></trkpt><trkpt lat="37.2739438" lon="13.6556226"><ele>70.25</ele><time>2026-05-06T09:06:27.395Z</time></trkpt><trkpt lat="37.2740174" lon="13.6554836"><ele>69.5</ele><time>2026-05-06T09:06:28.395Z</time></trkpt><trkpt lat="37.2740891" lon="13.6553322"><ele>68.75</ele><time>2026-05-06T09:06:29.395Z</time></trkpt><trkpt lat="37.2741669" lon="13.6551763"><ele>68.0</ele><time>2026-05-06T09:06:30.395Z</time></trkpt><trkpt lat="37.2742385" lon="13.6550332"><ele>67.75</ele><time>2026-05-06T09:06:31.395Z</time></trkpt><trkpt lat="37.2743029" lon="13.6548951"><ele>67.5</ele><time>2026-05-06T09:06:32.396Z</time></trkpt><trkpt lat="37.2743679" lon="13.6547678"><ele>67.25</ele><time>2026-05-06T09:06:33.394Z</time></trkpt><trkpt lat="37.2744268" lon="13.6546414"><ele>67.0</ele><time>2026-05-06T09:06:34.395Z</time></trkpt><trkpt lat="37.2744806" lon="13.6545221"><ele>67.0</ele><time>2026-05-06T09:06:35.395Z</time></trkpt><trkpt lat="37.2745373" lon="13.6543958"><ele>67.0</ele><time>2026-05-06T09:06:36.395Z</time></trkpt><trkpt lat="37.2745786" lon="13.6542581"><ele>67.0</ele><time>2026-05-06T09:06:37.395Z</time></trkpt><trkpt lat="37.2746222" lon="13.6541094"><ele>67.0</ele><time>2026-05-06T09:06:38.395Z</time></trkpt><trkpt lat="37.274661" lon="13.6539611"><ele>67.0</ele><time>2026-05-06T09:06:39.396Z</time></trkpt><trkpt lat="37.2747063" lon="13.6538224"><ele>67.0</ele><time>2026-05-06T09:06:40.395Z</time></trkpt><trkpt lat="37.2747604" lon="13.6536962"><ele>67.0</ele><time>2026-05-06T09:06:41.395Z</time></trkpt><trkpt lat="37.2748223" lon="13.6535886"><ele>67.0</ele><time>2026-05-06T09:06:42.396Z</time></trkpt><trkpt lat="37.2748956" lon="13.6534863"><ele>67.0</ele><time>2026-05-06T09:06:43.394Z</time></trkpt><trkpt lat="37.2749878" lon="13.6533948"><ele>65.75</ele><time>2026-05-06T09:06:44.395Z</time></trkpt><trkpt lat="37.2750829" lon="13.6533087"><ele>64.5</ele><time>2026-05-06T09:06:45.395Z</time></trkpt><trkpt lat="37.2751823" lon="13.6532294"><ele>63.25</ele><time>2026-05-06T09:06:46.395Z</time></trkpt><trkpt lat="37.2752778" lon="13.6531458"><ele>62.0</ele><time>2026-05-06T09:06:47.396Z</time></trkpt><trkpt lat="37.2753659" lon="13.6530634"><ele>62.0</ele><time>2026-05-06T09:06:48.394Z</time></trkpt><trkpt lat="37.2754512" lon="13.6529809"><ele>62.0</ele><time>2026-05-06T09:06:49.394Z</time></trkpt><trkpt lat="37.2755313" lon="13.6528862"><ele>62.0</ele><time>2026-05-06T09:06:50.395Z</time></trkpt><trkpt lat="37.2755817" lon="13.6527529"><ele>62.0</ele><time>2026-05-06T09:06:51.396Z</time></trkpt><trkpt lat="37.2756342" lon="13.6526166"><ele>62.2</ele><time>2026-05-06T09:06:52.395Z</time></trkpt><trkpt lat="37.2756871" lon="13.6524878"><ele>62.400000000000006</ele><time>2026-05-06T09:06:53.395Z</time></trkpt><trkpt lat="37.2757353" lon="13.6523695"><ele>62.599999999999994</ele><time>2026-05-06T09:06:54.395Z</time></trkpt><trkpt lat="37.2757895" lon="13.6522524"><ele>62.8</ele><time>2026-05-06T09:06:55.395Z</time></trkpt><trkpt lat="37.2758516" lon="13.6521479"><ele>63.0</ele><time>2026-05-06T09:06:56.394Z</time></trkpt><trkpt lat="37.2759272" lon="13.6520616"><ele>63.0</ele><time>2026-05-06T09:06:57.395Z</time></trkpt><trkpt lat="37.276008" lon="13.6519833"><ele>63.0</ele><time>2026-05-06T09:06:58.396Z</time></trkpt><trkpt lat="37.2760978" lon="13.6519215"><ele>63.0</ele><time>2026-05-06T09:06:59.395Z</time></trkpt><trkpt lat="37.2761847" lon="13.6518744"><ele>63.0</ele><time>2026-05-06T09:07:00.396Z</time></trkpt><trkpt lat="37.2762661" lon="13.6518288"><ele>63.0</ele><time>2026-05-06T09:07:01.394Z</time></trkpt><trkpt lat="37.2763435" lon="13.6517818"><ele>63.2</ele><time>2026-05-06T09:07:02.395Z</time></trkpt><trkpt lat="37.2764229" lon="13.6517253"><ele>63.4</ele><time>2026-05-06T09:07:03.395Z</time></trkpt><trkpt lat="37.2764992" lon="13.6516562"><ele>63.60000000000001</ele><time>2026-05-06T09:07:04.394Z</time></trkpt><trkpt lat="37.276569" lon="13.6515765"><ele>63.800000000000004</ele><time>2026-05-06T09:07:05.395Z</time></trkpt><trkpt lat="37.2766392" lon="13.6514908"><ele>64.0</ele><time>2026-05-06T09:07:06.395Z</time></trkpt><trkpt lat="37.2767026" lon="13.6513848"><ele>64.0</ele><time>2026-05-06T09:07:07.395Z</time></trkpt><trkpt lat="37.276752" lon="13.6512716"><ele>64.0</ele><time>2026-05-06T09:07:08.395Z</time></trkpt><trkpt lat="37.2767929" lon="13.6511425"><ele>64.0</ele><time>2026-05-06T09:07:09.395Z</time></trkpt><trkpt lat="37.2768212" lon="13.6510007"><ele>64.0</ele><time>2026-05-06T09:07:10.395Z</time></trkpt><trkpt lat="37.2768355" lon="13.6508557"><ele>64.0</ele><time>2026-05-06T09:07:11.396Z</time></trkpt><trkpt lat="37.2768453" lon="13.6507161"><ele>64.0</ele><time>2026-05-06T09:07:12.395Z</time></trkpt><trkpt lat="37.276827" lon="13.6505594"><ele>64.0</ele><time>2026-05-06T09:07:13.395Z</time></trkpt><trkpt lat="37.2768176" lon="13.6504101"><ele>64.0</ele><time>2026-05-06T09:07:14.395Z</time></trkpt><trkpt lat="37.276806" lon="13.6502503"><ele>64.0</ele><time>2026-05-06T09:07:15.395Z</time></trkpt><trkpt lat="37.2767969" lon="13.6500919"><ele>63.5</ele><time>2026-05-06T09:07:16.395Z</time></trkpt><trkpt lat="37.2767852" lon="13.6499367"><ele>63.0</ele><time>2026-05-06T09:07:17.395Z</time></trkpt><trkpt lat="37.2767808" lon="13.6497785"><ele>62.5</ele><time>2026-05-06T09:07:18.394Z</time></trkpt><trkpt lat="37.2767767" lon="13.6496306"><ele>62.0</ele><time>2026-05-06T09:07:19.395Z</time></trkpt><trkpt lat="37.2767768" lon="13.6494843"><ele>61.5</ele><time>2026-05-06T09:07:20.396Z</time></trkpt><trkpt lat="37.2767747" lon="13.6493325"><ele>61.0</ele><time>2026-05-06T09:07:21.396Z</time></trkpt><trkpt lat="37.2767732" lon="13.6491774"><ele>60.5</ele><time>2026-05-06T09:07:22.396Z</time></trkpt><trkpt lat="37.2767678" lon="13.6490161"><ele>60.0</ele><time>2026-05-06T09:07:23.396Z</time></trkpt><trkpt lat="37.2767662" lon="13.6488617"><ele>60.0</ele><time>2026-05-06T09:07:24.395Z</time></trkpt><trkpt lat="37.2767627" lon="13.6487128"><ele>60.0</ele><time>2026-05-06T09:07:25.394Z</time></trkpt><trkpt lat="37.2767604" lon="13.6485636"><ele>60.0</ele><time>2026-05-06T09:07:26.396Z</time></trkpt><trkpt lat="37.276752" lon="13.6484118"><ele>60.0</ele><time>2026-05-06T09:07:27.394Z</time></trkpt><trkpt lat="37.2767478" lon="13.6482732"><ele>60.8</ele><time>2026-05-06T09:07:28.395Z</time></trkpt><trkpt lat="37.276746" lon="13.6481323"><ele>61.6</ele><time>2026-05-06T09:07:29.394Z</time></trkpt><trkpt lat="37.2767475" lon="13.6479972"><ele>62.400000000000006</ele><time>2026-05-06T09:07:30.395Z</time></trkpt><trkpt lat="37.2767418" lon="13.64786"><ele>63.2</ele><time>2026-05-06T09:07:31.394Z</time></trkpt><trkpt lat="37.2767339" lon="13.6477197"><ele>64.0</ele><time>2026-05-06T09:07:32.395Z</time></trkpt><trkpt lat="37.2767239" lon="13.6475812"><ele>64.25</ele><time>2026-05-06T09:07:33.395Z</time></trkpt><trkpt lat="37.2767083" lon="13.6474411"><ele>64.5</ele><time>2026-05-06T09:07:34.395Z</time></trkpt><trkpt lat="37.2766907" lon="13.6472998"><ele>64.75</ele><time>2026-05-06T09:07:35.395Z</time></trkpt><trkpt lat="37.2766688" lon="13.6471559"><ele>65.0</ele><time>2026-05-06T09:07:36.395Z</time></trkpt><trkpt lat="37.2766475" lon="13.6470159"><ele>64.6</ele><time>2026-05-06T09:07:37.395Z</time></trkpt><trkpt lat="37.276629" lon="13.6468791"><ele>64.2</ele><time>2026-05-06T09:07:38.395Z</time></trkpt><trkpt lat="37.2766048" lon="13.6467507"><ele>63.8</ele><time>2026-05-06T09:07:39.394Z</time></trkpt><trkpt lat="37.2765883" lon="13.6466295"><ele>63.4</ele><time>2026-05-06T09:07:40.395Z</time></trkpt><trkpt lat="37.2765665" lon="13.6465063"><ele>63.0</ele><time>2026-05-06T09:07:41.395Z</time></trkpt><trkpt lat="37.2765439" lon="13.6463871"><ele>63.0</ele><time>2026-05-06T09:07:42.395Z</time></trkpt><trkpt lat="37.2765268" lon="13.6462735"><ele>63.0</ele><time>2026-05-06T09:07:43.395Z</time></trkpt><trkpt lat="37.2765132" lon="13.6461641"><ele>63.0</ele><time>2026-05-06T09:07:44.396Z</time></trkpt><trkpt lat="37.2764953" lon="13.6460565"><ele>63.0</ele><time>2026-05-06T09:07:45.395Z</time></trkpt><trkpt lat="37.276474" lon="13.6459574"><ele>63.0</ele><time>2026-05-06T09:07:46.396Z</time></trkpt><trkpt lat="37.2764458" lon="13.6458621"><ele>63.0</ele><time>2026-05-06T09:07:47.394Z</time></trkpt><trkpt lat="37.2764111" lon="13.6457748"><ele>62.0</ele><time>2026-05-06T09:07:48.395Z</time></trkpt><trkpt lat="37.2763716" lon="13.6456875"><ele>61.0</ele><time>2026-05-06T09:07:49.395Z</time></trkpt><trkpt lat="37.2763382" lon="13.6456015"><ele>60.0</ele><time>2026-05-06T09:07:50.395Z</time></trkpt><trkpt lat="37.2762998" lon="13.6455175"><ele>59.0</ele><time>2026-05-06T09:07:51.394Z</time></trkpt><trkpt lat="37.2762585" lon="13.6454347"><ele>58.0</ele><time>2026-05-06T09:07:52.395Z</time></trkpt><trkpt lat="37.2762192" lon="13.6453489"><ele>57.0</ele><time>2026-05-06T09:07:53.395Z</time></trkpt><trkpt lat="37.2761764" lon="13.6452661"><ele>56.71428571428571</ele><time>2026-05-06T09:07:54.395Z</time></trkpt><trkpt lat="37.2761353" lon="13.6451809"><ele>56.42857142857142</ele><time>2026-05-06T09:07:55.396Z</time></trkpt><trkpt lat="37.2760911" lon="13.6451056"><ele>56.14285714285714</ele><time>2026-05-06T09:07:56.394Z</time></trkpt><trkpt lat="37.2760502" lon="13.6450287"><ele>55.857142857142854</ele><time>2026-05-06T09:07:57.396Z</time></trkpt><trkpt lat="37.2760111" lon="13.6449528"><ele>55.57142857142857</ele><time>2026-05-06T09:07:58.394Z</time></trkpt><trkpt lat="37.275971" lon="13.6448781"><ele>55.28571428571428</ele><time>2026-05-06T09:07:59.394Z</time></trkpt><trkpt lat="37.2759324" lon="13.6447955"><ele>55.0</ele><time>2026-05-06T09:08:00.395Z</time></trkpt><trkpt lat="37.275881" lon="13.6446948"><ele>55.0</ele><time>2026-05-06T09:08:01.394Z</time></trkpt><trkpt lat="37.2758335" lon="13.644595"><ele>55.0</ele><time>2026-05-06T09:08:02.396Z</time></trkpt><trkpt lat="37.2757971" lon="13.6444962"><ele>55.0</ele><time>2026-05-06T09:08:03.395Z</time></trkpt><trkpt lat="37.2757637" lon="13.6443946"><ele>55.0</ele><time>2026-05-06T09:08:04.395Z</time></trkpt><trkpt lat="37.2757288" lon="13.6442792"><ele>55.0</ele><time>2026-05-06T09:08:05.395Z</time></trkpt><trkpt lat="37.2756982" lon="13.6441674"><ele>54.0</ele><time>2026-05-06T09:08:06.396Z</time></trkpt><trkpt lat="37.275668" lon="13.6440422"><ele>53.0</ele><time>2026-05-06T09:08:07.394Z</time></trkpt><trkpt lat="37.2756367" lon="13.6439091"><ele>52.0</ele><time>2026-05-06T09:08:08.396Z</time></trkpt><trkpt lat="37.2756036" lon="13.6437631"><ele>51.0</ele><time>2026-05-06T09:08:09.395Z</time></trkpt><trkpt lat="37.2755714" lon="13.6436262"><ele>50.0</ele><time>2026-05-06T09:08:10.394Z</time></trkpt><trkpt lat="37.2755359" lon="13.6435083"><ele>50.0</ele><time>2026-05-06T09:08:11.395Z</time></trkpt><trkpt lat="37.2755024" lon="13.6433803"><ele>50.0</ele><time>2026-05-06T09:08:12.394Z</time></trkpt><trkpt lat="37.2754707" lon="13.6432543"><ele>50.0</ele><time>2026-05-06T09:08:13.395Z</time></trkpt><trkpt lat="37.2754415" lon="13.6431264"><ele>50.0</ele><time>2026-05-06T09:08:14.396Z</time></trkpt><trkpt lat="37.2754209" lon="13.6430064"><ele>50.0</ele><time>2026-05-06T09:08:15.395Z</time></trkpt><trkpt lat="37.2754077" lon="13.6428773"><ele>51.0</ele><time>2026-05-06T09:08:16.395Z</time></trkpt><trkpt lat="37.2754025" lon="13.6427448"><ele>52.0</ele><time>2026-05-06T09:08:17.395Z</time></trkpt><trkpt lat="37.2753994" lon="13.6426101"><ele>53.0</ele><time>2026-05-06T09:08:18.395Z</time></trkpt><trkpt lat="37.275403" lon="13.6424656"><ele>54.0</ele><time>2026-05-06T09:08:19.395Z</time></trkpt><trkpt lat="37.2754029" lon="13.6423017"><ele>54.0</ele><time>2026-05-06T09:08:20.395Z</time></trkpt><trkpt lat="37.2754048" lon="13.642144"><ele>54.0</ele><time>2026-05-06T09:08:21.395Z</time></trkpt><trkpt lat="37.2754037" lon="13.6419997"><ele>54.0</ele><time>2026-05-06T09:08:22.395Z</time></trkpt><trkpt lat="37.2754" lon="13.6418508"><ele>54.0</ele><time>2026-05-06T09:08:23.394Z</time></trkpt><trkpt lat="37.2753963" lon="13.641718"><ele>54.400000000000006</ele><time>2026-05-06T09:08:24.395Z</time></trkpt><trkpt lat="37.2753962" lon="13.6415936"><ele>54.800000000000004</ele><time>2026-05-06T09:08:25.395Z</time></trkpt><trkpt lat="37.2753914" lon="13.6414803"><ele>55.199999999999996</ele><time>2026-05-06T09:08:26.395Z</time></trkpt><trkpt lat="37.2753896" lon="13.6413804"><ele>55.599999999999994</ele><time>2026-05-06T09:08:27.395Z</time></trkpt><trkpt lat="37.2753933" lon="13.6412448"><ele>56.0</ele><time>2026-05-06T09:08:29.395Z</time></trkpt><trkpt lat="37.2753983" lon="13.6411499"><ele>56.0</ele><time>2026-05-06T09:08:49.395Z</time></trkpt><trkpt lat="37.2754037" lon="13.6410629"><ele>55.99999999999999</ele><time>2026-05-06T09:09:36.396Z</time></trkpt><trkpt lat="37.2753773" lon="13.6411832"><ele>55.99999999999999</ele><time>2026-05-06T09:09:41.395Z</time></trkpt><trkpt lat="37.2753771" lon="13.6412816"><ele>56.0</ele><time>2026-05-06T09:09:42.395Z</time></trkpt><trkpt lat="37.2753768" lon="13.6414186"><ele>56.0</ele><time>2026-05-06T09:09:43.395Z</time></trkpt><trkpt lat="37.2753831" lon="13.6415893"><ele>56.0</ele><time>2026-05-06T09:09:44.395Z</time></trkpt><trkpt lat="37.2753844" lon="13.6417618"><ele>56.0</ele><time>2026-05-06T09:09:45.395Z</time></trkpt><trkpt lat="37.2753893" lon="13.6419166"><ele>56.0</ele><time>2026-05-06T09:09:46.394Z</time></trkpt><trkpt lat="37.2753947" lon="13.6420626"><ele>56.0</ele><time>2026-05-06T09:09:47.395Z</time></trkpt><trkpt lat="37.2753965" lon="13.6421932"><ele>55.599999999999994</ele><time>2026-05-06T09:09:48.395Z</time></trkpt><trkpt lat="37.2753935" lon="13.6423127"><ele>55.199999999999996</ele><time>2026-05-06T09:09:49.395Z</time></trkpt><trkpt lat="37.2754003" lon="13.6424293"><ele>54.800000000000004</ele><time>2026-05-06T09:09:50.394Z</time></trkpt><trkpt lat="37.2753979" lon="13.6425423"><ele>54.400000000000006</ele><time>2026-05-06T09:09:51.395Z</time></trkpt><trkpt lat="37.2753965" lon="13.6426565"><ele>54.0</ele><time>2026-05-06T09:09:52.395Z</time></trkpt><trkpt lat="37.2753957" lon="13.6427595"><ele>53.333333333333336</ele><time>2026-05-06T09:09:53.395Z</time></trkpt><trkpt lat="37.2753976" lon="13.6428582"><ele>52.66666666666667</ele><time>2026-05-06T09:09:54.395Z</time></trkpt><trkpt lat="37.2754119" lon="13.6429554"><ele>52.0</ele><time>2026-05-06T09:09:55.395Z</time></trkpt><trkpt lat="37.2754272" lon="13.6430543"><ele>51.333333333333336</ele><time>2026-05-06T09:09:56.394Z</time></trkpt><trkpt lat="37.2754449" lon="13.6431534"><ele>50.66666666666667</ele><time>2026-05-06T09:09:57.396Z</time></trkpt><trkpt lat="37.2754664" lon="13.6432452"><ele>50.0</ele><time>2026-05-06T09:09:58.395Z</time></trkpt><trkpt lat="37.275486" lon="13.6433304"><ele>50.00000000000001</ele><time>2026-05-06T09:09:59.395Z</time></trkpt><trkpt lat="37.2755224" lon="13.6434738"><ele>50.0</ele><time>2026-05-06T09:10:01.395Z</time></trkpt><trkpt lat="37.2755432" lon="13.6435523"><ele>50.0</ele><time>2026-05-06T09:10:02.394Z</time></trkpt><trkpt lat="37.2755628" lon="13.6436377"><ele>50.0</ele><time>2026-05-06T09:10:03.394Z</time></trkpt><trkpt lat="37.2755786" lon="13.6437251"><ele>50.00000000000001</ele><time>2026-05-06T09:10:04.395Z</time></trkpt><trkpt lat="37.2755974" lon="13.6438122"><ele>50.0</ele><time>2026-05-06T09:10:05.394Z</time></trkpt><trkpt lat="37.2756149" lon="13.6438908"><ele>51.0</ele><time>2026-05-06T09:10:06.394Z</time></trkpt><trkpt lat="37.2756338" lon="13.6439696"><ele>52.0</ele><time>2026-05-06T09:10:07.395Z</time></trkpt><trkpt lat="37.2756756" lon="13.6441128"><ele>53.0</ele><time>2026-05-06T09:10:09.395Z</time></trkpt><trkpt lat="37.2757108" lon="13.6442401"><ele>54.0</ele><time>2026-05-06T09:10:11.395Z</time></trkpt><trkpt lat="37.2757472" lon="13.6443757"><ele>55.0</ele><time>2026-05-06T09:10:13.396Z</time></trkpt><trkpt lat="37.2757889" lon="13.6445061"><ele>55.0</ele><time>2026-05-06T09:10:15.395Z</time></trkpt><trkpt lat="37.2758247" lon="13.6445858"><ele>55.0</ele><time>2026-05-06T09:10:16.394Z</time></trkpt><trkpt lat="37.2758847" lon="13.6447166"><ele>55.0</ele><time>2026-05-06T09:10:18.395Z</time></trkpt><trkpt lat="37.2759441" lon="13.6448519"><ele>55.0</ele><time>2026-05-06T09:10:20.395Z</time></trkpt><trkpt lat="37.2759777" lon="13.6449224"><ele>55.0</ele><time>2026-05-06T09:10:21.394Z</time></trkpt><trkpt lat="37.2760397" lon="13.6450491"><ele>55.0</ele><time>2026-05-06T09:10:23.395Z</time></trkpt><trkpt lat="37.2761082" lon="13.6451671"><ele>55.0</ele><time>2026-05-06T09:10:25.395Z</time></trkpt><trkpt lat="37.2761662" lon="13.6452818"><ele>55.0</ele><time>2026-05-06T09:10:27.394Z</time></trkpt><trkpt lat="37.2762265" lon="13.6453909"><ele>55.0</ele><time>2026-05-06T09:10:29.395Z</time></trkpt><trkpt lat="37.2762873" lon="13.6455054"><ele>55.0</ele><time>2026-05-06T09:10:31.394Z</time></trkpt><trkpt lat="37.276346" lon="13.6456408"><ele>55.33333333333333</ele><time>2026-05-06T09:10:33.394Z</time></trkpt><trkpt lat="37.2763756" lon="13.6457181"><ele>55.666666666666664</ele><time>2026-05-06T09:10:34.394Z</time></trkpt><trkpt lat="37.2764077" lon="13.6457931"><ele>56.0</ele><time>2026-05-06T09:10:35.395Z</time></trkpt><trkpt lat="37.2764333" lon="13.6458826"><ele>56.33333333333333</ele><time>2026-05-06T09:10:36.396Z</time></trkpt><trkpt lat="37.2764603" lon="13.6459858"><ele>56.666666666666664</ele><time>2026-05-06T09:10:37.395Z</time></trkpt><trkpt lat="37.2764784" lon="13.6460974"><ele>57.0</ele><time>2026-05-06T09:10:38.394Z</time></trkpt><trkpt lat="37.2765004" lon="13.6462402"><ele>58.5</ele><time>2026-05-06T09:10:39.396Z</time></trkpt><trkpt lat="37.27653" lon="13.6463946"><ele>60.0</ele><time>2026-05-06T09:10:40.396Z</time></trkpt><trkpt lat="37.2765577" lon="13.6465548"><ele>61.5</ele><time>2026-05-06T09:10:41.395Z</time></trkpt><trkpt lat="37.2765808" lon="13.6466963"><ele>63.0</ele><time>2026-05-06T09:10:42.395Z</time></trkpt><trkpt lat="37.2766063" lon="13.6468471"><ele>63.5</ele><time>2026-05-06T09:10:43.395Z</time></trkpt><trkpt lat="37.2766317" lon="13.6470046"><ele>64.0</ele><time>2026-05-06T09:10:44.395Z</time></trkpt><trkpt lat="37.2766539" lon="13.6471541"><ele>64.5</ele><time>2026-05-06T09:10:45.395Z</time></trkpt><trkpt lat="37.2766702" lon="13.6472941"><ele>65.0</ele><time>2026-05-06T09:10:46.396Z</time></trkpt><trkpt lat="37.2766884" lon="13.6474306"><ele>65.0</ele><time>2026-05-06T09:10:47.394Z</time></trkpt><trkpt lat="37.2767041" lon="13.6475736"><ele>65.0</ele><time>2026-05-06T09:10:48.395Z</time></trkpt><trkpt lat="37.2767148" lon="13.6477037"><ele>65.0</ele><time>2026-05-06T09:10:49.396Z</time></trkpt><trkpt lat="37.2767235" lon="13.6478309"><ele>65.0</ele><time>2026-05-06T09:10:50.396Z</time></trkpt><trkpt lat="37.2767278" lon="13.6479547"><ele>65.0</ele><time>2026-05-06T09:10:51.394Z</time></trkpt><trkpt lat="37.2767344" lon="13.6480688"><ele>64.8</ele><time>2026-05-06T09:10:52.394Z</time></trkpt><trkpt lat="37.2767362" lon="13.6481853"><ele>64.6</ele><time>2026-05-06T09:10:53.395Z</time></trkpt><trkpt lat="37.2767384" lon="13.648299"><ele>64.4</ele><time>2026-05-06T09:10:54.395Z</time></trkpt><trkpt lat="37.2767401" lon="13.6484139"><ele>64.2</ele><time>2026-05-06T09:10:55.396Z</time></trkpt><trkpt lat="37.2767414" lon="13.6485228"><ele>64.0</ele><time>2026-05-06T09:10:56.395Z</time></trkpt><trkpt lat="37.2767465" lon="13.6486429"><ele>63.33333333333333</ele><time>2026-05-06T09:10:57.395Z</time></trkpt><trkpt lat="37.2767458" lon="13.6487528"><ele>62.666666666666664</ele><time>2026-05-06T09:10:58.394Z</time></trkpt><trkpt lat="37.2767502" lon="13.6488587"><ele>62.0</ele><time>2026-05-06T09:10:59.394Z</time></trkpt><trkpt lat="37.2767539" lon="13.6489625"><ele>61.33333333333333</ele><time>2026-05-06T09:11:00.394Z</time></trkpt><trkpt lat="37.276753" lon="13.6490587"><ele>60.666666666666664</ele><time>2026-05-06T09:11:01.395Z</time></trkpt><trkpt lat="37.2767513" lon="13.6491555"><ele>60.0</ele><time>2026-05-06T09:11:02.395Z</time></trkpt><trkpt lat="37.2767536" lon="13.6492463"><ele>60.0</ele><time>2026-05-06T09:11:03.395Z</time></trkpt><trkpt lat="37.276762" lon="13.6493404"><ele>60.0</ele><time>2026-05-06T09:11:04.395Z</time></trkpt><trkpt lat="37.2767716" lon="13.6494371"><ele>60.0</ele><time>2026-05-06T09:11:05.395Z</time></trkpt><trkpt lat="37.2767784" lon="13.6495306"><ele>60.0</ele><time>2026-05-06T09:11:06.394Z</time></trkpt><trkpt lat="37.2767811" lon="13.6496299"><ele>60.0</ele><time>2026-05-06T09:11:07.394Z</time></trkpt><trkpt lat="37.2767828" lon="13.6497269"><ele>60.0</ele><time>2026-05-06T09:11:08.396Z</time></trkpt><trkpt lat="37.2767841" lon="13.6498236"><ele>60.333333333333336</ele><time>2026-05-06T09:11:09.395Z</time></trkpt><trkpt lat="37.2767879" lon="13.6499304"><ele>60.66666666666667</ele><time>2026-05-06T09:11:10.395Z</time></trkpt><trkpt lat="37.2767959" lon="13.6500314"><ele>61.0</ele><time>2026-05-06T09:11:11.396Z</time></trkpt><trkpt lat="37.2767965" lon="13.650123"><ele>61.333333333333336</ele><time>2026-05-06T09:11:12.394Z</time></trkpt><trkpt lat="37.2768015" lon="13.6502111"><ele>61.66666666666667</ele><time>2026-05-06T09:11:13.394Z</time></trkpt><trkpt lat="37.2768072" lon="13.6502917"><ele>62.0</ele><time>2026-05-06T09:11:14.396Z</time></trkpt><trkpt lat="37.2768221" lon="13.6504561"><ele>62.333333333333336</ele><time>2026-05-06T09:11:16.395Z</time></trkpt><trkpt lat="37.2768291" lon="13.65055"><ele>62.66666666666667</ele><time>2026-05-06T09:11:17.395Z</time></trkpt><trkpt lat="37.2768379" lon="13.6506472"><ele>63.0</ele><time>2026-05-06T09:11:18.394Z</time></trkpt><trkpt lat="37.27684" lon="13.6507668"><ele>63.33333333333333</ele><time>2026-05-06T09:11:19.394Z</time></trkpt><trkpt lat="37.2768314" lon="13.6508896"><ele>63.666666666666664</ele><time>2026-05-06T09:11:20.395Z</time></trkpt><trkpt lat="37.2768153" lon="13.6510076"><ele>64.0</ele><time>2026-05-06T09:11:21.394Z</time></trkpt><trkpt lat="37.2767832" lon="13.6511423"><ele>64.0</ele><time>2026-05-06T09:11:22.395Z</time></trkpt><trkpt lat="37.2767415" lon="13.6512697"><ele>64.0</ele><time>2026-05-06T09:11:23.396Z</time></trkpt><trkpt lat="37.2766852" lon="13.6513851"><ele>64.0</ele><time>2026-05-06T09:11:24.394Z</time></trkpt><trkpt lat="37.2766166" lon="13.6515047"><ele>64.0</ele><time>2026-05-06T09:11:25.394Z</time></trkpt><trkpt lat="37.2765282" lon="13.6516044"><ele>63.400000000000006</ele><time>2026-05-06T09:11:26.395Z</time></trkpt><trkpt lat="37.2764326" lon="13.6516913"><ele>62.800000000000004</ele><time>2026-05-06T09:11:27.394Z</time></trkpt><trkpt lat="37.2763311" lon="13.6517681"><ele>62.199999999999996</ele><time>2026-05-06T09:11:28.395Z</time></trkpt><trkpt lat="37.2762316" lon="13.6518287"><ele>61.599999999999994</ele><time>2026-05-06T09:11:29.395Z</time></trkpt><trkpt lat="37.2761381" lon="13.6518802"><ele>61.0</ele><time>2026-05-06T09:11:30.395Z</time></trkpt><trkpt lat="37.2760524" lon="13.6519279"><ele>61.33333333333333</ele><time>2026-05-06T09:11:31.394Z</time></trkpt><trkpt lat="37.2759707" lon="13.6519831"><ele>61.666666666666664</ele><time>2026-05-06T09:11:32.395Z</time></trkpt><trkpt lat="37.2758962" lon="13.6520427"><ele>62.0</ele><time>2026-05-06T09:11:33.395Z</time></trkpt><trkpt lat="37.2758496" lon="13.6521146"><ele>62.33333333333333</ele><time>2026-05-06T09:11:34.394Z</time></trkpt><trkpt lat="37.2758" lon="13.652185"><ele>62.666666666666664</ele><time>2026-05-06T09:11:35.395Z</time></trkpt><trkpt lat="37.2757639" lon="13.6522787"><ele>63.0</ele><time>2026-05-06T09:11:36.396Z</time></trkpt><trkpt lat="37.2757203" lon="13.6523825"><ele>63.0</ele><time>2026-05-06T09:11:37.395Z</time></trkpt><trkpt lat="37.2756631" lon="13.6525106"><ele>63.0</ele><time>2026-05-06T09:11:38.394Z</time></trkpt><trkpt lat="37.2756154" lon="13.6526228"><ele>63.0</ele><time>2026-05-06T09:11:39.394Z</time></trkpt><trkpt lat="37.2755692" lon="13.652725"><ele>63.0</ele><time>2026-05-06T09:11:40.394Z</time></trkpt><trkpt lat="37.2755177" lon="13.6528203"><ele>63.0</ele><time>2026-05-06T09:11:41.396Z</time></trkpt><trkpt lat="37.2754704" lon="13.6529068"><ele>62.8</ele><time>2026-05-06T09:11:42.395Z</time></trkpt><trkpt lat="37.2754142" lon="13.6529864"><ele>62.599999999999994</ele><time>2026-05-06T09:11:43.396Z</time></trkpt><trkpt lat="37.2753496" lon="13.65306"><ele>62.400000000000006</ele><time>2026-05-06T09:11:44.394Z</time></trkpt><trkpt lat="37.2752693" lon="13.6531304"><ele>62.2</ele><time>2026-05-06T09:11:45.394Z</time></trkpt><trkpt lat="37.2751885" lon="13.6531972"><ele>62.0</ele><time>2026-05-06T09:11:46.395Z</time></trkpt><trkpt lat="37.2751061" lon="13.6532681"><ele>62.00000000000001</ele><time>2026-05-06T09:11:47.395Z</time></trkpt><trkpt lat="37.2750225" lon="13.6533409"><ele>62.0</ele><time>2026-05-06T09:11:48.395Z</time></trkpt><trkpt lat="37.2749485" lon="13.6534029"><ele>62.0</ele><time>2026-05-06T09:11:49.394Z</time></trkpt><trkpt lat="37.2748823" lon="13.6534709"><ele>62.0</ele><time>2026-05-06T09:11:50.394Z</time></trkpt><trkpt lat="37.2748237" lon="13.6535431"><ele>62.00000000000001</ele><time>2026-05-06T09:11:51.394Z</time></trkpt><trkpt lat="37.2747795" lon="13.6536234"><ele>62.0</ele><time>2026-05-06T09:11:52.395Z</time></trkpt><trkpt lat="37.2747349" lon="13.6537027"><ele>62.833333333333336</ele><time>2026-05-06T09:11:53.394Z</time></trkpt><trkpt lat="37.2746979" lon="13.653795"><ele>63.66666666666667</ele><time>2026-05-06T09:11:54.394Z</time></trkpt><trkpt lat="37.2746732" lon="13.6538842"><ele>64.5</ele><time>2026-05-06T09:11:55.394Z</time></trkpt><trkpt lat="37.2746494" lon="13.6539671"><ele>65.33333333333333</ele><time>2026-05-06T09:11:56.395Z</time></trkpt><trkpt lat="37.2746312" lon="13.6540444"><ele>66.16666666666666</ele><time>2026-05-06T09:11:57.394Z</time></trkpt><trkpt lat="37.2746036" lon="13.6541964"><ele>67.0</ele><time>2026-05-06T09:11:59.394Z</time></trkpt><trkpt lat="37.2745838" lon="13.6542809"><ele>67.0</ele><time>2026-05-06T09:12:00.395Z</time></trkpt><trkpt lat="37.2745546" lon="13.6543618"><ele>67.0</ele><time>2026-05-06T09:12:01.395Z</time></trkpt><trkpt lat="37.2745145" lon="13.6544567"><ele>67.0</ele><time>2026-05-06T09:12:02.394Z</time></trkpt><trkpt lat="37.2744735" lon="13.6545484"><ele>67.0</ele><time>2026-05-06T09:12:03.394Z</time></trkpt><trkpt lat="37.2744367" lon="13.6546274"><ele>67.0</ele><time>2026-05-06T09:12:04.395Z</time></trkpt><trkpt lat="37.2744089" lon="13.6547013"><ele>67.0</ele><time>2026-05-06T09:12:05.394Z</time></trkpt><trkpt lat="37.2743716" lon="13.6547848"><ele>67.0</ele><time>2026-05-06T09:12:06.394Z</time></trkpt><trkpt lat="37.274331" lon="13.6548797"><ele>67.0</ele><time>2026-05-06T09:12:07.394Z</time></trkpt><trkpt lat="37.2742837" lon="13.654978"><ele>67.0</ele><time>2026-05-06T09:12:08.395Z</time></trkpt><trkpt lat="37.2742329" lon="13.6550802"><ele>67.0</ele><time>2026-05-06T09:12:09.394Z</time></trkpt><trkpt lat="37.2741702" lon="13.6551954"><ele>67.0</ele><time>2026-05-06T09:12:10.394Z</time></trkpt><trkpt lat="37.2741095" lon="13.6553242"><ele>67.2</ele><time>2026-05-06T09:12:11.395Z</time></trkpt><trkpt lat="37.2740471" lon="13.6554531"><ele>67.4</ele><time>2026-05-06T09:12:12.394Z</time></trkpt><trkpt lat="37.2739914" lon="13.6555739"><ele>67.6</ele><time>2026-05-06T09:12:13.395Z</time></trkpt><trkpt lat="37.273932" lon="13.6556886"><ele>67.8</ele><time>2026-05-06T09:12:14.395Z</time></trkpt><trkpt lat="37.2738771" lon="13.6557982"><ele>68.0</ele><time>2026-05-06T09:12:15.394Z</time></trkpt><trkpt lat="37.2738221" lon="13.6559178"><ele>68.6</ele><time>2026-05-06T09:12:16.395Z</time></trkpt><trkpt lat="37.2737664" lon="13.65603"><ele>69.19999999999999</ele><time>2026-05-06T09:12:17.394Z</time></trkpt><trkpt lat="37.2737066" lon="13.656147"><ele>69.8</ele><time>2026-05-06T09:12:18.395Z</time></trkpt><trkpt lat="37.2736552" lon="13.656258"><ele>70.39999999999999</ele><time>2026-05-06T09:12:19.394Z</time></trkpt><trkpt lat="37.2736015" lon="13.6563652"><ele>71.0</ele><time>2026-05-06T09:12:20.395Z</time></trkpt><trkpt lat="37.2735638" lon="13.6564723"><ele>71.33333333333334</ele><time>2026-05-06T09:12:21.394Z</time></trkpt><trkpt lat="37.2735241" lon="13.6565698"><ele>71.66666666666667</ele><time>2026-05-06T09:12:22.395Z</time></trkpt><trkpt lat="37.2735027" lon="13.6566772"><ele>72.0</ele><time>2026-05-06T09:12:23.395Z</time></trkpt><trkpt lat="37.2734842" lon="13.6567885"><ele>72.33333333333333</ele><time>2026-05-06T09:12:24.394Z</time></trkpt><trkpt lat="37.273459" lon="13.6568954"><ele>72.66666666666666</ele><time>2026-05-06T09:12:25.395Z</time></trkpt><trkpt lat="37.2734366" lon="13.657009"><ele>73.0</ele><time>2026-05-06T09:12:26.395Z</time></trkpt><trkpt lat="37.2734191" lon="13.6571207"><ele>73.33333333333333</ele><time>2026-05-06T09:12:27.395Z</time></trkpt><trkpt lat="37.2734001" lon="13.6572365"><ele>73.66666666666666</ele><time>2026-05-06T09:12:28.394Z</time></trkpt><trkpt lat="37.2733879" lon="13.6573455"><ele>74.0</ele><time>2026-05-06T09:12:29.394Z</time></trkpt><trkpt lat="37.2733735" lon="13.657444"><ele>74.33333333333333</ele><time>2026-05-06T09:12:30.395Z</time></trkpt><trkpt lat="37.2733611" lon="13.6575272"><ele>74.66666666666667</ele><time>2026-05-06T09:12:31.394Z</time></trkpt><trkpt lat="37.2733353" lon="13.6576594"><ele>75.0</ele><time>2026-05-06T09:12:33.395Z</time></trkpt><trkpt lat="37.2733127" lon="13.6577899"><ele>75.71428571428571</ele><time>2026-05-06T09:12:35.396Z</time></trkpt><trkpt lat="37.2733088" lon="13.6578701"><ele>76.42857142857143</ele><time>2026-05-06T09:12:36.396Z</time></trkpt><trkpt lat="37.2733126" lon="13.6579548"><ele>77.14285714285714</ele><time>2026-05-06T09:12:37.394Z</time></trkpt><trkpt lat="37.2733212" lon="13.658045"><ele>77.85714285714286</ele><time>2026-05-06T09:12:38.394Z</time></trkpt><trkpt lat="37.2733493" lon="13.6581373"><ele>78.57142857142857</ele><time>2026-05-06T09:12:39.395Z</time></trkpt><trkpt lat="37.2733831" lon="13.6582269"><ele>79.28571428571428</ele><time>2026-05-06T09:12:40.395Z</time></trkpt><trkpt lat="37.2734189" lon="13.6583044"><ele>80.0</ele><time>2026-05-06T09:12:41.394Z</time></trkpt><trkpt lat="37.2734735" lon="13.6584007"><ele>80.0</ele><time>2026-05-06T09:12:42.396Z</time></trkpt><trkpt lat="37.2735143" lon="13.6584923"><ele>80.0</ele><time>2026-05-06T09:12:43.394Z</time></trkpt><trkpt lat="37.2735543" lon="13.6585887"><ele>80.0</ele><time>2026-05-06T09:12:44.395Z</time></trkpt><trkpt lat="37.2735885" lon="13.6586965"><ele>80.0</ele><time>2026-05-06T09:12:45.394Z</time></trkpt><trkpt lat="37.2736197" lon="13.6588036"><ele>80.0</ele><time>2026-05-06T09:12:46.395Z</time></trkpt><trkpt lat="37.2736261" lon="13.6589226"><ele>80.0</ele><time>2026-05-06T09:12:47.395Z</time></trkpt><trkpt lat="37.2736341" lon="13.6590336"><ele>81.0</ele><time>2026-05-06T09:12:48.395Z</time></trkpt><trkpt lat="37.2736263" lon="13.6591615"><ele>82.0</ele><time>2026-05-06T09:12:49.396Z</time></trkpt><trkpt lat="37.2736223" lon="13.6592876"><ele>83.0</ele><time>2026-05-06T09:12:50.394Z</time></trkpt><trkpt lat="37.2736165" lon="13.6594039"><ele>84.0</ele><time>2026-05-06T09:12:51.395Z</time></trkpt><trkpt lat="37.2736124" lon="13.6594999"><ele>85.0</ele><time>2026-05-06T09:12:52.395Z</time></trkpt><trkpt lat="37.2735979" lon="13.659606"><ele>85.0</ele><time>2026-05-06T09:12:53.395Z</time></trkpt><trkpt lat="37.2735858" lon="13.6597212"><ele>85.0</ele><time>2026-05-06T09:12:54.394Z</time></trkpt><trkpt lat="37.2735764" lon="13.6598603"><ele>85.0</ele><time>2026-05-06T09:12:55.394Z</time></trkpt><trkpt lat="37.273566" lon="13.6599815"><ele>85.0</ele><time>2026-05-06T09:12:56.395Z</time></trkpt><trkpt lat="37.2735573" lon="13.6600962"><ele>85.0</ele><time>2026-05-06T09:12:57.394Z</time></trkpt><trkpt lat="37.2735507" lon="13.6602057"><ele>85.16666666666666</ele><time>2026-05-06T09:12:58.394Z</time></trkpt><trkpt lat="37.2735431" lon="13.6603232"><ele>85.33333333333333</ele><time>2026-05-06T09:12:59.394Z</time></trkpt><trkpt lat="37.2735329" lon="13.6604468"><ele>85.5</ele><time>2026-05-06T09:13:00.394Z</time></trkpt><trkpt lat="37.2735226" lon="13.660558"><ele>85.66666666666667</ele><time>2026-05-06T09:13:01.394Z</time></trkpt><trkpt lat="37.273513" lon="13.6606611"><ele>85.83333333333334</ele><time>2026-05-06T09:13:02.394Z</time></trkpt><trkpt lat="37.2734943" lon="13.6607533"><ele>86.0</ele><time>2026-05-06T09:13:03.395Z</time></trkpt><trkpt lat="37.2734818" lon="13.660836"><ele>86.0</ele><time>2026-05-06T09:13:04.394Z</time></trkpt><trkpt lat="37.27346" lon="13.6609537"><ele>86.0</ele><time>2026-05-06T09:13:06.394Z</time></trkpt><trkpt lat="37.2734986" lon="13.6608473"><ele>86.0</ele><time>2026-05-06T09:13:12.395Z</time></trkpt><trkpt lat="37.2735032" lon="13.6607526"><ele>86.0</ele><time>2026-05-06T09:13:13.396Z</time></trkpt><trkpt lat="37.2735096" lon="13.6606651"><ele>86.0</ele><time>2026-05-06T09:13:14.394Z</time></trkpt><trkpt lat="37.2735182" lon="13.6605844"><ele>86.0</ele><time>2026-05-06T09:13:15.395Z</time></trkpt><trkpt lat="37.2735335" lon="13.6604593"><ele>86.0</ele><time>2026-05-06T09:13:17.395Z</time></trkpt><trkpt lat="37.2734545" lon="13.6604076"><ele>86.0</ele><time>2026-05-06T09:13:20.394Z</time></trkpt><trkpt lat="37.2733694" lon="13.6604098"><ele>86.0</ele><time>2026-05-06T09:13:22.394Z</time></trkpt><trkpt lat="37.2732497" lon="13.6604275"><ele>86.0</ele><time>2026-05-06T09:13:24.395Z</time></trkpt><trkpt lat="37.2731837" lon="13.6604386"><ele>86.0</ele><time>2026-05-06T09:13:25.395Z</time></trkpt><trkpt lat="37.2731106" lon="13.6604591"><ele>86.0</ele><time>2026-05-06T09:13:26.394Z</time></trkpt><trkpt lat="37.2730265" lon="13.6604755"><ele>88.0</ele><time>2026-05-06T09:13:27.394Z</time></trkpt><trkpt lat="37.2729478" lon="13.6604974"><ele>90.0</ele><time>2026-05-06T09:13:28.394Z</time></trkpt><trkpt lat="37.2728621" lon="13.6605341"><ele>92.0</ele><time>2026-05-06T09:13:29.395Z</time></trkpt><trkpt lat="37.2727835" lon="13.660581"><ele>94.0</ele><time>2026-05-06T09:13:30.395Z</time></trkpt><trkpt lat="37.2727071" lon="13.6606349"><ele>95.99999999999999</ele><time>2026-05-06T09:13:31.394Z</time></trkpt><trkpt lat="37.2726322" lon="13.6606796"><ele>98.0</ele><time>2026-05-06T09:13:32.395Z</time></trkpt><trkpt lat="37.2725522" lon="13.6607026"><ele>98.0</ele><time>2026-05-06T09:13:33.395Z</time></trkpt><trkpt lat="37.2724639" lon="13.6607104"><ele>98.0</ele><time>2026-05-06T09:13:34.395Z</time></trkpt><trkpt lat="37.2723709" lon="13.6607205"><ele>98.0</ele><time>2026-05-06T09:13:35.394Z</time></trkpt><trkpt lat="37.2722749" lon="13.6607237"><ele>98.0</ele><time>2026-05-06T09:13:36.395Z</time></trkpt><trkpt lat="37.2721617" lon="13.6607336"><ele>98.0</ele><time>2026-05-06T09:13:37.394Z</time></trkpt><trkpt lat="37.2720624" lon="13.6607507"><ele>101.0</ele><time>2026-05-06T09:13:38.394Z</time></trkpt><trkpt lat="37.2719542" lon="13.6607648"><ele>104.0</ele><time>2026-05-06T09:13:39.395Z</time></trkpt><trkpt lat="37.2718569" lon="13.6607871"><ele>107.00000000000001</ele><time>2026-05-06T09:13:40.395Z</time></trkpt><trkpt lat="37.2717554" lon="13.6608075"><ele>110.0</ele><time>2026-05-06T09:13:41.394Z</time></trkpt><trkpt lat="37.2716545" lon="13.6608215"><ele>113.0</ele><time>2026-05-06T09:13:42.395Z</time></trkpt><trkpt lat="37.271553" lon="13.6608309"><ele>113.0</ele><time>2026-05-06T09:13:43.394Z</time></trkpt><trkpt lat="37.2714539" lon="13.6608466"><ele>113.00000000000001</ele><time>2026-05-06T09:13:44.394Z</time></trkpt><trkpt lat="37.2713603" lon="13.6608731"><ele>113.00000000000001</ele><time>2026-05-06T09:13:45.394Z</time></trkpt><trkpt lat="37.2712661" lon="13.6609231"><ele>113.0</ele><time>2026-05-06T09:13:46.394Z</time></trkpt><trkpt lat="37.2711714" lon="13.660957"><ele>113.0</ele><time>2026-05-06T09:13:47.394Z</time></trkpt><trkpt lat="37.2710687" lon="13.6609779"><ele>116.2</ele><time>2026-05-06T09:13:48.395Z</time></trkpt><trkpt lat="37.270969" lon="13.6610057"><ele>119.4</ele><time>2026-05-06T09:13:49.395Z</time></trkpt><trkpt lat="37.2708693" lon="13.6610275"><ele>122.60000000000001</ele><time>2026-05-06T09:13:50.395Z</time></trkpt><trkpt lat="37.2707703" lon="13.6610604"><ele>125.80000000000001</ele><time>2026-05-06T09:13:51.394Z</time></trkpt><trkpt lat="37.2706747" lon="13.661101"><ele>129.0</ele><time>2026-05-06T09:13:52.395Z</time></trkpt><trkpt lat="37.2705803" lon="13.6611441"><ele>132.66666666666666</ele><time>2026-05-06T09:13:53.394Z</time></trkpt><trkpt lat="37.2704957" lon="13.6611897"><ele>136.33333333333334</ele><time>2026-05-06T09:13:54.394Z</time></trkpt><trkpt lat="37.270409" lon="13.661239"><ele>140.0</ele><time>2026-05-06T09:13:55.395Z</time></trkpt><trkpt lat="37.2703323" lon="13.661293"><ele>143.66666666666669</ele><time>2026-05-06T09:13:56.394Z</time></trkpt><trkpt lat="37.2702896" lon="13.6613787"><ele>147.33333333333334</ele><time>2026-05-06T09:13:57.395Z</time></trkpt><trkpt lat="37.270243" lon="13.6614711"><ele>151.0</ele><time>2026-05-06T09:13:58.394Z</time></trkpt><trkpt lat="37.2701874" lon="13.6615794"><ele>151.0</ele><time>2026-05-06T09:13:59.394Z</time></trkpt><trkpt lat="37.2701242" lon="13.6616813"><ele>151.0</ele><time>2026-05-06T09:14:00.394Z</time></trkpt><trkpt lat="37.2700537" lon="13.6617776"><ele>151.0</ele><time>2026-05-06T09:14:01.395Z</time></trkpt><trkpt lat="37.2699777" lon="13.661852"><ele>151.0</ele><time>2026-05-06T09:14:02.394Z</time></trkpt><trkpt lat="37.2698973" lon="13.6619088"><ele>151.0</ele><time>2026-05-06T09:14:03.395Z</time></trkpt><trkpt lat="37.269817" lon="13.6619563"><ele>153.16666666666669</ele><time>2026-05-06T09:14:04.394Z</time></trkpt><trkpt lat="37.2697341" lon="13.662"><ele>155.33333333333334</ele><time>2026-05-06T09:14:05.395Z</time></trkpt><trkpt lat="37.2696538" lon="13.6620294"><ele>157.5</ele><time>2026-05-06T09:14:06.395Z</time></trkpt><trkpt lat="37.2695809" lon="13.6620515"><ele>159.66666666666666</ele><time>2026-05-06T09:14:07.394Z</time></trkpt><trkpt lat="37.269503" lon="13.662072"><ele>161.83333333333331</ele><time>2026-05-06T09:14:08.394Z</time></trkpt><trkpt lat="37.2694278" lon="13.6620991"><ele>164.0</ele><time>2026-05-06T09:14:09.395Z</time></trkpt><trkpt lat="37.269356" lon="13.6621352"><ele>164.0</ele><time>2026-05-06T09:14:10.395Z</time></trkpt><trkpt lat="37.2692877" lon="13.6621854"><ele>164.0</ele><time>2026-05-06T09:14:11.394Z</time></trkpt><trkpt lat="37.2692225" lon="13.6622412"><ele>164.0</ele><time>2026-05-06T09:14:12.395Z</time></trkpt><trkpt lat="37.2691638" lon="13.6622982"><ele>164.0</ele><time>2026-05-06T09:14:13.394Z</time></trkpt><trkpt lat="37.2690982" lon="13.6623548"><ele>164.0</ele><time>2026-05-06T09:14:14.394Z</time></trkpt><trkpt lat="37.2690314" lon="13.6624064"><ele>164.0</ele><time>2026-05-06T09:14:15.394Z</time></trkpt><trkpt lat="37.2689611" lon="13.6624564"><ele>164.79999999999998</ele><time>2026-05-06T09:14:16.395Z</time></trkpt><trkpt lat="37.2688668" lon="13.6624903"><ele>165.6</ele><time>2026-05-06T09:14:17.395Z</time></trkpt><trkpt lat="37.2687678" lon="13.6625126"><ele>166.4</ele><time>2026-05-06T09:14:18.394Z</time></trkpt><trkpt lat="37.2686599" lon="13.6625153"><ele>167.2</ele><time>2026-05-06T09:14:19.394Z</time></trkpt><trkpt lat="37.2685756" lon="13.6625234"><ele>168.0</ele><time>2026-05-06T09:14:20.394Z</time></trkpt><trkpt lat="37.2684931" lon="13.6625234"><ele>168.0</ele><time>2026-05-06T09:14:21.394Z</time></trkpt><trkpt lat="37.2684213" lon="13.6625237"><ele>168.0</ele><time>2026-05-06T09:14:22.395Z</time></trkpt><trkpt lat="37.2683564" lon="13.6625187"><ele>168.0</ele><time>2026-05-06T09:14:23.394Z</time></trkpt><trkpt lat="37.2682334" lon="13.6624999"><ele>168.0</ele><time>2026-05-06T09:14:25.394Z</time></trkpt><trkpt lat="37.2681081" lon="13.6624649"><ele>168.0</ele><time>2026-05-06T09:14:27.394Z</time></trkpt><trkpt lat="37.2680443" lon="13.662451"><ele>166.60000000000002</ele><time>2026-05-06T09:14:28.394Z</time></trkpt><trkpt lat="37.267982" lon="13.6624388"><ele>165.20000000000002</ele><time>2026-05-06T09:14:29.395Z</time></trkpt><trkpt lat="37.267867" lon="13.6624309"><ele>163.8</ele><time>2026-05-06T09:14:31.395Z</time></trkpt><trkpt lat="37.2677566" lon="13.662408"><ele>162.4</ele><time>2026-05-06T09:14:33.394Z</time></trkpt><trkpt lat="37.2676939" lon="13.6624155"><ele>161.0</ele><time>2026-05-06T09:14:34.394Z</time></trkpt><trkpt lat="37.2675773" lon="13.662447"><ele>161.0</ele><time>2026-05-06T09:14:36.394Z</time></trkpt><trkpt lat="37.2675095" lon="13.6624607"><ele>161.0</ele><time>2026-05-06T09:14:37.394Z</time></trkpt><trkpt lat="37.2674452" lon="13.6624758"><ele>161.0</ele><time>2026-05-06T09:14:38.395Z</time></trkpt><trkpt lat="37.2673245" lon="13.6624985"><ele>161.0</ele><time>2026-05-06T09:14:40.395Z</time></trkpt><trkpt lat="37.2672613" lon="13.6625071"><ele>161.0</ele><time>2026-05-06T09:14:41.394Z</time></trkpt><trkpt lat="37.2671956" lon="13.6625114"><ele>161.0</ele><time>2026-05-06T09:14:42.395Z</time></trkpt><trkpt lat="37.2671304" lon="13.6624972"><ele>159.33333333333331</ele><time>2026-05-06T09:14:43.394Z</time></trkpt><trkpt lat="37.267009" lon="13.6624557"><ele>157.66666666666666</ele><time>2026-05-06T09:14:45.394Z</time></trkpt><trkpt lat="37.2669451" lon="13.6624304"><ele>156.0</ele><time>2026-05-06T09:14:46.394Z</time></trkpt><trkpt lat="37.2668788" lon="13.6624019"><ele>154.33333333333334</ele><time>2026-05-06T09:14:47.394Z</time></trkpt><trkpt lat="37.2668094" lon="13.6623716"><ele>152.66666666666669</ele><time>2026-05-06T09:14:48.395Z</time></trkpt><trkpt lat="37.2667326" lon="13.6623397"><ele>151.0</ele><time>2026-05-06T09:14:49.394Z</time></trkpt><trkpt lat="37.2666545" lon="13.6623151"><ele>151.00000000000003</ele><time>2026-05-06T09:14:50.394Z</time></trkpt><trkpt lat="37.26658" lon="13.6622844"><ele>151.0</ele><time>2026-05-06T09:14:51.394Z</time></trkpt><trkpt lat="37.2665102" lon="13.6622475"><ele>151.0</ele><time>2026-05-06T09:14:52.395Z</time></trkpt><trkpt lat="37.2664429" lon="13.6622213"><ele>151.0</ele><time>2026-05-06T09:14:53.394Z</time></trkpt><trkpt lat="37.266381" lon="13.6621938"><ele>151.0</ele><time>2026-05-06T09:14:54.395Z</time></trkpt><trkpt lat="37.2663156" lon="13.6621697"><ele>151.00000000000003</ele><time>2026-05-06T09:14:55.395Z</time></trkpt><trkpt lat="37.266243" lon="13.6621527"><ele>151.0</ele><time>2026-05-06T09:14:56.395Z</time></trkpt><trkpt lat="37.2661735" lon="13.6621452"><ele>149.0</ele><time>2026-05-06T09:14:57.394Z</time></trkpt><trkpt lat="37.2661017" lon="13.6621359"><ele>147.0</ele><time>2026-05-06T09:14:58.396Z</time></trkpt><trkpt lat="37.2660271" lon="13.6621256"><ele>145.0</ele><time>2026-05-06T09:14:59.394Z</time></trkpt><trkpt lat="37.2659113" lon="13.6620898"><ele>143.0</ele><time>2026-05-06T09:15:01.396Z</time></trkpt><trkpt lat="37.2658059" lon="13.6620125"><ele>141.0</ele><time>2026-05-06T09:15:03.394Z</time></trkpt><trkpt lat="37.2657629" lon="13.6619414"><ele>139.42857142857144</ele><time>2026-05-06T09:15:04.394Z</time></trkpt><trkpt lat="37.2657243" lon="13.661856"><ele>137.85714285714286</ele><time>2026-05-06T09:15:05.395Z</time></trkpt><trkpt lat="37.265689" lon="13.661767"><ele>136.28571428571428</ele><time>2026-05-06T09:15:06.394Z</time></trkpt><trkpt lat="37.2656605" lon="13.6616739"><ele>134.71428571428572</ele><time>2026-05-06T09:15:07.395Z</time></trkpt><trkpt lat="37.2656337" lon="13.6615828"><ele>133.14285714285714</ele><time>2026-05-06T09:15:08.395Z</time></trkpt><trkpt lat="37.2656156" lon="13.6615047"><ele>131.57142857142858</ele><time>2026-05-06T09:15:09.394Z</time></trkpt><trkpt lat="37.2656106" lon="13.661425"><ele>130.0</ele><time>2026-05-06T09:15:10.394Z</time></trkpt><trkpt lat="37.2656217" lon="13.6613445"><ele>130.0</ele><time>2026-05-06T09:15:11.395Z</time></trkpt><trkpt lat="37.2656712" lon="13.6611914"><ele>130.0</ele><time>2026-05-06T09:15:13.394Z</time></trkpt><trkpt lat="37.2657093" lon="13.6611169"><ele>130.0</ele><time>2026-05-06T09:15:14.395Z</time></trkpt><trkpt lat="37.2657554" lon="13.6610346"><ele>130.0</ele><time>2026-05-06T09:15:15.394Z</time></trkpt><trkpt lat="37.2658004" lon="13.660953"><ele>130.0</ele><time>2026-05-06T09:15:16.395Z</time></trkpt><trkpt lat="37.2658382" lon="13.6608732"><ele>130.0</ele><time>2026-05-06T09:15:17.394Z</time></trkpt><trkpt lat="37.2658754" lon="13.6607877"><ele>129.33333333333334</ele><time>2026-05-06T09:15:18.394Z</time></trkpt><trkpt lat="37.26591" lon="13.6606907"><ele>128.66666666666669</ele><time>2026-05-06T09:15:19.395Z</time></trkpt><trkpt lat="37.2659376" lon="13.6605917"><ele>128.0</ele><time>2026-05-06T09:15:20.394Z</time></trkpt><trkpt lat="37.2659634" lon="13.6604974"><ele>127.33333333333334</ele><time>2026-05-06T09:15:21.395Z</time></trkpt><trkpt lat="37.2659873" lon="13.6604046"><ele>126.66666666666667</ele><time>2026-05-06T09:15:22.395Z</time></trkpt><trkpt lat="37.2660127" lon="13.6603208"><ele>126.0</ele><time>2026-05-06T09:15:23.394Z</time></trkpt><trkpt lat="37.2660474" lon="13.6602318"><ele>126.0</ele><time>2026-05-06T09:15:24.394Z</time></trkpt><trkpt lat="37.2660895" lon="13.6601497"><ele>126.0</ele><time>2026-05-06T09:15:25.394Z</time></trkpt><trkpt lat="37.2661393" lon="13.6600649"><ele>126.0</ele><time>2026-05-06T09:15:26.394Z</time></trkpt><trkpt lat="37.2661854" lon="13.6599703"><ele>126.0</ele><time>2026-05-06T09:15:27.394Z</time></trkpt><trkpt lat="37.2662375" lon="13.6598699"><ele>126.0</ele><time>2026-05-06T09:15:28.394Z</time></trkpt><trkpt lat="37.2662838" lon="13.6597776"><ele>126.0</ele><time>2026-05-06T09:15:29.394Z</time></trkpt><trkpt lat="37.266326" lon="13.6596959"><ele>126.0</ele><time>2026-05-06T09:15:30.395Z</time></trkpt><trkpt lat="37.2663749" lon="13.6596164"><ele>126.0</ele><time>2026-05-06T09:15:31.395Z</time></trkpt><trkpt lat="37.2664156" lon="13.6595318"><ele>126.0</ele><time>2026-05-06T09:15:32.394Z</time></trkpt><trkpt lat="37.2664542" lon="13.6594518"><ele>126.0</ele><time>2026-05-06T09:15:33.394Z</time></trkpt><trkpt lat="37.2664893" lon="13.6593752"><ele>126.0</ele><time>2026-05-06T09:15:34.394Z</time></trkpt><trkpt lat="37.2665259" lon="13.6592944"><ele>126.0</ele><time>2026-05-06T09:15:35.394Z</time></trkpt><trkpt lat="37.2665641" lon="13.6592192"><ele>126.0</ele><time>2026-05-06T09:15:36.394Z</time></trkpt><trkpt lat="37.2666" lon="13.6591471"><ele>126.16666666666667</ele><time>2026-05-06T09:15:37.394Z</time></trkpt><trkpt lat="37.2666253" lon="13.6590734"><ele>126.33333333333334</ele><time>2026-05-06T09:15:38.394Z</time></trkpt><trkpt lat="37.266609" lon="13.6589195"><ele>126.5</ele><time>2026-05-06T09:15:40.394Z</time></trkpt><trkpt lat="37.266583" lon="13.6588376"><ele>126.66666666666667</ele><time>2026-05-06T09:15:41.395Z</time></trkpt><trkpt lat="37.2665492" lon="13.6587592"><ele>126.83333333333334</ele><time>2026-05-06T09:15:42.395Z</time></trkpt><trkpt lat="37.2665114" lon="13.6586797"><ele>127.0</ele><time>2026-05-06T09:15:43.394Z</time></trkpt><trkpt lat="37.2664766" lon="13.6586137"><ele>127.00000000000001</ele><time>2026-05-06T09:15:44.394Z</time></trkpt><trkpt lat="37.2664598" lon="13.6584521"><ele>127.0</ele><time>2026-05-06T09:15:46.394Z</time></trkpt><trkpt lat="37.2664548" lon="13.6583722"><ele>127.0</ele><time>2026-05-06T09:15:47.395Z</time></trkpt><trkpt lat="37.2664582" lon="13.6582848"><ele>127.0</ele><time>2026-05-06T09:15:48.394Z</time></trkpt><trkpt lat="37.2664651" lon="13.6582021"><ele>127.00000000000001</ele><time>2026-05-06T09:15:49.394Z</time></trkpt><trkpt lat="37.2664802" lon="13.6581141"><ele>127.0</ele><time>2026-05-06T09:15:50.394Z</time></trkpt><trkpt lat="37.2664883" lon="13.6580346"><ele>127.0</ele><time>2026-05-06T09:15:51.394Z</time></trkpt><trkpt lat="37.2664987" lon="13.6579534"><ele>127.0</ele><time>2026-05-06T09:15:52.394Z</time></trkpt><trkpt lat="37.2665117" lon="13.6578743"><ele>127.0</ele><time>2026-05-06T09:15:53.394Z</time></trkpt><trkpt lat="37.2665211" lon="13.6577946"><ele>127.0</ele><time>2026-05-06T09:15:54.395Z</time></trkpt><trkpt lat="37.2665304" lon="13.6577119"><ele>127.0</ele><time>2026-05-06T09:15:55.394Z</time></trkpt><trkpt lat="37.2665395" lon="13.6576286"><ele>127.0</ele><time>2026-05-06T09:15:56.396Z</time></trkpt><trkpt lat="37.2665491" lon="13.6575455"><ele>127.0</ele><time>2026-05-06T09:15:57.394Z</time></trkpt><trkpt lat="37.2665564" lon="13.6574643"><ele>125.6</ele><time>2026-05-06T09:15:58.394Z</time></trkpt><trkpt lat="37.2665947" lon="13.6573226"><ele>124.19999999999999</ele><time>2026-05-06T09:16:00.395Z</time></trkpt><trkpt lat="37.2666584" lon="13.657213"><ele>122.8</ele><time>2026-05-06T09:16:02.394Z</time></trkpt><trkpt lat="37.2667339" lon="13.6571154"><ele>121.4</ele><time>2026-05-06T09:16:04.395Z</time></trkpt><trkpt lat="37.2667839" lon="13.6570054"><ele>120.0</ele><time>2026-05-06T09:16:06.393Z</time></trkpt><trkpt lat="37.2668279" lon="13.6568795"><ele>119.0</ele><time>2026-05-06T09:16:08.395Z</time></trkpt><trkpt lat="37.2668687" lon="13.6567651"><ele>118.0</ele><time>2026-05-06T09:16:10.394Z</time></trkpt><trkpt lat="37.2669111" lon="13.6566462"><ele>117.0</ele><time>2026-05-06T09:16:22.394Z</time></trkpt><trkpt lat="37.26694" lon="13.6565714"><ele>116.0</ele><time>2026-05-06T09:16:23.394Z</time></trkpt><trkpt lat="37.2669653" lon="13.6564944"><ele>115.0</ele><time>2026-05-06T09:16:24.394Z</time></trkpt><trkpt lat="37.2669936" lon="13.6564119"><ele>114.0</ele><time>2026-05-06T09:16:25.394Z</time></trkpt><trkpt lat="37.2670186" lon="13.6563232"><ele>114.0</ele><time>2026-05-06T09:16:26.394Z</time></trkpt><trkpt lat="37.2670427" lon="13.6562399"><ele>114.0</ele><time>2026-05-06T09:16:27.395Z</time></trkpt><trkpt lat="37.2670712" lon="13.656158"><ele>114.0</ele><time>2026-05-06T09:16:28.394Z</time></trkpt><trkpt lat="37.2670998" lon="13.6560787"><ele>114.0</ele><time>2026-05-06T09:16:29.394Z</time></trkpt><trkpt lat="37.2671329" lon="13.6559932"><ele>114.0</ele><time>2026-05-06T09:16:30.396Z</time></trkpt><trkpt lat="37.2671669" lon="13.6559031"><ele>114.0</ele><time>2026-05-06T09:16:31.394Z</time></trkpt><trkpt lat="37.2672" lon="13.6558067"><ele>113.83333333333333</ele><time>2026-05-06T09:16:32.394Z</time></trkpt><trkpt lat="37.2672323" lon="13.6557079"><ele>113.66666666666666</ele><time>2026-05-06T09:16:33.394Z</time></trkpt><trkpt lat="37.2672599" lon="13.6556163"><ele>113.5</ele><time>2026-05-06T09:16:34.394Z</time></trkpt><trkpt lat="37.2672856" lon="13.6555356"><ele>113.33333333333333</ele><time>2026-05-06T09:16:35.394Z</time></trkpt><trkpt lat="37.2673113" lon="13.6554528"><ele>113.16666666666666</ele><time>2026-05-06T09:16:36.394Z</time></trkpt><trkpt lat="37.2673418" lon="13.6553663"><ele>113.0</ele><time>2026-05-06T09:16:37.394Z</time></trkpt><trkpt lat="37.2673725" lon="13.6552724"><ele>114.66666666666666</ele><time>2026-05-06T09:16:38.393Z</time></trkpt><trkpt lat="37.2673962" lon="13.6551834"><ele>116.33333333333333</ele><time>2026-05-06T09:16:39.394Z</time></trkpt><trkpt lat="37.2674269" lon="13.6550936"><ele>118.0</ele><time>2026-05-06T09:16:40.394Z</time></trkpt><trkpt lat="37.2674568" lon="13.6550016"><ele>119.66666666666666</ele><time>2026-05-06T09:16:41.394Z</time></trkpt><trkpt lat="37.2674894" lon="13.6549152"><ele>121.33333333333333</ele><time>2026-05-06T09:16:42.394Z</time></trkpt><trkpt lat="37.267518" lon="13.6548269"><ele>123.0</ele><time>2026-05-06T09:16:43.394Z</time></trkpt><trkpt lat="37.2675437" lon="13.6547436"><ele>123.0</ele><time>2026-05-06T09:16:44.393Z</time></trkpt><trkpt lat="37.2675749" lon="13.6546586"><ele>123.0</ele><time>2026-05-06T09:16:45.394Z</time></trkpt><trkpt lat="37.2676058" lon="13.6545833"><ele>123.0</ele><time>2026-05-06T09:16:46.394Z</time></trkpt><trkpt lat="37.2676296" lon="13.6545006"><ele>123.0</ele><time>2026-05-06T09:16:47.394Z</time></trkpt><trkpt lat="37.2676778" lon="13.6543597"><ele>123.0</ele><time>2026-05-06T09:16:49.395Z</time></trkpt><trkpt lat="37.26774" lon="13.6542471"><ele>123.0</ele><time>2026-05-06T09:16:51.395Z</time></trkpt><trkpt lat="37.2677615" lon="13.6541283"><ele>122.60000000000001</ele><time>2026-05-06T09:16:53.394Z</time></trkpt><trkpt lat="37.2677515" lon="13.6540366"><ele>122.20000000000002</ele><time>2026-05-06T09:16:55.394Z</time></trkpt><trkpt lat="37.2676987" lon="13.6539622"><ele>121.8</ele><time>2026-05-06T09:16:57.395Z</time></trkpt><trkpt lat="37.2676396" lon="13.6538758"><ele>121.4</ele><time>2026-05-06T09:16:59.394Z</time></trkpt><trkpt lat="37.2675619" lon="13.6537783"><ele>121.0</ele><time>2026-05-06T09:17:01.395Z</time></trkpt><trkpt lat="37.2674704" lon="13.6536845"><ele>120.19999999999999</ele><time>2026-05-06T09:17:03.394Z</time></trkpt><trkpt lat="37.2673713" lon="13.6535888"><ele>119.39999999999999</ele><time>2026-05-06T09:17:05.394Z</time></trkpt><trkpt lat="37.2672778" lon="13.6534939"><ele>118.6</ele><time>2026-05-06T09:17:07.395Z</time></trkpt><trkpt lat="37.2672037" lon="13.6534113"><ele>117.8</ele><time>2026-05-06T09:17:09.394Z</time></trkpt><trkpt lat="37.2671356" lon="13.653325"><ele>117.0</ele><time>2026-05-06T09:17:11.394Z</time></trkpt><trkpt lat="37.2670788" lon="13.6532734"><ele>116.14285714285715</ele><time>2026-05-06T09:17:13.395Z</time></trkpt><trkpt lat="37.267013" lon="13.6532132"><ele>115.2857142857143</ele><time>2026-05-06T09:17:15.394Z</time></trkpt><trkpt lat="37.2669656" lon="13.6531356"><ele>114.42857142857143</ele><time>2026-05-06T09:17:17.395Z</time></trkpt><trkpt lat="37.2669253" lon="13.6530713"><ele>113.57142857142858</ele><time>2026-05-06T09:17:20.394Z</time></trkpt><trkpt lat="37.2669287" lon="13.6531479"><ele>112.71428571428572</ele><time>2026-05-06T09:24:35.393Z</time></trkpt><trkpt lat="37.2669963" lon="13.6531857"><ele>111.85714285714286</ele><time>2026-05-06T09:25:15.393Z</time></trkpt><trkpt lat="37.2670578" lon="13.6532429"><ele>111.0</ele><time>2026-05-06T09:25:17.393Z</time></trkpt><trkpt lat="37.2671484" lon="13.653339"><ele>111.0</ele><time>2026-05-06T09:25:19.394Z</time></trkpt><trkpt lat="37.2672081" lon="13.6533913"><ele>111.0</ele><time>2026-05-06T09:25:20.393Z</time></trkpt><trkpt lat="37.2672595" lon="13.6534409"><ele>111.0</ele><time>2026-05-06T09:25:21.393Z</time></trkpt><trkpt lat="37.2673141" lon="13.653495"><ele>111.0</ele><time>2026-05-06T09:25:22.393Z</time></trkpt><trkpt lat="37.267368" lon="13.6535508"><ele>111.0</ele><time>2026-05-06T09:25:23.394Z</time></trkpt><trkpt lat="37.2674208" lon="13.6536058"><ele>111.0</ele><time>2026-05-06T09:25:24.394Z</time></trkpt><trkpt lat="37.2674847" lon="13.6536619"><ele>111.0</ele><time>2026-05-06T09:25:25.392Z</time></trkpt><trkpt lat="37.2675409" lon="13.6537077"><ele>112.66666666666667</ele><time>2026-05-06T09:25:26.393Z</time></trkpt><trkpt lat="37.2676064" lon="13.6537407"><ele>114.33333333333334</ele><time>2026-05-06T09:25:27.394Z</time></trkpt><trkpt lat="37.2676721" lon="13.6537755"><ele>116.0</ele><time>2026-05-06T09:25:28.394Z</time></trkpt><trkpt lat="37.2677397" lon="13.6538124"><ele>117.66666666666667</ele><time>2026-05-06T09:25:29.394Z</time></trkpt><trkpt lat="37.2678061" lon="13.6538415"><ele>119.33333333333334</ele><time>2026-05-06T09:25:30.393Z</time></trkpt><trkpt lat="37.267872" lon="13.653874"><ele>121.0</ele><time>2026-05-06T09:25:31.393Z</time></trkpt><trkpt lat="37.2679822" lon="13.65387"><ele>121.0</ele><time>2026-05-06T09:25:33.393Z</time></trkpt><trkpt lat="37.2680938" lon="13.6538335"><ele>121.0</ele><time>2026-05-06T09:25:35.394Z</time></trkpt><trkpt lat="37.2681945" lon="13.6537487"><ele>121.0</ele><time>2026-05-06T09:25:37.393Z</time></trkpt><trkpt lat="37.2682429" lon="13.6536961"><ele>121.0</ele><time>2026-05-06T09:25:38.393Z</time></trkpt><trkpt lat="37.2683314" lon="13.653609"><ele>121.0</ele><time>2026-05-06T09:25:40.393Z</time></trkpt><trkpt lat="37.2684269" lon="13.6535338"><ele>120.5</ele><time>2026-05-06T09:25:42.393Z</time></trkpt><trkpt lat="37.2685244" lon="13.6534487"><ele>120.0</ele><time>2026-05-06T09:25:44.393Z</time></trkpt><trkpt lat="37.268616" lon="13.6533631"><ele>119.5</ele><time>2026-05-06T09:25:46.394Z</time></trkpt><trkpt lat="37.2687106" lon="13.6532763"><ele>119.0</ele><time>2026-05-06T09:25:48.393Z</time></trkpt><trkpt lat="37.2688105" lon="13.6531902"><ele>119.0</ele><time>2026-05-06T09:25:50.393Z</time></trkpt><trkpt lat="37.2688634" lon="13.6531419"><ele>119.0</ele><time>2026-05-06T09:25:51.393Z</time></trkpt><trkpt lat="37.2689226" lon="13.6530862"><ele>119.0</ele><time>2026-05-06T09:25:52.393Z</time></trkpt><trkpt lat="37.2689808" lon="13.6530282"><ele>119.0</ele><time>2026-05-06T09:25:53.394Z</time></trkpt><trkpt lat="37.2690424" lon="13.6529771"><ele>119.0</ele><time>2026-05-06T09:25:54.393Z</time></trkpt><trkpt lat="37.2690995" lon="13.6529247"><ele>119.0</ele><time>2026-05-06T09:25:55.394Z</time></trkpt><trkpt lat="37.2691549" lon="13.6528687"><ele>119.0</ele><time>2026-05-06T09:25:56.393Z</time></trkpt><trkpt lat="37.2692081" lon="13.6528241"><ele>118.99999999999999</ele><time>2026-05-06T09:25:57.394Z</time></trkpt><trkpt lat="37.2693046" lon="13.652755"><ele>119.0</ele><time>2026-05-06T09:25:59.394Z</time></trkpt><trkpt lat="37.2693682" lon="13.6527286"><ele>119.0</ele><time>2026-05-06T09:26:01.394Z</time></trkpt><trkpt lat="37.2692932" lon="13.6527183"><ele>119.0</ele><time>2026-05-06T09:26:05.393Z</time></trkpt><trkpt lat="37.2692024" lon="13.6528047"><ele>118.99999999999999</ele><time>2026-05-06T09:26:07.393Z</time></trkpt><trkpt lat="37.2691484" lon="13.6528521"><ele>119.0</ele><time>2026-05-06T09:26:08.394Z</time></trkpt><trkpt lat="37.2690943" lon="13.6529016"><ele>119.0</ele><time>2026-05-06T09:26:09.393Z</time></trkpt><trkpt lat="37.269036" lon="13.6529529"><ele>119.0</ele><time>2026-05-06T09:26:10.393Z</time></trkpt><trkpt lat="37.268982" lon="13.6530084"><ele>119.0</ele><time>2026-05-06T09:26:11.394Z</time></trkpt><trkpt lat="37.2689275" lon="13.6530618"><ele>119.0</ele><time>2026-05-06T09:26:12.393Z</time></trkpt><trkpt lat="37.2688731" lon="13.6531165"><ele>119.0</ele><time>2026-05-06T09:26:13.393Z</time></trkpt><trkpt lat="37.2688189" lon="13.6531724"><ele>119.0</ele><time>2026-05-06T09:26:14.393Z</time></trkpt><trkpt lat="37.2687648" lon="13.6532251"><ele>119.0</ele><time>2026-05-06T09:26:15.393Z</time></trkpt><trkpt lat="37.2687165" lon="13.6532802"><ele>119.0</ele><time>2026-05-06T09:26:16.394Z</time></trkpt><trkpt lat="37.2686604" lon="13.6533287"><ele>119.0</ele><time>2026-05-06T09:26:17.394Z</time></trkpt><trkpt lat="37.268602" lon="13.653385"><ele>119.0</ele><time>2026-05-06T09:26:18.394Z</time></trkpt><trkpt lat="37.2685401" lon="13.6534364"><ele>119.0</ele><time>2026-05-06T09:26:19.393Z</time></trkpt><trkpt lat="37.268483" lon="13.6534788"><ele>119.0</ele><time>2026-05-06T09:26:20.393Z</time></trkpt><trkpt lat="37.2684243" lon="13.6535375"><ele>119.0</ele><time>2026-05-06T09:26:21.393Z</time></trkpt><trkpt lat="37.2683646" lon="13.6535925"><ele>119.0</ele><time>2026-05-06T09:26:22.393Z</time></trkpt><trkpt lat="37.2683089" lon="13.6536509"><ele>119.33333333333333</ele><time>2026-05-06T09:26:23.393Z</time></trkpt><trkpt lat="37.2682494" lon="13.6537007"><ele>119.66666666666666</ele><time>2026-05-06T09:26:24.394Z</time></trkpt><trkpt lat="37.2681887" lon="13.653751"><ele>120.0</ele><time>2026-05-06T09:26:25.394Z</time></trkpt><trkpt lat="37.268131" lon="13.653796"><ele>120.33333333333334</ele><time>2026-05-06T09:26:26.393Z</time></trkpt><trkpt lat="37.2680352" lon="13.6538443"><ele>120.66666666666667</ele><time>2026-05-06T09:26:28.395Z</time></trkpt><trkpt lat="37.2679322" lon="13.6538659"><ele>121.0</ele><time>2026-05-06T09:26:30.392Z</time></trkpt><trkpt lat="37.2678387" lon="13.6538472"><ele>121.0</ele><time>2026-05-06T09:26:32.393Z</time></trkpt><trkpt lat="37.2677376" lon="13.6537952"><ele>121.0</ele><time>2026-05-06T09:26:34.393Z</time></trkpt><trkpt lat="37.2676322" lon="13.6537478"><ele>121.0</ele><time>2026-05-06T09:26:36.393Z</time></trkpt><trkpt lat="37.2675344" lon="13.6536952"><ele>121.0</ele><time>2026-05-06T09:26:38.393Z</time></trkpt><trkpt lat="37.2674364" lon="13.6536122"><ele>121.0</ele><time>2026-05-06T09:26:40.393Z</time></trkpt><trkpt lat="37.2673836" lon="13.6535614"><ele>120.33333333333334</ele><time>2026-05-06T09:26:41.394Z</time></trkpt><trkpt lat="37.2673223" lon="13.6534986"><ele>119.66666666666667</ele><time>2026-05-06T09:26:42.393Z</time></trkpt><trkpt lat="37.2672599" lon="13.6534395"><ele>119.0</ele><time>2026-05-06T09:26:43.393Z</time></trkpt><trkpt lat="37.2672038" lon="13.6533817"><ele>118.33333333333334</ele><time>2026-05-06T09:26:44.393Z</time></trkpt><trkpt lat="37.2671487" lon="13.6533317"><ele>117.66666666666667</ele><time>2026-05-06T09:26:45.394Z</time></trkpt><trkpt lat="37.2670971" lon="13.6532824"><ele>117.0</ele><time>2026-05-06T09:26:46.393Z</time></trkpt><trkpt lat="37.267015" lon="13.6532047"><ele>116.0</ele><time>2026-05-06T09:26:48.393Z</time></trkpt><trkpt lat="37.2669425" lon="13.6531411"><ele>115.0</ele><time>2026-05-06T09:26:50.394Z</time></trkpt><trkpt lat="37.2668707" lon="13.6531048"><ele>114.0</ele><time>2026-05-06T09:26:52.393Z</time></trkpt><trkpt lat="37.2667852" lon="13.6530818"><ele>113.0</ele><time>2026-05-06T09:26:55.394Z</time></trkpt><trkpt lat="37.2667207" lon="13.6530782"><ele>112.0</ele><time>2026-05-06T09:27:10.393Z</time></trkpt><trkpt lat="37.2666512" lon="13.6530683"><ele>111.0</ele><time>2026-05-06T09:27:11.394Z</time></trkpt><trkpt lat="37.2665848" lon="13.6530478"><ele>111.0</ele><time>2026-05-06T09:27:12.393Z</time></trkpt><trkpt lat="37.2665054" lon="13.6530215"><ele>111.0</ele><time>2026-05-06T09:27:13.392Z</time></trkpt><trkpt lat="37.2664266" lon="13.6529816"><ele>111.0</ele><time>2026-05-06T09:27:14.394Z</time></trkpt><trkpt lat="37.2663511" lon="13.652933"><ele>111.0</ele><time>2026-05-06T09:27:15.394Z</time></trkpt><trkpt lat="37.2662699" lon="13.6528794"><ele>111.0</ele><time>2026-05-06T09:27:16.393Z</time></trkpt><trkpt lat="37.266192" lon="13.6528148"><ele>111.0</ele><time>2026-05-06T09:27:17.392Z</time></trkpt><trkpt lat="37.2661126" lon="13.6527461"><ele>109.4</ele><time>2026-05-06T09:27:18.393Z</time></trkpt><trkpt lat="37.2660322" lon="13.6526808"><ele>107.8</ele><time>2026-05-06T09:27:19.394Z</time></trkpt><trkpt lat="37.2659521" lon="13.6526163"><ele>106.2</ele><time>2026-05-06T09:27:20.392Z</time></trkpt><trkpt lat="37.2658749" lon="13.6525514"><ele>104.60000000000001</ele><time>2026-05-06T09:27:21.393Z</time></trkpt><trkpt lat="37.2657962" lon="13.6524911"><ele>103.0</ele><time>2026-05-06T09:27:22.394Z</time></trkpt><trkpt lat="37.2657233" lon="13.6524283"><ele>103.0</ele><time>2026-05-06T09:27:23.392Z</time></trkpt><trkpt lat="37.2656495" lon="13.6523629"><ele>103.0</ele><time>2026-05-06T09:27:24.393Z</time></trkpt><trkpt lat="37.265573" lon="13.652292"><ele>103.0</ele><time>2026-05-06T09:27:25.392Z</time></trkpt><trkpt lat="37.2654854" lon="13.6522053"><ele>103.0</ele><time>2026-05-06T09:27:26.393Z</time></trkpt><trkpt lat="37.2653971" lon="13.6521143"><ele>103.0</ele><time>2026-05-06T09:27:27.394Z</time></trkpt><trkpt lat="37.2653183" lon="13.6520297"><ele>101.4</ele><time>2026-05-06T09:27:28.394Z</time></trkpt><trkpt lat="37.2652376" lon="13.6519374"><ele>99.80000000000001</ele><time>2026-05-06T09:27:29.393Z</time></trkpt><trkpt lat="37.2651639" lon="13.6518493"><ele>98.2</ele><time>2026-05-06T09:27:30.394Z</time></trkpt><trkpt lat="37.2650941" lon="13.6517586"><ele>96.6</ele><time>2026-05-06T09:27:31.394Z</time></trkpt><trkpt lat="37.2650206" lon="13.6516718"><ele>95.0</ele><time>2026-05-06T09:27:32.392Z</time></trkpt><trkpt lat="37.2649488" lon="13.6515962"><ele>95.0</ele><time>2026-05-06T09:27:33.394Z</time></trkpt><trkpt lat="37.2648834" lon="13.6515222"><ele>95.0</ele><time>2026-05-06T09:27:34.394Z</time></trkpt><trkpt lat="37.2648156" lon="13.6514447"><ele>95.0</ele><time>2026-05-06T09:27:35.392Z</time></trkpt><trkpt lat="37.2647572" lon="13.6513755"><ele>95.0</ele><time>2026-05-06T09:27:36.392Z</time></trkpt><trkpt lat="37.2646947" lon="13.6512941"><ele>95.0</ele><time>2026-05-06T09:27:37.392Z</time></trkpt><trkpt lat="37.264646" lon="13.651213"><ele>95.0</ele><time>2026-05-06T09:27:38.393Z</time></trkpt><trkpt lat="37.2645955" lon="13.651129"><ele>93.83333333333334</ele><time>2026-05-06T09:27:39.392Z</time></trkpt><trkpt lat="37.2645522" lon="13.6510383"><ele>92.66666666666667</ele><time>2026-05-06T09:27:40.395Z</time></trkpt><trkpt lat="37.2645101" lon="13.6509556"><ele>91.5</ele><time>2026-05-06T09:27:41.394Z</time></trkpt><trkpt lat="37.2644636" lon="13.6508748"><ele>90.33333333333333</ele><time>2026-05-06T09:27:42.393Z</time></trkpt><trkpt lat="37.2644238" lon="13.6507954"><ele>89.16666666666666</ele><time>2026-05-06T09:27:43.393Z</time></trkpt><trkpt lat="37.2643824" lon="13.6507193"><ele>88.0</ele><time>2026-05-06T09:27:44.394Z</time></trkpt><trkpt lat="37.2643383" lon="13.6506386"><ele>88.0</ele><time>2026-05-06T09:27:45.394Z</time></trkpt><trkpt lat="37.2642924" lon="13.6505539"><ele>88.0</ele><time>2026-05-06T09:27:46.393Z</time></trkpt><trkpt lat="37.264244" lon="13.6504738"><ele>88.0</ele><time>2026-05-06T09:27:47.393Z</time></trkpt><trkpt lat="37.2641919" lon="13.6504007"><ele>88.0</ele><time>2026-05-06T09:27:48.393Z</time></trkpt><trkpt lat="37.2641398" lon="13.6503301"><ele>88.0</ele><time>2026-05-06T09:27:49.392Z</time></trkpt><trkpt lat="37.2640908" lon="13.6502622"><ele>88.0</ele><time>2026-05-06T09:27:50.393Z</time></trkpt><trkpt lat="37.2640414" lon="13.6501934"><ele>88.0</ele><time>2026-05-06T09:27:51.393Z</time></trkpt><trkpt lat="37.2639915" lon="13.6501248"><ele>88.0</ele><time>2026-05-06T09:27:52.394Z</time></trkpt><trkpt lat="37.2639373" lon="13.650058"><ele>88.0</ele><time>2026-05-06T09:27:53.394Z</time></trkpt><trkpt lat="37.2638878" lon="13.6499942"><ele>88.0</ele><time>2026-05-06T09:27:54.393Z</time></trkpt><trkpt lat="37.2638354" lon="13.649929"><ele>88.0</ele><time>2026-05-06T09:27:55.393Z</time></trkpt><trkpt lat="37.2637884" lon="13.6498649"><ele>88.0</ele><time>2026-05-06T09:27:56.393Z</time></trkpt><trkpt lat="37.2637412" lon="13.6498057"><ele>88.0</ele><time>2026-05-06T09:27:57.393Z</time></trkpt><trkpt lat="37.2636955" lon="13.6497408"><ele>87.0</ele><time>2026-05-06T09:27:58.392Z</time></trkpt><trkpt lat="37.2636098" lon="13.649625"><ele>86.0</ele><time>2026-05-06T09:28:00.394Z</time></trkpt><trkpt lat="37.2635156" lon="13.6495251"><ele>85.0</ele><time>2026-05-06T09:28:02.392Z</time></trkpt><trkpt lat="37.2634353" lon="13.6494328"><ele>84.0</ele><time>2026-05-06T09:28:04.392Z</time></trkpt><trkpt lat="37.2633628" lon="13.649336"><ele>83.6</ele><time>2026-05-06T09:28:06.394Z</time></trkpt><trkpt lat="37.2633003" lon="13.6492534"><ele>83.2</ele><time>2026-05-06T09:28:08.394Z</time></trkpt><trkpt lat="37.2632413" lon="13.6491927"><ele>82.8</ele><time>2026-05-06T09:28:10.393Z</time></trkpt><trkpt lat="37.2631762" lon="13.6491469"><ele>82.39999999999999</ele><time>2026-05-06T09:28:21.394Z</time></trkpt><trkpt lat="37.2631661" lon="13.6490328"><ele>82.0</ele><time>2026-05-06T09:28:24.393Z</time></trkpt><trkpt lat="37.2631133" lon="13.6488953"><ele>81.6</ele><time>2026-05-06T09:28:26.394Z</time></trkpt><trkpt lat="37.26306" lon="13.6488376"><ele>81.19999999999999</ele><time>2026-05-06T09:28:27.394Z</time></trkpt><trkpt lat="37.2629808" lon="13.6487839"><ele>80.8</ele><time>2026-05-06T09:28:28.392Z</time></trkpt><trkpt lat="37.2628799" lon="13.6487264"><ele>80.4</ele><time>2026-05-06T09:28:29.393Z</time></trkpt><trkpt lat="37.2627565" lon="13.6486591"><ele>80.0</ele><time>2026-05-06T09:28:30.393Z</time></trkpt><trkpt lat="37.2626255" lon="13.6485932"><ele>79.75</ele><time>2026-05-06T09:28:31.392Z</time></trkpt><trkpt lat="37.2624892" lon="13.6485286"><ele>79.5</ele><time>2026-05-06T09:28:32.395Z</time></trkpt><trkpt lat="37.2623568" lon="13.6484688"><ele>79.25</ele><time>2026-05-06T09:28:33.393Z</time></trkpt><trkpt lat="37.2622319" lon="13.6484198"><ele>79.0</ele><time>2026-05-06T09:28:34.393Z</time></trkpt><trkpt lat="37.2621211" lon="13.6483759"><ele>78.8</ele><time>2026-05-06T09:28:35.392Z</time></trkpt><trkpt lat="37.2620183" lon="13.6483337"><ele>78.60000000000001</ele><time>2026-05-06T09:28:36.393Z</time></trkpt><trkpt lat="37.2619178" lon="13.648303"><ele>78.4</ele><time>2026-05-06T09:28:37.392Z</time></trkpt><trkpt lat="37.2618246" lon="13.6482653"><ele>78.2</ele><time>2026-05-06T09:28:38.393Z</time></trkpt><trkpt lat="37.2617419" lon="13.6482249"><ele>78.0</ele><time>2026-05-06T09:28:39.393Z</time></trkpt><trkpt lat="37.2616721" lon="13.6481795"><ele>78.0</ele><time>2026-05-06T09:28:40.393Z</time></trkpt><trkpt lat="37.2616029" lon="13.6481035"><ele>78.0</ele><time>2026-05-06T09:28:42.393Z</time></trkpt><trkpt lat="37.2615655" lon="13.6481817"><ele>78.0</ele><time>2026-05-06T09:28:49.393Z</time></trkpt><trkpt lat="37.2614826" lon="13.6481793"><ele>78.0</ele><time>2026-05-06T09:28:51.393Z</time></trkpt><trkpt lat="37.2614158" lon="13.6481664"><ele>78.0</ele><time>2026-05-06T09:28:52.393Z</time></trkpt><trkpt lat="37.2613356" lon="13.6481475"><ele>78.0</ele><time>2026-05-06T09:28:53.394Z</time></trkpt><trkpt lat="37.2612411" lon="13.6481374"><ele>77.8</ele><time>2026-05-06T09:28:54.394Z</time></trkpt><trkpt lat="37.2611518" lon="13.6481198"><ele>77.6</ele><time>2026-05-06T09:28:55.393Z</time></trkpt><trkpt lat="37.2610392" lon="13.648105"><ele>77.4</ele><time>2026-05-06T09:28:56.394Z</time></trkpt><trkpt lat="37.260921" lon="13.6480965"><ele>77.2</ele><time>2026-05-06T09:28:57.394Z</time></trkpt><trkpt lat="37.2608069" lon="13.6480758"><ele>77.0</ele><time>2026-05-06T09:28:58.393Z</time></trkpt><trkpt lat="37.2606894" lon="13.6480539"><ele>76.6</ele><time>2026-05-06T09:28:59.393Z</time></trkpt><trkpt lat="37.2605745" lon="13.6480295"><ele>76.2</ele><time>2026-05-06T09:29:00.392Z</time></trkpt><trkpt lat="37.2604604" lon="13.6480125"><ele>75.8</ele><time>2026-05-06T09:29:01.393Z</time></trkpt><trkpt lat="37.2603527" lon="13.6479982"><ele>75.4</ele><time>2026-05-06T09:29:02.393Z</time></trkpt><trkpt lat="37.2602515" lon="13.6479955"><ele>75.0</ele><time>2026-05-06T09:29:03.394Z</time></trkpt><trkpt lat="37.2601537" lon="13.6479923"><ele>75.0</ele><time>2026-05-06T09:29:04.393Z</time></trkpt><trkpt lat="37.2600563" lon="13.6479942"><ele>75.0</ele><time>2026-05-06T09:29:05.393Z</time></trkpt><trkpt lat="37.2599632" lon="13.6480018"><ele>75.0</ele><time>2026-05-06T09:29:06.393Z</time></trkpt><trkpt lat="37.2598746" lon="13.6480234"><ele>75.0</ele><time>2026-05-06T09:29:07.393Z</time></trkpt><trkpt lat="37.259788" lon="13.6480358"><ele>75.0</ele><time>2026-05-06T09:29:08.392Z</time></trkpt><trkpt lat="37.2596961" lon="13.6480706"><ele>74.0</ele><time>2026-05-06T09:29:09.392Z</time></trkpt><trkpt lat="37.2596027" lon="13.6481075"><ele>73.0</ele><time>2026-05-06T09:29:10.392Z</time></trkpt><trkpt lat="37.2595026" lon="13.6481447"><ele>72.0</ele><time>2026-05-06T09:29:11.393Z</time></trkpt><trkpt lat="37.259406" lon="13.648184"><ele>71.0</ele><time>2026-05-06T09:29:12.393Z</time></trkpt><trkpt lat="37.2593102" lon="13.6482362"><ele>70.0</ele><time>2026-05-06T09:29:13.392Z</time></trkpt><trkpt lat="37.2592215" lon="13.6483035"><ele>70.0</ele><time>2026-05-06T09:29:14.394Z</time></trkpt><trkpt lat="37.2591327" lon="13.6483786"><ele>70.0</ele><time>2026-05-06T09:29:15.393Z</time></trkpt><trkpt lat="37.2590555" lon="13.6484849"><ele>70.0</ele><time>2026-05-06T09:29:16.392Z</time></trkpt><trkpt lat="37.2589734" lon="13.6485863"><ele>70.0</ele><time>2026-05-06T09:29:17.394Z</time></trkpt><trkpt lat="37.2588932" lon="13.64868"><ele>70.0</ele><time>2026-05-06T09:29:18.393Z</time></trkpt><trkpt lat="37.2588046" lon="13.6487571"><ele>69.25</ele><time>2026-05-06T09:29:19.393Z</time></trkpt><trkpt lat="37.2587048" lon="13.6488148"><ele>68.5</ele><time>2026-05-06T09:29:20.392Z</time></trkpt><trkpt lat="37.2585924" lon="13.6488548"><ele>67.75</ele><time>2026-05-06T09:29:21.395Z</time></trkpt><trkpt lat="37.2584776" lon="13.6488863"><ele>67.0</ele><time>2026-05-06T09:29:22.393Z</time></trkpt><trkpt lat="37.258359" lon="13.6488849"><ele>67.0</ele><time>2026-05-06T09:29:23.393Z</time></trkpt><trkpt lat="37.2582487" lon="13.6488628"><ele>67.0</ele><time>2026-05-06T09:29:24.392Z</time></trkpt><trkpt lat="37.2581417" lon="13.6488193"><ele>67.0</ele><time>2026-05-06T09:29:25.392Z</time></trkpt><trkpt lat="37.25804" lon="13.6487589"><ele>67.0</ele><time>2026-05-06T09:29:26.392Z</time></trkpt><trkpt lat="37.2579343" lon="13.6486955"><ele>67.5</ele><time>2026-05-06T09:29:27.392Z</time></trkpt><trkpt lat="37.2578253" lon="13.6486296"><ele>68.0</ele><time>2026-05-06T09:29:28.392Z</time></trkpt><trkpt lat="37.2577112" lon="13.6485726"><ele>68.5</ele><time>2026-05-06T09:29:29.392Z</time></trkpt><trkpt lat="37.2575895" lon="13.6485243"><ele>69.0</ele><time>2026-05-06T09:29:30.393Z</time></trkpt><trkpt lat="37.2574705" lon="13.6484783"><ele>69.0</ele><time>2026-05-06T09:29:31.393Z</time></trkpt><trkpt lat="37.2573513" lon="13.648433"><ele>69.0</ele><time>2026-05-06T09:29:32.393Z</time></trkpt><trkpt lat="37.2572424" lon="13.6483719"><ele>69.0</ele><time>2026-05-06T09:29:33.392Z</time></trkpt><trkpt lat="37.257147" lon="13.6483009"><ele>69.0</ele><time>2026-05-06T09:29:34.393Z</time></trkpt><trkpt lat="37.2570607" lon="13.6482286"><ele>69.2</ele><time>2026-05-06T09:29:35.394Z</time></trkpt><trkpt lat="37.2569846" lon="13.6481456"><ele>69.4</ele><time>2026-05-06T09:29:36.393Z</time></trkpt><trkpt lat="37.2569152" lon="13.6480682"><ele>69.6</ele><time>2026-05-06T09:29:37.392Z</time></trkpt><trkpt lat="37.2568522" lon="13.6479961"><ele>69.8</ele><time>2026-05-06T09:29:38.393Z</time></trkpt><trkpt lat="37.2567793" lon="13.6479323"><ele>70.0</ele><time>2026-05-06T09:29:39.392Z</time></trkpt><trkpt lat="37.2567006" lon="13.6478835"><ele>70.0</ele><time>2026-05-06T09:29:40.393Z</time></trkpt><trkpt lat="37.2566252" lon="13.6478434"><ele>70.0</ele><time>2026-05-06T09:29:41.392Z</time></trkpt><trkpt lat="37.2565435" lon="13.6478263"><ele>70.0</ele><time>2026-05-06T09:29:42.392Z</time></trkpt><trkpt lat="37.2564668" lon="13.6478084"><ele>70.0</ele><time>2026-05-06T09:29:43.393Z</time></trkpt><trkpt lat="37.2563895" lon="13.6477732"><ele>70.0</ele><time>2026-05-06T09:29:44.393Z</time></trkpt><trkpt lat="37.2563175" lon="13.647727"><ele>70.0</ele><time>2026-05-06T09:29:45.392Z</time></trkpt><trkpt lat="37.2562494" lon="13.6476736"><ele>69.66666666666666</ele><time>2026-05-06T09:29:46.393Z</time></trkpt><trkpt lat="37.2561789" lon="13.6476189"><ele>69.33333333333333</ele><time>2026-05-06T09:29:47.393Z</time></trkpt><trkpt lat="37.2561104" lon="13.6475662"><ele>69.0</ele><time>2026-05-06T09:29:48.392Z</time></trkpt><trkpt lat="37.2560398" lon="13.6475025"><ele>68.66666666666667</ele><time>2026-05-06T09:29:49.392Z</time></trkpt><trkpt lat="37.2559724" lon="13.6474448"><ele>68.33333333333334</ele><time>2026-05-06T09:29:50.392Z</time></trkpt><trkpt lat="37.2559094" lon="13.6473773"><ele>68.0</ele><time>2026-05-06T09:29:51.393Z</time></trkpt><trkpt lat="37.2558477" lon="13.6473127"><ele>68.0</ele><time>2026-05-06T09:29:52.393Z</time></trkpt><trkpt lat="37.2557813" lon="13.6472385"><ele>68.0</ele><time>2026-05-06T09:29:53.394Z</time></trkpt><trkpt lat="37.2557194" lon="13.6471549"><ele>68.0</ele><time>2026-05-06T09:29:54.393Z</time></trkpt><trkpt lat="37.2556608" lon="13.6470804"><ele>68.0</ele><time>2026-05-06T09:29:55.392Z</time></trkpt><trkpt lat="37.2556019" lon="13.6470065"><ele>68.0</ele><time>2026-05-06T09:29:56.394Z</time></trkpt><trkpt lat="37.2555489" lon="13.6469372"><ele>68.0</ele><time>2026-05-06T09:29:57.394Z</time></trkpt><trkpt lat="37.2554946" lon="13.6468651"><ele>67.5</ele><time>2026-05-06T09:29:58.392Z</time></trkpt><trkpt lat="37.2554402" lon="13.6467918"><ele>67.0</ele><time>2026-05-06T09:29:59.394Z</time></trkpt><trkpt lat="37.2553856" lon="13.6467168"><ele>66.5</ele><time>2026-05-06T09:30:00.394Z</time></trkpt><trkpt lat="37.2553222" lon="13.6466359"><ele>66.0</ele><time>2026-05-06T09:30:01.393Z</time></trkpt><trkpt lat="37.2552614" lon="13.6465542"><ele>65.5</ele><time>2026-05-06T09:30:02.393Z</time></trkpt><trkpt lat="37.2551986" lon="13.6464694"><ele>65.0</ele><time>2026-05-06T09:30:03.392Z</time></trkpt><trkpt lat="37.2551326" lon="13.6463773"><ele>65.0</ele><time>2026-05-06T09:30:04.394Z</time></trkpt><trkpt lat="37.2550622" lon="13.6462841"><ele>65.0</ele><time>2026-05-06T09:30:05.394Z</time></trkpt><trkpt lat="37.2549935" lon="13.6461793"><ele>65.0</ele><time>2026-05-06T09:30:06.393Z</time></trkpt><trkpt lat="37.2549261" lon="13.6460697"><ele>65.0</ele><time>2026-05-06T09:30:07.394Z</time></trkpt><trkpt lat="37.2548588" lon="13.6459646"><ele>65.0</ele><time>2026-05-06T09:30:08.392Z</time></trkpt><trkpt lat="37.2547875" lon="13.6458615"><ele>64.8</ele><time>2026-05-06T09:30:09.393Z</time></trkpt><trkpt lat="37.2547199" lon="13.645761"><ele>64.6</ele><time>2026-05-06T09:30:10.394Z</time></trkpt><trkpt lat="37.2546518" lon="13.6456618"><ele>64.4</ele><time>2026-05-06T09:30:11.392Z</time></trkpt><trkpt lat="37.2545842" lon="13.6455612"><ele>64.2</ele><time>2026-05-06T09:30:12.392Z</time></trkpt><trkpt lat="37.2545164" lon="13.6454569"><ele>64.0</ele><time>2026-05-06T09:30:13.392Z</time></trkpt><trkpt lat="37.25445" lon="13.6453542"><ele>63.6</ele><time>2026-05-06T09:30:14.393Z</time></trkpt><trkpt lat="37.2543843" lon="13.6452506"><ele>63.2</ele><time>2026-05-06T09:30:15.393Z</time></trkpt><trkpt lat="37.2543202" lon="13.6451424"><ele>62.800000000000004</ele><time>2026-05-06T09:30:16.394Z</time></trkpt><trkpt lat="37.2542701" lon="13.6450189"><ele>62.400000000000006</ele><time>2026-05-06T09:30:17.393Z</time></trkpt><trkpt lat="37.2542247" lon="13.644898"><ele>62.0</ele><time>2026-05-06T09:30:18.393Z</time></trkpt><trkpt lat="37.2541814" lon="13.6447765"><ele>62.0</ele><time>2026-05-06T09:30:19.392Z</time></trkpt><trkpt lat="37.2541422" lon="13.6446597"><ele>62.0</ele><time>2026-05-06T09:30:20.394Z</time></trkpt><trkpt lat="37.2540953" lon="13.6445525"><ele>62.0</ele><time>2026-05-06T09:30:21.393Z</time></trkpt><trkpt lat="37.2540416" lon="13.6444627"><ele>62.0</ele><time>2026-05-06T09:30:22.392Z</time></trkpt><trkpt lat="37.2539705" lon="13.6443845"><ele>62.0</ele><time>2026-05-06T09:30:23.394Z</time></trkpt><trkpt lat="37.2538897" lon="13.64432"><ele>61.400000000000006</ele><time>2026-05-06T09:30:24.394Z</time></trkpt><trkpt lat="37.2538038" lon="13.6442582"><ele>60.800000000000004</ele><time>2026-05-06T09:30:25.393Z</time></trkpt><trkpt lat="37.253716" lon="13.6442034"><ele>60.2</ele><time>2026-05-06T09:30:26.392Z</time></trkpt><trkpt lat="37.2536274" lon="13.644135"><ele>59.6</ele><time>2026-05-06T09:30:27.393Z</time></trkpt><trkpt lat="37.2535375" lon="13.6440677"><ele>59.0</ele><time>2026-05-06T09:30:28.392Z</time></trkpt><trkpt lat="37.2534483" lon="13.6440006"><ele>59.0</ele><time>2026-05-06T09:30:29.394Z</time></trkpt><trkpt lat="37.2533597" lon="13.6439346"><ele>59.00000000000001</ele><time>2026-05-06T09:30:30.393Z</time></trkpt><trkpt lat="37.2532695" lon="13.6438706"><ele>59.00000000000001</ele><time>2026-05-06T09:30:31.392Z</time></trkpt><trkpt lat="37.2531779" lon="13.6438066"><ele>59.0</ele><time>2026-05-06T09:30:32.393Z</time></trkpt><trkpt lat="37.2530852" lon="13.6437405"><ele>59.0</ele><time>2026-05-06T09:30:33.393Z</time></trkpt><trkpt lat="37.2529962" lon="13.6436824"><ele>58.800000000000004</ele><time>2026-05-06T09:30:34.392Z</time></trkpt><trkpt lat="37.2529063" lon="13.6436205"><ele>58.60000000000001</ele><time>2026-05-06T09:30:35.393Z</time></trkpt><trkpt lat="37.2528108" lon="13.6435652"><ele>58.4</ele><time>2026-05-06T09:30:36.393Z</time></trkpt><trkpt lat="37.2527157" lon="13.6435098"><ele>58.2</ele><time>2026-05-06T09:30:37.392Z</time></trkpt><trkpt lat="37.2526218" lon="13.643458"><ele>58.0</ele><time>2026-05-06T09:30:38.393Z</time></trkpt><trkpt lat="37.2525254" lon="13.6434123"><ele>57.99999999999999</ele><time>2026-05-06T09:30:39.393Z</time></trkpt><trkpt lat="37.2524281" lon="13.6433736"><ele>58.0</ele><time>2026-05-06T09:30:40.394Z</time></trkpt><trkpt lat="37.2523362" lon="13.643339"><ele>58.0</ele><time>2026-05-06T09:30:41.392Z</time></trkpt><trkpt lat="37.2522513" lon="13.6433036"><ele>58.0</ele><time>2026-05-06T09:30:42.392Z</time></trkpt><trkpt lat="37.2521756" lon="13.6432634"><ele>57.99999999999999</ele><time>2026-05-06T09:30:43.393Z</time></trkpt><trkpt lat="37.2521073" lon="13.6432116"><ele>58.0</ele><time>2026-05-06T09:30:44.393Z</time></trkpt><trkpt lat="37.2520476" lon="13.6431516"><ele>57.99999999999999</ele><time>2026-05-06T09:30:45.393Z</time></trkpt><trkpt lat="37.2519966" lon="13.6430746"><ele>58.0</ele><time>2026-05-06T09:30:46.393Z</time></trkpt><trkpt lat="37.2519545" lon="13.6429908"><ele>58.0</ele><time>2026-05-06T09:30:47.393Z</time></trkpt><trkpt lat="37.2519219" lon="13.642905"><ele>58.0</ele><time>2026-05-06T09:30:48.394Z</time></trkpt><trkpt lat="37.25191" lon="13.6428101"><ele>57.99999999999999</ele><time>2026-05-06T09:30:49.393Z</time></trkpt><trkpt lat="37.2519109" lon="13.6427197"><ele>58.0</ele><time>2026-05-06T09:30:50.393Z</time></trkpt><trkpt lat="37.2519284" lon="13.6426233"><ele>57.83333333333333</ele><time>2026-05-06T09:30:51.393Z</time></trkpt><trkpt lat="37.251955" lon="13.6425203"><ele>57.666666666666664</ele><time>2026-05-06T09:30:52.394Z</time></trkpt><trkpt lat="37.2519887" lon="13.6424232"><ele>57.5</ele><time>2026-05-06T09:30:53.393Z</time></trkpt><trkpt lat="37.2520295" lon="13.6423424"><ele>57.33333333333333</ele><time>2026-05-06T09:30:54.393Z</time></trkpt><trkpt lat="37.2520764" lon="13.642266"><ele>57.166666666666664</ele><time>2026-05-06T09:30:55.392Z</time></trkpt><trkpt lat="37.2521169" lon="13.6421896"><ele>57.0</ele><time>2026-05-06T09:30:56.393Z</time></trkpt><trkpt lat="37.2521573" lon="13.642108"><ele>57.0</ele><time>2026-05-06T09:30:57.393Z</time></trkpt><trkpt lat="37.252196" lon="13.6420239"><ele>57.0</ele><time>2026-05-06T09:30:58.393Z</time></trkpt><trkpt lat="37.2522276" lon="13.6419289"><ele>57.0</ele><time>2026-05-06T09:30:59.392Z</time></trkpt><trkpt lat="37.2522613" lon="13.6418316"><ele>57.0</ele><time>2026-05-06T09:31:00.392Z</time></trkpt><trkpt lat="37.2522904" lon="13.641733"><ele>57.0</ele><time>2026-05-06T09:31:01.393Z</time></trkpt><trkpt lat="37.252319" lon="13.6416331"><ele>57.0</ele><time>2026-05-06T09:31:02.392Z</time></trkpt><trkpt lat="37.2523502" lon="13.6415368"><ele>55.166666666666664</ele><time>2026-05-06T09:31:03.393Z</time></trkpt><trkpt lat="37.2523805" lon="13.6414361"><ele>53.333333333333336</ele><time>2026-05-06T09:31:04.393Z</time></trkpt><trkpt lat="37.2524" lon="13.6413386"><ele>51.5</ele><time>2026-05-06T09:31:05.393Z</time></trkpt><trkpt lat="37.2524111" lon="13.6412412"><ele>49.66666666666667</ele><time>2026-05-06T09:31:06.392Z</time></trkpt><trkpt lat="37.2524122" lon="13.6411456"><ele>47.833333333333336</ele><time>2026-05-06T09:31:07.393Z</time></trkpt><trkpt lat="37.252406" lon="13.6410438"><ele>46.0</ele><time>2026-05-06T09:31:08.392Z</time></trkpt><trkpt lat="37.252391" lon="13.6409399"><ele>44.333333333333336</ele><time>2026-05-06T09:31:09.394Z</time></trkpt><trkpt lat="37.2523732" lon="13.6408378"><ele>42.66666666666667</ele><time>2026-05-06T09:31:10.393Z</time></trkpt><trkpt lat="37.2523428" lon="13.6407439"><ele>41.0</ele><time>2026-05-06T09:31:11.392Z</time></trkpt><trkpt lat="37.2523178" lon="13.6406591"><ele>39.333333333333336</ele><time>2026-05-06T09:31:12.392Z</time></trkpt><trkpt lat="37.2522937" lon="13.6405718"><ele>37.666666666666664</ele><time>2026-05-06T09:31:13.392Z</time></trkpt><trkpt lat="37.2522689" lon="13.64044"><ele>36.0</ele><time>2026-05-06T09:31:15.393Z</time></trkpt><trkpt lat="37.2522567" lon="13.6403498"><ele>35.0</ele><time>2026-05-06T09:31:18.393Z</time></trkpt><trkpt lat="37.2521765" lon="13.6403756"><ele>34.0</ele><time>2026-05-06T09:31:31.392Z</time></trkpt><trkpt lat="37.2521043" lon="13.640503"><ele>33.0</ele><time>2026-05-06T09:31:33.393Z</time></trkpt><trkpt lat="37.2520571" lon="13.640574"><ele>32.0</ele><time>2026-05-06T09:31:34.394Z</time></trkpt><trkpt lat="37.2519964" lon="13.6406496"><ele>31.0</ele><time>2026-05-06T09:31:35.393Z</time></trkpt><trkpt lat="37.2519319" lon="13.6407213"><ele>31.0</ele><time>2026-05-06T09:31:36.392Z</time></trkpt><trkpt lat="37.2518511" lon="13.6408074"><ele>31.0</ele><time>2026-05-06T09:31:37.393Z</time></trkpt><trkpt lat="37.2517764" lon="13.6408917"><ele>31.0</ele><time>2026-05-06T09:31:38.393Z</time></trkpt><trkpt lat="37.2516903" lon="13.6409862"><ele>31.0</ele><time>2026-05-06T09:31:39.394Z</time></trkpt><trkpt lat="37.2515985" lon="13.6410798"><ele>31.0</ele><time>2026-05-06T09:31:40.392Z</time></trkpt><trkpt lat="37.2515085" lon="13.6411755"><ele>32.0</ele><time>2026-05-06T09:31:41.392Z</time></trkpt><trkpt lat="37.2514197" lon="13.641276"><ele>33.0</ele><time>2026-05-06T09:31:42.394Z</time></trkpt><trkpt lat="37.2513293" lon="13.6413576"><ele>34.0</ele><time>2026-05-06T09:31:43.393Z</time></trkpt><trkpt lat="37.2512341" lon="13.6414086"><ele>35.0</ele><time>2026-05-06T09:31:44.392Z</time></trkpt><trkpt lat="37.2511258" lon="13.641427"><ele>36.0</ele><time>2026-05-06T09:31:45.392Z</time></trkpt><trkpt lat="37.2510209" lon="13.6414372"><ele>36.0</ele><time>2026-05-06T09:31:46.393Z</time></trkpt><trkpt lat="37.2509123" lon="13.6414494"><ele>36.0</ele><time>2026-05-06T09:31:47.392Z</time></trkpt><trkpt lat="37.2508038" lon="13.6414642"><ele>36.0</ele><time>2026-05-06T09:31:48.392Z</time></trkpt><trkpt lat="37.2506907" lon="13.6414942"><ele>36.0</ele><time>2026-05-06T09:31:49.393Z</time></trkpt><trkpt lat="37.2505779" lon="13.64153"><ele>34.6</ele><time>2026-05-06T09:31:50.393Z</time></trkpt><trkpt lat="37.2504646" lon="13.6415711"><ele>33.2</ele><time>2026-05-06T09:31:51.393Z</time></trkpt><trkpt lat="37.250362" lon="13.6416094"><ele>31.799999999999997</ele><time>2026-05-06T09:31:52.392Z</time></trkpt><trkpt lat="37.2502696" lon="13.6416486"><ele>30.4</ele><time>2026-05-06T09:31:53.392Z</time></trkpt><trkpt lat="37.2501859" lon="13.6416798"><ele>29.0</ele><time>2026-05-06T09:31:54.392Z</time></trkpt><trkpt lat="37.2501208" lon="13.6417028"><ele>29.0</ele><time>2026-05-06T09:31:55.393Z</time></trkpt><trkpt lat="37.2500165" lon="13.6417003"><ele>29.0</ele><time>2026-05-06T09:31:57.393Z</time></trkpt><trkpt lat="37.2499323" lon="13.6416717"><ele>29.0</ele><time>2026-05-06T09:31:59.392Z</time></trkpt><trkpt lat="37.2498697" lon="13.6415789"><ele>29.0</ele><time>2026-05-06T09:32:01.393Z</time></trkpt><trkpt lat="37.2498825" lon="13.6414429"><ele>29.0</ele><time>2026-05-06T09:32:03.393Z</time></trkpt><trkpt lat="37.2499203" lon="13.6413796"><ele>28.999999999999996</ele><time>2026-05-06T09:32:04.393Z</time></trkpt><trkpt lat="37.2499783" lon="13.6413253"><ele>29.0</ele><time>2026-05-06T09:32:05.392Z</time></trkpt><trkpt lat="37.2500484" lon="13.641274"><ele>29.0</ele><time>2026-05-06T09:32:06.393Z</time></trkpt><trkpt lat="37.2501212" lon="13.6412259"><ele>29.0</ele><time>2026-05-06T09:32:07.392Z</time></trkpt><trkpt lat="37.2501953" lon="13.6411836"><ele>28.999999999999996</ele><time>2026-05-06T09:32:08.392Z</time></trkpt><trkpt lat="37.2502676" lon="13.6411505"><ele>29.0</ele><time>2026-05-06T09:32:09.393Z</time></trkpt><trkpt lat="37.2503425" lon="13.6411199"><ele>28.71428571428572</ele><time>2026-05-06T09:32:10.393Z</time></trkpt><trkpt lat="37.2504186" lon="13.6410889"><ele>28.42857142857143</ele><time>2026-05-06T09:32:11.393Z</time></trkpt><trkpt lat="37.2504881" lon="13.6410546"><ele>28.142857142857146</ele><time>2026-05-06T09:32:12.392Z</time></trkpt><trkpt lat="37.2505503" lon="13.6410274"><ele>27.85714285714286</ele><time>2026-05-06T09:32:13.392Z</time></trkpt><trkpt lat="37.2506225" lon="13.6409838"><ele>27.57142857142857</ele><time>2026-05-06T09:32:15.393Z</time></trkpt><trkpt lat="37.2506548" lon="13.6409127"><ele>27.285714285714285</ele><time>2026-05-06T09:32:50.392Z</time></trkpt><trkpt lat="37.2506026" lon="13.6409664"><ele>27.0</ele><time>2026-05-06T09:32:52.392Z</time></trkpt><trkpt lat="37.2505005" lon="13.641046"><ele>27.400000000000002</ele><time>2026-05-06T09:32:54.393Z</time></trkpt><trkpt lat="37.2504125" lon="13.6410792"><ele>27.800000000000004</ele><time>2026-05-06T09:32:55.392Z</time></trkpt><trkpt lat="37.2503173" lon="13.6411213"><ele>28.2</ele><time>2026-05-06T09:32:56.392Z</time></trkpt><trkpt lat="37.2502189" lon="13.6411682"><ele>28.6</ele><time>2026-05-06T09:32:57.392Z</time></trkpt><trkpt lat="37.250132" lon="13.6412174"><ele>29.0</ele><time>2026-05-06T09:32:58.393Z</time></trkpt><trkpt lat="37.2500527" lon="13.641266"><ele>29.000000000000004</ele><time>2026-05-06T09:32:59.392Z</time></trkpt><trkpt lat="37.2499809" lon="13.6413159"><ele>29.0</ele><time>2026-05-06T09:33:00.392Z</time></trkpt><trkpt lat="37.2499249" lon="13.6413684"><ele>29.000000000000004</ele><time>2026-05-06T09:33:01.393Z</time></trkpt><trkpt lat="37.2498793" lon="13.6414327"><ele>29.000000000000004</ele><time>2026-05-06T09:33:02.392Z</time></trkpt><trkpt lat="37.2498777" lon="13.6415191"><ele>29.0</ele><time>2026-05-06T09:33:03.393Z</time></trkpt><trkpt lat="37.2498966" lon="13.6416008"><ele>29.000000000000004</ele><time>2026-05-06T09:33:04.393Z</time></trkpt><trkpt lat="37.2499452" lon="13.6416591"><ele>29.000000000000004</ele><time>2026-05-06T09:33:05.392Z</time></trkpt><trkpt lat="37.2500106" lon="13.6416949"><ele>29.0</ele><time>2026-05-06T09:33:06.392Z</time></trkpt><trkpt lat="37.2500722" lon="13.6417269"><ele>29.0</ele><time>2026-05-06T09:33:08.392Z</time></trkpt><trkpt lat="37.2501744" lon="13.6416977"><ele>29.0</ele><time>2026-05-06T09:33:29.393Z</time></trkpt><trkpt lat="37.2503013" lon="13.6416325"><ele>29.0</ele><time>2026-05-06T09:33:31.392Z</time></trkpt><trkpt lat="37.2503859" lon="13.641596"><ele>29.0</ele><time>2026-05-06T09:33:32.394Z</time></trkpt><trkpt lat="37.2504775" lon="13.6415596"><ele>29.0</ele><time>2026-05-06T09:33:33.392Z</time></trkpt><trkpt lat="37.2505794" lon="13.6415244"><ele>29.0</ele><time>2026-05-06T09:33:34.392Z</time></trkpt><trkpt lat="37.2506861" lon="13.6414894"><ele>29.0</ele><time>2026-05-06T09:33:35.392Z</time></trkpt><trkpt lat="37.2507964" lon="13.6414661"><ele>29.0</ele><time>2026-05-06T09:33:36.392Z</time></trkpt><trkpt lat="37.2509163" lon="13.6414487"><ele>29.0</ele><time>2026-05-06T09:33:37.392Z</time></trkpt><trkpt lat="37.2510302" lon="13.6414434"><ele>30.4</ele><time>2026-05-06T09:33:38.392Z</time></trkpt><trkpt lat="37.2511408" lon="13.6414292"><ele>31.799999999999997</ele><time>2026-05-06T09:33:39.392Z</time></trkpt><trkpt lat="37.2512405" lon="13.6414074"><ele>33.2</ele><time>2026-05-06T09:33:40.393Z</time></trkpt><trkpt lat="37.2513434" lon="13.6413722"><ele>34.6</ele><time>2026-05-06T09:33:41.392Z</time></trkpt><trkpt lat="37.2514335" lon="13.6412668"><ele>36.0</ele><time>2026-05-06T09:33:42.393Z</time></trkpt><trkpt lat="37.2515234" lon="13.6411485"><ele>34.75</ele><time>2026-05-06T09:33:43.392Z</time></trkpt><trkpt lat="37.2516204" lon="13.6410418"><ele>33.5</ele><time>2026-05-06T09:33:44.392Z</time></trkpt><trkpt lat="37.2517247" lon="13.6409272"><ele>32.25</ele><time>2026-05-06T09:33:45.392Z</time></trkpt><trkpt lat="37.2518393" lon="13.6408082"><ele>31.0</ele><time>2026-05-06T09:33:46.392Z</time></trkpt><trkpt lat="37.2519392" lon="13.6406992"><ele>31.0</ele><time>2026-05-06T09:33:47.392Z</time></trkpt><trkpt lat="37.2520216" lon="13.6406001"><ele>31.0</ele><time>2026-05-06T09:33:48.392Z</time></trkpt><trkpt lat="37.2520992" lon="13.6405145"><ele>31.0</ele><time>2026-05-06T09:33:49.392Z</time></trkpt><trkpt lat="37.2521602" lon="13.6404404"><ele>31.0</ele><time>2026-05-06T09:33:50.392Z</time></trkpt><trkpt lat="37.2522222" lon="13.6403815"><ele>31.0</ele><time>2026-05-06T09:33:52.392Z</time></trkpt><trkpt lat="37.2522789" lon="13.6404435"><ele>32.0</ele><time>2026-05-06T09:33:54.393Z</time></trkpt><trkpt lat="37.2523108" lon="13.6406048"><ele>33.0</ele><time>2026-05-06T09:33:56.392Z</time></trkpt><trkpt lat="37.2523279" lon="13.640696"><ele>34.0</ele><time>2026-05-06T09:33:57.392Z</time></trkpt><trkpt lat="37.2523484" lon="13.6408046"><ele>35.0</ele><time>2026-05-06T09:33:58.392Z</time></trkpt><trkpt lat="37.2523699" lon="13.6409293"><ele>36.0</ele><time>2026-05-06T09:33:59.393Z</time></trkpt><trkpt lat="37.2523903" lon="13.6410481"><ele>38.0</ele><time>2026-05-06T09:34:00.393Z</time></trkpt><trkpt lat="37.2523971" lon="13.641167"><ele>40.0</ele><time>2026-05-06T09:34:01.392Z</time></trkpt><trkpt lat="37.2523923" lon="13.6413008"><ele>42.0</ele><time>2026-05-06T09:34:02.393Z</time></trkpt><trkpt lat="37.2523725" lon="13.6414385"><ele>44.0</ele><time>2026-05-06T09:34:03.392Z</time></trkpt><trkpt lat="37.2523389" lon="13.6415833"><ele>46.0</ele><time>2026-05-06T09:34:04.393Z</time></trkpt><trkpt lat="37.252292" lon="13.6417284"><ele>45.5</ele><time>2026-05-06T09:34:05.393Z</time></trkpt><trkpt lat="37.2522472" lon="13.641863"><ele>45.0</ele><time>2026-05-06T09:34:06.392Z</time></trkpt><trkpt lat="37.2521922" lon="13.6420044"><ele>44.5</ele><time>2026-05-06T09:34:07.392Z</time></trkpt><trkpt lat="37.2521276" lon="13.6421339"><ele>44.0</ele><time>2026-05-06T09:34:08.392Z</time></trkpt><trkpt lat="37.2520618" lon="13.6422518"><ele>46.6</ele><time>2026-05-06T09:34:09.393Z</time></trkpt><trkpt lat="37.252005" lon="13.6423692"><ele>49.2</ele><time>2026-05-06T09:34:10.392Z</time></trkpt><trkpt lat="37.2519649" lon="13.6424837"><ele>51.800000000000004</ele><time>2026-05-06T09:34:11.393Z</time></trkpt><trkpt lat="37.2519332" lon="13.6425981"><ele>54.400000000000006</ele><time>2026-05-06T09:34:12.393Z</time></trkpt><trkpt lat="37.2519061" lon="13.6427109"><ele>57.0</ele><time>2026-05-06T09:34:13.393Z</time></trkpt><trkpt lat="37.2518969" lon="13.6428243"><ele>57.166666666666664</ele><time>2026-05-06T09:34:14.393Z</time></trkpt><trkpt lat="37.2519129" lon="13.6429266"><ele>57.33333333333333</ele><time>2026-05-06T09:34:15.393Z</time></trkpt><trkpt lat="37.2519507" lon="13.6430091"><ele>57.5</ele><time>2026-05-06T09:34:16.392Z</time></trkpt><trkpt lat="37.251992" lon="13.6430831"><ele>57.666666666666664</ele><time>2026-05-06T09:34:17.393Z</time></trkpt><trkpt lat="37.2520475" lon="13.6431528"><ele>57.83333333333333</ele><time>2026-05-06T09:34:18.393Z</time></trkpt><trkpt lat="37.2521116" lon="13.64322"><ele>58.0</ele><time>2026-05-06T09:34:19.392Z</time></trkpt><trkpt lat="37.2521951" lon="13.6432731"><ele>58.0</ele><time>2026-05-06T09:34:20.392Z</time></trkpt><trkpt lat="37.2522946" lon="13.6433195"><ele>58.0</ele><time>2026-05-06T09:34:21.393Z</time></trkpt><trkpt lat="37.2524055" lon="13.6433644"><ele>58.0</ele><time>2026-05-06T09:34:22.392Z</time></trkpt><trkpt lat="37.2525232" lon="13.6434131"><ele>58.0</ele><time>2026-05-06T09:34:23.392Z</time></trkpt><trkpt lat="37.2526442" lon="13.6434768"><ele>58.0</ele><time>2026-05-06T09:34:24.392Z</time></trkpt><trkpt lat="37.252773" lon="13.6435468"><ele>58.0</ele><time>2026-05-06T09:34:25.392Z</time></trkpt><trkpt lat="37.2529075" lon="13.6436272"><ele>58.0</ele><time>2026-05-06T09:34:26.392Z</time></trkpt><trkpt lat="37.2530312" lon="13.643711"><ele>58.0</ele><time>2026-05-06T09:34:27.393Z</time></trkpt><trkpt lat="37.2531573" lon="13.6437963"><ele>58.25</ele><time>2026-05-06T09:34:28.392Z</time></trkpt><trkpt lat="37.2532774" lon="13.6438865"><ele>58.5</ele><time>2026-05-06T09:34:29.393Z</time></trkpt><trkpt lat="37.2534001" lon="13.6439738"><ele>58.75</ele><time>2026-05-06T09:34:30.392Z</time></trkpt><trkpt lat="37.2535171" lon="13.6440614"><ele>59.0</ele><time>2026-05-06T09:34:31.392Z</time></trkpt><trkpt lat="37.2536323" lon="13.6441482"><ele>59.0</ele><time>2026-05-06T09:34:32.392Z</time></trkpt><trkpt lat="37.2537411" lon="13.644232"><ele>59.0</ele><time>2026-05-06T09:34:33.393Z</time></trkpt><trkpt lat="37.2538392" lon="13.6443088"><ele>59.0</ele><time>2026-05-06T09:34:34.392Z</time></trkpt><trkpt lat="37.2539311" lon="13.64438"><ele>59.0</ele><time>2026-05-06T09:34:35.392Z</time></trkpt><trkpt lat="37.2540117" lon="13.6444654"><ele>59.6</ele><time>2026-05-06T09:34:36.392Z</time></trkpt><trkpt lat="37.254079" lon="13.6445626"><ele>60.2</ele><time>2026-05-06T09:34:37.392Z</time></trkpt><trkpt lat="37.2541384" lon="13.6446782"><ele>60.800000000000004</ele><time>2026-05-06T09:34:38.392Z</time></trkpt><trkpt lat="37.2541826" lon="13.6448097"><ele>61.400000000000006</ele><time>2026-05-06T09:34:39.393Z</time></trkpt><trkpt lat="37.2542255" lon="13.6449319"><ele>62.0</ele><time>2026-05-06T09:34:40.393Z</time></trkpt><trkpt lat="37.2542748" lon="13.6450492"><ele>62.0</ele><time>2026-05-06T09:34:41.395Z</time></trkpt><trkpt lat="37.2543276" lon="13.6451584"><ele>62.0</ele><time>2026-05-06T09:34:42.392Z</time></trkpt><trkpt lat="37.254387" lon="13.6452619"><ele>62.0</ele><time>2026-05-06T09:34:43.393Z</time></trkpt><trkpt lat="37.2544516" lon="13.645373"><ele>62.0</ele><time>2026-05-06T09:34:44.392Z</time></trkpt><trkpt lat="37.2545204" lon="13.6454703"><ele>62.0</ele><time>2026-05-06T09:34:45.392Z</time></trkpt><trkpt lat="37.2545928" lon="13.6455765"><ele>62.25</ele><time>2026-05-06T09:34:46.392Z</time></trkpt><trkpt lat="37.254664" lon="13.6456822"><ele>62.5</ele><time>2026-05-06T09:34:47.392Z</time></trkpt><trkpt lat="37.254733" lon="13.6457895"><ele>62.75</ele><time>2026-05-06T09:34:48.393Z</time></trkpt><trkpt lat="37.2548063" lon="13.6459055"><ele>63.0</ele><time>2026-05-06T09:34:49.392Z</time></trkpt><trkpt lat="37.254883" lon="13.6460257"><ele>63.5</ele><time>2026-05-06T09:34:50.392Z</time></trkpt><trkpt lat="37.2549634" lon="13.6461478"><ele>64.0</ele><time>2026-05-06T09:34:51.393Z</time></trkpt><trkpt lat="37.2550442" lon="13.6462682"><ele>64.5</ele><time>2026-05-06T09:34:52.392Z</time></trkpt><trkpt lat="37.2551335" lon="13.6463861"><ele>65.0</ele><time>2026-05-06T09:34:53.392Z</time></trkpt><trkpt lat="37.2552168" lon="13.646504"><ele>65.0</ele><time>2026-05-06T09:34:54.392Z</time></trkpt><trkpt lat="37.2552992" lon="13.6466166"><ele>65.0</ele><time>2026-05-06T09:34:55.392Z</time></trkpt><trkpt lat="37.2553831" lon="13.6467305"><ele>65.0</ele><time>2026-05-06T09:34:56.392Z</time></trkpt><trkpt lat="37.2554718" lon="13.6468425"><ele>65.0</ele><time>2026-05-06T09:34:57.393Z</time></trkpt><trkpt lat="37.2555583" lon="13.6469598"><ele>65.75</ele><time>2026-05-06T09:34:58.393Z</time></trkpt><trkpt lat="37.2556458" lon="13.6470718"><ele>66.5</ele><time>2026-05-06T09:34:59.393Z</time></trkpt><trkpt lat="37.2557301" lon="13.6471803"><ele>67.25</ele><time>2026-05-06T09:35:00.392Z</time></trkpt><trkpt lat="37.2558178" lon="13.6472859"><ele>68.0</ele><time>2026-05-06T09:35:01.392Z</time></trkpt><trkpt lat="37.2559134" lon="13.6473911"><ele>68.0</ele><time>2026-05-06T09:35:02.392Z</time></trkpt><trkpt lat="37.2560073" lon="13.6474883"><ele>68.0</ele><time>2026-05-06T09:35:03.393Z</time></trkpt><trkpt lat="37.2561079" lon="13.6475825"><ele>68.0</ele><time>2026-05-06T09:35:04.392Z</time></trkpt><trkpt lat="37.2562142" lon="13.6476715"><ele>68.0</ele><time>2026-05-06T09:35:05.393Z</time></trkpt><trkpt lat="37.2563198" lon="13.6477561"><ele>67.8</ele><time>2026-05-06T09:35:06.392Z</time></trkpt><trkpt lat="37.2564249" lon="13.647806"><ele>67.6</ele><time>2026-05-06T09:35:07.393Z</time></trkpt><trkpt lat="37.2565352" lon="13.64783"><ele>67.4</ele><time>2026-05-06T09:35:08.394Z</time></trkpt><trkpt lat="37.256634" lon="13.6478657"><ele>67.2</ele><time>2026-05-06T09:35:09.393Z</time></trkpt><trkpt lat="37.256724" lon="13.6479044"><ele>67.0</ele><time>2026-05-06T09:35:10.392Z</time></trkpt><trkpt lat="37.2568072" lon="13.6479771"><ele>67.6</ele><time>2026-05-06T09:35:11.392Z</time></trkpt><trkpt lat="37.2568851" lon="13.6480613"><ele>68.2</ele><time>2026-05-06T09:35:12.392Z</time></trkpt><trkpt lat="37.2569601" lon="13.6481466"><ele>68.8</ele><time>2026-05-06T09:35:13.393Z</time></trkpt><trkpt lat="37.257036" lon="13.6482206"><ele>69.4</ele><time>2026-05-06T09:35:14.392Z</time></trkpt><trkpt lat="37.2571147" lon="13.6482872"><ele>70.0</ele><time>2026-05-06T09:35:15.393Z</time></trkpt><trkpt lat="37.2571882" lon="13.6483521"><ele>70.0</ele><time>2026-05-06T09:35:16.393Z</time></trkpt><trkpt lat="37.257272" lon="13.6484003"><ele>70.0</ele><time>2026-05-06T09:35:17.392Z</time></trkpt><trkpt lat="37.2573559" lon="13.6484475"><ele>70.0</ele><time>2026-05-06T09:35:18.392Z</time></trkpt><trkpt lat="37.2574462" lon="13.6484869"><ele>70.0</ele><time>2026-05-06T09:35:19.392Z</time></trkpt><trkpt lat="37.2575341" lon="13.6485251"><ele>70.0</ele><time>2026-05-06T09:35:20.392Z</time></trkpt><trkpt lat="37.257628" lon="13.6485574"><ele>69.8</ele><time>2026-05-06T09:35:21.392Z</time></trkpt><trkpt lat="37.2577182" lon="13.6485975"><ele>69.6</ele><time>2026-05-06T09:35:22.393Z</time></trkpt><trkpt lat="37.2578016" lon="13.6486382"><ele>69.4</ele><time>2026-05-06T09:35:23.393Z</time></trkpt><trkpt lat="37.2578883" lon="13.6486671"><ele>69.2</ele><time>2026-05-06T09:35:24.392Z</time></trkpt><trkpt lat="37.2579668" lon="13.6487145"><ele>69.0</ele><time>2026-05-06T09:35:25.393Z</time></trkpt><trkpt lat="37.2580456" lon="13.6487721"><ele>68.66666666666667</ele><time>2026-05-06T09:35:26.392Z</time></trkpt><trkpt lat="37.2581194" lon="13.6488231"><ele>68.33333333333333</ele><time>2026-05-06T09:35:27.393Z</time></trkpt><trkpt lat="37.2581938" lon="13.6488672"><ele>68.0</ele><time>2026-05-06T09:35:28.393Z</time></trkpt><trkpt lat="37.2582669" lon="13.6488934"><ele>67.66666666666666</ele><time>2026-05-06T09:35:29.393Z</time></trkpt><trkpt lat="37.2583501" lon="13.6488962"><ele>67.33333333333333</ele><time>2026-05-06T09:35:30.392Z</time></trkpt><trkpt lat="37.2584421" lon="13.6488891"><ele>67.0</ele><time>2026-05-06T09:35:31.392Z</time></trkpt><trkpt lat="37.2585609" lon="13.6488576"><ele>67.0</ele><time>2026-05-06T09:35:32.392Z</time></trkpt><trkpt lat="37.25868" lon="13.6488283"><ele>67.0</ele><time>2026-05-06T09:35:33.392Z</time></trkpt><trkpt lat="37.2587993" lon="13.6487844"><ele>67.0</ele><time>2026-05-06T09:35:34.393Z</time></trkpt><trkpt lat="37.2588929" lon="13.6487061"><ele>67.0</ele><time>2026-05-06T09:35:35.392Z</time></trkpt><trkpt lat="37.2589849" lon="13.6486251"><ele>67.6</ele><time>2026-05-06T09:35:36.392Z</time></trkpt><trkpt lat="37.2590514" lon="13.6485232"><ele>68.2</ele><time>2026-05-06T09:35:37.393Z</time></trkpt><trkpt lat="37.259129" lon="13.6484279"><ele>68.8</ele><time>2026-05-06T09:35:38.393Z</time></trkpt><trkpt lat="37.2592073" lon="13.6483314"><ele>69.4</ele><time>2026-05-06T09:35:39.392Z</time></trkpt><trkpt lat="37.2593143" lon="13.6482544"><ele>70.0</ele><time>2026-05-06T09:35:40.393Z</time></trkpt><trkpt lat="37.2594364" lon="13.6481912"><ele>70.0</ele><time>2026-05-06T09:35:41.393Z</time></trkpt><trkpt lat="37.2595478" lon="13.648141"><ele>70.0</ele><time>2026-05-06T09:35:42.393Z</time></trkpt><trkpt lat="37.2596568" lon="13.6480965"><ele>70.0</ele><time>2026-05-06T09:35:43.393Z</time></trkpt><trkpt lat="37.2597554" lon="13.6480572"><ele>70.0</ele><time>2026-05-06T09:35:44.392Z</time></trkpt><trkpt lat="37.259859" lon="13.648026"><ele>70.0</ele><time>2026-05-06T09:35:45.392Z</time></trkpt><trkpt lat="37.2599638" lon="13.6480057"><ele>71.25</ele><time>2026-05-06T09:35:46.393Z</time></trkpt><trkpt lat="37.2600748" lon="13.6479869"><ele>72.5</ele><time>2026-05-06T09:35:47.392Z</time></trkpt><trkpt lat="37.2601832" lon="13.6479838"><ele>73.75</ele><time>2026-05-06T09:35:48.392Z</time></trkpt><trkpt lat="37.2603056" lon="13.6479844"><ele>75.0</ele><time>2026-05-06T09:35:49.393Z</time></trkpt><trkpt lat="37.2604298" lon="13.6479918"><ele>75.0</ele><time>2026-05-06T09:35:50.392Z</time></trkpt><trkpt lat="37.2605568" lon="13.6480109"><ele>75.0</ele><time>2026-05-06T09:35:51.392Z</time></trkpt><trkpt lat="37.2606877" lon="13.6480367"><ele>75.0</ele><time>2026-05-06T09:35:52.392Z</time></trkpt><trkpt lat="37.2608178" lon="13.6480679"><ele>75.0</ele><time>2026-05-06T09:35:53.394Z</time></trkpt><trkpt lat="37.26094" lon="13.6480884"><ele>75.4</ele><time>2026-05-06T09:35:54.393Z</time></trkpt><trkpt lat="37.2610506" lon="13.6481026"><ele>75.8</ele><time>2026-05-06T09:35:55.393Z</time></trkpt><trkpt lat="37.2611511" lon="13.648123"><ele>76.2</ele><time>2026-05-06T09:35:56.393Z</time></trkpt><trkpt lat="37.2612503" lon="13.6481428"><ele>76.6</ele><time>2026-05-06T09:35:57.392Z</time></trkpt><trkpt lat="37.2613419" lon="13.6481623"><ele>77.0</ele><time>2026-05-06T09:35:58.392Z</time></trkpt><trkpt lat="37.2614367" lon="13.6481766"><ele>77.2</ele><time>2026-05-06T09:35:59.392Z</time></trkpt><trkpt lat="37.2615321" lon="13.6481891"><ele>77.4</ele><time>2026-05-06T09:36:00.393Z</time></trkpt><trkpt lat="37.2616417" lon="13.6482064"><ele>77.6</ele><time>2026-05-06T09:36:01.392Z</time></trkpt><trkpt lat="37.2617517" lon="13.6482421"><ele>77.8</ele><time>2026-05-06T09:36:02.392Z</time></trkpt><trkpt lat="37.2618681" lon="13.6482906"><ele>78.0</ele><time>2026-05-06T09:36:03.393Z</time></trkpt><trkpt lat="37.2619925" lon="13.6483357"><ele>78.0</ele><time>2026-05-06T09:36:04.392Z</time></trkpt><trkpt lat="37.2621189" lon="13.648379"><ele>78.0</ele><time>2026-05-06T09:36:05.393Z</time></trkpt><trkpt lat="37.2622532" lon="13.6484354"><ele>78.0</ele><time>2026-05-06T09:36:06.392Z</time></trkpt><trkpt lat="37.2623835" lon="13.6484851"><ele>78.0</ele><time>2026-05-06T09:36:07.392Z</time></trkpt><trkpt lat="37.2624987" lon="13.6485402"><ele>78.2</ele><time>2026-05-06T09:36:08.394Z</time></trkpt><trkpt lat="37.2626092" lon="13.648578"><ele>78.4</ele><time>2026-05-06T09:36:09.393Z</time></trkpt><trkpt lat="37.2627073" lon="13.6486299"><ele>78.60000000000001</ele><time>2026-05-06T09:36:10.392Z</time></trkpt><trkpt lat="37.2627921" lon="13.6486842"><ele>78.8</ele><time>2026-05-06T09:36:11.392Z</time></trkpt><trkpt lat="37.2628723" lon="13.6487334"><ele>79.0</ele><time>2026-05-06T09:36:12.392Z</time></trkpt><trkpt lat="37.2629471" lon="13.6487759"><ele>79.2</ele><time>2026-05-06T09:36:13.392Z</time></trkpt><trkpt lat="37.2630138" lon="13.6488153"><ele>79.4</ele><time>2026-05-06T09:36:14.392Z</time></trkpt><trkpt lat="37.2630966" lon="13.6488788"><ele>79.6</ele><time>2026-05-06T09:36:16.393Z</time></trkpt><trkpt lat="37.2631408" lon="13.6489846"><ele>79.8</ele><time>2026-05-06T09:36:24.392Z</time></trkpt><trkpt lat="37.2631707" lon="13.649135"><ele>80.0</ele><time>2026-05-06T09:36:26.392Z</time></trkpt><trkpt lat="37.263202" lon="13.6492043"><ele>80.4</ele><time>2026-05-06T09:36:27.392Z</time></trkpt><trkpt lat="37.2633327" lon="13.6493201"><ele>80.8</ele><time>2026-05-06T09:36:29.393Z</time></trkpt><trkpt lat="37.2633995" lon="13.6493876"><ele>81.19999999999999</ele><time>2026-05-06T09:36:30.393Z</time></trkpt><trkpt lat="37.2634555" lon="13.6494557"><ele>81.6</ele><time>2026-05-06T09:36:31.393Z</time></trkpt><trkpt lat="37.2635078" lon="13.6495218"><ele>82.0</ele><time>2026-05-06T09:36:32.392Z</time></trkpt><trkpt lat="37.2635562" lon="13.6495821"><ele>82.33333333333333</ele><time>2026-05-06T09:36:33.392Z</time></trkpt><trkpt lat="37.2636018" lon="13.6496389"><ele>82.66666666666666</ele><time>2026-05-06T09:36:34.393Z</time></trkpt><trkpt lat="37.2636715" lon="13.6497413"><ele>83.0</ele><time>2026-05-06T09:36:36.392Z</time></trkpt><trkpt lat="37.2637107" lon="13.649815"><ele>83.33333333333333</ele><time>2026-05-06T09:36:39.392Z</time></trkpt><trkpt lat="37.263652" lon="13.6497504"><ele>83.66666666666667</ele><time>2026-05-06T09:37:01.392Z</time></trkpt><trkpt lat="37.2635849" lon="13.6497895"><ele>84.0</ele><time>2026-05-06T09:37:03.392Z</time></trkpt><trkpt lat="37.2635438" lon="13.649919"><ele>84.0</ele><time>2026-05-06T09:37:05.392Z</time></trkpt><trkpt lat="37.2635089" lon="13.6500031"><ele>84.0</ele><time>2026-05-06T09:37:06.393Z</time></trkpt><trkpt lat="37.2634737" lon="13.6501024"><ele>84.0</ele><time>2026-05-06T09:37:07.393Z</time></trkpt><trkpt lat="37.2634327" lon="13.6502093"><ele>84.0</ele><time>2026-05-06T09:37:08.392Z</time></trkpt><trkpt lat="37.2633901" lon="13.6503263"><ele>84.0</ele><time>2026-05-06T09:37:09.392Z</time></trkpt><trkpt lat="37.2633508" lon="13.6504494"><ele>84.25</ele><time>2026-05-06T09:37:10.392Z</time></trkpt><trkpt lat="37.2633152" lon="13.6505777"><ele>84.5</ele><time>2026-05-06T09:37:11.392Z</time></trkpt><trkpt lat="37.2632781" lon="13.6507189"><ele>84.75</ele><time>2026-05-06T09:37:12.393Z</time></trkpt><trkpt lat="37.2632482" lon="13.6508474"><ele>85.0</ele><time>2026-05-06T09:37:13.393Z</time></trkpt><trkpt lat="37.2632114" lon="13.650996"><ele>85.0</ele><time>2026-05-06T09:37:14.393Z</time></trkpt><trkpt lat="37.2631696" lon="13.6511443"><ele>85.0</ele><time>2026-05-06T09:37:15.392Z</time></trkpt><trkpt lat="37.2631342" lon="13.6512846"><ele>85.0</ele><time>2026-05-06T09:37:16.392Z</time></trkpt><trkpt lat="37.2631018" lon="13.6514215"><ele>85.0</ele><time>2026-05-06T09:37:17.392Z</time></trkpt><trkpt lat="37.2630737" lon="13.6515444"><ele>85.0</ele><time>2026-05-06T09:37:18.392Z</time></trkpt><trkpt lat="37.2630438" lon="13.6516746"><ele>85.0</ele><time>2026-05-06T09:37:19.393Z</time></trkpt><trkpt lat="37.2630122" lon="13.6518038"><ele>85.0</ele><time>2026-05-06T09:37:20.392Z</time></trkpt><trkpt lat="37.2629819" lon="13.6519375"><ele>85.0</ele><time>2026-05-06T09:37:21.394Z</time></trkpt><trkpt lat="37.2629526" lon="13.6520785"><ele>85.0</ele><time>2026-05-06T09:37:22.393Z</time></trkpt><trkpt lat="37.2629219" lon="13.6522137"><ele>85.0</ele><time>2026-05-06T09:37:23.393Z</time></trkpt><trkpt lat="37.2628935" lon="13.6523379"><ele>85.0</ele><time>2026-05-06T09:37:24.392Z</time></trkpt><trkpt lat="37.2628667" lon="13.6524646"><ele>85.0</ele><time>2026-05-06T09:37:25.391Z</time></trkpt><trkpt lat="37.2628378" lon="13.6525868"><ele>85.0</ele><time>2026-05-06T09:37:26.393Z</time></trkpt><trkpt lat="37.2628067" lon="13.6527078"><ele>85.0</ele><time>2026-05-06T09:37:27.393Z</time></trkpt><trkpt lat="37.2627779" lon="13.6528287"><ele>85.2</ele><time>2026-05-06T09:37:28.393Z</time></trkpt><trkpt lat="37.2627488" lon="13.6529454"><ele>85.4</ele><time>2026-05-06T09:37:29.392Z</time></trkpt><trkpt lat="37.2627228" lon="13.6530728"><ele>85.6</ele><time>2026-05-06T09:37:30.391Z</time></trkpt><trkpt lat="37.2627" lon="13.653203"><ele>85.8</ele><time>2026-05-06T09:37:31.392Z</time></trkpt><trkpt lat="37.2626822" lon="13.6533381"><ele>86.0</ele><time>2026-05-06T09:37:32.392Z</time></trkpt><trkpt lat="37.2626652" lon="13.6534578"><ele>86.0</ele><time>2026-05-06T09:37:33.393Z</time></trkpt><trkpt lat="37.2626551" lon="13.6535791"><ele>86.0</ele><time>2026-05-06T09:37:34.393Z</time></trkpt><trkpt lat="37.2626474" lon="13.65369"><ele>86.0</ele><time>2026-05-06T09:37:35.391Z</time></trkpt><trkpt lat="37.2626388" lon="13.65381"><ele>86.0</ele><time>2026-05-06T09:37:36.392Z</time></trkpt><trkpt lat="37.2626233" lon="13.653919"><ele>86.0</ele><time>2026-05-06T09:37:37.392Z</time></trkpt><trkpt lat="37.2626083" lon="13.654014"><ele>86.0</ele><time>2026-05-06T09:37:38.392Z</time></trkpt><trkpt lat="37.262596" lon="13.6541008"><ele>86.19999999999999</ele><time>2026-05-06T09:37:39.393Z</time></trkpt><trkpt lat="37.2625729" lon="13.6542308"><ele>86.39999999999999</ele><time>2026-05-06T09:37:41.393Z</time></trkpt><trkpt lat="37.2625523" lon="13.654322"><ele>86.6</ele><time>2026-05-06T09:37:43.393Z</time></trkpt><trkpt lat="37.2625219" lon="13.6544272"><ele>86.8</ele><time>2026-05-06T09:37:46.392Z</time></trkpt><trkpt lat="37.2624952" lon="13.6545522"><ele>87.0</ele><time>2026-05-06T09:37:49.392Z</time></trkpt><trkpt lat="37.2624696" lon="13.6546672"><ele>87.0</ele><time>2026-05-06T09:37:51.392Z</time></trkpt><trkpt lat="37.2624431" lon="13.6547832"><ele>87.0</ele><time>2026-05-06T09:37:53.393Z</time></trkpt><trkpt lat="37.2624169" lon="13.654903"><ele>87.0</ele><time>2026-05-06T09:37:55.392Z</time></trkpt><trkpt lat="37.2623962" lon="13.6549831"><ele>87.0</ele><time>2026-05-06T09:37:57.392Z</time></trkpt><trkpt lat="37.2624166" lon="13.6549048"><ele>87.0</ele><time>2026-05-06T09:38:09.392Z</time></trkpt><trkpt lat="37.2624386" lon="13.6547834"><ele>87.0</ele><time>2026-05-06T09:38:11.392Z</time></trkpt><trkpt lat="37.2624635" lon="13.6546549"><ele>87.0</ele><time>2026-05-06T09:38:13.392Z</time></trkpt><trkpt lat="37.2624887" lon="13.6545318"><ele>87.0</ele><time>2026-05-06T09:38:15.393Z</time></trkpt><trkpt lat="37.2625182" lon="13.6544279"><ele>87.0</ele><time>2026-05-06T09:38:17.391Z</time></trkpt><trkpt lat="37.2625553" lon="13.6543401"><ele>87.0</ele><time>2026-05-06T09:38:19.393Z</time></trkpt><trkpt lat="37.262582" lon="13.6542229"><ele>87.0</ele><time>2026-05-06T09:38:21.394Z</time></trkpt><trkpt lat="37.2626027" lon="13.654109"><ele>87.19999999999999</ele><time>2026-05-06T09:38:23.392Z</time></trkpt><trkpt lat="37.2626145" lon="13.6539646"><ele>87.4</ele><time>2026-05-06T09:38:25.392Z</time></trkpt><trkpt lat="37.2626229" lon="13.6538859"><ele>87.6</ele><time>2026-05-06T09:38:26.393Z</time></trkpt><trkpt lat="37.2626358" lon="13.6538013"><ele>87.80000000000001</ele><time>2026-05-06T09:38:27.392Z</time></trkpt><trkpt lat="37.2626517" lon="13.6536474"><ele>88.0</ele><time>2026-05-06T09:38:29.393Z</time></trkpt><trkpt lat="37.2626638" lon="13.6535031"><ele>87.66666666666666</ele><time>2026-05-06T09:38:31.393Z</time></trkpt><trkpt lat="37.2626686" lon="13.6534234"><ele>87.33333333333333</ele><time>2026-05-06T09:38:32.392Z</time></trkpt><trkpt lat="37.2626772" lon="13.6533337"><ele>87.0</ele><time>2026-05-06T09:38:33.392Z</time></trkpt><trkpt lat="37.2626901" lon="13.6532331"><ele>86.66666666666667</ele><time>2026-05-06T09:38:34.391Z</time></trkpt><trkpt lat="37.2627133" lon="13.6531142"><ele>86.33333333333334</ele><time>2026-05-06T09:38:35.392Z</time></trkpt><trkpt lat="37.2627353" lon="13.6530157"><ele>86.0</ele><time>2026-05-06T09:38:36.393Z</time></trkpt><trkpt lat="37.2627575" lon="13.6529169"><ele>86.00000000000001</ele><time>2026-05-06T09:38:37.392Z</time></trkpt><trkpt lat="37.2627777" lon="13.6528297"><ele>86.0</ele><time>2026-05-06T09:38:38.392Z</time></trkpt><trkpt lat="37.2628016" lon="13.6527401"><ele>86.0</ele><time>2026-05-06T09:38:39.393Z</time></trkpt><trkpt lat="37.2628251" lon="13.6526523"><ele>86.0</ele><time>2026-05-06T09:38:40.392Z</time></trkpt><trkpt lat="37.2628453" lon="13.6525687"><ele>86.0</ele><time>2026-05-06T09:38:41.392Z</time></trkpt><trkpt lat="37.2628655" lon="13.6524749"><ele>86.00000000000001</ele><time>2026-05-06T09:38:42.393Z</time></trkpt><trkpt lat="37.2628858" lon="13.6523818"><ele>86.0</ele><time>2026-05-06T09:38:43.392Z</time></trkpt><trkpt lat="37.262903" lon="13.6522859"><ele>85.83333333333334</ele><time>2026-05-06T09:38:44.392Z</time></trkpt><trkpt lat="37.262919" lon="13.652178"><ele>85.66666666666667</ele><time>2026-05-06T09:38:45.392Z</time></trkpt><trkpt lat="37.2629404" lon="13.6520789"><ele>85.5</ele><time>2026-05-06T09:38:46.391Z</time></trkpt><trkpt lat="37.2629635" lon="13.6519777"><ele>85.33333333333333</ele><time>2026-05-06T09:38:47.392Z</time></trkpt><trkpt lat="37.2629831" lon="13.651875"><ele>85.16666666666666</ele><time>2026-05-06T09:38:48.393Z</time></trkpt><trkpt lat="37.2630081" lon="13.651766"><ele>85.0</ele><time>2026-05-06T09:38:49.392Z</time></trkpt><trkpt lat="37.2630345" lon="13.651666"><ele>85.0</ele><time>2026-05-06T09:38:50.392Z</time></trkpt><trkpt lat="37.2630579" lon="13.6515673"><ele>85.0</ele><time>2026-05-06T09:38:51.392Z</time></trkpt><trkpt lat="37.2630912" lon="13.6514766"><ele>85.0</ele><time>2026-05-06T09:38:52.392Z</time></trkpt><trkpt lat="37.2631153" lon="13.6513788"><ele>85.0</ele><time>2026-05-06T09:38:53.392Z</time></trkpt><trkpt lat="37.2631395" lon="13.6512842"><ele>85.0</ele><time>2026-05-06T09:38:54.392Z</time></trkpt><trkpt lat="37.2631602" lon="13.6511889"><ele>85.0</ele><time>2026-05-06T09:38:55.392Z</time></trkpt><trkpt lat="37.2631836" lon="13.6510898"><ele>85.0</ele><time>2026-05-06T09:38:56.391Z</time></trkpt><trkpt lat="37.2632099" lon="13.6509936"><ele>85.0</ele><time>2026-05-06T09:38:57.392Z</time></trkpt><trkpt lat="37.2632359" lon="13.6508941"><ele>85.0</ele><time>2026-05-06T09:38:58.392Z</time></trkpt><trkpt lat="37.2632648" lon="13.6507886"><ele>85.0</ele><time>2026-05-06T09:38:59.392Z</time></trkpt><trkpt lat="37.2632944" lon="13.6506734"><ele>85.0</ele><time>2026-05-06T09:39:00.392Z</time></trkpt><trkpt lat="37.2633275" lon="13.6505642"><ele>85.0</ele><time>2026-05-06T09:39:01.393Z</time></trkpt><trkpt lat="37.2633607" lon="13.6504523"><ele>85.0</ele><time>2026-05-06T09:39:02.391Z</time></trkpt><trkpt lat="37.2633935" lon="13.6503496"><ele>85.0</ele><time>2026-05-06T09:39:03.392Z</time></trkpt><trkpt lat="37.2634272" lon="13.650244"><ele>85.0</ele><time>2026-05-06T09:39:04.391Z</time></trkpt><trkpt lat="37.2634592" lon="13.6501492"><ele>85.0</ele><time>2026-05-06T09:39:05.393Z</time></trkpt><trkpt lat="37.2634971" lon="13.6500413"><ele>85.0</ele><time>2026-05-06T09:39:06.392Z</time></trkpt><trkpt lat="37.2635304" lon="13.6499497"><ele>85.0</ele><time>2026-05-06T09:39:07.391Z</time></trkpt><trkpt lat="37.263563" lon="13.64986"><ele>84.8</ele><time>2026-05-06T09:39:08.393Z</time></trkpt><trkpt lat="37.263627" lon="13.6497475"><ele>84.6</ele><time>2026-05-06T09:39:10.393Z</time></trkpt><trkpt lat="37.2637103" lon="13.6497617"><ele>84.4</ele><time>2026-05-06T09:39:12.393Z</time></trkpt><trkpt lat="37.2638118" lon="13.6498899"><ele>84.2</ele><time>2026-05-06T09:39:14.393Z</time></trkpt><trkpt lat="37.2638866" lon="13.6499871"><ele>84.0</ele><time>2026-05-06T09:39:15.392Z</time></trkpt><trkpt lat="37.2639693" lon="13.6500933"><ele>85.0</ele><time>2026-05-06T09:39:16.392Z</time></trkpt><trkpt lat="37.2640506" lon="13.6502053"><ele>86.0</ele><time>2026-05-06T09:39:17.391Z</time></trkpt><trkpt lat="37.2641348" lon="13.6503304"><ele>87.0</ele><time>2026-05-06T09:39:18.392Z</time></trkpt><trkpt lat="37.2642352" lon="13.6504821"><ele>88.0</ele><time>2026-05-06T09:39:19.392Z</time></trkpt><trkpt lat="37.2643303" lon="13.6506435"><ele>88.0</ele><time>2026-05-06T09:39:20.392Z</time></trkpt><trkpt lat="37.264422" lon="13.650809"><ele>88.0</ele><time>2026-05-06T09:39:21.391Z</time></trkpt><trkpt lat="37.2644968" lon="13.6509666"><ele>88.0</ele><time>2026-05-06T09:39:22.393Z</time></trkpt><trkpt lat="37.2645764" lon="13.6511154"><ele>88.0</ele><time>2026-05-06T09:39:23.393Z</time></trkpt><trkpt lat="37.2646676" lon="13.6512548"><ele>88.66666666666666</ele><time>2026-05-06T09:39:24.393Z</time></trkpt><trkpt lat="37.2647573" lon="13.6513935"><ele>89.33333333333333</ele><time>2026-05-06T09:39:25.392Z</time></trkpt><trkpt lat="37.2648635" lon="13.6515206"><ele>90.0</ele><time>2026-05-06T09:39:26.392Z</time></trkpt><trkpt lat="37.2649856" lon="13.6516546"><ele>91.66666666666667</ele><time>2026-05-06T09:39:27.392Z</time></trkpt><trkpt lat="37.2651071" lon="13.6517921"><ele>93.33333333333334</ele><time>2026-05-06T09:39:28.392Z</time></trkpt><trkpt lat="37.2652303" lon="13.6519375"><ele>95.0</ele><time>2026-05-06T09:39:29.392Z</time></trkpt><trkpt lat="37.2653602" lon="13.652091"><ele>95.33333333333334</ele><time>2026-05-06T09:39:30.393Z</time></trkpt><trkpt lat="37.2654908" lon="13.6522232"><ele>95.66666666666667</ele><time>2026-05-06T09:39:31.392Z</time></trkpt><trkpt lat="37.2656113" lon="13.6523411"><ele>96.0</ele><time>2026-05-06T09:39:32.392Z</time></trkpt><trkpt lat="37.2657363" lon="13.6524365"><ele>98.33333333333334</ele><time>2026-05-06T09:39:33.392Z</time></trkpt><trkpt lat="37.265865" lon="13.6525362"><ele>100.66666666666667</ele><time>2026-05-06T09:39:34.392Z</time></trkpt><trkpt lat="37.2660016" lon="13.6526371"><ele>103.0</ele><time>2026-05-06T09:39:35.392Z</time></trkpt><trkpt lat="37.2661269" lon="13.6527403"><ele>102.75</ele><time>2026-05-06T09:39:36.391Z</time></trkpt><trkpt lat="37.2662449" lon="13.6528356"><ele>102.5</ele><time>2026-05-06T09:39:37.393Z</time></trkpt><trkpt lat="37.2663598" lon="13.6529243"><ele>102.25</ele><time>2026-05-06T09:39:38.393Z</time></trkpt><trkpt lat="37.2664792" lon="13.6529933"><ele>102.0</ele><time>2026-05-06T09:39:39.392Z</time></trkpt><trkpt lat="37.2666109" lon="13.6530479"><ele>103.8</ele><time>2026-05-06T09:39:40.392Z</time></trkpt><trkpt lat="37.2667309" lon="13.6530928"><ele>105.6</ele><time>2026-05-06T09:39:41.392Z</time></trkpt><trkpt lat="37.2668343" lon="13.6531214"><ele>107.39999999999999</ele><time>2026-05-06T09:39:42.392Z</time></trkpt><trkpt lat="37.2669253" lon="13.6531707"><ele>109.19999999999999</ele><time>2026-05-06T09:39:43.392Z</time></trkpt><trkpt lat="37.2670074" lon="13.6532238"><ele>111.0</ele><time>2026-05-06T09:39:44.392Z</time></trkpt><trkpt lat="37.2670763" lon="13.6532767"><ele>111.0</ele><time>2026-05-06T09:39:45.392Z</time></trkpt><trkpt lat="37.2671426" lon="13.6533374"><ele>111.0</ele><time>2026-05-06T09:39:46.392Z</time></trkpt><trkpt lat="37.2672079" lon="13.6534005"><ele>111.0</ele><time>2026-05-06T09:39:47.393Z</time></trkpt><trkpt lat="37.2672711" lon="13.653458"><ele>111.0</ele><time>2026-05-06T09:39:48.392Z</time></trkpt><trkpt lat="37.2673573" lon="13.6535548"><ele>111.0</ele><time>2026-05-06T09:39:50.392Z</time></trkpt><trkpt lat="37.2672783" lon="13.6534983"><ele>111.0</ele><time>2026-05-06T09:40:30.392Z</time></trkpt><trkpt lat="37.2672024" lon="13.6534136"><ele>111.0</ele><time>2026-05-06T09:40:32.391Z</time></trkpt><trkpt lat="37.2671315" lon="13.6534205"><ele>111.0</ele><time>2026-05-06T09:40:34.392Z</time></trkpt><trkpt lat="37.2670736" lon="13.6535201"><ele>111.0</ele><time>2026-05-06T09:40:36.392Z</time></trkpt><trkpt lat="37.2670563" lon="13.6536309"><ele>111.0</ele><time>2026-05-06T09:40:37.392Z</time></trkpt><trkpt lat="37.2670378" lon="13.6537549"><ele>111.0</ele><time>2026-05-06T09:40:38.392Z</time></trkpt><trkpt lat="37.2670175" lon="13.6538955"><ele>111.0</ele><time>2026-05-06T09:40:39.394Z</time></trkpt><trkpt lat="37.2669982" lon="13.6540374"><ele>111.0</ele><time>2026-05-06T09:40:40.392Z</time></trkpt><trkpt lat="37.2669796" lon="13.6541718"><ele>111.0</ele><time>2026-05-06T09:40:41.392Z</time></trkpt><trkpt lat="37.2669603" lon="13.6543025"><ele>111.0</ele><time>2026-05-06T09:40:42.392Z</time></trkpt><trkpt lat="37.2669388" lon="13.6544364"><ele>111.0</ele><time>2026-05-06T09:40:43.391Z</time></trkpt><trkpt lat="37.2669115" lon="13.654567"><ele>111.19999999999999</ele><time>2026-05-06T09:40:44.392Z</time></trkpt><trkpt lat="37.2668879" lon="13.6546906"><ele>111.39999999999999</ele><time>2026-05-06T09:40:45.392Z</time></trkpt><trkpt lat="37.2668627" lon="13.6548061"><ele>111.6</ele><time>2026-05-06T09:40:46.392Z</time></trkpt><trkpt lat="37.2668291" lon="13.6549205"><ele>111.8</ele><time>2026-05-06T09:40:47.393Z</time></trkpt><trkpt lat="37.2667849" lon="13.6550219"><ele>112.0</ele><time>2026-05-06T09:40:48.392Z</time></trkpt><trkpt lat="37.2667225" lon="13.6551288"><ele>112.0</ele><time>2026-05-06T09:40:49.393Z</time></trkpt><trkpt lat="37.2666538" lon="13.655235"><ele>112.0</ele><time>2026-05-06T09:40:50.393Z</time></trkpt><trkpt lat="37.2665777" lon="13.6553455"><ele>112.0</ele><time>2026-05-06T09:40:51.392Z</time></trkpt><trkpt lat="37.2664979" lon="13.6554658"><ele>112.0</ele><time>2026-05-06T09:40:52.392Z</time></trkpt><trkpt lat="37.2664164" lon="13.6555868"><ele>110.75</ele><time>2026-05-06T09:40:53.392Z</time></trkpt><trkpt lat="37.2663346" lon="13.655703"><ele>109.5</ele><time>2026-05-06T09:40:54.393Z</time></trkpt><trkpt lat="37.2662522" lon="13.6558144"><ele>108.25</ele><time>2026-05-06T09:40:55.392Z</time></trkpt><trkpt lat="37.2661763" lon="13.6559362"><ele>107.0</ele><time>2026-05-06T09:40:56.393Z</time></trkpt><trkpt lat="37.2660958" lon="13.6560505"><ele>107.25</ele><time>2026-05-06T09:40:57.392Z</time></trkpt><trkpt lat="37.2660135" lon="13.6561661"><ele>107.5</ele><time>2026-05-06T09:40:58.391Z</time></trkpt><trkpt lat="37.2659321" lon="13.6562898"><ele>107.75</ele><time>2026-05-06T09:40:59.391Z</time></trkpt><trkpt lat="37.2658494" lon="13.6564051"><ele>108.0</ele><time>2026-05-06T09:41:00.392Z</time></trkpt><trkpt lat="37.2657711" lon="13.6565142"><ele>108.0</ele><time>2026-05-06T09:41:01.393Z</time></trkpt><trkpt lat="37.2656944" lon="13.6566179"><ele>108.00000000000001</ele><time>2026-05-06T09:41:02.391Z</time></trkpt><trkpt lat="37.2656264" lon="13.6567204"><ele>108.00000000000001</ele><time>2026-05-06T09:41:03.393Z</time></trkpt><trkpt lat="37.2655569" lon="13.6568289"><ele>108.0</ele><time>2026-05-06T09:41:04.392Z</time></trkpt><trkpt lat="37.2654882" lon="13.6569312"><ele>108.0</ele><time>2026-05-06T09:41:05.392Z</time></trkpt><trkpt lat="37.2654128" lon="13.6570337"><ele>107.75</ele><time>2026-05-06T09:41:06.391Z</time></trkpt><trkpt lat="37.265338" lon="13.6571403"><ele>107.5</ele><time>2026-05-06T09:41:07.392Z</time></trkpt><trkpt lat="37.2652724" lon="13.6572483"><ele>107.25</ele><time>2026-05-06T09:41:08.392Z</time></trkpt><trkpt lat="37.2652104" lon="13.6573624"><ele>107.0</ele><time>2026-05-06T09:41:09.392Z</time></trkpt><trkpt lat="37.2651595" lon="13.6575021"><ele>107.0</ele><time>2026-05-06T09:41:10.391Z</time></trkpt><trkpt lat="37.2651026" lon="13.6576394"><ele>107.0</ele><time>2026-05-06T09:41:11.392Z</time></trkpt><trkpt lat="37.2650465" lon="13.6577842"><ele>107.0</ele><time>2026-05-06T09:41:12.392Z</time></trkpt><trkpt lat="37.2649917" lon="13.657941"><ele>107.0</ele><time>2026-05-06T09:41:13.392Z</time></trkpt><trkpt lat="37.2649345" lon="13.6580948"><ele>106.5</ele><time>2026-05-06T09:41:14.391Z</time></trkpt><trkpt lat="37.2648798" lon="13.6582426"><ele>106.0</ele><time>2026-05-06T09:41:15.392Z</time></trkpt><trkpt lat="37.2648272" lon="13.6583773"><ele>105.5</ele><time>2026-05-06T09:41:16.392Z</time></trkpt><trkpt lat="37.2647833" lon="13.6585011"><ele>105.0</ele><time>2026-05-06T09:41:17.392Z</time></trkpt><trkpt lat="37.2647421" lon="13.6586127"><ele>105.5</ele><time>2026-05-06T09:41:18.392Z</time></trkpt><trkpt lat="37.264705" lon="13.6587032"><ele>106.0</ele><time>2026-05-06T09:41:19.393Z</time></trkpt><trkpt lat="37.2646746" lon="13.6587967"><ele>106.5</ele><time>2026-05-06T09:41:20.392Z</time></trkpt><trkpt lat="37.2646441" lon="13.6588943"><ele>107.0</ele><time>2026-05-06T09:41:21.392Z</time></trkpt><trkpt lat="37.2646159" lon="13.6589756"><ele>107.5</ele><time>2026-05-06T09:41:22.391Z</time></trkpt><trkpt lat="37.264574" lon="13.6591088"><ele>108.0</ele><time>2026-05-06T09:41:24.393Z</time></trkpt><trkpt lat="37.2645559" lon="13.6591864"><ele>108.0</ele><time>2026-05-06T09:41:27.391Z</time></trkpt><trkpt lat="37.2645243" lon="13.6592681"><ele>108.0</ele><time>2026-05-06T09:41:35.391Z</time></trkpt><trkpt lat="37.2644745" lon="13.6593915"><ele>108.0</ele><time>2026-05-06T09:41:37.392Z</time></trkpt><trkpt lat="37.264449" lon="13.6594654"><ele>108.0</ele><time>2026-05-06T09:41:38.393Z</time></trkpt><trkpt lat="37.2644268" lon="13.6595457"><ele>108.0</ele><time>2026-05-06T09:41:39.392Z</time></trkpt><trkpt lat="37.2644038" lon="13.6596208"><ele>108.0</ele><time>2026-05-06T09:41:40.392Z</time></trkpt><trkpt lat="37.2643597" lon="13.6597525"><ele>107.66666666666667</ele><time>2026-05-06T09:41:42.393Z</time></trkpt><trkpt lat="37.2643227" lon="13.6598401"><ele>107.33333333333334</ele><time>2026-05-06T09:41:44.392Z</time></trkpt><trkpt lat="37.2642667" lon="13.6599072"><ele>107.0</ele><time>2026-05-06T09:41:47.393Z</time></trkpt><trkpt lat="37.2643212" lon="13.6598612"><ele>106.66666666666667</ele><time>2026-05-06T09:41:52.391Z</time></trkpt><trkpt lat="37.2643676" lon="13.6597321"><ele>106.33333333333334</ele><time>2026-05-06T09:41:54.392Z</time></trkpt><trkpt lat="37.2643984" lon="13.6596387"><ele>106.0</ele><time>2026-05-06T09:41:55.391Z</time></trkpt><trkpt lat="37.2644281" lon="13.6595395"><ele>106.4</ele><time>2026-05-06T09:41:56.392Z</time></trkpt><trkpt lat="37.264475" lon="13.6594201"><ele>106.8</ele><time>2026-05-06T09:41:57.391Z</time></trkpt><trkpt lat="37.2645221" lon="13.6592856"><ele>107.20000000000002</ele><time>2026-05-06T09:41:58.391Z</time></trkpt><trkpt lat="37.2645634" lon="13.6591688"><ele>107.60000000000001</ele><time>2026-05-06T09:41:59.391Z</time></trkpt><trkpt lat="37.2646019" lon="13.6590478"><ele>108.0</ele><time>2026-05-06T09:42:00.391Z</time></trkpt><trkpt lat="37.2646446" lon="13.658935"><ele>108.0</ele><time>2026-05-06T09:42:01.391Z</time></trkpt><trkpt lat="37.2646948" lon="13.6588094"><ele>108.0</ele><time>2026-05-06T09:42:02.391Z</time></trkpt><trkpt lat="37.2647341" lon="13.6586828"><ele>108.0</ele><time>2026-05-06T09:42:03.393Z</time></trkpt><trkpt lat="37.264783" lon="13.6585486"><ele>108.0</ele><time>2026-05-06T09:42:04.391Z</time></trkpt><trkpt lat="37.2648295" lon="13.6584021"><ele>107.75</ele><time>2026-05-06T09:42:05.392Z</time></trkpt><trkpt lat="37.2648865" lon="13.6582422"><ele>107.5</ele><time>2026-05-06T09:42:06.392Z</time></trkpt><trkpt lat="37.2649414" lon="13.6580826"><ele>107.25</ele><time>2026-05-06T09:42:07.391Z</time></trkpt><trkpt lat="37.2649884" lon="13.6579331"><ele>107.0</ele><time>2026-05-06T09:42:08.392Z</time></trkpt><trkpt lat="37.2650427" lon="13.6577817"><ele>107.0</ele><time>2026-05-06T09:42:09.392Z</time></trkpt><trkpt lat="37.2650889" lon="13.6576419"><ele>107.0</ele><time>2026-05-06T09:42:10.392Z</time></trkpt><trkpt lat="37.2651411" lon="13.657516"><ele>107.0</ele><time>2026-05-06T09:42:11.393Z</time></trkpt><trkpt lat="37.2651895" lon="13.6573975"><ele>107.0</ele><time>2026-05-06T09:42:12.391Z</time></trkpt><trkpt lat="37.2652449" lon="13.6572754"><ele>107.0</ele><time>2026-05-06T09:42:13.393Z</time></trkpt><trkpt lat="37.2653087" lon="13.6571691"><ele>107.0</ele><time>2026-05-06T09:42:14.393Z</time></trkpt><trkpt lat="37.2653834" lon="13.6570609"><ele>107.0</ele><time>2026-05-06T09:42:15.392Z</time></trkpt><trkpt lat="37.2654619" lon="13.6569433"><ele>107.0</ele><time>2026-05-06T09:42:16.391Z</time></trkpt><trkpt lat="37.2655639" lon="13.6568057"><ele>107.33333333333333</ele><time>2026-05-06T09:42:17.391Z</time></trkpt><trkpt lat="37.2656731" lon="13.6566527"><ele>107.66666666666666</ele><time>2026-05-06T09:42:18.392Z</time></trkpt><trkpt lat="37.2657696" lon="13.6565097"><ele>108.0</ele><time>2026-05-06T09:42:19.392Z</time></trkpt><trkpt lat="37.2658653" lon="13.6563737"><ele>108.0</ele><time>2026-05-06T09:42:20.391Z</time></trkpt><trkpt lat="37.2659582" lon="13.6562368"><ele>108.0</ele><time>2026-05-06T09:42:21.393Z</time></trkpt><trkpt lat="37.2660498" lon="13.6561062"><ele>108.0</ele><time>2026-05-06T09:42:22.393Z</time></trkpt><trkpt lat="37.2661342" lon="13.6559883"><ele>108.0</ele><time>2026-05-06T09:42:23.391Z</time></trkpt><trkpt lat="37.2662135" lon="13.6558723"><ele>107.75</ele><time>2026-05-06T09:42:24.392Z</time></trkpt><trkpt lat="37.2662988" lon="13.6557464"><ele>107.5</ele><time>2026-05-06T09:42:25.393Z</time></trkpt><trkpt lat="37.266385" lon="13.6556283"><ele>107.25</ele><time>2026-05-06T09:42:26.392Z</time></trkpt><trkpt lat="37.2664775" lon="13.6555"><ele>107.0</ele><time>2026-05-06T09:42:27.393Z</time></trkpt><trkpt lat="37.2665614" lon="13.6553822"><ele>108.25</ele><time>2026-05-06T09:42:28.392Z</time></trkpt><trkpt lat="37.2666429" lon="13.6552728"><ele>109.5</ele><time>2026-05-06T09:42:29.391Z</time></trkpt><trkpt lat="37.266709" lon="13.6551651"><ele>110.75</ele><time>2026-05-06T09:42:30.391Z</time></trkpt><trkpt lat="37.266773" lon="13.6550513"><ele>112.0</ele><time>2026-05-06T09:42:31.392Z</time></trkpt><trkpt lat="37.2668319" lon="13.6549283"><ele>112.0</ele><time>2026-05-06T09:42:32.392Z</time></trkpt><trkpt lat="37.2668792" lon="13.6547835"><ele>112.0</ele><time>2026-05-06T09:42:33.392Z</time></trkpt><trkpt lat="37.2669131" lon="13.6546338"><ele>112.0</ele><time>2026-05-06T09:42:34.393Z</time></trkpt><trkpt lat="37.2669412" lon="13.6544909"><ele>112.0</ele><time>2026-05-06T09:42:35.391Z</time></trkpt><trkpt lat="37.2669684" lon="13.6543414"><ele>111.75</ele><time>2026-05-06T09:42:36.392Z</time></trkpt><trkpt lat="37.2669911" lon="13.6541954"><ele>111.5</ele><time>2026-05-06T09:42:37.392Z</time></trkpt><trkpt lat="37.2670086" lon="13.6540547"><ele>111.25</ele><time>2026-05-06T09:42:38.392Z</time></trkpt><trkpt lat="37.2670325" lon="13.6539108"><ele>111.0</ele><time>2026-05-06T09:42:39.392Z</time></trkpt><trkpt lat="37.2670569" lon="13.6537734"><ele>111.0</ele><time>2026-05-06T09:42:40.392Z</time></trkpt><trkpt lat="37.267078" lon="13.6536557"><ele>111.0</ele><time>2026-05-06T09:42:41.392Z</time></trkpt><trkpt lat="37.2670917" lon="13.6535541"><ele>111.0</ele><time>2026-05-06T09:42:42.392Z</time></trkpt><trkpt lat="37.2671089" lon="13.6534743"><ele>111.0</ele><time>2026-05-06T09:42:43.391Z</time></trkpt><trkpt lat="37.2671765" lon="13.6533944"><ele>111.0</ele><time>2026-05-06T09:42:45.391Z</time></trkpt><trkpt lat="37.2672638" lon="13.6534113"><ele>111.0</ele><time>2026-05-06T09:42:47.391Z</time></trkpt><trkpt lat="37.2673152" lon="13.6534625"><ele>112.0</ele><time>2026-05-06T09:42:48.392Z</time></trkpt><trkpt lat="37.2673721" lon="13.65353"><ele>113.0</ele><time>2026-05-06T09:42:49.393Z</time></trkpt><trkpt lat="37.2674383" lon="13.6536043"><ele>114.0</ele><time>2026-05-06T09:42:50.391Z</time></trkpt><trkpt lat="37.267506" lon="13.6536818"><ele>115.0</ele><time>2026-05-06T09:42:51.391Z</time></trkpt><trkpt lat="37.267568" lon="13.6537655"><ele>116.0</ele><time>2026-05-06T09:42:52.391Z</time></trkpt><trkpt lat="37.267636" lon="13.6538456"><ele>117.0</ele><time>2026-05-06T09:42:53.391Z</time></trkpt><trkpt lat="37.2676939" lon="13.6539284"><ele>117.66666666666667</ele><time>2026-05-06T09:42:54.392Z</time></trkpt><trkpt lat="37.2677401" lon="13.6540071"><ele>118.33333333333334</ele><time>2026-05-06T09:42:55.392Z</time></trkpt><trkpt lat="37.2677672" lon="13.6540833"><ele>119.0</ele><time>2026-05-06T09:42:56.391Z</time></trkpt><trkpt lat="37.2677409" lon="13.6542325"><ele>119.66666666666667</ele><time>2026-05-06T09:42:58.392Z</time></trkpt><trkpt lat="37.2677018" lon="13.6543127"><ele>120.33333333333334</ele><time>2026-05-06T09:42:59.393Z</time></trkpt><trkpt lat="37.2676602" lon="13.6544072"><ele>121.0</ele><time>2026-05-06T09:43:00.392Z</time></trkpt><trkpt lat="37.267619" lon="13.6545238"><ele>121.4</ele><time>2026-05-06T09:43:01.392Z</time></trkpt><trkpt lat="37.2675744" lon="13.6546552"><ele>121.8</ele><time>2026-05-06T09:43:02.391Z</time></trkpt><trkpt lat="37.2675284" lon="13.6547929"><ele>122.20000000000002</ele><time>2026-05-06T09:43:03.392Z</time></trkpt><trkpt lat="37.2674882" lon="13.6549198"><ele>122.60000000000001</ele><time>2026-05-06T09:43:04.391Z</time></trkpt><trkpt lat="37.2674526" lon="13.6550392"><ele>123.0</ele><time>2026-05-06T09:43:05.392Z</time></trkpt><trkpt lat="37.2674135" lon="13.655157"><ele>123.0</ele><time>2026-05-06T09:43:06.393Z</time></trkpt><trkpt lat="37.2673753" lon="13.6552686"><ele>123.00000000000001</ele><time>2026-05-06T09:43:07.391Z</time></trkpt><trkpt lat="37.2673408" lon="13.655374"><ele>123.00000000000001</ele><time>2026-05-06T09:43:08.392Z</time></trkpt><trkpt lat="37.2673033" lon="13.6554806"><ele>123.0</ele><time>2026-05-06T09:43:09.393Z</time></trkpt><trkpt lat="37.2672632" lon="13.6555843"><ele>123.0</ele><time>2026-05-06T09:43:10.391Z</time></trkpt><trkpt lat="37.2672257" lon="13.6556827"><ele>121.2</ele><time>2026-05-06T09:43:11.392Z</time></trkpt><trkpt lat="37.2671947" lon="13.6557833"><ele>119.4</ele><time>2026-05-06T09:43:12.391Z</time></trkpt><trkpt lat="37.2671535" lon="13.6558938"><ele>117.60000000000001</ele><time>2026-05-06T09:43:13.393Z</time></trkpt><trkpt lat="37.2671135" lon="13.6560092"><ele>115.80000000000001</ele><time>2026-05-06T09:43:14.393Z</time></trkpt><trkpt lat="37.267073" lon="13.656147"><ele>114.0</ele><time>2026-05-06T09:43:15.391Z</time></trkpt><trkpt lat="37.267028" lon="13.6562697"><ele>114.0</ele><time>2026-05-06T09:43:16.392Z</time></trkpt><trkpt lat="37.2669922" lon="13.6563857"><ele>114.0</ele><time>2026-05-06T09:43:17.392Z</time></trkpt><trkpt lat="37.2669529" lon="13.6564926"><ele>114.0</ele><time>2026-05-06T09:43:18.393Z</time></trkpt><trkpt lat="37.2669156" lon="13.6566105"><ele>114.0</ele><time>2026-05-06T09:43:19.391Z</time></trkpt><trkpt lat="37.2668832" lon="13.6567296"><ele>114.0</ele><time>2026-05-06T09:43:20.393Z</time></trkpt><trkpt lat="37.2668522" lon="13.6568335"><ele>114.0</ele><time>2026-05-06T09:43:21.392Z</time></trkpt><trkpt lat="37.2668204" lon="13.6569381"><ele>114.0</ele><time>2026-05-06T09:43:22.392Z</time></trkpt><trkpt lat="37.2667818" lon="13.657035"><ele>114.0</ele><time>2026-05-06T09:43:23.391Z</time></trkpt><trkpt lat="37.2667382" lon="13.6571257"><ele>114.0</ele><time>2026-05-06T09:43:24.391Z</time></trkpt><trkpt lat="37.2666816" lon="13.657204"><ele>114.0</ele><time>2026-05-06T09:43:25.391Z</time></trkpt><trkpt lat="37.2666287" lon="13.6572766"><ele>114.0</ele><time>2026-05-06T09:43:26.392Z</time></trkpt><trkpt lat="37.2665852" lon="13.6573548"><ele>115.2</ele><time>2026-05-06T09:43:27.393Z</time></trkpt><trkpt lat="37.2665588" lon="13.657461"><ele>116.4</ele><time>2026-05-06T09:43:28.392Z</time></trkpt><trkpt lat="37.2665431" lon="13.6575744"><ele>117.6</ele><time>2026-05-06T09:43:29.392Z</time></trkpt><trkpt lat="37.2665289" lon="13.6577036"><ele>118.8</ele><time>2026-05-06T09:43:30.391Z</time></trkpt><trkpt lat="37.2665197" lon="13.6578394"><ele>120.0</ele><time>2026-05-06T09:43:31.391Z</time></trkpt><trkpt lat="37.2665004" lon="13.6579811"><ele>121.4</ele><time>2026-05-06T09:43:32.393Z</time></trkpt><trkpt lat="37.2664857" lon="13.6581238"><ele>122.8</ele><time>2026-05-06T09:43:33.391Z</time></trkpt><trkpt lat="37.2664698" lon="13.6582468"><ele>124.19999999999999</ele><time>2026-05-06T09:43:34.391Z</time></trkpt><trkpt lat="37.2664614" lon="13.6583633"><ele>125.6</ele><time>2026-05-06T09:43:35.393Z</time></trkpt><trkpt lat="37.2664658" lon="13.6584791"><ele>127.0</ele><time>2026-05-06T09:43:36.392Z</time></trkpt><trkpt lat="37.2664782" lon="13.6585839"><ele>127.83333333333334</ele><time>2026-05-06T09:43:37.391Z</time></trkpt><trkpt lat="37.2665064" lon="13.6586716"><ele>128.66666666666669</ele><time>2026-05-06T09:43:38.391Z</time></trkpt><trkpt lat="37.2665375" lon="13.6587551"><ele>129.5</ele><time>2026-05-06T09:43:39.393Z</time></trkpt><trkpt lat="37.266576" lon="13.6588282"><ele>130.33333333333334</ele><time>2026-05-06T09:43:40.392Z</time></trkpt><trkpt lat="37.2666163" lon="13.658907"><ele>131.16666666666666</ele><time>2026-05-06T09:43:41.392Z</time></trkpt><trkpt lat="37.2666325" lon="13.6590623"><ele>132.0</ele><time>2026-05-06T09:43:43.392Z</time></trkpt><trkpt lat="37.2666121" lon="13.6591477"><ele>132.0</ele><time>2026-05-06T09:43:44.391Z</time></trkpt><trkpt lat="37.2665707" lon="13.6592437"><ele>132.0</ele><time>2026-05-06T09:43:45.394Z</time></trkpt><trkpt lat="37.266517" lon="13.6593496"><ele>132.0</ele><time>2026-05-06T09:43:46.392Z</time></trkpt><trkpt lat="37.2664608" lon="13.6594583"><ele>132.0</ele><time>2026-05-06T09:43:47.392Z</time></trkpt><trkpt lat="37.2664139" lon="13.6595592"><ele>132.0</ele><time>2026-05-06T09:43:48.391Z</time></trkpt><trkpt lat="37.2663637" lon="13.659661"><ele>131.0</ele><time>2026-05-06T09:43:49.391Z</time></trkpt><trkpt lat="37.2663079" lon="13.6597649"><ele>130.0</ele><time>2026-05-06T09:43:50.392Z</time></trkpt><trkpt lat="37.2662555" lon="13.6598651"><ele>129.0</ele><time>2026-05-06T09:43:51.391Z</time></trkpt><trkpt lat="37.2662059" lon="13.6599585"><ele>128.0</ele><time>2026-05-06T09:43:52.391Z</time></trkpt><trkpt lat="37.2661639" lon="13.660031"><ele>127.0</ele><time>2026-05-06T09:43:53.392Z</time></trkpt><trkpt lat="37.2661164" lon="13.6601093"><ele>126.0</ele><time>2026-05-06T09:43:54.392Z</time></trkpt><trkpt lat="37.2660803" lon="13.6601788"><ele>126.0</ele><time>2026-05-06T09:43:55.392Z</time></trkpt><trkpt lat="37.2660491" lon="13.6602528"><ele>126.0</ele><time>2026-05-06T09:43:56.392Z</time></trkpt><trkpt lat="37.2660026" lon="13.6604048"><ele>126.0</ele><time>2026-05-06T09:43:58.391Z</time></trkpt><trkpt lat="37.2659649" lon="13.6605521"><ele>126.0</ele><time>2026-05-06T09:44:00.392Z</time></trkpt><trkpt lat="37.2659186" lon="13.6606973"><ele>126.0</ele><time>2026-05-06T09:44:02.391Z</time></trkpt><trkpt lat="37.2658866" lon="13.6607685"><ele>126.0</ele><time>2026-05-06T09:44:03.392Z</time></trkpt><trkpt lat="37.2658167" lon="13.6609116"><ele>126.0</ele><time>2026-05-06T09:44:05.392Z</time></trkpt><trkpt lat="37.265779" lon="13.6609796"><ele>126.0</ele><time>2026-05-06T09:44:06.393Z</time></trkpt><trkpt lat="37.2657403" lon="13.6610505"><ele>126.0</ele><time>2026-05-06T09:44:07.391Z</time></trkpt><trkpt lat="37.2656678" lon="13.6611811"><ele>126.0</ele><time>2026-05-06T09:44:09.391Z</time></trkpt><trkpt lat="37.2656151" lon="13.6613214"><ele>126.66666666666667</ele><time>2026-05-06T09:44:11.391Z</time></trkpt><trkpt lat="37.2656189" lon="13.6614677"><ele>127.33333333333334</ele><time>2026-05-06T09:44:13.391Z</time></trkpt><trkpt lat="37.2656393" lon="13.6615567"><ele>128.0</ele><time>2026-05-06T09:44:14.391Z</time></trkpt><trkpt lat="37.2656685" lon="13.661654"><ele>128.66666666666669</ele><time>2026-05-06T09:44:15.391Z</time></trkpt><trkpt lat="37.2656992" lon="13.6617485"><ele>129.33333333333334</ele><time>2026-05-06T09:44:16.391Z</time></trkpt><trkpt lat="37.2657315" lon="13.6618432"><ele>130.0</ele><time>2026-05-06T09:44:17.392Z</time></trkpt><trkpt lat="37.2657772" lon="13.6619183"><ele>131.83333333333334</ele><time>2026-05-06T09:44:18.392Z</time></trkpt><trkpt lat="37.2658314" lon="13.6619849"><ele>133.66666666666669</ele><time>2026-05-06T09:44:19.391Z</time></trkpt><trkpt lat="37.2658984" lon="13.6620374"><ele>135.5</ele><time>2026-05-06T09:44:20.391Z</time></trkpt><trkpt lat="37.2659745" lon="13.6620741"><ele>137.33333333333334</ele><time>2026-05-06T09:44:21.392Z</time></trkpt><trkpt lat="37.2660568" lon="13.6620962"><ele>139.16666666666666</ele><time>2026-05-06T09:44:22.392Z</time></trkpt><trkpt lat="37.2661375" lon="13.6621189"><ele>141.0</ele><time>2026-05-06T09:44:23.391Z</time></trkpt><trkpt lat="37.2662143" lon="13.6621355"><ele>141.0</ele><time>2026-05-06T09:44:24.391Z</time></trkpt><trkpt lat="37.266299" lon="13.662148"><ele>141.0</ele><time>2026-05-06T09:44:25.392Z</time></trkpt><trkpt lat="37.2663895" lon="13.6621818"><ele>141.0</ele><time>2026-05-06T09:44:26.392Z</time></trkpt><trkpt lat="37.2664845" lon="13.6622196"><ele>141.0</ele><time>2026-05-06T09:44:27.392Z</time></trkpt><trkpt lat="37.2665923" lon="13.6622573"><ele>141.0</ele><time>2026-05-06T09:44:28.391Z</time></trkpt><trkpt lat="37.2666953" lon="13.6623113"><ele>142.66666666666666</ele><time>2026-05-06T09:44:29.391Z</time></trkpt><trkpt lat="37.2667869" lon="13.6623394"><ele>144.33333333333334</ele><time>2026-05-06T09:44:30.391Z</time></trkpt><trkpt lat="37.2668672" lon="13.6623639"><ele>146.0</ele><time>2026-05-06T09:44:31.393Z</time></trkpt><trkpt lat="37.2669368" lon="13.6623975"><ele>147.66666666666669</ele><time>2026-05-06T09:44:32.392Z</time></trkpt><trkpt lat="37.2670328" lon="13.6624272"><ele>149.33333333333334</ele><time>2026-05-06T09:44:34.391Z</time></trkpt><trkpt lat="37.2671021" lon="13.6624444"><ele>151.0</ele><time>2026-05-06T09:44:35.391Z</time></trkpt><trkpt lat="37.2671771" lon="13.6624719"><ele>151.0</ele><time>2026-05-06T09:44:36.391Z</time></trkpt><trkpt lat="37.2672702" lon="13.6624732"><ele>151.0</ele><time>2026-05-06T09:44:37.391Z</time></trkpt><trkpt lat="37.2673702" lon="13.66245"><ele>151.0</ele><time>2026-05-06T09:44:38.392Z</time></trkpt><trkpt lat="37.2674795" lon="13.6624177"><ele>151.0</ele><time>2026-05-06T09:44:39.391Z</time></trkpt><trkpt lat="37.2675778" lon="13.662391"><ele>151.0</ele><time>2026-05-06T09:44:40.392Z</time></trkpt><trkpt lat="37.2676678" lon="13.6623761"><ele>152.42857142857144</ele><time>2026-05-06T09:44:41.391Z</time></trkpt><trkpt lat="37.2677453" lon="13.6623722"><ele>153.85714285714286</ele><time>2026-05-06T09:44:42.391Z</time></trkpt><trkpt lat="37.2678149" lon="13.6623813"><ele>155.28571428571428</ele><time>2026-05-06T09:44:43.393Z</time></trkpt><trkpt lat="37.2678796" lon="13.6623974"><ele>156.71428571428572</ele><time>2026-05-06T09:44:44.392Z</time></trkpt><trkpt lat="37.2679565" lon="13.6624087"><ele>158.14285714285714</ele><time>2026-05-06T09:44:45.391Z</time></trkpt><trkpt lat="37.2680302" lon="13.6624273"><ele>159.57142857142858</ele><time>2026-05-06T09:44:46.392Z</time></trkpt><trkpt lat="37.268105" lon="13.6624387"><ele>161.0</ele><time>2026-05-06T09:44:47.392Z</time></trkpt><trkpt lat="37.2681741" lon="13.6624407"><ele>162.4</ele><time>2026-05-06T09:44:48.392Z</time></trkpt><trkpt lat="37.2682614" lon="13.6624758"><ele>163.8</ele><time>2026-05-06T09:44:50.391Z</time></trkpt><trkpt lat="37.2682831" lon="13.6625551"><ele>165.20000000000002</ele><time>2026-05-06T09:44:59.391Z</time></trkpt><trkpt lat="37.2682643" lon="13.6626544"><ele>166.60000000000002</ele><time>2026-05-06T09:45:01.392Z</time></trkpt><trkpt lat="37.2682462" lon="13.6627837"><ele>168.0</ele><time>2026-05-06T09:45:03.392Z</time></trkpt><trkpt lat="37.2682277" lon="13.6629263"><ele>169.5</ele><time>2026-05-06T09:45:05.391Z</time></trkpt><trkpt lat="37.2682306" lon="13.6630719"><ele>171.0</ele><time>2026-05-06T09:45:07.392Z</time></trkpt><trkpt lat="37.2682218" lon="13.6632188"><ele>172.5</ele><time>2026-05-06T09:45:09.391Z</time></trkpt><trkpt lat="37.2681835" lon="13.6633476"><ele>174.0</ele><time>2026-05-06T09:45:11.392Z</time></trkpt><trkpt lat="37.2681611" lon="13.6634885"><ele>174.39999999999998</ele><time>2026-05-06T09:45:13.392Z</time></trkpt><trkpt lat="37.2681407" lon="13.663622"><ele>174.8</ele><time>2026-05-06T09:45:15.392Z</time></trkpt><trkpt lat="37.2681139" lon="13.6637562"><ele>175.2</ele><time>2026-05-06T09:45:17.391Z</time></trkpt><trkpt lat="37.2680866" lon="13.6638908"><ele>175.60000000000002</ele><time>2026-05-06T09:45:19.393Z</time></trkpt><trkpt lat="37.2680772" lon="13.6639986"><ele>176.0</ele><time>2026-05-06T09:45:21.392Z</time></trkpt><trkpt lat="37.2680698" lon="13.6640894"><ele>179.33333333333331</ele><time>2026-05-06T09:45:23.391Z</time></trkpt><trkpt lat="37.26805" lon="13.6641919"><ele>182.66666666666666</ele><time>2026-05-06T09:45:25.392Z</time></trkpt><trkpt lat="37.2680273" lon="13.6642927"><ele>186.0</ele><time>2026-05-06T09:45:27.392Z</time></trkpt><trkpt lat="37.2680219" lon="13.6644193"><ele>189.33333333333331</ele><time>2026-05-06T09:45:29.391Z</time></trkpt><trkpt lat="37.2680142" lon="13.6645321"><ele>192.66666666666666</ele><time>2026-05-06T09:45:31.392Z</time></trkpt><trkpt lat="37.2680279" lon="13.6646215"><ele>196.0</ele><time>2026-05-06T09:45:33.391Z</time></trkpt><trkpt lat="37.26802" lon="13.6647177"><ele>197.4</ele><time>2026-05-06T09:45:37.391Z</time></trkpt><trkpt lat="37.2679997" lon="13.6647995"><ele>198.8</ele><time>2026-05-06T09:45:41.391Z</time></trkpt><trkpt lat="37.2679654" lon="13.6648696"><ele>200.20000000000002</ele><time>2026-05-06T09:45:44.392Z</time></trkpt><trkpt lat="37.2679349" lon="13.665006"><ele>201.60000000000002</ele><time>2026-05-06T09:45:47.391Z</time></trkpt><trkpt lat="37.2679151" lon="13.6651449"><ele>203.0</ele><time>2026-05-06T09:45:49.391Z</time></trkpt><trkpt lat="37.2678855" lon="13.6652682"><ele>204.4</ele><time>2026-05-06T09:45:51.391Z</time></trkpt><trkpt lat="37.2678764" lon="13.6653836"><ele>205.8</ele><time>2026-05-06T09:45:53.391Z</time></trkpt><trkpt lat="37.2678927" lon="13.6654761"><ele>207.2</ele><time>2026-05-06T09:45:55.391Z</time></trkpt><trkpt lat="37.2679221" lon="13.6655742"><ele>208.6</ele><time>2026-05-06T09:45:57.392Z</time></trkpt><trkpt lat="37.2679946" lon="13.6656728"><ele>210.0</ele><time>2026-05-06T09:45:59.392Z</time></trkpt><trkpt lat="37.2680758" lon="13.6657406"><ele>210.0</ele><time>2026-05-06T09:46:01.391Z</time></trkpt><trkpt lat="37.268096" lon="13.6658466"><ele>210.0</ele><time>2026-05-06T09:46:03.392Z</time></trkpt><trkpt lat="37.268101" lon="13.6659614"><ele>210.0</ele><time>2026-05-06T09:46:05.392Z</time></trkpt><trkpt lat="37.2681536" lon="13.6660729"><ele>210.0</ele><time>2026-05-06T09:46:07.392Z</time></trkpt><trkpt lat="37.2682273" lon="13.6661594"><ele>210.0</ele><time>2026-05-06T09:46:09.392Z</time></trkpt><trkpt lat="37.2683081" lon="13.6662207"><ele>206.8</ele><time>2026-05-06T09:46:11.391Z</time></trkpt><trkpt lat="37.2683748" lon="13.6662475"><ele>203.6</ele><time>2026-05-06T09:46:13.391Z</time></trkpt><trkpt lat="37.2684751" lon="13.66629"><ele>200.39999999999998</ele><time>2026-05-06T09:46:57.391Z</time></trkpt><trkpt lat="37.2685896" lon="13.666319"><ele>197.2</ele><time>2026-05-06T09:46:59.392Z</time></trkpt><trkpt lat="37.2686818" lon="13.6663737"><ele>194.0</ele><time>2026-05-06T09:47:01.392Z</time></trkpt><trkpt lat="37.2687369" lon="13.6664302"><ele>194.0</ele><time>2026-05-06T09:47:03.391Z</time></trkpt><trkpt lat="37.2687782" lon="13.6665262"><ele>194.0</ele><time>2026-05-06T09:47:42.392Z</time></trkpt><trkpt lat="37.2688311" lon="13.6666252"><ele>194.0</ele><time>2026-05-06T09:47:44.392Z</time></trkpt><trkpt lat="37.2688755" lon="13.6667312"><ele>194.0</ele><time>2026-05-06T09:47:46.391Z</time></trkpt><trkpt lat="37.2688898" lon="13.6668575"><ele>194.0</ele><time>2026-05-06T09:47:48.393Z</time></trkpt><trkpt lat="37.2689006" lon="13.6669876"><ele>195.2</ele><time>2026-05-06T09:47:50.392Z</time></trkpt><trkpt lat="37.2689211" lon="13.6670908"><ele>196.39999999999998</ele><time>2026-05-06T09:47:52.391Z</time></trkpt><trkpt lat="37.2689273" lon="13.6672074"><ele>197.6</ele><time>2026-05-06T09:47:54.391Z</time></trkpt><trkpt lat="37.2689053" lon="13.6673105"><ele>198.8</ele><time>2026-05-06T09:47:56.391Z</time></trkpt><trkpt lat="37.2688679" lon="13.6674"><ele>200.0</ele><time>2026-05-06T09:47:58.392Z</time></trkpt><trkpt lat="37.2688224" lon="13.6675288"><ele>200.0</ele><time>2026-05-06T09:48:00.391Z</time></trkpt><trkpt lat="37.2688068" lon="13.6676591"><ele>200.0</ele><time>2026-05-06T09:48:02.391Z</time></trkpt><trkpt lat="37.2688207" lon="13.6677755"><ele>200.0</ele><time>2026-05-06T09:48:04.391Z</time></trkpt><trkpt lat="37.2688199" lon="13.6678695"><ele>200.0</ele><time>2026-05-06T09:48:06.391Z</time></trkpt><trkpt lat="37.2688042" lon="13.6679787"><ele>200.0</ele><time>2026-05-06T09:48:08.391Z</time></trkpt><trkpt lat="37.268744" lon="13.6680954"><ele>197.8</ele><time>2026-05-06T09:48:10.391Z</time></trkpt><trkpt lat="37.268655" lon="13.6681423"><ele>195.6</ele><time>2026-05-06T09:48:12.391Z</time></trkpt><trkpt lat="37.2685783" lon="13.668202"><ele>193.39999999999998</ele><time>2026-05-06T09:48:14.392Z</time></trkpt><trkpt lat="37.2685234" lon="13.6682524"><ele>191.2</ele><time>2026-05-06T09:48:15.391Z</time></trkpt><trkpt lat="37.2684196" lon="13.668356"><ele>189.0</ele><time>2026-05-06T09:48:17.392Z</time></trkpt><trkpt lat="37.268303" lon="13.668432"><ele>189.0</ele><time>2026-05-06T09:48:19.391Z</time></trkpt><trkpt lat="37.268228" lon="13.6684679"><ele>189.0</ele><time>2026-05-06T09:48:20.391Z</time></trkpt><trkpt lat="37.2681557" lon="13.6684994"><ele>189.0</ele><time>2026-05-06T09:48:21.391Z</time></trkpt><trkpt lat="37.2680879" lon="13.6685381"><ele>189.0</ele><time>2026-05-06T09:48:22.392Z</time></trkpt><trkpt lat="37.2680244" lon="13.6685706"><ele>189.0</ele><time>2026-05-06T09:48:23.391Z</time></trkpt><trkpt lat="37.267961" lon="13.6686053"><ele>189.0</ele><time>2026-05-06T09:48:24.392Z</time></trkpt><trkpt lat="37.2678978" lon="13.6686473"><ele>189.0</ele><time>2026-05-06T09:48:25.392Z</time></trkpt><trkpt lat="37.2678515" lon="13.6687238"><ele>192.33333333333334</ele><time>2026-05-06T09:48:26.392Z</time></trkpt><trkpt lat="37.2678117" lon="13.6687988"><ele>195.66666666666669</ele><time>2026-05-06T09:48:27.39Z</time></trkpt><trkpt lat="37.2677746" lon="13.6688927"><ele>199.0</ele><time>2026-05-06T09:48:28.391Z</time></trkpt><trkpt lat="37.2677648" lon="13.6689885"><ele>202.33333333333334</ele><time>2026-05-06T09:48:29.391Z</time></trkpt><trkpt lat="37.2678215" lon="13.6690957"><ele>205.66666666666669</ele><time>2026-05-06T09:48:30.391Z</time></trkpt><trkpt lat="37.2678747" lon="13.66918"><ele>209.0</ele><time>2026-05-06T09:48:31.391Z</time></trkpt><trkpt lat="37.2679375" lon="13.6692595"><ele>209.00000000000003</ele><time>2026-05-06T09:48:32.392Z</time></trkpt><trkpt lat="37.268001" lon="13.6693214"><ele>209.0</ele><time>2026-05-06T09:48:33.391Z</time></trkpt><trkpt lat="37.2680621" lon="13.6693648"><ele>209.0</ele><time>2026-05-06T09:48:34.391Z</time></trkpt><trkpt lat="37.2681564" lon="13.6694519"><ele>209.0</ele><time>2026-05-06T09:48:36.392Z</time></trkpt><trkpt lat="37.2681573" lon="13.6695503"><ele>209.00000000000003</ele><time>2026-05-06T09:48:38.391Z</time></trkpt><trkpt lat="37.2680682" lon="13.6695896"><ele>209.0</ele><time>2026-05-06T09:48:40.392Z</time></trkpt><trkpt lat="37.2679627" lon="13.6696048"><ele>216.0</ele><time>2026-05-06T09:48:42.392Z</time></trkpt><trkpt lat="37.2679114" lon="13.6696573"><ele>216.0</ele><time>2026-05-06T09:48:44.392Z</time></trkpt></trkseg><trkseg><trkpt lat="37.2734549" lon="13.6614293"><ele>85.0</ele><time>2026-05-06T10:08:49.388Z</time></trkpt><trkpt lat="37.2734492" lon="13.6615176"><ele>85.0</ele><time>2026-05-06T10:08:50.388Z</time></trkpt><trkpt lat="37.2734442" lon="13.6616076"><ele>85.0</ele><time>2026-05-06T10:08:51.388Z</time></trkpt><trkpt lat="37.2734377" lon="13.6616988"><ele>85.0</ele><time>2026-05-06T10:08:52.389Z</time></trkpt><trkpt lat="37.2734298" lon="13.6617899"><ele>85.0</ele><time>2026-05-06T10:08:53.388Z</time></trkpt><trkpt lat="37.2734199" lon="13.6618808"><ele>85.0</ele><time>2026-05-06T10:08:54.389Z</time></trkpt><trkpt lat="37.2734102" lon="13.6619784"><ele>85.0</ele><time>2026-05-06T10:08:55.39Z</time></trkpt><trkpt lat="37.2734" lon="13.6620952"><ele>85.16666666666666</ele><time>2026-05-06T10:08:56.388Z</time></trkpt><trkpt lat="37.2733915" lon="13.6622234"><ele>85.33333333333333</ele><time>2026-05-06T10:08:57.389Z</time></trkpt><trkpt lat="37.2733852" lon="13.6623275"><ele>85.5</ele><time>2026-05-06T10:08:58.389Z</time></trkpt><trkpt lat="37.2733759" lon="13.6624226"><ele>85.66666666666667</ele><time>2026-05-06T10:08:59.388Z</time></trkpt><trkpt lat="37.2733702" lon="13.6625073"><ele>85.83333333333334</ele><time>2026-05-06T10:09:00.388Z</time></trkpt><trkpt lat="37.2733636" lon="13.6625876"><ele>86.0</ele><time>2026-05-06T10:09:01.389Z</time></trkpt><trkpt lat="37.2733543" lon="13.6626898"><ele>86.5</ele><time>2026-05-06T10:09:02.388Z</time></trkpt><trkpt lat="37.273341" lon="13.6628178"><ele>87.0</ele><time>2026-05-06T10:09:03.389Z</time></trkpt><trkpt lat="37.2733313" lon="13.6629591"><ele>87.5</ele><time>2026-05-06T10:09:04.388Z</time></trkpt><trkpt lat="37.273317" lon="13.663136"><ele>88.0</ele><time>2026-05-06T10:09:05.389Z</time></trkpt><trkpt lat="37.273302" lon="13.6633276"><ele>88.0</ele><time>2026-05-06T10:09:06.389Z</time></trkpt><trkpt lat="37.2732865" lon="13.6635311"><ele>88.0</ele><time>2026-05-06T10:09:07.388Z</time></trkpt><trkpt lat="37.2732683" lon="13.6637445"><ele>88.0</ele><time>2026-05-06T10:09:08.388Z</time></trkpt><trkpt lat="37.273249" lon="13.663966"><ele>88.33333333333333</ele><time>2026-05-06T10:09:09.388Z</time></trkpt><trkpt lat="37.2732311" lon="13.6641916"><ele>88.66666666666667</ele><time>2026-05-06T10:09:10.388Z</time></trkpt><trkpt lat="37.2732162" lon="13.6643917"><ele>89.0</ele><time>2026-05-06T10:09:11.389Z</time></trkpt><trkpt lat="37.2731962" lon="13.66459"><ele>89.0</ele><time>2026-05-06T10:09:12.388Z</time></trkpt><trkpt lat="37.2731648" lon="13.6647868"><ele>89.0</ele><time>2026-05-06T10:09:13.388Z</time></trkpt><trkpt lat="37.2731256" lon="13.6649806"><ele>89.0</ele><time>2026-05-06T10:09:14.388Z</time></trkpt><trkpt lat="37.2730741" lon="13.6651682"><ele>91.66666666666667</ele><time>2026-05-06T10:09:15.388Z</time></trkpt><trkpt lat="37.2730071" lon="13.6653526"><ele>94.33333333333334</ele><time>2026-05-06T10:09:16.388Z</time></trkpt><trkpt lat="37.2729192" lon="13.6655422"><ele>97.0</ele><time>2026-05-06T10:09:17.388Z</time></trkpt><trkpt lat="37.272823" lon="13.6657393"><ele>97.0</ele><time>2026-05-06T10:09:18.388Z</time></trkpt><trkpt lat="37.2727305" lon="13.665933"><ele>97.0</ele><time>2026-05-06T10:09:19.39Z</time></trkpt><trkpt lat="37.2726437" lon="13.6661039"><ele>97.0</ele><time>2026-05-06T10:09:20.389Z</time></trkpt><trkpt lat="37.2725582" lon="13.6662602"><ele>95.75</ele><time>2026-05-06T10:09:21.388Z</time></trkpt><trkpt lat="37.2724765" lon="13.6664014"><ele>94.5</ele><time>2026-05-06T10:09:22.388Z</time></trkpt><trkpt lat="37.2723981" lon="13.6665426"><ele>93.25</ele><time>2026-05-06T10:09:23.388Z</time></trkpt><trkpt lat="37.2723345" lon="13.666696"><ele>92.0</ele><time>2026-05-06T10:09:24.388Z</time></trkpt><trkpt lat="37.2722835" lon="13.6668679"><ele>95.33333333333334</ele><time>2026-05-06T10:09:25.389Z</time></trkpt><trkpt lat="37.2722461" lon="13.6670625"><ele>98.66666666666667</ele><time>2026-05-06T10:09:26.388Z</time></trkpt><trkpt lat="37.2722185" lon="13.6672715"><ele>102.0</ele><time>2026-05-06T10:09:27.389Z</time></trkpt><trkpt lat="37.2721891" lon="13.6674692"><ele>102.0</ele><time>2026-05-06T10:09:28.388Z</time></trkpt><trkpt lat="37.2721638" lon="13.6676485"><ele>102.0</ele><time>2026-05-06T10:09:29.388Z</time></trkpt><trkpt lat="37.2721433" lon="13.6678226"><ele>102.0</ele><time>2026-05-06T10:09:30.388Z</time></trkpt><trkpt lat="37.2721192" lon="13.6679891"><ele>102.0</ele><time>2026-05-06T10:09:31.388Z</time></trkpt><trkpt lat="37.2720882" lon="13.6681444"><ele>101.0</ele><time>2026-05-06T10:09:32.388Z</time></trkpt><trkpt lat="37.2720522" lon="13.6683136"><ele>100.0</ele><time>2026-05-06T10:09:33.388Z</time></trkpt><trkpt lat="37.2720244" lon="13.6684878"><ele>99.0</ele><time>2026-05-06T10:09:34.388Z</time></trkpt><trkpt lat="37.2720131" lon="13.668662"><ele>98.0</ele><time>2026-05-06T10:09:35.388Z</time></trkpt><trkpt lat="37.2720138" lon="13.6688323"><ele>97.25</ele><time>2026-05-06T10:09:36.388Z</time></trkpt><trkpt lat="37.272033" lon="13.6689885"><ele>96.5</ele><time>2026-05-06T10:09:37.389Z</time></trkpt><trkpt lat="37.2720722" lon="13.669147"><ele>95.75</ele><time>2026-05-06T10:09:38.388Z</time></trkpt><trkpt lat="37.2721144" lon="13.6693123"><ele>95.0</ele><time>2026-05-06T10:09:39.388Z</time></trkpt><trkpt lat="37.2721579" lon="13.6694876"><ele>95.0</ele><time>2026-05-06T10:09:40.388Z</time></trkpt><trkpt lat="37.2722038" lon="13.6696781"><ele>95.0</ele><time>2026-05-06T10:09:41.388Z</time></trkpt><trkpt lat="37.2722519" lon="13.6698871"><ele>95.0</ele><time>2026-05-06T10:09:42.389Z</time></trkpt><trkpt lat="37.2723052" lon="13.6701135"><ele>91.66666666666667</ele><time>2026-05-06T10:09:43.388Z</time></trkpt><trkpt lat="37.2723626" lon="13.6703489"><ele>88.33333333333333</ele><time>2026-05-06T10:09:44.388Z</time></trkpt><trkpt lat="37.2724182" lon="13.6705784"><ele>85.0</ele><time>2026-05-06T10:09:45.388Z</time></trkpt><trkpt lat="37.2724647" lon="13.6707871"><ele>85.0</ele><time>2026-05-06T10:09:46.39Z</time></trkpt><trkpt lat="37.2725096" lon="13.6709822"><ele>85.0</ele><time>2026-05-06T10:09:47.389Z</time></trkpt><trkpt lat="37.2725497" lon="13.6711621"><ele>85.0</ele><time>2026-05-06T10:09:48.389Z</time></trkpt><trkpt lat="37.2725795" lon="13.6713366"><ele>85.25</ele><time>2026-05-06T10:09:49.388Z</time></trkpt><trkpt lat="37.2725936" lon="13.6714999"><ele>85.5</ele><time>2026-05-06T10:09:50.389Z</time></trkpt><trkpt lat="37.2725987" lon="13.6716641"><ele>85.75</ele><time>2026-05-06T10:09:51.388Z</time></trkpt><trkpt lat="37.2725897" lon="13.6718302"><ele>86.0</ele><time>2026-05-06T10:09:52.388Z</time></trkpt><trkpt lat="37.2725682" lon="13.6719929"><ele>86.0</ele><time>2026-05-06T10:09:53.388Z</time></trkpt><trkpt lat="37.2725388" lon="13.6721463"><ele>86.0</ele><time>2026-05-06T10:09:54.389Z</time></trkpt><trkpt lat="37.2724928" lon="13.6723081"><ele>86.0</ele><time>2026-05-06T10:09:55.388Z</time></trkpt><trkpt lat="37.2724256" lon="13.6724791"><ele>86.0</ele><time>2026-05-06T10:09:56.388Z</time></trkpt><trkpt lat="37.2723372" lon="13.6726529"><ele>87.33333333333334</ele><time>2026-05-06T10:09:57.388Z</time></trkpt><trkpt lat="37.2722416" lon="13.6728332"><ele>88.66666666666667</ele><time>2026-05-06T10:09:58.388Z</time></trkpt><trkpt lat="37.2721488" lon="13.6730089"><ele>90.0</ele><time>2026-05-06T10:09:59.388Z</time></trkpt><trkpt lat="37.2720613" lon="13.6731721"><ele>90.0</ele><time>2026-05-06T10:10:00.389Z</time></trkpt><trkpt lat="37.2719724" lon="13.6733346"><ele>90.0</ele><time>2026-05-06T10:10:01.388Z</time></trkpt><trkpt lat="37.2718866" lon="13.6734938"><ele>90.0</ele><time>2026-05-06T10:10:02.389Z</time></trkpt><trkpt lat="37.2718029" lon="13.6736522"><ele>89.33333333333333</ele><time>2026-05-06T10:10:03.388Z</time></trkpt><trkpt lat="37.2717193" lon="13.6738094"><ele>88.66666666666666</ele><time>2026-05-06T10:10:04.389Z</time></trkpt><trkpt lat="37.2716346" lon="13.6739658"><ele>88.0</ele><time>2026-05-06T10:10:05.389Z</time></trkpt><trkpt lat="37.2715422" lon="13.6741321"><ele>88.0</ele><time>2026-05-06T10:10:06.388Z</time></trkpt><trkpt lat="37.2714516" lon="13.674282"><ele>88.0</ele><time>2026-05-06T10:10:07.388Z</time></trkpt><trkpt lat="37.2713675" lon="13.6744177"><ele>88.0</ele><time>2026-05-06T10:10:08.388Z</time></trkpt><trkpt lat="37.2713012" lon="13.6745492"><ele>88.0</ele><time>2026-05-06T10:10:09.388Z</time></trkpt><trkpt lat="37.2712455" lon="13.6746679"><ele>91.80000000000001</ele><time>2026-05-06T10:10:10.389Z</time></trkpt><trkpt lat="37.2712062" lon="13.6747816"><ele>95.6</ele><time>2026-05-06T10:10:11.388Z</time></trkpt><trkpt lat="37.2711921" lon="13.6749102"><ele>99.39999999999999</ele><time>2026-05-06T10:10:12.388Z</time></trkpt><trkpt lat="37.2712005" lon="13.6750535"><ele>103.19999999999999</ele><time>2026-05-06T10:10:13.388Z</time></trkpt><trkpt lat="37.2712167" lon="13.675209"><ele>107.0</ele><time>2026-05-06T10:10:14.388Z</time></trkpt><trkpt lat="37.271233" lon="13.6753487"><ele>107.0</ele><time>2026-05-06T10:10:15.389Z</time></trkpt><trkpt lat="37.2712705" lon="13.6755036"><ele>107.0</ele><time>2026-05-06T10:10:16.388Z</time></trkpt><trkpt lat="37.2713319" lon="13.6756516"><ele>107.0</ele><time>2026-05-06T10:10:17.388Z</time></trkpt><trkpt lat="37.27139" lon="13.6757783"><ele>107.0</ele><time>2026-05-06T10:10:18.388Z</time></trkpt><trkpt lat="37.2714442" lon="13.6759022"><ele>103.0</ele><time>2026-05-06T10:10:19.389Z</time></trkpt><trkpt lat="37.2715006" lon="13.6760296"><ele>99.0</ele><time>2026-05-06T10:10:20.388Z</time></trkpt><trkpt lat="37.2715537" lon="13.6761559"><ele>95.0</ele><time>2026-05-06T10:10:21.388Z</time></trkpt><trkpt lat="37.2716017" lon="13.6762829"><ele>91.0</ele><time>2026-05-06T10:10:22.389Z</time></trkpt><trkpt lat="37.2716387" lon="13.6764178"><ele>91.0</ele><time>2026-05-06T10:10:23.388Z</time></trkpt><trkpt lat="37.27166" lon="13.6765606"><ele>91.0</ele><time>2026-05-06T10:10:24.389Z</time></trkpt><trkpt lat="37.2716585" lon="13.6767052"><ele>91.0</ele><time>2026-05-06T10:10:25.39Z</time></trkpt><trkpt lat="37.2716275" lon="13.6768398"><ele>91.0</ele><time>2026-05-06T10:10:26.388Z</time></trkpt><trkpt lat="37.2715727" lon="13.6769742"><ele>91.25</ele><time>2026-05-06T10:10:27.389Z</time></trkpt><trkpt lat="37.2715028" lon="13.6771064"><ele>91.5</ele><time>2026-05-06T10:10:28.389Z</time></trkpt><trkpt lat="37.2714254" lon="13.6772466"><ele>91.75</ele><time>2026-05-06T10:10:29.389Z</time></trkpt><trkpt lat="37.2713406" lon="13.6773962"><ele>92.0</ele><time>2026-05-06T10:10:30.389Z</time></trkpt><trkpt lat="37.2712484" lon="13.6775517"><ele>92.0</ele><time>2026-05-06T10:10:31.388Z</time></trkpt><trkpt lat="37.2711566" lon="13.6777195"><ele>92.0</ele><time>2026-05-06T10:10:32.388Z</time></trkpt><trkpt lat="37.2710611" lon="13.6778957"><ele>92.0</ele><time>2026-05-06T10:10:33.388Z</time></trkpt><trkpt lat="37.270952" lon="13.6780813"><ele>91.33333333333334</ele><time>2026-05-06T10:10:34.388Z</time></trkpt><trkpt lat="37.2708364" lon="13.6782773"><ele>90.66666666666667</ele><time>2026-05-06T10:10:35.388Z</time></trkpt><trkpt lat="37.2707165" lon="13.6784849"><ele>90.0</ele><time>2026-05-06T10:10:36.388Z</time></trkpt><trkpt lat="37.2705951" lon="13.6787012"><ele>92.0</ele><time>2026-05-06T10:10:37.389Z</time></trkpt><trkpt lat="37.2704707" lon="13.6789232"><ele>94.0</ele><time>2026-05-06T10:10:38.388Z</time></trkpt><trkpt lat="37.2703436" lon="13.67915"><ele>96.0</ele><time>2026-05-06T10:10:39.388Z</time></trkpt><trkpt lat="37.270212" lon="13.6793796"><ele>95.33333333333333</ele><time>2026-05-06T10:10:40.388Z</time></trkpt><trkpt lat="37.2700757" lon="13.6796079"><ele>94.66666666666666</ele><time>2026-05-06T10:10:41.388Z</time></trkpt><trkpt lat="37.269957" lon="13.6798151"><ele>94.0</ele><time>2026-05-06T10:10:42.389Z</time></trkpt><trkpt lat="37.2698515" lon="13.6800066"><ele>94.33333333333333</ele><time>2026-05-06T10:10:43.388Z</time></trkpt><trkpt lat="37.2697547" lon="13.6801822"><ele>94.66666666666667</ele><time>2026-05-06T10:10:44.388Z</time></trkpt><trkpt lat="37.269665" lon="13.6803402"><ele>95.0</ele><time>2026-05-06T10:10:45.388Z</time></trkpt><trkpt lat="37.2695823" lon="13.6804842"><ele>95.0</ele><time>2026-05-06T10:10:46.388Z</time></trkpt><trkpt lat="37.2695079" lon="13.6806165"><ele>95.0</ele><time>2026-05-06T10:10:47.388Z</time></trkpt><trkpt lat="37.2694308" lon="13.6807281"><ele>95.0</ele><time>2026-05-06T10:10:48.388Z</time></trkpt><trkpt lat="37.2693485" lon="13.6808108"><ele>95.0</ele><time>2026-05-06T10:10:49.388Z</time></trkpt><trkpt lat="37.2692558" lon="13.6808665"><ele>95.0</ele><time>2026-05-06T10:10:50.389Z</time></trkpt><trkpt lat="37.2691527" lon="13.6809019"><ele>95.0</ele><time>2026-05-06T10:10:51.389Z</time></trkpt><trkpt lat="37.2690345" lon="13.6809282"><ele>95.0</ele><time>2026-05-06T10:10:52.388Z</time></trkpt><trkpt lat="37.2689086" lon="13.6809558"><ele>95.0</ele><time>2026-05-06T10:10:53.389Z</time></trkpt><trkpt lat="37.2688018" lon="13.6809865"><ele>95.5</ele><time>2026-05-06T10:10:54.389Z</time></trkpt><trkpt lat="37.2686936" lon="13.6810399"><ele>96.0</ele><time>2026-05-06T10:10:55.388Z</time></trkpt><trkpt lat="37.2685888" lon="13.6811016"><ele>96.5</ele><time>2026-05-06T10:10:56.389Z</time></trkpt><trkpt lat="37.2684839" lon="13.6811709"><ele>97.0</ele><time>2026-05-06T10:10:57.389Z</time></trkpt><trkpt lat="37.2683768" lon="13.6812517"><ele>97.0</ele><time>2026-05-06T10:10:58.388Z</time></trkpt><trkpt lat="37.2682596" lon="13.6813356"><ele>97.0</ele><time>2026-05-06T10:10:59.388Z</time></trkpt><trkpt lat="37.2681364" lon="13.6814142"><ele>97.0</ele><time>2026-05-06T10:11:00.388Z</time></trkpt><trkpt lat="37.2680281" lon="13.6814849"><ele>97.0</ele><time>2026-05-06T10:11:01.388Z</time></trkpt><trkpt lat="37.2679281" lon="13.6815518"><ele>97.0</ele><time>2026-05-06T10:11:02.389Z</time></trkpt><trkpt lat="37.267839" lon="13.681615"><ele>97.0</ele><time>2026-05-06T10:11:03.389Z</time></trkpt><trkpt lat="37.2677625" lon="13.6816911"><ele>97.0</ele><time>2026-05-06T10:11:04.39Z</time></trkpt><trkpt lat="37.2677014" lon="13.6817797"><ele>97.0</ele><time>2026-05-06T10:11:05.389Z</time></trkpt><trkpt lat="37.2676511" lon="13.6818799"><ele>97.0</ele><time>2026-05-06T10:11:06.388Z</time></trkpt><trkpt lat="37.2676104" lon="13.6819897"><ele>97.0</ele><time>2026-05-06T10:11:07.388Z</time></trkpt><trkpt lat="37.2675803" lon="13.6821141"><ele>97.0</ele><time>2026-05-06T10:11:08.388Z</time></trkpt><trkpt lat="37.2675664" lon="13.6822415"><ele>97.0</ele><time>2026-05-06T10:11:09.389Z</time></trkpt><trkpt lat="37.2675675" lon="13.6823574"><ele>97.0</ele><time>2026-05-06T10:11:10.388Z</time></trkpt><trkpt lat="37.2675818" lon="13.6824753"><ele>97.0</ele><time>2026-05-06T10:11:11.388Z</time></trkpt><trkpt lat="37.2676007" lon="13.6826069"><ele>97.0</ele><time>2026-05-06T10:11:12.389Z</time></trkpt><trkpt lat="37.2676228" lon="13.6827483"><ele>97.0</ele><time>2026-05-06T10:11:13.388Z</time></trkpt><trkpt lat="37.2676347" lon="13.6828779"><ele>97.0</ele><time>2026-05-06T10:11:14.388Z</time></trkpt><trkpt lat="37.2676484" lon="13.6829982"><ele>97.0</ele><time>2026-05-06T10:11:15.389Z</time></trkpt><trkpt lat="37.2676663" lon="13.6831109"><ele>97.0</ele><time>2026-05-06T10:11:16.389Z</time></trkpt><trkpt lat="37.2676842" lon="13.6832051"><ele>96.8</ele><time>2026-05-06T10:11:17.388Z</time></trkpt><trkpt lat="37.2677462" lon="13.6833075"><ele>96.6</ele><time>2026-05-06T10:11:19.389Z</time></trkpt><trkpt lat="37.2678735" lon="13.6833175"><ele>96.39999999999999</ele><time>2026-05-06T10:11:21.388Z</time></trkpt><trkpt lat="37.2679611" lon="13.6832909"><ele>96.19999999999999</ele><time>2026-05-06T10:11:22.388Z</time></trkpt><trkpt lat="37.2680597" lon="13.683274"><ele>96.0</ele><time>2026-05-06T10:11:23.388Z</time></trkpt><trkpt lat="37.2681421" lon="13.6832867"><ele>96.0</ele><time>2026-05-06T10:11:24.388Z</time></trkpt><trkpt lat="37.2682199" lon="13.68334"><ele>96.0</ele><time>2026-05-06T10:11:25.388Z</time></trkpt><trkpt lat="37.2682944" lon="13.6834253"><ele>96.0</ele><time>2026-05-06T10:11:26.388Z</time></trkpt><trkpt lat="37.2683599" lon="13.6835045"><ele>96.0</ele><time>2026-05-06T10:11:27.388Z</time></trkpt><trkpt lat="37.2684252" lon="13.68356"><ele>96.0</ele><time>2026-05-06T10:11:28.388Z</time></trkpt><trkpt lat="37.2685049" lon="13.6835935"><ele>96.0</ele><time>2026-05-06T10:11:29.388Z</time></trkpt><trkpt lat="37.2686004" lon="13.6836012"><ele>96.0</ele><time>2026-05-06T10:11:30.388Z</time></trkpt><trkpt lat="37.2687099" lon="13.6835736"><ele>96.0</ele><time>2026-05-06T10:11:31.388Z</time></trkpt><trkpt lat="37.2688368" lon="13.6835188"><ele>96.0</ele><time>2026-05-06T10:11:32.389Z</time></trkpt><trkpt lat="37.2689656" lon="13.683466"><ele>96.0</ele><time>2026-05-06T10:11:33.388Z</time></trkpt><trkpt lat="37.2691133" lon="13.683421"><ele>98.66666666666666</ele><time>2026-05-06T10:11:34.388Z</time></trkpt><trkpt lat="37.2692731" lon="13.6833874"><ele>101.33333333333333</ele><time>2026-05-06T10:11:35.388Z</time></trkpt><trkpt lat="37.2694431" lon="13.6833597"><ele>104.0</ele><time>2026-05-06T10:11:36.388Z</time></trkpt><trkpt lat="37.2696191" lon="13.6833292"><ele>108.0</ele><time>2026-05-06T10:11:37.388Z</time></trkpt><trkpt lat="37.2697961" lon="13.6832986"><ele>112.0</ele><time>2026-05-06T10:11:38.388Z</time></trkpt><trkpt lat="37.2699762" lon="13.6832709"><ele>116.0</ele><time>2026-05-06T10:11:39.389Z</time></trkpt><trkpt lat="37.2701533" lon="13.6832568"><ele>116.0</ele><time>2026-05-06T10:11:40.388Z</time></trkpt><trkpt lat="37.2703137" lon="13.6832694"><ele>116.0</ele><time>2026-05-06T10:11:41.388Z</time></trkpt><trkpt lat="37.2704663" lon="13.6832857"><ele>116.0</ele><time>2026-05-06T10:11:42.389Z</time></trkpt><trkpt lat="37.2706112" lon="13.6832862"><ele>118.66666666666666</ele><time>2026-05-06T10:11:43.388Z</time></trkpt><trkpt lat="37.2707659" lon="13.6832603"><ele>121.33333333333334</ele><time>2026-05-06T10:11:44.388Z</time></trkpt><trkpt lat="37.2709281" lon="13.6832217"><ele>124.0</ele><time>2026-05-06T10:11:45.389Z</time></trkpt><trkpt lat="37.2710917" lon="13.6831867"><ele>124.0</ele><time>2026-05-06T10:11:46.388Z</time></trkpt><trkpt lat="37.2712389" lon="13.6831782"><ele>124.0</ele><time>2026-05-06T10:11:47.388Z</time></trkpt><trkpt lat="37.2713912" lon="13.68318"><ele>124.0</ele><time>2026-05-06T10:11:48.388Z</time></trkpt><trkpt lat="37.2715312" lon="13.6831945"><ele>124.0</ele><time>2026-05-06T10:11:49.389Z</time></trkpt><trkpt lat="37.2716725" lon="13.683219"><ele>125.66666666666667</ele><time>2026-05-06T10:11:50.388Z</time></trkpt><trkpt lat="37.2718188" lon="13.6832532"><ele>127.33333333333334</ele><time>2026-05-06T10:11:51.389Z</time></trkpt><trkpt lat="37.2719728" lon="13.6832987"><ele>129.0</ele><time>2026-05-06T10:11:52.389Z</time></trkpt><trkpt lat="37.2721287" lon="13.683359"><ele>132.33333333333334</ele><time>2026-05-06T10:11:53.388Z</time></trkpt><trkpt lat="37.2722896" lon="13.6834151"><ele>135.66666666666669</ele><time>2026-05-06T10:11:54.39Z</time></trkpt><trkpt lat="37.2724547" lon="13.6834453"><ele>139.0</ele><time>2026-05-06T10:11:55.389Z</time></trkpt><trkpt lat="37.2726273" lon="13.6834576"><ele>139.0</ele><time>2026-05-06T10:11:56.388Z</time></trkpt><trkpt lat="37.2728043" lon="13.6834505"><ele>139.0</ele><time>2026-05-06T10:11:57.388Z</time></trkpt><trkpt lat="37.2729854" lon="13.6834272"><ele>139.0</ele><time>2026-05-06T10:11:58.389Z</time></trkpt><trkpt lat="37.2731585" lon="13.6834038"><ele>142.66666666666669</ele><time>2026-05-06T10:11:59.388Z</time></trkpt><trkpt lat="37.2733176" lon="13.683396"><ele>146.33333333333334</ele><time>2026-05-06T10:12:00.389Z</time></trkpt><trkpt lat="37.2734776" lon="13.6834037"><ele>150.0</ele><time>2026-05-06T10:12:01.389Z</time></trkpt><trkpt lat="37.2736406" lon="13.6834288"><ele>150.0</ele><time>2026-05-06T10:12:02.389Z</time></trkpt><trkpt lat="37.2738097" lon="13.6834612"><ele>150.0</ele><time>2026-05-06T10:12:03.388Z</time></trkpt><trkpt lat="37.2739841" lon="13.6834951"><ele>150.0</ele><time>2026-05-06T10:12:04.388Z</time></trkpt><trkpt lat="37.2741499" lon="13.6835301"><ele>152.0</ele><time>2026-05-06T10:12:05.388Z</time></trkpt><trkpt lat="37.274285" lon="13.6835869"><ele>154.0</ele><time>2026-05-06T10:12:06.389Z</time></trkpt><trkpt lat="37.2744218" lon="13.6836676"><ele>156.0</ele><time>2026-05-06T10:12:07.388Z</time></trkpt><trkpt lat="37.2745573" lon="13.683759"><ele>158.0</ele><time>2026-05-06T10:12:08.388Z</time></trkpt><trkpt lat="37.2746955" lon="13.683862"><ele>161.33333333333331</ele><time>2026-05-06T10:12:09.388Z</time></trkpt><trkpt lat="37.2748352" lon="13.6839694"><ele>164.66666666666666</ele><time>2026-05-06T10:12:10.388Z</time></trkpt><trkpt lat="37.274976" lon="13.6840786"><ele>168.0</ele><time>2026-05-06T10:12:11.388Z</time></trkpt><trkpt lat="37.275116" lon="13.6841847"><ele>168.0</ele><time>2026-05-06T10:12:12.388Z</time></trkpt><trkpt lat="37.2752543" lon="13.6842907"><ele>168.0</ele><time>2026-05-06T10:12:13.388Z</time></trkpt><trkpt lat="37.2753973" lon="13.6843921"><ele>168.0</ele><time>2026-05-06T10:12:14.388Z</time></trkpt><trkpt lat="37.2755483" lon="13.6844871"><ele>171.66666666666666</ele><time>2026-05-06T10:12:15.388Z</time></trkpt><trkpt lat="37.2757051" lon="13.684575"><ele>175.33333333333331</ele><time>2026-05-06T10:12:16.39Z</time></trkpt><trkpt lat="37.2758695" lon="13.6846616"><ele>179.0</ele><time>2026-05-06T10:12:17.389Z</time></trkpt><trkpt lat="37.2760394" lon="13.6847482"><ele>179.0</ele><time>2026-05-06T10:12:18.388Z</time></trkpt><trkpt lat="37.2761961" lon="13.6848324"><ele>179.0</ele><time>2026-05-06T10:12:19.389Z</time></trkpt><trkpt lat="37.2763378" lon="13.6849148"><ele>179.0</ele><time>2026-05-06T10:12:20.388Z</time></trkpt><trkpt lat="37.2764762" lon="13.684992"><ele>181.25</ele><time>2026-05-06T10:12:21.388Z</time></trkpt><trkpt lat="37.2766098" lon="13.685066"><ele>183.5</ele><time>2026-05-06T10:12:22.388Z</time></trkpt><trkpt lat="37.2767448" lon="13.6851339"><ele>185.75</ele><time>2026-05-06T10:12:23.388Z</time></trkpt><trkpt lat="37.2768799" lon="13.6851932"><ele>188.0</ele><time>2026-05-06T10:12:24.388Z</time></trkpt><trkpt lat="37.2770163" lon="13.6852454"><ele>188.25</ele><time>2026-05-06T10:12:25.388Z</time></trkpt><trkpt lat="37.2771515" lon="13.685299"><ele>188.5</ele><time>2026-05-06T10:12:26.389Z</time></trkpt><trkpt lat="37.2772848" lon="13.6853572"><ele>188.75</ele><time>2026-05-06T10:12:27.388Z</time></trkpt><trkpt lat="37.2774192" lon="13.6854159"><ele>189.0</ele><time>2026-05-06T10:12:28.388Z</time></trkpt><trkpt lat="37.277561" lon="13.685467"><ele>189.0</ele><time>2026-05-06T10:12:29.388Z</time></trkpt><trkpt lat="37.2777066" lon="13.6855141"><ele>189.0</ele><time>2026-05-06T10:12:30.388Z</time></trkpt><trkpt lat="37.2778554" lon="13.6855473"><ele>189.0</ele><time>2026-05-06T10:12:31.388Z</time></trkpt><trkpt lat="37.2780037" lon="13.6855481"><ele>190.0</ele><time>2026-05-06T10:12:32.388Z</time></trkpt><trkpt lat="37.2781545" lon="13.6855309"><ele>191.0</ele><time>2026-05-06T10:12:33.389Z</time></trkpt><trkpt lat="37.2783037" lon="13.6855146"><ele>192.0</ele><time>2026-05-06T10:12:34.389Z</time></trkpt><trkpt lat="37.2784497" lon="13.6854897"><ele>193.0</ele><time>2026-05-06T10:12:35.389Z</time></trkpt><trkpt lat="37.2785902" lon="13.6854584"><ele>193.0</ele><time>2026-05-06T10:12:36.389Z</time></trkpt><trkpt lat="37.2787276" lon="13.6854181"><ele>193.0</ele><time>2026-05-06T10:12:37.388Z</time></trkpt><trkpt lat="37.2788655" lon="13.6853848"><ele>193.0</ele><time>2026-05-06T10:12:38.388Z</time></trkpt><trkpt lat="37.2790034" lon="13.685353"><ele>193.0</ele><time>2026-05-06T10:12:39.388Z</time></trkpt><trkpt lat="37.2791385" lon="13.6853174"><ele>193.5</ele><time>2026-05-06T10:12:40.389Z</time></trkpt><trkpt lat="37.2792729" lon="13.6852829"><ele>194.0</ele><time>2026-05-06T10:12:41.388Z</time></trkpt><trkpt lat="37.2794078" lon="13.6852395"><ele>194.5</ele><time>2026-05-06T10:12:42.388Z</time></trkpt><trkpt lat="37.2795467" lon="13.6851829"><ele>195.0</ele><time>2026-05-06T10:12:43.389Z</time></trkpt><trkpt lat="37.2796905" lon="13.6851279"><ele>199.0</ele><time>2026-05-06T10:12:44.388Z</time></trkpt><trkpt lat="37.2798532" lon="13.6850747"><ele>203.0</ele><time>2026-05-06T10:12:45.389Z</time></trkpt><trkpt lat="37.280027" lon="13.6850153"><ele>207.0</ele><time>2026-05-06T10:12:46.389Z</time></trkpt><trkpt lat="37.2802108" lon="13.6849469"><ele>207.0</ele><time>2026-05-06T10:12:47.388Z</time></trkpt><trkpt lat="37.2804049" lon="13.6848758"><ele>207.0</ele><time>2026-05-06T10:12:48.388Z</time></trkpt><trkpt lat="37.2806069" lon="13.6848012"><ele>207.0</ele><time>2026-05-06T10:12:49.388Z</time></trkpt><trkpt lat="37.2808155" lon="13.6847265"><ele>206.33333333333331</ele><time>2026-05-06T10:12:50.389Z</time></trkpt><trkpt lat="37.2810286" lon="13.6846518"><ele>205.66666666666666</ele><time>2026-05-06T10:12:51.388Z</time></trkpt><trkpt lat="37.2812457" lon="13.6845722"><ele>205.0</ele><time>2026-05-06T10:12:52.388Z</time></trkpt><trkpt lat="37.2814658" lon="13.6844924"><ele>210.0</ele><time>2026-05-06T10:12:53.389Z</time></trkpt><trkpt lat="37.2816882" lon="13.6844097"><ele>215.0</ele><time>2026-05-06T10:12:54.388Z</time></trkpt><trkpt lat="37.2819125" lon="13.6843266"><ele>215.0</ele><time>2026-05-06T10:12:55.39Z</time></trkpt><trkpt lat="37.2821406" lon="13.6842443"><ele>215.0</ele><time>2026-05-06T10:12:56.388Z</time></trkpt><trkpt lat="37.2823721" lon="13.684169"><ele>216.0</ele><time>2026-05-06T10:12:57.388Z</time></trkpt><trkpt lat="37.2826058" lon="13.684098"><ele>217.0</ele><time>2026-05-06T10:12:58.388Z</time></trkpt><trkpt lat="37.2828388" lon="13.6840318"><ele>217.0</ele><time>2026-05-06T10:12:59.388Z</time></trkpt><trkpt lat="37.2830488" lon="13.6839781"><ele>217.0</ele><time>2026-05-06T10:13:00.388Z</time></trkpt><trkpt lat="37.2832418" lon="13.6839338"><ele>217.0</ele><time>2026-05-06T10:13:01.389Z</time></trkpt><trkpt lat="37.2834193" lon="13.6838918"><ele>217.66666666666666</ele><time>2026-05-06T10:13:02.388Z</time></trkpt><trkpt lat="37.2835912" lon="13.6838504"><ele>218.33333333333331</ele><time>2026-05-06T10:13:03.388Z</time></trkpt><trkpt lat="37.2837566" lon="13.6838056"><ele>219.0</ele><time>2026-05-06T10:13:04.39Z</time></trkpt><trkpt lat="37.2839171" lon="13.6837586"><ele>219.0</ele><time>2026-05-06T10:13:05.388Z</time></trkpt><trkpt lat="37.2840735" lon="13.6837047"><ele>219.0</ele><time>2026-05-06T10:13:06.388Z</time></trkpt><trkpt lat="37.2842279" lon="13.6836433"><ele>219.0</ele><time>2026-05-06T10:13:07.388Z</time></trkpt><trkpt lat="37.2843813" lon="13.6835806"><ele>219.66666666666669</ele><time>2026-05-06T10:13:08.388Z</time></trkpt><trkpt lat="37.2845334" lon="13.6835204"><ele>220.33333333333334</ele><time>2026-05-06T10:13:09.388Z</time></trkpt><trkpt lat="37.2846867" lon="13.6834646"><ele>221.0</ele><time>2026-05-06T10:13:10.39Z</time></trkpt><trkpt lat="37.2848398" lon="13.6834083"><ele>221.33333333333334</ele><time>2026-05-06T10:13:11.389Z</time></trkpt><trkpt lat="37.28499" lon="13.6833474"><ele>221.66666666666669</ele><time>2026-05-06T10:13:12.389Z</time></trkpt><trkpt lat="37.2851413" lon="13.6832852"><ele>222.0</ele><time>2026-05-06T10:13:13.389Z</time></trkpt><trkpt lat="37.285294" lon="13.6832225"><ele>222.0</ele><time>2026-05-06T10:13:14.388Z</time></trkpt><trkpt lat="37.2854482" lon="13.6831609"><ele>222.0</ele><time>2026-05-06T10:13:15.388Z</time></trkpt><trkpt lat="37.2856042" lon="13.6831014"><ele>222.0</ele><time>2026-05-06T10:13:16.389Z</time></trkpt><trkpt lat="37.2857602" lon="13.6830413"><ele>223.0</ele><time>2026-05-06T10:13:17.389Z</time></trkpt><trkpt lat="37.2859157" lon="13.682982"><ele>224.0</ele><time>2026-05-06T10:13:18.389Z</time></trkpt><trkpt lat="37.2860692" lon="13.6829244"><ele>225.0</ele><time>2026-05-06T10:13:19.388Z</time></trkpt><trkpt lat="37.2862222" lon="13.6828697"><ele>225.0</ele><time>2026-05-06T10:13:20.388Z</time></trkpt><trkpt lat="37.2863742" lon="13.682813"><ele>225.0</ele><time>2026-05-06T10:13:21.388Z</time></trkpt><trkpt lat="37.2865257" lon="13.6827514"><ele>225.0</ele><time>2026-05-06T10:13:22.388Z</time></trkpt><trkpt lat="37.2866777" lon="13.6826886"><ele>225.33333333333331</ele><time>2026-05-06T10:13:23.388Z</time></trkpt><trkpt lat="37.2868322" lon="13.6826327"><ele>225.66666666666666</ele><time>2026-05-06T10:13:24.388Z</time></trkpt><trkpt lat="37.2869859" lon="13.6825704"><ele>226.0</ele><time>2026-05-06T10:13:25.388Z</time></trkpt><trkpt lat="37.2871377" lon="13.6824887"><ele>226.66666666666666</ele><time>2026-05-06T10:13:26.388Z</time></trkpt><trkpt lat="37.2872927" lon="13.682402"><ele>227.33333333333331</ele><time>2026-05-06T10:13:27.389Z</time></trkpt><trkpt lat="37.2874451" lon="13.6823143"><ele>228.0</ele><time>2026-05-06T10:13:28.389Z</time></trkpt><trkpt lat="37.2875861" lon="13.6822309"><ele>228.0</ele><time>2026-05-06T10:13:29.389Z</time></trkpt><trkpt lat="37.2877256" lon="13.6821461"><ele>228.0</ele><time>2026-05-06T10:13:30.388Z</time></trkpt><trkpt lat="37.2878611" lon="13.6820616"><ele>228.0</ele><time>2026-05-06T10:13:31.388Z</time></trkpt><trkpt lat="37.2879966" lon="13.6819787"><ele>229.33333333333331</ele><time>2026-05-06T10:13:32.389Z</time></trkpt><trkpt lat="37.2881341" lon="13.6818956"><ele>230.66666666666666</ele><time>2026-05-06T10:13:33.388Z</time></trkpt><trkpt lat="37.2882739" lon="13.6818103"><ele>232.0</ele><time>2026-05-06T10:13:34.388Z</time></trkpt><trkpt lat="37.288422" lon="13.6817183"><ele>232.0</ele><time>2026-05-06T10:13:35.388Z</time></trkpt><trkpt lat="37.2885797" lon="13.681619"><ele>232.0</ele><time>2026-05-06T10:13:36.389Z</time></trkpt><trkpt lat="37.2887453" lon="13.6815192"><ele>232.0</ele><time>2026-05-06T10:13:37.388Z</time></trkpt><trkpt lat="37.2889181" lon="13.6814139"><ele>234.0</ele><time>2026-05-06T10:13:38.388Z</time></trkpt><trkpt lat="37.2890961" lon="13.6813074"><ele>236.0</ele><time>2026-05-06T10:13:39.389Z</time></trkpt><trkpt lat="37.2892637" lon="13.681209"><ele>238.0</ele><time>2026-05-06T10:13:40.389Z</time></trkpt><trkpt lat="37.2894226" lon="13.6811175"><ele>239.0</ele><time>2026-05-06T10:13:41.388Z</time></trkpt><trkpt lat="37.2895924" lon="13.6810208"><ele>240.0</ele><time>2026-05-06T10:13:42.388Z</time></trkpt><trkpt lat="37.2897638" lon="13.6809282"><ele>241.0</ele><time>2026-05-06T10:13:43.388Z</time></trkpt><trkpt lat="37.28993" lon="13.6808371"><ele>241.66666666666666</ele><time>2026-05-06T10:13:44.388Z</time></trkpt><trkpt lat="37.2900938" lon="13.6807466"><ele>242.33333333333331</ele><time>2026-05-06T10:13:45.388Z</time></trkpt><trkpt lat="37.2902564" lon="13.6806624"><ele>243.0</ele><time>2026-05-06T10:13:46.389Z</time></trkpt><trkpt lat="37.2904165" lon="13.6805844"><ele>243.0</ele><time>2026-05-06T10:13:47.388Z</time></trkpt><trkpt lat="37.2905703" lon="13.6805087"><ele>243.0</ele><time>2026-05-06T10:13:48.389Z</time></trkpt><trkpt lat="37.2907001" lon="13.6804434"><ele>243.0</ele><time>2026-05-06T10:13:49.388Z</time></trkpt><trkpt lat="37.2908166" lon="13.6803897"><ele>243.0</ele><time>2026-05-06T10:13:50.389Z</time></trkpt><trkpt lat="37.2909235" lon="13.6803433"><ele>243.75</ele><time>2026-05-06T10:13:51.388Z</time></trkpt><trkpt lat="37.291037" lon="13.6802843"><ele>244.5</ele><time>2026-05-06T10:13:52.388Z</time></trkpt><trkpt lat="37.2911634" lon="13.680203"><ele>245.25</ele><time>2026-05-06T10:13:53.388Z</time></trkpt><trkpt lat="37.291292" lon="13.6801137"><ele>246.0</ele><time>2026-05-06T10:13:54.389Z</time></trkpt><trkpt lat="37.2914115" lon="13.6800291"><ele>246.75</ele><time>2026-05-06T10:13:55.388Z</time></trkpt><trkpt lat="37.2915217" lon="13.6799518"><ele>247.5</ele><time>2026-05-06T10:13:56.388Z</time></trkpt><trkpt lat="37.2916332" lon="13.6798717"><ele>248.25</ele><time>2026-05-06T10:13:57.388Z</time></trkpt><trkpt lat="37.2917425" lon="13.679788"><ele>249.0</ele><time>2026-05-06T10:13:58.389Z</time></trkpt><trkpt lat="37.2918518" lon="13.6797031"><ele>249.0</ele><time>2026-05-06T10:13:59.39Z</time></trkpt><trkpt lat="37.2919639" lon="13.6796246"><ele>249.0</ele><time>2026-05-06T10:14:00.388Z</time></trkpt><trkpt lat="37.2920796" lon="13.6795461"><ele>249.0</ele><time>2026-05-06T10:14:01.389Z</time></trkpt><trkpt lat="37.2921986" lon="13.6794625"><ele>249.0</ele><time>2026-05-06T10:14:02.388Z</time></trkpt><trkpt lat="37.2923268" lon="13.6793723"><ele>249.75</ele><time>2026-05-06T10:14:03.388Z</time></trkpt><trkpt lat="37.2924593" lon="13.679281"><ele>250.5</ele><time>2026-05-06T10:14:04.388Z</time></trkpt><trkpt lat="37.2925797" lon="13.6792002"><ele>251.25</ele><time>2026-05-06T10:14:05.388Z</time></trkpt><trkpt lat="37.2926913" lon="13.6791225"><ele>252.0</ele><time>2026-05-06T10:14:06.388Z</time></trkpt><trkpt lat="37.2927968" lon="13.6790477"><ele>252.0</ele><time>2026-05-06T10:14:07.389Z</time></trkpt><trkpt lat="37.2929027" lon="13.6789748"><ele>252.0</ele><time>2026-05-06T10:14:08.388Z</time></trkpt><trkpt lat="37.2930097" lon="13.6789035"><ele>252.0</ele><time>2026-05-06T10:14:09.389Z</time></trkpt><trkpt lat="37.2931146" lon="13.6788306"><ele>252.0</ele><time>2026-05-06T10:14:10.388Z</time></trkpt><trkpt lat="37.2932135" lon="13.6787481"><ele>252.0</ele><time>2026-05-06T10:14:11.388Z</time></trkpt><trkpt lat="37.2933067" lon="13.6786497"><ele>252.0</ele><time>2026-05-06T10:14:12.389Z</time></trkpt><trkpt lat="37.293398" lon="13.6785431"><ele>252.0</ele><time>2026-05-06T10:14:13.388Z</time></trkpt><trkpt lat="37.2934895" lon="13.6784357"><ele>252.0</ele><time>2026-05-06T10:14:14.389Z</time></trkpt><trkpt lat="37.2935781" lon="13.6783342"><ele>252.0</ele><time>2026-05-06T10:14:15.389Z</time></trkpt><trkpt lat="37.2936605" lon="13.6782342"><ele>252.0</ele><time>2026-05-06T10:14:16.389Z</time></trkpt><trkpt lat="37.2937413" lon="13.6781341"><ele>252.0</ele><time>2026-05-06T10:14:17.389Z</time></trkpt><trkpt lat="37.2938218" lon="13.6780385"><ele>252.0</ele><time>2026-05-06T10:14:18.389Z</time></trkpt><trkpt lat="37.2939033" lon="13.677946"><ele>252.0</ele><time>2026-05-06T10:14:19.389Z</time></trkpt><trkpt lat="37.2939828" lon="13.6778542"><ele>252.39999999999998</ele><time>2026-05-06T10:14:20.388Z</time></trkpt><trkpt lat="37.2940609" lon="13.6777642"><ele>252.79999999999998</ele><time>2026-05-06T10:14:21.389Z</time></trkpt><trkpt lat="37.2941394" lon="13.6776733"><ele>253.2</ele><time>2026-05-06T10:14:22.388Z</time></trkpt><trkpt lat="37.2942181" lon="13.6775825"><ele>253.6</ele><time>2026-05-06T10:14:23.388Z</time></trkpt><trkpt lat="37.2942966" lon="13.6774885"><ele>254.0</ele><time>2026-05-06T10:14:24.388Z</time></trkpt><trkpt lat="37.2943793" lon="13.6773928"><ele>254.0</ele><time>2026-05-06T10:14:25.388Z</time></trkpt><trkpt lat="37.294465" lon="13.6772951"><ele>254.0</ele><time>2026-05-06T10:14:26.388Z</time></trkpt><trkpt lat="37.2945526" lon="13.6771992"><ele>254.0</ele><time>2026-05-06T10:14:27.389Z</time></trkpt><trkpt lat="37.2946419" lon="13.6771053"><ele>254.0</ele><time>2026-05-06T10:14:28.388Z</time></trkpt><trkpt lat="37.2947302" lon="13.677012"><ele>254.25</ele><time>2026-05-06T10:14:29.388Z</time></trkpt><trkpt lat="37.2948177" lon="13.6769211"><ele>254.5</ele><time>2026-05-06T10:14:30.389Z</time></trkpt><trkpt lat="37.2949059" lon="13.6768351"><ele>254.75</ele><time>2026-05-06T10:14:31.389Z</time></trkpt><trkpt lat="37.2949962" lon="13.6767506"><ele>255.0</ele><time>2026-05-06T10:14:32.388Z</time></trkpt><trkpt lat="37.295085" lon="13.6766648"><ele>255.0</ele><time>2026-05-06T10:14:33.388Z</time></trkpt><trkpt lat="37.2951742" lon="13.6765759"><ele>255.0</ele><time>2026-05-06T10:14:34.388Z</time></trkpt><trkpt lat="37.2952656" lon="13.6764881"><ele>255.0</ele><time>2026-05-06T10:14:35.388Z</time></trkpt><trkpt lat="37.2953569" lon="13.6763973"><ele>255.0</ele><time>2026-05-06T10:14:36.388Z</time></trkpt><trkpt lat="37.2954481" lon="13.6763051"><ele>255.0</ele><time>2026-05-06T10:14:37.388Z</time></trkpt><trkpt lat="37.2955344" lon="13.6762159"><ele>255.0</ele><time>2026-05-06T10:14:38.389Z</time></trkpt><trkpt lat="37.2956129" lon="13.6761351"><ele>255.0</ele><time>2026-05-06T10:14:39.389Z</time></trkpt><trkpt lat="37.295689" lon="13.676057"><ele>255.0</ele><time>2026-05-06T10:14:40.389Z</time></trkpt><trkpt lat="37.295763" lon="13.6759821"><ele>255.0</ele><time>2026-05-06T10:14:41.388Z</time></trkpt><trkpt lat="37.2958348" lon="13.6759139"><ele>256.1666666666667</ele><time>2026-05-06T10:14:42.388Z</time></trkpt><trkpt lat="37.2959003" lon="13.6758508"><ele>257.3333333333333</ele><time>2026-05-06T10:14:43.388Z</time></trkpt><trkpt lat="37.2959618" lon="13.6757924"><ele>258.5</ele><time>2026-05-06T10:14:44.388Z</time></trkpt><trkpt lat="37.296016" lon="13.6757429"><ele>259.66666666666663</ele><time>2026-05-06T10:14:45.389Z</time></trkpt><trkpt lat="37.296112" lon="13.6756364"><ele>260.8333333333333</ele><time>2026-05-06T10:14:47.389Z</time></trkpt><trkpt lat="37.2961726" lon="13.675565"><ele>262.0</ele><time>2026-05-06T10:14:48.388Z</time></trkpt><trkpt lat="37.2962416" lon="13.6754842"><ele>262.0</ele><time>2026-05-06T10:14:49.389Z</time></trkpt><trkpt lat="37.2963204" lon="13.6753892"><ele>262.0</ele><time>2026-05-06T10:14:50.389Z</time></trkpt><trkpt lat="37.2964069" lon="13.6752835"><ele>262.0</ele><time>2026-05-06T10:14:51.388Z</time></trkpt><trkpt lat="37.2964983" lon="13.675176"><ele>262.0</ele><time>2026-05-06T10:14:52.388Z</time></trkpt><trkpt lat="37.296595" lon="13.6750658"><ele>263.0</ele><time>2026-05-06T10:14:53.388Z</time></trkpt><trkpt lat="37.2966796" lon="13.6749604"><ele>264.0</ele><time>2026-05-06T10:14:54.388Z</time></trkpt><trkpt lat="37.2967424" lon="13.6748539"><ele>265.0</ele><time>2026-05-06T10:14:55.389Z</time></trkpt><trkpt lat="37.2967937" lon="13.6747406"><ele>266.0</ele><time>2026-05-06T10:14:56.389Z</time></trkpt><trkpt lat="37.2968458" lon="13.6746241"><ele>267.0</ele><time>2026-05-06T10:14:57.389Z</time></trkpt><trkpt lat="37.296897" lon="13.6745102"><ele>267.6</ele><time>2026-05-06T10:14:58.388Z</time></trkpt><trkpt lat="37.2969433" lon="13.6744054"><ele>268.2</ele><time>2026-05-06T10:14:59.388Z</time></trkpt><trkpt lat="37.296991" lon="13.6743003"><ele>268.8</ele><time>2026-05-06T10:15:00.389Z</time></trkpt><trkpt lat="37.2970443" lon="13.6741877"><ele>269.4</ele><time>2026-05-06T10:15:01.388Z</time></trkpt><trkpt lat="37.2971074" lon="13.6740778"><ele>270.0</ele><time>2026-05-06T10:15:02.388Z</time></trkpt><trkpt lat="37.2971836" lon="13.6739749"><ele>269.25</ele><time>2026-05-06T10:15:03.388Z</time></trkpt><trkpt lat="37.2972717" lon="13.6738745"><ele>268.5</ele><time>2026-05-06T10:15:04.388Z</time></trkpt><trkpt lat="37.2973749" lon="13.6737817"><ele>267.75</ele><time>2026-05-06T10:15:05.389Z</time></trkpt><trkpt lat="37.2974921" lon="13.6737092"><ele>267.0</ele><time>2026-05-06T10:15:06.388Z</time></trkpt><trkpt lat="37.2976153" lon="13.6736445"><ele>269.5</ele><time>2026-05-06T10:15:07.388Z</time></trkpt><trkpt lat="37.2977235" lon="13.673578"><ele>272.0</ele><time>2026-05-06T10:15:08.388Z</time></trkpt><trkpt lat="37.2978204" lon="13.6735118"><ele>274.5</ele><time>2026-05-06T10:15:09.388Z</time></trkpt><trkpt lat="37.2979151" lon="13.67344"><ele>277.0</ele><time>2026-05-06T10:15:10.389Z</time></trkpt><trkpt lat="37.2980107" lon="13.6733654"><ele>276.75</ele><time>2026-05-06T10:15:11.388Z</time></trkpt><trkpt lat="37.2981092" lon="13.6732901"><ele>276.5</ele><time>2026-05-06T10:15:12.389Z</time></trkpt><trkpt lat="37.2982085" lon="13.6732118"><ele>276.25</ele><time>2026-05-06T10:15:13.389Z</time></trkpt><trkpt lat="37.2983028" lon="13.67313"><ele>276.0</ele><time>2026-05-06T10:15:14.389Z</time></trkpt><trkpt lat="37.2983867" lon="13.6730531"><ele>276.0</ele><time>2026-05-06T10:15:15.388Z</time></trkpt><trkpt lat="37.2984674" lon="13.6729743"><ele>276.0</ele><time>2026-05-06T10:15:16.388Z</time></trkpt><trkpt lat="37.298548" lon="13.672889"><ele>276.0</ele><time>2026-05-06T10:15:17.388Z</time></trkpt><trkpt lat="37.298626" lon="13.6728061"><ele>276.0</ele><time>2026-05-06T10:15:18.388Z</time></trkpt><trkpt lat="37.2987013" lon="13.6727261"><ele>276.0</ele><time>2026-05-06T10:15:19.388Z</time></trkpt><trkpt lat="37.2987731" lon="13.6726446"><ele>276.6</ele><time>2026-05-06T10:15:20.389Z</time></trkpt><trkpt lat="37.2988468" lon="13.6725576"><ele>277.20000000000005</ele><time>2026-05-06T10:15:21.388Z</time></trkpt><trkpt lat="37.2989256" lon="13.6724632"><ele>277.79999999999995</ele><time>2026-05-06T10:15:22.388Z</time></trkpt><trkpt lat="37.2990033" lon="13.6723706"><ele>278.4</ele><time>2026-05-06T10:15:23.388Z</time></trkpt><trkpt lat="37.2990744" lon="13.6722822"><ele>279.0</ele><time>2026-05-06T10:15:24.389Z</time></trkpt><trkpt lat="37.2991436" lon="13.6721919"><ele>279.0</ele><time>2026-05-06T10:15:25.388Z</time></trkpt><trkpt lat="37.2992112" lon="13.6720975"><ele>279.0</ele><time>2026-05-06T10:15:26.388Z</time></trkpt><trkpt lat="37.2992772" lon="13.6719978"><ele>279.0</ele><time>2026-05-06T10:15:27.389Z</time></trkpt><trkpt lat="37.2993436" lon="13.6718956"><ele>279.0</ele><time>2026-05-06T10:15:28.388Z</time></trkpt><trkpt lat="37.2994086" lon="13.671789"><ele>279.0</ele><time>2026-05-06T10:15:29.388Z</time></trkpt><trkpt lat="37.2994721" lon="13.671675"><ele>279.75</ele><time>2026-05-06T10:15:30.388Z</time></trkpt><trkpt lat="37.2995323" lon="13.6715568"><ele>280.5</ele><time>2026-05-06T10:15:31.388Z</time></trkpt><trkpt lat="37.2995917" lon="13.671439"><ele>281.25</ele><time>2026-05-06T10:15:32.388Z</time></trkpt><trkpt lat="37.2996522" lon="13.6713194"><ele>282.0</ele><time>2026-05-06T10:15:33.388Z</time></trkpt><trkpt lat="37.2997155" lon="13.6711905"><ele>281.4</ele><time>2026-05-06T10:15:34.388Z</time></trkpt><trkpt lat="37.2997766" lon="13.6710606"><ele>280.79999999999995</ele><time>2026-05-06T10:15:35.388Z</time></trkpt><trkpt lat="37.2998325" lon="13.6709419"><ele>280.2</ele><time>2026-05-06T10:15:36.388Z</time></trkpt><trkpt lat="37.2998833" lon="13.6708281"><ele>279.59999999999997</ele><time>2026-05-06T10:15:37.389Z</time></trkpt><trkpt lat="37.2999287" lon="13.6707176"><ele>279.0</ele><time>2026-05-06T10:15:38.388Z</time></trkpt><trkpt lat="37.2999772" lon="13.6706187"><ele>279.0</ele><time>2026-05-06T10:15:39.388Z</time></trkpt><trkpt lat="37.3000371" lon="13.6705359"><ele>279.0</ele><time>2026-05-06T10:15:40.389Z</time></trkpt><trkpt lat="37.3001095" lon="13.6704637"><ele>279.0</ele><time>2026-05-06T10:15:41.389Z</time></trkpt><trkpt lat="37.30019" lon="13.6703961"><ele>279.0</ele><time>2026-05-06T10:15:42.389Z</time></trkpt><trkpt lat="37.3002744" lon="13.6703342"><ele>279.0</ele><time>2026-05-06T10:15:43.388Z</time></trkpt><trkpt lat="37.3003591" lon="13.670279"><ele>279.2</ele><time>2026-05-06T10:15:44.389Z</time></trkpt><trkpt lat="37.3004397" lon="13.670231"><ele>279.4</ele><time>2026-05-06T10:15:45.388Z</time></trkpt><trkpt lat="37.3005245" lon="13.6701947"><ele>279.6</ele><time>2026-05-06T10:15:46.388Z</time></trkpt><trkpt lat="37.3006156" lon="13.6701658"><ele>279.8</ele><time>2026-05-06T10:15:47.388Z</time></trkpt><trkpt lat="37.3007087" lon="13.6701384"><ele>280.0</ele><time>2026-05-06T10:15:48.388Z</time></trkpt><trkpt lat="37.3007986" lon="13.670115"><ele>280.0</ele><time>2026-05-06T10:15:49.389Z</time></trkpt><trkpt lat="37.3008824" lon="13.6700953"><ele>280.0</ele><time>2026-05-06T10:15:50.388Z</time></trkpt><trkpt lat="37.3009617" lon="13.6700736"><ele>280.0</ele><time>2026-05-06T10:15:51.388Z</time></trkpt><trkpt lat="37.3010397" lon="13.670051"><ele>280.0</ele><time>2026-05-06T10:15:52.388Z</time></trkpt><trkpt lat="37.3011201" lon="13.670027"><ele>280.0</ele><time>2026-05-06T10:15:53.388Z</time></trkpt><trkpt lat="37.3012019" lon="13.6700036"><ele>280.0</ele><time>2026-05-06T10:15:54.388Z</time></trkpt><trkpt lat="37.3012809" lon="13.6699775"><ele>280.0</ele><time>2026-05-06T10:15:55.388Z</time></trkpt><trkpt lat="37.3013569" lon="13.6699533"><ele>280.0</ele><time>2026-05-06T10:15:56.388Z</time></trkpt><trkpt lat="37.3014348" lon="13.6699326"><ele>280.0</ele><time>2026-05-06T10:15:57.388Z</time></trkpt><trkpt lat="37.3015147" lon="13.6699095"><ele>280.0</ele><time>2026-05-06T10:15:58.389Z</time></trkpt><trkpt lat="37.3016008" lon="13.6698797"><ele>280.0</ele><time>2026-05-06T10:15:59.389Z</time></trkpt><trkpt lat="37.3016993" lon="13.6698471"><ele>280.0</ele><time>2026-05-06T10:16:00.388Z</time></trkpt><trkpt lat="37.3018029" lon="13.6698178"><ele>280.0</ele><time>2026-05-06T10:16:01.388Z</time></trkpt><trkpt lat="37.3019099" lon="13.669789"><ele>280.0</ele><time>2026-05-06T10:16:02.388Z</time></trkpt><trkpt lat="37.3020249" lon="13.6697568"><ele>280.0</ele><time>2026-05-06T10:16:03.388Z</time></trkpt><trkpt lat="37.3021408" lon="13.6697226"><ele>280.0</ele><time>2026-05-06T10:16:04.389Z</time></trkpt><trkpt lat="37.3022478" lon="13.6696897"><ele>280.6</ele><time>2026-05-06T10:16:05.388Z</time></trkpt><trkpt lat="37.3023466" lon="13.6696626"><ele>281.2</ele><time>2026-05-06T10:16:06.388Z</time></trkpt><trkpt lat="37.3024393" lon="13.669637"><ele>281.8</ele><time>2026-05-06T10:16:07.389Z</time></trkpt><trkpt lat="37.3025166" lon="13.6696116"><ele>282.4</ele><time>2026-05-06T10:16:08.388Z</time></trkpt><trkpt lat="37.302631" lon="13.6695789"><ele>283.0</ele><time>2026-05-06T10:16:10.389Z</time></trkpt><trkpt lat="37.3026937" lon="13.6695689"><ele>283.0</ele><time>2026-05-06T10:16:11.388Z</time></trkpt><trkpt lat="37.3027754" lon="13.6695575"><ele>283.0</ele><time>2026-05-06T10:16:12.389Z</time></trkpt><trkpt lat="37.3028536" lon="13.6695549"><ele>283.0</ele><time>2026-05-06T10:16:13.388Z</time></trkpt><trkpt lat="37.3029214" lon="13.6695618"><ele>283.0</ele><time>2026-05-06T10:16:14.389Z</time></trkpt><trkpt lat="37.3029912" lon="13.6695666"><ele>283.0</ele><time>2026-05-06T10:16:15.388Z</time></trkpt><trkpt lat="37.303068" lon="13.6695708"><ele>283.0</ele><time>2026-05-06T10:16:16.388Z</time></trkpt><trkpt lat="37.3031545" lon="13.6695799"><ele>283.0</ele><time>2026-05-06T10:16:17.388Z</time></trkpt><trkpt lat="37.3032426" lon="13.6695893"><ele>283.0</ele><time>2026-05-06T10:16:18.388Z</time></trkpt><trkpt lat="37.3033349" lon="13.6695931"><ele>283.0</ele><time>2026-05-06T10:16:19.388Z</time></trkpt><trkpt lat="37.3034354" lon="13.6695855"><ele>283.0</ele><time>2026-05-06T10:16:20.388Z</time></trkpt><trkpt lat="37.3035369" lon="13.6695603"><ele>283.0</ele><time>2026-05-06T10:16:21.389Z</time></trkpt><trkpt lat="37.3036358" lon="13.6695169"><ele>283.0</ele><time>2026-05-06T10:16:22.388Z</time></trkpt><trkpt lat="37.303734" lon="13.6694609"><ele>283.0</ele><time>2026-05-06T10:16:23.388Z</time></trkpt><trkpt lat="37.3038375" lon="13.6693959"><ele>283.0</ele><time>2026-05-06T10:16:24.39Z</time></trkpt><trkpt lat="37.3039445" lon="13.6693307"><ele>283.0</ele><time>2026-05-06T10:16:25.389Z</time></trkpt><trkpt lat="37.3040535" lon="13.6692632"><ele>283.0</ele><time>2026-05-06T10:16:26.388Z</time></trkpt><trkpt lat="37.3041626" lon="13.6691908"><ele>283.0</ele><time>2026-05-06T10:16:27.388Z</time></trkpt><trkpt lat="37.3042733" lon="13.6691165"><ele>283.0</ele><time>2026-05-06T10:16:28.388Z</time></trkpt><trkpt lat="37.3043836" lon="13.6690433"><ele>283.0</ele><time>2026-05-06T10:16:29.388Z</time></trkpt><trkpt lat="37.3044899" lon="13.6689745"><ele>283.0</ele><time>2026-05-06T10:16:30.389Z</time></trkpt><trkpt lat="37.3045963" lon="13.6689027"><ele>283.0</ele><time>2026-05-06T10:16:31.388Z</time></trkpt><trkpt lat="37.3047074" lon="13.6688251"><ele>283.0</ele><time>2026-05-06T10:16:32.388Z</time></trkpt><trkpt lat="37.3048247" lon="13.6687516"><ele>283.0</ele><time>2026-05-06T10:16:33.389Z</time></trkpt><trkpt lat="37.3049434" lon="13.6686805"><ele>282.75</ele><time>2026-05-06T10:16:34.39Z</time></trkpt><trkpt lat="37.3050598" lon="13.6686144"><ele>282.5</ele><time>2026-05-06T10:16:35.388Z</time></trkpt><trkpt lat="37.3051733" lon="13.6685609"><ele>282.25</ele><time>2026-05-06T10:16:36.39Z</time></trkpt><trkpt lat="37.3052836" lon="13.668511"><ele>282.0</ele><time>2026-05-06T10:16:37.388Z</time></trkpt><trkpt lat="37.3053918" lon="13.6684617"><ele>282.0</ele><time>2026-05-06T10:16:38.389Z</time></trkpt><trkpt lat="37.3055005" lon="13.6684166"><ele>282.0</ele><time>2026-05-06T10:16:39.388Z</time></trkpt><trkpt lat="37.3056114" lon="13.6683679"><ele>282.0</ele><time>2026-05-06T10:16:40.389Z</time></trkpt><trkpt lat="37.3057227" lon="13.6683192"><ele>282.0</ele><time>2026-05-06T10:16:41.389Z</time></trkpt><trkpt lat="37.305833" lon="13.6682742"><ele>282.4</ele><time>2026-05-06T10:16:42.39Z</time></trkpt><trkpt lat="37.3059409" lon="13.6682309"><ele>282.79999999999995</ele><time>2026-05-06T10:16:43.388Z</time></trkpt><trkpt lat="37.3060447" lon="13.668186"><ele>283.2</ele><time>2026-05-06T10:16:44.389Z</time></trkpt><trkpt lat="37.3061457" lon="13.6681449"><ele>283.59999999999997</ele><time>2026-05-06T10:16:45.388Z</time></trkpt><trkpt lat="37.3062475" lon="13.6681022"><ele>284.0</ele><time>2026-05-06T10:16:46.388Z</time></trkpt><trkpt lat="37.3063484" lon="13.6680582"><ele>284.59999999999997</ele><time>2026-05-06T10:16:47.388Z</time></trkpt><trkpt lat="37.3064448" lon="13.6680201"><ele>285.2</ele><time>2026-05-06T10:16:48.388Z</time></trkpt><trkpt lat="37.3065374" lon="13.6679824"><ele>285.79999999999995</ele><time>2026-05-06T10:16:49.388Z</time></trkpt><trkpt lat="37.3066269" lon="13.6679389"><ele>286.4</ele><time>2026-05-06T10:16:50.388Z</time></trkpt><trkpt lat="37.3067087" lon="13.6678945"><ele>287.0</ele><time>2026-05-06T10:16:51.389Z</time></trkpt><trkpt lat="37.3067791" lon="13.6678507"><ele>287.0</ele><time>2026-05-06T10:16:52.388Z</time></trkpt><trkpt lat="37.3068419" lon="13.6678027"><ele>287.0</ele><time>2026-05-06T10:16:53.388Z</time></trkpt><trkpt lat="37.3069018" lon="13.6677457"><ele>287.0</ele><time>2026-05-06T10:16:54.389Z</time></trkpt><trkpt lat="37.3069596" lon="13.6676799"><ele>287.0</ele><time>2026-05-06T10:16:55.389Z</time></trkpt><trkpt lat="37.3070167" lon="13.6676065"><ele>287.0</ele><time>2026-05-06T10:16:56.388Z</time></trkpt><trkpt lat="37.3070753" lon="13.6675314"><ele>287.0</ele><time>2026-05-06T10:16:57.388Z</time></trkpt><trkpt lat="37.3071325" lon="13.6674574"><ele>286.6666666666667</ele><time>2026-05-06T10:16:58.388Z</time></trkpt><trkpt lat="37.3071888" lon="13.6673833"><ele>286.33333333333337</ele><time>2026-05-06T10:16:59.388Z</time></trkpt><trkpt lat="37.3072438" lon="13.6673102"><ele>286.0</ele><time>2026-05-06T10:17:00.388Z</time></trkpt><trkpt lat="37.3072947" lon="13.667233"><ele>285.6666666666667</ele><time>2026-05-06T10:17:01.388Z</time></trkpt><trkpt lat="37.3073468" lon="13.6671507"><ele>285.3333333333333</ele><time>2026-05-06T10:17:02.388Z</time></trkpt><trkpt lat="37.3074009" lon="13.6670723"><ele>285.0</ele><time>2026-05-06T10:17:03.389Z</time></trkpt><trkpt lat="37.3074501" lon="13.6670033"><ele>285.6666666666667</ele><time>2026-05-06T10:17:04.389Z</time></trkpt><trkpt lat="37.3074998" lon="13.6669336"><ele>286.3333333333333</ele><time>2026-05-06T10:17:05.388Z</time></trkpt><trkpt lat="37.3075535" lon="13.6668579"><ele>287.0</ele><time>2026-05-06T10:17:06.388Z</time></trkpt><trkpt lat="37.3076091" lon="13.6667772"><ele>287.66666666666663</ele><time>2026-05-06T10:17:07.388Z</time></trkpt><trkpt lat="37.3076688" lon="13.6666911"><ele>288.3333333333333</ele><time>2026-05-06T10:17:08.388Z</time></trkpt><trkpt lat="37.3077269" lon="13.6666055"><ele>289.0</ele><time>2026-05-06T10:17:09.39Z</time></trkpt><trkpt lat="37.3077846" lon="13.6665252"><ele>289.0</ele><time>2026-05-06T10:17:10.388Z</time></trkpt><trkpt lat="37.3078445" lon="13.6664332"><ele>289.0</ele><time>2026-05-06T10:17:11.389Z</time></trkpt><trkpt lat="37.3079018" lon="13.6663379"><ele>289.0</ele><time>2026-05-06T10:17:12.388Z</time></trkpt><trkpt lat="37.3079536" lon="13.6662491"><ele>289.0</ele><time>2026-05-06T10:17:13.389Z</time></trkpt><trkpt lat="37.3079974" lon="13.6661677"><ele>289.0</ele><time>2026-05-06T10:17:14.388Z</time></trkpt><trkpt lat="37.3080383" lon="13.6660945"><ele>289.0</ele><time>2026-05-06T10:17:15.389Z</time></trkpt><trkpt lat="37.3080834" lon="13.6660207"><ele>290.66666666666663</ele><time>2026-05-06T10:17:16.389Z</time></trkpt><trkpt lat="37.3081359" lon="13.665941"><ele>292.3333333333333</ele><time>2026-05-06T10:17:17.389Z</time></trkpt><trkpt lat="37.3081865" lon="13.665868"><ele>294.0</ele><time>2026-05-06T10:17:18.388Z</time></trkpt><trkpt lat="37.3082325" lon="13.6657983"><ele>295.6666666666667</ele><time>2026-05-06T10:17:19.389Z</time></trkpt><trkpt lat="37.308273" lon="13.665722"><ele>297.33333333333337</ele><time>2026-05-06T10:17:20.388Z</time></trkpt><trkpt lat="37.3083121" lon="13.6656405"><ele>299.0</ele><time>2026-05-06T10:17:21.388Z</time></trkpt><trkpt lat="37.3083533" lon="13.6655513"><ele>299.0</ele><time>2026-05-06T10:17:22.388Z</time></trkpt><trkpt lat="37.3084003" lon="13.6654586"><ele>299.0</ele><time>2026-05-06T10:17:23.389Z</time></trkpt><trkpt lat="37.3084495" lon="13.6653698"><ele>299.0</ele><time>2026-05-06T10:17:24.388Z</time></trkpt><trkpt lat="37.3084947" lon="13.6652924"><ele>299.0</ele><time>2026-05-06T10:17:25.388Z</time></trkpt><trkpt lat="37.3085358" lon="13.6652244"><ele>299.0</ele><time>2026-05-06T10:17:26.388Z</time></trkpt><trkpt lat="37.3085762" lon="13.6651586"><ele>299.0</ele><time>2026-05-06T10:17:27.389Z</time></trkpt><trkpt lat="37.3086404" lon="13.6650395"><ele>300.0</ele><time>2026-05-06T10:17:29.388Z</time></trkpt><trkpt lat="37.3086852" lon="13.664952"><ele>301.0</ele><time>2026-05-06T10:17:31.388Z</time></trkpt><trkpt lat="37.3087317" lon="13.6648545"><ele>302.0</ele><time>2026-05-06T10:17:33.389Z</time></trkpt><trkpt lat="37.3088146" lon="13.6647369"><ele>303.0</ele><time>2026-05-06T10:17:35.388Z</time></trkpt><trkpt lat="37.3089018" lon="13.6646374"><ele>304.0</ele><time>2026-05-06T10:17:37.389Z</time></trkpt><trkpt lat="37.3089507" lon="13.6645863"><ele>304.0</ele><time>2026-05-06T10:17:38.39Z</time></trkpt><trkpt lat="37.3090029" lon="13.6645369"><ele>304.0</ele><time>2026-05-06T10:17:39.389Z</time></trkpt><trkpt lat="37.3090977" lon="13.6644618"><ele>304.0</ele><time>2026-05-06T10:17:41.388Z</time></trkpt><trkpt lat="37.3091989" lon="13.6644054"><ele>304.0</ele><time>2026-05-06T10:17:43.388Z</time></trkpt><trkpt lat="37.309294" lon="13.6643528"><ele>304.0</ele><time>2026-05-06T10:17:45.389Z</time></trkpt><trkpt lat="37.3094036" lon="13.664284"><ele>303.0</ele><time>2026-05-06T10:17:47.388Z</time></trkpt><trkpt lat="37.3094613" lon="13.6642461"><ele>302.0</ele><time>2026-05-06T10:17:48.388Z</time></trkpt><trkpt lat="37.3095217" lon="13.6642072"><ele>301.0</ele><time>2026-05-06T10:17:49.388Z</time></trkpt><trkpt lat="37.309583" lon="13.6641646"><ele>300.0</ele><time>2026-05-06T10:17:50.39Z</time></trkpt><trkpt lat="37.3096489" lon="13.6641149"><ele>299.0</ele><time>2026-05-06T10:17:51.388Z</time></trkpt><trkpt lat="37.3097228" lon="13.6640635"><ele>298.0</ele><time>2026-05-06T10:17:52.388Z</time></trkpt><trkpt lat="37.3098011" lon="13.6640116"><ele>298.0</ele><time>2026-05-06T10:17:53.388Z</time></trkpt><trkpt lat="37.3098853" lon="13.6639529"><ele>298.0</ele><time>2026-05-06T10:17:54.388Z</time></trkpt><trkpt lat="37.3099651" lon="13.6638962"><ele>298.0</ele><time>2026-05-06T10:17:55.388Z</time></trkpt><trkpt lat="37.3100351" lon="13.6638437"><ele>298.0</ele><time>2026-05-06T10:17:56.388Z</time></trkpt><trkpt lat="37.310103" lon="13.6637984"><ele>298.0</ele><time>2026-05-06T10:17:57.388Z</time></trkpt><trkpt lat="37.3101706" lon="13.6637538"><ele>298.0</ele><time>2026-05-06T10:17:58.388Z</time></trkpt><trkpt lat="37.3102423" lon="13.6637014"><ele>298.0</ele><time>2026-05-06T10:17:59.389Z</time></trkpt><trkpt lat="37.3103211" lon="13.6636439"><ele>298.0</ele><time>2026-05-06T10:18:00.389Z</time></trkpt><trkpt lat="37.3104048" lon="13.6635797"><ele>298.0</ele><time>2026-05-06T10:18:01.388Z</time></trkpt><trkpt lat="37.3104846" lon="13.663522"><ele>298.0</ele><time>2026-05-06T10:18:02.389Z</time></trkpt><trkpt lat="37.3105578" lon="13.6634773"><ele>298.0</ele><time>2026-05-06T10:18:03.388Z</time></trkpt><trkpt lat="37.3106268" lon="13.6634339"><ele>298.0</ele><time>2026-05-06T10:18:04.388Z</time></trkpt><trkpt lat="37.310693" lon="13.6633932"><ele>296.5</ele><time>2026-05-06T10:18:05.388Z</time></trkpt><trkpt lat="37.3107552" lon="13.6633537"><ele>295.0</ele><time>2026-05-06T10:18:06.388Z</time></trkpt><trkpt lat="37.3108115" lon="13.663314"><ele>293.5</ele><time>2026-05-06T10:18:07.388Z</time></trkpt><trkpt lat="37.3108987" lon="13.6632551"><ele>292.0</ele><time>2026-05-06T10:18:09.389Z</time></trkpt><trkpt lat="37.310959" lon="13.6631953"><ele>290.5</ele><time>2026-05-06T10:18:11.388Z</time></trkpt><trkpt lat="37.3110357" lon="13.6631038"><ele>289.0</ele><time>2026-05-06T10:18:13.387Z</time></trkpt><trkpt lat="37.3111276" lon="13.6630346"><ele>289.0</ele><time>2026-05-06T10:18:15.387Z</time></trkpt><trkpt lat="37.3112068" lon="13.6629843"><ele>289.0</ele><time>2026-05-06T10:18:17.387Z</time></trkpt><trkpt lat="37.3112868" lon="13.6629115"><ele>289.0</ele><time>2026-05-06T10:18:20.388Z</time></trkpt><trkpt lat="37.3113906" lon="13.6628242"><ele>289.0</ele><time>2026-05-06T10:18:22.388Z</time></trkpt><trkpt lat="37.3114649" lon="13.6627744"><ele>289.0</ele><time>2026-05-06T10:18:24.387Z</time></trkpt><trkpt lat="37.3115328" lon="13.6627809"><ele>287.0</ele><time>2026-05-06T10:18:29.388Z</time></trkpt></trkseg><trkseg><trkpt lat="37.3114546" lon="13.662743"><ele>287.4</ele><time>2026-05-06T10:59:27.385Z</time></trkpt><trkpt lat="37.3113967" lon="13.6627744"><ele>287.79999999999995</ele><time>2026-05-06T10:59:28.385Z</time></trkpt><trkpt lat="37.3113237" lon="13.6628254"><ele>288.2</ele><time>2026-05-06T10:59:29.384Z</time></trkpt><trkpt lat="37.3112238" lon="13.6628903"><ele>288.59999999999997</ele><time>2026-05-06T10:59:30.385Z</time></trkpt><trkpt lat="37.3111268" lon="13.6629442"><ele>289.0</ele><time>2026-05-06T10:59:31.384Z</time></trkpt><trkpt lat="37.3110427" lon="13.6629858"><ele>289.0</ele><time>2026-05-06T10:59:32.384Z</time></trkpt><trkpt lat="37.3109688" lon="13.6630322"><ele>289.0</ele><time>2026-05-06T10:59:33.385Z</time></trkpt><trkpt lat="37.3109089" lon="13.6630874"><ele>289.0</ele><time>2026-05-06T10:59:34.384Z</time></trkpt><trkpt lat="37.3108445" lon="13.6631525"><ele>289.0</ele><time>2026-05-06T10:59:35.384Z</time></trkpt><trkpt lat="37.3107947" lon="13.6632089"><ele>289.0</ele><time>2026-05-06T10:59:36.385Z</time></trkpt><trkpt lat="37.3107249" lon="13.6632786"><ele>289.0</ele><time>2026-05-06T10:59:37.386Z</time></trkpt><trkpt lat="37.3106391" lon="13.6633566"><ele>289.4</ele><time>2026-05-06T10:59:38.386Z</time></trkpt><trkpt lat="37.3105627" lon="13.6634216"><ele>289.79999999999995</ele><time>2026-05-06T10:59:39.384Z</time></trkpt><trkpt lat="37.3104775" lon="13.6634856"><ele>290.20000000000005</ele><time>2026-05-06T10:59:40.384Z</time></trkpt><trkpt lat="37.3103906" lon="13.6635503"><ele>290.6</ele><time>2026-05-06T10:59:41.384Z</time></trkpt><trkpt lat="37.3103066" lon="13.6636117"><ele>291.0</ele><time>2026-05-06T10:59:42.384Z</time></trkpt><trkpt lat="37.3102186" lon="13.6636809"><ele>292.0</ele><time>2026-05-06T10:59:43.384Z</time></trkpt><trkpt lat="37.3101172" lon="13.6637544"><ele>293.0</ele><time>2026-05-06T10:59:44.384Z</time></trkpt><trkpt lat="37.3100031" lon="13.6638363"><ele>294.0</ele><time>2026-05-06T10:59:45.384Z</time></trkpt><trkpt lat="37.3099155" lon="13.6638913"><ele>295.0</ele><time>2026-05-06T10:59:46.384Z</time></trkpt><trkpt lat="37.3098244" lon="13.6639344"><ele>296.0</ele><time>2026-05-06T10:59:47.385Z</time></trkpt><trkpt lat="37.3097278" lon="13.6639821"><ele>296.0</ele><time>2026-05-06T10:59:48.386Z</time></trkpt><trkpt lat="37.3096198" lon="13.6640548"><ele>296.0</ele><time>2026-05-06T10:59:49.385Z</time></trkpt><trkpt lat="37.309509" lon="13.6641301"><ele>296.0</ele><time>2026-05-06T10:59:50.384Z</time></trkpt><trkpt lat="37.3094116" lon="13.6641992"><ele>296.0</ele><time>2026-05-06T10:59:51.384Z</time></trkpt><trkpt lat="37.309316" lon="13.6642653"><ele>296.0</ele><time>2026-05-06T10:59:52.385Z</time></trkpt><trkpt lat="37.309227" lon="13.664327"><ele>296.0</ele><time>2026-05-06T10:59:53.385Z</time></trkpt><trkpt lat="37.3091466" lon="13.6643868"><ele>296.0</ele><time>2026-05-06T10:59:54.385Z</time></trkpt><trkpt lat="37.3090707" lon="13.6644476"><ele>296.0</ele><time>2026-05-06T10:59:55.384Z</time></trkpt><trkpt lat="37.3089976" lon="13.6644989"><ele>296.0</ele><time>2026-05-06T10:59:56.384Z</time></trkpt><trkpt lat="37.3089366" lon="13.6645774"><ele>295.2</ele><time>2026-05-06T10:59:57.384Z</time></trkpt><trkpt lat="37.308871" lon="13.664666"><ele>294.40000000000003</ele><time>2026-05-06T10:59:58.385Z</time></trkpt><trkpt lat="37.3088033" lon="13.6647544"><ele>293.6</ele><time>2026-05-06T10:59:59.384Z</time></trkpt><trkpt lat="37.3087384" lon="13.6648393"><ele>292.8</ele><time>2026-05-06T11:00:00.386Z</time></trkpt><trkpt lat="37.3086805" lon="13.66493"><ele>292.0</ele><time>2026-05-06T11:00:01.384Z</time></trkpt><trkpt lat="37.3086355" lon="13.6650087"><ele>292.0</ele><time>2026-05-06T11:00:02.384Z</time></trkpt><trkpt lat="37.3085842" lon="13.6650928"><ele>292.0</ele><time>2026-05-06T11:00:03.385Z</time></trkpt><trkpt lat="37.3085485" lon="13.6651595"><ele>292.0</ele><time>2026-05-06T11:00:04.384Z</time></trkpt><trkpt lat="37.3084827" lon="13.6652599"><ele>292.0</ele><time>2026-05-06T11:00:06.385Z</time></trkpt><trkpt lat="37.3084262" lon="13.6653535"><ele>292.0</ele><time>2026-05-06T11:00:08.384Z</time></trkpt><trkpt lat="37.3083567" lon="13.6654645"><ele>293.4</ele><time>2026-05-06T11:00:10.384Z</time></trkpt><trkpt lat="37.3083173" lon="13.6655528"><ele>294.79999999999995</ele><time>2026-05-06T11:00:11.385Z</time></trkpt><trkpt lat="37.3082492" lon="13.6656721"><ele>296.2</ele><time>2026-05-06T11:00:12.385Z</time></trkpt><trkpt lat="37.3081772" lon="13.6657973"><ele>297.59999999999997</ele><time>2026-05-06T11:00:13.384Z</time></trkpt><trkpt lat="37.3081114" lon="13.6659171"><ele>299.0</ele><time>2026-05-06T11:00:14.384Z</time></trkpt><trkpt lat="37.3080506" lon="13.6660286"><ele>297.0</ele><time>2026-05-06T11:00:15.385Z</time></trkpt><trkpt lat="37.3079891" lon="13.6661333"><ele>295.0</ele><time>2026-05-06T11:00:16.385Z</time></trkpt><trkpt lat="37.3079339" lon="13.666236"><ele>293.0</ele><time>2026-05-06T11:00:17.385Z</time></trkpt><trkpt lat="37.3078736" lon="13.6663302"><ele>291.0</ele><time>2026-05-06T11:00:18.385Z</time></trkpt><trkpt lat="37.3078112" lon="13.666438"><ele>289.0</ele><time>2026-05-06T11:00:19.384Z</time></trkpt><trkpt lat="37.3077341" lon="13.666559"><ele>289.0</ele><time>2026-05-06T11:00:20.386Z</time></trkpt><trkpt lat="37.3076473" lon="13.666684"><ele>289.0</ele><time>2026-05-06T11:00:21.384Z</time></trkpt><trkpt lat="37.3075694" lon="13.6667979"><ele>289.0</ele><time>2026-05-06T11:00:22.384Z</time></trkpt><trkpt lat="37.3074921" lon="13.6669071"><ele>289.0</ele><time>2026-05-06T11:00:23.385Z</time></trkpt><trkpt lat="37.3074198" lon="13.6670111"><ele>289.2</ele><time>2026-05-06T11:00:24.384Z</time></trkpt><trkpt lat="37.3073486" lon="13.6671061"><ele>289.4</ele><time>2026-05-06T11:00:25.384Z</time></trkpt><trkpt lat="37.3072794" lon="13.6671965"><ele>289.6</ele><time>2026-05-06T11:00:26.384Z</time></trkpt><trkpt lat="37.307214" lon="13.6672854"><ele>289.8</ele><time>2026-05-06T11:00:27.384Z</time></trkpt><trkpt lat="37.3071419" lon="13.6673723"><ele>290.0</ele><time>2026-05-06T11:00:28.385Z</time></trkpt><trkpt lat="37.3070692" lon="13.6674636"><ele>289.4</ele><time>2026-05-06T11:00:29.384Z</time></trkpt><trkpt lat="37.3069961" lon="13.6675558"><ele>288.8</ele><time>2026-05-06T11:00:30.384Z</time></trkpt><trkpt lat="37.3069216" lon="13.667645"><ele>288.2</ele><time>2026-05-06T11:00:31.384Z</time></trkpt><trkpt lat="37.3068403" lon="13.6677255"><ele>287.6</ele><time>2026-05-06T11:00:32.385Z</time></trkpt><trkpt lat="37.3067632" lon="13.6678021"><ele>287.0</ele><time>2026-05-06T11:00:33.384Z</time></trkpt><trkpt lat="37.3066644" lon="13.667852"><ele>287.0</ele><time>2026-05-06T11:00:34.384Z</time></trkpt><trkpt lat="37.3065833" lon="13.6679093"><ele>287.0</ele><time>2026-05-06T11:00:35.384Z</time></trkpt><trkpt lat="37.3064983" lon="13.6679521"><ele>287.0</ele><time>2026-05-06T11:00:36.384Z</time></trkpt><trkpt lat="37.3064141" lon="13.6679855"><ele>287.0</ele><time>2026-05-06T11:00:37.384Z</time></trkpt><trkpt lat="37.3063327" lon="13.6680215"><ele>287.0</ele><time>2026-05-06T11:00:38.384Z</time></trkpt><trkpt lat="37.3062505" lon="13.6680521"><ele>287.0</ele><time>2026-05-06T11:00:39.384Z</time></trkpt><trkpt lat="37.3061686" lon="13.6680864"><ele>286.4</ele><time>2026-05-06T11:00:40.385Z</time></trkpt><trkpt lat="37.3060729" lon="13.668124"><ele>285.79999999999995</ele><time>2026-05-06T11:00:41.384Z</time></trkpt><trkpt lat="37.3059806" lon="13.6681619"><ele>285.2</ele><time>2026-05-06T11:00:42.384Z</time></trkpt><trkpt lat="37.3058895" lon="13.6682071"><ele>284.59999999999997</ele><time>2026-05-06T11:00:43.385Z</time></trkpt><trkpt lat="37.3058085" lon="13.6682471"><ele>284.0</ele><time>2026-05-06T11:00:44.384Z</time></trkpt><trkpt lat="37.305726" lon="13.6682871"><ele>284.0</ele><time>2026-05-06T11:00:45.385Z</time></trkpt><trkpt lat="37.305639" lon="13.6683283"><ele>284.0</ele><time>2026-05-06T11:00:46.385Z</time></trkpt><trkpt lat="37.3055498" lon="13.6683688"><ele>284.0</ele><time>2026-05-06T11:00:47.385Z</time></trkpt><trkpt lat="37.3054627" lon="13.6684064"><ele>284.0</ele><time>2026-05-06T11:00:48.384Z</time></trkpt><trkpt lat="37.3053785" lon="13.6684427"><ele>284.0</ele><time>2026-05-06T11:00:49.384Z</time></trkpt><trkpt lat="37.305293" lon="13.6684777"><ele>283.6666666666667</ele><time>2026-05-06T11:00:50.384Z</time></trkpt><trkpt lat="37.3052049" lon="13.6685204"><ele>283.33333333333337</ele><time>2026-05-06T11:00:51.384Z</time></trkpt><trkpt lat="37.3051223" lon="13.6685646"><ele>283.0</ele><time>2026-05-06T11:00:52.384Z</time></trkpt><trkpt lat="37.3050441" lon="13.6686077"><ele>282.6666666666667</ele><time>2026-05-06T11:00:53.384Z</time></trkpt><trkpt lat="37.3049637" lon="13.6686523"><ele>282.3333333333333</ele><time>2026-05-06T11:00:54.384Z</time></trkpt><trkpt lat="37.3048855" lon="13.6687016"><ele>282.0</ele><time>2026-05-06T11:00:55.384Z</time></trkpt><trkpt lat="37.3047979" lon="13.6687526"><ele>282.2</ele><time>2026-05-06T11:00:56.384Z</time></trkpt><trkpt lat="37.3047137" lon="13.668801"><ele>282.4</ele><time>2026-05-06T11:00:57.385Z</time></trkpt><trkpt lat="37.3046344" lon="13.6688524"><ele>282.6</ele><time>2026-05-06T11:00:58.384Z</time></trkpt><trkpt lat="37.3045617" lon="13.668901"><ele>282.8</ele><time>2026-05-06T11:00:59.384Z</time></trkpt><trkpt lat="37.304484" lon="13.6689518"><ele>283.0</ele><time>2026-05-06T11:01:00.384Z</time></trkpt><trkpt lat="37.3043952" lon="13.6690122"><ele>283.0</ele><time>2026-05-06T11:01:01.384Z</time></trkpt><trkpt lat="37.3043151" lon="13.6690671"><ele>283.0</ele><time>2026-05-06T11:01:02.384Z</time></trkpt><trkpt lat="37.3042251" lon="13.6691323"><ele>283.0</ele><time>2026-05-06T11:01:03.385Z</time></trkpt><trkpt lat="37.3041219" lon="13.6692086"><ele>283.0</ele><time>2026-05-06T11:01:04.384Z</time></trkpt><trkpt lat="37.3039896" lon="13.669296"><ele>283.0</ele><time>2026-05-06T11:01:05.384Z</time></trkpt><trkpt lat="37.3038627" lon="13.6693799"><ele>283.0</ele><time>2026-05-06T11:01:06.384Z</time></trkpt><trkpt lat="37.3037368" lon="13.6694411"><ele>283.0</ele><time>2026-05-06T11:01:07.384Z</time></trkpt><trkpt lat="37.3036112" lon="13.6694928"><ele>283.0</ele><time>2026-05-06T11:01:08.384Z</time></trkpt><trkpt lat="37.3034848" lon="13.6695228"><ele>283.0</ele><time>2026-05-06T11:01:09.385Z</time></trkpt><trkpt lat="37.3033569" lon="13.6695415"><ele>283.0</ele><time>2026-05-06T11:01:10.384Z</time></trkpt><trkpt lat="37.3032354" lon="13.6695396"><ele>283.0</ele><time>2026-05-06T11:01:11.384Z</time></trkpt><trkpt lat="37.3031233" lon="13.6695292"><ele>283.0</ele><time>2026-05-06T11:01:12.384Z</time></trkpt><trkpt lat="37.3030208" lon="13.6695204"><ele>283.0</ele><time>2026-05-06T11:01:13.384Z</time></trkpt><trkpt lat="37.3029219" lon="13.6695156"><ele>283.0</ele><time>2026-05-06T11:01:14.385Z</time></trkpt><trkpt lat="37.3028286" lon="13.6695119"><ele>283.0</ele><time>2026-05-06T11:01:15.386Z</time></trkpt><trkpt lat="37.302741" lon="13.6695138"><ele>283.0</ele><time>2026-05-06T11:01:16.384Z</time></trkpt><trkpt lat="37.3026723" lon="13.6695385"><ele>283.0</ele><time>2026-05-06T11:01:17.385Z</time></trkpt><trkpt lat="37.3025844" lon="13.6695719"><ele>283.0</ele><time>2026-05-06T11:01:18.384Z</time></trkpt><trkpt lat="37.3025017" lon="13.6695997"><ele>283.0</ele><time>2026-05-06T11:01:19.384Z</time></trkpt><trkpt lat="37.3024181" lon="13.6696266"><ele>283.0</ele><time>2026-05-06T11:01:20.384Z</time></trkpt><trkpt lat="37.3023394" lon="13.6696565"><ele>283.0</ele><time>2026-05-06T11:01:21.386Z</time></trkpt><trkpt lat="37.3022654" lon="13.669673"><ele>283.0</ele><time>2026-05-06T11:01:22.385Z</time></trkpt><trkpt lat="37.3021906" lon="13.669683"><ele>283.0</ele><time>2026-05-06T11:01:23.385Z</time></trkpt><trkpt lat="37.3021171" lon="13.6697041"><ele>283.0</ele><time>2026-05-06T11:01:24.384Z</time></trkpt><trkpt lat="37.3020299" lon="13.6697357"><ele>282.57142857142856</ele><time>2026-05-06T11:01:25.385Z</time></trkpt><trkpt lat="37.3019492" lon="13.6697655"><ele>282.14285714285717</ele><time>2026-05-06T11:01:26.384Z</time></trkpt><trkpt lat="37.3018721" lon="13.6697904"><ele>281.7142857142857</ele><time>2026-05-06T11:01:27.384Z</time></trkpt><trkpt lat="37.3018124" lon="13.6698185"><ele>281.2857142857143</ele><time>2026-05-06T11:01:28.384Z</time></trkpt><trkpt lat="37.3017445" lon="13.6698432"><ele>280.8571428571429</ele><time>2026-05-06T11:01:29.384Z</time></trkpt><trkpt lat="37.3016801" lon="13.6698596"><ele>280.42857142857144</ele><time>2026-05-06T11:01:30.384Z</time></trkpt><trkpt lat="37.301615" lon="13.6698764"><ele>280.0</ele><time>2026-05-06T11:01:31.384Z</time></trkpt><trkpt lat="37.3015444" lon="13.6698953"><ele>280.0</ele><time>2026-05-06T11:01:32.384Z</time></trkpt><trkpt lat="37.3014761" lon="13.669912"><ele>280.0</ele><time>2026-05-06T11:01:33.384Z</time></trkpt><trkpt lat="37.3013975" lon="13.6699322"><ele>280.0</ele><time>2026-05-06T11:01:34.384Z</time></trkpt><trkpt lat="37.3013221" lon="13.6699493"><ele>280.0</ele><time>2026-05-06T11:01:35.384Z</time></trkpt><trkpt lat="37.3012479" lon="13.6699697"><ele>280.0</ele><time>2026-05-06T11:01:36.384Z</time></trkpt><trkpt lat="37.3011719" lon="13.6699912"><ele>280.0</ele><time>2026-05-06T11:01:37.384Z</time></trkpt><trkpt lat="37.3010936" lon="13.6700198"><ele>280.0</ele><time>2026-05-06T11:01:38.384Z</time></trkpt><trkpt lat="37.3010133" lon="13.6700428"><ele>280.0</ele><time>2026-05-06T11:01:39.384Z</time></trkpt><trkpt lat="37.3009379" lon="13.6700651"><ele>280.0</ele><time>2026-05-06T11:01:40.384Z</time></trkpt><trkpt lat="37.300861" lon="13.6700864"><ele>280.0</ele><time>2026-05-06T11:01:41.384Z</time></trkpt><trkpt lat="37.3007806" lon="13.6701065"><ele>280.0</ele><time>2026-05-06T11:01:42.384Z</time></trkpt><trkpt lat="37.3006992" lon="13.670133"><ele>280.0</ele><time>2026-05-06T11:01:43.384Z</time></trkpt><trkpt lat="37.3006149" lon="13.6701574"><ele>279.8333333333333</ele><time>2026-05-06T11:01:44.384Z</time></trkpt><trkpt lat="37.3005309" lon="13.6701864"><ele>279.66666666666663</ele><time>2026-05-06T11:01:45.385Z</time></trkpt><trkpt lat="37.3004588" lon="13.6702156"><ele>279.5</ele><time>2026-05-06T11:01:46.384Z</time></trkpt><trkpt lat="37.3003937" lon="13.6702456"><ele>279.3333333333333</ele><time>2026-05-06T11:01:47.385Z</time></trkpt><trkpt lat="37.3003294" lon="13.6702839"><ele>279.1666666666667</ele><time>2026-05-06T11:01:48.384Z</time></trkpt><trkpt lat="37.3002604" lon="13.6703253"><ele>279.0</ele><time>2026-05-06T11:01:49.384Z</time></trkpt><trkpt lat="37.300193" lon="13.6703743"><ele>279.0</ele><time>2026-05-06T11:01:50.386Z</time></trkpt><trkpt lat="37.3001199" lon="13.6704271"><ele>279.0</ele><time>2026-05-06T11:01:51.384Z</time></trkpt><trkpt lat="37.300048" lon="13.6704749"><ele>279.0</ele><time>2026-05-06T11:01:52.384Z</time></trkpt><trkpt lat="37.2999509" lon="13.6705225"><ele>279.0</ele><time>2026-05-06T11:01:53.385Z</time></trkpt><trkpt lat="37.2998524" lon="13.6705655"><ele>279.0</ele><time>2026-05-06T11:01:54.384Z</time></trkpt><trkpt lat="37.2997433" lon="13.6706144"><ele>281.0</ele><time>2026-05-06T11:01:55.383Z</time></trkpt><trkpt lat="37.2996279" lon="13.6706637"><ele>283.0</ele><time>2026-05-06T11:01:56.385Z</time></trkpt><trkpt lat="37.2995101" lon="13.6707119"><ele>285.0</ele><time>2026-05-06T11:01:57.385Z</time></trkpt><trkpt lat="37.2993972" lon="13.6707648"><ele>287.0</ele><time>2026-05-06T11:01:58.385Z</time></trkpt><trkpt lat="37.2992797" lon="13.6708088"><ele>287.0</ele><time>2026-05-06T11:01:59.385Z</time></trkpt><trkpt lat="37.2991652" lon="13.6708596"><ele>287.0</ele><time>2026-05-06T11:02:00.385Z</time></trkpt><trkpt lat="37.2990491" lon="13.6709056"><ele>287.0</ele><time>2026-05-06T11:02:01.384Z</time></trkpt><trkpt lat="37.298933" lon="13.6709543"><ele>287.0</ele><time>2026-05-06T11:02:02.384Z</time></trkpt><trkpt lat="37.2988054" lon="13.6710056"><ele>287.5</ele><time>2026-05-06T11:02:03.383Z</time></trkpt><trkpt lat="37.298677" lon="13.6710577"><ele>288.0</ele><time>2026-05-06T11:02:04.384Z</time></trkpt><trkpt lat="37.2985492" lon="13.6711068"><ele>288.5</ele><time>2026-05-06T11:02:05.384Z</time></trkpt><trkpt lat="37.2984268" lon="13.6711607"><ele>289.0</ele><time>2026-05-06T11:02:06.385Z</time></trkpt><trkpt lat="37.2983038" lon="13.6712102"><ele>289.0</ele><time>2026-05-06T11:02:07.385Z</time></trkpt><trkpt lat="37.2981788" lon="13.6712593"><ele>289.0</ele><time>2026-05-06T11:02:08.384Z</time></trkpt><trkpt lat="37.2980631" lon="13.6713067"><ele>289.0</ele><time>2026-05-06T11:02:09.385Z</time></trkpt><trkpt lat="37.297964" lon="13.6713345"><ele>289.0</ele><time>2026-05-06T11:02:10.384Z</time></trkpt><trkpt lat="37.2978709" lon="13.6713397"><ele>289.0</ele><time>2026-05-06T11:02:11.384Z</time></trkpt><trkpt lat="37.2977794" lon="13.6713201"><ele>291.0</ele><time>2026-05-06T11:02:12.384Z</time></trkpt><trkpt lat="37.2976863" lon="13.6712841"><ele>293.0</ele><time>2026-05-06T11:02:13.384Z</time></trkpt><trkpt lat="37.2975977" lon="13.671244"><ele>295.0</ele><time>2026-05-06T11:02:14.384Z</time></trkpt><trkpt lat="37.2975109" lon="13.6711829"><ele>297.0</ele><time>2026-05-06T11:02:15.384Z</time></trkpt><trkpt lat="37.297437" lon="13.6711185"><ele>299.0</ele><time>2026-05-06T11:02:16.384Z</time></trkpt><trkpt lat="37.2973674" lon="13.6710431"><ele>300.59999999999997</ele><time>2026-05-06T11:02:17.384Z</time></trkpt><trkpt lat="37.2972974" lon="13.6709753"><ele>302.2</ele><time>2026-05-06T11:02:18.385Z</time></trkpt><trkpt lat="37.2972243" lon="13.6709179"><ele>303.79999999999995</ele><time>2026-05-06T11:02:19.384Z</time></trkpt><trkpt lat="37.2971289" lon="13.6708812"><ele>305.4</ele><time>2026-05-06T11:02:20.384Z</time></trkpt><trkpt lat="37.2970324" lon="13.6708578"><ele>307.0</ele><time>2026-05-06T11:02:21.385Z</time></trkpt><trkpt lat="37.2969427" lon="13.6708427"><ele>307.66666666666663</ele><time>2026-05-06T11:02:22.383Z</time></trkpt><trkpt lat="37.2968596" lon="13.6708307"><ele>308.3333333333333</ele><time>2026-05-06T11:02:23.384Z</time></trkpt><trkpt lat="37.2967762" lon="13.6708258"><ele>309.0</ele><time>2026-05-06T11:02:24.384Z</time></trkpt><trkpt lat="37.2966886" lon="13.6708347"><ele>309.6666666666667</ele><time>2026-05-06T11:02:25.384Z</time></trkpt><trkpt lat="37.2965982" lon="13.6708537"><ele>310.33333333333337</ele><time>2026-05-06T11:02:26.384Z</time></trkpt><trkpt lat="37.2965061" lon="13.6708755"><ele>311.0</ele><time>2026-05-06T11:02:27.384Z</time></trkpt><trkpt lat="37.296416" lon="13.6708936"><ele>312.6</ele><time>2026-05-06T11:02:28.385Z</time></trkpt><trkpt lat="37.2963214" lon="13.670913"><ele>314.20000000000005</ele><time>2026-05-06T11:02:29.384Z</time></trkpt><trkpt lat="37.2962246" lon="13.6709326"><ele>315.79999999999995</ele><time>2026-05-06T11:02:30.385Z</time></trkpt><trkpt lat="37.2961353" lon="13.6709482"><ele>317.4</ele><time>2026-05-06T11:02:31.385Z</time></trkpt><trkpt lat="37.2960443" lon="13.6709479"><ele>319.0</ele><time>2026-05-06T11:02:32.385Z</time></trkpt><trkpt lat="37.2959534" lon="13.6709444"><ele>319.0</ele><time>2026-05-06T11:02:33.385Z</time></trkpt><trkpt lat="37.2958605" lon="13.6709421"><ele>319.0</ele><time>2026-05-06T11:02:34.384Z</time></trkpt><trkpt lat="37.2957726" lon="13.6709394"><ele>319.0</ele><time>2026-05-06T11:02:35.384Z</time></trkpt><trkpt lat="37.2956871" lon="13.6709347"><ele>319.0</ele><time>2026-05-06T11:02:36.385Z</time></trkpt><trkpt lat="37.2956029" lon="13.6709222"><ele>319.0</ele><time>2026-05-06T11:02:37.384Z</time></trkpt><trkpt lat="37.2955138" lon="13.6708956"><ele>319.0</ele><time>2026-05-06T11:02:38.383Z</time></trkpt><trkpt lat="37.2954284" lon="13.6708567"><ele>319.8333333333333</ele><time>2026-05-06T11:02:39.386Z</time></trkpt><trkpt lat="37.2953412" lon="13.6708164"><ele>320.66666666666663</ele><time>2026-05-06T11:02:40.384Z</time></trkpt><trkpt lat="37.2952536" lon="13.6707738"><ele>321.5</ele><time>2026-05-06T11:02:41.385Z</time></trkpt><trkpt lat="37.2951787" lon="13.6707343"><ele>322.3333333333333</ele><time>2026-05-06T11:02:42.385Z</time></trkpt><trkpt lat="37.2951142" lon="13.6706943"><ele>323.1666666666667</ele><time>2026-05-06T11:02:43.384Z</time></trkpt><trkpt lat="37.2950342" lon="13.6706459"><ele>324.0</ele><time>2026-05-06T11:02:45.384Z</time></trkpt><trkpt lat="37.294965" lon="13.6705983"><ele>324.0</ele><time>2026-05-06T11:03:43.385Z</time></trkpt><trkpt lat="37.2948444" lon="13.6705431"><ele>324.0</ele><time>2026-05-06T11:03:45.384Z</time></trkpt><trkpt lat="37.2947706" lon="13.6705082"><ele>324.0</ele><time>2026-05-06T11:03:46.385Z</time></trkpt><trkpt lat="37.2946966" lon="13.6704807"><ele>324.0</ele><time>2026-05-06T11:03:47.384Z</time></trkpt><trkpt lat="37.2946209" lon="13.6704621"><ele>324.0</ele><time>2026-05-06T11:03:48.384Z</time></trkpt><trkpt lat="37.2945455" lon="13.6704521"><ele>324.0</ele><time>2026-05-06T11:03:49.383Z</time></trkpt><trkpt lat="37.2944665" lon="13.6704443"><ele>323.8571428571429</ele><time>2026-05-06T11:03:50.384Z</time></trkpt><trkpt lat="37.2943972" lon="13.6704362"><ele>323.7142857142857</ele><time>2026-05-06T11:03:51.384Z</time></trkpt><trkpt lat="37.2943187" lon="13.6704296"><ele>323.57142857142856</ele><time>2026-05-06T11:03:52.384Z</time></trkpt><trkpt lat="37.2942524" lon="13.6704219"><ele>323.42857142857144</ele><time>2026-05-06T11:03:53.384Z</time></trkpt><trkpt lat="37.2941835" lon="13.6704195"><ele>323.2857142857143</ele><time>2026-05-06T11:03:54.384Z</time></trkpt><trkpt lat="37.2941133" lon="13.6704117"><ele>323.14285714285717</ele><time>2026-05-06T11:03:55.384Z</time></trkpt><trkpt lat="37.2940456" lon="13.670402"><ele>323.0</ele><time>2026-05-06T11:03:56.384Z</time></trkpt><trkpt lat="37.29397" lon="13.6703974"><ele>324.14285714285717</ele><time>2026-05-06T11:03:57.384Z</time></trkpt><trkpt lat="37.2939039" lon="13.6703896"><ele>325.2857142857143</ele><time>2026-05-06T11:03:58.384Z</time></trkpt><trkpt lat="37.2938323" lon="13.6703845"><ele>326.42857142857144</ele><time>2026-05-06T11:03:59.385Z</time></trkpt><trkpt lat="37.2937609" lon="13.6703758"><ele>327.57142857142856</ele><time>2026-05-06T11:04:00.384Z</time></trkpt><trkpt lat="37.2936946" lon="13.6703629"><ele>328.7142857142857</ele><time>2026-05-06T11:04:01.383Z</time></trkpt><trkpt lat="37.2936317" lon="13.6703461"><ele>329.8571428571429</ele><time>2026-05-06T11:04:02.384Z</time></trkpt><trkpt lat="37.2935663" lon="13.6703278"><ele>331.0</ele><time>2026-05-06T11:04:03.385Z</time></trkpt><trkpt lat="37.2935007" lon="13.6703031"><ele>331.0</ele><time>2026-05-06T11:04:04.383Z</time></trkpt><trkpt lat="37.2934314" lon="13.6702789"><ele>331.0</ele><time>2026-05-06T11:04:05.383Z</time></trkpt><trkpt lat="37.2933705" lon="13.6702551"><ele>331.0</ele><time>2026-05-06T11:04:06.384Z</time></trkpt><trkpt lat="37.2933075" lon="13.6702285"><ele>331.0</ele><time>2026-05-06T11:04:07.383Z</time></trkpt><trkpt lat="37.2932457" lon="13.6702037"><ele>331.0</ele><time>2026-05-06T11:04:08.384Z</time></trkpt><trkpt lat="37.293182" lon="13.6701808"><ele>331.0</ele><time>2026-05-06T11:04:09.384Z</time></trkpt><trkpt lat="37.2930675" lon="13.6701313"><ele>332.20000000000005</ele><time>2026-05-06T11:04:11.383Z</time></trkpt><trkpt lat="37.2929739" lon="13.6700698"><ele>333.40000000000003</ele><time>2026-05-06T11:04:13.385Z</time></trkpt><trkpt lat="37.2928889" lon="13.6699925"><ele>334.6</ele><time>2026-05-06T11:04:15.383Z</time></trkpt><trkpt lat="37.2927999" lon="13.6698891"><ele>335.8</ele><time>2026-05-06T11:04:17.384Z</time></trkpt><trkpt lat="37.2927271" lon="13.669781"><ele>337.0</ele><time>2026-05-06T11:04:19.385Z</time></trkpt><trkpt lat="37.292655" lon="13.6696674"><ele>337.0</ele><time>2026-05-06T11:04:21.384Z</time></trkpt><trkpt lat="37.2925973" lon="13.6695686"><ele>337.0</ele><time>2026-05-06T11:04:23.384Z</time></trkpt><trkpt lat="37.2925541" lon="13.6694892"><ele>337.0</ele><time>2026-05-06T11:04:25.384Z</time></trkpt><trkpt lat="37.2924739" lon="13.6694405"><ele>337.0</ele><time>2026-05-06T11:07:34.384Z</time></trkpt><trkpt lat="37.2923567" lon="13.6694156"><ele>337.0</ele><time>2026-05-06T11:07:36.383Z</time></trkpt><trkpt lat="37.292265" lon="13.6694368"><ele>335.5</ele><time>2026-05-06T11:07:37.383Z</time></trkpt><trkpt lat="37.2921587" lon="13.6694969"><ele>334.0</ele><time>2026-05-06T11:07:38.385Z</time></trkpt><trkpt lat="37.2920384" lon="13.6695853"><ele>332.5</ele><time>2026-05-06T11:07:39.384Z</time></trkpt><trkpt lat="37.2919029" lon="13.6696858"><ele>331.0</ele><time>2026-05-06T11:07:40.385Z</time></trkpt><trkpt lat="37.2917542" lon="13.6697986"><ele>331.0</ele><time>2026-05-06T11:07:41.383Z</time></trkpt><trkpt lat="37.291592" lon="13.669917"><ele>331.0</ele><time>2026-05-06T11:07:42.384Z</time></trkpt><trkpt lat="37.2914294" lon="13.6700335"><ele>331.0</ele><time>2026-05-06T11:07:43.384Z</time></trkpt><trkpt lat="37.2912922" lon="13.6701324"><ele>330.20000000000005</ele><time>2026-05-06T11:07:44.384Z</time></trkpt><trkpt lat="37.2911688" lon="13.6702214"><ele>329.40000000000003</ele><time>2026-05-06T11:07:45.383Z</time></trkpt><trkpt lat="37.2910609" lon="13.6702871"><ele>328.6</ele><time>2026-05-06T11:07:46.384Z</time></trkpt><trkpt lat="37.2909599" lon="13.6703357"><ele>327.8</ele><time>2026-05-06T11:07:47.384Z</time></trkpt><trkpt lat="37.2908837" lon="13.670333"><ele>327.0</ele><time>2026-05-06T11:07:48.383Z</time></trkpt><trkpt lat="37.2908068" lon="13.67032"><ele>327.0</ele><time>2026-05-06T11:07:49.383Z</time></trkpt><trkpt lat="37.2907336" lon="13.6702642"><ele>327.0</ele><time>2026-05-06T11:07:50.383Z</time></trkpt><trkpt lat="37.2906503" lon="13.6702144"><ele>327.0</ele><time>2026-05-06T11:07:51.383Z</time></trkpt><trkpt lat="37.2905616" lon="13.6701632"><ele>327.0</ele><time>2026-05-06T11:07:52.383Z</time></trkpt><trkpt lat="37.2904805" lon="13.6701128"><ele>327.0</ele><time>2026-05-06T11:07:53.383Z</time></trkpt><trkpt lat="37.2904087" lon="13.6700666"><ele>327.0</ele><time>2026-05-06T11:07:54.383Z</time></trkpt><trkpt lat="37.290339" lon="13.6700296"><ele>326.0</ele><time>2026-05-06T11:07:55.383Z</time></trkpt><trkpt lat="37.29027" lon="13.6700043"><ele>325.0</ele><time>2026-05-06T11:07:56.383Z</time></trkpt><trkpt lat="37.290193" lon="13.6699905"><ele>324.0</ele><time>2026-05-06T11:07:57.383Z</time></trkpt><trkpt lat="37.2901222" lon="13.6699822"><ele>323.0</ele><time>2026-05-06T11:07:58.383Z</time></trkpt><trkpt lat="37.2900092" lon="13.6700052"><ele>322.0</ele><time>2026-05-06T11:08:00.383Z</time></trkpt><trkpt lat="37.2899441" lon="13.6700659"><ele>321.0</ele><time>2026-05-06T11:08:02.384Z</time></trkpt><trkpt lat="37.289922" lon="13.6701761"><ele>321.0</ele><time>2026-05-06T11:08:04.383Z</time></trkpt><trkpt lat="37.2899231" lon="13.6702645"><ele>321.0</ele><time>2026-05-06T11:08:05.384Z</time></trkpt><trkpt lat="37.2899378" lon="13.6703674"><ele>321.0</ele><time>2026-05-06T11:08:06.384Z</time></trkpt><trkpt lat="37.2899565" lon="13.6704748"><ele>321.0</ele><time>2026-05-06T11:08:07.383Z</time></trkpt><trkpt lat="37.2899773" lon="13.6705816"><ele>321.0</ele><time>2026-05-06T11:08:08.383Z</time></trkpt><trkpt lat="37.2899767" lon="13.67068"><ele>321.0</ele><time>2026-05-06T11:08:09.383Z</time></trkpt><trkpt lat="37.2899697" lon="13.6707706"><ele>320.1666666666667</ele><time>2026-05-06T11:08:10.383Z</time></trkpt><trkpt lat="37.2899406" lon="13.6708442"><ele>319.3333333333333</ele><time>2026-05-06T11:08:11.383Z</time></trkpt><trkpt lat="37.2898383" lon="13.6709424"><ele>318.5</ele><time>2026-05-06T11:08:13.383Z</time></trkpt><trkpt lat="37.2897646" lon="13.6709804"><ele>317.66666666666663</ele><time>2026-05-06T11:08:14.383Z</time></trkpt><trkpt lat="37.2896903" lon="13.6710133"><ele>316.8333333333333</ele><time>2026-05-06T11:08:15.383Z</time></trkpt><trkpt lat="37.2896141" lon="13.6710466"><ele>316.0</ele><time>2026-05-06T11:08:16.384Z</time></trkpt><trkpt lat="37.2895469" lon="13.671076"><ele>315.66666666666663</ele><time>2026-05-06T11:08:17.384Z</time></trkpt><trkpt lat="37.2894784" lon="13.6711043"><ele>315.3333333333333</ele><time>2026-05-06T11:08:18.384Z</time></trkpt><trkpt lat="37.2894118" lon="13.6711267"><ele>315.0</ele><time>2026-05-06T11:08:19.383Z</time></trkpt><trkpt lat="37.2893473" lon="13.671137"><ele>314.6666666666667</ele><time>2026-05-06T11:08:20.383Z</time></trkpt><trkpt lat="37.2892223" lon="13.6711281"><ele>314.33333333333337</ele><time>2026-05-06T11:08:22.383Z</time></trkpt><trkpt lat="37.2891093" lon="13.6711057"><ele>314.0</ele><time>2026-05-06T11:08:24.383Z</time></trkpt><trkpt lat="37.2889864" lon="13.6711098"><ele>309.4</ele><time>2026-05-06T11:08:26.384Z</time></trkpt><trkpt lat="37.2888671" lon="13.6711542"><ele>304.79999999999995</ele><time>2026-05-06T11:08:28.385Z</time></trkpt><trkpt lat="37.2888144" lon="13.6712017"><ele>300.20000000000005</ele><time>2026-05-06T11:08:29.384Z</time></trkpt><trkpt lat="37.2887143" lon="13.6712754"><ele>295.6</ele><time>2026-05-06T11:08:31.383Z</time></trkpt><trkpt lat="37.2886672" lon="13.6713279"><ele>291.0</ele><time>2026-05-06T11:08:32.383Z</time></trkpt><trkpt lat="37.2886" lon="13.6714454"><ele>291.0</ele><time>2026-05-06T11:08:34.383Z</time></trkpt><trkpt lat="37.2885392" lon="13.6715778"><ele>291.0</ele><time>2026-05-06T11:08:36.384Z</time></trkpt><trkpt lat="37.2884978" lon="13.6716504"><ele>291.0</ele><time>2026-05-06T11:08:37.383Z</time></trkpt><trkpt lat="37.2884531" lon="13.6717256"><ele>291.0</ele><time>2026-05-06T11:08:38.384Z</time></trkpt><trkpt lat="37.2884117" lon="13.6718071"><ele>291.0</ele><time>2026-05-06T11:08:39.384Z</time></trkpt><trkpt lat="37.2883652" lon="13.6718929"><ele>291.0</ele><time>2026-05-06T11:08:40.383Z</time></trkpt><trkpt lat="37.2883255" lon="13.6719782"><ele>290.1666666666667</ele><time>2026-05-06T11:08:41.383Z</time></trkpt><trkpt lat="37.2882776" lon="13.6720653"><ele>289.3333333333333</ele><time>2026-05-06T11:08:42.384Z</time></trkpt><trkpt lat="37.2882307" lon="13.6721499"><ele>288.5</ele><time>2026-05-06T11:08:43.383Z</time></trkpt><trkpt lat="37.2881851" lon="13.6722315"><ele>287.66666666666663</ele><time>2026-05-06T11:08:44.383Z</time></trkpt><trkpt lat="37.2881338" lon="13.6723094"><ele>286.8333333333333</ele><time>2026-05-06T11:08:45.383Z</time></trkpt><trkpt lat="37.288079" lon="13.6723785"><ele>286.0</ele><time>2026-05-06T11:08:46.383Z</time></trkpt><trkpt lat="37.2880118" lon="13.6724179"><ele>285.99999999999994</ele><time>2026-05-06T11:08:47.385Z</time></trkpt><trkpt lat="37.2879436" lon="13.6724358"><ele>286.0</ele><time>2026-05-06T11:08:48.384Z</time></trkpt><trkpt lat="37.2878697" lon="13.6724405"><ele>286.0</ele><time>2026-05-06T11:08:49.383Z</time></trkpt><trkpt lat="37.2877921" lon="13.6724384"><ele>286.0</ele><time>2026-05-06T11:08:50.383Z</time></trkpt><trkpt lat="37.2877181" lon="13.6724356"><ele>286.0</ele><time>2026-05-06T11:08:51.383Z</time></trkpt><trkpt lat="37.2876523" lon="13.6724324"><ele>285.99999999999994</ele><time>2026-05-06T11:08:52.384Z</time></trkpt><trkpt lat="37.2875874" lon="13.6724156"><ele>286.0</ele><time>2026-05-06T11:08:53.383Z</time></trkpt><trkpt lat="37.2875304" lon="13.6723774"><ele>286.0</ele><time>2026-05-06T11:08:54.383Z</time></trkpt><trkpt lat="37.287445" lon="13.6722607"><ele>286.0</ele><time>2026-05-06T11:08:56.384Z</time></trkpt><trkpt lat="37.2874097" lon="13.6721935"><ele>286.0</ele><time>2026-05-06T11:08:57.383Z</time></trkpt><trkpt lat="37.2873793" lon="13.6721238"><ele>286.0</ele><time>2026-05-06T11:08:58.383Z</time></trkpt><trkpt lat="37.2873365" lon="13.6720595"><ele>286.0</ele><time>2026-05-06T11:08:59.383Z</time></trkpt><trkpt lat="37.2872897" lon="13.672006"><ele>286.0</ele><time>2026-05-06T11:09:00.383Z</time></trkpt><trkpt lat="37.2872312" lon="13.6719602"><ele>284.85714285714283</ele><time>2026-05-06T11:09:01.383Z</time></trkpt><trkpt lat="37.2871633" lon="13.6719307"><ele>283.7142857142857</ele><time>2026-05-06T11:09:02.383Z</time></trkpt><trkpt lat="37.2870939" lon="13.6719193"><ele>282.57142857142856</ele><time>2026-05-06T11:09:03.383Z</time></trkpt><trkpt lat="37.2870294" lon="13.6719089"><ele>281.42857142857144</ele><time>2026-05-06T11:09:04.383Z</time></trkpt><trkpt lat="37.2869511" lon="13.6719148"><ele>280.2857142857143</ele><time>2026-05-06T11:09:05.384Z</time></trkpt><trkpt lat="37.2868766" lon="13.6719312"><ele>279.1428571428571</ele><time>2026-05-06T11:09:06.384Z</time></trkpt><trkpt lat="37.2868012" lon="13.6719529"><ele>278.0</ele><time>2026-05-06T11:09:07.383Z</time></trkpt><trkpt lat="37.2867245" lon="13.6719786"><ele>278.0</ele><time>2026-05-06T11:09:08.383Z</time></trkpt><trkpt lat="37.2866485" lon="13.6720018"><ele>278.0</ele><time>2026-05-06T11:09:09.384Z</time></trkpt><trkpt lat="37.2865722" lon="13.6720209"><ele>278.0</ele><time>2026-05-06T11:09:10.383Z</time></trkpt><trkpt lat="37.2864971" lon="13.6720298"><ele>278.0</ele><time>2026-05-06T11:09:11.383Z</time></trkpt><trkpt lat="37.2864177" lon="13.6720319"><ele>278.0</ele><time>2026-05-06T11:09:12.383Z</time></trkpt><trkpt lat="37.2863453" lon="13.6720487"><ele>278.0</ele><time>2026-05-06T11:09:13.383Z</time></trkpt><trkpt lat="37.2862804" lon="13.6720964"><ele>275.1428571428571</ele><time>2026-05-06T11:09:14.383Z</time></trkpt><trkpt lat="37.2862244" lon="13.6721515"><ele>272.2857142857143</ele><time>2026-05-06T11:09:15.383Z</time></trkpt><trkpt lat="37.2861669" lon="13.6722085"><ele>269.42857142857144</ele><time>2026-05-06T11:09:16.383Z</time></trkpt><trkpt lat="37.2861047" lon="13.672257"><ele>266.57142857142856</ele><time>2026-05-06T11:09:17.383Z</time></trkpt><trkpt lat="37.286038" lon="13.6722797"><ele>263.7142857142857</ele><time>2026-05-06T11:09:18.383Z</time></trkpt><trkpt lat="37.2859716" lon="13.6722899"><ele>260.85714285714283</ele><time>2026-05-06T11:09:19.385Z</time></trkpt><trkpt lat="37.2858949" lon="13.6722909"><ele>258.0</ele><time>2026-05-06T11:09:20.383Z</time></trkpt><trkpt lat="37.2858143" lon="13.6722858"><ele>258.0</ele><time>2026-05-06T11:09:21.383Z</time></trkpt><trkpt lat="37.285735" lon="13.6722782"><ele>258.0</ele><time>2026-05-06T11:09:22.382Z</time></trkpt><trkpt lat="37.2856511" lon="13.6722696"><ele>258.0</ele><time>2026-05-06T11:09:23.384Z</time></trkpt><trkpt lat="37.2855649" lon="13.6722617"><ele>258.0</ele><time>2026-05-06T11:09:24.383Z</time></trkpt><trkpt lat="37.2854859" lon="13.6722611"><ele>258.0</ele><time>2026-05-06T11:09:25.383Z</time></trkpt><trkpt lat="37.285405" lon="13.672272"><ele>258.0</ele><time>2026-05-06T11:09:26.384Z</time></trkpt><trkpt lat="37.2853278" lon="13.6723"><ele>256.0</ele><time>2026-05-06T11:09:27.384Z</time></trkpt><trkpt lat="37.2852524" lon="13.6723278"><ele>254.0</ele><time>2026-05-06T11:09:28.383Z</time></trkpt><trkpt lat="37.2851724" lon="13.6723369"><ele>252.0</ele><time>2026-05-06T11:09:29.383Z</time></trkpt><trkpt lat="37.2850891" lon="13.6723313"><ele>250.0</ele><time>2026-05-06T11:09:30.384Z</time></trkpt><trkpt lat="37.2850048" lon="13.6723194"><ele>248.0</ele><time>2026-05-06T11:09:31.384Z</time></trkpt><trkpt lat="37.2849267" lon="13.6723028"><ele>246.0</ele><time>2026-05-06T11:09:32.384Z</time></trkpt><trkpt lat="37.2848593" lon="13.6722857"><ele>246.00000000000003</ele><time>2026-05-06T11:09:33.384Z</time></trkpt><trkpt lat="37.2847901" lon="13.6722676"><ele>246.0</ele><time>2026-05-06T11:09:34.383Z</time></trkpt><trkpt lat="37.2847176" lon="13.6722669"><ele>246.00000000000003</ele><time>2026-05-06T11:09:35.384Z</time></trkpt><trkpt lat="37.2846463" lon="13.6722719"><ele>246.00000000000003</ele><time>2026-05-06T11:09:36.383Z</time></trkpt><trkpt lat="37.2845789" lon="13.6722688"><ele>246.0</ele><time>2026-05-06T11:09:37.383Z</time></trkpt><trkpt lat="37.2845032" lon="13.6722731"><ele>246.00000000000003</ele><time>2026-05-06T11:09:38.383Z</time></trkpt><trkpt lat="37.2844251" lon="13.6722774"><ele>246.00000000000003</ele><time>2026-05-06T11:09:39.384Z</time></trkpt><trkpt lat="37.2843446" lon="13.672282"><ele>243.8</ele><time>2026-05-06T11:09:40.383Z</time></trkpt><trkpt lat="37.2842531" lon="13.6722922"><ele>241.60000000000002</ele><time>2026-05-06T11:09:41.383Z</time></trkpt><trkpt lat="37.2841609" lon="13.6723132"><ele>239.4</ele><time>2026-05-06T11:09:42.383Z</time></trkpt><trkpt lat="37.2840726" lon="13.6723358"><ele>237.2</ele><time>2026-05-06T11:09:43.383Z</time></trkpt><trkpt lat="37.2839685" lon="13.6723564"><ele>235.0</ele><time>2026-05-06T11:09:44.384Z</time></trkpt><trkpt lat="37.2838694" lon="13.6723785"><ele>232.4</ele><time>2026-05-06T11:09:45.383Z</time></trkpt><trkpt lat="37.2837702" lon="13.6724068"><ele>229.8</ele><time>2026-05-06T11:09:46.383Z</time></trkpt><trkpt lat="37.2836779" lon="13.672429"><ele>227.2</ele><time>2026-05-06T11:09:47.383Z</time></trkpt><trkpt lat="37.2835822" lon="13.6724448"><ele>224.6</ele><time>2026-05-06T11:09:48.383Z</time></trkpt><trkpt lat="37.2835012" lon="13.6724577"><ele>222.0</ele><time>2026-05-06T11:09:49.383Z</time></trkpt><trkpt lat="37.283416" lon="13.6724642"><ele>222.0</ele><time>2026-05-06T11:09:50.383Z</time></trkpt><trkpt lat="37.283332" lon="13.6724868"><ele>222.0</ele><time>2026-05-06T11:09:51.384Z</time></trkpt><trkpt lat="37.2832617" lon="13.6725332"><ele>222.0</ele><time>2026-05-06T11:09:52.383Z</time></trkpt><trkpt lat="37.2831996" lon="13.6725758"><ele>222.0</ele><time>2026-05-06T11:09:53.383Z</time></trkpt><trkpt lat="37.2831134" lon="13.6726451"><ele>222.0</ele><time>2026-05-06T11:09:55.384Z</time></trkpt><trkpt lat="37.2830488" lon="13.6726802"><ele>222.0</ele><time>2026-05-06T11:09:57.384Z</time></trkpt><trkpt lat="37.2829644" lon="13.6726532"><ele>220.83333333333334</ele><time>2026-05-06T11:10:00.384Z</time></trkpt><trkpt lat="37.2829254" lon="13.6725723"><ele>219.66666666666669</ele><time>2026-05-06T11:10:02.383Z</time></trkpt><trkpt lat="37.2829178" lon="13.6724251"><ele>218.5</ele><time>2026-05-06T11:10:04.383Z</time></trkpt><trkpt lat="37.2829257" lon="13.6723421"><ele>217.33333333333334</ele><time>2026-05-06T11:10:05.383Z</time></trkpt><trkpt lat="37.2829399" lon="13.6722549"><ele>216.16666666666669</ele><time>2026-05-06T11:10:06.383Z</time></trkpt><trkpt lat="37.2829458" lon="13.6721665"><ele>215.0</ele><time>2026-05-06T11:10:07.383Z</time></trkpt><trkpt lat="37.2829254" lon="13.6720843"><ele>215.00000000000003</ele><time>2026-05-06T11:10:08.383Z</time></trkpt><trkpt lat="37.2828867" lon="13.6720109"><ele>215.0</ele><time>2026-05-06T11:10:09.382Z</time></trkpt><trkpt lat="37.2828321" lon="13.6719494"><ele>215.0</ele><time>2026-05-06T11:10:10.383Z</time></trkpt><trkpt lat="37.2827656" lon="13.6718927"><ele>215.0</ele><time>2026-05-06T11:10:11.383Z</time></trkpt><trkpt lat="37.2826884" lon="13.6718293"><ele>215.00000000000003</ele><time>2026-05-06T11:10:12.383Z</time></trkpt><trkpt lat="37.2826211" lon="13.6717449"><ele>215.0</ele><time>2026-05-06T11:10:13.384Z</time></trkpt><trkpt lat="37.2825552" lon="13.6716421"><ele>213.5</ele><time>2026-05-06T11:10:14.384Z</time></trkpt><trkpt lat="37.2824979" lon="13.671519"><ele>212.0</ele><time>2026-05-06T11:10:15.383Z</time></trkpt><trkpt lat="37.2824357" lon="13.671381"><ele>210.5</ele><time>2026-05-06T11:10:16.384Z</time></trkpt><trkpt lat="37.2823746" lon="13.6712393"><ele>209.0</ele><time>2026-05-06T11:10:17.383Z</time></trkpt><trkpt lat="37.2823069" lon="13.6711259"><ele>210.6</ele><time>2026-05-06T11:10:18.383Z</time></trkpt><trkpt lat="37.2822492" lon="13.6710524"><ele>212.2</ele><time>2026-05-06T11:10:19.383Z</time></trkpt><trkpt lat="37.2821409" lon="13.6710369"><ele>213.79999999999998</ele><time>2026-05-06T11:10:21.383Z</time></trkpt><trkpt lat="37.2820763" lon="13.6710858"><ele>215.39999999999998</ele><time>2026-05-06T11:10:22.384Z</time></trkpt><trkpt lat="37.2820071" lon="13.6711563"><ele>217.0</ele><time>2026-05-06T11:10:23.383Z</time></trkpt><trkpt lat="37.2819389" lon="13.6712394"><ele>217.33333333333331</ele><time>2026-05-06T11:10:24.383Z</time></trkpt><trkpt lat="37.2818673" lon="13.6713133"><ele>217.66666666666666</ele><time>2026-05-06T11:10:25.383Z</time></trkpt><trkpt lat="37.281809" lon="13.6713731"><ele>218.0</ele><time>2026-05-06T11:10:26.384Z</time></trkpt><trkpt lat="37.2817423" lon="13.6713929"><ele>218.33333333333331</ele><time>2026-05-06T11:10:27.383Z</time></trkpt><trkpt lat="37.2816586" lon="13.6713872"><ele>218.66666666666666</ele><time>2026-05-06T11:10:28.383Z</time></trkpt><trkpt lat="37.2815787" lon="13.6713624"><ele>219.0</ele><time>2026-05-06T11:10:29.383Z</time></trkpt><trkpt lat="37.2814918" lon="13.6713145"><ele>219.75</ele><time>2026-05-06T11:10:30.382Z</time></trkpt><trkpt lat="37.281395" lon="13.6712693"><ele>220.5</ele><time>2026-05-06T11:10:31.383Z</time></trkpt><trkpt lat="37.2812823" lon="13.6712171"><ele>221.25</ele><time>2026-05-06T11:10:32.384Z</time></trkpt><trkpt lat="37.2811688" lon="13.6711624"><ele>222.0</ele><time>2026-05-06T11:10:33.384Z</time></trkpt><trkpt lat="37.2810667" lon="13.6711106"><ele>221.6</ele><time>2026-05-06T11:10:34.383Z</time></trkpt><trkpt lat="37.2809674" lon="13.6710659"><ele>221.2</ele><time>2026-05-06T11:10:35.384Z</time></trkpt><trkpt lat="37.280868" lon="13.6710209"><ele>220.8</ele><time>2026-05-06T11:10:36.384Z</time></trkpt><trkpt lat="37.2807785" lon="13.6709834"><ele>220.4</ele><time>2026-05-06T11:10:37.383Z</time></trkpt><trkpt lat="37.2806882" lon="13.6709509"><ele>220.0</ele><time>2026-05-06T11:10:38.383Z</time></trkpt><trkpt lat="37.280592" lon="13.6709231"><ele>219.2</ele><time>2026-05-06T11:10:39.383Z</time></trkpt><trkpt lat="37.2804874" lon="13.6709026"><ele>218.4</ele><time>2026-05-06T11:10:40.383Z</time></trkpt><trkpt lat="37.2803756" lon="13.6708823"><ele>217.60000000000002</ele><time>2026-05-06T11:10:41.383Z</time></trkpt><trkpt lat="37.2802668" lon="13.6708656"><ele>216.8</ele><time>2026-05-06T11:10:42.383Z</time></trkpt><trkpt lat="37.2801588" lon="13.6708472"><ele>216.0</ele><time>2026-05-06T11:10:43.383Z</time></trkpt><trkpt lat="37.280063" lon="13.6708292"><ele>216.0</ele><time>2026-05-06T11:10:44.384Z</time></trkpt><trkpt lat="37.2799684" lon="13.6708098"><ele>216.0</ele><time>2026-05-06T11:10:45.383Z</time></trkpt><trkpt lat="37.2798841" lon="13.6707933"><ele>216.0</ele><time>2026-05-06T11:10:46.382Z</time></trkpt><trkpt lat="37.2798134" lon="13.6707717"><ele>216.0</ele><time>2026-05-06T11:10:47.384Z</time></trkpt><trkpt lat="37.2797435" lon="13.6707513"><ele>216.0</ele><time>2026-05-06T11:10:48.383Z</time></trkpt><trkpt lat="37.2796748" lon="13.6707268"><ele>216.0</ele><time>2026-05-06T11:10:49.383Z</time></trkpt><trkpt lat="37.2796113" lon="13.6707099"><ele>214.4</ele><time>2026-05-06T11:10:50.383Z</time></trkpt><trkpt lat="37.2795296" lon="13.670657"><ele>212.8</ele><time>2026-05-06T11:10:52.383Z</time></trkpt><trkpt lat="37.2795273" lon="13.6705724"><ele>211.20000000000002</ele><time>2026-05-06T11:10:55.383Z</time></trkpt><trkpt lat="37.2795447" lon="13.6704479"><ele>209.60000000000002</ele><time>2026-05-06T11:10:58.382Z</time></trkpt><trkpt lat="37.2795693" lon="13.670291"><ele>208.0</ele><time>2026-05-06T11:11:00.382Z</time></trkpt><trkpt lat="37.2795813" lon="13.6701873"><ele>206.99999999999997</ele><time>2026-05-06T11:11:01.384Z</time></trkpt><trkpt lat="37.2795971" lon="13.6700889"><ele>206.0</ele><time>2026-05-06T11:11:02.383Z</time></trkpt><trkpt lat="37.2796099" lon="13.6699978"><ele>205.0</ele><time>2026-05-06T11:11:03.383Z</time></trkpt><trkpt lat="37.2796162" lon="13.6699119"><ele>204.0</ele><time>2026-05-06T11:11:04.382Z</time></trkpt><trkpt lat="37.2796158" lon="13.6698216"><ele>202.99999999999997</ele><time>2026-05-06T11:11:05.383Z</time></trkpt><trkpt lat="37.2796067" lon="13.669675"><ele>202.0</ele><time>2026-05-06T11:11:07.383Z</time></trkpt><trkpt lat="37.2796083" lon="13.669582"><ele>202.0</ele><time>2026-05-06T11:11:09.384Z</time></trkpt><trkpt lat="37.2795905" lon="13.6696727"><ele>202.0</ele><time>2026-05-06T11:11:14.383Z</time></trkpt><trkpt lat="37.2796089" lon="13.6698311"><ele>202.0</ele><time>2026-05-06T11:11:16.383Z</time></trkpt><trkpt lat="37.2796045" lon="13.66995"><ele>202.0</ele><time>2026-05-06T11:11:17.382Z</time></trkpt><trkpt lat="37.2795987" lon="13.6700688"><ele>202.0</ele><time>2026-05-06T11:11:18.383Z</time></trkpt><trkpt lat="37.2795692" lon="13.6702228"><ele>202.99999999999997</ele><time>2026-05-06T11:11:19.383Z</time></trkpt><trkpt lat="37.2795504" lon="13.6703597"><ele>204.0</ele><time>2026-05-06T11:11:20.382Z</time></trkpt><trkpt lat="37.2795406" lon="13.6704641"><ele>205.0</ele><time>2026-05-06T11:11:21.384Z</time></trkpt><trkpt lat="37.2795266" lon="13.6705517"><ele>206.0</ele><time>2026-05-06T11:11:22.383Z</time></trkpt><trkpt lat="37.2795627" lon="13.6706817"><ele>206.99999999999997</ele><time>2026-05-06T11:11:24.382Z</time></trkpt><trkpt lat="37.2796223" lon="13.6707252"><ele>208.0</ele><time>2026-05-06T11:11:25.383Z</time></trkpt><trkpt lat="37.2797037" lon="13.6707411"><ele>209.60000000000002</ele><time>2026-05-06T11:11:26.383Z</time></trkpt><trkpt lat="37.2797849" lon="13.6707615"><ele>211.20000000000002</ele><time>2026-05-06T11:11:27.384Z</time></trkpt><trkpt lat="37.2798789" lon="13.6707844"><ele>212.8</ele><time>2026-05-06T11:11:28.384Z</time></trkpt><trkpt lat="37.2799849" lon="13.6708139"><ele>214.4</ele><time>2026-05-06T11:11:29.384Z</time></trkpt><trkpt lat="37.280101" lon="13.6708423"><ele>216.0</ele><time>2026-05-06T11:11:30.383Z</time></trkpt><trkpt lat="37.2802233" lon="13.6708596"><ele>216.0</ele><time>2026-05-06T11:11:31.382Z</time></trkpt><trkpt lat="37.2803343" lon="13.670882"><ele>216.00000000000003</ele><time>2026-05-06T11:11:32.384Z</time></trkpt><trkpt lat="37.2804309" lon="13.6708994"><ele>216.00000000000003</ele><time>2026-05-06T11:11:33.383Z</time></trkpt><trkpt lat="37.2805227" lon="13.6709185"><ele>216.0</ele><time>2026-05-06T11:11:34.383Z</time></trkpt><trkpt lat="37.2806021" lon="13.6709405"><ele>216.0</ele><time>2026-05-06T11:11:35.382Z</time></trkpt><trkpt lat="37.2806832" lon="13.6709638"><ele>216.66666666666666</ele><time>2026-05-06T11:11:36.383Z</time></trkpt><trkpt lat="37.2807575" lon="13.6709969"><ele>217.33333333333331</ele><time>2026-05-06T11:11:37.384Z</time></trkpt><trkpt lat="37.2808317" lon="13.6710324"><ele>218.0</ele><time>2026-05-06T11:11:38.383Z</time></trkpt><trkpt lat="37.2809178" lon="13.6710724"><ele>218.66666666666666</ele><time>2026-05-06T11:11:39.383Z</time></trkpt><trkpt lat="37.2810053" lon="13.6711113"><ele>219.33333333333331</ele><time>2026-05-06T11:11:40.383Z</time></trkpt><trkpt lat="37.281102" lon="13.6711454"><ele>220.0</ele><time>2026-05-06T11:11:41.383Z</time></trkpt><trkpt lat="37.2811924" lon="13.6711809"><ele>219.8</ele><time>2026-05-06T11:11:42.384Z</time></trkpt><trkpt lat="37.2812847" lon="13.6712192"><ele>219.6</ele><time>2026-05-06T11:11:43.382Z</time></trkpt><trkpt lat="37.2813859" lon="13.6712689"><ele>219.39999999999998</ele><time>2026-05-06T11:11:44.382Z</time></trkpt><trkpt lat="37.2814752" lon="13.6713174"><ele>219.2</ele><time>2026-05-06T11:11:45.383Z</time></trkpt><trkpt lat="37.2815537" lon="13.6713631"><ele>219.0</ele><time>2026-05-06T11:11:46.382Z</time></trkpt><trkpt lat="37.2816299" lon="13.6714011"><ele>219.0</ele><time>2026-05-06T11:11:47.383Z</time></trkpt><trkpt lat="37.2817018" lon="13.6714197"><ele>219.0</ele><time>2026-05-06T11:11:48.383Z</time></trkpt><trkpt lat="37.2817804" lon="13.671405"><ele>219.0</ele><time>2026-05-06T11:11:49.383Z</time></trkpt><trkpt lat="37.2818441" lon="13.6713554"><ele>219.0</ele><time>2026-05-06T11:11:50.383Z</time></trkpt><trkpt lat="37.2818982" lon="13.6712853"><ele>219.0</ele><time>2026-05-06T11:11:51.383Z</time></trkpt><trkpt lat="37.2819509" lon="13.6712143"><ele>219.0</ele><time>2026-05-06T11:11:52.383Z</time></trkpt><trkpt lat="37.2820095" lon="13.6711453"><ele>218.66666666666666</ele><time>2026-05-06T11:11:53.384Z</time></trkpt><trkpt lat="37.28207" lon="13.6710886"><ele>218.33333333333331</ele><time>2026-05-06T11:11:54.383Z</time></trkpt><trkpt lat="37.2821346" lon="13.6710482"><ele>218.0</ele><time>2026-05-06T11:11:55.382Z</time></trkpt><trkpt lat="37.2822506" lon="13.6710587"><ele>217.66666666666666</ele><time>2026-05-06T11:11:57.382Z</time></trkpt><trkpt lat="37.2823005" lon="13.6711074"><ele>217.33333333333331</ele><time>2026-05-06T11:11:58.384Z</time></trkpt><trkpt lat="37.282346" lon="13.6711848"><ele>217.0</ele><time>2026-05-06T11:11:59.382Z</time></trkpt><trkpt lat="37.2823863" lon="13.6712768"><ele>215.39999999999998</ele><time>2026-05-06T11:12:00.382Z</time></trkpt><trkpt lat="37.2824253" lon="13.6713779"><ele>213.79999999999998</ele><time>2026-05-06T11:12:01.383Z</time></trkpt><trkpt lat="37.2824752" lon="13.6714835"><ele>212.2</ele><time>2026-05-06T11:12:02.384Z</time></trkpt><trkpt lat="37.2825226" lon="13.6715812"><ele>210.6</ele><time>2026-05-06T11:12:03.383Z</time></trkpt><trkpt lat="37.2825733" lon="13.6716763"><ele>209.0</ele><time>2026-05-06T11:12:04.383Z</time></trkpt><trkpt lat="37.2826329" lon="13.6717612"><ele>209.00000000000003</ele><time>2026-05-06T11:12:05.382Z</time></trkpt><trkpt lat="37.2827043" lon="13.6718352"><ele>209.0</ele><time>2026-05-06T11:12:06.385Z</time></trkpt><trkpt lat="37.2827806" lon="13.6719001"><ele>209.0</ele><time>2026-05-06T11:12:07.383Z</time></trkpt><trkpt lat="37.2828518" lon="13.6719633"><ele>209.0</ele><time>2026-05-06T11:12:08.383Z</time></trkpt><trkpt lat="37.2829098" lon="13.6720276"><ele>209.00000000000003</ele><time>2026-05-06T11:12:09.382Z</time></trkpt><trkpt lat="37.2829348" lon="13.6721156"><ele>209.0</ele><time>2026-05-06T11:12:10.383Z</time></trkpt><trkpt lat="37.2829482" lon="13.6722158"><ele>210.00000000000003</ele><time>2026-05-06T11:12:11.383Z</time></trkpt><trkpt lat="37.2829471" lon="13.6723187"><ele>211.0</ele><time>2026-05-06T11:12:12.384Z</time></trkpt><trkpt lat="37.2829345" lon="13.6724224"><ele>212.0</ele><time>2026-05-06T11:12:13.383Z</time></trkpt><trkpt lat="37.2829345" lon="13.6725178"><ele>213.0</ele><time>2026-05-06T11:12:14.382Z</time></trkpt><trkpt lat="37.282951" lon="13.6725997"><ele>214.00000000000003</ele><time>2026-05-06T11:12:15.382Z</time></trkpt><trkpt lat="37.2829967" lon="13.6726546"><ele>215.0</ele><time>2026-05-06T11:12:16.383Z</time></trkpt><trkpt lat="37.2831216" lon="13.6726458"><ele>216.16666666666669</ele><time>2026-05-06T11:12:18.383Z</time></trkpt><trkpt lat="37.2831915" lon="13.6725907"><ele>217.33333333333334</ele><time>2026-05-06T11:12:19.384Z</time></trkpt><trkpt lat="37.2832628" lon="13.6725253"><ele>218.5</ele><time>2026-05-06T11:12:20.383Z</time></trkpt><trkpt lat="37.2833407" lon="13.6724854"><ele>219.66666666666669</ele><time>2026-05-06T11:12:21.383Z</time></trkpt><trkpt lat="37.2834326" lon="13.6724671"><ele>220.83333333333334</ele><time>2026-05-06T11:12:22.383Z</time></trkpt><trkpt lat="37.283532" lon="13.6724558"><ele>222.0</ele><time>2026-05-06T11:12:23.382Z</time></trkpt><trkpt lat="37.2836387" lon="13.6724345"><ele>222.0</ele><time>2026-05-06T11:12:24.382Z</time></trkpt><trkpt lat="37.2837686" lon="13.6724097"><ele>222.0</ele><time>2026-05-06T11:12:25.383Z</time></trkpt><trkpt lat="37.2839021" lon="13.6723854"><ele>222.0</ele><time>2026-05-06T11:12:26.383Z</time></trkpt><trkpt lat="37.2840465" lon="13.6723548"><ele>222.0</ele><time>2026-05-06T11:12:27.383Z</time></trkpt><trkpt lat="37.2841947" lon="13.6723212"><ele>225.25</ele><time>2026-05-06T11:12:28.383Z</time></trkpt><trkpt lat="37.2843472" lon="13.672295"><ele>228.5</ele><time>2026-05-06T11:12:29.382Z</time></trkpt><trkpt lat="37.2844806" lon="13.6722809"><ele>231.75</ele><time>2026-05-06T11:12:30.385Z</time></trkpt><trkpt lat="37.284612" lon="13.6722753"><ele>235.0</ele><time>2026-05-06T11:12:31.384Z</time></trkpt><trkpt lat="37.284749" lon="13.6722842"><ele>237.75</ele><time>2026-05-06T11:12:32.384Z</time></trkpt><trkpt lat="37.2848826" lon="13.6723118"><ele>240.5</ele><time>2026-05-06T11:12:33.383Z</time></trkpt><trkpt lat="37.285015" lon="13.6723437"><ele>243.25</ele><time>2026-05-06T11:12:34.383Z</time></trkpt><trkpt lat="37.2851302" lon="13.6723554"><ele>246.0</ele><time>2026-05-06T11:12:35.382Z</time></trkpt><trkpt lat="37.2852416" lon="13.6723456"><ele>246.0</ele><time>2026-05-06T11:12:36.384Z</time></trkpt><trkpt lat="37.2853568" lon="13.6723221"><ele>246.0</ele><time>2026-05-06T11:12:37.383Z</time></trkpt><trkpt lat="37.2854726" lon="13.6722922"><ele>246.0</ele><time>2026-05-06T11:12:38.384Z</time></trkpt><trkpt lat="37.2855913" lon="13.6722727"><ele>246.0</ele><time>2026-05-06T11:12:39.384Z</time></trkpt><trkpt lat="37.2857073" lon="13.6722868"><ele>248.4</ele><time>2026-05-06T11:12:40.383Z</time></trkpt><trkpt lat="37.2858327" lon="13.6722888"><ele>250.8</ele><time>2026-05-06T11:12:41.383Z</time></trkpt><trkpt lat="37.2859368" lon="13.6722952"><ele>253.20000000000002</ele><time>2026-05-06T11:12:42.383Z</time></trkpt><trkpt lat="37.2860322" lon="13.6722923"><ele>255.60000000000002</ele><time>2026-05-06T11:12:43.382Z</time></trkpt><trkpt lat="37.2861239" lon="13.6722583"><ele>258.0</ele><time>2026-05-06T11:12:44.383Z</time></trkpt><trkpt lat="37.286205" lon="13.6721892"><ele>258.0</ele><time>2026-05-06T11:12:45.384Z</time></trkpt><trkpt lat="37.2862749" lon="13.6721209"><ele>258.0</ele><time>2026-05-06T11:12:46.383Z</time></trkpt><trkpt lat="37.2863462" lon="13.6720704"><ele>258.0</ele><time>2026-05-06T11:12:47.382Z</time></trkpt><trkpt lat="37.2864268" lon="13.6720469"><ele>258.0</ele><time>2026-05-06T11:12:48.382Z</time></trkpt><trkpt lat="37.2865208" lon="13.6720419"><ele>258.0</ele><time>2026-05-06T11:12:49.382Z</time></trkpt><trkpt lat="37.2866126" lon="13.6720284"><ele>258.0</ele><time>2026-05-06T11:12:50.383Z</time></trkpt><trkpt lat="37.2867059" lon="13.671999"><ele>257.6</ele><time>2026-05-06T11:12:51.383Z</time></trkpt><trkpt lat="37.2867987" lon="13.671972"><ele>257.20000000000005</ele><time>2026-05-06T11:12:52.382Z</time></trkpt><trkpt lat="37.2868937" lon="13.6719525"><ele>256.8</ele><time>2026-05-06T11:12:53.382Z</time></trkpt><trkpt lat="37.2869902" lon="13.6719312"><ele>256.40000000000003</ele><time>2026-05-06T11:12:54.384Z</time></trkpt><trkpt lat="37.2870945" lon="13.6719322"><ele>256.0</ele><time>2026-05-06T11:12:55.382Z</time></trkpt><trkpt lat="37.2871945" lon="13.6719569"><ele>262.0</ele><time>2026-05-06T11:12:56.382Z</time></trkpt><trkpt lat="37.2872824" lon="13.6720083"><ele>268.0</ele><time>2026-05-06T11:12:57.384Z</time></trkpt><trkpt lat="37.2873573" lon="13.672089"><ele>274.0</ele><time>2026-05-06T11:12:58.384Z</time></trkpt><trkpt lat="37.2874131" lon="13.6721954"><ele>280.0</ele><time>2026-05-06T11:12:59.382Z</time></trkpt><trkpt lat="37.2874625" lon="13.6722969"><ele>286.0</ele><time>2026-05-06T11:13:00.383Z</time></trkpt><trkpt lat="37.2875058" lon="13.6723781"><ele>286.0</ele><time>2026-05-06T11:13:01.383Z</time></trkpt><trkpt lat="37.2875849" lon="13.6724253"><ele>286.0</ele><time>2026-05-06T11:13:02.383Z</time></trkpt><trkpt lat="37.2876733" lon="13.6724512"><ele>286.0</ele><time>2026-05-06T11:13:03.383Z</time></trkpt><trkpt lat="37.2877753" lon="13.6724584"><ele>286.0</ele><time>2026-05-06T11:13:04.383Z</time></trkpt><trkpt lat="37.2878784" lon="13.6724611"><ele>286.0</ele><time>2026-05-06T11:13:05.383Z</time></trkpt><trkpt lat="37.2879654" lon="13.6724609"><ele>286.0</ele><time>2026-05-06T11:13:06.382Z</time></trkpt><trkpt lat="37.2880517" lon="13.6724406"><ele>286.0</ele><time>2026-05-06T11:13:07.384Z</time></trkpt><trkpt lat="37.2881212" lon="13.6723716"><ele>286.0</ele><time>2026-05-06T11:13:08.384Z</time></trkpt><trkpt lat="37.2881895" lon="13.6722737"><ele>286.0</ele><time>2026-05-06T11:13:09.383Z</time></trkpt><trkpt lat="37.2882564" lon="13.6721559"><ele>286.0</ele><time>2026-05-06T11:13:10.382Z</time></trkpt><trkpt lat="37.2883251" lon="13.6720281"><ele>287.25</ele><time>2026-05-06T11:13:11.383Z</time></trkpt><trkpt lat="37.2883977" lon="13.6718878"><ele>288.5</ele><time>2026-05-06T11:13:12.382Z</time></trkpt><trkpt lat="37.2884682" lon="13.6717533"><ele>289.75</ele><time>2026-05-06T11:13:13.382Z</time></trkpt><trkpt lat="37.2885332" lon="13.6716259"><ele>291.0</ele><time>2026-05-06T11:13:14.384Z</time></trkpt><trkpt lat="37.2885972" lon="13.6715009"><ele>291.0</ele><time>2026-05-06T11:13:15.382Z</time></trkpt><trkpt lat="37.2886597" lon="13.6713873"><ele>291.0</ele><time>2026-05-06T11:13:16.382Z</time></trkpt><trkpt lat="37.2887378" lon="13.6712972"><ele>291.0</ele><time>2026-05-06T11:13:17.382Z</time></trkpt><trkpt lat="37.2888238" lon="13.6712195"><ele>291.0</ele><time>2026-05-06T11:13:18.383Z</time></trkpt><trkpt lat="37.28891" lon="13.6711614"><ele>291.0</ele><time>2026-05-06T11:13:19.383Z</time></trkpt><trkpt lat="37.2890013" lon="13.6711346"><ele>295.6</ele><time>2026-05-06T11:13:20.383Z</time></trkpt><trkpt lat="37.2891014" lon="13.6711323"><ele>300.20000000000005</ele><time>2026-05-06T11:13:21.383Z</time></trkpt><trkpt lat="37.2891999" lon="13.6711522"><ele>304.79999999999995</ele><time>2026-05-06T11:13:22.383Z</time></trkpt><trkpt lat="37.289299" lon="13.6711669"><ele>309.4</ele><time>2026-05-06T11:13:23.384Z</time></trkpt><trkpt lat="37.2894095" lon="13.671143"><ele>314.0</ele><time>2026-05-06T11:13:24.382Z</time></trkpt><trkpt lat="37.2895207" lon="13.671109"><ele>314.4</ele><time>2026-05-06T11:13:25.382Z</time></trkpt><trkpt lat="37.2896303" lon="13.6710696"><ele>314.79999999999995</ele><time>2026-05-06T11:13:26.384Z</time></trkpt><trkpt lat="37.2897371" lon="13.6710315"><ele>315.20000000000005</ele><time>2026-05-06T11:13:27.382Z</time></trkpt><trkpt lat="37.2898251" lon="13.6709896"><ele>315.6</ele><time>2026-05-06T11:13:28.382Z</time></trkpt><trkpt lat="37.2899021" lon="13.6709341"><ele>316.0</ele><time>2026-05-06T11:13:29.383Z</time></trkpt><trkpt lat="37.2899615" lon="13.6708552"><ele>316.0</ele><time>2026-05-06T11:13:30.382Z</time></trkpt><trkpt lat="37.2899934" lon="13.6707543"><ele>316.0</ele><time>2026-05-06T11:13:31.382Z</time></trkpt><trkpt lat="37.289998" lon="13.6706423"><ele>316.0</ele><time>2026-05-06T11:13:32.383Z</time></trkpt><trkpt lat="37.2899776" lon="13.6705184"><ele>316.0</ele><time>2026-05-06T11:13:33.382Z</time></trkpt><trkpt lat="37.2899524" lon="13.670398"><ele>316.0</ele><time>2026-05-06T11:13:34.384Z</time></trkpt><trkpt lat="37.2899348" lon="13.6702915"><ele>317.0</ele><time>2026-05-06T11:13:35.383Z</time></trkpt><trkpt lat="37.2899281" lon="13.6702008"><ele>318.0</ele><time>2026-05-06T11:13:36.382Z</time></trkpt><trkpt lat="37.2899453" lon="13.6701173"><ele>319.0</ele><time>2026-05-06T11:13:37.383Z</time></trkpt><trkpt lat="37.2900505" lon="13.6700088"><ele>320.0</ele><time>2026-05-06T11:13:39.383Z</time></trkpt><trkpt lat="37.2901416" lon="13.6699964"><ele>321.0</ele><time>2026-05-06T11:13:40.384Z</time></trkpt><trkpt lat="37.2902327" lon="13.6699954"><ele>321.0</ele><time>2026-05-06T11:13:41.383Z</time></trkpt><trkpt lat="37.290341" lon="13.6700451"><ele>321.0</ele><time>2026-05-06T11:13:42.384Z</time></trkpt><trkpt lat="37.290442" lon="13.6701031"><ele>321.0</ele><time>2026-05-06T11:13:43.382Z</time></trkpt><trkpt lat="37.290531" lon="13.6701548"><ele>321.0</ele><time>2026-05-06T11:13:44.382Z</time></trkpt><trkpt lat="37.2906023" lon="13.6702028"><ele>321.0</ele><time>2026-05-06T11:13:45.383Z</time></trkpt><trkpt lat="37.2906589" lon="13.6702434"><ele>321.6</ele><time>2026-05-06T11:13:46.382Z</time></trkpt><trkpt lat="37.2907367" lon="13.6702929"><ele>322.20000000000005</ele><time>2026-05-06T11:13:48.383Z</time></trkpt><trkpt lat="37.2908352" lon="13.6703325"><ele>322.79999999999995</ele><time>2026-05-06T11:13:51.382Z</time></trkpt><trkpt lat="37.290924" lon="13.67036"><ele>323.4</ele><time>2026-05-06T11:13:53.383Z</time></trkpt><trkpt lat="37.2910214" lon="13.6703398"><ele>324.0</ele><time>2026-05-06T11:13:55.383Z</time></trkpt><trkpt lat="37.2911176" lon="13.6702904"><ele>324.6</ele><time>2026-05-06T11:13:57.383Z</time></trkpt><trkpt lat="37.2912052" lon="13.6702335"><ele>325.2</ele><time>2026-05-06T11:13:59.383Z</time></trkpt><trkpt lat="37.2913079" lon="13.6701624"><ele>325.8</ele><time>2026-05-06T11:14:01.383Z</time></trkpt><trkpt lat="37.2913643" lon="13.6701161"><ele>326.40000000000003</ele><time>2026-05-06T11:14:02.383Z</time></trkpt><trkpt lat="37.2914585" lon="13.6700704"><ele>327.0</ele><time>2026-05-06T11:14:04.382Z</time></trkpt><trkpt lat="37.2913848" lon="13.670078"><ele>327.0</ele><time>2026-05-06T11:14:10.383Z</time></trkpt><trkpt lat="37.2913176" lon="13.6701311"><ele>327.0</ele><time>2026-05-06T11:14:11.382Z</time></trkpt><trkpt lat="37.2912543" lon="13.6701803"><ele>327.0</ele><time>2026-05-06T11:14:12.383Z</time></trkpt><trkpt lat="37.2911705" lon="13.6702384"><ele>327.0</ele><time>2026-05-06T11:14:13.382Z</time></trkpt><trkpt lat="37.2910888" lon="13.6702899"><ele>327.0</ele><time>2026-05-06T11:14:14.382Z</time></trkpt><trkpt lat="37.2910081" lon="13.6703263"><ele>327.0</ele><time>2026-05-06T11:14:15.383Z</time></trkpt><trkpt lat="37.2909444" lon="13.6703474"><ele>326.40000000000003</ele><time>2026-05-06T11:14:16.382Z</time></trkpt><trkpt lat="37.2908849" lon="13.6703737"><ele>325.8</ele><time>2026-05-06T11:14:17.382Z</time></trkpt><trkpt lat="37.290801" lon="13.6704693"><ele>325.2</ele><time>2026-05-06T11:14:19.384Z</time></trkpt><trkpt lat="37.2907178" lon="13.6705566"><ele>324.6</ele><time>2026-05-06T11:14:21.382Z</time></trkpt><trkpt lat="37.2906346" lon="13.6706513"><ele>324.0</ele><time>2026-05-06T11:14:23.382Z</time></trkpt><trkpt lat="37.2905699" lon="13.6707372"><ele>324.0</ele><time>2026-05-06T11:14:25.382Z</time></trkpt><trkpt lat="37.2905128" lon="13.6708224"><ele>324.0</ele><time>2026-05-06T11:14:27.383Z</time></trkpt><trkpt lat="37.290475" lon="13.6708894"><ele>324.0</ele><time>2026-05-06T11:14:29.382Z</time></trkpt><trkpt lat="37.2905454" lon="13.67079"><ele>324.0</ele><time>2026-05-06T11:14:37.382Z</time></trkpt><trkpt lat="37.2905971" lon="13.6707074"><ele>324.0</ele><time>2026-05-06T11:14:38.382Z</time></trkpt><trkpt lat="37.2906626" lon="13.6706216"><ele>324.0</ele><time>2026-05-06T11:14:39.382Z</time></trkpt><trkpt lat="37.2907379" lon="13.6705355"><ele>324.0</ele><time>2026-05-06T11:14:40.382Z</time></trkpt><trkpt lat="37.2908182" lon="13.6704614"><ele>324.0</ele><time>2026-05-06T11:14:41.382Z</time></trkpt><trkpt lat="37.2909085" lon="13.6703938"><ele>324.0</ele><time>2026-05-06T11:14:42.383Z</time></trkpt><trkpt lat="37.2910148" lon="13.6703355"><ele>324.0</ele><time>2026-05-06T11:14:43.383Z</time></trkpt><trkpt lat="37.2911273" lon="13.6702763"><ele>324.0</ele><time>2026-05-06T11:14:44.382Z</time></trkpt><trkpt lat="37.2912353" lon="13.6701979"><ele>324.75</ele><time>2026-05-06T11:14:45.382Z</time></trkpt><trkpt lat="37.2913497" lon="13.6701272"><ele>325.5</ele><time>2026-05-06T11:14:46.383Z</time></trkpt><trkpt lat="37.2914599" lon="13.6700465"><ele>326.25</ele><time>2026-05-06T11:14:47.384Z</time></trkpt><trkpt lat="37.2915699" lon="13.6699641"><ele>327.0</ele><time>2026-05-06T11:14:48.382Z</time></trkpt><trkpt lat="37.2916791" lon="13.6698767"><ele>328.0</ele><time>2026-05-06T11:14:49.385Z</time></trkpt><trkpt lat="37.2917955" lon="13.669794"><ele>329.0</ele><time>2026-05-06T11:14:50.383Z</time></trkpt><trkpt lat="37.2919094" lon="13.669706"><ele>330.0</ele><time>2026-05-06T11:14:51.383Z</time></trkpt><trkpt lat="37.2920211" lon="13.6696147"><ele>331.0</ele><time>2026-05-06T11:14:52.383Z</time></trkpt><trkpt lat="37.2921285" lon="13.6695347"><ele>331.0</ele><time>2026-05-06T11:14:53.382Z</time></trkpt><trkpt lat="37.2922328" lon="13.6694793"><ele>331.0</ele><time>2026-05-06T11:14:54.384Z</time></trkpt><trkpt lat="37.2923311" lon="13.669456"><ele>331.0</ele><time>2026-05-06T11:14:55.383Z</time></trkpt><trkpt lat="37.2924183" lon="13.6694639"><ele>331.0</ele><time>2026-05-06T11:14:56.382Z</time></trkpt><trkpt lat="37.2924923" lon="13.6695049"><ele>331.0</ele><time>2026-05-06T11:14:57.382Z</time></trkpt><trkpt lat="37.2925601" lon="13.6695649"><ele>332.20000000000005</ele><time>2026-05-06T11:14:58.383Z</time></trkpt><trkpt lat="37.2926253" lon="13.6696512"><ele>333.40000000000003</ele><time>2026-05-06T11:14:59.382Z</time></trkpt><trkpt lat="37.2926936" lon="13.6697538"><ele>334.6</ele><time>2026-05-06T11:15:00.383Z</time></trkpt><trkpt lat="37.292756" lon="13.6698499"><ele>335.8</ele><time>2026-05-06T11:15:01.384Z</time></trkpt><trkpt lat="37.2928138" lon="13.6699422"><ele>337.0</ele><time>2026-05-06T11:15:02.383Z</time></trkpt><trkpt lat="37.2928762" lon="13.6700096"><ele>337.0</ele><time>2026-05-06T11:15:03.382Z</time></trkpt><trkpt lat="37.2929341" lon="13.6700718"><ele>337.0</ele><time>2026-05-06T11:15:04.383Z</time></trkpt><trkpt lat="37.2930033" lon="13.670119"><ele>337.0</ele><time>2026-05-06T11:15:05.382Z</time></trkpt><trkpt lat="37.2930735" lon="13.6701606"><ele>337.0</ele><time>2026-05-06T11:15:06.383Z</time></trkpt><trkpt lat="37.2931448" lon="13.670197"><ele>337.0</ele><time>2026-05-06T11:15:07.382Z</time></trkpt><trkpt lat="37.2932153" lon="13.6702274"><ele>337.0</ele><time>2026-05-06T11:15:08.383Z</time></trkpt><trkpt lat="37.2932909" lon="13.6702565"><ele>336.0</ele><time>2026-05-06T11:15:09.383Z</time></trkpt><trkpt lat="37.2933723" lon="13.6702878"><ele>335.0</ele><time>2026-05-06T11:15:10.383Z</time></trkpt><trkpt lat="37.2934576" lon="13.6703138"><ele>334.0</ele><time>2026-05-06T11:15:11.382Z</time></trkpt><trkpt lat="37.2935425" lon="13.6703394"><ele>333.0</ele><time>2026-05-06T11:15:12.384Z</time></trkpt><trkpt lat="37.2936211" lon="13.6703609"><ele>332.0</ele><time>2026-05-06T11:15:13.383Z</time></trkpt><trkpt lat="37.2937084" lon="13.6703847"><ele>331.0</ele><time>2026-05-06T11:15:14.383Z</time></trkpt><trkpt lat="37.2937958" lon="13.6703938"><ele>331.0</ele><time>2026-05-06T11:15:15.383Z</time></trkpt><trkpt lat="37.2938954" lon="13.6704094"><ele>331.0</ele><time>2026-05-06T11:15:16.382Z</time></trkpt><trkpt lat="37.293992" lon="13.6704199"><ele>331.0</ele><time>2026-05-06T11:15:17.384Z</time></trkpt><trkpt lat="37.2940924" lon="13.6704349"><ele>331.0</ele><time>2026-05-06T11:15:18.383Z</time></trkpt><trkpt lat="37.294199" lon="13.6704439"><ele>331.0</ele><time>2026-05-06T11:15:19.383Z</time></trkpt><trkpt lat="37.2942953" lon="13.6704532"><ele>329.6</ele><time>2026-05-06T11:15:20.382Z</time></trkpt><trkpt lat="37.2943968" lon="13.6704677"><ele>328.20000000000005</ele><time>2026-05-06T11:15:21.383Z</time></trkpt><trkpt lat="37.2944922" lon="13.6704854"><ele>326.79999999999995</ele><time>2026-05-06T11:15:22.382Z</time></trkpt><trkpt lat="37.2945929" lon="13.6705053"><ele>325.4</ele><time>2026-05-06T11:15:23.383Z</time></trkpt><trkpt lat="37.2946858" lon="13.6705243"><ele>324.0</ele><time>2026-05-06T11:15:24.382Z</time></trkpt><trkpt lat="37.2947755" lon="13.6705564"><ele>324.0</ele><time>2026-05-06T11:15:25.382Z</time></trkpt><trkpt lat="37.2948626" lon="13.6705991"><ele>324.0</ele><time>2026-05-06T11:15:26.383Z</time></trkpt><trkpt lat="37.2949511" lon="13.6706377"><ele>324.0</ele><time>2026-05-06T11:15:27.382Z</time></trkpt><trkpt lat="37.2950314" lon="13.670679"><ele>324.0</ele><time>2026-05-06T11:15:28.382Z</time></trkpt><trkpt lat="37.2951078" lon="13.6707269"><ele>324.0</ele><time>2026-05-06T11:15:29.383Z</time></trkpt><trkpt lat="37.2951802" lon="13.6707646"><ele>324.0</ele><time>2026-05-06T11:15:30.383Z</time></trkpt><trkpt lat="37.2952449" lon="13.6708005"><ele>324.0</ele><time>2026-05-06T11:15:31.383Z</time></trkpt><trkpt lat="37.2953056" lon="13.6708336"><ele>324.0</ele><time>2026-05-06T11:15:32.383Z</time></trkpt><trkpt lat="37.2953751" lon="13.6708659"><ele>324.0</ele><time>2026-05-06T11:15:33.382Z</time></trkpt><trkpt lat="37.2954395" lon="13.670903"><ele>324.0</ele><time>2026-05-06T11:15:34.382Z</time></trkpt><trkpt lat="37.2954999" lon="13.6709261"><ele>324.0</ele><time>2026-05-06T11:15:35.382Z</time></trkpt><trkpt lat="37.2955953" lon="13.670974"><ele>324.0</ele><time>2026-05-06T11:15:37.383Z</time></trkpt><trkpt lat="37.2956237" lon="13.6710722"><ele>322.2</ele><time>2026-05-06T11:15:39.382Z</time></trkpt><trkpt lat="37.2955584" lon="13.6711993"><ele>320.4</ele><time>2026-05-06T11:15:41.382Z</time></trkpt><trkpt lat="37.2955009" lon="13.6712904"><ele>318.6</ele><time>2026-05-06T11:15:42.384Z</time></trkpt><trkpt lat="37.2954351" lon="13.671398"><ele>316.8</ele><time>2026-05-06T11:15:43.382Z</time></trkpt><trkpt lat="37.2953627" lon="13.6715157"><ele>315.0</ele><time>2026-05-06T11:15:44.382Z</time></trkpt><trkpt lat="37.2952805" lon="13.6716416"><ele>315.0</ele><time>2026-05-06T11:15:45.382Z</time></trkpt><trkpt lat="37.2951933" lon="13.6717753"><ele>315.0</ele><time>2026-05-06T11:15:46.382Z</time></trkpt><trkpt lat="37.2951064" lon="13.6719142"><ele>315.0</ele><time>2026-05-06T11:15:47.382Z</time></trkpt><trkpt lat="37.2950163" lon="13.6720567"><ele>315.0</ele><time>2026-05-06T11:15:48.382Z</time></trkpt><trkpt lat="37.2949229" lon="13.672206"><ele>314.5</ele><time>2026-05-06T11:15:49.383Z</time></trkpt><trkpt lat="37.2948286" lon="13.6723545"><ele>314.0</ele><time>2026-05-06T11:15:50.382Z</time></trkpt><trkpt lat="37.2947337" lon="13.6724988"><ele>313.5</ele><time>2026-05-06T11:15:51.383Z</time></trkpt><trkpt lat="37.2946339" lon="13.6726367"><ele>313.0</ele><time>2026-05-06T11:15:52.382Z</time></trkpt><trkpt lat="37.2945324" lon="13.6727661"><ele>310.25</ele><time>2026-05-06T11:15:53.383Z</time></trkpt><trkpt lat="37.2944289" lon="13.6728797"><ele>307.5</ele><time>2026-05-06T11:15:54.383Z</time></trkpt><trkpt lat="37.294329" lon="13.6729598"><ele>304.75</ele><time>2026-05-06T11:15:55.382Z</time></trkpt><trkpt lat="37.2942252" lon="13.6730049"><ele>302.0</ele><time>2026-05-06T11:15:56.382Z</time></trkpt><trkpt lat="37.2941125" lon="13.6730201"><ele>302.0</ele><time>2026-05-06T11:15:57.383Z</time></trkpt><trkpt lat="37.2939896" lon="13.6730285"><ele>302.0</ele><time>2026-05-06T11:15:58.382Z</time></trkpt><trkpt lat="37.2938679" lon="13.6730658"><ele>302.0</ele><time>2026-05-06T11:15:59.382Z</time></trkpt><trkpt lat="37.2937513" lon="13.6731367"><ele>302.0</ele><time>2026-05-06T11:16:00.383Z</time></trkpt><trkpt lat="37.2936482" lon="13.6732394"><ele>303.5</ele><time>2026-05-06T11:16:01.382Z</time></trkpt><trkpt lat="37.2935579" lon="13.6733596"><ele>305.0</ele><time>2026-05-06T11:16:02.382Z</time></trkpt><trkpt lat="37.2934734" lon="13.6734714"><ele>306.5</ele><time>2026-05-06T11:16:03.382Z</time></trkpt><trkpt lat="37.2933835" lon="13.6735552"><ele>308.0</ele><time>2026-05-06T11:16:04.384Z</time></trkpt><trkpt lat="37.2932904" lon="13.6736114"><ele>307.5</ele><time>2026-05-06T11:16:05.382Z</time></trkpt><trkpt lat="37.293185" lon="13.6736407"><ele>307.0</ele><time>2026-05-06T11:16:06.382Z</time></trkpt><trkpt lat="37.2930777" lon="13.6736499"><ele>306.5</ele><time>2026-05-06T11:16:07.382Z</time></trkpt><trkpt lat="37.292961" lon="13.6736708"><ele>306.0</ele><time>2026-05-06T11:16:08.383Z</time></trkpt><trkpt lat="37.2928425" lon="13.6736963"><ele>306.0</ele><time>2026-05-06T11:16:09.382Z</time></trkpt><trkpt lat="37.2927306" lon="13.6737387"><ele>306.0</ele><time>2026-05-06T11:16:10.382Z</time></trkpt><trkpt lat="37.2926185" lon="13.6737894"><ele>306.0</ele><time>2026-05-06T11:16:11.382Z</time></trkpt><trkpt lat="37.292517" lon="13.6738581"><ele>306.0</ele><time>2026-05-06T11:16:12.382Z</time></trkpt><trkpt lat="37.2924118" lon="13.6739333"><ele>306.0</ele><time>2026-05-06T11:16:13.382Z</time></trkpt><trkpt lat="37.2923083" lon="13.6740105"><ele>306.0</ele><time>2026-05-06T11:16:14.383Z</time></trkpt><trkpt lat="37.2922055" lon="13.6740895"><ele>306.0</ele><time>2026-05-06T11:16:15.382Z</time></trkpt><trkpt lat="37.2921066" lon="13.6741667"><ele>306.0</ele><time>2026-05-06T11:16:16.384Z</time></trkpt><trkpt lat="37.2920133" lon="13.6742291"><ele>308.1666666666667</ele><time>2026-05-06T11:16:17.382Z</time></trkpt><trkpt lat="37.2919421" lon="13.6742731"><ele>310.3333333333333</ele><time>2026-05-06T11:16:18.383Z</time></trkpt><trkpt lat="37.2918799" lon="13.6743174"><ele>312.5</ele><time>2026-05-06T11:16:19.382Z</time></trkpt><trkpt lat="37.2918063" lon="13.6743771"><ele>314.66666666666663</ele><time>2026-05-06T11:16:21.382Z</time></trkpt><trkpt lat="37.2918708" lon="13.6743956"><ele>316.8333333333333</ele><time>2026-05-06T11:16:25.383Z</time></trkpt><trkpt lat="37.2919783" lon="13.674309"><ele>319.0</ele><time>2026-05-06T11:16:27.382Z</time></trkpt><trkpt lat="37.2920669" lon="13.6742352"><ele>319.0</ele><time>2026-05-06T11:16:28.383Z</time></trkpt><trkpt lat="37.2921473" lon="13.6741754"><ele>319.0</ele><time>2026-05-06T11:16:29.382Z</time></trkpt><trkpt lat="37.2922434" lon="13.674101"><ele>319.0</ele><time>2026-05-06T11:16:30.382Z</time></trkpt><trkpt lat="37.2923494" lon="13.6740237"><ele>319.0</ele><time>2026-05-06T11:16:31.382Z</time></trkpt><trkpt lat="37.2924544" lon="13.6739476"><ele>315.75</ele><time>2026-05-06T11:16:32.382Z</time></trkpt><trkpt lat="37.2925514" lon="13.6738696"><ele>312.5</ele><time>2026-05-06T11:16:33.382Z</time></trkpt><trkpt lat="37.2926562" lon="13.6738029"><ele>309.25</ele><time>2026-05-06T11:16:34.383Z</time></trkpt><trkpt lat="37.2927661" lon="13.6737605"><ele>306.0</ele><time>2026-05-06T11:16:35.383Z</time></trkpt><trkpt lat="37.2928782" lon="13.6737257"><ele>306.0</ele><time>2026-05-06T11:16:36.382Z</time></trkpt><trkpt lat="37.2929882" lon="13.6737022"><ele>306.0</ele><time>2026-05-06T11:16:37.383Z</time></trkpt><trkpt lat="37.2931005" lon="13.6736898"><ele>306.0</ele><time>2026-05-06T11:16:38.382Z</time></trkpt><trkpt lat="37.2932053" lon="13.6736779"><ele>306.0</ele><time>2026-05-06T11:16:39.382Z</time></trkpt><trkpt lat="37.2933028" lon="13.6736473"><ele>306.0</ele><time>2026-05-06T11:16:40.382Z</time></trkpt><trkpt lat="37.2933943" lon="13.6735904"><ele>306.5</ele><time>2026-05-06T11:16:41.382Z</time></trkpt><trkpt lat="37.2934804" lon="13.6735142"><ele>307.0</ele><time>2026-05-06T11:16:42.382Z</time></trkpt><trkpt lat="37.2935661" lon="13.6734125"><ele>307.5</ele><time>2026-05-06T11:16:43.383Z</time></trkpt><trkpt lat="37.2936509" lon="13.6732906"><ele>308.0</ele><time>2026-05-06T11:16:44.382Z</time></trkpt><trkpt lat="37.2937494" lon="13.6731911"><ele>308.0</ele><time>2026-05-06T11:16:45.382Z</time></trkpt><trkpt lat="37.2938552" lon="13.6731214"><ele>308.0</ele><time>2026-05-06T11:16:46.382Z</time></trkpt><trkpt lat="37.2939759" lon="13.6730822"><ele>308.0</ele><time>2026-05-06T11:16:47.382Z</time></trkpt><trkpt lat="37.2940987" lon="13.6730612"><ele>308.0</ele><time>2026-05-06T11:16:48.383Z</time></trkpt><trkpt lat="37.2942232" lon="13.6730406"><ele>309.25</ele><time>2026-05-06T11:16:49.382Z</time></trkpt><trkpt lat="37.294327" lon="13.672997"><ele>310.5</ele><time>2026-05-06T11:16:50.382Z</time></trkpt><trkpt lat="37.2944289" lon="13.6729213"><ele>311.75</ele><time>2026-05-06T11:16:51.382Z</time></trkpt><trkpt lat="37.2945228" lon="13.6728216"><ele>313.0</ele><time>2026-05-06T11:16:52.382Z</time></trkpt><trkpt lat="37.2946111" lon="13.6727027"><ele>313.0</ele><time>2026-05-06T11:16:53.382Z</time></trkpt><trkpt lat="37.2947017" lon="13.6725828"><ele>313.0</ele><time>2026-05-06T11:16:54.383Z</time></trkpt><trkpt lat="37.2947895" lon="13.6724391"><ele>313.0</ele><time>2026-05-06T11:16:55.382Z</time></trkpt><trkpt lat="37.2948828" lon="13.6723045"><ele>313.0</ele><time>2026-05-06T11:16:56.382Z</time></trkpt><trkpt lat="37.2949685" lon="13.6721663"><ele>313.5</ele><time>2026-05-06T11:16:57.382Z</time></trkpt><trkpt lat="37.2950583" lon="13.6720281"><ele>314.0</ele><time>2026-05-06T11:16:58.382Z</time></trkpt><trkpt lat="37.2951537" lon="13.6718827"><ele>314.5</ele><time>2026-05-06T11:16:59.382Z</time></trkpt><trkpt lat="37.2952469" lon="13.67173"><ele>315.0</ele><time>2026-05-06T11:17:00.383Z</time></trkpt><trkpt lat="37.2953511" lon="13.6715765"><ele>315.0</ele><time>2026-05-06T11:17:01.382Z</time></trkpt><trkpt lat="37.2954458" lon="13.6714308"><ele>315.0</ele><time>2026-05-06T11:17:02.382Z</time></trkpt><trkpt lat="37.2955255" lon="13.6712986"><ele>315.0</ele><time>2026-05-06T11:17:03.382Z</time></trkpt><trkpt lat="37.2956001" lon="13.6711866"><ele>315.0</ele><time>2026-05-06T11:17:04.383Z</time></trkpt><trkpt lat="37.2956715" lon="13.6710982"><ele>315.6666666666667</ele><time>2026-05-06T11:17:05.382Z</time></trkpt><trkpt lat="37.2957291" lon="13.6710537"><ele>316.3333333333333</ele><time>2026-05-06T11:17:06.382Z</time></trkpt><trkpt lat="37.2957952" lon="13.6710154"><ele>317.0</ele><time>2026-05-06T11:17:07.382Z</time></trkpt><trkpt lat="37.2958764" lon="13.6710004"><ele>317.66666666666663</ele><time>2026-05-06T11:17:08.382Z</time></trkpt><trkpt lat="37.2959801" lon="13.6709931"><ele>318.3333333333333</ele><time>2026-05-06T11:17:09.382Z</time></trkpt><trkpt lat="37.2960752" lon="13.6709828"><ele>319.0</ele><time>2026-05-06T11:17:10.382Z</time></trkpt><trkpt lat="37.2961939" lon="13.670961"><ele>319.0</ele><time>2026-05-06T11:17:11.382Z</time></trkpt><trkpt lat="37.2963077" lon="13.6709403"><ele>319.0</ele><time>2026-05-06T11:17:12.382Z</time></trkpt><trkpt lat="37.2964202" lon="13.6709162"><ele>319.0</ele><time>2026-05-06T11:17:13.382Z</time></trkpt><trkpt lat="37.2965276" lon="13.6708905"><ele>319.0</ele><time>2026-05-06T11:17:14.382Z</time></trkpt><trkpt lat="37.2966375" lon="13.6708668"><ele>317.0</ele><time>2026-05-06T11:17:15.383Z</time></trkpt><trkpt lat="37.296748" lon="13.6708523"><ele>315.0</ele><time>2026-05-06T11:17:16.383Z</time></trkpt><trkpt lat="37.2968606" lon="13.6708569"><ele>313.0</ele><time>2026-05-06T11:17:17.382Z</time></trkpt><trkpt lat="37.2969745" lon="13.6708686"><ele>311.0</ele><time>2026-05-06T11:17:18.382Z</time></trkpt><trkpt lat="37.2970981" lon="13.6709017"><ele>311.0</ele><time>2026-05-06T11:17:19.383Z</time></trkpt><trkpt lat="37.2972046" lon="13.6709514"><ele>311.0</ele><time>2026-05-06T11:17:20.383Z</time></trkpt><trkpt lat="37.2973059" lon="13.6710142"><ele>311.0</ele><time>2026-05-06T11:17:21.382Z</time></trkpt><trkpt lat="37.297386" lon="13.6711035"><ele>311.0</ele><time>2026-05-06T11:17:22.382Z</time></trkpt><trkpt lat="37.2974666" lon="13.6711824"><ele>311.0</ele><time>2026-05-06T11:17:23.382Z</time></trkpt><trkpt lat="37.2975512" lon="13.671246"><ele>308.6</ele><time>2026-05-06T11:17:24.383Z</time></trkpt><trkpt lat="37.2976402" lon="13.6712997"><ele>306.20000000000005</ele><time>2026-05-06T11:17:25.384Z</time></trkpt><trkpt lat="37.297729" lon="13.6713416"><ele>303.79999999999995</ele><time>2026-05-06T11:17:26.382Z</time></trkpt><trkpt lat="37.2978176" lon="13.6713778"><ele>301.4</ele><time>2026-05-06T11:17:27.382Z</time></trkpt><trkpt lat="37.2979083" lon="13.6713889"><ele>299.0</ele><time>2026-05-06T11:17:28.382Z</time></trkpt><trkpt lat="37.2979958" lon="13.6713756"><ele>299.0</ele><time>2026-05-06T11:17:29.382Z</time></trkpt><trkpt lat="37.298078" lon="13.6713428"><ele>299.0</ele><time>2026-05-06T11:17:30.383Z</time></trkpt><trkpt lat="37.2981597" lon="13.671304"><ele>299.0</ele><time>2026-05-06T11:17:31.381Z</time></trkpt><trkpt lat="37.2982443" lon="13.6712678"><ele>299.0</ele><time>2026-05-06T11:17:32.383Z</time></trkpt><trkpt lat="37.2983285" lon="13.6712365"><ele>299.0</ele><time>2026-05-06T11:17:33.382Z</time></trkpt><trkpt lat="37.2984113" lon="13.6712037"><ele>299.0</ele><time>2026-05-06T11:17:34.382Z</time></trkpt><trkpt lat="37.2984945" lon="13.6711734"><ele>299.5</ele><time>2026-05-06T11:17:35.382Z</time></trkpt><trkpt lat="37.2985711" lon="13.6711322"><ele>300.0</ele><time>2026-05-06T11:17:36.382Z</time></trkpt><trkpt lat="37.298648" lon="13.6710938"><ele>300.5</ele><time>2026-05-06T11:17:37.382Z</time></trkpt><trkpt lat="37.2987241" lon="13.6710602"><ele>301.0</ele><time>2026-05-06T11:17:38.382Z</time></trkpt><trkpt lat="37.2987975" lon="13.6710318"><ele>301.5</ele><time>2026-05-06T11:17:39.382Z</time></trkpt><trkpt lat="37.2988779" lon="13.6710034"><ele>302.0</ele><time>2026-05-06T11:17:40.382Z</time></trkpt><trkpt lat="37.2989631" lon="13.6709688"><ele>299.0</ele><time>2026-05-06T11:17:41.383Z</time></trkpt><trkpt lat="37.299062" lon="13.6709264"><ele>296.0</ele><time>2026-05-06T11:17:42.382Z</time></trkpt><trkpt lat="37.2991691" lon="13.6708834"><ele>293.0</ele><time>2026-05-06T11:17:43.383Z</time></trkpt><trkpt lat="37.2992643" lon="13.6708441"><ele>290.0</ele><time>2026-05-06T11:17:44.382Z</time></trkpt><trkpt lat="37.2993608" lon="13.670803"><ele>287.0</ele><time>2026-05-06T11:17:45.382Z</time></trkpt><trkpt lat="37.2994483" lon="13.6707587"><ele>287.0</ele><time>2026-05-06T11:17:46.383Z</time></trkpt><trkpt lat="37.2995341" lon="13.6707152"><ele>287.0</ele><time>2026-05-06T11:17:47.382Z</time></trkpt><trkpt lat="37.2996126" lon="13.6706805"><ele>287.0</ele><time>2026-05-06T11:17:48.382Z</time></trkpt><trkpt lat="37.2996944" lon="13.6706517"><ele>287.0</ele><time>2026-05-06T11:17:49.383Z</time></trkpt><trkpt lat="37.2997585" lon="13.6706253"><ele>287.0</ele><time>2026-05-06T11:17:50.382Z</time></trkpt><trkpt lat="37.2998643" lon="13.6706166"><ele>287.0</ele><time>2026-05-06T11:17:52.382Z</time></trkpt><trkpt lat="37.2999153" lon="13.6706871"><ele>286.1666666666667</ele><time>2026-05-06T11:17:54.382Z</time></trkpt><trkpt lat="37.2999005" lon="13.6707925"><ele>285.33333333333337</ele><time>2026-05-06T11:17:56.382Z</time></trkpt><trkpt lat="37.2998603" lon="13.670873"><ele>284.5</ele><time>2026-05-06T11:17:57.382Z</time></trkpt><trkpt lat="37.2998225" lon="13.6709595"><ele>283.6666666666667</ele><time>2026-05-06T11:17:58.383Z</time></trkpt><trkpt lat="37.2997766" lon="13.6710527"><ele>282.8333333333333</ele><time>2026-05-06T11:17:59.383Z</time></trkpt><trkpt lat="37.2997285" lon="13.6711529"><ele>282.0</ele><time>2026-05-06T11:18:00.383Z</time></trkpt><trkpt lat="37.2996749" lon="13.6712579"><ele>282.0</ele><time>2026-05-06T11:18:01.382Z</time></trkpt><trkpt lat="37.2996183" lon="13.6713617"><ele>282.0</ele><time>2026-05-06T11:18:02.383Z</time></trkpt><trkpt lat="37.299559" lon="13.671474"><ele>282.0</ele><time>2026-05-06T11:18:03.384Z</time></trkpt><trkpt lat="37.2994981" lon="13.6715872"><ele>282.0</ele><time>2026-05-06T11:18:04.381Z</time></trkpt><trkpt lat="37.2994349" lon="13.6717024"><ele>282.0</ele><time>2026-05-06T11:18:05.382Z</time></trkpt><trkpt lat="37.2993687" lon="13.6718149"><ele>282.0</ele><time>2026-05-06T11:18:06.382Z</time></trkpt><trkpt lat="37.2993001" lon="13.6719241"><ele>282.0</ele><time>2026-05-06T11:18:07.382Z</time></trkpt><trkpt lat="37.2992243" lon="13.6720321"><ele>282.0</ele><time>2026-05-06T11:18:08.382Z</time></trkpt><trkpt lat="37.2991486" lon="13.6721403"><ele>282.0</ele><time>2026-05-06T11:18:09.383Z</time></trkpt><trkpt lat="37.2990676" lon="13.6722471"><ele>282.0</ele><time>2026-05-06T11:18:10.382Z</time></trkpt><trkpt lat="37.2989845" lon="13.6723578"><ele>282.0</ele><time>2026-05-06T11:18:11.382Z</time></trkpt><trkpt lat="37.2988965" lon="13.6724704"><ele>282.0</ele><time>2026-05-06T11:18:12.382Z</time></trkpt><trkpt lat="37.2988047" lon="13.6725845"><ele>282.0</ele><time>2026-05-06T11:18:13.382Z</time></trkpt><trkpt lat="37.2987123" lon="13.6726926"><ele>280.5</ele><time>2026-05-06T11:18:14.382Z</time></trkpt><trkpt lat="37.2986194" lon="13.6727925"><ele>279.0</ele><time>2026-05-06T11:18:15.382Z</time></trkpt><trkpt lat="37.2985225" lon="13.6728956"><ele>277.5</ele><time>2026-05-06T11:18:16.381Z</time></trkpt><trkpt lat="37.2984224" lon="13.6729894"><ele>276.0</ele><time>2026-05-06T11:18:17.382Z</time></trkpt><trkpt lat="37.2983255" lon="13.6730849"><ele>276.0</ele><time>2026-05-06T11:18:18.381Z</time></trkpt><trkpt lat="37.2982119" lon="13.6731756"><ele>276.0</ele><time>2026-05-06T11:18:19.382Z</time></trkpt><trkpt lat="37.2981059" lon="13.6732613"><ele>276.0</ele><time>2026-05-06T11:18:20.382Z</time></trkpt><trkpt lat="37.2979992" lon="13.6733429"><ele>276.0</ele><time>2026-05-06T11:18:21.382Z</time></trkpt><trkpt lat="37.2978993" lon="13.6734223"><ele>276.25</ele><time>2026-05-06T11:18:22.382Z</time></trkpt><trkpt lat="37.2978031" lon="13.6735047"><ele>276.5</ele><time>2026-05-06T11:18:23.382Z</time></trkpt><trkpt lat="37.2976959" lon="13.6735742"><ele>276.75</ele><time>2026-05-06T11:18:24.382Z</time></trkpt><trkpt lat="37.2975959" lon="13.6736421"><ele>277.0</ele><time>2026-05-06T11:18:25.382Z</time></trkpt><trkpt lat="37.2974928" lon="13.673711"><ele>275.25</ele><time>2026-05-06T11:18:26.381Z</time></trkpt><trkpt lat="37.2973955" lon="13.6737782"><ele>273.5</ele><time>2026-05-06T11:18:27.381Z</time></trkpt><trkpt lat="37.2972994" lon="13.6738543"><ele>271.75</ele><time>2026-05-06T11:18:28.383Z</time></trkpt><trkpt lat="37.2972071" lon="13.6739514"><ele>270.0</ele><time>2026-05-06T11:18:29.382Z</time></trkpt><trkpt lat="37.2971202" lon="13.6740621"><ele>270.0</ele><time>2026-05-06T11:18:30.382Z</time></trkpt><trkpt lat="37.2970508" lon="13.6741835"><ele>270.0</ele><time>2026-05-06T11:18:31.382Z</time></trkpt><trkpt lat="37.2969783" lon="13.6743182"><ele>270.0</ele><time>2026-05-06T11:18:32.382Z</time></trkpt><trkpt lat="37.2969094" lon="13.6744661"><ele>270.0</ele><time>2026-05-06T11:18:33.383Z</time></trkpt><trkpt lat="37.2968353" lon="13.6746246"><ele>269.25</ele><time>2026-05-06T11:18:34.382Z</time></trkpt><trkpt lat="37.2967618" lon="13.6747656"><ele>268.5</ele><time>2026-05-06T11:18:35.383Z</time></trkpt><trkpt lat="37.2966833" lon="13.674897"><ele>267.75</ele><time>2026-05-06T11:18:36.382Z</time></trkpt><trkpt lat="37.2965958" lon="13.675016"><ele>267.0</ele><time>2026-05-06T11:18:37.382Z</time></trkpt><trkpt lat="37.2965051" lon="13.6751309"><ele>267.25</ele><time>2026-05-06T11:18:38.382Z</time></trkpt><trkpt lat="37.2964135" lon="13.6752477"><ele>267.5</ele><time>2026-05-06T11:18:39.382Z</time></trkpt><trkpt lat="37.2963224" lon="13.6753606"><ele>267.75</ele><time>2026-05-06T11:18:40.383Z</time></trkpt><trkpt lat="37.2962352" lon="13.6754683"><ele>268.0</ele><time>2026-05-06T11:18:41.382Z</time></trkpt><trkpt lat="37.2961403" lon="13.6755737"><ele>266.5</ele><time>2026-05-06T11:18:42.382Z</time></trkpt><trkpt lat="37.2960399" lon="13.6756774"><ele>265.0</ele><time>2026-05-06T11:18:43.382Z</time></trkpt><trkpt lat="37.2959399" lon="13.6757819"><ele>263.5</ele><time>2026-05-06T11:18:44.382Z</time></trkpt><trkpt lat="37.295837" lon="13.6758813"><ele>262.0</ele><time>2026-05-06T11:18:45.383Z</time></trkpt><trkpt lat="37.2957324" lon="13.6759813"><ele>262.0</ele><time>2026-05-06T11:18:46.381Z</time></trkpt><trkpt lat="37.2956339" lon="13.6760816"><ele>262.0</ele><time>2026-05-06T11:18:47.382Z</time></trkpt><trkpt lat="37.2955305" lon="13.6761848"><ele>262.0</ele><time>2026-05-06T11:18:48.383Z</time></trkpt><trkpt lat="37.295431" lon="13.67629"><ele>262.0</ele><time>2026-05-06T11:18:49.382Z</time></trkpt><trkpt lat="37.2953313" lon="13.6763929"><ele>260.25</ele><time>2026-05-06T11:18:50.382Z</time></trkpt><trkpt lat="37.2952243" lon="13.676496"><ele>258.5</ele><time>2026-05-06T11:18:51.381Z</time></trkpt><trkpt lat="37.2951257" lon="13.6765988"><ele>256.75</ele><time>2026-05-06T11:18:52.381Z</time></trkpt><trkpt lat="37.2950216" lon="13.6767022"><ele>255.0</ele><time>2026-05-06T11:18:53.382Z</time></trkpt><trkpt lat="37.2949242" lon="13.6768014"><ele>255.0</ele><time>2026-05-06T11:18:54.382Z</time></trkpt><trkpt lat="37.2948205" lon="13.6769029"><ele>255.0</ele><time>2026-05-06T11:18:55.382Z</time></trkpt><trkpt lat="37.2947181" lon="13.6770059"><ele>255.0</ele><time>2026-05-06T11:18:56.382Z</time></trkpt><trkpt lat="37.2946167" lon="13.6771123"><ele>255.0</ele><time>2026-05-06T11:18:57.382Z</time></trkpt><trkpt lat="37.2945203" lon="13.6772267"><ele>254.75</ele><time>2026-05-06T11:18:58.382Z</time></trkpt><trkpt lat="37.29442" lon="13.6773393"><ele>254.5</ele><time>2026-05-06T11:18:59.381Z</time></trkpt><trkpt lat="37.2943195" lon="13.6774484"><ele>254.25</ele><time>2026-05-06T11:19:00.382Z</time></trkpt><trkpt lat="37.2942237" lon="13.67756"><ele>254.0</ele><time>2026-05-06T11:19:01.382Z</time></trkpt><trkpt lat="37.2941256" lon="13.6776728"><ele>253.5</ele><time>2026-05-06T11:19:02.382Z</time></trkpt><trkpt lat="37.2940287" lon="13.6777892"><ele>253.0</ele><time>2026-05-06T11:19:03.382Z</time></trkpt><trkpt lat="37.2939311" lon="13.6779095"><ele>252.5</ele><time>2026-05-06T11:19:04.382Z</time></trkpt><trkpt lat="37.2938227" lon="13.6780362"><ele>252.0</ele><time>2026-05-06T11:19:05.382Z</time></trkpt><trkpt lat="37.2937082" lon="13.6781695"><ele>252.0</ele><time>2026-05-06T11:19:06.383Z</time></trkpt><trkpt lat="37.2935932" lon="13.6782979"><ele>252.0</ele><time>2026-05-06T11:19:07.382Z</time></trkpt><trkpt lat="37.2934838" lon="13.6784239"><ele>252.0</ele><time>2026-05-06T11:19:08.382Z</time></trkpt><trkpt lat="37.2933835" lon="13.6785415"><ele>252.0</ele><time>2026-05-06T11:19:09.381Z</time></trkpt><trkpt lat="37.2932777" lon="13.6786516"><ele>252.0</ele><time>2026-05-06T11:19:10.382Z</time></trkpt><trkpt lat="37.2931725" lon="13.678746"><ele>252.0</ele><time>2026-05-06T11:19:11.383Z</time></trkpt><trkpt lat="37.2930586" lon="13.6788394"><ele>252.0</ele><time>2026-05-06T11:19:12.383Z</time></trkpt><trkpt lat="37.2929404" lon="13.6789266"><ele>252.0</ele><time>2026-05-06T11:19:13.382Z</time></trkpt><trkpt lat="37.2928152" lon="13.6790162"><ele>252.0</ele><time>2026-05-06T11:19:14.381Z</time></trkpt><trkpt lat="37.292692" lon="13.6791065"><ele>252.0</ele><time>2026-05-06T11:19:15.382Z</time></trkpt><trkpt lat="37.2925643" lon="13.6791935"><ele>252.0</ele><time>2026-05-06T11:19:16.382Z</time></trkpt><trkpt lat="37.2924407" lon="13.6792797"><ele>252.0</ele><time>2026-05-06T11:19:17.381Z</time></trkpt><trkpt lat="37.2923151" lon="13.6793643"><ele>251.25</ele><time>2026-05-06T11:19:18.382Z</time></trkpt><trkpt lat="37.2921962" lon="13.6794544"><ele>250.5</ele><time>2026-05-06T11:19:19.383Z</time></trkpt><trkpt lat="37.2920668" lon="13.6795432"><ele>249.75</ele><time>2026-05-06T11:19:20.382Z</time></trkpt><trkpt lat="37.2919375" lon="13.6796308"><ele>249.0</ele><time>2026-05-06T11:19:21.382Z</time></trkpt><trkpt lat="37.2918111" lon="13.6797207"><ele>249.0</ele><time>2026-05-06T11:19:22.383Z</time></trkpt><trkpt lat="37.2916891" lon="13.6798107"><ele>249.0</ele><time>2026-05-06T11:19:23.383Z</time></trkpt><trkpt lat="37.2915609" lon="13.6798989"><ele>249.0</ele><time>2026-05-06T11:19:24.383Z</time></trkpt><trkpt lat="37.2914521" lon="13.6799834"><ele>249.0</ele><time>2026-05-06T11:19:25.382Z</time></trkpt><trkpt lat="37.2913397" lon="13.6800592"><ele>248.5</ele><time>2026-05-06T11:19:26.382Z</time></trkpt><trkpt lat="37.2912313" lon="13.6801339"><ele>248.0</ele><time>2026-05-06T11:19:27.382Z</time></trkpt><trkpt lat="37.2911335" lon="13.6801983"><ele>247.5</ele><time>2026-05-06T11:19:28.382Z</time></trkpt><trkpt lat="37.2910344" lon="13.6802589"><ele>247.0</ele><time>2026-05-06T11:19:29.382Z</time></trkpt><trkpt lat="37.2909307" lon="13.6803187"><ele>246.75</ele><time>2026-05-06T11:19:30.381Z</time></trkpt><trkpt lat="37.2908238" lon="13.6803687"><ele>246.5</ele><time>2026-05-06T11:19:31.382Z</time></trkpt><trkpt lat="37.2907193" lon="13.6804171"><ele>246.25</ele><time>2026-05-06T11:19:32.383Z</time></trkpt><trkpt lat="37.2906131" lon="13.6804673"><ele>246.0</ele><time>2026-05-06T11:19:33.383Z</time></trkpt><trkpt lat="37.290505" lon="13.6805235"><ele>245.25</ele><time>2026-05-06T11:19:34.383Z</time></trkpt><trkpt lat="37.2904031" lon="13.6805821"><ele>244.5</ele><time>2026-05-06T11:19:35.382Z</time></trkpt><trkpt lat="37.290298" lon="13.6806366"><ele>243.75</ele><time>2026-05-06T11:19:36.382Z</time></trkpt><trkpt lat="37.2901958" lon="13.6806941"><ele>243.0</ele><time>2026-05-06T11:19:37.382Z</time></trkpt><trkpt lat="37.2900904" lon="13.6807539"><ele>243.0</ele><time>2026-05-06T11:19:38.381Z</time></trkpt><trkpt lat="37.2899822" lon="13.6808175"><ele>243.0</ele><time>2026-05-06T11:19:39.382Z</time></trkpt><trkpt lat="37.2898742" lon="13.6808756"><ele>243.0</ele><time>2026-05-06T11:19:40.382Z</time></trkpt><trkpt lat="37.2897655" lon="13.6809331"><ele>243.0</ele><time>2026-05-06T11:19:41.383Z</time></trkpt><trkpt lat="37.2896543" lon="13.6809891"><ele>242.5</ele><time>2026-05-06T11:19:42.382Z</time></trkpt><trkpt lat="37.2895402" lon="13.6810428"><ele>242.0</ele><time>2026-05-06T11:19:43.381Z</time></trkpt><trkpt lat="37.2894289" lon="13.6811024"><ele>241.5</ele><time>2026-05-06T11:19:44.383Z</time></trkpt><trkpt lat="37.2893104" lon="13.6811688"><ele>241.0</ele><time>2026-05-06T11:19:45.382Z</time></trkpt><trkpt lat="37.2891959" lon="13.6812354"><ele>240.25</ele><time>2026-05-06T11:19:46.383Z</time></trkpt><trkpt lat="37.2890745" lon="13.6813075"><ele>239.5</ele><time>2026-05-06T11:19:47.382Z</time></trkpt><trkpt lat="37.2889587" lon="13.6813753"><ele>238.75</ele><time>2026-05-06T11:19:48.382Z</time></trkpt><trkpt lat="37.2888368" lon="13.6814484"><ele>238.0</ele><time>2026-05-06T11:19:49.381Z</time></trkpt><trkpt lat="37.2887198" lon="13.6815164"><ele>236.5</ele><time>2026-05-06T11:19:50.382Z</time></trkpt><trkpt lat="37.2885972" lon="13.6815931"><ele>235.0</ele><time>2026-05-06T11:19:51.383Z</time></trkpt><trkpt lat="37.2884708" lon="13.6816693"><ele>233.5</ele><time>2026-05-06T11:19:52.382Z</time></trkpt><trkpt lat="37.2883518" lon="13.6817419"><ele>232.0</ele><time>2026-05-06T11:19:53.382Z</time></trkpt><trkpt lat="37.2882257" lon="13.6818164"><ele>232.0</ele><time>2026-05-06T11:19:54.382Z</time></trkpt><trkpt lat="37.2881003" lon="13.6819022"><ele>232.0</ele><time>2026-05-06T11:19:55.381Z</time></trkpt><trkpt lat="37.2879741" lon="13.6819836"><ele>232.0</ele><time>2026-05-06T11:19:56.382Z</time></trkpt><trkpt lat="37.2878467" lon="13.6820681"><ele>232.0</ele><time>2026-05-06T11:19:57.383Z</time></trkpt><trkpt lat="37.2877171" lon="13.6821478"><ele>231.0</ele><time>2026-05-06T11:19:58.382Z</time></trkpt><trkpt lat="37.2875945" lon="13.6822212"><ele>230.0</ele><time>2026-05-06T11:19:59.383Z</time></trkpt><trkpt lat="37.2874735" lon="13.6822917"><ele>229.0</ele><time>2026-05-06T11:20:00.382Z</time></trkpt><trkpt lat="37.2873509" lon="13.6823608"><ele>228.0</ele><time>2026-05-06T11:20:01.382Z</time></trkpt><trkpt lat="37.2872262" lon="13.68243"><ele>227.5</ele><time>2026-05-06T11:20:02.383Z</time></trkpt><trkpt lat="37.2871005" lon="13.6825023"><ele>227.0</ele><time>2026-05-06T11:20:03.381Z</time></trkpt><trkpt lat="37.2869688" lon="13.6825697"><ele>226.5</ele><time>2026-05-06T11:20:04.381Z</time></trkpt><trkpt lat="37.2868348" lon="13.6826305"><ele>226.0</ele><time>2026-05-06T11:20:05.381Z</time></trkpt><trkpt lat="37.2867014" lon="13.6826866"><ele>226.0</ele><time>2026-05-06T11:20:06.383Z</time></trkpt><trkpt lat="37.286568" lon="13.6827395"><ele>226.0</ele><time>2026-05-06T11:20:07.383Z</time></trkpt><trkpt lat="37.2864307" lon="13.6827896"><ele>226.0</ele><time>2026-05-06T11:20:08.382Z</time></trkpt><trkpt lat="37.2862932" lon="13.6828405"><ele>226.0</ele><time>2026-05-06T11:20:09.382Z</time></trkpt><trkpt lat="37.2861526" lon="13.6828949"><ele>225.75</ele><time>2026-05-06T11:20:10.383Z</time></trkpt><trkpt lat="37.2860178" lon="13.6829457"><ele>225.5</ele><time>2026-05-06T11:20:11.382Z</time></trkpt><trkpt lat="37.2858854" lon="13.6829895"><ele>225.25</ele><time>2026-05-06T11:20:12.381Z</time></trkpt><trkpt lat="37.2857476" lon="13.6830384"><ele>225.0</ele><time>2026-05-06T11:20:13.381Z</time></trkpt><trkpt lat="37.2856122" lon="13.6830902"><ele>224.25</ele><time>2026-05-06T11:20:14.382Z</time></trkpt><trkpt lat="37.2854751" lon="13.6831428"><ele>223.5</ele><time>2026-05-06T11:20:15.382Z</time></trkpt><trkpt lat="37.2853368" lon="13.6831942"><ele>222.75</ele><time>2026-05-06T11:20:16.383Z</time></trkpt><trkpt lat="37.2851968" lon="13.6832485"><ele>222.0</ele><time>2026-05-06T11:20:17.382Z</time></trkpt><trkpt lat="37.285059" lon="13.6833053"><ele>222.0</ele><time>2026-05-06T11:20:18.381Z</time></trkpt><trkpt lat="37.2849209" lon="13.6833647"><ele>222.0</ele><time>2026-05-06T11:20:19.382Z</time></trkpt><trkpt lat="37.2847827" lon="13.6834238"><ele>222.0</ele><time>2026-05-06T11:20:20.382Z</time></trkpt><trkpt lat="37.2846489" lon="13.6834798"><ele>222.0</ele><time>2026-05-06T11:20:21.383Z</time></trkpt><trkpt lat="37.2845125" lon="13.6835337"><ele>221.75</ele><time>2026-05-06T11:20:22.382Z</time></trkpt><trkpt lat="37.2843774" lon="13.683581"><ele>221.5</ele><time>2026-05-06T11:20:23.382Z</time></trkpt><trkpt lat="37.2842409" lon="13.6836315"><ele>221.25</ele><time>2026-05-06T11:20:24.383Z</time></trkpt><trkpt lat="37.2841021" lon="13.6836836"><ele>221.0</ele><time>2026-05-06T11:20:25.383Z</time></trkpt><trkpt lat="37.2839633" lon="13.6837333"><ele>220.5</ele><time>2026-05-06T11:20:26.381Z</time></trkpt><trkpt lat="37.2838171" lon="13.6837789"><ele>220.0</ele><time>2026-05-06T11:20:27.383Z</time></trkpt><trkpt lat="37.283672" lon="13.6838175"><ele>219.5</ele><time>2026-05-06T11:20:28.382Z</time></trkpt><trkpt lat="37.283533" lon="13.6838517"><ele>219.0</ele><time>2026-05-06T11:20:29.381Z</time></trkpt><trkpt lat="37.2833944" lon="13.6838863"><ele>219.0</ele><time>2026-05-06T11:20:30.381Z</time></trkpt><trkpt lat="37.2832563" lon="13.6839191"><ele>219.0</ele><time>2026-05-06T11:20:31.383Z</time></trkpt><trkpt lat="37.2831216" lon="13.6839583"><ele>219.0</ele><time>2026-05-06T11:20:32.383Z</time></trkpt><trkpt lat="37.2829845" lon="13.6839857"><ele>219.0</ele><time>2026-05-06T11:20:33.382Z</time></trkpt><trkpt lat="37.2828477" lon="13.6840182"><ele>218.5</ele><time>2026-05-06T11:20:34.382Z</time></trkpt><trkpt lat="37.2827146" lon="13.6840528"><ele>218.0</ele><time>2026-05-06T11:20:35.382Z</time></trkpt><trkpt lat="37.2825798" lon="13.6840912"><ele>217.5</ele><time>2026-05-06T11:20:36.382Z</time></trkpt><trkpt lat="37.2824437" lon="13.6841306"><ele>217.0</ele><time>2026-05-06T11:20:37.382Z</time></trkpt><trkpt lat="37.2823034" lon="13.6841677"><ele>216.5</ele><time>2026-05-06T11:20:38.381Z</time></trkpt><trkpt lat="37.2821671" lon="13.684216"><ele>216.0</ele><time>2026-05-06T11:20:39.383Z</time></trkpt><trkpt lat="37.2820343" lon="13.6842745"><ele>215.5</ele><time>2026-05-06T11:20:40.383Z</time></trkpt><trkpt lat="37.2818949" lon="13.6843288"><ele>215.0</ele><time>2026-05-06T11:20:41.381Z</time></trkpt><trkpt lat="37.2817585" lon="13.6843828"><ele>214.0</ele><time>2026-05-06T11:20:42.382Z</time></trkpt><trkpt lat="37.2816191" lon="13.6844361"><ele>213.0</ele><time>2026-05-06T11:20:43.382Z</time></trkpt><trkpt lat="37.2814749" lon="13.6844881"><ele>212.0</ele><time>2026-05-06T11:20:44.382Z</time></trkpt><trkpt lat="37.2813327" lon="13.6845329"><ele>211.0</ele><time>2026-05-06T11:20:45.381Z</time></trkpt><trkpt lat="37.2811963" lon="13.6845833"><ele>209.5</ele><time>2026-05-06T11:20:46.382Z</time></trkpt><trkpt lat="37.281064" lon="13.6846349"><ele>208.0</ele><time>2026-05-06T11:20:47.382Z</time></trkpt><trkpt lat="37.2809357" lon="13.6846882"><ele>206.5</ele><time>2026-05-06T11:20:48.383Z</time></trkpt><trkpt lat="37.2808121" lon="13.6847361"><ele>205.0</ele><time>2026-05-06T11:20:49.383Z</time></trkpt><trkpt lat="37.2806885" lon="13.6847815"><ele>205.5</ele><time>2026-05-06T11:20:50.382Z</time></trkpt><trkpt lat="37.280565" lon="13.6848239"><ele>206.0</ele><time>2026-05-06T11:20:51.382Z</time></trkpt><trkpt lat="37.280439" lon="13.6848659"><ele>206.5</ele><time>2026-05-06T11:20:52.381Z</time></trkpt><trkpt lat="37.2803147" lon="13.6849105"><ele>207.0</ele><time>2026-05-06T11:20:53.382Z</time></trkpt><trkpt lat="37.2802013" lon="13.6849585"><ele>207.0</ele><time>2026-05-06T11:20:54.381Z</time></trkpt><trkpt lat="37.2800862" lon="13.6849992"><ele>207.0</ele><time>2026-05-06T11:20:55.381Z</time></trkpt><trkpt lat="37.2799702" lon="13.6850407"><ele>207.0</ele><time>2026-05-06T11:20:56.382Z</time></trkpt><trkpt lat="37.279854" lon="13.6850833"><ele>207.0</ele><time>2026-05-06T11:20:57.381Z</time></trkpt><trkpt lat="37.2797437" lon="13.6851264"><ele>207.25</ele><time>2026-05-06T11:20:58.382Z</time></trkpt><trkpt lat="37.2796337" lon="13.6851647"><ele>207.5</ele><time>2026-05-06T11:20:59.382Z</time></trkpt><trkpt lat="37.2795192" lon="13.6852053"><ele>207.75</ele><time>2026-05-06T11:21:00.381Z</time></trkpt><trkpt lat="37.2794041" lon="13.6852383"><ele>208.0</ele><time>2026-05-06T11:21:01.381Z</time></trkpt><trkpt lat="37.2792911" lon="13.6852698"><ele>204.75</ele><time>2026-05-06T11:21:02.382Z</time></trkpt><trkpt lat="37.27917" lon="13.6853008"><ele>201.5</ele><time>2026-05-06T11:21:03.383Z</time></trkpt><trkpt lat="37.2790517" lon="13.6853349"><ele>198.25</ele><time>2026-05-06T11:21:04.382Z</time></trkpt><trkpt lat="37.2789338" lon="13.6853647"><ele>195.0</ele><time>2026-05-06T11:21:05.381Z</time></trkpt><trkpt lat="37.278813" lon="13.6853985"><ele>194.5</ele><time>2026-05-06T11:21:06.382Z</time></trkpt><trkpt lat="37.2786992" lon="13.6854259"><ele>194.0</ele><time>2026-05-06T11:21:07.383Z</time></trkpt><trkpt lat="37.2785854" lon="13.6854599"><ele>193.5</ele><time>2026-05-06T11:21:08.382Z</time></trkpt><trkpt lat="37.2784774" lon="13.6854843"><ele>193.0</ele><time>2026-05-06T11:21:09.381Z</time></trkpt><trkpt lat="37.2783601" lon="13.6854989"><ele>193.0</ele><time>2026-05-06T11:21:10.382Z</time></trkpt><trkpt lat="37.2782437" lon="13.6855119"><ele>193.0</ele><time>2026-05-06T11:21:11.383Z</time></trkpt><trkpt lat="37.2781231" lon="13.6855209"><ele>193.0</ele><time>2026-05-06T11:21:12.382Z</time></trkpt><trkpt lat="37.2780017" lon="13.6855255"><ele>193.0</ele><time>2026-05-06T11:21:13.382Z</time></trkpt><trkpt lat="37.2778805" lon="13.685519"><ele>192.0</ele><time>2026-05-06T11:21:14.382Z</time></trkpt><trkpt lat="37.2777601" lon="13.6854985"><ele>191.0</ele><time>2026-05-06T11:21:15.382Z</time></trkpt><trkpt lat="37.2776381" lon="13.6854734"><ele>190.0</ele><time>2026-05-06T11:21:16.381Z</time></trkpt><trkpt lat="37.2775197" lon="13.6854257"><ele>189.0</ele><time>2026-05-06T11:21:17.383Z</time></trkpt><trkpt lat="37.2774019" lon="13.685378"><ele>189.0</ele><time>2026-05-06T11:21:18.382Z</time></trkpt><trkpt lat="37.2772836" lon="13.6853294"><ele>189.0</ele><time>2026-05-06T11:21:19.382Z</time></trkpt><trkpt lat="37.2771547" lon="13.6852839"><ele>189.0</ele><time>2026-05-06T11:21:20.383Z</time></trkpt><trkpt lat="37.2770302" lon="13.6852281"><ele>189.0</ele><time>2026-05-06T11:21:21.382Z</time></trkpt><trkpt lat="37.2768951" lon="13.6851687"><ele>188.75</ele><time>2026-05-06T11:21:22.383Z</time></trkpt><trkpt lat="37.2767668" lon="13.6851122"><ele>188.5</ele><time>2026-05-06T11:21:23.382Z</time></trkpt><trkpt lat="37.2766438" lon="13.6850531"><ele>188.25</ele><time>2026-05-06T11:21:24.381Z</time></trkpt><trkpt lat="37.2765221" lon="13.6849922"><ele>188.0</ele><time>2026-05-06T11:21:25.382Z</time></trkpt><trkpt lat="37.2764088" lon="13.6849274"><ele>185.75</ele><time>2026-05-06T11:21:26.383Z</time></trkpt><trkpt lat="37.2763015" lon="13.6848698"><ele>183.5</ele><time>2026-05-06T11:21:27.381Z</time></trkpt><trkpt lat="37.2761959" lon="13.684815"><ele>181.25</ele><time>2026-05-06T11:21:28.384Z</time></trkpt><trkpt lat="37.2760892" lon="13.6847572"><ele>179.0</ele><time>2026-05-06T11:21:29.383Z</time></trkpt><trkpt lat="37.2759869" lon="13.6847014"><ele>179.0</ele><time>2026-05-06T11:21:30.382Z</time></trkpt><trkpt lat="37.2758864" lon="13.6846448"><ele>179.0</ele><time>2026-05-06T11:21:31.382Z</time></trkpt><trkpt lat="37.2757811" lon="13.6845876"><ele>179.0</ele><time>2026-05-06T11:21:32.382Z</time></trkpt><trkpt lat="37.2756837" lon="13.6845303"><ele>179.0</ele><time>2026-05-06T11:21:33.381Z</time></trkpt><trkpt lat="37.2755814" lon="13.6844782"><ele>179.0</ele><time>2026-05-06T11:21:34.382Z</time></trkpt><trkpt lat="37.2754831" lon="13.6844189"><ele>176.79999999999998</ele><time>2026-05-06T11:21:35.381Z</time></trkpt><trkpt lat="37.2753825" lon="13.6843576"><ele>174.6</ele><time>2026-05-06T11:21:36.381Z</time></trkpt><trkpt lat="37.2752887" lon="13.6842804"><ele>172.4</ele><time>2026-05-06T11:21:37.383Z</time></trkpt><trkpt lat="37.275193" lon="13.6842091"><ele>170.2</ele><time>2026-05-06T11:21:38.383Z</time></trkpt><trkpt lat="37.2750975" lon="13.6841404"><ele>168.0</ele><time>2026-05-06T11:21:39.382Z</time></trkpt><trkpt lat="37.2750043" lon="13.6840683"><ele>168.0</ele><time>2026-05-06T11:21:40.382Z</time></trkpt><trkpt lat="37.274915" lon="13.6839944"><ele>168.0</ele><time>2026-05-06T11:21:41.382Z</time></trkpt><trkpt lat="37.2748183" lon="13.6839192"><ele>168.0</ele><time>2026-05-06T11:21:42.381Z</time></trkpt><trkpt lat="37.2747288" lon="13.6838503"><ele>168.0</ele><time>2026-05-06T11:21:43.382Z</time></trkpt><trkpt lat="37.2746385" lon="13.6837824"><ele>168.0</ele><time>2026-05-06T11:21:44.381Z</time></trkpt><trkpt lat="37.2745459" lon="13.683718"><ele>166.60000000000002</ele><time>2026-05-06T11:21:45.382Z</time></trkpt><trkpt lat="37.2744572" lon="13.6836583"><ele>165.20000000000002</ele><time>2026-05-06T11:21:46.381Z</time></trkpt><trkpt lat="37.2743659" lon="13.6836"><ele>163.8</ele><time>2026-05-06T11:21:47.382Z</time></trkpt><trkpt lat="37.2742689" lon="13.6835552"><ele>162.4</ele><time>2026-05-06T11:21:48.382Z</time></trkpt><trkpt lat="37.2741689" lon="13.68352"><ele>161.0</ele><time>2026-05-06T11:21:49.383Z</time></trkpt><trkpt lat="37.2740711" lon="13.6834954"><ele>161.0</ele><time>2026-05-06T11:21:50.382Z</time></trkpt><trkpt lat="37.2739729" lon="13.6834757"><ele>161.0</ele><time>2026-05-06T11:21:51.382Z</time></trkpt><trkpt lat="37.2738703" lon="13.6834528"><ele>161.0</ele><time>2026-05-06T11:21:52.382Z</time></trkpt><trkpt lat="37.2737682" lon="13.6834373"><ele>161.0</ele><time>2026-05-06T11:21:53.381Z</time></trkpt><trkpt lat="37.2736626" lon="13.6834135"><ele>161.0</ele><time>2026-05-06T11:21:54.381Z</time></trkpt><trkpt lat="37.2735586" lon="13.6833901"><ele>158.8</ele><time>2026-05-06T11:21:55.382Z</time></trkpt><trkpt lat="37.2734579" lon="13.6833764"><ele>156.60000000000002</ele><time>2026-05-06T11:21:56.381Z</time></trkpt><trkpt lat="37.2733555" lon="13.6833763"><ele>154.4</ele><time>2026-05-06T11:21:57.381Z</time></trkpt><trkpt lat="37.273251" lon="13.6833897"><ele>152.2</ele><time>2026-05-06T11:21:58.381Z</time></trkpt><trkpt lat="37.2731479" lon="13.6834033"><ele>150.0</ele><time>2026-05-06T11:21:59.383Z</time></trkpt><trkpt lat="37.2730462" lon="13.6834152"><ele>147.8</ele><time>2026-05-06T11:22:00.382Z</time></trkpt><trkpt lat="37.2729471" lon="13.6834273"><ele>145.6</ele><time>2026-05-06T11:22:01.381Z</time></trkpt><trkpt lat="37.2728487" lon="13.6834378"><ele>143.4</ele><time>2026-05-06T11:22:02.382Z</time></trkpt><trkpt lat="37.2727499" lon="13.6834447"><ele>141.2</ele><time>2026-05-06T11:22:03.382Z</time></trkpt><trkpt lat="37.2726599" lon="13.6834508"><ele>139.0</ele><time>2026-05-06T11:22:04.382Z</time></trkpt><trkpt lat="37.2725662" lon="13.6834421"><ele>139.0</ele><time>2026-05-06T11:22:05.381Z</time></trkpt><trkpt lat="37.2724707" lon="13.6834266"><ele>139.0</ele><time>2026-05-06T11:22:06.382Z</time></trkpt><trkpt lat="37.27237" lon="13.6834118"><ele>139.0</ele><time>2026-05-06T11:22:07.382Z</time></trkpt><trkpt lat="37.2722747" lon="13.6833931"><ele>139.0</ele><time>2026-05-06T11:22:08.381Z</time></trkpt><trkpt lat="37.2721829" lon="13.6833662"><ele>139.0</ele><time>2026-05-06T11:22:09.382Z</time></trkpt><trkpt lat="37.2720952" lon="13.6833367"><ele>137.33333333333334</ele><time>2026-05-06T11:22:10.382Z</time></trkpt><trkpt lat="37.2720097" lon="13.683303"><ele>135.66666666666669</ele><time>2026-05-06T11:22:11.383Z</time></trkpt><trkpt lat="37.2719294" lon="13.6832763"><ele>134.0</ele><time>2026-05-06T11:22:12.381Z</time></trkpt><trkpt lat="37.2718526" lon="13.6832538"><ele>132.33333333333334</ele><time>2026-05-06T11:22:13.381Z</time></trkpt><trkpt lat="37.2717755" lon="13.6832319"><ele>130.66666666666666</ele><time>2026-05-06T11:22:14.382Z</time></trkpt><trkpt lat="37.271697" lon="13.6832138"><ele>129.0</ele><time>2026-05-06T11:22:15.381Z</time></trkpt><trkpt lat="37.2716195" lon="13.6831952"><ele>129.0</ele><time>2026-05-06T11:22:16.381Z</time></trkpt><trkpt lat="37.271541" lon="13.6831754"><ele>129.0</ele><time>2026-05-06T11:22:17.382Z</time></trkpt><trkpt lat="37.2714623" lon="13.6831694"><ele>129.0</ele><time>2026-05-06T11:22:18.381Z</time></trkpt><trkpt lat="37.2713842" lon="13.6831637"><ele>129.0</ele><time>2026-05-06T11:22:19.382Z</time></trkpt><trkpt lat="37.2713052" lon="13.6831627"><ele>129.0</ele><time>2026-05-06T11:22:20.381Z</time></trkpt><trkpt lat="37.2712256" lon="13.6831612"><ele>129.0</ele><time>2026-05-06T11:22:21.381Z</time></trkpt><trkpt lat="37.2711481" lon="13.683162"><ele>128.28571428571428</ele><time>2026-05-06T11:22:22.382Z</time></trkpt><trkpt lat="37.2710732" lon="13.6831698"><ele>127.57142857142857</ele><time>2026-05-06T11:22:23.382Z</time></trkpt><trkpt lat="37.2710047" lon="13.6831858"><ele>126.85714285714286</ele><time>2026-05-06T11:22:24.383Z</time></trkpt><trkpt lat="37.2709368" lon="13.6832062"><ele>126.14285714285714</ele><time>2026-05-06T11:22:25.381Z</time></trkpt><trkpt lat="37.2708724" lon="13.6832279"><ele>125.42857142857144</ele><time>2026-05-06T11:22:26.381Z</time></trkpt><trkpt lat="37.2708079" lon="13.6832486"><ele>124.71428571428572</ele><time>2026-05-06T11:22:27.383Z</time></trkpt><trkpt lat="37.270739" lon="13.6832648"><ele>124.0</ele><time>2026-05-06T11:22:28.381Z</time></trkpt><trkpt lat="37.2706724" lon="13.6832777"><ele>124.00000000000001</ele><time>2026-05-06T11:22:29.383Z</time></trkpt><trkpt lat="37.2706086" lon="13.6832756"><ele>124.0</ele><time>2026-05-06T11:22:30.382Z</time></trkpt><trkpt lat="37.2705326" lon="13.6832634"><ele>124.0</ele><time>2026-05-06T11:22:31.381Z</time></trkpt><trkpt lat="37.2704589" lon="13.6832491"><ele>124.0</ele><time>2026-05-06T11:22:32.382Z</time></trkpt><trkpt lat="37.2703775" lon="13.6832385"><ele>124.00000000000001</ele><time>2026-05-06T11:22:33.381Z</time></trkpt><trkpt lat="37.2702944" lon="13.6832303"><ele>124.0</ele><time>2026-05-06T11:22:34.381Z</time></trkpt><trkpt lat="37.2702149" lon="13.6832299"><ele>122.66666666666667</ele><time>2026-05-06T11:22:35.382Z</time></trkpt><trkpt lat="37.2701406" lon="13.6832454"><ele>121.33333333333334</ele><time>2026-05-06T11:22:36.382Z</time></trkpt><trkpt lat="37.2700616" lon="13.68326"><ele>120.0</ele><time>2026-05-06T11:22:37.381Z</time></trkpt><trkpt lat="37.2699872" lon="13.6832788"><ele>118.66666666666666</ele><time>2026-05-06T11:22:38.382Z</time></trkpt><trkpt lat="37.2699157" lon="13.6832951"><ele>117.33333333333333</ele><time>2026-05-06T11:22:39.382Z</time></trkpt><trkpt lat="37.269845" lon="13.6833086"><ele>116.0</ele><time>2026-05-06T11:22:40.382Z</time></trkpt><trkpt lat="37.2697686" lon="13.6833218"><ele>113.99999999999999</ele><time>2026-05-06T11:22:41.382Z</time></trkpt><trkpt lat="37.2696952" lon="13.683341"><ele>112.0</ele><time>2026-05-06T11:22:42.382Z</time></trkpt><trkpt lat="37.269622" lon="13.6833593"><ele>110.0</ele><time>2026-05-06T11:22:43.382Z</time></trkpt><trkpt lat="37.2695464" lon="13.6833703"><ele>108.0</ele><time>2026-05-06T11:22:44.381Z</time></trkpt><trkpt lat="37.2694672" lon="13.6833773"><ele>105.99999999999999</ele><time>2026-05-06T11:22:45.382Z</time></trkpt><trkpt lat="37.2693941" lon="13.6833844"><ele>104.0</ele><time>2026-05-06T11:22:46.382Z</time></trkpt><trkpt lat="37.2693183" lon="13.6833889"><ele>104.0</ele><time>2026-05-06T11:22:47.382Z</time></trkpt><trkpt lat="37.2692454" lon="13.6833955"><ele>104.0</ele><time>2026-05-06T11:22:48.382Z</time></trkpt><trkpt lat="37.2691744" lon="13.6834063"><ele>104.0</ele><time>2026-05-06T11:22:49.381Z</time></trkpt><trkpt lat="37.2691076" lon="13.683429"><ele>104.0</ele><time>2026-05-06T11:22:50.382Z</time></trkpt><trkpt lat="37.2690414" lon="13.6834476"><ele>104.0</ele><time>2026-05-06T11:22:51.381Z</time></trkpt><trkpt lat="37.2689749" lon="13.6834687"><ele>104.0</ele><time>2026-05-06T11:22:52.381Z</time></trkpt><trkpt lat="37.2689087" lon="13.6834926"><ele>104.0</ele><time>2026-05-06T11:22:53.382Z</time></trkpt><trkpt lat="37.268844" lon="13.6835216"><ele>102.85714285714285</ele><time>2026-05-06T11:22:54.381Z</time></trkpt><trkpt lat="37.2687764" lon="13.683549"><ele>101.71428571428572</ele><time>2026-05-06T11:22:55.381Z</time></trkpt><trkpt lat="37.2687082" lon="13.683573"><ele>100.57142857142857</ele><time>2026-05-06T11:22:56.382Z</time></trkpt><trkpt lat="37.2686399" lon="13.6835909"><ele>99.42857142857142</ele><time>2026-05-06T11:22:57.381Z</time></trkpt><trkpt lat="37.268573" lon="13.6835925"><ele>98.28571428571428</ele><time>2026-05-06T11:22:58.382Z</time></trkpt><trkpt lat="37.2685068" lon="13.6835813"><ele>97.14285714285714</ele><time>2026-05-06T11:22:59.382Z</time></trkpt><trkpt lat="37.2684453" lon="13.6835553"><ele>96.0</ele><time>2026-05-06T11:23:00.381Z</time></trkpt><trkpt lat="37.2683897" lon="13.6835154"><ele>95.99999999999999</ele><time>2026-05-06T11:23:01.383Z</time></trkpt><trkpt lat="37.2683411" lon="13.6834566"><ele>96.0</ele><time>2026-05-06T11:23:02.382Z</time></trkpt><trkpt lat="37.2682998" lon="13.6833965"><ele>96.0</ele><time>2026-05-06T11:23:03.381Z</time></trkpt><trkpt lat="37.2682476" lon="13.6833451"><ele>96.0</ele><time>2026-05-06T11:23:04.381Z</time></trkpt><trkpt lat="37.2681891" lon="13.6833018"><ele>96.0</ele><time>2026-05-06T11:23:05.381Z</time></trkpt><trkpt lat="37.2681213" lon="13.6832814"><ele>95.99999999999999</ele><time>2026-05-06T11:23:06.381Z</time></trkpt><trkpt lat="37.2680505" lon="13.6832811"><ele>96.0</ele><time>2026-05-06T11:23:07.382Z</time></trkpt><trkpt lat="37.2679798" lon="13.6833025"><ele>96.5</ele><time>2026-05-06T11:23:08.383Z</time></trkpt><trkpt lat="37.2679099" lon="13.6833273"><ele>97.0</ele><time>2026-05-06T11:23:09.381Z</time></trkpt><trkpt lat="37.2678278" lon="13.6833631"><ele>97.5</ele><time>2026-05-06T11:23:10.383Z</time></trkpt><trkpt lat="37.2677472" lon="13.6834036"><ele>98.0</ele><time>2026-05-06T11:23:11.381Z</time></trkpt><trkpt lat="37.2676752" lon="13.683433"><ele>98.5</ele><time>2026-05-06T11:23:12.382Z</time></trkpt><trkpt lat="37.2675761" lon="13.6834679"><ele>99.0</ele><time>2026-05-06T11:23:14.381Z</time></trkpt><trkpt lat="37.2675103" lon="13.6834835"><ele>99.0</ele><time>2026-05-06T11:24:16.382Z</time></trkpt><trkpt lat="37.267399" lon="13.6835437"><ele>99.0</ele><time>2026-05-06T11:24:18.382Z</time></trkpt><trkpt lat="37.2673261" lon="13.6835763"><ele>99.0</ele><time>2026-05-06T11:24:19.383Z</time></trkpt><trkpt lat="37.2672441" lon="13.6836146"><ele>99.0</ele><time>2026-05-06T11:24:20.382Z</time></trkpt><trkpt lat="37.2671507" lon="13.6836602"><ele>99.0</ele><time>2026-05-06T11:24:21.381Z</time></trkpt><trkpt lat="37.2670589" lon="13.6837093"><ele>100.6</ele><time>2026-05-06T11:24:22.383Z</time></trkpt><trkpt lat="37.2669547" lon="13.6837662"><ele>102.2</ele><time>2026-05-06T11:24:23.382Z</time></trkpt><trkpt lat="37.2668548" lon="13.6838297"><ele>103.79999999999998</ele><time>2026-05-06T11:24:24.383Z</time></trkpt><trkpt lat="37.2667653" lon="13.6838995"><ele>105.39999999999999</ele><time>2026-05-06T11:24:25.382Z</time></trkpt><trkpt lat="37.2666775" lon="13.6839737"><ele>107.0</ele><time>2026-05-06T11:24:26.383Z</time></trkpt><trkpt lat="37.2665974" lon="13.6840468"><ele>107.0</ele><time>2026-05-06T11:24:27.383Z</time></trkpt><trkpt lat="37.2665251" lon="13.6841155"><ele>106.99999999999999</ele><time>2026-05-06T11:24:28.382Z</time></trkpt><trkpt lat="37.2664486" lon="13.6841812"><ele>106.99999999999999</ele><time>2026-05-06T11:24:29.382Z</time></trkpt><trkpt lat="37.2663641" lon="13.684231"><ele>107.0</ele><time>2026-05-06T11:24:30.383Z</time></trkpt><trkpt lat="37.2662719" lon="13.684273"><ele>107.0</ele><time>2026-05-06T11:24:31.381Z</time></trkpt><trkpt lat="37.2661697" lon="13.6842943"><ele>108.6</ele><time>2026-05-06T11:24:32.381Z</time></trkpt><trkpt lat="37.2660769" lon="13.6842991"><ele>110.19999999999999</ele><time>2026-05-06T11:24:33.383Z</time></trkpt><trkpt lat="37.2659955" lon="13.6842713"><ele>111.8</ele><time>2026-05-06T11:24:34.381Z</time></trkpt><trkpt lat="37.2659052" lon="13.684233"><ele>113.4</ele><time>2026-05-06T11:24:35.382Z</time></trkpt><trkpt lat="37.2657998" lon="13.6841895"><ele>115.0</ele><time>2026-05-06T11:24:36.382Z</time></trkpt><trkpt lat="37.2656913" lon="13.684152"><ele>117.0</ele><time>2026-05-06T11:24:37.382Z</time></trkpt><trkpt lat="37.265599" lon="13.6841266"><ele>119.0</ele><time>2026-05-06T11:24:38.383Z</time></trkpt><trkpt lat="37.2655008" lon="13.684097"><ele>121.0</ele><time>2026-05-06T11:24:39.381Z</time></trkpt><trkpt lat="37.2653924" lon="13.6840598"><ele>123.0</ele><time>2026-05-06T11:24:40.381Z</time></trkpt><trkpt lat="37.2652889" lon="13.6840243"><ele>125.0</ele><time>2026-05-06T11:24:41.381Z</time></trkpt><trkpt lat="37.2651848" lon="13.6840059"><ele>125.0</ele><time>2026-05-06T11:24:42.381Z</time></trkpt><trkpt lat="37.2650908" lon="13.6840069"><ele>125.0</ele><time>2026-05-06T11:24:43.381Z</time></trkpt><trkpt lat="37.2649916" lon="13.6839921"><ele>125.0</ele><time>2026-05-06T11:24:44.382Z</time></trkpt><trkpt lat="37.2648833" lon="13.6839686"><ele>125.0</ele><time>2026-05-06T11:24:45.382Z</time></trkpt><trkpt lat="37.2647862" lon="13.6839347"><ele>125.0</ele><time>2026-05-06T11:24:46.382Z</time></trkpt><trkpt lat="37.2646834" lon="13.683887"><ele>127.8</ele><time>2026-05-06T11:24:47.383Z</time></trkpt><trkpt lat="37.2645843" lon="13.6838431"><ele>130.6</ele><time>2026-05-06T11:24:48.381Z</time></trkpt><trkpt lat="37.2644839" lon="13.6837928"><ele>133.4</ele><time>2026-05-06T11:24:49.382Z</time></trkpt><trkpt lat="37.2643908" lon="13.6837384"><ele>136.2</ele><time>2026-05-06T11:24:50.382Z</time></trkpt><trkpt lat="37.2642902" lon="13.6836889"><ele>139.0</ele><time>2026-05-06T11:24:51.382Z</time></trkpt><trkpt lat="37.2641781" lon="13.6836371"><ele>139.25</ele><time>2026-05-06T11:24:52.381Z</time></trkpt><trkpt lat="37.264063" lon="13.6835826"><ele>139.5</ele><time>2026-05-06T11:24:53.381Z</time></trkpt><trkpt lat="37.2639566" lon="13.6835188"><ele>139.75</ele><time>2026-05-06T11:24:54.382Z</time></trkpt><trkpt lat="37.2638553" lon="13.6834639"><ele>140.0</ele><time>2026-05-06T11:24:55.381Z</time></trkpt><trkpt lat="37.263754" lon="13.6834158"><ele>142.8</ele><time>2026-05-06T11:24:56.382Z</time></trkpt><trkpt lat="37.2636538" lon="13.6833942"><ele>145.6</ele><time>2026-05-06T11:24:57.381Z</time></trkpt><trkpt lat="37.2635512" lon="13.683407"><ele>148.4</ele><time>2026-05-06T11:24:58.381Z</time></trkpt><trkpt lat="37.2634568" lon="13.6834551"><ele>151.2</ele><time>2026-05-06T11:24:59.381Z</time></trkpt><trkpt lat="37.2633627" lon="13.6835276"><ele>154.0</ele><time>2026-05-06T11:25:00.381Z</time></trkpt><trkpt lat="37.2632723" lon="13.6835905"><ele>153.83333333333334</ele><time>2026-05-06T11:25:01.382Z</time></trkpt><trkpt lat="37.2631885" lon="13.6836206"><ele>153.66666666666669</ele><time>2026-05-06T11:25:02.381Z</time></trkpt><trkpt lat="37.2630992" lon="13.6836419"><ele>153.5</ele><time>2026-05-06T11:25:03.381Z</time></trkpt><trkpt lat="37.2630318" lon="13.6836114"><ele>153.33333333333334</ele><time>2026-05-06T11:25:04.381Z</time></trkpt><trkpt lat="37.262973" lon="13.6835523"><ele>153.16666666666666</ele><time>2026-05-06T11:25:05.381Z</time></trkpt><trkpt lat="37.2629241" lon="13.6834778"><ele>153.0</ele><time>2026-05-06T11:25:06.381Z</time></trkpt><trkpt lat="37.2628644" lon="13.6833971"><ele>156.33333333333334</ele><time>2026-05-06T11:25:07.382Z</time></trkpt><trkpt lat="37.2627989" lon="13.6833235"><ele>159.66666666666666</ele><time>2026-05-06T11:25:08.382Z</time></trkpt><trkpt lat="37.2627353" lon="13.6832743"><ele>163.0</ele><time>2026-05-06T11:25:09.382Z</time></trkpt><trkpt lat="37.2626689" lon="13.6832481"><ele>166.33333333333331</ele><time>2026-05-06T11:25:10.382Z</time></trkpt><trkpt lat="37.2626024" lon="13.6832566"><ele>169.66666666666666</ele><time>2026-05-06T11:25:11.383Z</time></trkpt><trkpt lat="37.2625165" lon="13.6833257"><ele>173.0</ele><time>2026-05-06T11:25:13.381Z</time></trkpt><trkpt lat="37.2624474" lon="13.6833929"><ele>173.0</ele><time>2026-05-06T11:25:15.381Z</time></trkpt><trkpt lat="37.2623575" lon="13.6834108"><ele>173.0</ele><time>2026-05-06T11:25:17.382Z</time></trkpt><trkpt lat="37.2622659" lon="13.6833537"><ele>173.0</ele><time>2026-05-06T11:25:19.381Z</time></trkpt><trkpt lat="37.2621856" lon="13.6833053"><ele>173.0</ele><time>2026-05-06T11:25:21.382Z</time></trkpt><trkpt lat="37.2620955" lon="13.6833066"><ele>173.0</ele><time>2026-05-06T11:25:23.381Z</time></trkpt><trkpt lat="37.2619543" lon="13.6833798"><ele>176.0</ele><time>2026-05-06T11:25:25.381Z</time></trkpt><trkpt lat="37.2618538" lon="13.6834195"><ele>179.0</ele><time>2026-05-06T11:25:26.381Z</time></trkpt><trkpt lat="37.2617493" lon="13.6834672"><ele>182.0</ele><time>2026-05-06T11:25:27.381Z</time></trkpt><trkpt lat="37.261635" lon="13.6835145"><ele>185.0</ele><time>2026-05-06T11:25:28.381Z</time></trkpt><trkpt lat="37.2615533" lon="13.6835514"><ele>188.0</ele><time>2026-05-06T11:25:29.381Z</time></trkpt><trkpt lat="37.2614683" lon="13.6835681"><ele>190.25</ele><time>2026-05-06T11:25:30.382Z</time></trkpt><trkpt lat="37.2613751" lon="13.6835553"><ele>192.5</ele><time>2026-05-06T11:25:31.381Z</time></trkpt><trkpt lat="37.2612628" lon="13.6835187"><ele>194.75</ele><time>2026-05-06T11:25:32.382Z</time></trkpt><trkpt lat="37.2611396" lon="13.6834807"><ele>197.0</ele><time>2026-05-06T11:25:33.381Z</time></trkpt><trkpt lat="37.2609999" lon="13.6834323"><ele>197.0</ele><time>2026-05-06T11:25:34.382Z</time></trkpt><trkpt lat="37.260845" lon="13.6833841"><ele>197.0</ele><time>2026-05-06T11:25:35.382Z</time></trkpt><trkpt lat="37.2606819" lon="13.6833397"><ele>197.0</ele><time>2026-05-06T11:25:36.382Z</time></trkpt><trkpt lat="37.2605199" lon="13.6833024"><ele>197.5</ele><time>2026-05-06T11:25:37.381Z</time></trkpt><trkpt lat="37.2603622" lon="13.6832744"><ele>198.0</ele><time>2026-05-06T11:25:38.382Z</time></trkpt><trkpt lat="37.2602306" lon="13.6832597"><ele>198.5</ele><time>2026-05-06T11:25:39.381Z</time></trkpt><trkpt lat="37.2601012" lon="13.6832409"><ele>199.0</ele><time>2026-05-06T11:25:40.381Z</time></trkpt><trkpt lat="37.2599823" lon="13.6832225"><ele>199.0</ele><time>2026-05-06T11:25:41.382Z</time></trkpt><trkpt lat="37.2598705" lon="13.6832098"><ele>199.0</ele><time>2026-05-06T11:25:42.382Z</time></trkpt><trkpt lat="37.2597601" lon="13.6831987"><ele>199.0</ele><time>2026-05-06T11:25:43.382Z</time></trkpt><trkpt lat="37.2596499" lon="13.6831873"><ele>199.0</ele><time>2026-05-06T11:25:44.381Z</time></trkpt><trkpt lat="37.2595359" lon="13.6831754"><ele>199.0</ele><time>2026-05-06T11:25:45.381Z</time></trkpt><trkpt lat="37.2594234" lon="13.6831669"><ele>198.39999999999998</ele><time>2026-05-06T11:25:46.381Z</time></trkpt><trkpt lat="37.2593127" lon="13.683171"><ele>197.8</ele><time>2026-05-06T11:25:47.381Z</time></trkpt><trkpt lat="37.2592047" lon="13.6831837"><ele>197.2</ele><time>2026-05-06T11:25:48.382Z</time></trkpt><trkpt lat="37.2590994" lon="13.6831961"><ele>196.60000000000002</ele><time>2026-05-06T11:25:49.382Z</time></trkpt><trkpt lat="37.2589985" lon="13.6832071"><ele>196.0</ele><time>2026-05-06T11:25:50.382Z</time></trkpt><trkpt lat="37.2588898" lon="13.6832155"><ele>195.0</ele><time>2026-05-06T11:25:51.381Z</time></trkpt><trkpt lat="37.2587857" lon="13.6832255"><ele>194.0</ele><time>2026-05-06T11:25:52.381Z</time></trkpt><trkpt lat="37.2586788" lon="13.683236"><ele>193.0</ele><time>2026-05-06T11:25:53.381Z</time></trkpt><trkpt lat="37.2585709" lon="13.6832527"><ele>192.0</ele><time>2026-05-06T11:25:54.382Z</time></trkpt><trkpt lat="37.2584661" lon="13.6832708"><ele>191.0</ele><time>2026-05-06T11:25:55.382Z</time></trkpt><trkpt lat="37.2583652" lon="13.6832905"><ele>191.0</ele><time>2026-05-06T11:25:56.381Z</time></trkpt><trkpt lat="37.2582732" lon="13.6833197"><ele>191.0</ele><time>2026-05-06T11:25:57.382Z</time></trkpt><trkpt lat="37.2581855" lon="13.6833719"><ele>191.0</ele><time>2026-05-06T11:25:58.384Z</time></trkpt><trkpt lat="37.2581022" lon="13.6834222"><ele>191.0</ele><time>2026-05-06T11:25:59.381Z</time></trkpt><trkpt lat="37.2580131" lon="13.6834716"><ele>191.0</ele><time>2026-05-06T11:26:00.382Z</time></trkpt><trkpt lat="37.2579256" lon="13.6835117"><ele>189.66666666666666</ele><time>2026-05-06T11:26:01.381Z</time></trkpt><trkpt lat="37.2578356" lon="13.6835359"><ele>188.33333333333331</ele><time>2026-05-06T11:26:02.381Z</time></trkpt><trkpt lat="37.2577438" lon="13.6835434"><ele>187.0</ele><time>2026-05-06T11:26:03.381Z</time></trkpt><trkpt lat="37.2576576" lon="13.6835455"><ele>185.66666666666666</ele><time>2026-05-06T11:26:04.381Z</time></trkpt><trkpt lat="37.2575669" lon="13.6835429"><ele>184.33333333333334</ele><time>2026-05-06T11:26:05.381Z</time></trkpt><trkpt lat="37.2574813" lon="13.6835319"><ele>183.0</ele><time>2026-05-06T11:26:06.383Z</time></trkpt><trkpt lat="37.257395" lon="13.683522"><ele>183.0</ele><time>2026-05-06T11:26:07.381Z</time></trkpt><trkpt lat="37.2573126" lon="13.6835183"><ele>183.0</ele><time>2026-05-06T11:26:08.382Z</time></trkpt><trkpt lat="37.2572392" lon="13.6835208"><ele>183.0</ele><time>2026-05-06T11:26:09.381Z</time></trkpt><trkpt lat="37.257165" lon="13.6835174"><ele>183.0</ele><time>2026-05-06T11:26:10.381Z</time></trkpt><trkpt lat="37.2570941" lon="13.6835146"><ele>183.0</ele><time>2026-05-06T11:26:11.381Z</time></trkpt><trkpt lat="37.2570267" lon="13.6835036"><ele>183.0</ele><time>2026-05-06T11:26:12.382Z</time></trkpt><trkpt lat="37.2569572" lon="13.6835"><ele>183.0</ele><time>2026-05-06T11:26:13.382Z</time></trkpt><trkpt lat="37.2568891" lon="13.6834971"><ele>182.5</ele><time>2026-05-06T11:26:14.381Z</time></trkpt><trkpt lat="37.2567678" lon="13.6834913"><ele>182.0</ele><time>2026-05-06T11:26:16.381Z</time></trkpt><trkpt lat="37.2567027" lon="13.6834821"><ele>181.5</ele><time>2026-05-06T11:26:17.381Z</time></trkpt><trkpt lat="37.2565891" lon="13.6834875"><ele>181.0</ele><time>2026-05-06T11:26:19.383Z</time></trkpt><trkpt lat="37.2565214" lon="13.6834913"><ele>180.5</ele><time>2026-05-06T11:26:20.381Z</time></trkpt><trkpt lat="37.2564552" lon="13.6834875"><ele>180.0</ele><time>2026-05-06T11:26:21.382Z</time></trkpt><trkpt lat="37.2563909" lon="13.6834928"><ele>180.0</ele><time>2026-05-06T11:26:22.382Z</time></trkpt><trkpt lat="37.2562683" lon="13.6835146"><ele>180.0</ele><time>2026-05-06T11:26:24.381Z</time></trkpt><trkpt lat="37.2561639" lon="13.6835106"><ele>180.0</ele><time>2026-05-06T11:26:26.382Z</time></trkpt><trkpt lat="37.2560696" lon="13.683484"><ele>180.0</ele><time>2026-05-06T11:26:28.384Z</time></trkpt><trkpt lat="37.2559674" lon="13.6834373"><ele>180.0</ele><time>2026-05-06T11:26:30.382Z</time></trkpt><trkpt lat="37.2558972" lon="13.6834093"><ele>180.0</ele><time>2026-05-06T11:26:31.381Z</time></trkpt><trkpt lat="37.2558062" lon="13.6833713"><ele>180.0</ele><time>2026-05-06T11:26:32.383Z</time></trkpt><trkpt lat="37.2557169" lon="13.6833332"><ele>180.0</ele><time>2026-05-06T11:26:33.382Z</time></trkpt><trkpt lat="37.2556352" lon="13.6832998"><ele>180.0</ele><time>2026-05-06T11:26:34.381Z</time></trkpt><trkpt lat="37.2555539" lon="13.6832718"><ele>180.0</ele><time>2026-05-06T11:26:35.382Z</time></trkpt><trkpt lat="37.2554691" lon="13.6832516"><ele>180.0</ele><time>2026-05-06T11:26:36.381Z</time></trkpt><trkpt lat="37.255384" lon="13.6832508"><ele>179.4</ele><time>2026-05-06T11:26:37.381Z</time></trkpt><trkpt lat="37.2552991" lon="13.6832604"><ele>178.8</ele><time>2026-05-06T11:26:38.383Z</time></trkpt><trkpt lat="37.2552102" lon="13.6832911"><ele>178.2</ele><time>2026-05-06T11:26:39.381Z</time></trkpt><trkpt lat="37.2551165" lon="13.6833372"><ele>177.6</ele><time>2026-05-06T11:26:40.382Z</time></trkpt><trkpt lat="37.2550231" lon="13.6833855"><ele>177.0</ele><time>2026-05-06T11:26:41.381Z</time></trkpt><trkpt lat="37.2549302" lon="13.6834254"><ele>177.0</ele><time>2026-05-06T11:26:42.382Z</time></trkpt><trkpt lat="37.2548393" lon="13.6834699"><ele>177.0</ele><time>2026-05-06T11:26:43.381Z</time></trkpt><trkpt lat="37.2547472" lon="13.6835082"><ele>177.0</ele><time>2026-05-06T11:26:44.381Z</time></trkpt><trkpt lat="37.2546554" lon="13.6835431"><ele>177.0</ele><time>2026-05-06T11:26:45.381Z</time></trkpt><trkpt lat="37.2545649" lon="13.6835766"><ele>177.0</ele><time>2026-05-06T11:26:46.381Z</time></trkpt><trkpt lat="37.2544708" lon="13.6836109"><ele>176.39999999999998</ele><time>2026-05-06T11:26:47.382Z</time></trkpt><trkpt lat="37.2543761" lon="13.6836448"><ele>175.79999999999998</ele><time>2026-05-06T11:26:48.381Z</time></trkpt><trkpt lat="37.2542835" lon="13.6836822"><ele>175.2</ele><time>2026-05-06T11:26:49.381Z</time></trkpt><trkpt lat="37.2541884" lon="13.6837167"><ele>174.6</ele><time>2026-05-06T11:26:50.381Z</time></trkpt><trkpt lat="37.2540912" lon="13.6837547"><ele>174.0</ele><time>2026-05-06T11:26:51.381Z</time></trkpt><trkpt lat="37.2540033" lon="13.6838213"><ele>171.2</ele><time>2026-05-06T11:26:52.381Z</time></trkpt><trkpt lat="37.253922" lon="13.6839026"><ele>168.39999999999998</ele><time>2026-05-06T11:26:53.382Z</time></trkpt><trkpt lat="37.2538481" lon="13.6840034"><ele>165.6</ele><time>2026-05-06T11:26:54.381Z</time></trkpt><trkpt lat="37.2537873" lon="13.6841161"><ele>162.8</ele><time>2026-05-06T11:26:55.383Z</time></trkpt><trkpt lat="37.2537283" lon="13.6842342"><ele>160.0</ele><time>2026-05-06T11:26:56.382Z</time></trkpt><trkpt lat="37.2536642" lon="13.6843551"><ele>159.25</ele><time>2026-05-06T11:26:57.381Z</time></trkpt><trkpt lat="37.2536015" lon="13.6844798"><ele>158.5</ele><time>2026-05-06T11:26:58.382Z</time></trkpt><trkpt lat="37.253536" lon="13.684605"><ele>157.75</ele><time>2026-05-06T11:26:59.382Z</time></trkpt><trkpt lat="37.2534676" lon="13.684731"><ele>157.0</ele><time>2026-05-06T11:27:00.382Z</time></trkpt><trkpt lat="37.2533971" lon="13.684852"><ele>157.0</ele><time>2026-05-06T11:27:01.381Z</time></trkpt><trkpt lat="37.2533257" lon="13.6849744"><ele>157.0</ele><time>2026-05-06T11:27:02.381Z</time></trkpt><trkpt lat="37.2532536" lon="13.6850969"><ele>157.0</ele><time>2026-05-06T11:27:03.381Z</time></trkpt><trkpt lat="37.2531786" lon="13.6852091"><ele>157.0</ele><time>2026-05-06T11:27:04.381Z</time></trkpt><trkpt lat="37.2531095" lon="13.6853089"><ele>156.2</ele><time>2026-05-06T11:27:05.381Z</time></trkpt><trkpt lat="37.2530101" lon="13.6853654"><ele>155.39999999999998</ele><time>2026-05-06T11:27:06.381Z</time></trkpt><trkpt lat="37.2529122" lon="13.6854052"><ele>154.60000000000002</ele><time>2026-05-06T11:27:07.381Z</time></trkpt><trkpt lat="37.2528121" lon="13.6854327"><ele>153.8</ele><time>2026-05-06T11:27:08.381Z</time></trkpt><trkpt lat="37.2527179" lon="13.6854524"><ele>153.0</ele><time>2026-05-06T11:27:09.381Z</time></trkpt><trkpt lat="37.2526155" lon="13.6854708"><ele>153.0</ele><time>2026-05-06T11:27:10.381Z</time></trkpt><trkpt lat="37.2525223" lon="13.6854888"><ele>153.0</ele><time>2026-05-06T11:27:11.383Z</time></trkpt><trkpt lat="37.2524285" lon="13.6855023"><ele>153.0</ele><time>2026-05-06T11:27:12.382Z</time></trkpt><trkpt lat="37.2523379" lon="13.685524"><ele>153.0</ele><time>2026-05-06T11:27:13.381Z</time></trkpt><trkpt lat="37.2522462" lon="13.6855436"><ele>153.0</ele><time>2026-05-06T11:27:14.381Z</time></trkpt><trkpt lat="37.2521567" lon="13.6855626"><ele>151.66666666666666</ele><time>2026-05-06T11:27:15.381Z</time></trkpt><trkpt lat="37.2520715" lon="13.6855823"><ele>150.33333333333334</ele><time>2026-05-06T11:27:16.381Z</time></trkpt><trkpt lat="37.2519908" lon="13.685616"><ele>149.0</ele><time>2026-05-06T11:27:17.381Z</time></trkpt><trkpt lat="37.2519156" lon="13.6856557"><ele>147.66666666666669</ele><time>2026-05-06T11:27:18.381Z</time></trkpt><trkpt lat="37.2518417" lon="13.6857064"><ele>146.33333333333334</ele><time>2026-05-06T11:27:19.381Z</time></trkpt><trkpt lat="37.2517783" lon="13.6857766"><ele>145.0</ele><time>2026-05-06T11:27:20.381Z</time></trkpt><trkpt lat="37.251726" lon="13.6858567"><ele>145.0</ele><time>2026-05-06T11:27:21.381Z</time></trkpt><trkpt lat="37.2516693" lon="13.6859365"><ele>145.0</ele><time>2026-05-06T11:27:22.381Z</time></trkpt><trkpt lat="37.2516068" lon="13.6860145"><ele>145.0</ele><time>2026-05-06T11:27:23.381Z</time></trkpt><trkpt lat="37.2515434" lon="13.6860933"><ele>145.0</ele><time>2026-05-06T11:27:24.382Z</time></trkpt><trkpt lat="37.2514784" lon="13.6861682"><ele>145.0</ele><time>2026-05-06T11:27:25.382Z</time></trkpt><trkpt lat="37.2514009" lon="13.6862395"><ele>145.0</ele><time>2026-05-06T11:27:26.381Z</time></trkpt><trkpt lat="37.251317" lon="13.6862906"><ele>141.6</ele><time>2026-05-06T11:27:27.381Z</time></trkpt><trkpt lat="37.251223" lon="13.686336"><ele>138.2</ele><time>2026-05-06T11:27:28.381Z</time></trkpt><trkpt lat="37.2511246" lon="13.6863725"><ele>134.8</ele><time>2026-05-06T11:27:29.382Z</time></trkpt><trkpt lat="37.2510281" lon="13.6864028"><ele>131.4</ele><time>2026-05-06T11:27:30.382Z</time></trkpt><trkpt lat="37.2509348" lon="13.6864389"><ele>128.0</ele><time>2026-05-06T11:27:31.381Z</time></trkpt><trkpt lat="37.2508452" lon="13.6864916"><ele>128.0</ele><time>2026-05-06T11:27:32.381Z</time></trkpt><trkpt lat="37.2507586" lon="13.6865614"><ele>128.0</ele><time>2026-05-06T11:27:33.382Z</time></trkpt><trkpt lat="37.2506825" lon="13.6866552"><ele>128.0</ele><time>2026-05-06T11:27:34.381Z</time></trkpt><trkpt lat="37.2506049" lon="13.6867587"><ele>128.0</ele><time>2026-05-06T11:27:35.382Z</time></trkpt><trkpt lat="37.250528" lon="13.6868795"><ele>128.0</ele><time>2026-05-06T11:27:36.381Z</time></trkpt><trkpt lat="37.2504538" lon="13.687005"><ele>122.75</ele><time>2026-05-06T11:27:37.381Z</time></trkpt><trkpt lat="37.2503679" lon="13.68714"><ele>117.5</ele><time>2026-05-06T11:27:38.381Z</time></trkpt><trkpt lat="37.2502813" lon="13.6872817"><ele>112.25</ele><time>2026-05-06T11:27:39.382Z</time></trkpt><trkpt lat="37.2501946" lon="13.6874251"><ele>107.0</ele><time>2026-05-06T11:27:40.382Z</time></trkpt><trkpt lat="37.2501008" lon="13.68757"><ele>107.0</ele><time>2026-05-06T11:27:41.381Z</time></trkpt><trkpt lat="37.2500075" lon="13.6877121"><ele>107.0</ele><time>2026-05-06T11:27:42.381Z</time></trkpt><trkpt lat="37.2499068" lon="13.6878543"><ele>107.0</ele><time>2026-05-06T11:27:43.381Z</time></trkpt><trkpt lat="37.2498006" lon="13.6879793"><ele>107.0</ele><time>2026-05-06T11:27:44.381Z</time></trkpt><trkpt lat="37.2496953" lon="13.6880843"><ele>105.8</ele><time>2026-05-06T11:27:45.381Z</time></trkpt><trkpt lat="37.249596" lon="13.6881678"><ele>104.6</ele><time>2026-05-06T11:27:46.381Z</time></trkpt><trkpt lat="37.2495137" lon="13.6882314"><ele>103.39999999999999</ele><time>2026-05-06T11:27:47.381Z</time></trkpt><trkpt lat="37.249443" lon="13.6882879"><ele>102.19999999999999</ele><time>2026-05-06T11:27:48.381Z</time></trkpt><trkpt lat="37.2493686" lon="13.688341"><ele>101.0</ele><time>2026-05-06T11:27:49.381Z</time></trkpt><trkpt lat="37.2492994" lon="13.6883918"><ele>100.99999999999999</ele><time>2026-05-06T11:27:50.381Z</time></trkpt><trkpt lat="37.2492434" lon="13.6884537"><ele>101.0</ele><time>2026-05-06T11:27:51.381Z</time></trkpt><trkpt lat="37.2491825" lon="13.6885153"><ele>101.0</ele><time>2026-05-06T11:27:52.381Z</time></trkpt><trkpt lat="37.2491288" lon="13.6885741"><ele>101.0</ele><time>2026-05-06T11:27:53.381Z</time></trkpt><trkpt lat="37.2490751" lon="13.6886259"><ele>100.99999999999999</ele><time>2026-05-06T11:27:54.381Z</time></trkpt><trkpt lat="37.2490268" lon="13.6886798"><ele>101.0</ele><time>2026-05-06T11:27:55.381Z</time></trkpt><trkpt lat="37.2489314" lon="13.6887779"><ele>100.16666666666666</ele><time>2026-05-06T11:27:57.381Z</time></trkpt><trkpt lat="37.2488576" lon="13.6888424"><ele>99.33333333333333</ele><time>2026-05-06T11:27:59.381Z</time></trkpt><trkpt lat="37.2487987" lon="13.6888754"><ele>98.5</ele><time>2026-05-06T11:28:11.381Z</time></trkpt><trkpt lat="37.248746" lon="13.6888306"><ele>97.66666666666666</ele><time>2026-05-06T11:28:14.381Z</time></trkpt><trkpt lat="37.2486956" lon="13.6887036"><ele>96.83333333333333</ele><time>2026-05-06T11:28:16.381Z</time></trkpt><trkpt lat="37.2486678" lon="13.6885961"><ele>96.0</ele><time>2026-05-06T11:28:17.382Z</time></trkpt><trkpt lat="37.2486312" lon="13.6884561"><ele>96.0</ele><time>2026-05-06T11:28:18.382Z</time></trkpt><trkpt lat="37.2485732" lon="13.688278"><ele>96.0</ele><time>2026-05-06T11:28:19.381Z</time></trkpt><trkpt lat="37.2485139" lon="13.6880905"><ele>96.0</ele><time>2026-05-06T11:28:20.381Z</time></trkpt><trkpt lat="37.2484539" lon="13.6878877"><ele>95.33333333333333</ele><time>2026-05-06T11:28:21.381Z</time></trkpt><trkpt lat="37.2483833" lon="13.6876609"><ele>94.66666666666666</ele><time>2026-05-06T11:28:22.381Z</time></trkpt><trkpt lat="37.24831" lon="13.6874203"><ele>94.0</ele><time>2026-05-06T11:28:23.381Z</time></trkpt><trkpt lat="37.2482352" lon="13.6871704"><ele>93.33333333333333</ele><time>2026-05-06T11:28:24.381Z</time></trkpt><trkpt lat="37.2481605" lon="13.6869063"><ele>92.66666666666667</ele><time>2026-05-06T11:28:25.381Z</time></trkpt><trkpt lat="37.2481072" lon="13.686652"><ele>92.0</ele><time>2026-05-06T11:28:26.381Z</time></trkpt><trkpt lat="37.248063" lon="13.6863937"><ele>90.66666666666667</ele><time>2026-05-06T11:28:27.382Z</time></trkpt><trkpt lat="37.2480338" lon="13.6861307"><ele>89.33333333333333</ele><time>2026-05-06T11:28:28.382Z</time></trkpt><trkpt lat="37.2480064" lon="13.6858651"><ele>88.0</ele><time>2026-05-06T11:28:29.382Z</time></trkpt><trkpt lat="37.2479928" lon="13.685599"><ele>88.0</ele><time>2026-05-06T11:28:30.381Z</time></trkpt><trkpt lat="37.2479895" lon="13.6853332"><ele>88.0</ele><time>2026-05-06T11:28:31.381Z</time></trkpt><trkpt lat="37.2479975" lon="13.6850699"><ele>88.0</ele><time>2026-05-06T11:28:32.381Z</time></trkpt><trkpt lat="37.2480202" lon="13.6848043"><ele>87.33333333333333</ele><time>2026-05-06T11:28:33.381Z</time></trkpt><trkpt lat="37.2480579" lon="13.684532"><ele>86.66666666666667</ele><time>2026-05-06T11:28:34.382Z</time></trkpt><trkpt lat="37.2481069" lon="13.6842536"><ele>86.0</ele><time>2026-05-06T11:28:35.381Z</time></trkpt><trkpt lat="37.2481655" lon="13.6839734"><ele>87.5</ele><time>2026-05-06T11:28:36.382Z</time></trkpt><trkpt lat="37.2482337" lon="13.6836856"><ele>89.0</ele><time>2026-05-06T11:28:37.382Z</time></trkpt><trkpt lat="37.2483071" lon="13.6833939"><ele>89.0</ele><time>2026-05-06T11:28:38.38Z</time></trkpt><trkpt lat="37.2483822" lon="13.6831169"><ele>89.0</ele><time>2026-05-06T11:28:39.381Z</time></trkpt><trkpt lat="37.2484634" lon="13.6828587"><ele>88.66666666666667</ele><time>2026-05-06T11:28:40.381Z</time></trkpt><trkpt lat="37.2485535" lon="13.6826278"><ele>88.33333333333333</ele><time>2026-05-06T11:28:41.381Z</time></trkpt><trkpt lat="37.2486418" lon="13.682425"><ele>88.0</ele><time>2026-05-06T11:28:42.381Z</time></trkpt><trkpt lat="37.2487031" lon="13.6822075"><ele>88.0</ele><time>2026-05-06T11:28:43.381Z</time></trkpt><trkpt lat="37.2487666" lon="13.6819897"><ele>88.0</ele><time>2026-05-06T11:28:44.381Z</time></trkpt><trkpt lat="37.2488026" lon="13.6817497"><ele>88.0</ele><time>2026-05-06T11:28:45.381Z</time></trkpt><trkpt lat="37.2488234" lon="13.6814998"><ele>86.66666666666666</ele><time>2026-05-06T11:28:46.382Z</time></trkpt><trkpt lat="37.2488281" lon="13.6812496"><ele>85.33333333333333</ele><time>2026-05-06T11:28:47.382Z</time></trkpt><trkpt lat="37.2488097" lon="13.6810133"><ele>84.0</ele><time>2026-05-06T11:28:48.382Z</time></trkpt><trkpt lat="37.2487674" lon="13.6807781"><ele>83.0</ele><time>2026-05-06T11:28:49.381Z</time></trkpt><trkpt lat="37.2487045" lon="13.6805517"><ele>82.0</ele><time>2026-05-06T11:28:50.381Z</time></trkpt><trkpt lat="37.2486341" lon="13.6803349"><ele>81.0</ele><time>2026-05-06T11:28:51.382Z</time></trkpt><trkpt lat="37.2485356" lon="13.6801174"><ele>80.33333333333333</ele><time>2026-05-06T11:28:52.381Z</time></trkpt><trkpt lat="37.2484205" lon="13.6799064"><ele>79.66666666666666</ele><time>2026-05-06T11:28:53.382Z</time></trkpt><trkpt lat="37.248285" lon="13.6796873"><ele>79.0</ele><time>2026-05-06T11:28:54.381Z</time></trkpt><trkpt lat="37.248137" lon="13.6794723"><ele>78.0</ele><time>2026-05-06T11:28:55.383Z</time></trkpt><trkpt lat="37.2479827" lon="13.6792522"><ele>77.0</ele><time>2026-05-06T11:28:56.381Z</time></trkpt><trkpt lat="37.2478264" lon="13.6790247"><ele>77.0</ele><time>2026-05-06T11:28:57.381Z</time></trkpt><trkpt lat="37.2476685" lon="13.6787983"><ele>77.0</ele><time>2026-05-06T11:28:58.381Z</time></trkpt><trkpt lat="37.2475007" lon="13.6785657"><ele>76.0</ele><time>2026-05-06T11:28:59.382Z</time></trkpt><trkpt lat="37.2473341" lon="13.6783312"><ele>75.0</ele><time>2026-05-06T11:29:00.382Z</time></trkpt><trkpt lat="37.247165" lon="13.6780913"><ele>74.5</ele><time>2026-05-06T11:29:01.383Z</time></trkpt><trkpt lat="37.246999" lon="13.6778511"><ele>74.0</ele><time>2026-05-06T11:29:02.381Z</time></trkpt><trkpt lat="37.2468304" lon="13.6776101"><ele>73.0</ele><time>2026-05-06T11:29:03.381Z</time></trkpt><trkpt lat="37.2466597" lon="13.677368"><ele>72.0</ele><time>2026-05-06T11:29:04.381Z</time></trkpt><trkpt lat="37.2464914" lon="13.677125"><ele>72.5</ele><time>2026-05-06T11:29:05.38Z</time></trkpt><trkpt lat="37.2463213" lon="13.6768782"><ele>73.0</ele><time>2026-05-06T11:29:06.381Z</time></trkpt><trkpt lat="37.2461514" lon="13.6766281"><ele>73.0</ele><time>2026-05-06T11:29:07.381Z</time></trkpt><trkpt lat="37.2459843" lon="13.6763788"><ele>73.0</ele><time>2026-05-06T11:29:08.381Z</time></trkpt><trkpt lat="37.2458126" lon="13.6761347"><ele>72.0</ele><time>2026-05-06T11:29:09.381Z</time></trkpt><trkpt lat="37.2456384" lon="13.6758859"><ele>71.0</ele><time>2026-05-06T11:29:10.382Z</time></trkpt><trkpt lat="37.2454744" lon="13.675656"><ele>71.0</ele><time>2026-05-06T11:29:11.381Z</time></trkpt><trkpt lat="37.2453205" lon="13.6754414"><ele>71.0</ele><time>2026-05-06T11:29:12.381Z</time></trkpt><trkpt lat="37.2451834" lon="13.6752411"><ele>71.0</ele><time>2026-05-06T11:29:13.381Z</time></trkpt><trkpt lat="37.2450551" lon="13.6750503"><ele>70.33333333333334</ele><time>2026-05-06T11:29:14.382Z</time></trkpt><trkpt lat="37.2449344" lon="13.6748713"><ele>69.66666666666667</ele><time>2026-05-06T11:29:15.382Z</time></trkpt><trkpt lat="37.244813" lon="13.6747007"><ele>69.0</ele><time>2026-05-06T11:29:16.383Z</time></trkpt><trkpt lat="37.2446956" lon="13.6745346"><ele>68.0</ele><time>2026-05-06T11:29:17.381Z</time></trkpt><trkpt lat="37.2445757" lon="13.6743633"><ele>67.0</ele><time>2026-05-06T11:29:18.381Z</time></trkpt><trkpt lat="37.2444568" lon="13.6741954"><ele>66.0</ele><time>2026-05-06T11:29:19.381Z</time></trkpt><trkpt lat="37.2443367" lon="13.6740278"><ele>66.0</ele><time>2026-05-06T11:29:20.382Z</time></trkpt><trkpt lat="37.2442225" lon="13.6738602"><ele>66.0</ele><time>2026-05-06T11:29:21.381Z</time></trkpt><trkpt lat="37.2440989" lon="13.6736858"><ele>66.0</ele><time>2026-05-06T11:29:22.382Z</time></trkpt><trkpt lat="37.2439741" lon="13.6735117"><ele>64.0</ele><time>2026-05-06T11:29:23.382Z</time></trkpt><trkpt lat="37.2438629" lon="13.6733493"><ele>62.0</ele><time>2026-05-06T11:29:24.38Z</time></trkpt><trkpt lat="37.2437559" lon="13.6731946"><ele>60.0</ele><time>2026-05-06T11:29:25.381Z</time></trkpt><trkpt lat="37.2436564" lon="13.6730477"><ele>60.0</ele><time>2026-05-06T11:29:26.381Z</time></trkpt><trkpt lat="37.2435671" lon="13.672918"><ele>60.0</ele><time>2026-05-06T11:29:27.381Z</time></trkpt><trkpt lat="37.2434904" lon="13.6728016"><ele>60.0</ele><time>2026-05-06T11:29:28.381Z</time></trkpt><trkpt lat="37.2434183" lon="13.6726992"><ele>60.0</ele><time>2026-05-06T11:29:29.382Z</time></trkpt><trkpt lat="37.243358" lon="13.6726075"><ele>60.0</ele><time>2026-05-06T11:29:30.381Z</time></trkpt><trkpt lat="37.2433048" lon="13.6725222"><ele>60.0</ele><time>2026-05-06T11:29:31.38Z</time></trkpt><trkpt lat="37.2432607" lon="13.6724487"><ele>60.0</ele><time>2026-05-06T11:29:32.381Z</time></trkpt><trkpt lat="37.2432138" lon="13.6723658"><ele>60.0</ele><time>2026-05-06T11:29:34.381Z</time></trkpt><trkpt lat="37.2431126" lon="13.6723225"><ele>60.0</ele><time>2026-05-06T11:29:37.38Z</time></trkpt><trkpt lat="37.2430259" lon="13.6723398"><ele>60.0</ele><time>2026-05-06T11:29:38.381Z</time></trkpt><trkpt lat="37.2429225" lon="13.6723877"><ele>59.33333333333333</ele><time>2026-05-06T11:29:39.381Z</time></trkpt><trkpt lat="37.2428075" lon="13.6724751"><ele>58.666666666666664</ele><time>2026-05-06T11:29:40.381Z</time></trkpt><trkpt lat="37.242681" lon="13.672583"><ele>58.0</ele><time>2026-05-06T11:29:41.381Z</time></trkpt><trkpt lat="37.2425366" lon="13.6726958"><ele>58.25</ele><time>2026-05-06T11:29:42.382Z</time></trkpt><trkpt lat="37.242401" lon="13.6728013"><ele>58.5</ele><time>2026-05-06T11:29:43.381Z</time></trkpt><trkpt lat="37.2422808" lon="13.6729024"><ele>58.75</ele><time>2026-05-06T11:29:44.381Z</time></trkpt><trkpt lat="37.2421623" lon="13.6729933"><ele>59.0</ele><time>2026-05-06T11:29:45.382Z</time></trkpt><trkpt lat="37.2420558" lon="13.6730761"><ele>59.833333333333336</ele><time>2026-05-06T11:29:46.381Z</time></trkpt><trkpt lat="37.2419797" lon="13.6731409"><ele>60.66666666666667</ele><time>2026-05-06T11:29:47.38Z</time></trkpt><trkpt lat="37.241903" lon="13.6731909"><ele>61.5</ele><time>2026-05-06T11:29:48.381Z</time></trkpt><trkpt lat="37.2418275" lon="13.6732152"><ele>62.33333333333333</ele><time>2026-05-06T11:29:49.381Z</time></trkpt><trkpt lat="37.2417527" lon="13.6732019"><ele>63.166666666666664</ele><time>2026-05-06T11:29:50.382Z</time></trkpt><trkpt lat="37.241672" lon="13.6731483"><ele>64.0</ele><time>2026-05-06T11:29:51.382Z</time></trkpt><trkpt lat="37.2415865" lon="13.6730862"><ele>64.0</ele><time>2026-05-06T11:29:52.38Z</time></trkpt><trkpt lat="37.2414831" lon="13.6730201"><ele>64.0</ele><time>2026-05-06T11:29:53.381Z</time></trkpt><trkpt lat="37.2413589" lon="13.6729467"><ele>64.0</ele><time>2026-05-06T11:29:54.381Z</time></trkpt><trkpt lat="37.2412277" lon="13.6728794"><ele>64.0</ele><time>2026-05-06T11:29:55.381Z</time></trkpt><trkpt lat="37.2410831" lon="13.6727998"><ele>65.5</ele><time>2026-05-06T11:29:56.381Z</time></trkpt><trkpt lat="37.2409523" lon="13.6727266"><ele>67.0</ele><time>2026-05-06T11:29:57.382Z</time></trkpt><trkpt lat="37.240813" lon="13.672655"><ele>68.5</ele><time>2026-05-06T11:29:58.381Z</time></trkpt><trkpt lat="37.2406772" lon="13.6725857"><ele>70.0</ele><time>2026-05-06T11:29:59.382Z</time></trkpt><trkpt lat="37.2405485" lon="13.6725222"><ele>71.25</ele><time>2026-05-06T11:30:00.381Z</time></trkpt><trkpt lat="37.2404303" lon="13.6724562"><ele>72.5</ele><time>2026-05-06T11:30:01.381Z</time></trkpt><trkpt lat="37.2403181" lon="13.6723937"><ele>73.75</ele><time>2026-05-06T11:30:02.382Z</time></trkpt><trkpt lat="37.2402155" lon="13.6723387"><ele>75.0</ele><time>2026-05-06T11:30:03.381Z</time></trkpt><trkpt lat="37.2401328" lon="13.6722905"><ele>75.0</ele><time>2026-05-06T11:30:04.381Z</time></trkpt><trkpt lat="37.2400507" lon="13.6722468"><ele>75.0</ele><time>2026-05-06T11:30:05.38Z</time></trkpt><trkpt lat="37.2399719" lon="13.6722065"><ele>75.0</ele><time>2026-05-06T11:30:06.381Z</time></trkpt><trkpt lat="37.2398886" lon="13.6721681"><ele>75.0</ele><time>2026-05-06T11:30:07.381Z</time></trkpt><trkpt lat="37.2397957" lon="13.6721175"><ele>75.0</ele><time>2026-05-06T11:30:08.382Z</time></trkpt><trkpt lat="37.2397002" lon="13.6720709"><ele>75.6</ele><time>2026-05-06T11:30:09.381Z</time></trkpt><trkpt lat="37.2396021" lon="13.6720213"><ele>76.2</ele><time>2026-05-06T11:30:10.381Z</time></trkpt><trkpt lat="37.2395071" lon="13.671977"><ele>76.8</ele><time>2026-05-06T11:30:11.381Z</time></trkpt><trkpt lat="37.2394175" lon="13.6719348"><ele>77.4</ele><time>2026-05-06T11:30:12.38Z</time></trkpt><trkpt lat="37.2393195" lon="13.6719036"><ele>78.0</ele><time>2026-05-06T11:30:13.381Z</time></trkpt><trkpt lat="37.2392213" lon="13.6718738"><ele>78.2</ele><time>2026-05-06T11:30:14.381Z</time></trkpt><trkpt lat="37.2391298" lon="13.6718393"><ele>78.4</ele><time>2026-05-06T11:30:15.381Z</time></trkpt><trkpt lat="37.2390358" lon="13.6718013"><ele>78.60000000000001</ele><time>2026-05-06T11:30:16.381Z</time></trkpt><trkpt lat="37.2389493" lon="13.6717575"><ele>78.8</ele><time>2026-05-06T11:30:17.382Z</time></trkpt><trkpt lat="37.2388623" lon="13.6717042"><ele>79.0</ele><time>2026-05-06T11:30:18.381Z</time></trkpt><trkpt lat="37.2387751" lon="13.6716494"><ele>79.2</ele><time>2026-05-06T11:30:19.381Z</time></trkpt><trkpt lat="37.2386795" lon="13.671596"><ele>79.4</ele><time>2026-05-06T11:30:20.381Z</time></trkpt><trkpt lat="37.2385897" lon="13.6715388"><ele>79.6</ele><time>2026-05-06T11:30:21.381Z</time></trkpt><trkpt lat="37.2384983" lon="13.6714785"><ele>79.8</ele><time>2026-05-06T11:30:22.382Z</time></trkpt><trkpt lat="37.238415" lon="13.6714236"><ele>80.0</ele><time>2026-05-06T11:30:23.381Z</time></trkpt><trkpt lat="37.2383197" lon="13.671365"><ele>80.0</ele><time>2026-05-06T11:30:24.381Z</time></trkpt><trkpt lat="37.2382216" lon="13.6713034"><ele>80.0</ele><time>2026-05-06T11:30:25.381Z</time></trkpt><trkpt lat="37.2381305" lon="13.6712446"><ele>80.0</ele><time>2026-05-06T11:30:26.382Z</time></trkpt><trkpt lat="37.2380377" lon="13.6711829"><ele>80.0</ele><time>2026-05-06T11:30:27.381Z</time></trkpt><trkpt lat="37.2379467" lon="13.6711274"><ele>80.0</ele><time>2026-05-06T11:30:28.38Z</time></trkpt><trkpt lat="37.2378592" lon="13.671062"><ele>79.5</ele><time>2026-05-06T11:30:29.381Z</time></trkpt><trkpt lat="37.2377618" lon="13.6710026"><ele>79.0</ele><time>2026-05-06T11:30:30.381Z</time></trkpt><trkpt lat="37.2376634" lon="13.6709361"><ele>78.5</ele><time>2026-05-06T11:30:31.381Z</time></trkpt><trkpt lat="37.2375602" lon="13.6708607"><ele>78.0</ele><time>2026-05-06T11:30:32.381Z</time></trkpt><trkpt lat="37.2374576" lon="13.6707925"><ele>78.0</ele><time>2026-05-06T11:30:33.381Z</time></trkpt><trkpt lat="37.2373443" lon="13.6707216"><ele>78.0</ele><time>2026-05-06T11:30:34.382Z</time></trkpt><trkpt lat="37.2372274" lon="13.6706478"><ele>78.0</ele><time>2026-05-06T11:30:35.381Z</time></trkpt><trkpt lat="37.237121" lon="13.6705778"><ele>78.0</ele><time>2026-05-06T11:30:36.38Z</time></trkpt><trkpt lat="37.2370156" lon="13.670521"><ele>79.0</ele><time>2026-05-06T11:30:37.38Z</time></trkpt><trkpt lat="37.2369044" lon="13.6704611"><ele>80.0</ele><time>2026-05-06T11:30:38.38Z</time></trkpt><trkpt lat="37.2367948" lon="13.6704013"><ele>81.0</ele><time>2026-05-06T11:30:39.381Z</time></trkpt><trkpt lat="37.2366849" lon="13.6703452"><ele>82.0</ele><time>2026-05-06T11:30:40.382Z</time></trkpt><trkpt lat="37.2365751" lon="13.6702909"><ele>81.75</ele><time>2026-05-06T11:30:41.382Z</time></trkpt><trkpt lat="37.2364668" lon="13.6702292"><ele>81.5</ele><time>2026-05-06T11:30:42.381Z</time></trkpt><trkpt lat="37.2363629" lon="13.6701777"><ele>81.25</ele><time>2026-05-06T11:30:43.381Z</time></trkpt><trkpt lat="37.2362544" lon="13.6701113"><ele>81.0</ele><time>2026-05-06T11:30:44.381Z</time></trkpt><trkpt lat="37.2361464" lon="13.6700509"><ele>81.0</ele><time>2026-05-06T11:30:45.38Z</time></trkpt><trkpt lat="37.2360387" lon="13.6699889"><ele>81.0</ele><time>2026-05-06T11:30:46.382Z</time></trkpt><trkpt lat="37.2359302" lon="13.6699285"><ele>81.0</ele><time>2026-05-06T11:30:47.381Z</time></trkpt><trkpt lat="37.2358224" lon="13.6698677"><ele>81.0</ele><time>2026-05-06T11:30:48.381Z</time></trkpt><trkpt lat="37.2357201" lon="13.6698126"><ele>80.75</ele><time>2026-05-06T11:30:49.381Z</time></trkpt><trkpt lat="37.235608" lon="13.6697582"><ele>80.5</ele><time>2026-05-06T11:30:50.38Z</time></trkpt><trkpt lat="37.2354982" lon="13.6696973"><ele>80.25</ele><time>2026-05-06T11:30:51.381Z</time></trkpt><trkpt lat="37.2353849" lon="13.6696333"><ele>80.0</ele><time>2026-05-06T11:30:52.382Z</time></trkpt><trkpt lat="37.2352761" lon="13.669576"><ele>80.0</ele><time>2026-05-06T11:30:53.381Z</time></trkpt><trkpt lat="37.2351671" lon="13.6695245"><ele>80.0</ele><time>2026-05-06T11:30:54.382Z</time></trkpt><trkpt lat="37.2350452" lon="13.6694648"><ele>80.0</ele><time>2026-05-06T11:30:55.38Z</time></trkpt><trkpt lat="37.2349153" lon="13.6693988"><ele>80.0</ele><time>2026-05-06T11:30:56.38Z</time></trkpt><trkpt lat="37.2347748" lon="13.6693304"><ele>79.0</ele><time>2026-05-06T11:30:57.382Z</time></trkpt><trkpt lat="37.2346243" lon="13.6692517"><ele>78.0</ele><time>2026-05-06T11:30:58.382Z</time></trkpt><trkpt lat="37.234465" lon="13.6691715"><ele>77.0</ele><time>2026-05-06T11:30:59.381Z</time></trkpt><trkpt lat="37.2343216" lon="13.6690961"><ele>77.0</ele><time>2026-05-06T11:31:00.381Z</time></trkpt><trkpt lat="37.2341843" lon="13.669025"><ele>77.0</ele><time>2026-05-06T11:31:01.38Z</time></trkpt><trkpt lat="37.2340586" lon="13.6689541"><ele>77.0</ele><time>2026-05-06T11:31:02.38Z</time></trkpt><trkpt lat="37.2339562" lon="13.6689008"><ele>77.0</ele><time>2026-05-06T11:31:03.38Z</time></trkpt><trkpt lat="37.2338493" lon="13.6688514"><ele>77.2</ele><time>2026-05-06T11:31:04.381Z</time></trkpt><trkpt lat="37.2337616" lon="13.6688012"><ele>77.4</ele><time>2026-05-06T11:31:05.383Z</time></trkpt><trkpt lat="37.2336623" lon="13.6687554"><ele>77.6</ele><time>2026-05-06T11:31:06.382Z</time></trkpt><trkpt lat="37.2335556" lon="13.6687177"><ele>77.8</ele><time>2026-05-06T11:31:07.381Z</time></trkpt><trkpt lat="37.2334492" lon="13.6686819"><ele>78.0</ele><time>2026-05-06T11:31:08.381Z</time></trkpt><trkpt lat="37.2333602" lon="13.668662"><ele>78.0</ele><time>2026-05-06T11:31:09.381Z</time></trkpt><trkpt lat="37.2332601" lon="13.6686269"><ele>78.0</ele><time>2026-05-06T11:31:10.382Z</time></trkpt><trkpt lat="37.2331688" lon="13.6685975"><ele>78.0</ele><time>2026-05-06T11:31:11.381Z</time></trkpt><trkpt lat="37.2330758" lon="13.6685741"><ele>78.0</ele><time>2026-05-06T11:31:12.381Z</time></trkpt><trkpt lat="37.2329732" lon="13.668556"><ele>78.0</ele><time>2026-05-06T11:31:13.382Z</time></trkpt><trkpt lat="37.2328755" lon="13.6685292"><ele>77.5</ele><time>2026-05-06T11:31:14.381Z</time></trkpt><trkpt lat="37.2327785" lon="13.6684915"><ele>77.0</ele><time>2026-05-06T11:31:15.381Z</time></trkpt><trkpt lat="37.2326766" lon="13.6684395"><ele>76.5</ele><time>2026-05-06T11:31:16.38Z</time></trkpt><trkpt lat="37.2325686" lon="13.6683749"><ele>76.0</ele><time>2026-05-06T11:31:17.381Z</time></trkpt><trkpt lat="37.2324514" lon="13.6683017"><ele>76.0</ele><time>2026-05-06T11:31:18.38Z</time></trkpt><trkpt lat="37.2323407" lon="13.6682244"><ele>76.0</ele><time>2026-05-06T11:31:19.38Z</time></trkpt><trkpt lat="37.2322213" lon="13.6681449"><ele>76.0</ele><time>2026-05-06T11:31:20.381Z</time></trkpt><trkpt lat="37.2320972" lon="13.6680691"><ele>76.0</ele><time>2026-05-06T11:31:21.381Z</time></trkpt><trkpt lat="37.2319839" lon="13.6679895"><ele>76.0</ele><time>2026-05-06T11:31:22.381Z</time></trkpt><trkpt lat="37.2318709" lon="13.6679181"><ele>76.0</ele><time>2026-05-06T11:31:23.382Z</time></trkpt><trkpt lat="37.2317517" lon="13.6678433"><ele>76.0</ele><time>2026-05-06T11:31:24.381Z</time></trkpt><trkpt lat="37.231627" lon="13.6677612"><ele>76.0</ele><time>2026-05-06T11:31:25.382Z</time></trkpt><trkpt lat="37.2315016" lon="13.6676795"><ele>77.0</ele><time>2026-05-06T11:31:26.382Z</time></trkpt><trkpt lat="37.231381" lon="13.6675995"><ele>78.0</ele><time>2026-05-06T11:31:27.381Z</time></trkpt><trkpt lat="37.2312659" lon="13.6675244"><ele>79.0</ele><time>2026-05-06T11:31:28.382Z</time></trkpt><trkpt lat="37.2311618" lon="13.6674524"><ele>80.0</ele><time>2026-05-06T11:31:29.381Z</time></trkpt><trkpt lat="37.231062" lon="13.6673855"><ele>80.0</ele><time>2026-05-06T11:31:30.381Z</time></trkpt><trkpt lat="37.2309656" lon="13.667327"><ele>80.0</ele><time>2026-05-06T11:31:31.381Z</time></trkpt><trkpt lat="37.2308686" lon="13.6672869"><ele>80.0</ele><time>2026-05-06T11:31:32.381Z</time></trkpt><trkpt lat="37.2307674" lon="13.667253"><ele>80.0</ele><time>2026-05-06T11:31:33.381Z</time></trkpt><trkpt lat="37.2306645" lon="13.6672144"><ele>80.0</ele><time>2026-05-06T11:31:34.382Z</time></trkpt><trkpt lat="37.2305653" lon="13.6671807"><ele>80.6</ele><time>2026-05-06T11:31:35.383Z</time></trkpt><trkpt lat="37.2304702" lon="13.6671518"><ele>81.2</ele><time>2026-05-06T11:31:36.38Z</time></trkpt><trkpt lat="37.2303756" lon="13.6671229"><ele>81.80000000000001</ele><time>2026-05-06T11:31:37.38Z</time></trkpt><trkpt lat="37.2302811" lon="13.6670879"><ele>82.4</ele><time>2026-05-06T11:31:38.382Z</time></trkpt><trkpt lat="37.2301845" lon="13.6670564"><ele>83.0</ele><time>2026-05-06T11:31:39.382Z</time></trkpt><trkpt lat="37.2300858" lon="13.6670143"><ele>83.0</ele><time>2026-05-06T11:31:40.381Z</time></trkpt><trkpt lat="37.229991" lon="13.6669805"><ele>83.0</ele><time>2026-05-06T11:31:41.382Z</time></trkpt><trkpt lat="37.2298907" lon="13.666943"><ele>83.0</ele><time>2026-05-06T11:31:42.381Z</time></trkpt><trkpt lat="37.2297945" lon="13.6669043"><ele>83.0</ele><time>2026-05-06T11:31:43.381Z</time></trkpt><trkpt lat="37.2296928" lon="13.6668651"><ele>83.0</ele><time>2026-05-06T11:31:44.382Z</time></trkpt><trkpt lat="37.2295929" lon="13.6668175"><ele>82.4</ele><time>2026-05-06T11:31:45.382Z</time></trkpt><trkpt lat="37.2294956" lon="13.6667743"><ele>81.80000000000001</ele><time>2026-05-06T11:31:46.382Z</time></trkpt><trkpt lat="37.2293908" lon="13.6667331"><ele>81.2</ele><time>2026-05-06T11:31:47.38Z</time></trkpt><trkpt lat="37.2292932" lon="13.6666911"><ele>80.6</ele><time>2026-05-06T11:31:48.382Z</time></trkpt><trkpt lat="37.2291925" lon="13.6666514"><ele>80.0</ele><time>2026-05-06T11:31:49.38Z</time></trkpt><trkpt lat="37.2290976" lon="13.6666076"><ele>80.0</ele><time>2026-05-06T11:31:50.381Z</time></trkpt><trkpt lat="37.2290087" lon="13.6665742"><ele>80.0</ele><time>2026-05-06T11:31:51.38Z</time></trkpt><trkpt lat="37.2289233" lon="13.6665362"><ele>80.0</ele><time>2026-05-06T11:31:52.381Z</time></trkpt><trkpt lat="37.2288278" lon="13.6664984"><ele>80.0</ele><time>2026-05-06T11:31:53.38Z</time></trkpt><trkpt lat="37.2287269" lon="13.6664621"><ele>80.0</ele><time>2026-05-06T11:31:54.381Z</time></trkpt><trkpt lat="37.2286204" lon="13.6664196"><ele>79.8</ele><time>2026-05-06T11:31:55.381Z</time></trkpt><trkpt lat="37.2285243" lon="13.6663798"><ele>79.6</ele><time>2026-05-06T11:31:56.381Z</time></trkpt><trkpt lat="37.2284348" lon="13.6663423"><ele>79.4</ele><time>2026-05-06T11:31:57.381Z</time></trkpt><trkpt lat="37.228347" lon="13.6663049"><ele>79.2</ele><time>2026-05-06T11:31:58.381Z</time></trkpt><trkpt lat="37.2282653" lon="13.6662751"><ele>79.0</ele><time>2026-05-06T11:31:59.381Z</time></trkpt><trkpt lat="37.2281867" lon="13.6662449"><ele>78.42857142857143</ele><time>2026-05-06T11:32:00.38Z</time></trkpt><trkpt lat="37.2281106" lon="13.6662135"><ele>77.85714285714286</ele><time>2026-05-06T11:32:01.38Z</time></trkpt><trkpt lat="37.2280385" lon="13.6661832"><ele>77.28571428571428</ele><time>2026-05-06T11:32:02.381Z</time></trkpt><trkpt lat="37.2279661" lon="13.6661443"><ele>76.71428571428572</ele><time>2026-05-06T11:32:03.381Z</time></trkpt><trkpt lat="37.227898" lon="13.6661052"><ele>76.14285714285714</ele><time>2026-05-06T11:32:04.381Z</time></trkpt><trkpt lat="37.2278384" lon="13.6660689"><ele>75.57142857142857</ele><time>2026-05-06T11:32:05.38Z</time></trkpt><trkpt lat="37.2277781" lon="13.6660316"><ele>75.0</ele><time>2026-05-06T11:32:06.382Z</time></trkpt><trkpt lat="37.2277182" lon="13.6659893"><ele>75.0</ele><time>2026-05-06T11:32:07.381Z</time></trkpt><trkpt lat="37.2276622" lon="13.665941"><ele>75.0</ele><time>2026-05-06T11:32:08.381Z</time></trkpt><trkpt lat="37.2275605" lon="13.6658442"><ele>75.0</ele><time>2026-05-06T11:32:10.381Z</time></trkpt><trkpt lat="37.2275075" lon="13.6658006"><ele>75.0</ele><time>2026-05-06T11:32:11.38Z</time></trkpt><trkpt lat="37.2274509" lon="13.6657459"><ele>75.0</ele><time>2026-05-06T11:32:12.382Z</time></trkpt><trkpt lat="37.2273887" lon="13.6656902"><ele>75.0</ele><time>2026-05-06T11:32:13.382Z</time></trkpt><trkpt lat="37.227321" lon="13.6656242"><ele>74.2</ele><time>2026-05-06T11:32:14.38Z</time></trkpt><trkpt lat="37.2272503" lon="13.6655543"><ele>73.4</ele><time>2026-05-06T11:32:15.381Z</time></trkpt><trkpt lat="37.2271736" lon="13.6654762"><ele>72.6</ele><time>2026-05-06T11:32:16.382Z</time></trkpt><trkpt lat="37.227096" lon="13.6653968"><ele>71.8</ele><time>2026-05-06T11:32:17.38Z</time></trkpt><trkpt lat="37.2270119" lon="13.6653235"><ele>71.0</ele><time>2026-05-06T11:32:18.382Z</time></trkpt><trkpt lat="37.2269409" lon="13.6652559"><ele>71.0</ele><time>2026-05-06T11:32:19.381Z</time></trkpt><trkpt lat="37.2268676" lon="13.6651818"><ele>71.0</ele><time>2026-05-06T11:32:20.382Z</time></trkpt><trkpt lat="37.2268006" lon="13.6651138"><ele>71.0</ele><time>2026-05-06T11:32:21.381Z</time></trkpt><trkpt lat="37.2267353" lon="13.6650439"><ele>71.0</ele><time>2026-05-06T11:32:22.382Z</time></trkpt><trkpt lat="37.2266683" lon="13.6649839"><ele>71.0</ele><time>2026-05-06T11:32:23.38Z</time></trkpt><trkpt lat="37.2266109" lon="13.6649315"><ele>71.0</ele><time>2026-05-06T11:32:24.381Z</time></trkpt><trkpt lat="37.2265619" lon="13.6648774"><ele>71.0</ele><time>2026-05-06T11:32:25.382Z</time></trkpt><trkpt lat="37.2265018" lon="13.664799"><ele>71.0</ele><time>2026-05-06T11:32:27.381Z</time></trkpt><trkpt lat="37.2264389" lon="13.664763"><ele>71.0</ele><time>2026-05-06T11:32:30.381Z</time></trkpt><trkpt lat="37.2263585" lon="13.6648048"><ele>71.0</ele><time>2026-05-06T11:32:52.382Z</time></trkpt><trkpt lat="37.2262829" lon="13.6649603"><ele>71.0</ele><time>2026-05-06T11:32:54.381Z</time></trkpt><trkpt lat="37.2262459" lon="13.6650848"><ele>69.5</ele><time>2026-05-06T11:32:55.38Z</time></trkpt><trkpt lat="37.2262063" lon="13.665231"><ele>68.0</ele><time>2026-05-06T11:32:56.381Z</time></trkpt><trkpt lat="37.2261619" lon="13.665401"><ele>66.5</ele><time>2026-05-06T11:32:57.381Z</time></trkpt><trkpt lat="37.2261166" lon="13.6655805"><ele>65.0</ele><time>2026-05-06T11:32:58.381Z</time></trkpt><trkpt lat="37.2260743" lon="13.6657495"><ele>64.5</ele><time>2026-05-06T11:32:59.38Z</time></trkpt><trkpt lat="37.2260329" lon="13.6659107"><ele>64.0</ele><time>2026-05-06T11:33:00.381Z</time></trkpt><trkpt lat="37.2259964" lon="13.6660652"><ele>63.5</ele><time>2026-05-06T11:33:01.382Z</time></trkpt><trkpt lat="37.2259578" lon="13.6662069"><ele>63.0</ele><time>2026-05-06T11:33:02.381Z</time></trkpt><trkpt lat="37.225921" lon="13.6663384"><ele>62.8</ele><time>2026-05-06T11:33:03.38Z</time></trkpt><trkpt lat="37.2258892" lon="13.6664635"><ele>62.599999999999994</ele><time>2026-05-06T11:33:04.381Z</time></trkpt><trkpt lat="37.2258579" lon="13.6665826"><ele>62.400000000000006</ele><time>2026-05-06T11:33:05.382Z</time></trkpt><trkpt lat="37.2258248" lon="13.6666919"><ele>62.2</ele><time>2026-05-06T11:33:06.38Z</time></trkpt><trkpt lat="37.2257913" lon="13.6667934"><ele>62.0</ele><time>2026-05-06T11:33:07.38Z</time></trkpt><trkpt lat="37.2257605" lon="13.6668874"><ele>62.16666666666667</ele><time>2026-05-06T11:33:08.381Z</time></trkpt><trkpt lat="37.2257324" lon="13.6669824"><ele>62.333333333333336</ele><time>2026-05-06T11:33:09.381Z</time></trkpt><trkpt lat="37.2257009" lon="13.6670749"><ele>62.5</ele><time>2026-05-06T11:33:10.38Z</time></trkpt><trkpt lat="37.2256702" lon="13.6671741"><ele>62.66666666666667</ele><time>2026-05-06T11:33:11.38Z</time></trkpt><trkpt lat="37.2256449" lon="13.6672755"><ele>62.833333333333336</ele><time>2026-05-06T11:33:12.381Z</time></trkpt><trkpt lat="37.2256175" lon="13.6673793"><ele>63.0</ele><time>2026-05-06T11:33:13.382Z</time></trkpt><trkpt lat="37.2255865" lon="13.667468"><ele>62.714285714285715</ele><time>2026-05-06T11:33:14.381Z</time></trkpt><trkpt lat="37.2255404" lon="13.6675463"><ele>62.42857142857143</ele><time>2026-05-06T11:33:15.381Z</time></trkpt><trkpt lat="37.2254872" lon="13.6676055"><ele>62.14285714285714</ele><time>2026-05-06T11:33:16.381Z</time></trkpt><trkpt lat="37.2254308" lon="13.6676593"><ele>61.857142857142854</ele><time>2026-05-06T11:33:17.38Z</time></trkpt><trkpt lat="37.2253826" lon="13.6677188"><ele>61.57142857142857</ele><time>2026-05-06T11:33:18.382Z</time></trkpt><trkpt lat="37.2253338" lon="13.6677821"><ele>61.28571428571428</ele><time>2026-05-06T11:33:19.381Z</time></trkpt><trkpt lat="37.2252877" lon="13.6678435"><ele>60.99999999999999</ele><time>2026-05-06T11:33:20.381Z</time></trkpt><trkpt lat="37.2252446" lon="13.667902"><ele>61.0</ele><time>2026-05-06T11:33:21.382Z</time></trkpt><trkpt lat="37.2251592" lon="13.6680062"><ele>60.99999999999999</ele><time>2026-05-06T11:33:23.381Z</time></trkpt><trkpt lat="37.225062" lon="13.6680673"><ele>60.99999999999999</ele><time>2026-05-06T11:33:25.38Z</time></trkpt><trkpt lat="37.2249875" lon="13.6680991"><ele>61.0</ele><time>2026-05-06T11:33:27.38Z</time></trkpt><trkpt lat="37.2249111" lon="13.6681152"><ele>61.0</ele><time>2026-05-06T11:33:29.381Z</time></trkpt><trkpt lat="37.2248428" lon="13.6681111"><ele>59.599999999999994</ele><time>2026-05-06T11:33:31.382Z</time></trkpt><trkpt lat="37.2247288" lon="13.6681008"><ele>58.199999999999996</ele><time>2026-05-06T11:33:33.381Z</time></trkpt><trkpt lat="37.2246448" lon="13.6680892"><ele>56.800000000000004</ele><time>2026-05-06T11:33:34.38Z</time></trkpt><trkpt lat="37.2245519" lon="13.6680738"><ele>55.400000000000006</ele><time>2026-05-06T11:33:35.38Z</time></trkpt><trkpt lat="37.2244635" lon="13.6680617"><ele>54.0</ele><time>2026-05-06T11:33:36.381Z</time></trkpt><trkpt lat="37.2243758" lon="13.6680505"><ele>54.0</ele><time>2026-05-06T11:33:37.382Z</time></trkpt><trkpt lat="37.2242994" lon="13.6680494"><ele>54.0</ele><time>2026-05-06T11:33:38.382Z</time></trkpt><trkpt lat="37.2242155" lon="13.6680623"><ele>54.0</ele><time>2026-05-06T11:33:39.382Z</time></trkpt><trkpt lat="37.2241287" lon="13.6680924"><ele>54.0</ele><time>2026-05-06T11:33:40.381Z</time></trkpt><trkpt lat="37.224051" lon="13.6681232"><ele>54.0</ele><time>2026-05-06T11:33:41.381Z</time></trkpt><trkpt lat="37.2239792" lon="13.6681514"><ele>54.0</ele><time>2026-05-06T11:33:42.38Z</time></trkpt><trkpt lat="37.2238948" lon="13.6681511"><ele>53.400000000000006</ele><time>2026-05-06T11:33:43.381Z</time></trkpt><trkpt lat="37.2238117" lon="13.6681361"><ele>52.800000000000004</ele><time>2026-05-06T11:33:44.38Z</time></trkpt><trkpt lat="37.2237193" lon="13.6681014"><ele>52.2</ele><time>2026-05-06T11:33:45.381Z</time></trkpt><trkpt lat="37.2236101" lon="13.6680387"><ele>51.599999999999994</ele><time>2026-05-06T11:33:46.382Z</time></trkpt><trkpt lat="37.2235148" lon="13.6679863"><ele>51.0</ele><time>2026-05-06T11:33:47.38Z</time></trkpt><trkpt lat="37.2234261" lon="13.6679443"><ele>51.0</ele><time>2026-05-06T11:33:48.381Z</time></trkpt><trkpt lat="37.2233375" lon="13.6679167"><ele>51.0</ele><time>2026-05-06T11:33:49.381Z</time></trkpt><trkpt lat="37.2232292" lon="13.6679053"><ele>51.0</ele><time>2026-05-06T11:33:50.383Z</time></trkpt><trkpt lat="37.2231016" lon="13.6679057"><ele>51.0</ele><time>2026-05-06T11:33:51.382Z</time></trkpt><trkpt lat="37.2229662" lon="13.6679098"><ele>49.5</ele><time>2026-05-06T11:33:52.382Z</time></trkpt><trkpt lat="37.2228344" lon="13.6679104"><ele>48.0</ele><time>2026-05-06T11:33:53.382Z</time></trkpt><trkpt lat="37.2227182" lon="13.6679071"><ele>46.5</ele><time>2026-05-06T11:33:54.381Z</time></trkpt><trkpt lat="37.2226091" lon="13.667892"><ele>45.0</ele><time>2026-05-06T11:33:55.381Z</time></trkpt><trkpt lat="37.2224913" lon="13.6678642"><ele>45.0</ele><time>2026-05-06T11:33:56.38Z</time></trkpt><trkpt lat="37.2223826" lon="13.6678285"><ele>45.0</ele><time>2026-05-06T11:33:57.381Z</time></trkpt><trkpt lat="37.222282" lon="13.6677999"><ele>45.0</ele><time>2026-05-06T11:33:58.38Z</time></trkpt><trkpt lat="37.2221903" lon="13.6677914"><ele>45.0</ele><time>2026-05-06T11:33:59.38Z</time></trkpt><trkpt lat="37.2221039" lon="13.6678026"><ele>45.0</ele><time>2026-05-06T11:34:00.38Z</time></trkpt><trkpt lat="37.2220185" lon="13.667845"><ele>44.666666666666664</ele><time>2026-05-06T11:34:01.381Z</time></trkpt><trkpt lat="37.2219364" lon="13.6679151"><ele>44.333333333333336</ele><time>2026-05-06T11:34:02.381Z</time></trkpt><trkpt lat="37.2218709" lon="13.6680018"><ele>44.0</ele><time>2026-05-06T11:34:03.381Z</time></trkpt><trkpt lat="37.2217987" lon="13.6680685"><ele>43.66666666666667</ele><time>2026-05-06T11:34:04.381Z</time></trkpt><trkpt lat="37.2217247" lon="13.6681092"><ele>43.333333333333336</ele><time>2026-05-06T11:34:05.381Z</time></trkpt><trkpt lat="37.2216544" lon="13.6681241"><ele>43.0</ele><time>2026-05-06T11:34:06.381Z</time></trkpt><trkpt lat="37.2215822" lon="13.6681088"><ele>43.0</ele><time>2026-05-06T11:34:07.38Z</time></trkpt><trkpt lat="37.2215201" lon="13.6680642"><ele>43.0</ele><time>2026-05-06T11:34:08.381Z</time></trkpt><trkpt lat="37.2214769" lon="13.6679989"><ele>43.0</ele><time>2026-05-06T11:34:09.38Z</time></trkpt><trkpt lat="37.2214508" lon="13.6679076"><ele>43.0</ele><time>2026-05-06T11:34:10.381Z</time></trkpt><trkpt lat="37.2214433" lon="13.6678051"><ele>43.0</ele><time>2026-05-06T11:34:11.381Z</time></trkpt><trkpt lat="37.2214429" lon="13.6676953"><ele>43.0</ele><time>2026-05-06T11:34:12.38Z</time></trkpt><trkpt lat="37.2214434" lon="13.6675877"><ele>44.0</ele><time>2026-05-06T11:34:13.382Z</time></trkpt><trkpt lat="37.2214408" lon="13.6674765"><ele>45.0</ele><time>2026-05-06T11:34:14.38Z</time></trkpt><trkpt lat="37.2214388" lon="13.6673567"><ele>46.0</ele><time>2026-05-06T11:34:15.381Z</time></trkpt><trkpt lat="37.2214413" lon="13.6672416"><ele>47.0</ele><time>2026-05-06T11:34:16.381Z</time></trkpt><trkpt lat="37.221427" lon="13.6671215"><ele>48.0</ele><time>2026-05-06T11:34:17.38Z</time></trkpt><trkpt lat="37.2214035" lon="13.667011"><ele>47.599999999999994</ele><time>2026-05-06T11:34:18.381Z</time></trkpt><trkpt lat="37.2213581" lon="13.6669041"><ele>47.199999999999996</ele><time>2026-05-06T11:34:19.38Z</time></trkpt><trkpt lat="37.2212781" lon="13.6668264"><ele>46.8</ele><time>2026-05-06T11:34:20.38Z</time></trkpt><trkpt lat="37.2211854" lon="13.6667551"><ele>46.4</ele><time>2026-05-06T11:34:21.381Z</time></trkpt><trkpt lat="37.2210767" lon="13.6666948"><ele>46.0</ele><time>2026-05-06T11:34:22.381Z</time></trkpt><trkpt lat="37.2209738" lon="13.6666306"><ele>46.0</ele><time>2026-05-06T11:34:23.38Z</time></trkpt><trkpt lat="37.2208687" lon="13.6665654"><ele>46.0</ele><time>2026-05-06T11:34:24.381Z</time></trkpt><trkpt lat="37.2207584" lon="13.6665043"><ele>46.0</ele><time>2026-05-06T11:34:25.38Z</time></trkpt><trkpt lat="37.2206459" lon="13.666467"><ele>46.0</ele><time>2026-05-06T11:34:26.383Z</time></trkpt><trkpt lat="37.2205343" lon="13.66643"><ele>46.5</ele><time>2026-05-06T11:34:27.382Z</time></trkpt><trkpt lat="37.2204166" lon="13.666399"><ele>47.0</ele><time>2026-05-06T11:34:28.381Z</time></trkpt><trkpt lat="37.2203008" lon="13.666375"><ele>47.5</ele><time>2026-05-06T11:34:29.381Z</time></trkpt><trkpt lat="37.2201794" lon="13.6663463"><ele>48.0</ele><time>2026-05-06T11:34:30.38Z</time></trkpt><trkpt lat="37.2200555" lon="13.6663115"><ele>48.0</ele><time>2026-05-06T11:34:31.38Z</time></trkpt><trkpt lat="37.2199317" lon="13.666278"><ele>48.0</ele><time>2026-05-06T11:34:32.381Z</time></trkpt><trkpt lat="37.2198086" lon="13.6662424"><ele>48.0</ele><time>2026-05-06T11:34:33.381Z</time></trkpt><trkpt lat="37.2196909" lon="13.6662068"><ele>48.0</ele><time>2026-05-06T11:34:34.383Z</time></trkpt><trkpt lat="37.2195826" lon="13.6661726"><ele>47.8</ele><time>2026-05-06T11:34:35.382Z</time></trkpt><trkpt lat="37.2194761" lon="13.6661348"><ele>47.599999999999994</ele><time>2026-05-06T11:34:36.382Z</time></trkpt><trkpt lat="37.2193796" lon="13.666102"><ele>47.400000000000006</ele><time>2026-05-06T11:34:37.38Z</time></trkpt><trkpt lat="37.2192909" lon="13.6660924"><ele>47.2</ele><time>2026-05-06T11:34:38.381Z</time></trkpt><trkpt lat="37.2192075" lon="13.6660891"><ele>47.0</ele><time>2026-05-06T11:34:39.38Z</time></trkpt><trkpt lat="37.2191306" lon="13.6661288"><ele>47.0</ele><time>2026-05-06T11:34:40.38Z</time></trkpt><trkpt lat="37.2190435" lon="13.6661773"><ele>47.0</ele><time>2026-05-06T11:34:41.38Z</time></trkpt><trkpt lat="37.2189638" lon="13.6662491"><ele>47.0</ele><time>2026-05-06T11:34:42.381Z</time></trkpt><trkpt lat="37.2188799" lon="13.6663229"><ele>47.0</ele><time>2026-05-06T11:34:43.381Z</time></trkpt><trkpt lat="37.2187973" lon="13.6663956"><ele>47.0</ele><time>2026-05-06T11:34:44.381Z</time></trkpt><trkpt lat="37.218721" lon="13.6664578"><ele>46.666666666666664</ele><time>2026-05-06T11:34:45.381Z</time></trkpt><trkpt lat="37.2186397" lon="13.6664951"><ele>46.33333333333333</ele><time>2026-05-06T11:34:46.38Z</time></trkpt><trkpt lat="37.2185592" lon="13.6665066"><ele>46.0</ele><time>2026-05-06T11:34:47.381Z</time></trkpt><trkpt lat="37.2184916" lon="13.6664897"><ele>45.666666666666664</ele><time>2026-05-06T11:34:48.381Z</time></trkpt><trkpt lat="37.2184148" lon="13.6664507"><ele>45.333333333333336</ele><time>2026-05-06T11:34:49.38Z</time></trkpt><trkpt lat="37.218342" lon="13.666375"><ele>45.0</ele><time>2026-05-06T11:34:50.381Z</time></trkpt><trkpt lat="37.2182698" lon="13.6662783"><ele>45.0</ele><time>2026-05-06T11:34:51.382Z</time></trkpt><trkpt lat="37.2182027" lon="13.6661802"><ele>45.0</ele><time>2026-05-06T11:34:52.381Z</time></trkpt><trkpt lat="37.2181458" lon="13.6661011"><ele>45.0</ele><time>2026-05-06T11:34:53.381Z</time></trkpt><trkpt lat="37.2180818" lon="13.6660371"><ele>45.0</ele><time>2026-05-06T11:34:54.38Z</time></trkpt><trkpt lat="37.2180145" lon="13.6659877"><ele>45.0</ele><time>2026-05-06T11:34:55.381Z</time></trkpt><trkpt lat="37.2179291" lon="13.6659757"><ele>45.0</ele><time>2026-05-06T11:34:56.381Z</time></trkpt><trkpt lat="37.217838" lon="13.6659902"><ele>45.666666666666664</ele><time>2026-05-06T11:34:57.382Z</time></trkpt><trkpt lat="37.2177435" lon="13.6660094"><ele>46.33333333333333</ele><time>2026-05-06T11:34:58.381Z</time></trkpt><trkpt lat="37.2176515" lon="13.6660284"><ele>47.0</ele><time>2026-05-06T11:34:59.381Z</time></trkpt><trkpt lat="37.2175655" lon="13.6660418"><ele>47.666666666666664</ele><time>2026-05-06T11:35:00.382Z</time></trkpt><trkpt lat="37.2174798" lon="13.6660554"><ele>48.33333333333333</ele><time>2026-05-06T11:35:01.38Z</time></trkpt><trkpt lat="37.2173932" lon="13.6660591"><ele>49.0</ele><time>2026-05-06T11:35:02.381Z</time></trkpt><trkpt lat="37.2173114" lon="13.6660551"><ele>49.42857142857143</ele><time>2026-05-06T11:35:03.382Z</time></trkpt><trkpt lat="37.2172358" lon="13.6660513"><ele>49.85714285714286</ele><time>2026-05-06T11:35:04.381Z</time></trkpt><trkpt lat="37.2171707" lon="13.6660433"><ele>50.285714285714285</ele><time>2026-05-06T11:35:05.381Z</time></trkpt><trkpt lat="37.2170998" lon="13.6660283"><ele>50.714285714285715</ele><time>2026-05-06T11:35:06.38Z</time></trkpt><trkpt lat="37.2170358" lon="13.6660065"><ele>51.142857142857146</ele><time>2026-05-06T11:35:07.38Z</time></trkpt><trkpt lat="37.2169705" lon="13.6659874"><ele>51.57142857142857</ele><time>2026-05-06T11:35:08.38Z</time></trkpt><trkpt lat="37.2169082" lon="13.6659675"><ele>52.0</ele><time>2026-05-06T11:35:09.38Z</time></trkpt><trkpt lat="37.2168425" lon="13.6659439"><ele>51.99999999999999</ele><time>2026-05-06T11:35:10.382Z</time></trkpt><trkpt lat="37.216782" lon="13.665914"><ele>52.0</ele><time>2026-05-06T11:35:11.381Z</time></trkpt><trkpt lat="37.2167182" lon="13.6658759"><ele>52.0</ele><time>2026-05-06T11:35:12.38Z</time></trkpt><trkpt lat="37.2166486" lon="13.6658391"><ele>52.0</ele><time>2026-05-06T11:35:13.38Z</time></trkpt><trkpt lat="37.2165765" lon="13.6657935"><ele>51.99999999999999</ele><time>2026-05-06T11:35:14.381Z</time></trkpt><trkpt lat="37.2165008" lon="13.6657422"><ele>52.0</ele><time>2026-05-06T11:35:15.38Z</time></trkpt><trkpt lat="37.2164317" lon="13.6656876"><ele>53.0</ele><time>2026-05-06T11:35:16.381Z</time></trkpt><trkpt lat="37.216349" lon="13.6656344"><ele>54.0</ele><time>2026-05-06T11:35:17.38Z</time></trkpt><trkpt lat="37.2162526" lon="13.6655744"><ele>55.0</ele><time>2026-05-06T11:35:18.38Z</time></trkpt><trkpt lat="37.2161402" lon="13.6655153"><ele>56.0</ele><time>2026-05-06T11:35:19.381Z</time></trkpt><trkpt lat="37.2160191" lon="13.6654656"><ele>56.0</ele><time>2026-05-06T11:35:20.38Z</time></trkpt><trkpt lat="37.2159162" lon="13.6654196"><ele>55.99999999999999</ele><time>2026-05-06T11:35:21.381Z</time></trkpt><trkpt lat="37.2158205" lon="13.6653714"><ele>55.99999999999999</ele><time>2026-05-06T11:35:22.381Z</time></trkpt><trkpt lat="37.2157274" lon="13.6653235"><ele>56.0</ele><time>2026-05-06T11:35:23.38Z</time></trkpt><trkpt lat="37.2156358" lon="13.6652724"><ele>56.0</ele><time>2026-05-06T11:35:24.381Z</time></trkpt><trkpt lat="37.2155466" lon="13.6652218"><ele>57.199999999999996</ele><time>2026-05-06T11:35:25.381Z</time></trkpt><trkpt lat="37.2154609" lon="13.6651828"><ele>58.39999999999999</ele><time>2026-05-06T11:35:26.381Z</time></trkpt><trkpt lat="37.2153674" lon="13.6651518"><ele>59.6</ele><time>2026-05-06T11:35:27.381Z</time></trkpt><trkpt lat="37.2152701" lon="13.6651303"><ele>60.8</ele><time>2026-05-06T11:35:28.381Z</time></trkpt><trkpt lat="37.2151604" lon="13.6651132"><ele>62.0</ele><time>2026-05-06T11:35:29.382Z</time></trkpt><trkpt lat="37.2150526" lon="13.6650917"><ele>62.0</ele><time>2026-05-06T11:35:30.381Z</time></trkpt><trkpt lat="37.2149352" lon="13.6650752"><ele>62.0</ele><time>2026-05-06T11:35:31.38Z</time></trkpt><trkpt lat="37.2148154" lon="13.6650529"><ele>62.0</ele><time>2026-05-06T11:35:32.381Z</time></trkpt><trkpt lat="37.2146839" lon="13.6650433"><ele>62.0</ele><time>2026-05-06T11:35:33.381Z</time></trkpt><trkpt lat="37.2145462" lon="13.6650255"><ele>63.0</ele><time>2026-05-06T11:35:34.381Z</time></trkpt><trkpt lat="37.2144079" lon="13.6650285"><ele>64.0</ele><time>2026-05-06T11:35:35.381Z</time></trkpt><trkpt lat="37.2142554" lon="13.6650446"><ele>65.0</ele><time>2026-05-06T11:35:36.382Z</time></trkpt><trkpt lat="37.2141068" lon="13.6650619"><ele>66.0</ele><time>2026-05-06T11:35:37.38Z</time></trkpt><trkpt lat="37.2139586" lon="13.6650796"><ele>67.0</ele><time>2026-05-06T11:35:38.381Z</time></trkpt><trkpt lat="37.2138192" lon="13.6650956"><ele>68.0</ele><time>2026-05-06T11:35:39.382Z</time></trkpt><trkpt lat="37.2136962" lon="13.6651135"><ele>69.0</ele><time>2026-05-06T11:35:40.38Z</time></trkpt><trkpt lat="37.2135788" lon="13.6651247"><ele>70.0</ele><time>2026-05-06T11:35:41.382Z</time></trkpt><trkpt lat="37.2134542" lon="13.6651435"><ele>70.0</ele><time>2026-05-06T11:35:42.382Z</time></trkpt><trkpt lat="37.2133305" lon="13.6651639"><ele>70.0</ele><time>2026-05-06T11:35:43.381Z</time></trkpt><trkpt lat="37.2132131" lon="13.6651916"><ele>70.0</ele><time>2026-05-06T11:35:44.381Z</time></trkpt><trkpt lat="37.2131062" lon="13.6652184"><ele>70.0</ele><time>2026-05-06T11:35:45.38Z</time></trkpt><trkpt lat="37.2130068" lon="13.6652471"><ele>71.2</ele><time>2026-05-06T11:35:46.381Z</time></trkpt><trkpt lat="37.2129096" lon="13.6652807"><ele>72.4</ele><time>2026-05-06T11:35:47.382Z</time></trkpt><trkpt lat="37.2128179" lon="13.6653242"><ele>73.6</ele><time>2026-05-06T11:35:48.381Z</time></trkpt><trkpt lat="37.2127308" lon="13.6653752"><ele>74.8</ele><time>2026-05-06T11:35:49.382Z</time></trkpt><trkpt lat="37.2126416" lon="13.665412"><ele>76.0</ele><time>2026-05-06T11:35:50.38Z</time></trkpt><trkpt lat="37.2125645" lon="13.6654285"><ele>76.0</ele><time>2026-05-06T11:35:51.381Z</time></trkpt><trkpt lat="37.2124787" lon="13.6654147"><ele>76.0</ele><time>2026-05-06T11:35:52.38Z</time></trkpt><trkpt lat="37.2123991" lon="13.6653949"><ele>76.0</ele><time>2026-05-06T11:35:53.38Z</time></trkpt><trkpt lat="37.2123023" lon="13.6653672"><ele>76.0</ele><time>2026-05-06T11:35:54.38Z</time></trkpt><trkpt lat="37.2122069" lon="13.6653431"><ele>76.0</ele><time>2026-05-06T11:35:55.38Z</time></trkpt><trkpt lat="37.2121115" lon="13.6652999"><ele>75.6</ele><time>2026-05-06T11:35:56.381Z</time></trkpt><trkpt lat="37.2120193" lon="13.6652465"><ele>75.19999999999999</ele><time>2026-05-06T11:35:57.38Z</time></trkpt><trkpt lat="37.2119324" lon="13.6652"><ele>74.80000000000001</ele><time>2026-05-06T11:35:58.38Z</time></trkpt><trkpt lat="37.2118409" lon="13.6651485"><ele>74.4</ele><time>2026-05-06T11:35:59.38Z</time></trkpt><trkpt lat="37.2117532" lon="13.6650974"><ele>74.0</ele><time>2026-05-06T11:36:00.38Z</time></trkpt><trkpt lat="37.2116634" lon="13.6650453"><ele>74.0</ele><time>2026-05-06T11:36:01.38Z</time></trkpt><trkpt lat="37.2115629" lon="13.6649868"><ele>74.0</ele><time>2026-05-06T11:36:02.38Z</time></trkpt><trkpt lat="37.2114749" lon="13.6649336"><ele>74.0</ele><time>2026-05-06T11:36:03.381Z</time></trkpt><trkpt lat="37.2113826" lon="13.6648838"><ele>74.0</ele><time>2026-05-06T11:36:04.381Z</time></trkpt><trkpt lat="37.2112911" lon="13.6648418"><ele>74.0</ele><time>2026-05-06T11:36:05.38Z</time></trkpt><trkpt lat="37.2112068" lon="13.6647878"><ele>74.8</ele><time>2026-05-06T11:36:06.382Z</time></trkpt><trkpt lat="37.2111155" lon="13.6647333"><ele>75.60000000000001</ele><time>2026-05-06T11:36:07.38Z</time></trkpt><trkpt lat="37.2110163" lon="13.664682"><ele>76.4</ele><time>2026-05-06T11:36:08.38Z</time></trkpt><trkpt lat="37.2109038" lon="13.66463"><ele>77.2</ele><time>2026-05-06T11:36:09.38Z</time></trkpt><trkpt lat="37.2107902" lon="13.6645792"><ele>78.0</ele><time>2026-05-06T11:36:10.381Z</time></trkpt><trkpt lat="37.2106856" lon="13.6645305"><ele>77.8</ele><time>2026-05-06T11:36:11.38Z</time></trkpt><trkpt lat="37.2105866" lon="13.6644895"><ele>77.6</ele><time>2026-05-06T11:36:12.38Z</time></trkpt><trkpt lat="37.2104798" lon="13.6644551"><ele>77.4</ele><time>2026-05-06T11:36:13.381Z</time></trkpt><trkpt lat="37.2103756" lon="13.6644228"><ele>77.2</ele><time>2026-05-06T11:36:14.38Z</time></trkpt><trkpt lat="37.2102687" lon="13.6643842"><ele>77.0</ele><time>2026-05-06T11:36:15.38Z</time></trkpt><trkpt lat="37.2101545" lon="13.6643378"><ele>77.0</ele><time>2026-05-06T11:36:16.38Z</time></trkpt><trkpt lat="37.2100445" lon="13.6642799"><ele>77.0</ele><time>2026-05-06T11:36:17.38Z</time></trkpt><trkpt lat="37.2099444" lon="13.6642153"><ele>77.0</ele><time>2026-05-06T11:36:18.382Z</time></trkpt><trkpt lat="37.2098328" lon="13.6641542"><ele>77.0</ele><time>2026-05-06T11:36:19.381Z</time></trkpt><trkpt lat="37.2097275" lon="13.6640921"><ele>78.25</ele><time>2026-05-06T11:36:20.382Z</time></trkpt><trkpt lat="37.2096214" lon="13.6640357"><ele>79.5</ele><time>2026-05-06T11:36:21.382Z</time></trkpt><trkpt lat="37.2095153" lon="13.6639752"><ele>80.75</ele><time>2026-05-06T11:36:22.38Z</time></trkpt><trkpt lat="37.209405" lon="13.6639116"><ele>82.0</ele><time>2026-05-06T11:36:23.381Z</time></trkpt><trkpt lat="37.2093016" lon="13.6638368"><ele>82.0</ele><time>2026-05-06T11:36:24.38Z</time></trkpt><trkpt lat="37.2091967" lon="13.663762"><ele>82.0</ele><time>2026-05-06T11:36:25.381Z</time></trkpt><trkpt lat="37.2090982" lon="13.6636946"><ele>82.0</ele><time>2026-05-06T11:36:26.381Z</time></trkpt><trkpt lat="37.2090018" lon="13.6636457"><ele>82.0</ele><time>2026-05-06T11:36:27.38Z</time></trkpt><trkpt lat="37.2088972" lon="13.6636217"><ele>82.0</ele><time>2026-05-06T11:36:28.381Z</time></trkpt><trkpt lat="37.2087832" lon="13.663606"><ele>81.5</ele><time>2026-05-06T11:36:29.381Z</time></trkpt><trkpt lat="37.2086645" lon="13.663589"><ele>81.0</ele><time>2026-05-06T11:36:30.381Z</time></trkpt><trkpt lat="37.2085527" lon="13.6635925"><ele>80.5</ele><time>2026-05-06T11:36:31.38Z</time></trkpt><trkpt lat="37.2084407" lon="13.6635794"><ele>80.0</ele><time>2026-05-06T11:36:32.38Z</time></trkpt><trkpt lat="37.2083312" lon="13.6635851"><ele>81.8</ele><time>2026-05-06T11:36:33.381Z</time></trkpt><trkpt lat="37.208219" lon="13.6636157"><ele>83.6</ele><time>2026-05-06T11:36:34.38Z</time></trkpt><trkpt lat="37.2081186" lon="13.6636433"><ele>85.4</ele><time>2026-05-06T11:36:35.38Z</time></trkpt><trkpt lat="37.2080259" lon="13.6636618"><ele>87.2</ele><time>2026-05-06T11:36:36.38Z</time></trkpt><trkpt lat="37.2079286" lon="13.6636765"><ele>89.0</ele><time>2026-05-06T11:36:37.38Z</time></trkpt><trkpt lat="37.2078391" lon="13.6636551"><ele>88.16666666666667</ele><time>2026-05-06T11:36:38.381Z</time></trkpt><trkpt lat="37.2077491" lon="13.6636426"><ele>87.33333333333334</ele><time>2026-05-06T11:36:39.381Z</time></trkpt><trkpt lat="37.2076606" lon="13.6636243"><ele>86.5</ele><time>2026-05-06T11:36:40.38Z</time></trkpt><trkpt lat="37.2075821" lon="13.6635892"><ele>85.66666666666667</ele><time>2026-05-06T11:36:41.38Z</time></trkpt><trkpt lat="37.2075062" lon="13.6635422"><ele>84.83333333333333</ele><time>2026-05-06T11:36:42.38Z</time></trkpt><trkpt lat="37.2074419" lon="13.66349"><ele>84.0</ele><time>2026-05-06T11:36:43.381Z</time></trkpt><trkpt lat="37.2073824" lon="13.6634382"><ele>84.33333333333333</ele><time>2026-05-06T11:36:44.381Z</time></trkpt><trkpt lat="37.2073208" lon="13.6633863"><ele>84.66666666666667</ele><time>2026-05-06T11:36:45.381Z</time></trkpt><trkpt lat="37.2072555" lon="13.6633331"><ele>85.0</ele><time>2026-05-06T11:36:46.382Z</time></trkpt><trkpt lat="37.2071777" lon="13.6632801"><ele>85.33333333333334</ele><time>2026-05-06T11:36:47.38Z</time></trkpt><trkpt lat="37.2070951" lon="13.6632257"><ele>85.66666666666667</ele><time>2026-05-06T11:36:48.38Z</time></trkpt><trkpt lat="37.2069989" lon="13.6631593"><ele>86.0</ele><time>2026-05-06T11:36:49.38Z</time></trkpt><trkpt lat="37.2069017" lon="13.6630924"><ele>86.0</ele><time>2026-05-06T11:36:50.38Z</time></trkpt><trkpt lat="37.2067985" lon="13.6630195"><ele>86.0</ele><time>2026-05-06T11:36:51.38Z</time></trkpt><trkpt lat="37.2067038" lon="13.6629624"><ele>86.0</ele><time>2026-05-06T11:36:52.38Z</time></trkpt><trkpt lat="37.2066124" lon="13.6629225"><ele>86.0</ele><time>2026-05-06T11:36:53.382Z</time></trkpt><trkpt lat="37.2065145" lon="13.6628964"><ele>86.0</ele><time>2026-05-06T11:36:54.38Z</time></trkpt><trkpt lat="37.2064161" lon="13.6628749"><ele>84.8</ele><time>2026-05-06T11:36:55.381Z</time></trkpt><trkpt lat="37.2063238" lon="13.6628391"><ele>83.6</ele><time>2026-05-06T11:36:56.38Z</time></trkpt><trkpt lat="37.206236" lon="13.6627914"><ele>82.4</ele><time>2026-05-06T11:36:57.38Z</time></trkpt><trkpt lat="37.2061497" lon="13.6627385"><ele>81.2</ele><time>2026-05-06T11:36:58.38Z</time></trkpt><trkpt lat="37.2060676" lon="13.6626782"><ele>80.0</ele><time>2026-05-06T11:36:59.381Z</time></trkpt><trkpt lat="37.205991" lon="13.6626287"><ele>80.0</ele><time>2026-05-06T11:37:00.38Z</time></trkpt><trkpt lat="37.2059155" lon="13.6625845"><ele>80.0</ele><time>2026-05-06T11:37:01.38Z</time></trkpt><trkpt lat="37.2058393" lon="13.6625453"><ele>80.0</ele><time>2026-05-06T11:37:02.382Z</time></trkpt><trkpt lat="37.2057659" lon="13.6625135"><ele>80.0</ele><time>2026-05-06T11:37:03.38Z</time></trkpt><trkpt lat="37.2057002" lon="13.6624828"><ele>80.0</ele><time>2026-05-06T11:37:04.381Z</time></trkpt><trkpt lat="37.2056301" lon="13.6624529"><ele>80.0</ele><time>2026-05-06T11:37:05.381Z</time></trkpt><trkpt lat="37.2055607" lon="13.6624293"><ele>80.42857142857143</ele><time>2026-05-06T11:37:06.381Z</time></trkpt><trkpt lat="37.2054897" lon="13.6624022"><ele>80.85714285714286</ele><time>2026-05-06T11:37:07.38Z</time></trkpt><trkpt lat="37.2054179" lon="13.6623754"><ele>81.28571428571428</ele><time>2026-05-06T11:37:08.38Z</time></trkpt><trkpt lat="37.2053448" lon="13.6623502"><ele>81.71428571428572</ele><time>2026-05-06T11:37:09.38Z</time></trkpt><trkpt lat="37.2052723" lon="13.6623276"><ele>82.14285714285715</ele><time>2026-05-06T11:37:10.382Z</time></trkpt><trkpt lat="37.2051993" lon="13.6623134"><ele>82.57142857142857</ele><time>2026-05-06T11:37:11.381Z</time></trkpt><trkpt lat="37.2051324" lon="13.6622903"><ele>83.0</ele><time>2026-05-06T11:37:12.38Z</time></trkpt><trkpt lat="37.2050157" lon="13.6622468"><ele>83.0</ele><time>2026-05-06T11:37:14.38Z</time></trkpt><trkpt lat="37.2048981" lon="13.662211"><ele>83.0</ele><time>2026-05-06T11:37:16.38Z</time></trkpt><trkpt lat="37.2048292" lon="13.6621838"><ele>83.0</ele><time>2026-05-06T11:37:17.381Z</time></trkpt><trkpt lat="37.2047634" lon="13.6621562"><ele>83.0</ele><time>2026-05-06T11:37:18.382Z</time></trkpt><trkpt lat="37.2047012" lon="13.6621268"><ele>83.0</ele><time>2026-05-06T11:37:19.381Z</time></trkpt><trkpt lat="37.2046387" lon="13.6621"><ele>83.0</ele><time>2026-05-06T11:37:20.38Z</time></trkpt><trkpt lat="37.2045782" lon="13.6620716"><ele>83.42857142857143</ele><time>2026-05-06T11:37:21.381Z</time></trkpt><trkpt lat="37.204518" lon="13.662039"><ele>83.85714285714286</ele><time>2026-05-06T11:37:22.382Z</time></trkpt><trkpt lat="37.2044527" lon="13.6620124"><ele>84.28571428571429</ele><time>2026-05-06T11:37:23.381Z</time></trkpt><trkpt lat="37.2043884" lon="13.6619859"><ele>84.71428571428572</ele><time>2026-05-06T11:37:24.381Z</time></trkpt><trkpt lat="37.204317" lon="13.6619568"><ele>85.14285714285714</ele><time>2026-05-06T11:37:25.381Z</time></trkpt><trkpt lat="37.2042457" lon="13.6619266"><ele>85.57142857142858</ele><time>2026-05-06T11:37:26.381Z</time></trkpt><trkpt lat="37.2041726" lon="13.6618977"><ele>86.0</ele><time>2026-05-06T11:37:27.381Z</time></trkpt><trkpt lat="37.2041024" lon="13.6618651"><ele>84.28571428571429</ele><time>2026-05-06T11:37:28.38Z</time></trkpt><trkpt lat="37.2040374" lon="13.6618357"><ele>82.57142857142857</ele><time>2026-05-06T11:37:29.38Z</time></trkpt><trkpt lat="37.2039676" lon="13.6618117"><ele>80.85714285714286</ele><time>2026-05-06T11:37:30.38Z</time></trkpt><trkpt lat="37.2038991" lon="13.6617849"><ele>79.14285714285714</ele><time>2026-05-06T11:37:31.382Z</time></trkpt><trkpt lat="37.203831" lon="13.6617626"><ele>77.42857142857143</ele><time>2026-05-06T11:37:32.381Z</time></trkpt><trkpt lat="37.2037507" lon="13.6617466"><ele>75.71428571428572</ele><time>2026-05-06T11:37:33.38Z</time></trkpt><trkpt lat="37.2036675" lon="13.6617282"><ele>74.0</ele><time>2026-05-06T11:37:34.381Z</time></trkpt><trkpt lat="37.2035872" lon="13.6617197"><ele>74.0</ele><time>2026-05-06T11:37:35.381Z</time></trkpt><trkpt lat="37.2035085" lon="13.6617137"><ele>74.0</ele><time>2026-05-06T11:37:36.38Z</time></trkpt><trkpt lat="37.2034237" lon="13.6617106"><ele>74.0</ele><time>2026-05-06T11:37:37.381Z</time></trkpt><trkpt lat="37.2033393" lon="13.6616993"><ele>74.0</ele><time>2026-05-06T11:37:38.381Z</time></trkpt><trkpt lat="37.2032547" lon="13.6616761"><ele>74.0</ele><time>2026-05-06T11:37:39.381Z</time></trkpt><trkpt lat="37.2031636" lon="13.6616595"><ele>74.0</ele><time>2026-05-06T11:37:40.381Z</time></trkpt><trkpt lat="37.2030682" lon="13.6616397"><ele>73.60000000000001</ele><time>2026-05-06T11:37:41.381Z</time></trkpt><trkpt lat="37.2029722" lon="13.6616244"><ele>73.2</ele><time>2026-05-06T11:37:42.38Z</time></trkpt><trkpt lat="37.2028675" lon="13.6616222"><ele>72.80000000000001</ele><time>2026-05-06T11:37:43.38Z</time></trkpt><trkpt lat="37.2027781" lon="13.661628"><ele>72.4</ele><time>2026-05-06T11:37:44.38Z</time></trkpt><trkpt lat="37.2026938" lon="13.6616455"><ele>72.0</ele><time>2026-05-06T11:37:45.38Z</time></trkpt><trkpt lat="37.2026068" lon="13.6616616"><ele>72.0</ele><time>2026-05-06T11:37:46.381Z</time></trkpt><trkpt lat="37.2025214" lon="13.6616799"><ele>72.0</ele><time>2026-05-06T11:37:47.38Z</time></trkpt><trkpt lat="37.2024397" lon="13.6616975"><ele>72.0</ele><time>2026-05-06T11:37:48.381Z</time></trkpt><trkpt lat="37.2023556" lon="13.6617167"><ele>72.0</ele><time>2026-05-06T11:37:49.381Z</time></trkpt><trkpt lat="37.2022751" lon="13.6617481"><ele>72.0</ele><time>2026-05-06T11:37:50.382Z</time></trkpt><trkpt lat="37.2021966" lon="13.6617897"><ele>72.0</ele><time>2026-05-06T11:37:51.38Z</time></trkpt><trkpt lat="37.2021187" lon="13.6618415"><ele>70.66666666666667</ele><time>2026-05-06T11:37:52.381Z</time></trkpt><trkpt lat="37.2020491" lon="13.6619158"><ele>69.33333333333333</ele><time>2026-05-06T11:37:53.38Z</time></trkpt><trkpt lat="37.2019812" lon="13.6619851"><ele>68.0</ele><time>2026-05-06T11:37:54.38Z</time></trkpt><trkpt lat="37.201916" lon="13.6620478"><ele>66.66666666666666</ele><time>2026-05-06T11:37:55.38Z</time></trkpt><trkpt lat="37.2018511" lon="13.6621154"><ele>65.33333333333333</ele><time>2026-05-06T11:37:56.381Z</time></trkpt><trkpt lat="37.2017904" lon="13.6621871"><ele>64.0</ele><time>2026-05-06T11:37:57.38Z</time></trkpt><trkpt lat="37.2017347" lon="13.6622606"><ele>65.33333333333333</ele><time>2026-05-06T11:37:58.381Z</time></trkpt><trkpt lat="37.2016887" lon="13.662331"><ele>66.66666666666666</ele><time>2026-05-06T11:37:59.38Z</time></trkpt><trkpt lat="37.2016438" lon="13.6623956"><ele>68.0</ele><time>2026-05-06T11:38:00.381Z</time></trkpt><trkpt lat="37.2016009" lon="13.6624629"><ele>69.33333333333333</ele><time>2026-05-06T11:38:01.381Z</time></trkpt><trkpt lat="37.2015128" lon="13.662564"><ele>70.66666666666667</ele><time>2026-05-06T11:38:03.381Z</time></trkpt><trkpt lat="37.2014251" lon="13.6626467"><ele>72.0</ele><time>2026-05-06T11:38:05.38Z</time></trkpt><trkpt lat="37.2013254" lon="13.6627212"><ele>71.8</ele><time>2026-05-06T11:38:07.382Z</time></trkpt><trkpt lat="37.2012213" lon="13.6627992"><ele>71.6</ele><time>2026-05-06T11:38:09.38Z</time></trkpt><trkpt lat="37.2011297" lon="13.662867"><ele>71.39999999999999</ele><time>2026-05-06T11:38:11.381Z</time></trkpt><trkpt lat="37.2010424" lon="13.6629312"><ele>71.2</ele><time>2026-05-06T11:38:13.38Z</time></trkpt><trkpt lat="37.2009448" lon="13.6629688"><ele>71.0</ele><time>2026-05-06T11:38:15.38Z</time></trkpt><trkpt lat="37.2008519" lon="13.6630148"><ele>71.0</ele><time>2026-05-06T11:38:17.381Z</time></trkpt><trkpt lat="37.2007503" lon="13.6630725"><ele>71.0</ele><time>2026-05-06T11:38:19.381Z</time></trkpt><trkpt lat="37.2006486" lon="13.6631304"><ele>71.0</ele><time>2026-05-06T11:38:21.38Z</time></trkpt><trkpt lat="37.2005522" lon="13.6631757"><ele>71.0</ele><time>2026-05-06T11:38:23.38Z</time></trkpt><trkpt lat="37.2004365" lon="13.6632167"><ele>71.0</ele><time>2026-05-06T11:38:25.381Z</time></trkpt><trkpt lat="37.2003273" lon="13.6632511"><ele>69.39999999999999</ele><time>2026-05-06T11:38:27.38Z</time></trkpt><trkpt lat="37.2002283" lon="13.6632938"><ele>67.8</ele><time>2026-05-06T11:38:29.381Z</time></trkpt><trkpt lat="37.2001338" lon="13.6633231"><ele>66.19999999999999</ele><time>2026-05-06T11:38:31.381Z</time></trkpt><trkpt lat="37.2000436" lon="13.6633633"><ele>64.6</ele><time>2026-05-06T11:38:33.38Z</time></trkpt><trkpt lat="37.1999547" lon="13.663403"><ele>63.0</ele><time>2026-05-06T11:38:35.381Z</time></trkpt><trkpt lat="37.1998664" lon="13.6634214"><ele>62.0</ele><time>2026-05-06T11:38:37.38Z</time></trkpt><trkpt lat="37.1997779" lon="13.6634139"><ele>61.0</ele><time>2026-05-06T11:38:39.38Z</time></trkpt><trkpt lat="37.1996869" lon="13.6633998"><ele>60.0</ele><time>2026-05-06T11:38:41.381Z</time></trkpt><trkpt lat="37.1995924" lon="13.6633842"><ele>59.0</ele><time>2026-05-06T11:38:43.381Z</time></trkpt><trkpt lat="37.199502" lon="13.6633678"><ele>58.0</ele><time>2026-05-06T11:38:45.38Z</time></trkpt><trkpt lat="37.1994232" lon="13.6633562"><ele>57.0</ele><time>2026-05-06T11:38:47.38Z</time></trkpt><trkpt lat="37.1993523" lon="13.6633351"><ele>57.0</ele><time>2026-05-06T11:38:49.38Z</time></trkpt><trkpt lat="37.1992859" lon="13.66333"><ele>57.0</ele><time>2026-05-06T11:38:51.381Z</time></trkpt><trkpt lat="37.1992178" lon="13.6633241"><ele>57.0</ele><time>2026-05-06T11:38:53.381Z</time></trkpt><trkpt lat="37.1991244" lon="13.6633245"><ele>57.0</ele><time>2026-05-06T11:38:55.38Z</time></trkpt><trkpt lat="37.1990184" lon="13.6633099"><ele>57.0</ele><time>2026-05-06T11:38:57.381Z</time></trkpt><trkpt lat="37.1989101" lon="13.6632846"><ele>57.0</ele><time>2026-05-06T11:38:59.381Z</time></trkpt><trkpt lat="37.1988054" lon="13.6632575"><ele>56.0</ele><time>2026-05-06T11:39:01.38Z</time></trkpt><trkpt lat="37.1986876" lon="13.6632469"><ele>55.0</ele><time>2026-05-06T11:39:03.38Z</time></trkpt><trkpt lat="37.1985844" lon="13.6632175"><ele>54.0</ele><time>2026-05-06T11:39:05.381Z</time></trkpt><trkpt lat="37.1984881" lon="13.6631587"><ele>53.0</ele><time>2026-05-06T11:39:07.38Z</time></trkpt><trkpt lat="37.1984003" lon="13.6630815"><ele>52.0</ele><time>2026-05-06T11:39:09.38Z</time></trkpt><trkpt lat="37.1983146" lon="13.6630264"><ele>51.99999999999999</ele><time>2026-05-06T11:39:11.38Z</time></trkpt><trkpt lat="37.198224" lon="13.6629931"><ele>52.0</ele><time>2026-05-06T11:39:13.38Z</time></trkpt><trkpt lat="37.1981293" lon="13.662969"><ele>52.0</ele><time>2026-05-06T11:39:15.38Z</time></trkpt><trkpt lat="37.1980365" lon="13.6629751"><ele>52.0</ele><time>2026-05-06T11:39:17.38Z</time></trkpt><trkpt lat="37.1979532" lon="13.6629831"><ele>51.99999999999999</ele><time>2026-05-06T11:39:19.38Z</time></trkpt><trkpt lat="37.1978748" lon="13.6629872"><ele>52.0</ele><time>2026-05-06T11:39:21.38Z</time></trkpt><trkpt lat="37.1978086" lon="13.6629993"><ele>50.857142857142854</ele><time>2026-05-06T11:39:23.38Z</time></trkpt><trkpt lat="37.1977451" lon="13.6630145"><ele>49.714285714285715</ele><time>2026-05-06T11:39:25.381Z</time></trkpt><trkpt lat="37.1976647" lon="13.663032"><ele>48.57142857142857</ele><time>2026-05-06T11:39:28.381Z</time></trkpt><trkpt lat="37.1975991" lon="13.6630674"><ele>47.42857142857143</ele><time>2026-05-06T11:39:31.38Z</time></trkpt><trkpt lat="37.1975318" lon="13.663092"><ele>46.285714285714285</ele><time>2026-05-06T11:39:34.38Z</time></trkpt><trkpt lat="37.1974655" lon="13.6630986"><ele>45.142857142857146</ele><time>2026-05-06T11:39:37.381Z</time></trkpt><trkpt lat="37.197405" lon="13.6630739"><ele>44.0</ele><time>2026-05-06T11:39:39.38Z</time></trkpt><trkpt lat="37.1973515" lon="13.663022"><ele>42.0</ele><time>2026-05-06T11:39:41.38Z</time></trkpt><trkpt lat="37.1972997" lon="13.6629365"><ele>40.0</ele><time>2026-05-06T11:39:43.381Z</time></trkpt><trkpt lat="37.1972344" lon="13.6628692"><ele>38.0</ele><time>2026-05-06T11:39:45.381Z</time></trkpt><trkpt lat="37.1971654" lon="13.6628199"><ele>36.0</ele><time>2026-05-06T11:39:47.38Z</time></trkpt><trkpt lat="37.1970903" lon="13.6627992"><ele>34.0</ele><time>2026-05-06T11:39:49.38Z</time></trkpt><trkpt lat="37.1970183" lon="13.6627971"><ele>32.0</ele><time>2026-05-06T11:39:51.38Z</time></trkpt><trkpt lat="37.1969307" lon="13.6628134"><ele>31.999999999999996</ele><time>2026-05-06T11:39:54.382Z</time></trkpt><trkpt lat="37.1968629" lon="13.6628374"><ele>32.0</ele><time>2026-05-06T11:39:56.38Z</time></trkpt><trkpt lat="37.1967907" lon="13.6628655"><ele>32.0</ele><time>2026-05-06T11:39:58.381Z</time></trkpt><trkpt lat="37.1967239" lon="13.6629091"><ele>32.0</ele><time>2026-05-06T11:40:00.38Z</time></trkpt><trkpt lat="37.1966522" lon="13.6629592"><ele>31.999999999999996</ele><time>2026-05-06T11:40:02.38Z</time></trkpt><trkpt lat="37.1965685" lon="13.6629931"><ele>32.0</ele><time>2026-05-06T11:40:04.381Z</time></trkpt><trkpt lat="37.1964807" lon="13.6630046"><ele>29.999999999999996</ele><time>2026-05-06T11:40:06.38Z</time></trkpt><trkpt lat="37.196395" lon="13.6629916"><ele>28.0</ele><time>2026-05-06T11:40:08.38Z</time></trkpt><trkpt lat="37.1963137" lon="13.6629726"><ele>26.0</ele><time>2026-05-06T11:40:10.38Z</time></trkpt><trkpt lat="37.1962268" lon="13.6629679"><ele>24.0</ele><time>2026-05-06T11:40:12.38Z</time></trkpt><trkpt lat="37.1961287" lon="13.6629574"><ele>22.0</ele><time>2026-05-06T11:40:14.38Z</time></trkpt><trkpt lat="37.1960569" lon="13.6629656"><ele>20.0</ele><time>2026-05-06T11:40:16.38Z</time></trkpt><trkpt lat="37.1959925" lon="13.6629558"><ele>20.0</ele><time>2026-05-06T11:40:18.38Z</time></trkpt><trkpt lat="37.1959658" lon="13.6628654"><ele>20.0</ele><time>2026-05-06T11:40:21.38Z</time></trkpt><trkpt lat="37.1959052" lon="13.6628417"><ele>20.0</ele><time>2026-05-06T11:40:24.38Z</time></trkpt><trkpt lat="37.1958701" lon="13.6629602"><ele>20.0</ele><time>2026-05-06T11:40:28.38Z</time></trkpt><trkpt lat="37.1958478" lon="13.6630722"><ele>20.0</ele><time>2026-05-06T11:40:30.38Z</time></trkpt><trkpt lat="37.1958051" lon="13.6631829"><ele>20.0</ele><time>2026-05-06T11:40:32.381Z</time></trkpt><trkpt lat="37.1957626" lon="13.6632644"><ele>20.0</ele><time>2026-05-06T11:40:34.381Z</time></trkpt><trkpt lat="37.1957092" lon="13.6633344"><ele>20.0</ele><time>2026-05-06T11:40:36.381Z</time></trkpt><trkpt lat="37.1956558" lon="13.6633935"><ele>20.0</ele><time>2026-05-06T11:40:38.381Z</time></trkpt><trkpt lat="37.1955983" lon="13.6634589"><ele>20.0</ele><time>2026-05-06T11:40:40.381Z</time></trkpt><trkpt lat="37.1955307" lon="13.6635388"><ele>20.0</ele><time>2026-05-06T11:40:42.381Z</time></trkpt><trkpt lat="37.1954584" lon="13.6636108"><ele>20.0</ele><time>2026-05-06T11:40:44.38Z</time></trkpt><trkpt lat="37.1953922" lon="13.6636715"><ele>19.857142857142858</ele><time>2026-05-06T11:40:46.38Z</time></trkpt><trkpt lat="37.195325" lon="13.6637074"><ele>19.714285714285715</ele><time>2026-05-06T11:40:48.38Z</time></trkpt><trkpt lat="37.1952573" lon="13.6637292"><ele>19.57142857142857</ele><time>2026-05-06T11:40:50.38Z</time></trkpt><trkpt lat="37.1951827" lon="13.6637349"><ele>19.42857142857143</ele><time>2026-05-06T11:40:52.38Z</time></trkpt><trkpt lat="37.1951062" lon="13.6637186"><ele>19.28571428571429</ele><time>2026-05-06T11:40:54.381Z</time></trkpt><trkpt lat="37.1950382" lon="13.663704"><ele>19.142857142857142</ele><time>2026-05-06T11:40:56.38Z</time></trkpt><trkpt lat="37.1949778" lon="13.663652"><ele>19.0</ele><time>2026-05-06T11:40:58.38Z</time></trkpt><trkpt lat="37.194915" lon="13.6635986"><ele>17.333333333333332</ele><time>2026-05-06T11:41:00.381Z</time></trkpt><trkpt lat="37.1948304" lon="13.6635852"><ele>15.666666666666666</ele><time>2026-05-06T11:41:02.38Z</time></trkpt><trkpt lat="37.1947332" lon="13.663537"><ele>14.0</ele><time>2026-05-06T11:41:04.381Z</time></trkpt><trkpt lat="37.1946588" lon="13.6634919"><ele>12.333333333333332</ele><time>2026-05-06T11:41:06.38Z</time></trkpt><trkpt lat="37.1945874" lon="13.6634538"><ele>10.666666666666666</ele><time>2026-05-06T11:41:08.381Z</time></trkpt><trkpt lat="37.1945204" lon="13.6634085"><ele>9.0</ele><time>2026-05-06T11:41:10.381Z</time></trkpt><trkpt lat="37.1944634" lon="13.6633528"><ele>9.0</ele><time>2026-05-06T11:41:12.381Z</time></trkpt><trkpt lat="37.194409" lon="13.6632789"><ele>9.0</ele><time>2026-05-06T11:41:14.381Z</time></trkpt><trkpt lat="37.1943673" lon="13.6631952"><ele>9.0</ele><time>2026-05-06T11:41:16.381Z</time></trkpt><trkpt lat="37.1943263" lon="13.6631196"><ele>9.0</ele><time>2026-05-06T11:41:18.381Z</time></trkpt><trkpt lat="37.194273" lon="13.6630439"><ele>9.0</ele><time>2026-05-06T11:41:20.381Z</time></trkpt><trkpt lat="37.1942038" lon="13.6629559"><ele>9.0</ele><time>2026-05-06T11:41:22.38Z</time></trkpt><trkpt lat="37.194177" lon="13.6628589"><ele>8.833333333333334</ele><time>2026-05-06T11:41:24.381Z</time></trkpt><trkpt lat="37.1941839" lon="13.6627284"><ele>8.666666666666666</ele><time>2026-05-06T11:41:26.38Z</time></trkpt><trkpt lat="37.1941919" lon="13.6626184"><ele>8.5</ele><time>2026-05-06T11:41:28.38Z</time></trkpt><trkpt lat="37.1942041" lon="13.6625144"><ele>8.333333333333332</ele><time>2026-05-06T11:41:30.38Z</time></trkpt><trkpt lat="37.194208" lon="13.6624258"><ele>8.166666666666666</ele><time>2026-05-06T11:41:32.381Z</time></trkpt><trkpt lat="37.1941664" lon="13.6623492"><ele>8.0</ele><time>2026-05-06T11:41:35.38Z</time></trkpt><trkpt lat="37.1941617" lon="13.6622354"><ele>7.999999999999999</ele><time>2026-05-06T11:50:16.38Z</time></trkpt><trkpt lat="37.1942048" lon="13.6621721"><ele>8.0</ele><time>2026-05-06T11:50:18.38Z</time></trkpt><trkpt lat="37.1942431" lon="13.6622706"><ele>8.0</ele><time>2026-05-06T11:50:21.379Z</time></trkpt><trkpt lat="37.1942405" lon="13.66236"><ele>8.0</ele><time>2026-05-06T11:50:22.379Z</time></trkpt><trkpt lat="37.1942544" lon="13.662464"><ele>7.999999999999999</ele><time>2026-05-06T11:50:23.38Z</time></trkpt><trkpt lat="37.1942661" lon="13.6625928"><ele>8.0</ele><time>2026-05-06T11:50:24.38Z</time></trkpt><trkpt lat="37.1942741" lon="13.6627146"><ele>8.200000000000001</ele><time>2026-05-06T11:50:25.38Z</time></trkpt><trkpt lat="37.1942843" lon="13.6628168"><ele>8.4</ele><time>2026-05-06T11:50:26.381Z</time></trkpt><trkpt lat="37.1943059" lon="13.6629211"><ele>8.600000000000001</ele><time>2026-05-06T11:50:27.381Z</time></trkpt><trkpt lat="37.194327" lon="13.6630132"><ele>8.8</ele><time>2026-05-06T11:50:28.379Z</time></trkpt><trkpt lat="37.1943613" lon="13.6631611"><ele>9.0</ele><time>2026-05-06T11:50:30.38Z</time></trkpt><trkpt lat="37.1944242" lon="13.6632833"><ele>9.0</ele><time>2026-05-06T11:50:32.381Z</time></trkpt><trkpt lat="37.1944965" lon="13.6633695"><ele>9.0</ele><time>2026-05-06T11:50:34.381Z</time></trkpt><trkpt lat="37.1945756" lon="13.6634297"><ele>9.0</ele><time>2026-05-06T11:50:37.379Z</time></trkpt><trkpt lat="37.1946526" lon="13.663469"><ele>9.0</ele><time>2026-05-06T11:50:39.379Z</time></trkpt><trkpt lat="37.1947636" lon="13.6635226"><ele>9.0</ele><time>2026-05-06T11:50:41.38Z</time></trkpt><trkpt lat="37.1948312" lon="13.6635532"><ele>9.666666666666666</ele><time>2026-05-06T11:50:42.381Z</time></trkpt><trkpt lat="37.1949016" lon="13.6635883"><ele>10.333333333333332</ele><time>2026-05-06T11:50:43.38Z</time></trkpt><trkpt lat="37.1949674" lon="13.6636247"><ele>11.0</ele><time>2026-05-06T11:50:44.379Z</time></trkpt><trkpt lat="37.1950293" lon="13.6636745"><ele>11.666666666666666</ele><time>2026-05-06T11:50:45.379Z</time></trkpt><trkpt lat="37.1950934" lon="13.6637094"><ele>12.333333333333332</ele><time>2026-05-06T11:50:46.38Z</time></trkpt><trkpt lat="37.1951635" lon="13.663721"><ele>13.0</ele><time>2026-05-06T11:50:47.379Z</time></trkpt><trkpt lat="37.1952687" lon="13.6637006"><ele>12.999999999999998</ele><time>2026-05-06T11:50:49.379Z</time></trkpt><trkpt lat="37.19536" lon="13.6636751"><ele>13.0</ele><time>2026-05-06T11:50:51.38Z</time></trkpt><trkpt lat="37.195465" lon="13.6636179"><ele>13.0</ele><time>2026-05-06T11:50:53.38Z</time></trkpt><trkpt lat="37.1955214" lon="13.6635537"><ele>13.0</ele><time>2026-05-06T11:50:54.379Z</time></trkpt><trkpt lat="37.1955834" lon="13.6634932"><ele>12.999999999999998</ele><time>2026-05-06T11:50:55.379Z</time></trkpt><trkpt lat="37.1956426" lon="13.663425"><ele>13.0</ele><time>2026-05-06T11:50:56.379Z</time></trkpt><trkpt lat="37.1957012" lon="13.6633724"><ele>14.166666666666666</ele><time>2026-05-06T11:50:57.379Z</time></trkpt><trkpt lat="37.1957527" lon="13.6633008"><ele>15.333333333333332</ele><time>2026-05-06T11:50:58.38Z</time></trkpt><trkpt lat="37.1957904" lon="13.6632254"><ele>16.5</ele><time>2026-05-06T11:50:59.379Z</time></trkpt><trkpt lat="37.1958232" lon="13.6631498"><ele>17.666666666666668</ele><time>2026-05-06T11:51:00.379Z</time></trkpt><trkpt lat="37.1958507" lon="13.6630775"><ele>18.833333333333336</ele><time>2026-05-06T11:51:01.379Z</time></trkpt><trkpt lat="37.1958823" lon="13.6629404"><ele>20.0</ele><time>2026-05-06T11:51:03.38Z</time></trkpt><trkpt lat="37.1959171" lon="13.6628655"><ele>20.0</ele><time>2026-05-06T11:51:05.379Z</time></trkpt><trkpt lat="37.1960139" lon="13.6628921"><ele>20.0</ele><time>2026-05-06T11:53:01.38Z</time></trkpt><trkpt lat="37.1961205" lon="13.6629391"><ele>20.0</ele><time>2026-05-06T11:53:03.38Z</time></trkpt><trkpt lat="37.1961891" lon="13.6629446"><ele>20.0</ele><time>2026-05-06T11:53:04.38Z</time></trkpt><trkpt lat="37.1962577" lon="13.6629511"><ele>20.0</ele><time>2026-05-06T11:53:05.379Z</time></trkpt><trkpt lat="37.196337" lon="13.6629553"><ele>20.0</ele><time>2026-05-06T11:53:06.379Z</time></trkpt><trkpt lat="37.1964216" lon="13.6629657"><ele>22.0</ele><time>2026-05-06T11:53:07.38Z</time></trkpt><trkpt lat="37.1965041" lon="13.662968"><ele>24.0</ele><time>2026-05-06T11:53:08.381Z</time></trkpt><trkpt lat="37.1965877" lon="13.6629523"><ele>26.0</ele><time>2026-05-06T11:53:09.38Z</time></trkpt><trkpt lat="37.1966619" lon="13.6629222"><ele>28.0</ele><time>2026-05-06T11:53:10.379Z</time></trkpt><trkpt lat="37.1967411" lon="13.6628895"><ele>29.999999999999996</ele><time>2026-05-06T11:53:11.379Z</time></trkpt><trkpt lat="37.1968139" lon="13.6628641"><ele>32.0</ele><time>2026-05-06T11:53:12.38Z</time></trkpt><trkpt lat="37.1968941" lon="13.6628402"><ele>31.999999999999996</ele><time>2026-05-06T11:53:13.379Z</time></trkpt><trkpt lat="37.196974" lon="13.6628209"><ele>32.0</ele><time>2026-05-06T11:53:14.38Z</time></trkpt><trkpt lat="37.1970542" lon="13.6628172"><ele>32.0</ele><time>2026-05-06T11:53:15.379Z</time></trkpt><trkpt lat="37.1971347" lon="13.6628298"><ele>32.0</ele><time>2026-05-06T11:53:16.38Z</time></trkpt><trkpt lat="37.1972095" lon="13.6628789"><ele>31.999999999999996</ele><time>2026-05-06T11:53:17.38Z</time></trkpt><trkpt lat="37.1972804" lon="13.6629361"><ele>32.0</ele><time>2026-05-06T11:53:18.379Z</time></trkpt><trkpt lat="37.1973453" lon="13.6630088"><ele>34.0</ele><time>2026-05-06T11:53:19.379Z</time></trkpt><trkpt lat="37.1974112" lon="13.6630707"><ele>36.0</ele><time>2026-05-06T11:53:20.38Z</time></trkpt><trkpt lat="37.1975181" lon="13.6630811"><ele>38.0</ele><time>2026-05-06T11:53:22.379Z</time></trkpt><trkpt lat="37.1975859" lon="13.6630631"><ele>40.0</ele><time>2026-05-06T11:53:23.379Z</time></trkpt><trkpt lat="37.1976527" lon="13.6630429"><ele>42.0</ele><time>2026-05-06T11:53:24.38Z</time></trkpt><trkpt lat="37.1977224" lon="13.6630271"><ele>44.0</ele><time>2026-05-06T11:53:25.38Z</time></trkpt><trkpt lat="37.1978049" lon="13.6630154"><ele>44.0</ele><time>2026-05-06T11:53:26.38Z</time></trkpt><trkpt lat="37.1978857" lon="13.6630005"><ele>44.0</ele><time>2026-05-06T11:53:27.379Z</time></trkpt><trkpt lat="37.1979779" lon="13.6629855"><ele>44.0</ele><time>2026-05-06T11:53:28.38Z</time></trkpt><trkpt lat="37.198074" lon="13.6629743"><ele>44.0</ele><time>2026-05-06T11:53:29.38Z</time></trkpt><trkpt lat="37.1981764" lon="13.6629869"><ele>44.0</ele><time>2026-05-06T11:53:30.38Z</time></trkpt><trkpt lat="37.1982718" lon="13.6630166"><ele>45.33333333333333</ele><time>2026-05-06T11:53:31.379Z</time></trkpt><trkpt lat="37.1983491" lon="13.6630596"><ele>46.666666666666664</ele><time>2026-05-06T11:53:32.38Z</time></trkpt><trkpt lat="37.1984216" lon="13.6631191"><ele>48.0</ele><time>2026-05-06T11:53:33.38Z</time></trkpt><trkpt lat="37.198496" lon="13.6631811"><ele>49.33333333333333</ele><time>2026-05-06T11:53:34.38Z</time></trkpt><trkpt lat="37.1985677" lon="13.6632176"><ele>50.666666666666664</ele><time>2026-05-06T11:53:35.38Z</time></trkpt><trkpt lat="37.1986463" lon="13.6632429"><ele>52.0</ele><time>2026-05-06T11:53:36.38Z</time></trkpt><trkpt lat="37.1987308" lon="13.663254"><ele>52.0</ele><time>2026-05-06T11:53:37.379Z</time></trkpt><trkpt lat="37.1988195" lon="13.6632615"><ele>52.0</ele><time>2026-05-06T11:53:38.379Z</time></trkpt><trkpt lat="37.1989038" lon="13.6632803"><ele>52.0</ele><time>2026-05-06T11:53:39.379Z</time></trkpt><trkpt lat="37.1990048" lon="13.6632967"><ele>52.0</ele><time>2026-05-06T11:53:40.379Z</time></trkpt><trkpt lat="37.199102" lon="13.6633112"><ele>52.0</ele><time>2026-05-06T11:53:41.38Z</time></trkpt><trkpt lat="37.1991863" lon="13.6633198"><ele>52.83333333333333</ele><time>2026-05-06T11:53:42.38Z</time></trkpt><trkpt lat="37.1992669" lon="13.6633299"><ele>53.666666666666664</ele><time>2026-05-06T11:53:43.38Z</time></trkpt><trkpt lat="37.1993359" lon="13.6633521"><ele>54.5</ele><time>2026-05-06T11:53:44.379Z</time></trkpt><trkpt lat="37.1994118" lon="13.6633666"><ele>55.33333333333333</ele><time>2026-05-06T11:53:45.379Z</time></trkpt><trkpt lat="37.1994843" lon="13.6633785"><ele>56.166666666666664</ele><time>2026-05-06T11:53:46.38Z</time></trkpt><trkpt lat="37.1995579" lon="13.6633887"><ele>57.0</ele><time>2026-05-06T11:53:47.38Z</time></trkpt><trkpt lat="37.1996318" lon="13.6634037"><ele>57.0</ele><time>2026-05-06T11:53:48.38Z</time></trkpt><trkpt lat="37.199709" lon="13.6634151"><ele>57.0</ele><time>2026-05-06T11:53:49.38Z</time></trkpt><trkpt lat="37.1997817" lon="13.6634343"><ele>57.0</ele><time>2026-05-06T11:53:50.379Z</time></trkpt><trkpt lat="37.199896" lon="13.6634378"><ele>57.0</ele><time>2026-05-06T11:53:52.379Z</time></trkpt><trkpt lat="37.1999742" lon="13.6634038"><ele>57.0</ele><time>2026-05-06T11:53:54.38Z</time></trkpt><trkpt lat="37.2000544" lon="13.6633705"><ele>57.0</ele><time>2026-05-06T11:54:26.379Z</time></trkpt><trkpt lat="37.2001645" lon="13.6633286"><ele>58.0</ele><time>2026-05-06T11:54:28.379Z</time></trkpt><trkpt lat="37.2002396" lon="13.6633052"><ele>59.0</ele><time>2026-05-06T11:54:29.38Z</time></trkpt><trkpt lat="37.2003167" lon="13.6632815"><ele>60.0</ele><time>2026-05-06T11:54:30.379Z</time></trkpt><trkpt lat="37.2004004" lon="13.6632439"><ele>61.0</ele><time>2026-05-06T11:54:31.38Z</time></trkpt><trkpt lat="37.2004876" lon="13.6632031"><ele>62.0</ele><time>2026-05-06T11:54:32.379Z</time></trkpt><trkpt lat="37.2005751" lon="13.6631695"><ele>63.0</ele><time>2026-05-06T11:54:33.379Z</time></trkpt><trkpt lat="37.2006677" lon="13.6631295"><ele>64.6</ele><time>2026-05-06T11:54:34.379Z</time></trkpt><trkpt lat="37.2007598" lon="13.6630807"><ele>66.19999999999999</ele><time>2026-05-06T11:54:35.38Z</time></trkpt><trkpt lat="37.2008499" lon="13.6630349"><ele>67.8</ele><time>2026-05-06T11:54:36.379Z</time></trkpt><trkpt lat="37.2009337" lon="13.662992"><ele>69.39999999999999</ele><time>2026-05-06T11:54:37.379Z</time></trkpt><trkpt lat="37.2010224" lon="13.6629417"><ele>71.0</ele><time>2026-05-06T11:54:38.379Z</time></trkpt><trkpt lat="37.2010972" lon="13.6628919"><ele>71.0</ele><time>2026-05-06T11:54:39.38Z</time></trkpt><trkpt lat="37.2011723" lon="13.6628416"><ele>71.0</ele><time>2026-05-06T11:54:40.379Z</time></trkpt><trkpt lat="37.2012368" lon="13.6627871"><ele>71.0</ele><time>2026-05-06T11:54:41.38Z</time></trkpt><trkpt lat="37.2012978" lon="13.6627384"><ele>71.0</ele><time>2026-05-06T11:54:42.38Z</time></trkpt><trkpt lat="37.2013602" lon="13.6626953"><ele>71.0</ele><time>2026-05-06T11:54:43.379Z</time></trkpt><trkpt lat="37.2014259" lon="13.6626423"><ele>71.0</ele><time>2026-05-06T11:54:44.379Z</time></trkpt><trkpt lat="37.2014886" lon="13.6625913"><ele>73.0</ele><time>2026-05-06T11:54:45.379Z</time></trkpt><trkpt lat="37.2015377" lon="13.6625409"><ele>75.0</ele><time>2026-05-06T11:54:46.381Z</time></trkpt><trkpt lat="37.2016075" lon="13.6624557"><ele>77.0</ele><time>2026-05-06T11:54:48.381Z</time></trkpt><trkpt lat="37.2016493" lon="13.6623961"><ele>79.0</ele><time>2026-05-06T11:54:50.38Z</time></trkpt><trkpt lat="37.2017018" lon="13.6622962"><ele>81.0</ele><time>2026-05-06T11:54:57.379Z</time></trkpt><trkpt lat="37.2017663" lon="13.662206"><ele>83.0</ele><time>2026-05-06T11:54:59.379Z</time></trkpt><trkpt lat="37.201832" lon="13.6621287"><ele>83.0</ele><time>2026-05-06T11:55:01.38Z</time></trkpt><trkpt lat="37.2018969" lon="13.6620665"><ele>83.0</ele><time>2026-05-06T11:55:03.38Z</time></trkpt><trkpt lat="37.2019556" lon="13.6620075"><ele>83.0</ele><time>2026-05-06T11:55:05.379Z</time></trkpt><trkpt lat="37.2020124" lon="13.6619367"><ele>83.0</ele><time>2026-05-06T11:55:07.379Z</time></trkpt><trkpt lat="37.2020869" lon="13.6618695"><ele>83.0</ele><time>2026-05-06T11:55:09.38Z</time></trkpt><trkpt lat="37.2021713" lon="13.6618004"><ele>83.0</ele><time>2026-05-06T11:55:11.379Z</time></trkpt><trkpt lat="37.2022679" lon="13.6617501"><ele>80.80000000000001</ele><time>2026-05-06T11:55:13.379Z</time></trkpt><trkpt lat="37.2023812" lon="13.6617059"><ele>78.60000000000001</ele><time>2026-05-06T11:55:15.381Z</time></trkpt><trkpt lat="37.2024827" lon="13.6616701"><ele>76.4</ele><time>2026-05-06T11:55:17.38Z</time></trkpt><trkpt lat="37.2025802" lon="13.661648"><ele>74.2</ele><time>2026-05-06T11:55:19.379Z</time></trkpt><trkpt lat="37.2026732" lon="13.6616319"><ele>72.0</ele><time>2026-05-06T11:55:21.379Z</time></trkpt><trkpt lat="37.202764" lon="13.6616222"><ele>72.0</ele><time>2026-05-06T11:55:23.379Z</time></trkpt><trkpt lat="37.2028503" lon="13.661607"><ele>72.0</ele><time>2026-05-06T11:55:25.379Z</time></trkpt><trkpt lat="37.2029392" lon="13.6616052"><ele>72.0</ele><time>2026-05-06T11:55:27.38Z</time></trkpt><trkpt lat="37.2030337" lon="13.6616215"><ele>72.0</ele><time>2026-05-06T11:55:29.38Z</time></trkpt><trkpt lat="37.2031327" lon="13.6616502"><ele>72.0</ele><time>2026-05-06T11:55:31.38Z</time></trkpt><trkpt lat="37.2032456" lon="13.6616707"><ele>72.33333333333333</ele><time>2026-05-06T11:55:33.38Z</time></trkpt><trkpt lat="37.2033342" lon="13.6616874"><ele>72.66666666666667</ele><time>2026-05-06T11:55:35.379Z</time></trkpt><trkpt lat="37.2034198" lon="13.661699"><ele>73.0</ele><time>2026-05-06T11:55:37.38Z</time></trkpt><trkpt lat="37.2035018" lon="13.6617089"><ele>73.33333333333334</ele><time>2026-05-06T11:55:39.38Z</time></trkpt><trkpt lat="37.2035885" lon="13.6617152"><ele>73.66666666666667</ele><time>2026-05-06T11:55:41.379Z</time></trkpt><trkpt lat="37.2036747" lon="13.661732"><ele>74.0</ele><time>2026-05-06T11:55:43.38Z</time></trkpt><trkpt lat="37.2037678" lon="13.6617469"><ele>74.0</ele><time>2026-05-06T11:55:45.38Z</time></trkpt><trkpt lat="37.2038767" lon="13.6617776"><ele>74.0</ele><time>2026-05-06T11:55:47.38Z</time></trkpt><trkpt lat="37.2039911" lon="13.6618153"><ele>74.0</ele><time>2026-05-06T11:55:49.379Z</time></trkpt><trkpt lat="37.2040521" lon="13.661844"><ele>74.0</ele><time>2026-05-06T11:55:50.379Z</time></trkpt><trkpt lat="37.2041108" lon="13.6618739"><ele>74.0</ele><time>2026-05-06T11:55:51.38Z</time></trkpt><trkpt lat="37.204173" lon="13.6619008"><ele>74.0</ele><time>2026-05-06T11:55:52.379Z</time></trkpt><trkpt lat="37.2042859" lon="13.6619517"><ele>77.0</ele><time>2026-05-06T11:55:54.379Z</time></trkpt><trkpt lat="37.2044006" lon="13.662003"><ele>80.0</ele><time>2026-05-06T11:55:56.38Z</time></trkpt><trkpt lat="37.2045039" lon="13.6620523"><ele>83.0</ele><time>2026-05-06T11:55:58.38Z</time></trkpt><trkpt lat="37.2046123" lon="13.6621017"><ele>86.0</ele><time>2026-05-06T11:56:00.379Z</time></trkpt><trkpt lat="37.204721" lon="13.6621575"><ele>85.4</ele><time>2026-05-06T11:56:02.379Z</time></trkpt><trkpt lat="37.2048391" lon="13.6622164"><ele>84.8</ele><time>2026-05-06T11:56:04.381Z</time></trkpt><trkpt lat="37.2049554" lon="13.6622565"><ele>84.2</ele><time>2026-05-06T11:56:06.379Z</time></trkpt><trkpt lat="37.205018" lon="13.6622726"><ele>83.60000000000001</ele><time>2026-05-06T11:56:07.379Z</time></trkpt><trkpt lat="37.2051438" lon="13.6623069"><ele>83.0</ele><time>2026-05-06T11:56:09.379Z</time></trkpt><trkpt lat="37.2052113" lon="13.6623226"><ele>83.0</ele><time>2026-05-06T11:56:10.379Z</time></trkpt><trkpt lat="37.2052738" lon="13.6623353"><ele>83.0</ele><time>2026-05-06T11:56:11.379Z</time></trkpt><trkpt lat="37.2053931" lon="13.6623746"><ele>83.0</ele><time>2026-05-06T11:56:13.379Z</time></trkpt><trkpt lat="37.2055146" lon="13.6624149"><ele>83.0</ele><time>2026-05-06T11:56:15.379Z</time></trkpt><trkpt lat="37.2055757" lon="13.6624401"><ele>83.0</ele><time>2026-05-06T11:56:16.38Z</time></trkpt><trkpt lat="37.2056392" lon="13.6624655"><ele>83.0</ele><time>2026-05-06T11:56:17.38Z</time></trkpt><trkpt lat="37.2056989" lon="13.6624916"><ele>82.5</ele><time>2026-05-06T11:56:18.38Z</time></trkpt><trkpt lat="37.2058171" lon="13.6625327"><ele>82.0</ele><time>2026-05-06T11:56:20.38Z</time></trkpt><trkpt lat="37.2058778" lon="13.6625556"><ele>81.5</ele><time>2026-05-06T11:56:21.379Z</time></trkpt><trkpt lat="37.2059376" lon="13.6625912"><ele>81.0</ele><time>2026-05-06T11:56:22.38Z</time></trkpt><trkpt lat="37.2060512" lon="13.6626594"><ele>80.5</ele><time>2026-05-06T11:56:24.379Z</time></trkpt><trkpt lat="37.2061125" lon="13.6626996"><ele>80.0</ele><time>2026-05-06T11:56:25.379Z</time></trkpt><trkpt lat="37.2061708" lon="13.6627378"><ele>80.0</ele><time>2026-05-06T11:56:26.381Z</time></trkpt><trkpt lat="37.2062263" lon="13.6627771"><ele>80.0</ele><time>2026-05-06T11:56:27.38Z</time></trkpt><trkpt lat="37.2063419" lon="13.6628326"><ele>80.0</ele><time>2026-05-06T11:56:29.381Z</time></trkpt><trkpt lat="37.206455" lon="13.662865"><ele>80.0</ele><time>2026-05-06T11:56:31.379Z</time></trkpt><trkpt lat="37.2065773" lon="13.6628978"><ele>80.0</ele><time>2026-05-06T11:56:33.379Z</time></trkpt><trkpt lat="37.2066369" lon="13.6629238"><ele>81.2</ele><time>2026-05-06T11:56:34.38Z</time></trkpt><trkpt lat="37.2066946" lon="13.662959"><ele>82.4</ele><time>2026-05-06T11:56:35.379Z</time></trkpt><trkpt lat="37.2067998" lon="13.6630396"><ele>83.6</ele><time>2026-05-06T11:56:37.379Z</time></trkpt><trkpt lat="37.2069017" lon="13.6631179"><ele>84.8</ele><time>2026-05-06T11:56:39.38Z</time></trkpt><trkpt lat="37.2070038" lon="13.6631778"><ele>86.0</ele><time>2026-05-06T11:56:41.379Z</time></trkpt><trkpt lat="37.2071122" lon="13.6632374"><ele>86.0</ele><time>2026-05-06T11:56:43.379Z</time></trkpt><trkpt lat="37.2072189" lon="13.6633162"><ele>86.0</ele><time>2026-05-06T11:56:45.379Z</time></trkpt><trkpt lat="37.2072727" lon="13.6633584"><ele>86.0</ele><time>2026-05-06T11:56:46.379Z</time></trkpt><trkpt lat="37.2073774" lon="13.6634402"><ele>86.0</ele><time>2026-05-06T11:56:48.38Z</time></trkpt><trkpt lat="37.2074693" lon="13.6635252"><ele>86.0</ele><time>2026-05-06T11:56:50.379Z</time></trkpt><trkpt lat="37.2075741" lon="13.6635868"><ele>88.0</ele><time>2026-05-06T11:56:52.379Z</time></trkpt><trkpt lat="37.2076754" lon="13.6636212"><ele>90.0</ele><time>2026-05-06T11:56:54.379Z</time></trkpt><trkpt lat="37.2077729" lon="13.6636508"><ele>92.0</ele><time>2026-05-06T11:56:56.38Z</time></trkpt><trkpt lat="37.2078667" lon="13.6636787"><ele>94.0</ele><time>2026-05-06T11:56:58.38Z</time></trkpt><trkpt lat="37.2079664" lon="13.6636779"><ele>96.0</ele><time>2026-05-06T11:57:00.378Z</time></trkpt><trkpt lat="37.2080707" lon="13.6636713"><ele>94.25</ele><time>2026-05-06T11:57:02.379Z</time></trkpt><trkpt lat="37.2081745" lon="13.6636433"><ele>92.5</ele><time>2026-05-06T11:57:04.379Z</time></trkpt><trkpt lat="37.2082874" lon="13.6635995"><ele>90.75</ele><time>2026-05-06T11:57:06.381Z</time></trkpt><trkpt lat="37.2084039" lon="13.6635725"><ele>89.0</ele><time>2026-05-06T11:57:08.379Z</time></trkpt><trkpt lat="37.2085129" lon="13.6635724"><ele>89.0</ele><time>2026-05-06T11:57:10.38Z</time></trkpt><trkpt lat="37.2086144" lon="13.6635825"><ele>89.0</ele><time>2026-05-06T11:57:12.379Z</time></trkpt><trkpt lat="37.2087101" lon="13.6635943"><ele>89.0</ele><time>2026-05-06T11:57:14.38Z</time></trkpt><trkpt lat="37.2088163" lon="13.6635957"><ele>89.0</ele><time>2026-05-06T11:57:16.379Z</time></trkpt><trkpt lat="37.2089243" lon="13.6636163"><ele>89.0</ele><time>2026-05-06T11:57:18.38Z</time></trkpt><trkpt lat="37.2090359" lon="13.6636525"><ele>87.6</ele><time>2026-05-06T11:57:20.381Z</time></trkpt><trkpt lat="37.2091333" lon="13.6637105"><ele>86.2</ele><time>2026-05-06T11:57:22.379Z</time></trkpt><trkpt lat="37.2092233" lon="13.6637758"><ele>84.8</ele><time>2026-05-06T11:57:24.379Z</time></trkpt><trkpt lat="37.2093091" lon="13.6638295"><ele>83.39999999999999</ele><time>2026-05-06T11:57:26.38Z</time></trkpt><trkpt lat="37.2093879" lon="13.6638914"><ele>82.0</ele><time>2026-05-06T11:57:28.379Z</time></trkpt><trkpt lat="37.2094662" lon="13.6639444"><ele>82.0</ele><time>2026-05-06T11:57:30.38Z</time></trkpt><trkpt lat="37.2095348" lon="13.6639928"><ele>82.0</ele><time>2026-05-06T11:57:32.379Z</time></trkpt><trkpt lat="37.2096088" lon="13.6640304"><ele>82.0</ele><time>2026-05-06T11:57:34.379Z</time></trkpt><trkpt lat="37.2096888" lon="13.6640724"><ele>82.0</ele><time>2026-05-06T11:57:36.379Z</time></trkpt><trkpt lat="37.2097954" lon="13.6641325"><ele>82.0</ele><time>2026-05-06T11:57:38.38Z</time></trkpt><trkpt lat="37.2098987" lon="13.664186"><ele>81.0</ele><time>2026-05-06T11:57:40.379Z</time></trkpt><trkpt lat="37.209996" lon="13.6642426"><ele>80.0</ele><time>2026-05-06T11:57:42.379Z</time></trkpt><trkpt lat="37.2100966" lon="13.6642971"><ele>79.0</ele><time>2026-05-06T11:57:44.379Z</time></trkpt><trkpt lat="37.2101564" lon="13.6643285"><ele>78.0</ele><time>2026-05-06T11:57:45.38Z</time></trkpt><trkpt lat="37.2102775" lon="13.6643754"><ele>77.0</ele><time>2026-05-06T11:57:47.379Z</time></trkpt><trkpt lat="37.2103415" lon="13.6643963"><ele>77.0</ele><time>2026-05-06T11:57:48.379Z</time></trkpt><trkpt lat="37.2104038" lon="13.6644147"><ele>77.0</ele><time>2026-05-06T11:57:49.379Z</time></trkpt><trkpt lat="37.210466" lon="13.6644299"><ele>77.0</ele><time>2026-05-06T11:57:50.381Z</time></trkpt><trkpt lat="37.210563" lon="13.6644856"><ele>77.0</ele><time>2026-05-06T11:57:52.379Z</time></trkpt><trkpt lat="37.2106602" lon="13.6645338"><ele>77.0</ele><time>2026-05-06T11:57:54.38Z</time></trkpt><trkpt lat="37.210761" lon="13.6645698"><ele>77.0</ele><time>2026-05-06T11:57:56.379Z</time></trkpt><trkpt lat="37.2108663" lon="13.6646201"><ele>77.2</ele><time>2026-05-06T11:57:58.378Z</time></trkpt><trkpt lat="37.2109705" lon="13.6646774"><ele>77.4</ele><time>2026-05-06T11:58:00.38Z</time></trkpt><trkpt lat="37.2110348" lon="13.6647088"><ele>77.6</ele><time>2026-05-06T11:58:01.379Z</time></trkpt><trkpt lat="37.21114" lon="13.6647624"><ele>77.8</ele><time>2026-05-06T11:58:03.379Z</time></trkpt><trkpt lat="37.2112333" lon="13.6648148"><ele>78.0</ele><time>2026-05-06T11:58:05.38Z</time></trkpt><trkpt lat="37.2113112" lon="13.6648512"><ele>78.0</ele><time>2026-05-06T11:58:07.379Z</time></trkpt><trkpt lat="37.2113931" lon="13.6648914"><ele>78.0</ele><time>2026-05-06T11:58:09.379Z</time></trkpt><trkpt lat="37.2114905" lon="13.6649451"><ele>78.0</ele><time>2026-05-06T11:58:11.378Z</time></trkpt><trkpt lat="37.2115867" lon="13.6650044"><ele>78.0</ele><time>2026-05-06T11:58:13.38Z</time></trkpt><trkpt lat="37.211692" lon="13.665068"><ele>78.0</ele><time>2026-05-06T11:58:15.378Z</time></trkpt><trkpt lat="37.2117975" lon="13.665131"><ele>78.5</ele><time>2026-05-06T11:58:17.38Z</time></trkpt><trkpt lat="37.2119044" lon="13.6651916"><ele>79.0</ele><time>2026-05-06T11:58:19.379Z</time></trkpt><trkpt lat="37.2120195" lon="13.6652585"><ele>79.5</ele><time>2026-05-06T11:58:21.378Z</time></trkpt><trkpt lat="37.2121335" lon="13.6653241"><ele>80.0</ele><time>2026-05-06T11:58:23.38Z</time></trkpt><trkpt lat="37.2122449" lon="13.665365"><ele>79.2</ele><time>2026-05-06T11:58:25.38Z</time></trkpt><trkpt lat="37.2123582" lon="13.6654001"><ele>78.4</ele><time>2026-05-06T11:58:27.38Z</time></trkpt><trkpt lat="37.2124565" lon="13.6654398"><ele>77.6</ele><time>2026-05-06T11:58:29.379Z</time></trkpt><trkpt lat="37.2125492" lon="13.6654599"><ele>76.8</ele><time>2026-05-06T11:58:31.379Z</time></trkpt><trkpt lat="37.2126336" lon="13.6654347"><ele>76.0</ele><time>2026-05-06T11:58:33.38Z</time></trkpt><trkpt lat="37.2127141" lon="13.6653955"><ele>76.0</ele><time>2026-05-06T11:58:35.379Z</time></trkpt><trkpt lat="37.2127946" lon="13.6653382"><ele>76.0</ele><time>2026-05-06T11:58:37.379Z</time></trkpt><trkpt lat="37.2128695" lon="13.6652884"><ele>76.0</ele><time>2026-05-06T11:58:39.38Z</time></trkpt><trkpt lat="37.2129397" lon="13.6652655"><ele>76.0</ele><time>2026-05-06T11:58:41.379Z</time></trkpt><trkpt lat="37.213004" lon="13.665256"><ele>76.0</ele><time>2026-05-06T11:58:43.38Z</time></trkpt><trkpt lat="37.2130683" lon="13.6652417"><ele>76.0</ele><time>2026-05-06T11:58:45.379Z</time></trkpt><trkpt lat="37.2131279" lon="13.6652139"><ele>76.0</ele><time>2026-05-06T11:58:47.38Z</time></trkpt><trkpt lat="37.2132006" lon="13.6652029"><ele>75.0</ele><time>2026-05-06T11:58:49.379Z</time></trkpt><trkpt lat="37.2132719" lon="13.6651838"><ele>74.0</ele><time>2026-05-06T11:58:51.379Z</time></trkpt><trkpt lat="37.2133455" lon="13.6651688"><ele>73.0</ele><time>2026-05-06T11:58:53.38Z</time></trkpt><trkpt lat="37.2134174" lon="13.6651607"><ele>72.0</ele><time>2026-05-06T11:58:55.379Z</time></trkpt><trkpt lat="37.2134939" lon="13.6651569"><ele>71.0</ele><time>2026-05-06T11:58:57.378Z</time></trkpt><trkpt lat="37.2135711" lon="13.665148"><ele>70.0</ele><time>2026-05-06T11:58:59.379Z</time></trkpt><trkpt lat="37.2136483" lon="13.6651399"><ele>70.0</ele><time>2026-05-06T11:59:01.38Z</time></trkpt><trkpt lat="37.2137203" lon="13.6651313"><ele>70.0</ele><time>2026-05-06T11:59:03.379Z</time></trkpt><trkpt lat="37.2137873" lon="13.6651221"><ele>70.0</ele><time>2026-05-06T11:59:05.379Z</time></trkpt><trkpt lat="37.2138508" lon="13.6651113"><ele>70.0</ele><time>2026-05-06T11:59:07.379Z</time></trkpt><trkpt lat="37.2139365" lon="13.6650961"><ele>70.0</ele><time>2026-05-06T11:59:10.379Z</time></trkpt><trkpt lat="37.2140632" lon="13.6650779"><ele>70.0</ele><time>2026-05-06T11:59:12.378Z</time></trkpt><trkpt lat="37.2141497" lon="13.6650669"><ele>69.33333333333333</ele><time>2026-05-06T11:59:13.378Z</time></trkpt><trkpt lat="37.2142346" lon="13.6650553"><ele>68.66666666666666</ele><time>2026-05-06T11:59:14.379Z</time></trkpt><trkpt lat="37.2143211" lon="13.6650488"><ele>68.0</ele><time>2026-05-06T11:59:15.379Z</time></trkpt><trkpt lat="37.2144026" lon="13.66504"><ele>67.33333333333333</ele><time>2026-05-06T11:59:16.379Z</time></trkpt><trkpt lat="37.214484" lon="13.6650362"><ele>66.66666666666667</ele><time>2026-05-06T11:59:17.38Z</time></trkpt><trkpt lat="37.2145574" lon="13.6650392"><ele>66.0</ele><time>2026-05-06T11:59:18.379Z</time></trkpt><trkpt lat="37.214633" lon="13.665037"><ele>66.0</ele><time>2026-05-06T11:59:19.378Z</time></trkpt><trkpt lat="37.2147112" lon="13.6650396"><ele>66.0</ele><time>2026-05-06T11:59:20.378Z</time></trkpt><trkpt lat="37.2147881" lon="13.6650515"><ele>66.0</ele><time>2026-05-06T11:59:21.38Z</time></trkpt><trkpt lat="37.2148617" lon="13.6650656"><ele>66.0</ele><time>2026-05-06T11:59:22.379Z</time></trkpt><trkpt lat="37.2149334" lon="13.6650807"><ele>66.0</ele><time>2026-05-06T11:59:23.379Z</time></trkpt><trkpt lat="37.2150039" lon="13.6650885"><ele>66.0</ele><time>2026-05-06T11:59:24.378Z</time></trkpt><trkpt lat="37.2150725" lon="13.6651013"><ele>66.0</ele><time>2026-05-06T11:59:25.379Z</time></trkpt><trkpt lat="37.2151439" lon="13.6651103"><ele>65.2</ele><time>2026-05-06T11:59:26.38Z</time></trkpt><trkpt lat="37.2152156" lon="13.6651225"><ele>64.39999999999999</ele><time>2026-05-06T11:59:27.379Z</time></trkpt><trkpt lat="37.2152879" lon="13.6651328"><ele>63.6</ele><time>2026-05-06T11:59:28.379Z</time></trkpt><trkpt lat="37.2153539" lon="13.6651431"><ele>62.8</ele><time>2026-05-06T11:59:29.378Z</time></trkpt><trkpt lat="37.2154745" lon="13.6651959"><ele>62.0</ele><time>2026-05-06T11:59:31.379Z</time></trkpt><trkpt lat="37.2155818" lon="13.665256"><ele>60.8</ele><time>2026-05-06T11:59:33.379Z</time></trkpt><trkpt lat="37.215683" lon="13.6653073"><ele>59.6</ele><time>2026-05-06T11:59:35.379Z</time></trkpt><trkpt lat="37.2157757" lon="13.6653546"><ele>58.39999999999999</ele><time>2026-05-06T11:59:37.378Z</time></trkpt><trkpt lat="37.2158632" lon="13.6654002"><ele>57.199999999999996</ele><time>2026-05-06T11:59:39.379Z</time></trkpt><trkpt lat="37.215947" lon="13.6654321"><ele>56.0</ele><time>2026-05-06T11:59:41.379Z</time></trkpt><trkpt lat="37.2160233" lon="13.6654633"><ele>56.00000000000001</ele><time>2026-05-06T11:59:43.38Z</time></trkpt><trkpt lat="37.2160923" lon="13.6654954"><ele>56.0</ele><time>2026-05-06T11:59:45.38Z</time></trkpt><trkpt lat="37.2161524" lon="13.6655258"><ele>56.0</ele><time>2026-05-06T11:59:47.38Z</time></trkpt><trkpt lat="37.2162449" lon="13.6655707"><ele>56.0</ele><time>2026-05-06T11:59:50.378Z</time></trkpt><trkpt lat="37.216334" lon="13.6656262"><ele>56.00000000000001</ele><time>2026-05-06T11:59:52.379Z</time></trkpt><trkpt lat="37.2164027" lon="13.6656752"><ele>56.0</ele><time>2026-05-06T11:59:54.379Z</time></trkpt><trkpt lat="37.2164589" lon="13.6657259"><ele>55.42857142857143</ele><time>2026-05-06T11:59:56.378Z</time></trkpt><trkpt lat="37.2165115" lon="13.6657731"><ele>54.85714285714286</ele><time>2026-05-06T11:59:58.378Z</time></trkpt><trkpt lat="37.216572" lon="13.6658135"><ele>54.285714285714285</ele><time>2026-05-06T12:00:00.379Z</time></trkpt><trkpt lat="37.2166319" lon="13.6658425"><ele>53.714285714285715</ele><time>2026-05-06T12:00:02.379Z</time></trkpt><trkpt lat="37.2166975" lon="13.6658651"><ele>53.142857142857146</ele><time>2026-05-06T12:00:04.379Z</time></trkpt><trkpt lat="37.2167625" lon="13.6659108"><ele>52.57142857142857</ele><time>2026-05-06T12:00:06.379Z</time></trkpt><trkpt lat="37.2168349" lon="13.6659593"><ele>52.0</ele><time>2026-05-06T12:00:08.379Z</time></trkpt><trkpt lat="37.216923" lon="13.6659942"><ele>51.99999999999999</ele><time>2026-05-06T12:00:10.38Z</time></trkpt><trkpt lat="37.2170502" lon="13.6660279"><ele>52.0</ele><time>2026-05-06T12:00:12.38Z</time></trkpt><trkpt lat="37.2171245" lon="13.6660344"><ele>52.0</ele><time>2026-05-06T12:00:13.379Z</time></trkpt><trkpt lat="37.2171981" lon="13.6660421"><ele>52.0</ele><time>2026-05-06T12:00:14.38Z</time></trkpt><trkpt lat="37.2172631" lon="13.6660562"><ele>51.99999999999999</ele><time>2026-05-06T12:00:15.379Z</time></trkpt><trkpt lat="37.2173295" lon="13.6660671"><ele>52.0</ele><time>2026-05-06T12:00:16.378Z</time></trkpt><trkpt lat="37.2174015" lon="13.6660689"><ele>51.49999999999999</ele><time>2026-05-06T12:00:17.378Z</time></trkpt><trkpt lat="37.2174761" lon="13.6660686"><ele>51.0</ele><time>2026-05-06T12:00:18.379Z</time></trkpt><trkpt lat="37.217551" lon="13.6660613"><ele>50.5</ele><time>2026-05-06T12:00:19.38Z</time></trkpt><trkpt lat="37.2176376" lon="13.6660497"><ele>50.0</ele><time>2026-05-06T12:00:20.378Z</time></trkpt><trkpt lat="37.2177259" lon="13.6660324"><ele>49.49999999999999</ele><time>2026-05-06T12:00:21.379Z</time></trkpt><trkpt lat="37.217802" lon="13.6660092"><ele>49.0</ele><time>2026-05-06T12:00:22.38Z</time></trkpt><trkpt lat="37.2178729" lon="13.6659973"><ele>49.0</ele><time>2026-05-06T12:00:23.379Z</time></trkpt><trkpt lat="37.2179363" lon="13.6659914"><ele>49.0</ele><time>2026-05-06T12:00:24.379Z</time></trkpt><trkpt lat="37.2180538" lon="13.6660203"><ele>49.0</ele><time>2026-05-06T12:00:26.378Z</time></trkpt><trkpt lat="37.2181435" lon="13.6661161"><ele>49.0</ele><time>2026-05-06T12:00:28.378Z</time></trkpt><trkpt lat="37.2182029" lon="13.6662205"><ele>49.0</ele><time>2026-05-06T12:00:30.378Z</time></trkpt><trkpt lat="37.2182438" lon="13.6663014"><ele>48.33333333333333</ele><time>2026-05-06T12:00:32.378Z</time></trkpt><trkpt lat="37.2182892" lon="13.6663596"><ele>47.666666666666664</ele><time>2026-05-06T12:00:35.378Z</time></trkpt><trkpt lat="37.218335" lon="13.6664161"><ele>47.0</ele><time>2026-05-06T12:03:42.379Z</time></trkpt><trkpt lat="37.2184434" lon="13.6664933"><ele>46.33333333333333</ele><time>2026-05-06T12:03:44.379Z</time></trkpt><trkpt lat="37.2185133" lon="13.6665114"><ele>45.666666666666664</ele><time>2026-05-06T12:03:45.379Z</time></trkpt><trkpt lat="37.2185799" lon="13.6665101"><ele>45.0</ele><time>2026-05-06T12:03:46.379Z</time></trkpt><trkpt lat="37.218652" lon="13.6664835"><ele>45.0</ele><time>2026-05-06T12:03:47.38Z</time></trkpt><trkpt lat="37.2187286" lon="13.6664314"><ele>45.0</ele><time>2026-05-06T12:03:48.38Z</time></trkpt><trkpt lat="37.2188124" lon="13.6663581"><ele>45.0</ele><time>2026-05-06T12:03:49.379Z</time></trkpt><trkpt lat="37.2189188" lon="13.6662683"><ele>45.0</ele><time>2026-05-06T12:03:50.379Z</time></trkpt><trkpt lat="37.2190122" lon="13.6661866"><ele>45.0</ele><time>2026-05-06T12:03:51.38Z</time></trkpt><trkpt lat="37.2190939" lon="13.6661263"><ele>44.8</ele><time>2026-05-06T12:03:52.379Z</time></trkpt><trkpt lat="37.2191806" lon="13.6660859"><ele>44.6</ele><time>2026-05-06T12:03:53.379Z</time></trkpt><trkpt lat="37.2192651" lon="13.6660771"><ele>44.400000000000006</ele><time>2026-05-06T12:03:54.38Z</time></trkpt><trkpt lat="37.2193547" lon="13.6660908"><ele>44.2</ele><time>2026-05-06T12:03:55.38Z</time></trkpt><trkpt lat="37.2194474" lon="13.6661198"><ele>44.0</ele><time>2026-05-06T12:03:56.379Z</time></trkpt><trkpt lat="37.2195419" lon="13.6661575"><ele>44.75</ele><time>2026-05-06T12:03:57.379Z</time></trkpt><trkpt lat="37.2196522" lon="13.6662014"><ele>45.5</ele><time>2026-05-06T12:03:58.379Z</time></trkpt><trkpt lat="37.2197701" lon="13.6662375"><ele>46.25</ele><time>2026-05-06T12:03:59.379Z</time></trkpt><trkpt lat="37.2198679" lon="13.6662696"><ele>47.0</ele><time>2026-05-06T12:04:00.379Z</time></trkpt><trkpt lat="37.2199853" lon="13.6663005"><ele>47.2</ele><time>2026-05-06T12:04:01.379Z</time></trkpt><trkpt lat="37.2200946" lon="13.6663264"><ele>47.400000000000006</ele><time>2026-05-06T12:04:02.379Z</time></trkpt><trkpt lat="37.2201945" lon="13.6663489"><ele>47.599999999999994</ele><time>2026-05-06T12:04:03.379Z</time></trkpt><trkpt lat="37.2202877" lon="13.6663707"><ele>47.8</ele><time>2026-05-06T12:04:04.38Z</time></trkpt><trkpt lat="37.2203911" lon="13.6663956"><ele>48.0</ele><time>2026-05-06T12:04:05.379Z</time></trkpt><trkpt lat="37.2204951" lon="13.6664203"><ele>48.0</ele><time>2026-05-06T12:04:06.379Z</time></trkpt><trkpt lat="37.2205855" lon="13.6664477"><ele>48.0</ele><time>2026-05-06T12:04:07.379Z</time></trkpt><trkpt lat="37.2206698" lon="13.6664824"><ele>48.0</ele><time>2026-05-06T12:04:08.379Z</time></trkpt><trkpt lat="37.2207578" lon="13.666525"><ele>48.0</ele><time>2026-05-06T12:04:09.38Z</time></trkpt><trkpt lat="37.220853" lon="13.6665786"><ele>48.0</ele><time>2026-05-06T12:04:10.379Z</time></trkpt><trkpt lat="37.2209451" lon="13.6666289"><ele>48.0</ele><time>2026-05-06T12:04:11.379Z</time></trkpt><trkpt lat="37.22103" lon="13.6666772"><ele>48.0</ele><time>2026-05-06T12:04:12.379Z</time></trkpt><trkpt lat="37.2211118" lon="13.6667283"><ele>48.0</ele><time>2026-05-06T12:04:13.379Z</time></trkpt><trkpt lat="37.2211952" lon="13.6667797"><ele>48.0</ele><time>2026-05-06T12:04:14.38Z</time></trkpt><trkpt lat="37.2212708" lon="13.666832"><ele>48.0</ele><time>2026-05-06T12:04:15.379Z</time></trkpt><trkpt lat="37.2213346" lon="13.6669021"><ele>48.0</ele><time>2026-05-06T12:04:16.379Z</time></trkpt><trkpt lat="37.2213843" lon="13.6669953"><ele>48.0</ele><time>2026-05-06T12:04:17.379Z</time></trkpt><trkpt lat="37.2214116" lon="13.6671037"><ele>48.0</ele><time>2026-05-06T12:04:18.38Z</time></trkpt><trkpt lat="37.221428" lon="13.6672239"><ele>48.0</ele><time>2026-05-06T12:04:19.381Z</time></trkpt><trkpt lat="37.2214323" lon="13.6673579"><ele>48.0</ele><time>2026-05-06T12:04:20.379Z</time></trkpt><trkpt lat="37.2214318" lon="13.6674945"><ele>48.0</ele><time>2026-05-06T12:04:21.379Z</time></trkpt><trkpt lat="37.2214339" lon="13.667617"><ele>48.0</ele><time>2026-05-06T12:04:22.379Z</time></trkpt><trkpt lat="37.2214395" lon="13.6677371"><ele>48.0</ele><time>2026-05-06T12:04:23.379Z</time></trkpt><trkpt lat="37.221449" lon="13.6678556"><ele>48.0</ele><time>2026-05-06T12:04:24.379Z</time></trkpt><trkpt lat="37.2214614" lon="13.6679576"><ele>48.0</ele><time>2026-05-06T12:04:25.379Z</time></trkpt><trkpt lat="37.2214839" lon="13.6680419"><ele>48.0</ele><time>2026-05-06T12:04:26.379Z</time></trkpt><trkpt lat="37.2215245" lon="13.6681042"><ele>48.0</ele><time>2026-05-06T12:04:27.38Z</time></trkpt><trkpt lat="37.2216478" lon="13.6681519"><ele>47.166666666666664</ele><time>2026-05-06T12:04:29.379Z</time></trkpt><trkpt lat="37.2217225" lon="13.6681308"><ele>46.333333333333336</ele><time>2026-05-06T12:04:30.379Z</time></trkpt><trkpt lat="37.2217892" lon="13.6680788"><ele>45.5</ele><time>2026-05-06T12:04:31.378Z</time></trkpt><trkpt lat="37.2218604" lon="13.6679949"><ele>44.66666666666667</ele><time>2026-05-06T12:04:32.378Z</time></trkpt><trkpt lat="37.2219288" lon="13.6679062"><ele>43.833333333333336</ele><time>2026-05-06T12:04:33.378Z</time></trkpt><trkpt lat="37.2219955" lon="13.6678486"><ele>43.0</ele><time>2026-05-06T12:04:34.379Z</time></trkpt><trkpt lat="37.2220783" lon="13.6678088"><ele>43.0</ele><time>2026-05-06T12:04:35.378Z</time></trkpt><trkpt lat="37.2221616" lon="13.6677964"><ele>43.0</ele><time>2026-05-06T12:04:36.378Z</time></trkpt><trkpt lat="37.222245" lon="13.6678109"><ele>43.0</ele><time>2026-05-06T12:04:37.378Z</time></trkpt><trkpt lat="37.2223347" lon="13.6678441"><ele>43.0</ele><time>2026-05-06T12:04:38.378Z</time></trkpt><trkpt lat="37.2224371" lon="13.6678806"><ele>43.0</ele><time>2026-05-06T12:04:39.378Z</time></trkpt><trkpt lat="37.2225414" lon="13.667905"><ele>43.5</ele><time>2026-05-06T12:04:40.378Z</time></trkpt><trkpt lat="37.2226709" lon="13.6679204"><ele>44.0</ele><time>2026-05-06T12:04:41.379Z</time></trkpt><trkpt lat="37.2228184" lon="13.6679224"><ele>44.5</ele><time>2026-05-06T12:04:42.379Z</time></trkpt><trkpt lat="37.2229715" lon="13.6679217"><ele>45.0</ele><time>2026-05-06T12:04:43.378Z</time></trkpt><trkpt lat="37.2231002" lon="13.6679243"><ele>46.2</ele><time>2026-05-06T12:04:44.378Z</time></trkpt><trkpt lat="37.223215" lon="13.6679214"><ele>47.4</ele><time>2026-05-06T12:04:45.378Z</time></trkpt><trkpt lat="37.2233046" lon="13.6679187"><ele>48.599999999999994</ele><time>2026-05-06T12:04:46.378Z</time></trkpt><trkpt lat="37.2233794" lon="13.667934"><ele>49.8</ele><time>2026-05-06T12:04:47.378Z</time></trkpt><trkpt lat="37.2234639" lon="13.6679731"><ele>51.0</ele><time>2026-05-06T12:04:48.378Z</time></trkpt><trkpt lat="37.2235611" lon="13.6680242"><ele>51.0</ele><time>2026-05-06T12:04:49.379Z</time></trkpt><trkpt lat="37.2236602" lon="13.6680839"><ele>51.0</ele><time>2026-05-06T12:04:50.378Z</time></trkpt><trkpt lat="37.2237512" lon="13.6681413"><ele>51.0</ele><time>2026-05-06T12:04:51.378Z</time></trkpt><trkpt lat="37.2238329" lon="13.6681763"><ele>51.0</ele><time>2026-05-06T12:04:52.379Z</time></trkpt><trkpt lat="37.2239206" lon="13.6681806"><ele>51.0</ele><time>2026-05-06T12:04:53.379Z</time></trkpt><trkpt lat="37.2240137" lon="13.6681493"><ele>51.75</ele><time>2026-05-06T12:04:54.378Z</time></trkpt><trkpt lat="37.2241219" lon="13.6681045"><ele>52.5</ele><time>2026-05-06T12:04:55.378Z</time></trkpt><trkpt lat="37.2242291" lon="13.6680768"><ele>53.25</ele><time>2026-05-06T12:04:56.378Z</time></trkpt><trkpt lat="37.224346" lon="13.6680707"><ele>54.0</ele><time>2026-05-06T12:04:57.378Z</time></trkpt><trkpt lat="37.2244721" lon="13.6680791"><ele>54.0</ele><time>2026-05-06T12:04:58.378Z</time></trkpt><trkpt lat="37.2246095" lon="13.6680938"><ele>54.0</ele><time>2026-05-06T12:04:59.379Z</time></trkpt><trkpt lat="37.2247339" lon="13.668109"><ele>54.0</ele><time>2026-05-06T12:05:00.378Z</time></trkpt><trkpt lat="37.2248476" lon="13.6681214"><ele>54.0</ele><time>2026-05-06T12:05:01.378Z</time></trkpt><trkpt lat="37.2249469" lon="13.6681146"><ele>55.400000000000006</ele><time>2026-05-06T12:05:02.378Z</time></trkpt><trkpt lat="37.2250429" lon="13.6680849"><ele>56.800000000000004</ele><time>2026-05-06T12:05:03.379Z</time></trkpt><trkpt lat="37.2251291" lon="13.6680389"><ele>58.199999999999996</ele><time>2026-05-06T12:05:04.378Z</time></trkpt><trkpt lat="37.2251967" lon="13.6679758"><ele>59.599999999999994</ele><time>2026-05-06T12:05:05.378Z</time></trkpt><trkpt lat="37.2252591" lon="13.6678916"><ele>61.0</ele><time>2026-05-06T12:05:06.379Z</time></trkpt><trkpt lat="37.2253223" lon="13.6678092"><ele>60.33333333333333</ele><time>2026-05-06T12:05:07.378Z</time></trkpt><trkpt lat="37.2253753" lon="13.6677376"><ele>59.666666666666664</ele><time>2026-05-06T12:05:08.378Z</time></trkpt><trkpt lat="37.2254256" lon="13.6676755"><ele>59.0</ele><time>2026-05-06T12:05:09.379Z</time></trkpt><trkpt lat="37.2254985" lon="13.6675962"><ele>58.33333333333333</ele><time>2026-05-06T12:05:11.378Z</time></trkpt><trkpt lat="37.225547" lon="13.6675425"><ele>57.666666666666664</ele><time>2026-05-06T12:05:13.378Z</time></trkpt><trkpt lat="37.2256078" lon="13.667451"><ele>57.0</ele><time>2026-05-06T12:05:15.378Z</time></trkpt><trkpt lat="37.2256364" lon="13.6673593"><ele>58.25</ele><time>2026-05-06T12:05:16.378Z</time></trkpt><trkpt lat="37.2256702" lon="13.6672311"><ele>59.5</ele><time>2026-05-06T12:05:17.378Z</time></trkpt><trkpt lat="37.2257091" lon="13.6670769"><ele>60.75</ele><time>2026-05-06T12:05:18.379Z</time></trkpt><trkpt lat="37.2257566" lon="13.666902"><ele>62.0</ele><time>2026-05-06T12:05:19.378Z</time></trkpt><trkpt lat="37.2258122" lon="13.6667128"><ele>62.0</ele><time>2026-05-06T12:05:20.378Z</time></trkpt><trkpt lat="37.2258701" lon="13.6665075"><ele>62.0</ele><time>2026-05-06T12:05:21.378Z</time></trkpt><trkpt lat="37.2259276" lon="13.6662888"><ele>62.0</ele><time>2026-05-06T12:05:22.378Z</time></trkpt><trkpt lat="37.2259863" lon="13.6660723"><ele>62.333333333333336</ele><time>2026-05-06T12:05:23.378Z</time></trkpt><trkpt lat="37.2260401" lon="13.6658773"><ele>62.66666666666667</ele><time>2026-05-06T12:05:24.378Z</time></trkpt><trkpt lat="37.22609" lon="13.6656983"><ele>63.0</ele><time>2026-05-06T12:05:25.378Z</time></trkpt><trkpt lat="37.226137" lon="13.6655368"><ele>63.0</ele><time>2026-05-06T12:05:26.378Z</time></trkpt><trkpt lat="37.2261792" lon="13.6653892"><ele>63.0</ele><time>2026-05-06T12:05:27.379Z</time></trkpt><trkpt lat="37.2262199" lon="13.6652552"><ele>63.0</ele><time>2026-05-06T12:05:28.379Z</time></trkpt><trkpt lat="37.2262693" lon="13.6651412"><ele>63.0</ele><time>2026-05-06T12:05:29.379Z</time></trkpt><trkpt lat="37.2263196" lon="13.6650635"><ele>63.0</ele><time>2026-05-06T12:05:30.378Z</time></trkpt><trkpt lat="37.2263867" lon="13.6649677"><ele>64.6</ele><time>2026-05-06T12:05:32.378Z</time></trkpt><trkpt lat="37.2265043" lon="13.6649662"><ele>66.19999999999999</ele><time>2026-05-06T12:06:28.379Z</time></trkpt><trkpt lat="37.2266403" lon="13.6650209"><ele>67.8</ele><time>2026-05-06T12:06:30.379Z</time></trkpt><trkpt lat="37.226724" lon="13.6650702"><ele>69.39999999999999</ele><time>2026-05-06T12:06:31.378Z</time></trkpt><trkpt lat="37.2267799" lon="13.6651244"><ele>71.0</ele><time>2026-05-06T12:06:32.378Z</time></trkpt><trkpt lat="37.2268269" lon="13.6651798"><ele>71.0</ele><time>2026-05-06T12:06:33.378Z</time></trkpt><trkpt lat="37.2268821" lon="13.6652344"><ele>71.0</ele><time>2026-05-06T12:06:47.378Z</time></trkpt><trkpt lat="37.2269664" lon="13.6653116"><ele>71.0</ele><time>2026-05-06T12:06:49.378Z</time></trkpt><trkpt lat="37.2270306" lon="13.6653667"><ele>71.0</ele><time>2026-05-06T12:06:50.378Z</time></trkpt><trkpt lat="37.22711" lon="13.6654356"><ele>71.0</ele><time>2026-05-06T12:06:51.379Z</time></trkpt><trkpt lat="37.2271967" lon="13.6655138"><ele>70.25</ele><time>2026-05-06T12:06:52.378Z</time></trkpt><trkpt lat="37.2272956" lon="13.6656048"><ele>69.5</ele><time>2026-05-06T12:06:53.378Z</time></trkpt><trkpt lat="37.2274056" lon="13.6657058"><ele>68.75</ele><time>2026-05-06T12:06:54.378Z</time></trkpt><trkpt lat="37.2275168" lon="13.6658085"><ele>68.0</ele><time>2026-05-06T12:06:55.379Z</time></trkpt><trkpt lat="37.2276276" lon="13.6659118"><ele>69.5</ele><time>2026-05-06T12:06:56.379Z</time></trkpt><trkpt lat="37.2277277" lon="13.6659979"><ele>71.0</ele><time>2026-05-06T12:06:57.38Z</time></trkpt><trkpt lat="37.2278261" lon="13.6660685"><ele>72.5</ele><time>2026-05-06T12:06:58.379Z</time></trkpt><trkpt lat="37.2279347" lon="13.6661276"><ele>74.0</ele><time>2026-05-06T12:06:59.378Z</time></trkpt><trkpt lat="37.2280496" lon="13.6661784"><ele>75.25</ele><time>2026-05-06T12:07:00.379Z</time></trkpt><trkpt lat="37.228168" lon="13.6662311"><ele>76.5</ele><time>2026-05-06T12:07:01.378Z</time></trkpt><trkpt lat="37.2282858" lon="13.6662828"><ele>77.75</ele><time>2026-05-06T12:07:02.378Z</time></trkpt><trkpt lat="37.228392" lon="13.6663363"><ele>79.0</ele><time>2026-05-06T12:07:03.378Z</time></trkpt><trkpt lat="37.228513" lon="13.6663783"><ele>79.0</ele><time>2026-05-06T12:07:04.378Z</time></trkpt><trkpt lat="37.22864" lon="13.6664217"><ele>79.0</ele><time>2026-05-06T12:07:05.378Z</time></trkpt><trkpt lat="37.2287727" lon="13.6664719"><ele>79.0</ele><time>2026-05-06T12:07:06.379Z</time></trkpt><trkpt lat="37.2289036" lon="13.6665255"><ele>79.0</ele><time>2026-05-06T12:07:07.379Z</time></trkpt><trkpt lat="37.2290224" lon="13.6665717"><ele>79.25</ele><time>2026-05-06T12:07:08.378Z</time></trkpt><trkpt lat="37.22914" lon="13.666617"><ele>79.5</ele><time>2026-05-06T12:07:09.378Z</time></trkpt><trkpt lat="37.2292594" lon="13.6666679"><ele>79.75</ele><time>2026-05-06T12:07:10.379Z</time></trkpt><trkpt lat="37.2293781" lon="13.666725"><ele>80.0</ele><time>2026-05-06T12:07:11.378Z</time></trkpt><trkpt lat="37.2294982" lon="13.6667793"><ele>80.0</ele><time>2026-05-06T12:07:12.378Z</time></trkpt><trkpt lat="37.2296233" lon="13.6668278"><ele>80.0</ele><time>2026-05-06T12:07:13.379Z</time></trkpt><trkpt lat="37.2297466" lon="13.6668825"><ele>80.0</ele><time>2026-05-06T12:07:14.379Z</time></trkpt><trkpt lat="37.2298685" lon="13.6669369"><ele>80.0</ele><time>2026-05-06T12:07:15.378Z</time></trkpt><trkpt lat="37.2299906" lon="13.666981"><ele>80.75</ele><time>2026-05-06T12:07:16.378Z</time></trkpt><trkpt lat="37.2301148" lon="13.6670253"><ele>81.5</ele><time>2026-05-06T12:07:17.378Z</time></trkpt><trkpt lat="37.2302375" lon="13.6670712"><ele>82.25</ele><time>2026-05-06T12:07:18.378Z</time></trkpt><trkpt lat="37.2303545" lon="13.667115"><ele>83.0</ele><time>2026-05-06T12:07:19.379Z</time></trkpt><trkpt lat="37.2304615" lon="13.6671547"><ele>83.0</ele><time>2026-05-06T12:07:20.379Z</time></trkpt><trkpt lat="37.2305652" lon="13.6671936"><ele>83.0</ele><time>2026-05-06T12:07:21.379Z</time></trkpt><trkpt lat="37.2306637" lon="13.6672283"><ele>83.0</ele><time>2026-05-06T12:07:22.378Z</time></trkpt><trkpt lat="37.2307575" lon="13.6672667"><ele>83.0</ele><time>2026-05-06T12:07:23.378Z</time></trkpt><trkpt lat="37.2308538" lon="13.6673033"><ele>83.0</ele><time>2026-05-06T12:07:24.379Z</time></trkpt><trkpt lat="37.2309481" lon="13.6673453"><ele>82.25</ele><time>2026-05-06T12:07:25.378Z</time></trkpt><trkpt lat="37.2310481" lon="13.6674027"><ele>81.5</ele><time>2026-05-06T12:07:26.379Z</time></trkpt><trkpt lat="37.2311565" lon="13.6674676"><ele>80.75</ele><time>2026-05-06T12:07:27.378Z</time></trkpt><trkpt lat="37.2312764" lon="13.6675464"><ele>80.0</ele><time>2026-05-06T12:07:28.378Z</time></trkpt><trkpt lat="37.2314092" lon="13.6676401"><ele>79.33333333333334</ele><time>2026-05-06T12:07:29.378Z</time></trkpt><trkpt lat="37.2315547" lon="13.6677356"><ele>78.66666666666667</ele><time>2026-05-06T12:07:30.379Z</time></trkpt><trkpt lat="37.2316987" lon="13.6678295"><ele>78.0</ele><time>2026-05-06T12:07:31.379Z</time></trkpt><trkpt lat="37.2318303" lon="13.6679193"><ele>78.0</ele><time>2026-05-06T12:07:32.379Z</time></trkpt><trkpt lat="37.2319615" lon="13.6680106"><ele>78.0</ele><time>2026-05-06T12:07:33.378Z</time></trkpt><trkpt lat="37.2320919" lon="13.6680964"><ele>78.0</ele><time>2026-05-06T12:07:34.379Z</time></trkpt><trkpt lat="37.2322224" lon="13.6681784"><ele>78.0</ele><time>2026-05-06T12:07:35.378Z</time></trkpt><trkpt lat="37.2323508" lon="13.668263"><ele>77.5</ele><time>2026-05-06T12:07:36.379Z</time></trkpt><trkpt lat="37.2324693" lon="13.6683419"><ele>77.0</ele><time>2026-05-06T12:07:37.379Z</time></trkpt><trkpt lat="37.2325828" lon="13.6684161"><ele>76.5</ele><time>2026-05-06T12:07:38.378Z</time></trkpt><trkpt lat="37.232698" lon="13.6684781"><ele>76.0</ele><time>2026-05-06T12:07:39.378Z</time></trkpt><trkpt lat="37.2328217" lon="13.6685252"><ele>76.0</ele><time>2026-05-06T12:07:40.378Z</time></trkpt><trkpt lat="37.2329518" lon="13.6685588"><ele>76.0</ele><time>2026-05-06T12:07:41.379Z</time></trkpt><trkpt lat="37.2330867" lon="13.6685913"><ele>76.0</ele><time>2026-05-06T12:07:42.378Z</time></trkpt><trkpt lat="37.2332185" lon="13.6686309"><ele>76.0</ele><time>2026-05-06T12:07:43.379Z</time></trkpt><trkpt lat="37.2333536" lon="13.66867"><ele>76.5</ele><time>2026-05-06T12:07:44.378Z</time></trkpt><trkpt lat="37.2334817" lon="13.6687062"><ele>77.0</ele><time>2026-05-06T12:07:45.379Z</time></trkpt><trkpt lat="37.2336077" lon="13.6687453"><ele>77.5</ele><time>2026-05-06T12:07:46.378Z</time></trkpt><trkpt lat="37.2337296" lon="13.6687998"><ele>78.0</ele><time>2026-05-06T12:07:47.378Z</time></trkpt><trkpt lat="37.2338447" lon="13.6688645"><ele>78.0</ele><time>2026-05-06T12:07:48.378Z</time></trkpt><trkpt lat="37.2339527" lon="13.6689223"><ele>78.0</ele><time>2026-05-06T12:07:49.379Z</time></trkpt><trkpt lat="37.2340671" lon="13.6689753"><ele>78.0</ele><time>2026-05-06T12:07:50.378Z</time></trkpt><trkpt lat="37.234184" lon="13.6690319"><ele>78.0</ele><time>2026-05-06T12:07:51.378Z</time></trkpt><trkpt lat="37.2343048" lon="13.6690953"><ele>77.75</ele><time>2026-05-06T12:07:52.378Z</time></trkpt><trkpt lat="37.2344259" lon="13.669159"><ele>77.5</ele><time>2026-05-06T12:07:53.378Z</time></trkpt><trkpt lat="37.2345513" lon="13.6692193"><ele>77.25</ele><time>2026-05-06T12:07:54.379Z</time></trkpt><trkpt lat="37.234679" lon="13.6692877"><ele>77.0</ele><time>2026-05-06T12:07:55.378Z</time></trkpt><trkpt lat="37.2348073" lon="13.6693541"><ele>77.0</ele><time>2026-05-06T12:07:56.379Z</time></trkpt><trkpt lat="37.2349274" lon="13.6694168"><ele>77.0</ele><time>2026-05-06T12:07:57.378Z</time></trkpt><trkpt lat="37.2350485" lon="13.6694796"><ele>77.0</ele><time>2026-05-06T12:07:58.378Z</time></trkpt><trkpt lat="37.2351723" lon="13.6695391"><ele>77.0</ele><time>2026-05-06T12:07:59.378Z</time></trkpt><trkpt lat="37.2352929" lon="13.6696067"><ele>77.75</ele><time>2026-05-06T12:08:00.378Z</time></trkpt><trkpt lat="37.2354144" lon="13.6696711"><ele>78.5</ele><time>2026-05-06T12:08:01.379Z</time></trkpt><trkpt lat="37.23554" lon="13.6697352"><ele>79.25</ele><time>2026-05-06T12:08:02.378Z</time></trkpt><trkpt lat="37.2356691" lon="13.6698031"><ele>80.0</ele><time>2026-05-06T12:08:03.378Z</time></trkpt><trkpt lat="37.2357957" lon="13.6698739"><ele>80.25</ele><time>2026-05-06T12:08:04.379Z</time></trkpt><trkpt lat="37.2359234" lon="13.6699434"><ele>80.5</ele><time>2026-05-06T12:08:05.379Z</time></trkpt><trkpt lat="37.2360596" lon="13.6700157"><ele>80.75</ele><time>2026-05-06T12:08:06.378Z</time></trkpt><trkpt lat="37.2361845" lon="13.6700867"><ele>81.0</ele><time>2026-05-06T12:08:07.379Z</time></trkpt><trkpt lat="37.2363041" lon="13.6701575"><ele>81.0</ele><time>2026-05-06T12:08:08.378Z</time></trkpt><trkpt lat="37.2364288" lon="13.6702274"><ele>81.0</ele><time>2026-05-06T12:08:09.378Z</time></trkpt><trkpt lat="37.236532" lon="13.6702861"><ele>81.0</ele><time>2026-05-06T12:08:10.378Z</time></trkpt><trkpt lat="37.2366266" lon="13.6703413"><ele>81.0</ele><time>2026-05-06T12:08:11.379Z</time></trkpt><trkpt lat="37.2367364" lon="13.6703978"><ele>81.25</ele><time>2026-05-06T12:08:12.379Z</time></trkpt><trkpt lat="37.2368522" lon="13.670454"><ele>81.5</ele><time>2026-05-06T12:08:13.378Z</time></trkpt><trkpt lat="37.2369629" lon="13.6705281"><ele>81.75</ele><time>2026-05-06T12:08:14.378Z</time></trkpt><trkpt lat="37.2370829" lon="13.6705924"><ele>82.0</ele><time>2026-05-06T12:08:15.379Z</time></trkpt><trkpt lat="37.237196" lon="13.6706542"><ele>82.0</ele><time>2026-05-06T12:08:16.378Z</time></trkpt><trkpt lat="37.2372976" lon="13.6707224"><ele>82.0</ele><time>2026-05-06T12:08:17.378Z</time></trkpt><trkpt lat="37.2374024" lon="13.670796"><ele>82.0</ele><time>2026-05-06T12:08:18.378Z</time></trkpt><trkpt lat="37.2375126" lon="13.6708668"><ele>82.0</ele><time>2026-05-06T12:08:19.378Z</time></trkpt><trkpt lat="37.2376241" lon="13.6709381"><ele>81.25</ele><time>2026-05-06T12:08:20.378Z</time></trkpt><trkpt lat="37.2377344" lon="13.6710136"><ele>80.5</ele><time>2026-05-06T12:08:21.378Z</time></trkpt><trkpt lat="37.2378452" lon="13.6710908"><ele>79.75</ele><time>2026-05-06T12:08:22.379Z</time></trkpt><trkpt lat="37.2379559" lon="13.6711616"><ele>79.0</ele><time>2026-05-06T12:08:23.379Z</time></trkpt><trkpt lat="37.2380642" lon="13.67123"><ele>79.25</ele><time>2026-05-06T12:08:24.378Z</time></trkpt><trkpt lat="37.2381735" lon="13.6712976"><ele>79.5</ele><time>2026-05-06T12:08:25.378Z</time></trkpt><trkpt lat="37.2382749" lon="13.6713563"><ele>79.75</ele><time>2026-05-06T12:08:26.378Z</time></trkpt><trkpt lat="37.2383712" lon="13.671422"><ele>80.0</ele><time>2026-05-06T12:08:27.378Z</time></trkpt><trkpt lat="37.2384725" lon="13.6714895"><ele>80.0</ele><time>2026-05-06T12:08:28.378Z</time></trkpt><trkpt lat="37.2385637" lon="13.6715539"><ele>80.0</ele><time>2026-05-06T12:08:29.378Z</time></trkpt><trkpt lat="37.2386566" lon="13.6716187"><ele>80.0</ele><time>2026-05-06T12:08:30.378Z</time></trkpt><trkpt lat="37.2387595" lon="13.6716816"><ele>80.0</ele><time>2026-05-06T12:08:31.379Z</time></trkpt><trkpt lat="37.2388719" lon="13.6717394"><ele>80.0</ele><time>2026-05-06T12:08:32.379Z</time></trkpt><trkpt lat="37.2389869" lon="13.6717993"><ele>79.75</ele><time>2026-05-06T12:08:33.378Z</time></trkpt><trkpt lat="37.2390976" lon="13.6718432"><ele>79.5</ele><time>2026-05-06T12:08:34.378Z</time></trkpt><trkpt lat="37.2392107" lon="13.6718901"><ele>79.25</ele><time>2026-05-06T12:08:35.378Z</time></trkpt><trkpt lat="37.2393214" lon="13.6719389"><ele>79.0</ele><time>2026-05-06T12:08:36.379Z</time></trkpt><trkpt lat="37.2394322" lon="13.6719768"><ele>78.75</ele><time>2026-05-06T12:08:37.378Z</time></trkpt><trkpt lat="37.2395357" lon="13.6720097"><ele>78.5</ele><time>2026-05-06T12:08:38.378Z</time></trkpt><trkpt lat="37.239635" lon="13.67206"><ele>78.25</ele><time>2026-05-06T12:08:39.378Z</time></trkpt><trkpt lat="37.2397434" lon="13.6721168"><ele>78.0</ele><time>2026-05-06T12:08:40.378Z</time></trkpt><trkpt lat="37.2398534" lon="13.6721758"><ele>77.4</ele><time>2026-05-06T12:08:41.378Z</time></trkpt><trkpt lat="37.2399545" lon="13.6722302"><ele>76.8</ele><time>2026-05-06T12:08:42.378Z</time></trkpt><trkpt lat="37.2400502" lon="13.6722854"><ele>76.2</ele><time>2026-05-06T12:08:43.378Z</time></trkpt><trkpt lat="37.240142" lon="13.6723392"><ele>75.6</ele><time>2026-05-06T12:08:44.378Z</time></trkpt><trkpt lat="37.2402324" lon="13.6723911"><ele>75.0</ele><time>2026-05-06T12:08:45.378Z</time></trkpt><trkpt lat="37.2403231" lon="13.6724373"><ele>75.0</ele><time>2026-05-06T12:08:46.378Z</time></trkpt><trkpt lat="37.2404151" lon="13.6724764"><ele>75.0</ele><time>2026-05-06T12:08:47.378Z</time></trkpt><trkpt lat="37.240518" lon="13.6725243"><ele>75.0</ele><time>2026-05-06T12:08:48.378Z</time></trkpt><trkpt lat="37.240633" lon="13.6725848"><ele>75.0</ele><time>2026-05-06T12:08:49.378Z</time></trkpt><trkpt lat="37.2407524" lon="13.6726496"><ele>74.25</ele><time>2026-05-06T12:08:50.378Z</time></trkpt><trkpt lat="37.2408754" lon="13.6727126"><ele>73.5</ele><time>2026-05-06T12:08:51.378Z</time></trkpt><trkpt lat="37.2409895" lon="13.672772"><ele>72.75</ele><time>2026-05-06T12:08:52.378Z</time></trkpt><trkpt lat="37.2410955" lon="13.6728283"><ele>72.0</ele><time>2026-05-06T12:08:53.378Z</time></trkpt><trkpt lat="37.241196" lon="13.6728802"><ele>72.0</ele><time>2026-05-06T12:08:54.379Z</time></trkpt><trkpt lat="37.2412857" lon="13.6729303"><ele>72.0</ele><time>2026-05-06T12:08:55.378Z</time></trkpt><trkpt lat="37.2413591" lon="13.6729735"><ele>72.0</ele><time>2026-05-06T12:08:56.379Z</time></trkpt><trkpt lat="37.2414225" lon="13.6730086"><ele>72.0</ele><time>2026-05-06T12:08:57.38Z</time></trkpt><trkpt lat="37.2415271" lon="13.6730769"><ele>72.0</ele><time>2026-05-06T12:08:59.378Z</time></trkpt><trkpt lat="37.2416087" lon="13.6731464"><ele>70.66666666666667</ele><time>2026-05-06T12:09:01.379Z</time></trkpt><trkpt lat="37.2416627" lon="13.6732289"><ele>69.33333333333333</ele><time>2026-05-06T12:09:03.378Z</time></trkpt><trkpt lat="37.2417246" lon="13.673281"><ele>68.0</ele><time>2026-05-06T12:09:06.378Z</time></trkpt><trkpt lat="37.2417891" lon="13.6732949"><ele>66.66666666666666</ele><time>2026-05-06T12:09:14.378Z</time></trkpt><trkpt lat="37.2418815" lon="13.6733039"><ele>65.33333333333333</ele><time>2026-05-06T12:09:16.379Z</time></trkpt><trkpt lat="37.2419606" lon="13.6732694"><ele>64.0</ele><time>2026-05-06T12:09:17.378Z</time></trkpt><trkpt lat="37.2420536" lon="13.6732084"><ele>64.0</ele><time>2026-05-06T12:09:18.378Z</time></trkpt><trkpt lat="37.2421585" lon="13.6731312"><ele>64.0</ele><time>2026-05-06T12:09:19.378Z</time></trkpt><trkpt lat="37.2422778" lon="13.6730407"><ele>64.0</ele><time>2026-05-06T12:09:20.379Z</time></trkpt><trkpt lat="37.2424061" lon="13.6729409"><ele>64.0</ele><time>2026-05-06T12:09:21.378Z</time></trkpt><trkpt lat="37.2425475" lon="13.672829"><ele>62.0</ele><time>2026-05-06T12:09:22.378Z</time></trkpt><trkpt lat="37.2426866" lon="13.6727176"><ele>60.0</ele><time>2026-05-06T12:09:23.378Z</time></trkpt><trkpt lat="37.2428181" lon="13.6726118"><ele>58.0</ele><time>2026-05-06T12:09:24.379Z</time></trkpt><trkpt lat="37.2429485" lon="13.672498"><ele>58.0</ele><time>2026-05-06T12:09:25.378Z</time></trkpt><trkpt lat="37.2430811" lon="13.6723749"><ele>58.0</ele><time>2026-05-06T12:09:26.378Z</time></trkpt><trkpt lat="37.243219" lon="13.6722395"><ele>58.0</ele><time>2026-05-06T12:09:27.378Z</time></trkpt><trkpt lat="37.2433648" lon="13.6720882"><ele>58.0</ele><time>2026-05-06T12:09:28.378Z</time></trkpt><trkpt lat="37.2435165" lon="13.6719217"><ele>58.0</ele><time>2026-05-06T12:09:29.378Z</time></trkpt><trkpt lat="37.24367" lon="13.671747"><ele>58.0</ele><time>2026-05-06T12:09:30.378Z</time></trkpt><trkpt lat="37.2438199" lon="13.6715732"><ele>58.33333333333333</ele><time>2026-05-06T12:09:31.378Z</time></trkpt><trkpt lat="37.2439666" lon="13.6713977"><ele>58.66666666666667</ele><time>2026-05-06T12:09:32.379Z</time></trkpt><trkpt lat="37.2441131" lon="13.6712181"><ele>59.0</ele><time>2026-05-06T12:09:33.378Z</time></trkpt><trkpt lat="37.2442572" lon="13.6710367"><ele>58.333333333333336</ele><time>2026-05-06T12:09:34.378Z</time></trkpt><trkpt lat="37.2444015" lon="13.6708534"><ele>57.66666666666667</ele><time>2026-05-06T12:09:35.378Z</time></trkpt><trkpt lat="37.2445447" lon="13.6706719"><ele>57.0</ele><time>2026-05-06T12:09:36.379Z</time></trkpt><trkpt lat="37.2446865" lon="13.6704987"><ele>57.66666666666667</ele><time>2026-05-06T12:09:37.379Z</time></trkpt><trkpt lat="37.2448309" lon="13.6703318"><ele>58.333333333333336</ele><time>2026-05-06T12:09:38.378Z</time></trkpt><trkpt lat="37.2449814" lon="13.6701716"><ele>59.0</ele><time>2026-05-06T12:09:39.378Z</time></trkpt><trkpt lat="37.2451393" lon="13.6700133"><ele>59.0</ele><time>2026-05-06T12:09:40.379Z</time></trkpt><trkpt lat="37.2452994" lon="13.6698609"><ele>59.0</ele><time>2026-05-06T12:09:41.379Z</time></trkpt><trkpt lat="37.2454618" lon="13.6697113"><ele>59.0</ele><time>2026-05-06T12:09:42.378Z</time></trkpt><trkpt lat="37.2456236" lon="13.6695626"><ele>59.333333333333336</ele><time>2026-05-06T12:09:43.378Z</time></trkpt><trkpt lat="37.2457876" lon="13.6694137"><ele>59.66666666666667</ele><time>2026-05-06T12:09:44.378Z</time></trkpt><trkpt lat="37.2459513" lon="13.6692638"><ele>60.0</ele><time>2026-05-06T12:09:45.379Z</time></trkpt><trkpt lat="37.2461101" lon="13.6691189"><ele>60.0</ele><time>2026-05-06T12:09:46.378Z</time></trkpt><trkpt lat="37.2462608" lon="13.6689881"><ele>60.0</ele><time>2026-05-06T12:09:47.379Z</time></trkpt><trkpt lat="37.2464137" lon="13.668858"><ele>60.0</ele><time>2026-05-06T12:09:48.378Z</time></trkpt><trkpt lat="37.2465632" lon="13.6687319"><ele>60.0</ele><time>2026-05-06T12:09:49.378Z</time></trkpt><trkpt lat="37.2466991" lon="13.6686207"><ele>60.0</ele><time>2026-05-06T12:09:50.378Z</time></trkpt><trkpt lat="37.2468265" lon="13.6685173"><ele>60.0</ele><time>2026-05-06T12:09:51.378Z</time></trkpt><trkpt lat="37.2469436" lon="13.6684202"><ele>60.0</ele><time>2026-05-06T12:09:52.378Z</time></trkpt><trkpt lat="37.2470411" lon="13.6683426"><ele>60.0</ele><time>2026-05-06T12:09:53.379Z</time></trkpt><trkpt lat="37.247125" lon="13.6682831"><ele>60.0</ele><time>2026-05-06T12:09:54.378Z</time></trkpt><trkpt lat="37.2471911" lon="13.668235"><ele>60.0</ele><time>2026-05-06T12:09:55.378Z</time></trkpt><trkpt lat="37.2472739" lon="13.6681599"><ele>60.0</ele><time>2026-05-06T12:09:57.379Z</time></trkpt><trkpt lat="37.2473261" lon="13.6681083"><ele>60.2</ele><time>2026-05-06T12:10:05.378Z</time></trkpt><trkpt lat="37.2473574" lon="13.6679953"><ele>60.4</ele><time>2026-05-06T12:10:07.378Z</time></trkpt><trkpt lat="37.2473722" lon="13.6679014"><ele>60.599999999999994</ele><time>2026-05-06T12:10:08.378Z</time></trkpt><trkpt lat="37.2473944" lon="13.667763"><ele>60.8</ele><time>2026-05-06T12:10:10.378Z</time></trkpt><trkpt lat="37.247385" lon="13.6676223"><ele>61.0</ele><time>2026-05-06T12:10:12.379Z</time></trkpt><trkpt lat="37.247402" lon="13.6675257"><ele>60.99999999999999</ele><time>2026-05-06T12:10:14.378Z</time></trkpt><trkpt lat="37.2474606" lon="13.6674881"><ele>61.0</ele><time>2026-05-06T12:10:39.378Z</time></trkpt><trkpt lat="37.2473981" lon="13.6674406"><ele>61.0</ele><time>2026-05-06T12:13:03.378Z</time></trkpt><trkpt lat="37.2473743" lon="13.6675407"><ele>61.0</ele><time>2026-05-06T12:13:04.378Z</time></trkpt><trkpt lat="37.2473656" lon="13.6676416"><ele>60.99999999999999</ele><time>2026-05-06T12:13:05.377Z</time></trkpt><trkpt lat="37.2473707" lon="13.6677669"><ele>61.0</ele><time>2026-05-06T12:13:06.378Z</time></trkpt><trkpt lat="37.2473723" lon="13.6678505"><ele>61.0</ele><time>2026-05-06T12:13:07.377Z</time></trkpt><trkpt lat="37.2473563" lon="13.6679606"><ele>60.99999999999999</ele><time>2026-05-06T12:13:09.377Z</time></trkpt><trkpt lat="37.2473274" lon="13.6680372"><ele>60.99999999999999</ele><time>2026-05-06T12:13:16.377Z</time></trkpt><trkpt lat="37.2472366" lon="13.6681552"><ele>61.0</ele><time>2026-05-06T12:13:18.378Z</time></trkpt><trkpt lat="37.2471435" lon="13.6682337"><ele>61.0</ele><time>2026-05-06T12:13:19.377Z</time></trkpt><trkpt lat="37.247028" lon="13.6683242"><ele>60.666666666666664</ele><time>2026-05-06T12:13:20.378Z</time></trkpt><trkpt lat="37.2468973" lon="13.6684278"><ele>60.33333333333333</ele><time>2026-05-06T12:13:21.377Z</time></trkpt><trkpt lat="37.2467513" lon="13.6685423"><ele>60.0</ele><time>2026-05-06T12:13:22.377Z</time></trkpt><trkpt lat="37.246596" lon="13.6686687"><ele>60.0</ele><time>2026-05-06T12:13:23.378Z</time></trkpt><trkpt lat="37.2464315" lon="13.6688084"><ele>60.0</ele><time>2026-05-06T12:13:24.377Z</time></trkpt><trkpt lat="37.2462643" lon="13.6689521"><ele>60.0</ele><time>2026-05-06T12:13:25.377Z</time></trkpt><trkpt lat="37.2461129" lon="13.6690831"><ele>60.0</ele><time>2026-05-06T12:13:26.378Z</time></trkpt><trkpt lat="37.2459628" lon="13.6692115"><ele>60.0</ele><time>2026-05-06T12:13:27.377Z</time></trkpt><trkpt lat="37.2458027" lon="13.669356"><ele>60.0</ele><time>2026-05-06T12:13:28.377Z</time></trkpt><trkpt lat="37.2456508" lon="13.6694996"><ele>59.66666666666667</ele><time>2026-05-06T12:13:29.378Z</time></trkpt><trkpt lat="37.245507" lon="13.669632"><ele>59.333333333333336</ele><time>2026-05-06T12:13:30.377Z</time></trkpt><trkpt lat="37.2453591" lon="13.6697697"><ele>59.0</ele><time>2026-05-06T12:13:31.377Z</time></trkpt><trkpt lat="37.2452113" lon="13.6699071"><ele>59.0</ele><time>2026-05-06T12:13:32.378Z</time></trkpt><trkpt lat="37.2450671" lon="13.6700471"><ele>59.0</ele><time>2026-05-06T12:13:33.377Z</time></trkpt><trkpt lat="37.2449225" lon="13.6702008"><ele>59.0</ele><time>2026-05-06T12:13:34.377Z</time></trkpt><trkpt lat="37.2447897" lon="13.6703564"><ele>58.333333333333336</ele><time>2026-05-06T12:13:35.377Z</time></trkpt><trkpt lat="37.2446621" lon="13.6705101"><ele>57.66666666666667</ele><time>2026-05-06T12:13:36.378Z</time></trkpt><trkpt lat="37.2445384" lon="13.6706582"><ele>57.0</ele><time>2026-05-06T12:13:37.377Z</time></trkpt><trkpt lat="37.2444149" lon="13.6708072"><ele>57.0</ele><time>2026-05-06T12:13:38.377Z</time></trkpt><trkpt lat="37.2442919" lon="13.6709599"><ele>57.0</ele><time>2026-05-06T12:13:39.377Z</time></trkpt><trkpt lat="37.244167" lon="13.6711149"><ele>57.0</ele><time>2026-05-06T12:13:40.377Z</time></trkpt><trkpt lat="37.2440354" lon="13.6712791"><ele>57.33333333333333</ele><time>2026-05-06T12:13:41.377Z</time></trkpt><trkpt lat="37.2439057" lon="13.6714403"><ele>57.666666666666664</ele><time>2026-05-06T12:13:42.378Z</time></trkpt><trkpt lat="37.2437853" lon="13.6715887"><ele>58.0</ele><time>2026-05-06T12:13:43.377Z</time></trkpt><trkpt lat="37.243671" lon="13.6717242"><ele>58.0</ele><time>2026-05-06T12:13:44.377Z</time></trkpt><trkpt lat="37.2435637" lon="13.6718433"><ele>58.0</ele><time>2026-05-06T12:13:45.377Z</time></trkpt><trkpt lat="37.2434677" lon="13.6719469"><ele>58.0</ele><time>2026-05-06T12:13:46.377Z</time></trkpt><trkpt lat="37.243388" lon="13.672034"><ele>58.0</ele><time>2026-05-06T12:13:47.379Z</time></trkpt><trkpt lat="37.2433236" lon="13.6720992"><ele>58.33333333333333</ele><time>2026-05-06T12:13:48.378Z</time></trkpt><trkpt lat="37.2432479" lon="13.6721763"><ele>58.666666666666664</ele><time>2026-05-06T12:13:50.377Z</time></trkpt><trkpt lat="37.2431893" lon="13.6722503"><ele>59.0</ele><time>2026-05-06T12:13:52.378Z</time></trkpt><trkpt lat="37.2431569" lon="13.6723835"><ele>59.33333333333333</ele><time>2026-05-06T12:13:54.377Z</time></trkpt><trkpt lat="37.2431689" lon="13.6724629"><ele>59.666666666666664</ele><time>2026-05-06T12:13:55.377Z</time></trkpt><trkpt lat="37.2432156" lon="13.6725353"><ele>60.0</ele><time>2026-05-06T12:13:56.378Z</time></trkpt><trkpt lat="37.243292" lon="13.6726211"><ele>60.0</ele><time>2026-05-06T12:13:57.378Z</time></trkpt><trkpt lat="37.2433836" lon="13.6727313"><ele>60.0</ele><time>2026-05-06T12:13:58.377Z</time></trkpt><trkpt lat="37.243485" lon="13.6728634"><ele>60.0</ele><time>2026-05-06T12:13:59.378Z</time></trkpt><trkpt lat="37.2435932" lon="13.6730124"><ele>60.0</ele><time>2026-05-06T12:14:00.378Z</time></trkpt><trkpt lat="37.243711" lon="13.6731768"><ele>60.0</ele><time>2026-05-06T12:14:01.377Z</time></trkpt><trkpt lat="37.2438349" lon="13.673351"><ele>60.0</ele><time>2026-05-06T12:14:02.377Z</time></trkpt><trkpt lat="37.2439634" lon="13.673537"><ele>60.0</ele><time>2026-05-06T12:14:03.377Z</time></trkpt><trkpt lat="37.2440964" lon="13.6737328"><ele>62.0</ele><time>2026-05-06T12:14:04.377Z</time></trkpt><trkpt lat="37.2442369" lon="13.6739335"><ele>64.0</ele><time>2026-05-06T12:14:05.377Z</time></trkpt><trkpt lat="37.244377" lon="13.6741436"><ele>66.0</ele><time>2026-05-06T12:14:06.378Z</time></trkpt><trkpt lat="37.2445201" lon="13.6743578"><ele>67.5</ele><time>2026-05-06T12:14:07.377Z</time></trkpt><trkpt lat="37.2446678" lon="13.6745735"><ele>69.0</ele><time>2026-05-06T12:14:08.377Z</time></trkpt><trkpt lat="37.2448193" lon="13.6747909"><ele>69.0</ele><time>2026-05-06T12:14:09.377Z</time></trkpt><trkpt lat="37.2449733" lon="13.6750097"><ele>69.0</ele><time>2026-05-06T12:14:10.377Z</time></trkpt><trkpt lat="37.245125" lon="13.675236"><ele>70.0</ele><time>2026-05-06T12:14:11.377Z</time></trkpt><trkpt lat="37.245277" lon="13.6754648"><ele>71.0</ele><time>2026-05-06T12:14:12.377Z</time></trkpt><trkpt lat="37.2454334" lon="13.6756925"><ele>71.0</ele><time>2026-05-06T12:14:13.377Z</time></trkpt><trkpt lat="37.2455917" lon="13.6759194"><ele>71.0</ele><time>2026-05-06T12:14:14.378Z</time></trkpt><trkpt lat="37.2457499" lon="13.6761478"><ele>72.0</ele><time>2026-05-06T12:14:15.377Z</time></trkpt><trkpt lat="37.2459104" lon="13.6763765"><ele>73.0</ele><time>2026-05-06T12:14:16.377Z</time></trkpt><trkpt lat="37.2460719" lon="13.6766056"><ele>73.0</ele><time>2026-05-06T12:14:17.378Z</time></trkpt><trkpt lat="37.2462346" lon="13.6768356"><ele>73.0</ele><time>2026-05-06T12:14:18.377Z</time></trkpt><trkpt lat="37.2463978" lon="13.6770671"><ele>72.5</ele><time>2026-05-06T12:14:19.378Z</time></trkpt><trkpt lat="37.2465614" lon="13.6772985"><ele>72.0</ele><time>2026-05-06T12:14:20.377Z</time></trkpt><trkpt lat="37.2467255" lon="13.6775306"><ele>72.0</ele><time>2026-05-06T12:14:21.377Z</time></trkpt><trkpt lat="37.2468887" lon="13.6777646"><ele>72.0</ele><time>2026-05-06T12:14:22.377Z</time></trkpt><trkpt lat="37.2470535" lon="13.6779981"><ele>73.0</ele><time>2026-05-06T12:14:23.377Z</time></trkpt><trkpt lat="37.2472151" lon="13.6782313"><ele>74.0</ele><time>2026-05-06T12:14:24.377Z</time></trkpt><trkpt lat="37.2473727" lon="13.6784588"><ele>75.5</ele><time>2026-05-06T12:14:25.377Z</time></trkpt><trkpt lat="37.2475282" lon="13.6786803"><ele>77.0</ele><time>2026-05-06T12:14:26.377Z</time></trkpt><trkpt lat="37.2476786" lon="13.678902"><ele>77.0</ele><time>2026-05-06T12:14:27.377Z</time></trkpt><trkpt lat="37.2478275" lon="13.6791181"><ele>77.0</ele><time>2026-05-06T12:14:28.377Z</time></trkpt><trkpt lat="37.2479634" lon="13.6793112"><ele>77.0</ele><time>2026-05-06T12:14:29.377Z</time></trkpt><trkpt lat="37.2480913" lon="13.6794926"><ele>77.66666666666667</ele><time>2026-05-06T12:14:30.377Z</time></trkpt><trkpt lat="37.2482161" lon="13.6796731"><ele>78.33333333333333</ele><time>2026-05-06T12:14:31.377Z</time></trkpt><trkpt lat="37.2483318" lon="13.6798529"><ele>79.0</ele><time>2026-05-06T12:14:32.377Z</time></trkpt><trkpt lat="37.2484373" lon="13.6800328"><ele>79.0</ele><time>2026-05-06T12:14:33.377Z</time></trkpt><trkpt lat="37.2485304" lon="13.6802229"><ele>79.0</ele><time>2026-05-06T12:14:34.377Z</time></trkpt><trkpt lat="37.2486057" lon="13.680426"><ele>79.0</ele><time>2026-05-06T12:14:35.378Z</time></trkpt><trkpt lat="37.2486663" lon="13.6806369"><ele>79.66666666666666</ele><time>2026-05-06T12:14:36.377Z</time></trkpt><trkpt lat="37.2487157" lon="13.6808575"><ele>80.33333333333333</ele><time>2026-05-06T12:14:37.378Z</time></trkpt><trkpt lat="37.2487512" lon="13.6810826"><ele>81.0</ele><time>2026-05-06T12:14:38.377Z</time></trkpt><trkpt lat="37.2487687" lon="13.6813147"><ele>82.0</ele><time>2026-05-06T12:14:39.377Z</time></trkpt><trkpt lat="37.2487662" lon="13.6815509"><ele>83.0</ele><time>2026-05-06T12:14:40.377Z</time></trkpt><trkpt lat="37.248744" lon="13.6817874"><ele>84.0</ele><time>2026-05-06T12:14:41.378Z</time></trkpt><trkpt lat="37.2487041" lon="13.6820226"><ele>85.33333333333333</ele><time>2026-05-06T12:14:42.377Z</time></trkpt><trkpt lat="37.2486494" lon="13.6822547"><ele>86.66666666666666</ele><time>2026-05-06T12:14:43.377Z</time></trkpt><trkpt lat="37.2485786" lon="13.6824744"><ele>88.0</ele><time>2026-05-06T12:14:44.377Z</time></trkpt><trkpt lat="37.2484904" lon="13.6826918"><ele>88.33333333333333</ele><time>2026-05-06T12:14:45.377Z</time></trkpt><trkpt lat="37.2484005" lon="13.6829039"><ele>88.66666666666667</ele><time>2026-05-06T12:14:46.377Z</time></trkpt><trkpt lat="37.2483286" lon="13.6831244"><ele>89.0</ele><time>2026-05-06T12:14:47.377Z</time></trkpt><trkpt lat="37.248263" lon="13.6833565"><ele>89.0</ele><time>2026-05-06T12:14:48.377Z</time></trkpt><trkpt lat="37.2481987" lon="13.6835918"><ele>89.0</ele><time>2026-05-06T12:14:49.377Z</time></trkpt><trkpt lat="37.2481422" lon="13.6838333"><ele>89.0</ele><time>2026-05-06T12:14:50.377Z</time></trkpt><trkpt lat="37.2480936" lon="13.6840635"><ele>88.0</ele><time>2026-05-06T12:14:51.377Z</time></trkpt><trkpt lat="37.2480503" lon="13.6842882"><ele>87.0</ele><time>2026-05-06T12:14:52.377Z</time></trkpt><trkpt lat="37.2480121" lon="13.6845142"><ele>86.0</ele><time>2026-05-06T12:14:53.377Z</time></trkpt><trkpt lat="37.2479821" lon="13.6847399"><ele>86.0</ele><time>2026-05-06T12:14:54.377Z</time></trkpt><trkpt lat="37.2479593" lon="13.6849695"><ele>86.0</ele><time>2026-05-06T12:14:55.378Z</time></trkpt><trkpt lat="37.247943" lon="13.6852029"><ele>86.0</ele><time>2026-05-06T12:14:56.377Z</time></trkpt><trkpt lat="37.2479386" lon="13.6854433"><ele>86.66666666666667</ele><time>2026-05-06T12:14:57.377Z</time></trkpt><trkpt lat="37.2479457" lon="13.6856923"><ele>87.33333333333333</ele><time>2026-05-06T12:14:58.377Z</time></trkpt><trkpt lat="37.2479629" lon="13.6859508"><ele>88.0</ele><time>2026-05-06T12:14:59.377Z</time></trkpt><trkpt lat="37.2479921" lon="13.6862123"><ele>88.0</ele><time>2026-05-06T12:15:00.377Z</time></trkpt><trkpt lat="37.2480327" lon="13.6864766"><ele>88.0</ele><time>2026-05-06T12:15:01.378Z</time></trkpt><trkpt lat="37.2480799" lon="13.6867434"><ele>88.0</ele><time>2026-05-06T12:15:02.377Z</time></trkpt><trkpt lat="37.2481407" lon="13.687007"><ele>90.0</ele><time>2026-05-06T12:15:03.377Z</time></trkpt><trkpt lat="37.2482149" lon="13.6872684"><ele>92.0</ele><time>2026-05-06T12:15:04.377Z</time></trkpt><trkpt lat="37.2482936" lon="13.6875298"><ele>94.0</ele><time>2026-05-06T12:15:05.377Z</time></trkpt><trkpt lat="37.2483742" lon="13.6877918"><ele>94.66666666666666</ele><time>2026-05-06T12:15:06.378Z</time></trkpt><trkpt lat="37.2484556" lon="13.6880529"><ele>95.33333333333333</ele><time>2026-05-06T12:15:07.377Z</time></trkpt><trkpt lat="37.2485375" lon="13.6883147"><ele>96.0</ele><time>2026-05-06T12:15:08.377Z</time></trkpt><trkpt lat="37.248618" lon="13.6885756"><ele>96.0</ele><time>2026-05-06T12:15:09.377Z</time></trkpt><trkpt lat="37.2486988" lon="13.6888403"><ele>96.0</ele><time>2026-05-06T12:15:10.378Z</time></trkpt><trkpt lat="37.2487822" lon="13.6891046"><ele>96.0</ele><time>2026-05-06T12:15:11.377Z</time></trkpt><trkpt lat="37.2488667" lon="13.6893673"><ele>96.0</ele><time>2026-05-06T12:15:12.378Z</time></trkpt><trkpt lat="37.2489518" lon="13.6896294"><ele>99.5</ele><time>2026-05-06T12:15:13.377Z</time></trkpt><trkpt lat="37.2490355" lon="13.6898933"><ele>103.0</ele><time>2026-05-06T12:15:14.377Z</time></trkpt><trkpt lat="37.2491188" lon="13.6901598"><ele>103.5</ele><time>2026-05-06T12:15:15.377Z</time></trkpt><trkpt lat="37.2492025" lon="13.6904293"><ele>104.0</ele><time>2026-05-06T12:15:16.377Z</time></trkpt><trkpt lat="37.2492847" lon="13.6906968"><ele>104.0</ele><time>2026-05-06T12:15:17.377Z</time></trkpt><trkpt lat="37.249362" lon="13.6909584"><ele>104.0</ele><time>2026-05-06T12:15:18.377Z</time></trkpt><trkpt lat="37.2494382" lon="13.6912092"><ele>104.0</ele><time>2026-05-06T12:15:19.378Z</time></trkpt><trkpt lat="37.2495149" lon="13.6914552"><ele>104.0</ele><time>2026-05-06T12:15:20.377Z</time></trkpt><trkpt lat="37.2495912" lon="13.6916958"><ele>104.0</ele><time>2026-05-06T12:15:21.377Z</time></trkpt><trkpt lat="37.2496669" lon="13.6919355"><ele>104.0</ele><time>2026-05-06T12:15:22.377Z</time></trkpt><trkpt lat="37.2497381" lon="13.6921709"><ele>106.0</ele><time>2026-05-06T12:15:23.377Z</time></trkpt><trkpt lat="37.2498064" lon="13.6924019"><ele>108.0</ele><time>2026-05-06T12:15:24.377Z</time></trkpt><trkpt lat="37.2498719" lon="13.6926316"><ele>110.0</ele><time>2026-05-06T12:15:25.377Z</time></trkpt><trkpt lat="37.2499433" lon="13.6928526"><ele>110.0</ele><time>2026-05-06T12:15:26.378Z</time></trkpt><trkpt lat="37.2500299" lon="13.693067"><ele>110.0</ele><time>2026-05-06T12:15:27.377Z</time></trkpt><trkpt lat="37.2501303" lon="13.6932778"><ele>110.0</ele><time>2026-05-06T12:15:28.377Z</time></trkpt><trkpt lat="37.2502442" lon="13.6934871"><ele>109.66666666666666</ele><time>2026-05-06T12:15:29.377Z</time></trkpt><trkpt lat="37.2503654" lon="13.6936994"><ele>109.33333333333334</ele><time>2026-05-06T12:15:30.377Z</time></trkpt><trkpt lat="37.2504886" lon="13.6939146"><ele>109.0</ele><time>2026-05-06T12:15:31.378Z</time></trkpt><trkpt lat="37.2506166" lon="13.694134"><ele>112.0</ele><time>2026-05-06T12:15:32.377Z</time></trkpt><trkpt lat="37.2507468" lon="13.6943568"><ele>115.0</ele><time>2026-05-06T12:15:33.377Z</time></trkpt><trkpt lat="37.2508776" lon="13.6945826"><ele>118.0</ele><time>2026-05-06T12:15:34.377Z</time></trkpt><trkpt lat="37.2510071" lon="13.6948105"><ele>118.0</ele><time>2026-05-06T12:15:35.377Z</time></trkpt><trkpt lat="37.2511288" lon="13.6950235"><ele>118.0</ele><time>2026-05-06T12:15:36.378Z</time></trkpt><trkpt lat="37.2512427" lon="13.6952273"><ele>118.0</ele><time>2026-05-06T12:15:37.377Z</time></trkpt><trkpt lat="37.2513475" lon="13.6954362"><ele>118.33333333333334</ele><time>2026-05-06T12:15:38.377Z</time></trkpt><trkpt lat="37.2514324" lon="13.6956524"><ele>118.66666666666666</ele><time>2026-05-06T12:15:39.377Z</time></trkpt><trkpt lat="37.25149" lon="13.6958838"><ele>119.0</ele><time>2026-05-06T12:15:40.378Z</time></trkpt><trkpt lat="37.2515271" lon="13.6961291"><ele>123.66666666666666</ele><time>2026-05-06T12:15:41.377Z</time></trkpt><trkpt lat="37.2515506" lon="13.6963814"><ele>128.33333333333334</ele><time>2026-05-06T12:15:42.378Z</time></trkpt><trkpt lat="37.2515743" lon="13.6966309"><ele>133.0</ele><time>2026-05-06T12:15:43.377Z</time></trkpt><trkpt lat="37.2515974" lon="13.6968506"><ele>133.0</ele><time>2026-05-06T12:15:44.377Z</time></trkpt><trkpt lat="37.2516274" lon="13.6970654"><ele>133.0</ele><time>2026-05-06T12:15:45.377Z</time></trkpt><trkpt lat="37.25167" lon="13.6972806"><ele>133.0</ele><time>2026-05-06T12:15:46.378Z</time></trkpt><trkpt lat="37.2517293" lon="13.6974879"><ele>133.0</ele><time>2026-05-06T12:15:47.379Z</time></trkpt><trkpt lat="37.2518102" lon="13.6976875"><ele>133.0</ele><time>2026-05-06T12:15:48.377Z</time></trkpt><trkpt lat="37.2519113" lon="13.6978875"><ele>133.0</ele><time>2026-05-06T12:15:49.376Z</time></trkpt><trkpt lat="37.2520313" lon="13.6980817"><ele>135.0</ele><time>2026-05-06T12:15:50.376Z</time></trkpt><trkpt lat="37.2521653" lon="13.6982594"><ele>137.0</ele><time>2026-05-06T12:15:51.376Z</time></trkpt><trkpt lat="37.2523077" lon="13.6984292"><ele>139.0</ele><time>2026-05-06T12:15:52.376Z</time></trkpt><trkpt lat="37.252453" lon="13.6985967"><ele>135.0</ele><time>2026-05-06T12:15:53.376Z</time></trkpt><trkpt lat="37.2525974" lon="13.6987607"><ele>131.0</ele><time>2026-05-06T12:15:54.376Z</time></trkpt><trkpt lat="37.2527334" lon="13.6989144"><ele>127.0</ele><time>2026-05-06T12:15:55.376Z</time></trkpt><trkpt lat="37.2528651" lon="13.6990668"><ele>127.0</ele><time>2026-05-06T12:15:56.377Z</time></trkpt><trkpt lat="37.2529861" lon="13.6992111"><ele>127.0</ele><time>2026-05-06T12:15:57.376Z</time></trkpt><trkpt lat="37.2530997" lon="13.6993633"><ele>127.0</ele><time>2026-05-06T12:15:58.376Z</time></trkpt><trkpt lat="37.2531998" lon="13.6995326"><ele>128.66666666666669</ele><time>2026-05-06T12:15:59.377Z</time></trkpt><trkpt lat="37.2532824" lon="13.6997205"><ele>130.33333333333334</ele><time>2026-05-06T12:16:00.376Z</time></trkpt><trkpt lat="37.2533435" lon="13.699918"><ele>132.0</ele><time>2026-05-06T12:16:01.376Z</time></trkpt><trkpt lat="37.2533904" lon="13.7001302"><ele>132.0</ele><time>2026-05-06T12:16:02.377Z</time></trkpt><trkpt lat="37.2534151" lon="13.7003577"><ele>132.0</ele><time>2026-05-06T12:16:03.376Z</time></trkpt><trkpt lat="37.2534167" lon="13.7006"><ele>132.0</ele><time>2026-05-06T12:16:04.377Z</time></trkpt><trkpt lat="37.2533989" lon="13.7008508"><ele>132.0</ele><time>2026-05-06T12:16:05.376Z</time></trkpt><trkpt lat="37.2533758" lon="13.701111"><ele>132.0</ele><time>2026-05-06T12:16:06.376Z</time></trkpt><trkpt lat="37.2533531" lon="13.7013788"><ele>132.0</ele><time>2026-05-06T12:16:07.377Z</time></trkpt><trkpt lat="37.2533285" lon="13.7016526"><ele>131.0</ele><time>2026-05-06T12:16:08.376Z</time></trkpt><trkpt lat="37.253303" lon="13.7019293"><ele>130.0</ele><time>2026-05-06T12:16:09.376Z</time></trkpt><trkpt lat="37.2532802" lon="13.7021944"><ele>129.0</ele><time>2026-05-06T12:16:10.376Z</time></trkpt><trkpt lat="37.2532516" lon="13.7024578"><ele>129.0</ele><time>2026-05-06T12:16:11.377Z</time></trkpt><trkpt lat="37.2532097" lon="13.7027136"><ele>129.0</ele><time>2026-05-06T12:16:12.376Z</time></trkpt><trkpt lat="37.2531583" lon="13.702967"><ele>129.0</ele><time>2026-05-06T12:16:13.376Z</time></trkpt><trkpt lat="37.2531107" lon="13.7032215"><ele>128.33333333333334</ele><time>2026-05-06T12:16:14.376Z</time></trkpt><trkpt lat="37.2530606" lon="13.7034748"><ele>127.66666666666667</ele><time>2026-05-06T12:16:15.376Z</time></trkpt><trkpt lat="37.2530068" lon="13.7037257"><ele>127.0</ele><time>2026-05-06T12:16:16.377Z</time></trkpt><trkpt lat="37.2529532" lon="13.7039753"><ele>128.0</ele><time>2026-05-06T12:16:17.377Z</time></trkpt><trkpt lat="37.2528997" lon="13.7042239"><ele>129.0</ele><time>2026-05-06T12:16:18.376Z</time></trkpt><trkpt lat="37.2528507" lon="13.7044656"><ele>130.0</ele><time>2026-05-06T12:16:19.376Z</time></trkpt><trkpt lat="37.2528043" lon="13.7046909"><ele>130.0</ele><time>2026-05-06T12:16:20.376Z</time></trkpt><trkpt lat="37.2527606" lon="13.7048961"><ele>130.0</ele><time>2026-05-06T12:16:21.376Z</time></trkpt><trkpt lat="37.2527222" lon="13.7050876"><ele>130.0</ele><time>2026-05-06T12:16:22.376Z</time></trkpt><trkpt lat="37.2526961" lon="13.705261"><ele>130.25</ele><time>2026-05-06T12:16:23.376Z</time></trkpt><trkpt lat="37.2526854" lon="13.7054342"><ele>130.5</ele><time>2026-05-06T12:16:24.377Z</time></trkpt><trkpt lat="37.2526923" lon="13.705605"><ele>130.75</ele><time>2026-05-06T12:16:25.376Z</time></trkpt><trkpt lat="37.2527096" lon="13.705777"><ele>131.0</ele><time>2026-05-06T12:16:26.376Z</time></trkpt><trkpt lat="37.2527412" lon="13.7059497"><ele>131.0</ele><time>2026-05-06T12:16:27.376Z</time></trkpt><trkpt lat="37.2527925" lon="13.706123"><ele>131.0</ele><time>2026-05-06T12:16:28.376Z</time></trkpt><trkpt lat="37.2528627" lon="13.7062944"><ele>131.0</ele><time>2026-05-06T12:16:29.377Z</time></trkpt><trkpt lat="37.2529475" lon="13.706466"><ele>131.0</ele><time>2026-05-06T12:16:30.376Z</time></trkpt><trkpt lat="37.2530511" lon="13.7066322"><ele>131.0</ele><time>2026-05-06T12:16:31.376Z</time></trkpt><trkpt lat="37.2531725" lon="13.7067876"><ele>131.0</ele><time>2026-05-06T12:16:32.376Z</time></trkpt><trkpt lat="37.2533155" lon="13.7069266"><ele>131.66666666666666</ele><time>2026-05-06T12:16:33.378Z</time></trkpt><trkpt lat="37.253475" lon="13.7070466"><ele>132.33333333333334</ele><time>2026-05-06T12:16:34.376Z</time></trkpt><trkpt lat="37.2536268" lon="13.7071358"><ele>133.0</ele><time>2026-05-06T12:16:35.376Z</time></trkpt><trkpt lat="37.253776" lon="13.7072198"><ele>133.0</ele><time>2026-05-06T12:16:36.376Z</time></trkpt><trkpt lat="37.2539214" lon="13.7073101"><ele>133.0</ele><time>2026-05-06T12:16:37.377Z</time></trkpt><trkpt lat="37.2540568" lon="13.7074179"><ele>133.0</ele><time>2026-05-06T12:16:38.376Z</time></trkpt><trkpt lat="37.2541821" lon="13.707558"><ele>134.33333333333334</ele><time>2026-05-06T12:16:39.376Z</time></trkpt><trkpt lat="37.2542928" lon="13.7077255"><ele>135.66666666666666</ele><time>2026-05-06T12:16:40.376Z</time></trkpt><trkpt lat="37.2543837" lon="13.7079243"><ele>137.0</ele><time>2026-05-06T12:16:41.377Z</time></trkpt><trkpt lat="37.2544622" lon="13.7081424"><ele>137.0</ele><time>2026-05-06T12:16:42.376Z</time></trkpt><trkpt lat="37.2545376" lon="13.7083634"><ele>137.0</ele><time>2026-05-06T12:16:43.377Z</time></trkpt><trkpt lat="37.2545972" lon="13.7085838"><ele>137.0</ele><time>2026-05-06T12:16:44.376Z</time></trkpt><trkpt lat="37.2546334" lon="13.7088216"><ele>137.0</ele><time>2026-05-06T12:16:45.377Z</time></trkpt><trkpt lat="37.2546465" lon="13.7090703"><ele>137.0</ele><time>2026-05-06T12:16:46.376Z</time></trkpt><trkpt lat="37.2546516" lon="13.7093252"><ele>137.0</ele><time>2026-05-06T12:16:47.376Z</time></trkpt><trkpt lat="37.2546623" lon="13.7095853"><ele>137.33333333333331</ele><time>2026-05-06T12:16:48.376Z</time></trkpt><trkpt lat="37.254676" lon="13.7098491"><ele>137.66666666666666</ele><time>2026-05-06T12:16:49.376Z</time></trkpt><trkpt lat="37.2546892" lon="13.7101158"><ele>138.0</ele><time>2026-05-06T12:16:50.376Z</time></trkpt><trkpt lat="37.254702" lon="13.7103841"><ele>138.66666666666666</ele><time>2026-05-06T12:16:51.376Z</time></trkpt><trkpt lat="37.2547115" lon="13.7106538"><ele>139.33333333333331</ele><time>2026-05-06T12:16:52.377Z</time></trkpt><trkpt lat="37.2547207" lon="13.7109237"><ele>140.0</ele><time>2026-05-06T12:16:53.377Z</time></trkpt><trkpt lat="37.2547318" lon="13.7111916"><ele>140.66666666666666</ele><time>2026-05-06T12:16:54.376Z</time></trkpt><trkpt lat="37.2547443" lon="13.7114563"><ele>141.33333333333334</ele><time>2026-05-06T12:16:55.376Z</time></trkpt><trkpt lat="37.2547574" lon="13.7117192"><ele>142.0</ele><time>2026-05-06T12:16:56.377Z</time></trkpt><trkpt lat="37.2547705" lon="13.7119825"><ele>145.0</ele><time>2026-05-06T12:16:57.377Z</time></trkpt><trkpt lat="37.2547817" lon="13.7122445"><ele>148.0</ele><time>2026-05-06T12:16:58.376Z</time></trkpt><trkpt lat="37.2547942" lon="13.7125053"><ele>151.0</ele><time>2026-05-06T12:16:59.376Z</time></trkpt><trkpt lat="37.2548068" lon="13.7127569"><ele>158.0</ele><time>2026-05-06T12:17:00.376Z</time></trkpt><trkpt lat="37.2548168" lon="13.712994"><ele>165.0</ele><time>2026-05-06T12:17:01.376Z</time></trkpt><trkpt lat="37.2548197" lon="13.7132298"><ele>172.0</ele><time>2026-05-06T12:17:02.376Z</time></trkpt><trkpt lat="37.2548162" lon="13.7134552"><ele>171.0</ele><time>2026-05-06T12:17:03.376Z</time></trkpt><trkpt lat="37.2548084" lon="13.7136741"><ele>170.0</ele><time>2026-05-06T12:17:04.377Z</time></trkpt><trkpt lat="37.2547915" lon="13.7139005"><ele>169.0</ele><time>2026-05-06T12:17:05.376Z</time></trkpt><trkpt lat="37.2547614" lon="13.7141321"><ele>169.0</ele><time>2026-05-06T12:17:06.377Z</time></trkpt><trkpt lat="37.2547213" lon="13.7143661"><ele>169.0</ele><time>2026-05-06T12:17:07.376Z</time></trkpt><trkpt lat="37.2546805" lon="13.7145878"><ele>169.0</ele><time>2026-05-06T12:17:08.376Z</time></trkpt><trkpt lat="37.2546529" lon="13.7147794"><ele>167.25</ele><time>2026-05-06T12:17:09.376Z</time></trkpt><trkpt lat="37.2546383" lon="13.7149425"><ele>165.5</ele><time>2026-05-06T12:17:10.377Z</time></trkpt><trkpt lat="37.2546378" lon="13.7150885"><ele>163.75</ele><time>2026-05-06T12:17:11.377Z</time></trkpt><trkpt lat="37.2546577" lon="13.7152183"><ele>162.0</ele><time>2026-05-06T12:17:12.376Z</time></trkpt><trkpt lat="37.2547006" lon="13.7153459"><ele>162.0</ele><time>2026-05-06T12:17:13.376Z</time></trkpt><trkpt lat="37.2547704" lon="13.7154574"><ele>162.0</ele><time>2026-05-06T12:17:14.376Z</time></trkpt><trkpt lat="37.2548635" lon="13.7155536"><ele>162.0</ele><time>2026-05-06T12:17:15.376Z</time></trkpt><trkpt lat="37.2549837" lon="13.715638"><ele>162.0</ele><time>2026-05-06T12:17:16.377Z</time></trkpt><trkpt lat="37.2551215" lon="13.7157137"><ele>164.66666666666666</ele><time>2026-05-06T12:17:17.376Z</time></trkpt><trkpt lat="37.2552668" lon="13.7157892"><ele>167.33333333333331</ele><time>2026-05-06T12:17:18.376Z</time></trkpt><trkpt lat="37.2554166" lon="13.7158694"><ele>170.0</ele><time>2026-05-06T12:17:19.376Z</time></trkpt><trkpt lat="37.2555618" lon="13.715946"><ele>174.0</ele><time>2026-05-06T12:17:20.377Z</time></trkpt><trkpt lat="37.2556986" lon="13.7160173"><ele>178.0</ele><time>2026-05-06T12:17:21.376Z</time></trkpt><trkpt lat="37.2558365" lon="13.7160887"><ele>182.0</ele><time>2026-05-06T12:17:22.376Z</time></trkpt><trkpt lat="37.2559788" lon="13.7161609"><ele>174.33333333333331</ele><time>2026-05-06T12:17:23.376Z</time></trkpt><trkpt lat="37.2561289" lon="13.7162317"><ele>166.66666666666666</ele><time>2026-05-06T12:17:24.376Z</time></trkpt><trkpt lat="37.2562921" lon="13.7162954"><ele>159.0</ele><time>2026-05-06T12:17:25.376Z</time></trkpt><trkpt lat="37.256461" lon="13.7163523"><ele>159.0</ele><time>2026-05-06T12:17:26.376Z</time></trkpt><trkpt lat="37.2566305" lon="13.7164031"><ele>159.0</ele><time>2026-05-06T12:17:27.376Z</time></trkpt><trkpt lat="37.2567973" lon="13.7164531"><ele>159.0</ele><time>2026-05-06T12:17:28.376Z</time></trkpt><trkpt lat="37.2569641" lon="13.7165046"><ele>159.0</ele><time>2026-05-06T12:17:29.376Z</time></trkpt><trkpt lat="37.2571226" lon="13.716561"><ele>159.0</ele><time>2026-05-06T12:17:30.376Z</time></trkpt><trkpt lat="37.2572713" lon="13.7166229"><ele>159.0</ele><time>2026-05-06T12:17:31.376Z</time></trkpt><trkpt lat="37.257418" lon="13.7166958"><ele>156.66666666666666</ele><time>2026-05-06T12:17:32.377Z</time></trkpt><trkpt lat="37.2575587" lon="13.7167854"><ele>154.33333333333331</ele><time>2026-05-06T12:17:33.376Z</time></trkpt><trkpt lat="37.2577021" lon="13.7168843"><ele>152.0</ele><time>2026-05-06T12:17:34.377Z</time></trkpt><trkpt lat="37.2578435" lon="13.7169872"><ele>152.0</ele><time>2026-05-06T12:17:35.376Z</time></trkpt><trkpt lat="37.257973" lon="13.7171357"><ele>152.0</ele><time>2026-05-06T12:17:36.376Z</time></trkpt><trkpt lat="37.2580927" lon="13.7172912"><ele>152.0</ele><time>2026-05-06T12:17:37.377Z</time></trkpt><trkpt lat="37.2582093" lon="13.7174652"><ele>155.0</ele><time>2026-05-06T12:17:38.376Z</time></trkpt><trkpt lat="37.2583202" lon="13.7176573"><ele>158.0</ele><time>2026-05-06T12:17:39.376Z</time></trkpt><trkpt lat="37.2584267" lon="13.7178693"><ele>161.0</ele><time>2026-05-06T12:17:40.376Z</time></trkpt><trkpt lat="37.2585367" lon="13.7180929"><ele>161.0</ele><time>2026-05-06T12:17:41.376Z</time></trkpt><trkpt lat="37.2586509" lon="13.718325"><ele>161.0</ele><time>2026-05-06T12:17:42.376Z</time></trkpt><trkpt lat="37.25876" lon="13.7185609"><ele>161.0</ele><time>2026-05-06T12:17:43.376Z</time></trkpt><trkpt lat="37.2588545" lon="13.7187758"><ele>163.66666666666666</ele><time>2026-05-06T12:17:44.377Z</time></trkpt><trkpt lat="37.2589449" lon="13.7189835"><ele>166.33333333333334</ele><time>2026-05-06T12:17:45.377Z</time></trkpt><trkpt lat="37.259035" lon="13.7191654"><ele>169.0</ele><time>2026-05-06T12:17:46.376Z</time></trkpt><trkpt lat="37.2591393" lon="13.719327"><ele>168.0</ele><time>2026-05-06T12:17:47.376Z</time></trkpt><trkpt lat="37.2592619" lon="13.7194744"><ele>167.0</ele><time>2026-05-06T12:17:48.376Z</time></trkpt><trkpt lat="37.2594026" lon="13.7195987"><ele>166.0</ele><time>2026-05-06T12:17:49.376Z</time></trkpt><trkpt lat="37.2595624" lon="13.7196999"><ele>166.0</ele><time>2026-05-06T12:17:50.377Z</time></trkpt><trkpt lat="37.2597387" lon="13.7197808"><ele>166.0</ele><time>2026-05-06T12:17:51.376Z</time></trkpt><trkpt lat="37.2599257" lon="13.7198534"><ele>166.0</ele><time>2026-05-06T12:17:52.376Z</time></trkpt><trkpt lat="37.2601199" lon="13.7199202"><ele>169.33333333333334</ele><time>2026-05-06T12:17:53.376Z</time></trkpt><trkpt lat="37.2603173" lon="13.7199923"><ele>172.66666666666666</ele><time>2026-05-06T12:17:54.377Z</time></trkpt><trkpt lat="37.260516" lon="13.7200701"><ele>176.0</ele><time>2026-05-06T12:17:55.377Z</time></trkpt><trkpt lat="37.2607172" lon="13.7201491"><ele>174.33333333333331</ele><time>2026-05-06T12:17:56.377Z</time></trkpt><trkpt lat="37.2609204" lon="13.720227"><ele>172.66666666666666</ele><time>2026-05-06T12:17:57.376Z</time></trkpt><trkpt lat="37.2611244" lon="13.7203076"><ele>171.0</ele><time>2026-05-06T12:17:58.376Z</time></trkpt><trkpt lat="37.2613164" lon="13.7203961"><ele>177.0</ele><time>2026-05-06T12:17:59.376Z</time></trkpt><trkpt lat="37.2614815" lon="13.7205012"><ele>183.0</ele><time>2026-05-06T12:18:00.376Z</time></trkpt><trkpt lat="37.2616452" lon="13.7206299"><ele>189.0</ele><time>2026-05-06T12:18:01.376Z</time></trkpt><trkpt lat="37.2618001" lon="13.7207789"><ele>189.0</ele><time>2026-05-06T12:18:02.377Z</time></trkpt><trkpt lat="37.2619432" lon="13.7209525"><ele>189.0</ele><time>2026-05-06T12:18:03.376Z</time></trkpt><trkpt lat="37.2620782" lon="13.7211414"><ele>189.0</ele><time>2026-05-06T12:18:04.377Z</time></trkpt><trkpt lat="37.2622085" lon="13.7213367"><ele>189.66666666666666</ele><time>2026-05-06T12:18:05.376Z</time></trkpt><trkpt lat="37.2623401" lon="13.7215337"><ele>190.33333333333331</ele><time>2026-05-06T12:18:06.376Z</time></trkpt><trkpt lat="37.2624716" lon="13.7217318"><ele>191.0</ele><time>2026-05-06T12:18:07.377Z</time></trkpt><trkpt lat="37.2626081" lon="13.7219302"><ele>191.0</ele><time>2026-05-06T12:18:08.376Z</time></trkpt><trkpt lat="37.2627462" lon="13.7221329"><ele>191.0</ele><time>2026-05-06T12:18:09.376Z</time></trkpt><trkpt lat="37.2628846" lon="13.7223378"><ele>191.0</ele><time>2026-05-06T12:18:10.376Z</time></trkpt><trkpt lat="37.2630239" lon="13.722544"><ele>194.66666666666666</ele><time>2026-05-06T12:18:11.376Z</time></trkpt><trkpt lat="37.2631627" lon="13.7227515"><ele>198.33333333333331</ele><time>2026-05-06T12:18:12.377Z</time></trkpt><trkpt lat="37.263302" lon="13.72296"><ele>202.0</ele><time>2026-05-06T12:18:13.376Z</time></trkpt><trkpt lat="37.2634427" lon="13.723168"><ele>202.0</ele><time>2026-05-06T12:18:14.376Z</time></trkpt><trkpt lat="37.2635845" lon="13.7233767"><ele>202.0</ele><time>2026-05-06T12:18:15.376Z</time></trkpt><trkpt lat="37.263727" lon="13.7235852"><ele>202.0</ele><time>2026-05-06T12:18:16.376Z</time></trkpt><trkpt lat="37.2638689" lon="13.7237949"><ele>207.33333333333331</ele><time>2026-05-06T12:18:17.376Z</time></trkpt><trkpt lat="37.2640111" lon="13.7240055"><ele>212.66666666666669</ele><time>2026-05-06T12:18:18.376Z</time></trkpt><trkpt lat="37.2641532" lon="13.7242152"><ele>218.0</ele><time>2026-05-06T12:18:19.377Z</time></trkpt><trkpt lat="37.2642959" lon="13.7244237"><ele>218.0</ele><time>2026-05-06T12:18:20.376Z</time></trkpt><trkpt lat="37.2644348" lon="13.7246301"><ele>218.0</ele><time>2026-05-06T12:18:21.377Z</time></trkpt><trkpt lat="37.2645593" lon="13.7248205"><ele>218.0</ele><time>2026-05-06T12:18:22.377Z</time></trkpt><trkpt lat="37.2646847" lon="13.725004"><ele>221.0</ele><time>2026-05-06T12:18:23.376Z</time></trkpt><trkpt lat="37.2648154" lon="13.725185"><ele>224.0</ele><time>2026-05-06T12:18:24.376Z</time></trkpt><trkpt lat="37.2649552" lon="13.7253594"><ele>227.0</ele><time>2026-05-06T12:18:25.376Z</time></trkpt><trkpt lat="37.2651065" lon="13.7255243"><ele>227.0</ele><time>2026-05-06T12:18:26.376Z</time></trkpt><trkpt lat="37.2652706" lon="13.7256754"><ele>227.0</ele><time>2026-05-06T12:18:27.377Z</time></trkpt><trkpt lat="37.2654425" lon="13.7258157"><ele>227.0</ele><time>2026-05-06T12:18:28.376Z</time></trkpt><trkpt lat="37.2656181" lon="13.7259571"><ele>231.0</ele><time>2026-05-06T12:18:29.376Z</time></trkpt><trkpt lat="37.2657952" lon="13.7260999"><ele>235.0</ele><time>2026-05-06T12:18:30.376Z</time></trkpt><trkpt lat="37.2659673" lon="13.7262441"><ele>239.0</ele><time>2026-05-06T12:18:31.376Z</time></trkpt><trkpt lat="37.2661225" lon="13.7263796"><ele>239.0</ele><time>2026-05-06T12:18:32.377Z</time></trkpt><trkpt lat="37.2662601" lon="13.7265099"><ele>239.0</ele><time>2026-05-06T12:18:33.376Z</time></trkpt><trkpt lat="37.2663841" lon="13.7266456"><ele>239.0</ele><time>2026-05-06T12:18:34.376Z</time></trkpt><trkpt lat="37.2665006" lon="13.7267994"><ele>241.66666666666669</ele><time>2026-05-06T12:18:35.376Z</time></trkpt><trkpt lat="37.2666108" lon="13.7269647"><ele>244.33333333333331</ele><time>2026-05-06T12:18:36.376Z</time></trkpt><trkpt lat="37.2667132" lon="13.7271446"><ele>247.0</ele><time>2026-05-06T12:18:37.376Z</time></trkpt><trkpt lat="37.2668039" lon="13.727347"><ele>247.0</ele><time>2026-05-06T12:18:38.376Z</time></trkpt><trkpt lat="37.2668988" lon="13.7275584"><ele>247.0</ele><time>2026-05-06T12:18:39.376Z</time></trkpt><trkpt lat="37.2670006" lon="13.7277762"><ele>247.0</ele><time>2026-05-06T12:18:40.376Z</time></trkpt><trkpt lat="37.2671037" lon="13.7280032"><ele>248.66666666666666</ele><time>2026-05-06T12:18:41.377Z</time></trkpt><trkpt lat="37.2672061" lon="13.7282367"><ele>250.33333333333331</ele><time>2026-05-06T12:18:42.376Z</time></trkpt><trkpt lat="37.267312" lon="13.728471"><ele>252.0</ele><time>2026-05-06T12:18:43.376Z</time></trkpt><trkpt lat="37.267419" lon="13.7287092"><ele>252.0</ele><time>2026-05-06T12:18:44.376Z</time></trkpt><trkpt lat="37.2675261" lon="13.728948"><ele>252.0</ele><time>2026-05-06T12:18:45.376Z</time></trkpt><trkpt lat="37.2676345" lon="13.7291883"><ele>252.0</ele><time>2026-05-06T12:18:46.376Z</time></trkpt><trkpt lat="37.2677368" lon="13.7294173"><ele>252.0</ele><time>2026-05-06T12:18:47.377Z</time></trkpt><trkpt lat="37.2678331" lon="13.7296302"><ele>252.0</ele><time>2026-05-06T12:18:48.376Z</time></trkpt><trkpt lat="37.2679294" lon="13.7298435"><ele>252.0</ele><time>2026-05-06T12:18:49.376Z</time></trkpt><trkpt lat="37.2680218" lon="13.7300516"><ele>252.0</ele><time>2026-05-06T12:18:50.376Z</time></trkpt><trkpt lat="37.2681156" lon="13.7302604"><ele>252.0</ele><time>2026-05-06T12:18:51.376Z</time></trkpt><trkpt lat="37.2682124" lon="13.7304716"><ele>252.0</ele><time>2026-05-06T12:18:52.376Z</time></trkpt><trkpt lat="37.268299" lon="13.7306663"><ele>252.0</ele><time>2026-05-06T12:18:53.377Z</time></trkpt><trkpt lat="37.2683839" lon="13.730849"><ele>252.0</ele><time>2026-05-06T12:18:54.376Z</time></trkpt><trkpt lat="37.2684803" lon="13.7310332"><ele>252.0</ele><time>2026-05-06T12:18:55.377Z</time></trkpt><trkpt lat="37.2685879" lon="13.7312162"><ele>252.66666666666669</ele><time>2026-05-06T12:18:56.376Z</time></trkpt><trkpt lat="37.2687082" lon="13.7313937"><ele>253.33333333333334</ele><time>2026-05-06T12:18:57.376Z</time></trkpt><trkpt lat="37.2688375" lon="13.7315646"><ele>254.0</ele><time>2026-05-06T12:18:58.376Z</time></trkpt><trkpt lat="37.268979" lon="13.7317262"><ele>254.0</ele><time>2026-05-06T12:18:59.377Z</time></trkpt><trkpt lat="37.269133" lon="13.7318756"><ele>254.0</ele><time>2026-05-06T12:19:00.377Z</time></trkpt><trkpt lat="37.2692983" lon="13.7320117"><ele>254.0</ele><time>2026-05-06T12:19:01.376Z</time></trkpt><trkpt lat="37.269477" lon="13.7321372"><ele>252.33333333333334</ele><time>2026-05-06T12:19:02.376Z</time></trkpt><trkpt lat="37.2696675" lon="13.732259"><ele>250.66666666666669</ele><time>2026-05-06T12:19:03.377Z</time></trkpt><trkpt lat="37.2698612" lon="13.7323761"><ele>249.0</ele><time>2026-05-06T12:19:04.376Z</time></trkpt><trkpt lat="37.2700582" lon="13.7324915"><ele>249.0</ele><time>2026-05-06T12:19:05.377Z</time></trkpt><trkpt lat="37.2702614" lon="13.732606"><ele>249.0</ele><time>2026-05-06T12:19:06.376Z</time></trkpt><trkpt lat="37.2704675" lon="13.7327185"><ele>249.0</ele><time>2026-05-06T12:19:07.377Z</time></trkpt><trkpt lat="37.2706716" lon="13.7328315"><ele>248.0</ele><time>2026-05-06T12:19:08.376Z</time></trkpt><trkpt lat="37.270872" lon="13.7329431"><ele>247.0</ele><time>2026-05-06T12:19:09.376Z</time></trkpt><trkpt lat="37.2710716" lon="13.7330548"><ele>246.0</ele><time>2026-05-06T12:19:10.376Z</time></trkpt><trkpt lat="37.2712687" lon="13.7331669"><ele>246.66666666666669</ele><time>2026-05-06T12:19:11.376Z</time></trkpt><trkpt lat="37.2714653" lon="13.7332751"><ele>247.33333333333334</ele><time>2026-05-06T12:19:12.376Z</time></trkpt><trkpt lat="37.2716622" lon="13.7333829"><ele>248.0</ele><time>2026-05-06T12:19:13.376Z</time></trkpt><trkpt lat="37.2718574" lon="13.7334941"><ele>248.0</ele><time>2026-05-06T12:19:14.377Z</time></trkpt><trkpt lat="37.2720501" lon="13.73361"><ele>248.0</ele><time>2026-05-06T12:19:15.377Z</time></trkpt><trkpt lat="37.2722399" lon="13.7337302"><ele>248.0</ele><time>2026-05-06T12:19:16.377Z</time></trkpt><trkpt lat="37.2724264" lon="13.7338563"><ele>248.33333333333334</ele><time>2026-05-06T12:19:17.376Z</time></trkpt><trkpt lat="37.2726116" lon="13.7339806"><ele>248.66666666666669</ele><time>2026-05-06T12:19:18.376Z</time></trkpt><trkpt lat="37.2727952" lon="13.7341026"><ele>249.0</ele><time>2026-05-06T12:19:19.377Z</time></trkpt><trkpt lat="37.2729777" lon="13.7342259"><ele>248.66666666666669</ele><time>2026-05-06T12:19:20.376Z</time></trkpt><trkpt lat="37.2731583" lon="13.7343504"><ele>248.33333333333334</ele><time>2026-05-06T12:19:21.376Z</time></trkpt><trkpt lat="37.2733368" lon="13.7344709"><ele>248.0</ele><time>2026-05-06T12:19:22.376Z</time></trkpt><trkpt lat="37.2735087" lon="13.7345958"><ele>248.0</ele><time>2026-05-06T12:19:23.377Z</time></trkpt><trkpt lat="37.2736709" lon="13.7347221"><ele>248.0</ele><time>2026-05-06T12:19:24.376Z</time></trkpt><trkpt lat="37.2738283" lon="13.7348574"><ele>248.0</ele><time>2026-05-06T12:19:25.376Z</time></trkpt><trkpt lat="37.2739817" lon="13.7350051"><ele>249.66666666666669</ele><time>2026-05-06T12:19:26.377Z</time></trkpt><trkpt lat="37.2741262" lon="13.7351591"><ele>251.33333333333331</ele><time>2026-05-06T12:19:27.376Z</time></trkpt><trkpt lat="37.2742622" lon="13.7353196"><ele>253.0</ele><time>2026-05-06T12:19:28.376Z</time></trkpt><trkpt lat="37.2744006" lon="13.7354786"><ele>253.33333333333331</ele><time>2026-05-06T12:19:29.376Z</time></trkpt><trkpt lat="37.2745451" lon="13.7356392"><ele>253.66666666666669</ele><time>2026-05-06T12:19:30.376Z</time></trkpt><trkpt lat="37.2746933" lon="13.7358063"><ele>254.0</ele><time>2026-05-06T12:19:31.376Z</time></trkpt><trkpt lat="37.2748486" lon="13.7359769"><ele>255.33333333333334</ele><time>2026-05-06T12:19:32.376Z</time></trkpt><trkpt lat="37.2750062" lon="13.7361518"><ele>256.6666666666667</ele><time>2026-05-06T12:19:33.376Z</time></trkpt><trkpt lat="37.2751633" lon="13.7363282"><ele>258.0</ele><time>2026-05-06T12:19:34.377Z</time></trkpt><trkpt lat="37.2753205" lon="13.7365042"><ele>258.0</ele><time>2026-05-06T12:19:35.376Z</time></trkpt><trkpt lat="37.2754798" lon="13.7366841"><ele>258.0</ele><time>2026-05-06T12:19:36.376Z</time></trkpt><trkpt lat="37.2756423" lon="13.7368654"><ele>258.0</ele><time>2026-05-06T12:19:37.376Z</time></trkpt><trkpt lat="37.2758071" lon="13.737048"><ele>260.3333333333333</ele><time>2026-05-06T12:19:38.376Z</time></trkpt><trkpt lat="37.2759714" lon="13.7372315"><ele>262.66666666666663</ele><time>2026-05-06T12:19:39.376Z</time></trkpt><trkpt lat="37.2761353" lon="13.7374191"><ele>265.0</ele><time>2026-05-06T12:19:40.377Z</time></trkpt><trkpt lat="37.2762971" lon="13.7376105"><ele>266.66666666666663</ele><time>2026-05-06T12:19:41.376Z</time></trkpt><trkpt lat="37.2764559" lon="13.7378077"><ele>268.3333333333333</ele><time>2026-05-06T12:19:42.377Z</time></trkpt><trkpt lat="37.2766105" lon="13.7380092"><ele>270.0</ele><time>2026-05-06T12:19:43.376Z</time></trkpt><trkpt lat="37.276761" lon="13.738218"><ele>270.0</ele><time>2026-05-06T12:19:44.376Z</time></trkpt><trkpt lat="37.2769097" lon="13.7384279"><ele>270.0</ele><time>2026-05-06T12:19:45.377Z</time></trkpt><trkpt lat="37.2770602" lon="13.7386352"><ele>270.0</ele><time>2026-05-06T12:19:46.376Z</time></trkpt><trkpt lat="37.2772095" lon="13.7388447"><ele>272.3333333333333</ele><time>2026-05-06T12:19:47.376Z</time></trkpt><trkpt lat="37.2773578" lon="13.7390556"><ele>274.66666666666663</ele><time>2026-05-06T12:19:48.376Z</time></trkpt><trkpt lat="37.2775057" lon="13.7392666"><ele>277.0</ele><time>2026-05-06T12:19:49.376Z</time></trkpt><trkpt lat="37.2776529" lon="13.7394753"><ele>279.3333333333333</ele><time>2026-05-06T12:19:50.376Z</time></trkpt><trkpt lat="37.2778003" lon="13.739683"><ele>281.6666666666667</ele><time>2026-05-06T12:19:51.378Z</time></trkpt><trkpt lat="37.2779452" lon="13.7398875"><ele>284.0</ele><time>2026-05-06T12:19:52.376Z</time></trkpt><trkpt lat="37.2780736" lon="13.7400742"><ele>287.0</ele><time>2026-05-06T12:19:53.377Z</time></trkpt><trkpt lat="37.2781944" lon="13.7402644"><ele>290.0</ele><time>2026-05-06T12:19:54.377Z</time></trkpt><trkpt lat="37.2783074" lon="13.7404679"><ele>293.0</ele><time>2026-05-06T12:19:55.376Z</time></trkpt><trkpt lat="37.278413" lon="13.7406816"><ele>293.0</ele><time>2026-05-06T12:19:56.376Z</time></trkpt><trkpt lat="37.2785084" lon="13.7409043"><ele>293.0</ele><time>2026-05-06T12:19:57.377Z</time></trkpt><trkpt lat="37.2785903" lon="13.741137"><ele>293.0</ele><time>2026-05-06T12:19:58.376Z</time></trkpt><trkpt lat="37.2786646" lon="13.7413815"><ele>294.0</ele><time>2026-05-06T12:19:59.376Z</time></trkpt><trkpt lat="37.2787366" lon="13.7416285"><ele>295.0</ele><time>2026-05-06T12:20:00.376Z</time></trkpt><trkpt lat="37.2788093" lon="13.7418807"><ele>296.0</ele><time>2026-05-06T12:20:01.376Z</time></trkpt><trkpt lat="37.2788809" lon="13.7421339"><ele>295.33333333333337</ele><time>2026-05-06T12:20:02.377Z</time></trkpt><trkpt lat="37.2789556" lon="13.7423916"><ele>294.6666666666667</ele><time>2026-05-06T12:20:03.376Z</time></trkpt><trkpt lat="37.2790295" lon="13.7426467"><ele>294.0</ele><time>2026-05-06T12:20:04.376Z</time></trkpt><trkpt lat="37.2791006" lon="13.7428982"><ele>294.0</ele><time>2026-05-06T12:20:05.376Z</time></trkpt><trkpt lat="37.2791708" lon="13.7431428"><ele>294.0</ele><time>2026-05-06T12:20:06.377Z</time></trkpt><trkpt lat="37.2792403" lon="13.743385"><ele>294.0</ele><time>2026-05-06T12:20:07.376Z</time></trkpt><trkpt lat="37.2793095" lon="13.7436275"><ele>291.3333333333333</ele><time>2026-05-06T12:20:08.377Z</time></trkpt><trkpt lat="37.2793804" lon="13.7438717"><ele>288.66666666666663</ele><time>2026-05-06T12:20:09.376Z</time></trkpt><trkpt lat="37.2794517" lon="13.7441176"><ele>286.0</ele><time>2026-05-06T12:20:10.376Z</time></trkpt><trkpt lat="37.279521" lon="13.7443668"><ele>283.3333333333333</ele><time>2026-05-06T12:20:11.376Z</time></trkpt><trkpt lat="37.2795881" lon="13.7446187"><ele>280.6666666666667</ele><time>2026-05-06T12:20:12.376Z</time></trkpt><trkpt lat="37.2796559" lon="13.7448679"><ele>278.0</ele><time>2026-05-06T12:20:13.377Z</time></trkpt><trkpt lat="37.2797234" lon="13.7451202"><ele>280.0</ele><time>2026-05-06T12:20:14.376Z</time></trkpt><trkpt lat="37.279789" lon="13.7453642"><ele>282.0</ele><time>2026-05-06T12:20:15.376Z</time></trkpt><trkpt lat="37.2798564" lon="13.7456033"><ele>284.0</ele><time>2026-05-06T12:20:16.376Z</time></trkpt><trkpt lat="37.2799192" lon="13.7458371"><ele>282.0</ele><time>2026-05-06T12:20:17.376Z</time></trkpt><trkpt lat="37.2799759" lon="13.7460527"><ele>280.0</ele><time>2026-05-06T12:20:18.376Z</time></trkpt><trkpt lat="37.2800336" lon="13.746263"><ele>278.0</ele><time>2026-05-06T12:20:19.376Z</time></trkpt><trkpt lat="37.2800923" lon="13.7464748"><ele>278.0</ele><time>2026-05-06T12:20:20.376Z</time></trkpt><trkpt lat="37.2801592" lon="13.7466874"><ele>278.0</ele><time>2026-05-06T12:20:21.376Z</time></trkpt><trkpt lat="37.2802411" lon="13.7468987"><ele>278.0</ele><time>2026-05-06T12:20:22.376Z</time></trkpt><trkpt lat="37.2803393" lon="13.7471046"><ele>276.0</ele><time>2026-05-06T12:20:23.376Z</time></trkpt><trkpt lat="37.2804582" lon="13.747305"><ele>274.0</ele><time>2026-05-06T12:20:24.376Z</time></trkpt><trkpt lat="37.2805963" lon="13.7475079"><ele>272.0</ele><time>2026-05-06T12:20:25.376Z</time></trkpt><trkpt lat="37.2807414" lon="13.7477169"><ele>271.0</ele><time>2026-05-06T12:20:26.377Z</time></trkpt><trkpt lat="37.2808933" lon="13.7479323"><ele>270.0</ele><time>2026-05-06T12:20:27.377Z</time></trkpt><trkpt lat="37.28105" lon="13.7481558"><ele>270.0</ele><time>2026-05-06T12:20:28.376Z</time></trkpt><trkpt lat="37.2812095" lon="13.7483865"><ele>270.0</ele><time>2026-05-06T12:20:29.377Z</time></trkpt><trkpt lat="37.2813712" lon="13.7486198"><ele>272.5</ele><time>2026-05-06T12:20:30.376Z</time></trkpt><trkpt lat="37.2815345" lon="13.748855"><ele>275.0</ele><time>2026-05-06T12:20:31.376Z</time></trkpt><trkpt lat="37.2816959" lon="13.7490864"><ele>275.0</ele><time>2026-05-06T12:20:32.377Z</time></trkpt><trkpt lat="37.2818487" lon="13.7493108"><ele>275.0</ele><time>2026-05-06T12:20:33.376Z</time></trkpt><trkpt lat="37.2819962" lon="13.7495272"><ele>275.33333333333337</ele><time>2026-05-06T12:20:34.376Z</time></trkpt><trkpt lat="37.28214" lon="13.7497384"><ele>275.6666666666667</ele><time>2026-05-06T12:20:35.377Z</time></trkpt><trkpt lat="37.282281" lon="13.7499448"><ele>276.0</ele><time>2026-05-06T12:20:36.377Z</time></trkpt><trkpt lat="37.2824081" lon="13.7501327"><ele>278.0</ele><time>2026-05-06T12:20:37.376Z</time></trkpt><trkpt lat="37.2825271" lon="13.7503253"><ele>280.0</ele><time>2026-05-06T12:20:38.376Z</time></trkpt><trkpt lat="37.2826335" lon="13.7505305"><ele>282.0</ele><time>2026-05-06T12:20:39.376Z</time></trkpt><trkpt lat="37.2827151" lon="13.7507499"><ele>282.0</ele><time>2026-05-06T12:20:40.376Z</time></trkpt><trkpt lat="37.2827717" lon="13.7509857"><ele>282.0</ele><time>2026-05-06T12:20:41.376Z</time></trkpt><trkpt lat="37.2828055" lon="13.7512332"><ele>282.0</ele><time>2026-05-06T12:20:42.376Z</time></trkpt><trkpt lat="37.2828213" lon="13.7514878"><ele>283.6666666666667</ele><time>2026-05-06T12:20:43.376Z</time></trkpt><trkpt lat="37.2828349" lon="13.7517436"><ele>285.33333333333337</ele><time>2026-05-06T12:20:44.376Z</time></trkpt><trkpt lat="37.2828513" lon="13.7519976"><ele>287.0</ele><time>2026-05-06T12:20:45.377Z</time></trkpt><trkpt lat="37.2828676" lon="13.7522198"><ele>287.6666666666667</ele><time>2026-05-06T12:20:46.377Z</time></trkpt><trkpt lat="37.2828874" lon="13.7524383"><ele>288.3333333333333</ele><time>2026-05-06T12:20:47.377Z</time></trkpt><trkpt lat="37.282922" lon="13.7526594"><ele>289.0</ele><time>2026-05-06T12:20:48.376Z</time></trkpt><trkpt lat="37.2829757" lon="13.7528803"><ele>289.66666666666663</ele><time>2026-05-06T12:20:49.377Z</time></trkpt><trkpt lat="37.2830481" lon="13.7530989"><ele>290.3333333333333</ele><time>2026-05-06T12:20:50.376Z</time></trkpt><trkpt lat="37.2831352" lon="13.7533175"><ele>291.0</ele><time>2026-05-06T12:20:51.376Z</time></trkpt><trkpt lat="37.2832307" lon="13.7535404"><ele>293.3333333333333</ele><time>2026-05-06T12:20:52.376Z</time></trkpt><trkpt lat="37.28333" lon="13.7537711"><ele>295.66666666666663</ele><time>2026-05-06T12:20:53.377Z</time></trkpt><trkpt lat="37.2834291" lon="13.7540057"><ele>298.0</ele><time>2026-05-06T12:20:54.378Z</time></trkpt><trkpt lat="37.2835254" lon="13.7542406"><ele>297.66666666666663</ele><time>2026-05-06T12:20:55.376Z</time></trkpt><trkpt lat="37.2836191" lon="13.754474"><ele>297.3333333333333</ele><time>2026-05-06T12:20:56.376Z</time></trkpt><trkpt lat="37.28371" lon="13.7547002"><ele>297.0</ele><time>2026-05-06T12:20:57.377Z</time></trkpt><trkpt lat="37.283799" lon="13.7549152"><ele>297.0</ele><time>2026-05-06T12:20:58.377Z</time></trkpt><trkpt lat="37.2838896" lon="13.7551216"><ele>297.0</ele><time>2026-05-06T12:20:59.376Z</time></trkpt><trkpt lat="37.2839846" lon="13.7553217"><ele>297.0</ele><time>2026-05-06T12:21:00.377Z</time></trkpt><trkpt lat="37.2840961" lon="13.7555034"><ele>298.6666666666667</ele><time>2026-05-06T12:21:01.376Z</time></trkpt><trkpt lat="37.2842287" lon="13.7556679"><ele>300.33333333333337</ele><time>2026-05-06T12:21:02.376Z</time></trkpt><trkpt lat="37.2843776" lon="13.7558279"><ele>302.0</ele><time>2026-05-06T12:21:03.376Z</time></trkpt><trkpt lat="37.2845341" lon="13.7559841"><ele>302.33333333333337</ele><time>2026-05-06T12:21:04.377Z</time></trkpt><trkpt lat="37.2846961" lon="13.7561374"><ele>302.6666666666667</ele><time>2026-05-06T12:21:05.376Z</time></trkpt><trkpt lat="37.2848637" lon="13.7562874"><ele>303.0</ele><time>2026-05-06T12:21:06.376Z</time></trkpt><trkpt lat="37.2850341" lon="13.7564427"><ele>303.0</ele><time>2026-05-06T12:21:07.376Z</time></trkpt><trkpt lat="37.2852055" lon="13.7566095"><ele>303.0</ele><time>2026-05-06T12:21:08.377Z</time></trkpt><trkpt lat="37.2853828" lon="13.7567786"><ele>303.0</ele><time>2026-05-06T12:21:09.376Z</time></trkpt><trkpt lat="37.2855648" lon="13.7569467"><ele>305.3333333333333</ele><time>2026-05-06T12:21:10.376Z</time></trkpt><trkpt lat="37.2857392" lon="13.75711"><ele>307.66666666666663</ele><time>2026-05-06T12:21:11.377Z</time></trkpt><trkpt lat="37.2859142" lon="13.757285"><ele>310.0</ele><time>2026-05-06T12:21:12.376Z</time></trkpt><trkpt lat="37.2860831" lon="13.7574687"><ele>310.0</ele><time>2026-05-06T12:21:13.376Z</time></trkpt><trkpt lat="37.2862452" lon="13.7576675"><ele>310.0</ele><time>2026-05-06T12:21:14.376Z</time></trkpt><trkpt lat="37.2864025" lon="13.7578763"><ele>311.0</ele><time>2026-05-06T12:21:15.376Z</time></trkpt><trkpt lat="37.2865595" lon="13.7580888"><ele>312.0</ele><time>2026-05-06T12:21:16.377Z</time></trkpt><trkpt lat="37.2867177" lon="13.758303"><ele>312.0</ele><time>2026-05-06T12:21:17.376Z</time></trkpt><trkpt lat="37.2868777" lon="13.7585176"><ele>312.0</ele><time>2026-05-06T12:21:18.376Z</time></trkpt><trkpt lat="37.2870364" lon="13.7587277"><ele>314.0</ele><time>2026-05-06T12:21:19.376Z</time></trkpt><trkpt lat="37.2871928" lon="13.7589265"><ele>316.0</ele><time>2026-05-06T12:21:20.376Z</time></trkpt><trkpt lat="37.2873575" lon="13.7591101"><ele>318.0</ele><time>2026-05-06T12:21:21.376Z</time></trkpt><trkpt lat="37.2875326" lon="13.7592724"><ele>320.6666666666667</ele><time>2026-05-06T12:21:22.376Z</time></trkpt><trkpt lat="37.2877163" lon="13.7594175"><ele>323.33333333333337</ele><time>2026-05-06T12:21:23.376Z</time></trkpt><trkpt lat="37.2879106" lon="13.7595462"><ele>326.0</ele><time>2026-05-06T12:21:24.376Z</time></trkpt><trkpt lat="37.2881141" lon="13.7596631"><ele>326.0</ele><time>2026-05-06T12:21:25.376Z</time></trkpt><trkpt lat="37.2883241" lon="13.7597683"><ele>326.0</ele><time>2026-05-06T12:21:26.376Z</time></trkpt><trkpt lat="37.288531" lon="13.759863"><ele>326.0</ele><time>2026-05-06T12:21:27.377Z</time></trkpt><trkpt lat="37.2887204" lon="13.7599619"><ele>326.0</ele><time>2026-05-06T12:21:28.376Z</time></trkpt><trkpt lat="37.2889114" lon="13.7600807"><ele>326.0</ele><time>2026-05-06T12:21:29.376Z</time></trkpt><trkpt lat="37.2890946" lon="13.7602166"><ele>326.0</ele><time>2026-05-06T12:21:30.376Z</time></trkpt><trkpt lat="37.2892779" lon="13.7603614"><ele>326.6666666666667</ele><time>2026-05-06T12:21:31.376Z</time></trkpt><trkpt lat="37.2894598" lon="13.7605039"><ele>327.3333333333333</ele><time>2026-05-06T12:21:32.376Z</time></trkpt><trkpt lat="37.2896368" lon="13.7606465"><ele>328.0</ele><time>2026-05-06T12:21:33.376Z</time></trkpt><trkpt lat="37.2898082" lon="13.76079"><ele>328.0</ele><time>2026-05-06T12:21:34.376Z</time></trkpt><trkpt lat="37.2899718" lon="13.7609422"><ele>328.0</ele><time>2026-05-06T12:21:35.376Z</time></trkpt><trkpt lat="37.2901294" lon="13.7611151"><ele>328.0</ele><time>2026-05-06T12:21:36.376Z</time></trkpt><trkpt lat="37.2902783" lon="13.7613063"><ele>328.66666666666663</ele><time>2026-05-06T12:21:37.376Z</time></trkpt><trkpt lat="37.2904176" lon="13.7615089"><ele>329.3333333333333</ele><time>2026-05-06T12:21:38.376Z</time></trkpt><trkpt lat="37.2905464" lon="13.7617273"><ele>330.0</ele><time>2026-05-06T12:21:39.377Z</time></trkpt><trkpt lat="37.2906642" lon="13.7619546"><ele>331.6666666666667</ele><time>2026-05-06T12:21:40.376Z</time></trkpt><trkpt lat="37.2907687" lon="13.7621686"><ele>333.33333333333337</ele><time>2026-05-06T12:21:41.376Z</time></trkpt><trkpt lat="37.290865" lon="13.7623656"><ele>335.0</ele><time>2026-05-06T12:21:42.377Z</time></trkpt><trkpt lat="37.2909587" lon="13.7625565"><ele>334.33333333333337</ele><time>2026-05-06T12:21:43.376Z</time></trkpt><trkpt lat="37.2910441" lon="13.7627389"><ele>333.6666666666667</ele><time>2026-05-06T12:21:44.376Z</time></trkpt><trkpt lat="37.2911331" lon="13.7629205"><ele>333.0</ele><time>2026-05-06T12:21:45.376Z</time></trkpt><trkpt lat="37.2912308" lon="13.7631031"><ele>333.0</ele><time>2026-05-06T12:21:46.376Z</time></trkpt><trkpt lat="37.2913396" lon="13.7632825"><ele>333.0</ele><time>2026-05-06T12:21:47.376Z</time></trkpt><trkpt lat="37.2914651" lon="13.7634511"><ele>333.0</ele><time>2026-05-06T12:21:48.377Z</time></trkpt><trkpt lat="37.2916073" lon="13.7636229"><ele>330.6666666666667</ele><time>2026-05-06T12:21:49.376Z</time></trkpt><trkpt lat="37.2917572" lon="13.7638035"><ele>328.33333333333337</ele><time>2026-05-06T12:21:50.376Z</time></trkpt><trkpt lat="37.2919129" lon="13.7639921"><ele>326.0</ele><time>2026-05-06T12:21:51.376Z</time></trkpt><trkpt lat="37.2920678" lon="13.7641805"><ele>325.0</ele><time>2026-05-06T12:21:52.376Z</time></trkpt><trkpt lat="37.2922311" lon="13.7643745"><ele>324.0</ele><time>2026-05-06T12:21:53.376Z</time></trkpt><trkpt lat="37.2923976" lon="13.7645702"><ele>326.0</ele><time>2026-05-06T12:21:54.376Z</time></trkpt><trkpt lat="37.2925668" lon="13.764769"><ele>328.0</ele><time>2026-05-06T12:21:55.376Z</time></trkpt><trkpt lat="37.2927374" lon="13.764971"><ele>328.0</ele><time>2026-05-06T12:21:56.376Z</time></trkpt><trkpt lat="37.2929088" lon="13.7651745"><ele>328.0</ele><time>2026-05-06T12:21:57.376Z</time></trkpt><trkpt lat="37.2930779" lon="13.7653765"><ele>329.66666666666663</ele><time>2026-05-06T12:21:58.377Z</time></trkpt><trkpt lat="37.2932347" lon="13.7655664"><ele>331.3333333333333</ele><time>2026-05-06T12:21:59.377Z</time></trkpt><trkpt lat="37.2933824" lon="13.7657438"><ele>333.0</ele><time>2026-05-06T12:22:00.376Z</time></trkpt><trkpt lat="37.2935261" lon="13.7659141"><ele>334.0</ele><time>2026-05-06T12:22:01.377Z</time></trkpt><trkpt lat="37.2936749" lon="13.7660696"><ele>335.0</ele><time>2026-05-06T12:22:02.377Z</time></trkpt><trkpt lat="37.2938318" lon="13.7662086"><ele>336.0</ele><time>2026-05-06T12:22:03.376Z</time></trkpt><trkpt lat="37.2939972" lon="13.7663233"><ele>337.3333333333333</ele><time>2026-05-06T12:22:04.376Z</time></trkpt><trkpt lat="37.2941753" lon="13.766418"><ele>338.66666666666663</ele><time>2026-05-06T12:22:05.376Z</time></trkpt><trkpt lat="37.2943527" lon="13.7664994"><ele>340.0</ele><time>2026-05-06T12:22:06.376Z</time></trkpt><trkpt lat="37.2945148" lon="13.7665711"><ele>340.0</ele><time>2026-05-06T12:22:07.376Z</time></trkpt><trkpt lat="37.2946654" lon="13.7666336"><ele>340.0</ele><time>2026-05-06T12:22:08.377Z</time></trkpt><trkpt lat="37.2948096" lon="13.7666936"><ele>340.0</ele><time>2026-05-06T12:22:09.376Z</time></trkpt><trkpt lat="37.2949394" lon="13.7667495"><ele>340.0</ele><time>2026-05-06T12:22:10.377Z</time></trkpt><trkpt lat="37.2950548" lon="13.7668003"><ele>341.5</ele><time>2026-05-06T12:22:11.376Z</time></trkpt><trkpt lat="37.2951716" lon="13.7668369"><ele>343.0</ele><time>2026-05-06T12:22:12.376Z</time></trkpt><trkpt lat="37.2953101" lon="13.7668795"><ele>344.5</ele><time>2026-05-06T12:22:13.376Z</time></trkpt><trkpt lat="37.2954548" lon="13.7669406"><ele>346.0</ele><time>2026-05-06T12:22:14.377Z</time></trkpt><trkpt lat="37.2955869" lon="13.7670109"><ele>346.75</ele><time>2026-05-06T12:22:15.377Z</time></trkpt><trkpt lat="37.2956996" lon="13.7670814"><ele>347.5</ele><time>2026-05-06T12:22:16.376Z</time></trkpt><trkpt lat="37.2958076" lon="13.7671343"><ele>348.25</ele><time>2026-05-06T12:22:17.376Z</time></trkpt><trkpt lat="37.2959135" lon="13.7671758"><ele>349.0</ele><time>2026-05-06T12:22:18.376Z</time></trkpt><trkpt lat="37.2960159" lon="13.7672009"><ele>349.0</ele><time>2026-05-06T12:22:19.377Z</time></trkpt><trkpt lat="37.2961196" lon="13.7671986"><ele>349.0</ele><time>2026-05-06T12:22:20.377Z</time></trkpt><trkpt lat="37.2961949" lon="13.7671769"><ele>349.0</ele><time>2026-05-06T12:22:21.378Z</time></trkpt><trkpt lat="37.2962606" lon="13.7671536"><ele>349.0</ele><time>2026-05-06T12:22:22.377Z</time></trkpt><trkpt lat="37.2963271" lon="13.7671357"><ele>349.0</ele><time>2026-05-06T12:22:23.376Z</time></trkpt><trkpt lat="37.2963965" lon="13.7671192"><ele>349.0</ele><time>2026-05-06T12:22:24.376Z</time></trkpt><trkpt lat="37.2964753" lon="13.7670647"><ele>349.5</ele><time>2026-05-06T12:22:25.376Z</time></trkpt><trkpt lat="37.2965564" lon="13.7669822"><ele>350.0</ele><time>2026-05-06T12:22:26.377Z</time></trkpt><trkpt lat="37.2966165" lon="13.7669073"><ele>350.5</ele><time>2026-05-06T12:22:27.376Z</time></trkpt><trkpt lat="37.2966707" lon="13.7668351"><ele>351.0</ele><time>2026-05-06T12:22:28.376Z</time></trkpt><trkpt lat="37.2967209" lon="13.7667689"><ele>351.5</ele><time>2026-05-06T12:22:29.376Z</time></trkpt><trkpt lat="37.296764" lon="13.766706"><ele>352.0</ele><time>2026-05-06T12:22:30.376Z</time></trkpt><trkpt lat="37.296801" lon="13.7666414"><ele>352.0</ele><time>2026-05-06T12:22:31.376Z</time></trkpt><trkpt lat="37.2968683" lon="13.7665006"><ele>352.0</ele><time>2026-05-06T12:22:33.376Z</time></trkpt><trkpt lat="37.2969031" lon="13.766423"><ele>352.0</ele><time>2026-05-06T12:22:34.376Z</time></trkpt><trkpt lat="37.2969411" lon="13.7663431"><ele>352.0</ele><time>2026-05-06T12:22:35.376Z</time></trkpt><trkpt lat="37.2969788" lon="13.7662614"><ele>352.0</ele><time>2026-05-06T12:22:36.377Z</time></trkpt><trkpt lat="37.2970154" lon="13.7661751"><ele>352.0</ele><time>2026-05-06T12:22:37.376Z</time></trkpt><trkpt lat="37.2970554" lon="13.7660838"><ele>351.6</ele><time>2026-05-06T12:22:38.376Z</time></trkpt><trkpt lat="37.2970992" lon="13.7659901"><ele>351.20000000000005</ele><time>2026-05-06T12:22:39.376Z</time></trkpt><trkpt lat="37.2971411" lon="13.7659022"><ele>350.8</ele><time>2026-05-06T12:22:40.377Z</time></trkpt><trkpt lat="37.2971779" lon="13.7658227"><ele>350.4</ele><time>2026-05-06T12:22:41.377Z</time></trkpt><trkpt lat="37.2972368" lon="13.76571"><ele>350.0</ele><time>2026-05-06T12:22:43.376Z</time></trkpt><trkpt lat="37.2972809" lon="13.765592"><ele>348.5</ele><time>2026-05-06T12:22:45.377Z</time></trkpt><trkpt lat="37.2973371" lon="13.7654582"><ele>347.0</ele><time>2026-05-06T12:22:47.376Z</time></trkpt><trkpt lat="37.297376" lon="13.7653893"><ele>345.5</ele><time>2026-05-06T12:22:48.376Z</time></trkpt><trkpt lat="37.2974215" lon="13.7653216"><ele>344.0</ele><time>2026-05-06T12:22:49.377Z</time></trkpt><trkpt lat="37.2974665" lon="13.7652512"><ele>342.5</ele><time>2026-05-06T12:22:50.377Z</time></trkpt><trkpt lat="37.2975083" lon="13.7651862"><ele>341.0</ele><time>2026-05-06T12:22:51.376Z</time></trkpt><trkpt lat="37.2975598" lon="13.7651299"><ele>339.6666666666667</ele><time>2026-05-06T12:22:52.377Z</time></trkpt><trkpt lat="37.2976141" lon="13.7650679"><ele>338.33333333333337</ele><time>2026-05-06T12:22:53.376Z</time></trkpt><trkpt lat="37.2976732" lon="13.765003"><ele>337.0</ele><time>2026-05-06T12:22:54.376Z</time></trkpt><trkpt lat="37.2977341" lon="13.7649336"><ele>335.6666666666667</ele><time>2026-05-06T12:22:55.376Z</time></trkpt><trkpt lat="37.2977981" lon="13.7648573"><ele>334.3333333333333</ele><time>2026-05-06T12:22:56.376Z</time></trkpt><trkpt lat="37.2978628" lon="13.7647865"><ele>333.0</ele><time>2026-05-06T12:22:57.376Z</time></trkpt><trkpt lat="37.2979224" lon="13.7647219"><ele>333.0</ele><time>2026-05-06T12:22:58.376Z</time></trkpt><trkpt lat="37.2979783" lon="13.764658"><ele>333.0</ele><time>2026-05-06T12:22:59.376Z</time></trkpt><trkpt lat="37.2980367" lon="13.7645911"><ele>333.0</ele><time>2026-05-06T12:23:00.377Z</time></trkpt><trkpt lat="37.2980977" lon="13.7645273"><ele>333.0</ele><time>2026-05-06T12:23:01.376Z</time></trkpt><trkpt lat="37.2981586" lon="13.7644621"><ele>333.0</ele><time>2026-05-06T12:23:02.377Z</time></trkpt><trkpt lat="37.2982168" lon="13.7643959"><ele>333.0</ele><time>2026-05-06T12:23:03.377Z</time></trkpt><trkpt lat="37.2982755" lon="13.7643298"><ele>331.3333333333333</ele><time>2026-05-06T12:23:04.376Z</time></trkpt><trkpt lat="37.2983336" lon="13.7642645"><ele>329.6666666666667</ele><time>2026-05-06T12:23:05.376Z</time></trkpt><trkpt lat="37.2983904" lon="13.7641992"><ele>328.0</ele><time>2026-05-06T12:23:06.376Z</time></trkpt><trkpt lat="37.2984479" lon="13.7641359"><ele>326.33333333333337</ele><time>2026-05-06T12:23:07.376Z</time></trkpt><trkpt lat="37.2985046" lon="13.764074"><ele>324.6666666666667</ele><time>2026-05-06T12:23:08.376Z</time></trkpt><trkpt lat="37.2985631" lon="13.7640119"><ele>323.0</ele><time>2026-05-06T12:23:09.376Z</time></trkpt><trkpt lat="37.2986188" lon="13.7639504"><ele>323.00000000000006</ele><time>2026-05-06T12:23:10.376Z</time></trkpt><trkpt lat="37.2986759" lon="13.7638907"><ele>323.0</ele><time>2026-05-06T12:23:11.377Z</time></trkpt><trkpt lat="37.2987328" lon="13.7638351"><ele>323.0</ele><time>2026-05-06T12:23:12.376Z</time></trkpt><trkpt lat="37.2987888" lon="13.7637801"><ele>323.0</ele><time>2026-05-06T12:23:13.377Z</time></trkpt><trkpt lat="37.2988415" lon="13.7637263"><ele>323.0</ele><time>2026-05-06T12:23:14.376Z</time></trkpt><trkpt lat="37.2988787" lon="13.7636573"><ele>323.00000000000006</ele><time>2026-05-06T12:23:15.376Z</time></trkpt><trkpt lat="37.2989155" lon="13.7635891"><ele>323.0</ele><time>2026-05-06T12:23:16.377Z</time></trkpt><trkpt lat="37.2989494" lon="13.7635198"><ele>322.1666666666667</ele><time>2026-05-06T12:23:17.376Z</time></trkpt><trkpt lat="37.2989914" lon="13.7634162"><ele>321.33333333333337</ele><time>2026-05-06T12:23:19.376Z</time></trkpt><trkpt lat="37.2990197" lon="13.7633192"><ele>320.5</ele><time>2026-05-06T12:23:22.376Z</time></trkpt><trkpt lat="37.298983" lon="13.7632547"><ele>319.6666666666667</ele><time>2026-05-06T12:23:26.377Z</time></trkpt><trkpt lat="37.2989991" lon="13.763369"><ele>318.8333333333333</ele><time>2026-05-06T12:23:29.376Z</time></trkpt><trkpt lat="37.2990691" lon="13.7634316"><ele>318.0</ele><time>2026-05-06T12:23:31.376Z</time></trkpt><trkpt lat="37.299151" lon="13.7634772"><ele>318.0</ele><time>2026-05-06T12:23:33.376Z</time></trkpt><trkpt lat="37.2992512" lon="13.763514"><ele>318.0</ele><time>2026-05-06T12:23:35.376Z</time></trkpt><trkpt lat="37.2993812" lon="13.7635573"><ele>318.0</ele><time>2026-05-06T12:23:37.376Z</time></trkpt><trkpt lat="37.2994548" lon="13.7635808"><ele>318.0</ele><time>2026-05-06T12:23:38.376Z</time></trkpt><trkpt lat="37.2995289" lon="13.7635959"><ele>318.0</ele><time>2026-05-06T12:23:39.376Z</time></trkpt><trkpt lat="37.2995964" lon="13.7636089"><ele>318.0</ele><time>2026-05-06T12:23:40.376Z</time></trkpt><trkpt lat="37.2996621" lon="13.7636185"><ele>318.0</ele><time>2026-05-06T12:23:41.377Z</time></trkpt><trkpt lat="37.2997276" lon="13.7636172"><ele>318.0</ele><time>2026-05-06T12:23:42.377Z</time></trkpt><trkpt lat="37.2997923" lon="13.7636007"><ele>318.0</ele><time>2026-05-06T12:23:43.377Z</time></trkpt><trkpt lat="37.2998591" lon="13.7635706"><ele>318.0</ele><time>2026-05-06T12:23:44.377Z</time></trkpt><trkpt lat="37.2999279" lon="13.7635321"><ele>318.0</ele><time>2026-05-06T12:23:45.376Z</time></trkpt><trkpt lat="37.299987" lon="13.7634932"><ele>318.0</ele><time>2026-05-06T12:23:46.377Z</time></trkpt><trkpt lat="37.3000829" lon="13.7634146"><ele>318.0</ele><time>2026-05-06T12:23:48.377Z</time></trkpt><trkpt lat="37.3001533" lon="13.7633318"><ele>318.0</ele><time>2026-05-06T12:23:50.376Z</time></trkpt><trkpt lat="37.3002337" lon="13.7632811"><ele>318.0</ele><time>2026-05-06T12:23:52.376Z</time></trkpt><trkpt lat="37.300311" lon="13.7632653"><ele>318.0</ele><time>2026-05-06T12:23:54.377Z</time></trkpt><trkpt lat="37.3003793" lon="13.7632394"><ele>318.0</ele><time>2026-05-06T12:23:57.377Z</time></trkpt><trkpt lat="37.300382" lon="13.763124"><ele>318.0</ele><time>2026-05-06T12:24:00.376Z</time></trkpt><trkpt lat="37.3003987" lon="13.763031"><ele>318.0</ele><time>2026-05-06T12:24:02.376Z</time></trkpt><trkpt lat="37.3004132" lon="13.7629367"><ele>318.0</ele><time>2026-05-06T12:24:04.376Z</time></trkpt><trkpt lat="37.3004421" lon="13.7628489"><ele>318.0</ele><time>2026-05-06T12:24:06.376Z</time></trkpt><trkpt lat="37.3004928" lon="13.762768"><ele>318.0</ele><time>2026-05-06T12:24:08.376Z</time></trkpt><trkpt lat="37.3005656" lon="13.7626872"><ele>318.0</ele><time>2026-05-06T12:24:10.376Z</time></trkpt><trkpt lat="37.3006729" lon="13.7626103"><ele>317.0</ele><time>2026-05-06T12:24:12.376Z</time></trkpt><trkpt lat="37.3007648" lon="13.7625782"><ele>316.0</ele><time>2026-05-06T12:24:13.376Z</time></trkpt><trkpt lat="37.3008796" lon="13.762554"><ele>315.0</ele><time>2026-05-06T12:24:14.376Z</time></trkpt><trkpt lat="37.3010089" lon="13.7625338"><ele>314.0</ele><time>2026-05-06T12:24:15.377Z</time></trkpt><trkpt lat="37.301156" lon="13.762525"><ele>314.0</ele><time>2026-05-06T12:24:16.376Z</time></trkpt><trkpt lat="37.3012836" lon="13.7625249"><ele>314.0</ele><time>2026-05-06T12:24:17.376Z</time></trkpt><trkpt lat="37.3014051" lon="13.7625232"><ele>314.0</ele><time>2026-05-06T12:24:18.376Z</time></trkpt><trkpt lat="37.3015096" lon="13.7625225"><ele>314.0</ele><time>2026-05-06T12:24:19.376Z</time></trkpt><trkpt lat="37.3015957" lon="13.7625471"><ele>314.0</ele><time>2026-05-06T12:24:20.376Z</time></trkpt><trkpt lat="37.3016719" lon="13.7625675"><ele>313.5</ele><time>2026-05-06T12:24:21.376Z</time></trkpt><trkpt lat="37.3017551" lon="13.762567"><ele>313.0</ele><time>2026-05-06T12:24:22.376Z</time></trkpt><trkpt lat="37.3018345" lon="13.7625558"><ele>312.5</ele><time>2026-05-06T12:24:23.376Z</time></trkpt><trkpt lat="37.3019088" lon="13.7625602"><ele>312.0</ele><time>2026-05-06T12:24:24.377Z</time></trkpt><trkpt lat="37.3019976" lon="13.762589"><ele>311.5</ele><time>2026-05-06T12:24:25.377Z</time></trkpt><trkpt lat="37.3020848" lon="13.7626256"><ele>311.0</ele><time>2026-05-06T12:24:26.377Z</time></trkpt><trkpt lat="37.3021627" lon="13.7626604"><ele>312.5</ele><time>2026-05-06T12:24:27.376Z</time></trkpt><trkpt lat="37.3022474" lon="13.7626983"><ele>314.0</ele><time>2026-05-06T12:24:28.376Z</time></trkpt><trkpt lat="37.3023211" lon="13.7627273"><ele>315.5</ele><time>2026-05-06T12:24:29.377Z</time></trkpt><trkpt lat="37.3024008" lon="13.7627586"><ele>317.0</ele><time>2026-05-06T12:24:30.376Z</time></trkpt><trkpt lat="37.3024896" lon="13.7627925"><ele>318.5</ele><time>2026-05-06T12:24:31.376Z</time></trkpt><trkpt lat="37.3025749" lon="13.7628207"><ele>320.0</ele><time>2026-05-06T12:24:32.376Z</time></trkpt><trkpt lat="37.3026391" lon="13.762839"><ele>320.2</ele><time>2026-05-06T12:24:33.376Z</time></trkpt><trkpt lat="37.3027089" lon="13.7628137"><ele>320.4</ele><time>2026-05-06T12:24:35.377Z</time></trkpt><trkpt lat="37.3026409" lon="13.7627758"><ele>320.6</ele><time>2026-05-06T12:24:37.377Z</time></trkpt><trkpt lat="37.3025236" lon="13.7627634"><ele>320.8</ele><time>2026-05-06T12:24:39.376Z</time></trkpt><trkpt lat="37.3024409" lon="13.7627489"><ele>321.0</ele><time>2026-05-06T12:24:40.376Z</time></trkpt><trkpt lat="37.3023345" lon="13.7627193"><ele>319.3333333333333</ele><time>2026-05-06T12:24:41.376Z</time></trkpt><trkpt lat="37.3022344" lon="13.7626845"><ele>317.6666666666667</ele><time>2026-05-06T12:24:42.376Z</time></trkpt><trkpt lat="37.302147" lon="13.7626481"><ele>316.0</ele><time>2026-05-06T12:24:43.377Z</time></trkpt><trkpt lat="37.3020701" lon="13.7626112"><ele>314.33333333333337</ele><time>2026-05-06T12:24:44.377Z</time></trkpt><trkpt lat="37.3019983" lon="13.7625731"><ele>312.6666666666667</ele><time>2026-05-06T12:24:45.376Z</time></trkpt><trkpt lat="37.3019333" lon="13.7625404"><ele>311.0</ele><time>2026-05-06T12:24:46.376Z</time></trkpt><trkpt lat="37.3018391" lon="13.7625037"><ele>311.0</ele><time>2026-05-06T12:24:48.376Z</time></trkpt><trkpt lat="37.3017685" lon="13.7624864"><ele>311.0</ele><time>2026-05-06T12:24:50.377Z</time></trkpt><trkpt lat="37.3017944" lon="13.7625602"><ele>311.0</ele><time>2026-05-06T12:24:53.376Z</time></trkpt><trkpt lat="37.3019051" lon="13.7625501"><ele>311.0</ele><time>2026-05-06T12:24:55.377Z</time></trkpt><trkpt lat="37.3019842" lon="13.7625836"><ele>311.0</ele><time>2026-05-06T12:24:56.376Z</time></trkpt><trkpt lat="37.3020831" lon="13.7626268"><ele>311.0</ele><time>2026-05-06T12:24:57.376Z</time></trkpt><trkpt lat="37.302184" lon="13.7626665"><ele>313.0</ele><time>2026-05-06T12:24:58.376Z</time></trkpt><trkpt lat="37.3022837" lon="13.7627089"><ele>315.0</ele><time>2026-05-06T12:24:59.376Z</time></trkpt><trkpt lat="37.3023745" lon="13.7627426"><ele>317.0</ele><time>2026-05-06T12:25:00.376Z</time></trkpt><trkpt lat="37.3024764" lon="13.7627857"><ele>319.0</ele><time>2026-05-06T12:25:01.376Z</time></trkpt><trkpt lat="37.3025653" lon="13.7628145"><ele>321.0</ele><time>2026-05-06T12:25:02.376Z</time></trkpt><trkpt lat="37.3026374" lon="13.7628368"><ele>321.0</ele><time>2026-05-06T12:25:03.377Z</time></trkpt><trkpt lat="37.3027263" lon="13.7628075"><ele>321.0</ele><time>2026-05-06T12:25:05.377Z</time></trkpt><trkpt lat="37.302631" lon="13.7627738"><ele>321.0</ele><time>2026-05-06T12:25:07.377Z</time></trkpt><trkpt lat="37.3025506" lon="13.762768"><ele>321.0</ele><time>2026-05-06T12:25:08.376Z</time></trkpt><trkpt lat="37.3024528" lon="13.7627616"><ele>321.0</ele><time>2026-05-06T12:25:09.377Z</time></trkpt><trkpt lat="37.3023392" lon="13.762726"><ele>319.3333333333333</ele><time>2026-05-06T12:25:10.377Z</time></trkpt><trkpt lat="37.3022443" lon="13.7626902"><ele>317.6666666666667</ele><time>2026-05-06T12:25:11.377Z</time></trkpt><trkpt lat="37.3021562" lon="13.762653"><ele>316.0</ele><time>2026-05-06T12:25:12.376Z</time></trkpt><trkpt lat="37.3020806" lon="13.7626195"><ele>314.33333333333337</ele><time>2026-05-06T12:25:13.376Z</time></trkpt><trkpt lat="37.3020169" lon="13.7625825"><ele>312.6666666666667</ele><time>2026-05-06T12:25:14.376Z</time></trkpt><trkpt lat="37.3019542" lon="13.7625418"><ele>311.0</ele><time>2026-05-06T12:25:15.376Z</time></trkpt><trkpt lat="37.3018908" lon="13.7625127"><ele>311.0</ele><time>2026-05-06T12:25:16.376Z</time></trkpt><trkpt lat="37.3018163" lon="13.7625143"><ele>311.0</ele><time>2026-05-06T12:25:18.376Z</time></trkpt><trkpt lat="37.3018916" lon="13.7625513"><ele>311.0</ele><time>2026-05-06T12:25:21.377Z</time></trkpt><trkpt lat="37.3019659" lon="13.76255"><ele>311.0</ele><time>2026-05-06T12:25:22.376Z</time></trkpt><trkpt lat="37.3020278" lon="13.7625754"><ele>311.0</ele><time>2026-05-06T12:25:23.376Z</time></trkpt><trkpt lat="37.3021141" lon="13.7626197"><ele>311.0</ele><time>2026-05-06T12:25:24.377Z</time></trkpt><trkpt lat="37.3022038" lon="13.7626649"><ele>311.40000000000003</ele><time>2026-05-06T12:25:25.376Z</time></trkpt><trkpt lat="37.3022962" lon="13.7627092"><ele>311.8</ele><time>2026-05-06T12:25:26.377Z</time></trkpt><trkpt lat="37.3023613" lon="13.7627348"><ele>312.20000000000005</ele><time>2026-05-06T12:25:27.377Z</time></trkpt><trkpt lat="37.302433" lon="13.7627131"><ele>312.6</ele><time>2026-05-06T12:25:29.376Z</time></trkpt><trkpt lat="37.3024786" lon="13.7625837"><ele>313.0</ele><time>2026-05-06T12:25:31.376Z</time></trkpt><trkpt lat="37.3025678" lon="13.7625231"><ele>313.0</ele><time>2026-05-06T12:25:33.376Z</time></trkpt><trkpt lat="37.3026419" lon="13.7625196"><ele>313.0</ele><time>2026-05-06T12:25:34.376Z</time></trkpt><trkpt lat="37.3027351" lon="13.7625325"><ele>313.0</ele><time>2026-05-06T12:25:35.376Z</time></trkpt><trkpt lat="37.3028278" lon="13.7625602"><ele>313.0</ele><time>2026-05-06T12:25:36.377Z</time></trkpt><trkpt lat="37.302902" lon="13.762584"><ele>313.0</ele><time>2026-05-06T12:25:37.376Z</time></trkpt><trkpt lat="37.3029668" lon="13.7625987"><ele>313.0</ele><time>2026-05-06T12:25:38.376Z</time></trkpt><trkpt lat="37.3030327" lon="13.7626188"><ele>312.8333333333333</ele><time>2026-05-06T12:25:39.376Z</time></trkpt><trkpt lat="37.3030949" lon="13.7626311"><ele>312.66666666666663</ele><time>2026-05-06T12:25:40.376Z</time></trkpt><trkpt lat="37.3031828" lon="13.7627005"><ele>312.5</ele><time>2026-05-06T12:25:42.376Z</time></trkpt><trkpt lat="37.3032377" lon="13.7627745"><ele>312.3333333333333</ele><time>2026-05-06T12:25:44.377Z</time></trkpt><trkpt lat="37.3033038" lon="13.7628284"><ele>312.1666666666667</ele><time>2026-05-06T12:25:46.376Z</time></trkpt><trkpt lat="37.3033818" lon="13.7628644"><ele>312.0</ele><time>2026-05-06T12:25:48.376Z</time></trkpt><trkpt lat="37.3034772" lon="13.7628751"><ele>312.0</ele><time>2026-05-06T12:25:50.376Z</time></trkpt><trkpt lat="37.3035406" lon="13.7628808"><ele>312.0</ele><time>2026-05-06T12:25:53.377Z</time></trkpt><trkpt lat="37.3034575" lon="13.7628777"><ele>312.0</ele><time>2026-05-06T12:26:13.376Z</time></trkpt><trkpt lat="37.3033553" lon="13.762852"><ele>312.0</ele><time>2026-05-06T12:26:15.376Z</time></trkpt><trkpt lat="37.3032502" lon="13.7627787"><ele>312.0</ele><time>2026-05-06T12:26:17.376Z</time></trkpt><trkpt lat="37.3031757" lon="13.7626762"><ele>312.2</ele><time>2026-05-06T12:26:19.376Z</time></trkpt><trkpt lat="37.3030424" lon="13.7626327"><ele>312.4</ele><time>2026-05-06T12:26:21.376Z</time></trkpt><trkpt lat="37.3029768" lon="13.7626129"><ele>312.6</ele><time>2026-05-06T12:26:22.376Z</time></trkpt><trkpt lat="37.302865" lon="13.7625712"><ele>312.8</ele><time>2026-05-06T12:26:24.376Z</time></trkpt><trkpt lat="37.3027818" lon="13.7625492"><ele>313.0</ele><time>2026-05-06T12:26:25.376Z</time></trkpt><trkpt lat="37.3026879" lon="13.7625368"><ele>313.0</ele><time>2026-05-06T12:26:26.376Z</time></trkpt><trkpt lat="37.3026014" lon="13.7625401"><ele>313.0</ele><time>2026-05-06T12:26:27.376Z</time></trkpt><trkpt lat="37.3025284" lon="13.7625564"><ele>313.0</ele><time>2026-05-06T12:26:28.376Z</time></trkpt><trkpt lat="37.3024635" lon="13.7626255"><ele>313.0</ele><time>2026-05-06T12:26:30.376Z</time></trkpt><trkpt lat="37.3024811" lon="13.7627627"><ele>313.0</ele><time>2026-05-06T12:26:32.376Z</time></trkpt><trkpt lat="37.3025966" lon="13.7628136"><ele>321.0</ele><time>2026-05-06T12:26:34.376Z</time></trkpt><trkpt lat="37.3026631" lon="13.7628313"><ele>321.0</ele><time>2026-05-06T12:26:35.376Z</time></trkpt><trkpt lat="37.3027642" lon="13.7628164"><ele>321.0</ele><time>2026-05-06T12:26:37.376Z</time></trkpt></trkseg><trkseg><trkpt lat="37.3244554" lon="13.6552737"><ele>371.75</ele><time>2026-05-06T13:34:18.372Z</time></trkpt><trkpt lat="37.3245518" lon="13.6552956"><ele>370.5</ele><time>2026-05-06T13:34:19.372Z</time></trkpt><trkpt lat="37.324666" lon="13.6553231"><ele>369.25</ele><time>2026-05-06T13:34:20.373Z</time></trkpt><trkpt lat="37.3247939" lon="13.6553408"><ele>368.0</ele><time>2026-05-06T13:34:21.372Z</time></trkpt><trkpt lat="37.324932" lon="13.6553495"><ele>368.0</ele><time>2026-05-06T13:34:22.372Z</time></trkpt><trkpt lat="37.3250655" lon="13.6553608"><ele>368.0</ele><time>2026-05-06T13:34:23.373Z</time></trkpt><trkpt lat="37.3251889" lon="13.6553729"><ele>368.0</ele><time>2026-05-06T13:34:24.373Z</time></trkpt><trkpt lat="37.3252962" lon="13.655387"><ele>368.0</ele><time>2026-05-06T13:34:25.372Z</time></trkpt><trkpt lat="37.3254162" lon="13.6553944"><ele>368.0</ele><time>2026-05-06T13:34:26.373Z</time></trkpt><trkpt lat="37.3255115" lon="13.6553962"><ele>368.0</ele><time>2026-05-06T13:34:27.372Z</time></trkpt><trkpt lat="37.3255986" lon="13.6553789"><ele>368.0</ele><time>2026-05-06T13:34:28.372Z</time></trkpt><trkpt lat="37.3256893" lon="13.6553443"><ele>368.0</ele><time>2026-05-06T13:34:29.372Z</time></trkpt><trkpt lat="37.3257909" lon="13.6553066"><ele>368.0</ele><time>2026-05-06T13:34:30.372Z</time></trkpt><trkpt lat="37.3258727" lon="13.6552815"><ele>370.59999999999997</ele><time>2026-05-06T13:34:31.372Z</time></trkpt><trkpt lat="37.3259358" lon="13.6552753"><ele>373.2</ele><time>2026-05-06T13:34:32.372Z</time></trkpt><trkpt lat="37.3260121" lon="13.6552717"><ele>375.8</ele><time>2026-05-06T13:34:33.372Z</time></trkpt><trkpt lat="37.3261011" lon="13.6552534"><ele>378.4</ele><time>2026-05-06T13:34:34.372Z</time></trkpt><trkpt lat="37.3262117" lon="13.6552299"><ele>381.0</ele><time>2026-05-06T13:34:35.372Z</time></trkpt><trkpt lat="37.3263463" lon="13.6552086"><ele>380.75</ele><time>2026-05-06T13:34:36.372Z</time></trkpt><trkpt lat="37.3264931" lon="13.6551879"><ele>380.5</ele><time>2026-05-06T13:34:37.372Z</time></trkpt><trkpt lat="37.3266262" lon="13.655173"><ele>380.25</ele><time>2026-05-06T13:34:38.372Z</time></trkpt><trkpt lat="37.3267477" lon="13.6551536"><ele>380.0</ele><time>2026-05-06T13:34:39.373Z</time></trkpt><trkpt lat="37.3268569" lon="13.6551329"><ele>380.0</ele><time>2026-05-06T13:34:40.372Z</time></trkpt><trkpt lat="37.3269523" lon="13.6551082"><ele>380.0</ele><time>2026-05-06T13:34:41.373Z</time></trkpt><trkpt lat="37.3270359" lon="13.6550788"><ele>380.0</ele><time>2026-05-06T13:34:42.372Z</time></trkpt><trkpt lat="37.3271104" lon="13.6550433"><ele>380.0</ele><time>2026-05-06T13:34:43.372Z</time></trkpt><trkpt lat="37.3271758" lon="13.6550086"><ele>380.0</ele><time>2026-05-06T13:34:44.372Z</time></trkpt><trkpt lat="37.3272707" lon="13.6549602"><ele>380.0</ele><time>2026-05-06T13:34:46.372Z</time></trkpt><trkpt lat="37.3273864" lon="13.6549118"><ele>380.0</ele><time>2026-05-06T13:34:48.372Z</time></trkpt><trkpt lat="37.3274812" lon="13.6549478"><ele>380.0</ele><time>2026-05-06T13:34:50.373Z</time></trkpt><trkpt lat="37.327579" lon="13.6550224"><ele>380.0</ele><time>2026-05-06T13:34:52.372Z</time></trkpt><trkpt lat="37.3276726" lon="13.6550819"><ele>380.0</ele><time>2026-05-06T13:34:54.372Z</time></trkpt><trkpt lat="37.3277642" lon="13.6551489"><ele>380.0</ele><time>2026-05-06T13:34:56.373Z</time></trkpt><trkpt lat="37.3278457" lon="13.6552633"><ele>378.0</ele><time>2026-05-06T13:34:58.372Z</time></trkpt><trkpt lat="37.3278927" lon="13.6553375"><ele>376.0</ele><time>2026-05-06T13:34:59.372Z</time></trkpt><trkpt lat="37.3279323" lon="13.6554072"><ele>374.0</ele><time>2026-05-06T13:35:00.372Z</time></trkpt><trkpt lat="37.3279745" lon="13.6554736"><ele>372.0</ele><time>2026-05-06T13:35:01.372Z</time></trkpt><trkpt lat="37.3280133" lon="13.6555416"><ele>370.0</ele><time>2026-05-06T13:35:02.372Z</time></trkpt><trkpt lat="37.3281031" lon="13.6556635"><ele>368.0</ele><time>2026-05-06T13:35:04.372Z</time></trkpt><trkpt lat="37.328174" lon="13.6557013"><ele>368.0</ele><time>2026-05-06T13:35:05.374Z</time></trkpt><trkpt lat="37.3282487" lon="13.6557135"><ele>368.0</ele><time>2026-05-06T13:35:06.373Z</time></trkpt><trkpt lat="37.3283457" lon="13.6556991"><ele>368.0</ele><time>2026-05-06T13:35:07.373Z</time></trkpt><trkpt lat="37.3284573" lon="13.655673"><ele>368.0</ele><time>2026-05-06T13:35:08.372Z</time></trkpt><trkpt lat="37.3285508" lon="13.6556652"><ele>368.0</ele><time>2026-05-06T13:35:09.373Z</time></trkpt><trkpt lat="37.3286483" lon="13.6556771"><ele>368.0</ele><time>2026-05-06T13:35:10.372Z</time></trkpt><trkpt lat="37.3287666" lon="13.6556909"><ele>368.0</ele><time>2026-05-06T13:35:11.372Z</time></trkpt><trkpt lat="37.328909" lon="13.6556942"><ele>368.0</ele><time>2026-05-06T13:35:12.371Z</time></trkpt><trkpt lat="37.3290656" lon="13.6556937"><ele>368.0</ele><time>2026-05-06T13:35:13.371Z</time></trkpt><trkpt lat="37.3292371" lon="13.655696"><ele>367.5</ele><time>2026-05-06T13:35:14.372Z</time></trkpt><trkpt lat="37.3293831" lon="13.655696"><ele>367.0</ele><time>2026-05-06T13:35:15.371Z</time></trkpt><trkpt lat="37.3295076" lon="13.6557017"><ele>366.5</ele><time>2026-05-06T13:35:16.371Z</time></trkpt><trkpt lat="37.329618" lon="13.6557029"><ele>366.0</ele><time>2026-05-06T13:35:17.371Z</time></trkpt><trkpt lat="37.32972" lon="13.6556954"><ele>365.4</ele><time>2026-05-06T13:35:18.371Z</time></trkpt><trkpt lat="37.3298188" lon="13.6556695"><ele>364.8</ele><time>2026-05-06T13:35:19.372Z</time></trkpt><trkpt lat="37.3299161" lon="13.6556263"><ele>364.2</ele><time>2026-05-06T13:35:20.371Z</time></trkpt><trkpt lat="37.3299988" lon="13.6555594"><ele>363.59999999999997</ele><time>2026-05-06T13:35:21.371Z</time></trkpt><trkpt lat="37.3300679" lon="13.6554749"><ele>363.0</ele><time>2026-05-06T13:35:22.371Z</time></trkpt><trkpt lat="37.3301241" lon="13.6554039"><ele>362.99999999999994</ele><time>2026-05-06T13:35:23.371Z</time></trkpt><trkpt lat="37.3301606" lon="13.6553285"><ele>363.0</ele><time>2026-05-06T13:35:24.372Z</time></trkpt><trkpt lat="37.3301859" lon="13.655251"><ele>363.0</ele><time>2026-05-06T13:35:25.371Z</time></trkpt><trkpt lat="37.3301866" lon="13.6551529"><ele>363.0</ele><time>2026-05-06T13:35:26.371Z</time></trkpt><trkpt lat="37.3302056" lon="13.6550718"><ele>363.0</ele><time>2026-05-06T13:35:27.371Z</time></trkpt><trkpt lat="37.3302261" lon="13.6549761"><ele>362.99999999999994</ele><time>2026-05-06T13:35:28.371Z</time></trkpt><trkpt lat="37.330251" lon="13.6548797"><ele>363.0</ele><time>2026-05-06T13:35:29.372Z</time></trkpt><trkpt lat="37.3302874" lon="13.6547735"><ele>365.4</ele><time>2026-05-06T13:35:30.371Z</time></trkpt><trkpt lat="37.3303334" lon="13.654663"><ele>367.79999999999995</ele><time>2026-05-06T13:35:31.371Z</time></trkpt><trkpt lat="37.3303919" lon="13.6545493"><ele>370.2</ele><time>2026-05-06T13:35:32.371Z</time></trkpt><trkpt lat="37.3304566" lon="13.6544463"><ele>372.6</ele><time>2026-05-06T13:35:33.372Z</time></trkpt><trkpt lat="37.3305127" lon="13.654357"><ele>375.0</ele><time>2026-05-06T13:35:34.371Z</time></trkpt><trkpt lat="37.3305763" lon="13.6542602"><ele>375.2</ele><time>2026-05-06T13:35:35.371Z</time></trkpt><trkpt lat="37.3306441" lon="13.6541749"><ele>375.4</ele><time>2026-05-06T13:35:36.371Z</time></trkpt><trkpt lat="37.3307132" lon="13.6540976"><ele>375.6</ele><time>2026-05-06T13:35:37.372Z</time></trkpt><trkpt lat="37.3307924" lon="13.6540355"><ele>375.8</ele><time>2026-05-06T13:35:38.371Z</time></trkpt><trkpt lat="37.3308612" lon="13.6539744"><ele>376.0</ele><time>2026-05-06T13:35:39.372Z</time></trkpt><trkpt lat="37.3309132" lon="13.65388"><ele>376.0</ele><time>2026-05-06T13:35:40.372Z</time></trkpt><trkpt lat="37.3309508" lon="13.6537574"><ele>376.0</ele><time>2026-05-06T13:35:41.371Z</time></trkpt><trkpt lat="37.3309762" lon="13.6536249"><ele>376.0</ele><time>2026-05-06T13:35:42.371Z</time></trkpt><trkpt lat="37.3310104" lon="13.6535129"><ele>376.0</ele><time>2026-05-06T13:35:43.371Z</time></trkpt><trkpt lat="37.3310677" lon="13.6534076"><ele>376.0</ele><time>2026-05-06T13:35:44.371Z</time></trkpt><trkpt lat="37.3311437" lon="13.6533143"><ele>377.0</ele><time>2026-05-06T13:35:45.371Z</time></trkpt><trkpt lat="37.3312126" lon="13.6532466"><ele>378.0</ele><time>2026-05-06T13:35:46.371Z</time></trkpt><trkpt lat="37.3312741" lon="13.6531567"><ele>379.0</ele><time>2026-05-06T13:35:47.371Z</time></trkpt><trkpt lat="37.3313384" lon="13.6530454"><ele>380.0</ele><time>2026-05-06T13:35:48.371Z</time></trkpt><trkpt lat="37.3314195" lon="13.6529341"><ele>381.0</ele><time>2026-05-06T13:35:49.371Z</time></trkpt><trkpt lat="37.33149" lon="13.6528337"><ele>382.25</ele><time>2026-05-06T13:35:50.371Z</time></trkpt><trkpt lat="37.331563" lon="13.6527252"><ele>383.5</ele><time>2026-05-06T13:35:51.371Z</time></trkpt><trkpt lat="37.3316496" lon="13.6526"><ele>384.75</ele><time>2026-05-06T13:35:52.372Z</time></trkpt><trkpt lat="37.3317215" lon="13.6524703"><ele>386.0</ele><time>2026-05-06T13:35:53.372Z</time></trkpt><trkpt lat="37.331778" lon="13.6523363"><ele>386.0</ele><time>2026-05-06T13:35:54.371Z</time></trkpt><trkpt lat="37.3318184" lon="13.6521959"><ele>386.0</ele><time>2026-05-06T13:35:55.371Z</time></trkpt><trkpt lat="37.331852" lon="13.6520658"><ele>386.0</ele><time>2026-05-06T13:35:56.371Z</time></trkpt><trkpt lat="37.3318879" lon="13.6519448"><ele>386.0</ele><time>2026-05-06T13:35:57.371Z</time></trkpt><trkpt lat="37.3319244" lon="13.6518313"><ele>386.0</ele><time>2026-05-06T13:35:58.371Z</time></trkpt><trkpt lat="37.3319539" lon="13.6517175"><ele>386.66666666666663</ele><time>2026-05-06T13:35:59.372Z</time></trkpt><trkpt lat="37.3319829" lon="13.6516078"><ele>387.3333333333333</ele><time>2026-05-06T13:36:00.371Z</time></trkpt><trkpt lat="37.3320149" lon="13.6515028"><ele>388.0</ele><time>2026-05-06T13:36:01.371Z</time></trkpt><trkpt lat="37.3320453" lon="13.651402"><ele>388.66666666666663</ele><time>2026-05-06T13:36:02.372Z</time></trkpt><trkpt lat="37.3320745" lon="13.6513039"><ele>389.3333333333333</ele><time>2026-05-06T13:36:03.371Z</time></trkpt><trkpt lat="37.3321023" lon="13.6512083"><ele>390.0</ele><time>2026-05-06T13:36:04.371Z</time></trkpt><trkpt lat="37.3321342" lon="13.6511183"><ele>390.5</ele><time>2026-05-06T13:36:05.371Z</time></trkpt><trkpt lat="37.3321727" lon="13.6510352"><ele>391.0</ele><time>2026-05-06T13:36:06.372Z</time></trkpt><trkpt lat="37.332208" lon="13.6509535"><ele>391.5</ele><time>2026-05-06T13:36:07.372Z</time></trkpt><trkpt lat="37.3322469" lon="13.6508806"><ele>392.0</ele><time>2026-05-06T13:36:08.371Z</time></trkpt><trkpt lat="37.3322831" lon="13.6508105"><ele>392.5</ele><time>2026-05-06T13:36:09.371Z</time></trkpt><trkpt lat="37.3323204" lon="13.6507458"><ele>393.0</ele><time>2026-05-06T13:36:10.371Z</time></trkpt><trkpt lat="37.3324073" lon="13.650636"><ele>390.4</ele><time>2026-05-06T13:36:12.371Z</time></trkpt><trkpt lat="37.332504" lon="13.6505411"><ele>387.79999999999995</ele><time>2026-05-06T13:36:14.371Z</time></trkpt><trkpt lat="37.3326018" lon="13.6504485"><ele>385.2</ele><time>2026-05-06T13:36:16.371Z</time></trkpt><trkpt lat="37.332699" lon="13.6503523"><ele>382.6</ele><time>2026-05-06T13:36:18.371Z</time></trkpt><trkpt lat="37.3327488" lon="13.6503013"><ele>380.0</ele><time>2026-05-06T13:36:19.372Z</time></trkpt><trkpt lat="37.3327953" lon="13.6502474"><ele>380.0</ele><time>2026-05-06T13:36:20.371Z</time></trkpt><trkpt lat="37.3328389" lon="13.6501866"><ele>380.0</ele><time>2026-05-06T13:36:21.371Z</time></trkpt><trkpt lat="37.332882" lon="13.650124"><ele>380.0</ele><time>2026-05-06T13:36:22.371Z</time></trkpt><trkpt lat="37.332923" lon="13.6500573"><ele>380.0</ele><time>2026-05-06T13:36:23.371Z</time></trkpt><trkpt lat="37.3329607" lon="13.6499841"><ele>380.0</ele><time>2026-05-06T13:36:24.371Z</time></trkpt><trkpt lat="37.3329938" lon="13.6499041"><ele>380.0</ele><time>2026-05-06T13:36:25.371Z</time></trkpt><trkpt lat="37.3330191" lon="13.6498246"><ele>380.0</ele><time>2026-05-06T13:36:26.372Z</time></trkpt><trkpt lat="37.3330522" lon="13.6497506"><ele>377.5</ele><time>2026-05-06T13:36:27.371Z</time></trkpt><trkpt lat="37.333086" lon="13.6496762"><ele>375.0</ele><time>2026-05-06T13:36:28.372Z</time></trkpt><trkpt lat="37.33312" lon="13.6496062"><ele>372.5</ele><time>2026-05-06T13:36:29.371Z</time></trkpt><trkpt lat="37.3331774" lon="13.6494972"><ele>370.0</ele><time>2026-05-06T13:36:31.371Z</time></trkpt><trkpt lat="37.3332467" lon="13.6494084"><ele>367.5</ele><time>2026-05-06T13:36:33.372Z</time></trkpt><trkpt lat="37.3333197" lon="13.649321"><ele>365.0</ele><time>2026-05-06T13:36:35.371Z</time></trkpt><trkpt lat="37.3334178" lon="13.6492633"><ele>365.0</ele><time>2026-05-06T13:36:37.371Z</time></trkpt><trkpt lat="37.3335139" lon="13.6491887"><ele>365.0</ele><time>2026-05-06T13:36:39.371Z</time></trkpt><trkpt lat="37.3336041" lon="13.6490984"><ele>365.0</ele><time>2026-05-06T13:36:41.371Z</time></trkpt><trkpt lat="37.333685" lon="13.6490253"><ele>365.0</ele><time>2026-05-06T13:36:43.371Z</time></trkpt><trkpt lat="37.3337609" lon="13.6489261"><ele>365.0</ele><time>2026-05-06T13:36:45.371Z</time></trkpt><trkpt lat="37.3338271" lon="13.6488186"><ele>362.4</ele><time>2026-05-06T13:36:47.372Z</time></trkpt><trkpt lat="37.3339081" lon="13.6487188"><ele>359.8</ele><time>2026-05-06T13:36:49.371Z</time></trkpt><trkpt lat="37.3339752" lon="13.6486348"><ele>357.20000000000005</ele><time>2026-05-06T13:36:51.372Z</time></trkpt><trkpt lat="37.3340472" lon="13.648558"><ele>354.6</ele><time>2026-05-06T13:36:53.371Z</time></trkpt><trkpt lat="37.3341081" lon="13.6484631"><ele>352.0</ele><time>2026-05-06T13:36:55.371Z</time></trkpt><trkpt lat="37.3341666" lon="13.6483715"><ele>352.0</ele><time>2026-05-06T13:36:57.372Z</time></trkpt><trkpt lat="37.3342258" lon="13.6482967"><ele>352.0</ele><time>2026-05-06T13:36:59.372Z</time></trkpt><trkpt lat="37.3342789" lon="13.6482167"><ele>352.0</ele><time>2026-05-06T13:37:01.371Z</time></trkpt><trkpt lat="37.3343199" lon="13.6481551"><ele>352.0</ele><time>2026-05-06T13:37:03.372Z</time></trkpt><trkpt lat="37.3343848" lon="13.6480698"><ele>352.0</ele><time>2026-05-06T13:42:42.371Z</time></trkpt><trkpt lat="37.334495" lon="13.6479198"><ele>352.0</ele><time>2026-05-06T13:42:44.371Z</time></trkpt><trkpt lat="37.3345509" lon="13.6478075"><ele>352.0</ele><time>2026-05-06T13:42:45.371Z</time></trkpt><trkpt lat="37.3345832" lon="13.6477054"><ele>352.0</ele><time>2026-05-06T13:42:46.371Z</time></trkpt><trkpt lat="37.3345973" lon="13.6475991"><ele>352.0</ele><time>2026-05-06T13:42:47.371Z</time></trkpt><trkpt lat="37.3345968" lon="13.6474861"><ele>352.0</ele><time>2026-05-06T13:42:48.371Z</time></trkpt><trkpt lat="37.3345847" lon="13.6473756"><ele>352.40000000000003</ele><time>2026-05-06T13:42:49.371Z</time></trkpt><trkpt lat="37.334557" lon="13.647244"><ele>352.8</ele><time>2026-05-06T13:42:50.371Z</time></trkpt><trkpt lat="37.334526" lon="13.6471236"><ele>353.2</ele><time>2026-05-06T13:42:51.371Z</time></trkpt><trkpt lat="37.334492" lon="13.6470183"><ele>353.6</ele><time>2026-05-06T13:42:52.372Z</time></trkpt><trkpt lat="37.3344584" lon="13.6469188"><ele>354.0</ele><time>2026-05-06T13:42:53.371Z</time></trkpt><trkpt lat="37.3344267" lon="13.6468249"><ele>353.1666666666667</ele><time>2026-05-06T13:42:54.372Z</time></trkpt><trkpt lat="37.3343845" lon="13.646731"><ele>352.3333333333333</ele><time>2026-05-06T13:42:55.372Z</time></trkpt><trkpt lat="37.3343488" lon="13.6466451"><ele>351.5</ele><time>2026-05-06T13:42:56.371Z</time></trkpt><trkpt lat="37.3343124" lon="13.6465608"><ele>350.66666666666663</ele><time>2026-05-06T13:42:57.372Z</time></trkpt><trkpt lat="37.3342639" lon="13.6464614"><ele>349.8333333333333</ele><time>2026-05-06T13:42:58.371Z</time></trkpt><trkpt lat="37.334203" lon="13.6463503"><ele>349.0</ele><time>2026-05-06T13:42:59.371Z</time></trkpt><trkpt lat="37.3341473" lon="13.6462663"><ele>349.0</ele><time>2026-05-06T13:43:00.371Z</time></trkpt><trkpt lat="37.3340976" lon="13.6461867"><ele>349.0</ele><time>2026-05-06T13:43:01.371Z</time></trkpt><trkpt lat="37.3340462" lon="13.6460936"><ele>349.0</ele><time>2026-05-06T13:43:02.372Z</time></trkpt><trkpt lat="37.333972" lon="13.645985"><ele>349.0</ele><time>2026-05-06T13:43:03.371Z</time></trkpt><trkpt lat="37.3338824" lon="13.6458603"><ele>349.0</ele><time>2026-05-06T13:43:04.371Z</time></trkpt><trkpt lat="37.3338063" lon="13.6457404"><ele>350.4</ele><time>2026-05-06T13:43:05.371Z</time></trkpt><trkpt lat="37.3337224" lon="13.6456099"><ele>351.79999999999995</ele><time>2026-05-06T13:43:06.372Z</time></trkpt><trkpt lat="37.3336529" lon="13.6454996"><ele>353.20000000000005</ele><time>2026-05-06T13:43:07.371Z</time></trkpt><trkpt lat="37.3335938" lon="13.6453901"><ele>354.6</ele><time>2026-05-06T13:43:08.371Z</time></trkpt><trkpt lat="37.3335617" lon="13.6452964"><ele>356.0</ele><time>2026-05-06T13:43:09.372Z</time></trkpt><trkpt lat="37.3335349" lon="13.6452007"><ele>356.0</ele><time>2026-05-06T13:43:10.371Z</time></trkpt><trkpt lat="37.3335184" lon="13.6451034"><ele>356.0</ele><time>2026-05-06T13:43:11.371Z</time></trkpt><trkpt lat="37.3335054" lon="13.6450033"><ele>356.0</ele><time>2026-05-06T13:43:12.371Z</time></trkpt><trkpt lat="37.3334881" lon="13.6448896"><ele>356.0</ele><time>2026-05-06T13:43:13.371Z</time></trkpt><trkpt lat="37.3334655" lon="13.6447808"><ele>356.0</ele><time>2026-05-06T13:43:14.371Z</time></trkpt><trkpt lat="37.333444" lon="13.6446714"><ele>356.0</ele><time>2026-05-06T13:43:15.372Z</time></trkpt><trkpt lat="37.333423" lon="13.6445561"><ele>355.0</ele><time>2026-05-06T13:43:16.371Z</time></trkpt><trkpt lat="37.3334037" lon="13.6444479"><ele>354.0</ele><time>2026-05-06T13:43:17.371Z</time></trkpt><trkpt lat="37.3333933" lon="13.6443408"><ele>353.0</ele><time>2026-05-06T13:43:18.371Z</time></trkpt><trkpt lat="37.333383" lon="13.6442399"><ele>352.0</ele><time>2026-05-06T13:43:19.371Z</time></trkpt><trkpt lat="37.3333689" lon="13.6441396"><ele>351.0</ele><time>2026-05-06T13:43:20.371Z</time></trkpt><trkpt lat="37.333353" lon="13.6440209"><ele>350.0</ele><time>2026-05-06T13:43:21.372Z</time></trkpt><trkpt lat="37.3333421" lon="13.6438986"><ele>350.0</ele><time>2026-05-06T13:43:22.371Z</time></trkpt><trkpt lat="37.3333341" lon="13.6437853"><ele>350.0</ele><time>2026-05-06T13:43:23.372Z</time></trkpt><trkpt lat="37.3333252" lon="13.643677"><ele>350.0</ele><time>2026-05-06T13:43:24.372Z</time></trkpt><trkpt lat="37.3333221" lon="13.6435556"><ele>350.0</ele><time>2026-05-06T13:43:25.371Z</time></trkpt><trkpt lat="37.3333287" lon="13.6434419"><ele>350.0</ele><time>2026-05-06T13:43:26.371Z</time></trkpt><trkpt lat="37.3333373" lon="13.6433392"><ele>350.0</ele><time>2026-05-06T13:43:27.371Z</time></trkpt><trkpt lat="37.3333312" lon="13.6432364"><ele>348.4</ele><time>2026-05-06T13:43:28.371Z</time></trkpt><trkpt lat="37.3333259" lon="13.6431148"><ele>346.8</ele><time>2026-05-06T13:43:29.372Z</time></trkpt><trkpt lat="37.3333223" lon="13.64298"><ele>345.20000000000005</ele><time>2026-05-06T13:43:30.371Z</time></trkpt><trkpt lat="37.3333212" lon="13.6428643"><ele>343.6</ele><time>2026-05-06T13:43:31.371Z</time></trkpt><trkpt lat="37.3333217" lon="13.6427513"><ele>342.0</ele><time>2026-05-06T13:43:32.371Z</time></trkpt><trkpt lat="37.3333283" lon="13.6426504"><ele>341.1666666666667</ele><time>2026-05-06T13:43:33.371Z</time></trkpt><trkpt lat="37.3333314" lon="13.6425455"><ele>340.3333333333333</ele><time>2026-05-06T13:43:34.371Z</time></trkpt><trkpt lat="37.3333353" lon="13.6424356"><ele>339.5</ele><time>2026-05-06T13:43:35.371Z</time></trkpt><trkpt lat="37.3333348" lon="13.642323"><ele>338.66666666666663</ele><time>2026-05-06T13:43:36.371Z</time></trkpt><trkpt lat="37.3333313" lon="13.6422123"><ele>337.8333333333333</ele><time>2026-05-06T13:43:37.372Z</time></trkpt><trkpt lat="37.3333303" lon="13.6421043"><ele>337.0</ele><time>2026-05-06T13:43:38.371Z</time></trkpt><trkpt lat="37.333327" lon="13.6419802"><ele>336.0</ele><time>2026-05-06T13:43:39.371Z</time></trkpt><trkpt lat="37.3333215" lon="13.6418388"><ele>335.0</ele><time>2026-05-06T13:43:40.372Z</time></trkpt><trkpt lat="37.3333153" lon="13.6416576"><ele>334.0</ele><time>2026-05-06T13:43:41.372Z</time></trkpt><trkpt lat="37.3333118" lon="13.6414608"><ele>333.0</ele><time>2026-05-06T13:43:42.371Z</time></trkpt><trkpt lat="37.333303" lon="13.6412839"><ele>332.25</ele><time>2026-05-06T13:43:43.371Z</time></trkpt><trkpt lat="37.3332886" lon="13.641113"><ele>331.5</ele><time>2026-05-06T13:43:44.371Z</time></trkpt><trkpt lat="37.3332725" lon="13.6409511"><ele>330.75</ele><time>2026-05-06T13:43:45.371Z</time></trkpt><trkpt lat="37.3332505" lon="13.6407981"><ele>330.0</ele><time>2026-05-06T13:43:46.371Z</time></trkpt><trkpt lat="37.3332166" lon="13.6406422"><ele>330.0</ele><time>2026-05-06T13:43:47.371Z</time></trkpt><trkpt lat="37.3331699" lon="13.6404798"><ele>330.0</ele><time>2026-05-06T13:43:48.372Z</time></trkpt><trkpt lat="37.3331037" lon="13.6403073"><ele>330.0</ele><time>2026-05-06T13:43:49.371Z</time></trkpt><trkpt lat="37.3330221" lon="13.6401295"><ele>331.6666666666667</ele><time>2026-05-06T13:43:50.371Z</time></trkpt><trkpt lat="37.3329343" lon="13.6399447"><ele>333.33333333333337</ele><time>2026-05-06T13:43:51.371Z</time></trkpt><trkpt lat="37.3328422" lon="13.6397558"><ele>335.0</ele><time>2026-05-06T13:43:52.371Z</time></trkpt><trkpt lat="37.3327591" lon="13.6395871"><ele>334.33333333333337</ele><time>2026-05-06T13:43:53.371Z</time></trkpt><trkpt lat="37.3326765" lon="13.6394207"><ele>333.6666666666667</ele><time>2026-05-06T13:43:54.371Z</time></trkpt><trkpt lat="37.3325915" lon="13.6392585"><ele>333.0</ele><time>2026-05-06T13:43:55.372Z</time></trkpt><trkpt lat="37.3325158" lon="13.6391027"><ele>333.0</ele><time>2026-05-06T13:43:56.371Z</time></trkpt><trkpt lat="37.3324386" lon="13.638949"><ele>333.0</ele><time>2026-05-06T13:43:57.371Z</time></trkpt><trkpt lat="37.3323662" lon="13.6388086"><ele>333.0</ele><time>2026-05-06T13:43:58.371Z</time></trkpt><trkpt lat="37.3323052" lon="13.6386743"><ele>333.0</ele><time>2026-05-06T13:43:59.371Z</time></trkpt><trkpt lat="37.3322565" lon="13.6385466"><ele>334.59999999999997</ele><time>2026-05-06T13:44:00.371Z</time></trkpt><trkpt lat="37.332221" lon="13.6384304"><ele>336.2</ele><time>2026-05-06T13:44:01.371Z</time></trkpt><trkpt lat="37.3321957" lon="13.6383185"><ele>337.8</ele><time>2026-05-06T13:44:02.371Z</time></trkpt><trkpt lat="37.3321692" lon="13.6381912"><ele>339.4</ele><time>2026-05-06T13:44:03.371Z</time></trkpt><trkpt lat="37.332146" lon="13.6380764"><ele>341.0</ele><time>2026-05-06T13:44:04.37Z</time></trkpt><trkpt lat="37.3321209" lon="13.6379523"><ele>341.0</ele><time>2026-05-06T13:44:05.37Z</time></trkpt><trkpt lat="37.3320851" lon="13.6378058"><ele>341.0</ele><time>2026-05-06T13:44:06.37Z</time></trkpt><trkpt lat="37.3320594" lon="13.6376537"><ele>341.0</ele><time>2026-05-06T13:44:07.37Z</time></trkpt><trkpt lat="37.3320323" lon="13.6375242"><ele>341.0</ele><time>2026-05-06T13:44:08.37Z</time></trkpt><trkpt lat="37.332004" lon="13.6373952"><ele>341.0</ele><time>2026-05-06T13:44:09.37Z</time></trkpt><trkpt lat="37.3319698" lon="13.6372419"><ele>341.0</ele><time>2026-05-06T13:44:10.37Z</time></trkpt><trkpt lat="37.3319282" lon="13.6370745"><ele>341.0</ele><time>2026-05-06T13:44:11.372Z</time></trkpt><trkpt lat="37.3318891" lon="13.6369298"><ele>341.0</ele><time>2026-05-06T13:44:12.371Z</time></trkpt><trkpt lat="37.3318478" lon="13.6367959"><ele>339.25</ele><time>2026-05-06T13:44:13.37Z</time></trkpt><trkpt lat="37.3318032" lon="13.63667"><ele>337.5</ele><time>2026-05-06T13:44:14.37Z</time></trkpt><trkpt lat="37.3317415" lon="13.6365358"><ele>335.75</ele><time>2026-05-06T13:44:15.371Z</time></trkpt><trkpt lat="37.3316706" lon="13.6363872"><ele>334.0</ele><time>2026-05-06T13:44:16.371Z</time></trkpt><trkpt lat="37.3316041" lon="13.6362399"><ele>333.4</ele><time>2026-05-06T13:44:17.371Z</time></trkpt><trkpt lat="37.3315471" lon="13.636108"><ele>332.79999999999995</ele><time>2026-05-06T13:44:18.372Z</time></trkpt><trkpt lat="37.3314893" lon="13.6359878"><ele>332.20000000000005</ele><time>2026-05-06T13:44:19.371Z</time></trkpt><trkpt lat="37.3314379" lon="13.6358797"><ele>331.6</ele><time>2026-05-06T13:44:20.371Z</time></trkpt><trkpt lat="37.331388" lon="13.6357773"><ele>331.0</ele><time>2026-05-06T13:44:21.37Z</time></trkpt><trkpt lat="37.3313391" lon="13.6356871"><ele>331.0</ele><time>2026-05-06T13:44:22.37Z</time></trkpt><trkpt lat="37.331292" lon="13.6356058"><ele>331.0</ele><time>2026-05-06T13:44:23.37Z</time></trkpt><trkpt lat="37.3312517" lon="13.6355294"><ele>331.0</ele><time>2026-05-06T13:44:24.37Z</time></trkpt><trkpt lat="37.3312094" lon="13.6354641"><ele>331.0</ele><time>2026-05-06T13:44:25.37Z</time></trkpt><trkpt lat="37.3311216" lon="13.6353532"><ele>331.0</ele><time>2026-05-06T13:44:27.371Z</time></trkpt><trkpt lat="37.3310289" lon="13.635246"><ele>331.0</ele><time>2026-05-06T13:44:29.37Z</time></trkpt><trkpt lat="37.3309724" lon="13.6351943"><ele>331.0</ele><time>2026-05-06T13:44:30.37Z</time></trkpt><trkpt lat="37.3309069" lon="13.6351412"><ele>331.0</ele><time>2026-05-06T13:44:31.371Z</time></trkpt><trkpt lat="37.3308497" lon="13.6350912"><ele>331.0</ele><time>2026-05-06T13:44:32.371Z</time></trkpt><trkpt lat="37.3307664" lon="13.6350171"><ele>331.0</ele><time>2026-05-06T13:44:33.37Z</time></trkpt><trkpt lat="37.3307018" lon="13.6349596"><ele>331.0</ele><time>2026-05-06T13:44:34.37Z</time></trkpt><trkpt lat="37.3306387" lon="13.6349073"><ele>331.0</ele><time>2026-05-06T13:44:35.371Z</time></trkpt><trkpt lat="37.3305659" lon="13.6348524"><ele>331.0</ele><time>2026-05-06T13:44:36.371Z</time></trkpt><trkpt lat="37.3304718" lon="13.6347746"><ele>331.0</ele><time>2026-05-06T13:44:37.37Z</time></trkpt><trkpt lat="37.3303701" lon="13.6346852"><ele>331.0</ele><time>2026-05-06T13:44:38.37Z</time></trkpt><trkpt lat="37.3302772" lon="13.6345972"><ele>331.0</ele><time>2026-05-06T13:44:39.37Z</time></trkpt><trkpt lat="37.330166" lon="13.6344894"><ele>330.4</ele><time>2026-05-06T13:44:40.37Z</time></trkpt><trkpt lat="37.3300733" lon="13.6343907"><ele>329.8</ele><time>2026-05-06T13:44:41.37Z</time></trkpt><trkpt lat="37.3299908" lon="13.634293"><ele>329.2</ele><time>2026-05-06T13:44:42.372Z</time></trkpt><trkpt lat="37.3299167" lon="13.6342029"><ele>328.59999999999997</ele><time>2026-05-06T13:44:43.372Z</time></trkpt><trkpt lat="37.3298419" lon="13.6341258"><ele>328.0</ele><time>2026-05-06T13:44:44.37Z</time></trkpt><trkpt lat="37.3297704" lon="13.6340637"><ele>329.16666666666663</ele><time>2026-05-06T13:44:45.37Z</time></trkpt><trkpt lat="37.3296971" lon="13.6340103"><ele>330.3333333333333</ele><time>2026-05-06T13:44:46.37Z</time></trkpt><trkpt lat="37.3296295" lon="13.6339622"><ele>331.5</ele><time>2026-05-06T13:44:47.371Z</time></trkpt><trkpt lat="37.3295666" lon="13.6339119"><ele>332.6666666666667</ele><time>2026-05-06T13:44:48.37Z</time></trkpt><trkpt lat="37.3295174" lon="13.6338545"><ele>333.83333333333337</ele><time>2026-05-06T13:44:49.37Z</time></trkpt><trkpt lat="37.3294348" lon="13.6337399"><ele>335.0</ele><time>2026-05-06T13:44:51.372Z</time></trkpt><trkpt lat="37.3293639" lon="13.6336204"><ele>331.4</ele><time>2026-05-06T13:44:53.371Z</time></trkpt><trkpt lat="37.3292817" lon="13.6334951"><ele>327.8</ele><time>2026-05-06T13:44:55.37Z</time></trkpt><trkpt lat="37.3292282" lon="13.6334299"><ele>324.2</ele><time>2026-05-06T13:44:56.371Z</time></trkpt><trkpt lat="37.3291657" lon="13.633366"><ele>320.6</ele><time>2026-05-06T13:44:57.37Z</time></trkpt><trkpt lat="37.3290926" lon="13.6333025"><ele>317.0</ele><time>2026-05-06T13:44:58.37Z</time></trkpt><trkpt lat="37.3290109" lon="13.6332444"><ele>317.0</ele><time>2026-05-06T13:44:59.37Z</time></trkpt><trkpt lat="37.3289205" lon="13.6331942"><ele>317.0</ele><time>2026-05-06T13:45:00.37Z</time></trkpt><trkpt lat="37.3288298" lon="13.6331486"><ele>317.0</ele><time>2026-05-06T13:45:01.37Z</time></trkpt><trkpt lat="37.328751" lon="13.6331072"><ele>317.0</ele><time>2026-05-06T13:45:02.37Z</time></trkpt><trkpt lat="37.3286612" lon="13.6330506"><ele>317.0</ele><time>2026-05-06T13:45:04.37Z</time></trkpt><trkpt lat="37.328631" lon="13.632977"><ele>317.0</ele><time>2026-05-06T13:45:07.37Z</time></trkpt><trkpt lat="37.3286942" lon="13.6330085"><ele>317.0</ele><time>2026-05-06T13:45:10.371Z</time></trkpt><trkpt lat="37.3287582" lon="13.6330918"><ele>317.0</ele><time>2026-05-06T13:45:12.37Z</time></trkpt><trkpt lat="37.3288545" lon="13.6331451"><ele>317.0</ele><time>2026-05-06T13:45:14.371Z</time></trkpt><trkpt lat="37.3289156" lon="13.6331774"><ele>317.0</ele><time>2026-05-06T13:45:15.37Z</time></trkpt><trkpt lat="37.3289777" lon="13.6332159"><ele>317.0</ele><time>2026-05-06T13:45:16.371Z</time></trkpt><trkpt lat="37.3290401" lon="13.6332627"><ele>317.0</ele><time>2026-05-06T13:45:17.37Z</time></trkpt><trkpt lat="37.3291046" lon="13.6333172"><ele>317.0</ele><time>2026-05-06T13:45:18.37Z</time></trkpt><trkpt lat="37.3291769" lon="13.6333862"><ele>317.0</ele><time>2026-05-06T13:45:19.371Z</time></trkpt><trkpt lat="37.3292561" lon="13.6334732"><ele>317.0</ele><time>2026-05-06T13:45:20.371Z</time></trkpt><trkpt lat="37.3293323" lon="13.6335705"><ele>317.0</ele><time>2026-05-06T13:45:21.371Z</time></trkpt><trkpt lat="37.3294061" lon="13.6336963"><ele>317.0</ele><time>2026-05-06T13:45:22.371Z</time></trkpt><trkpt lat="37.3294725" lon="13.6337915"><ele>319.2</ele><time>2026-05-06T13:45:23.37Z</time></trkpt><trkpt lat="37.3295398" lon="13.6338612"><ele>321.4</ele><time>2026-05-06T13:45:24.37Z</time></trkpt><trkpt lat="37.3296212" lon="13.6339342"><ele>323.59999999999997</ele><time>2026-05-06T13:45:25.37Z</time></trkpt><trkpt lat="37.3297195" lon="13.6340102"><ele>325.79999999999995</ele><time>2026-05-06T13:45:26.371Z</time></trkpt><trkpt lat="37.3298114" lon="13.6340865"><ele>328.0</ele><time>2026-05-06T13:45:27.37Z</time></trkpt><trkpt lat="37.3299008" lon="13.6341782"><ele>328.0</ele><time>2026-05-06T13:45:28.371Z</time></trkpt><trkpt lat="37.3299997" lon="13.6342979"><ele>328.0</ele><time>2026-05-06T13:45:29.371Z</time></trkpt><trkpt lat="37.3301076" lon="13.6344205"><ele>328.0</ele><time>2026-05-06T13:45:30.37Z</time></trkpt><trkpt lat="37.3302229" lon="13.6345362"><ele>328.0</ele><time>2026-05-06T13:45:31.37Z</time></trkpt><trkpt lat="37.3303532" lon="13.6346589"><ele>328.75</ele><time>2026-05-06T13:45:32.37Z</time></trkpt><trkpt lat="37.3304732" lon="13.6347646"><ele>329.5</ele><time>2026-05-06T13:45:33.37Z</time></trkpt><trkpt lat="37.330577" lon="13.6348546"><ele>330.25</ele><time>2026-05-06T13:45:34.37Z</time></trkpt><trkpt lat="37.3306717" lon="13.6349357"><ele>331.0</ele><time>2026-05-06T13:45:35.371Z</time></trkpt><trkpt lat="37.3307702" lon="13.6350186"><ele>331.0</ele><time>2026-05-06T13:45:36.37Z</time></trkpt><trkpt lat="37.3308687" lon="13.6351028"><ele>331.0</ele><time>2026-05-06T13:45:37.371Z</time></trkpt><trkpt lat="37.3309565" lon="13.6351851"><ele>331.0</ele><time>2026-05-06T13:45:38.371Z</time></trkpt><trkpt lat="37.3310421" lon="13.6352771"><ele>331.0</ele><time>2026-05-06T13:45:39.37Z</time></trkpt><trkpt lat="37.3311342" lon="13.6353891"><ele>331.0</ele><time>2026-05-06T13:45:40.37Z</time></trkpt><trkpt lat="37.3312277" lon="13.6355174"><ele>331.0</ele><time>2026-05-06T13:45:41.37Z</time></trkpt><trkpt lat="37.3313021" lon="13.6356439"><ele>331.0</ele><time>2026-05-06T13:45:42.37Z</time></trkpt><trkpt lat="37.3313816" lon="13.6357945"><ele>331.0</ele><time>2026-05-06T13:45:43.371Z</time></trkpt><trkpt lat="37.3314616" lon="13.6359476"><ele>331.0</ele><time>2026-05-06T13:45:44.371Z</time></trkpt><trkpt lat="37.3315374" lon="13.6361175"><ele>331.0</ele><time>2026-05-06T13:45:45.37Z</time></trkpt><trkpt lat="37.3316041" lon="13.6362615"><ele>331.0</ele><time>2026-05-06T13:45:46.37Z</time></trkpt><trkpt lat="37.3316782" lon="13.636421"><ele>331.0</ele><time>2026-05-06T13:45:47.37Z</time></trkpt><trkpt lat="37.3317563" lon="13.6365967"><ele>331.75</ele><time>2026-05-06T13:45:48.37Z</time></trkpt><trkpt lat="37.3318231" lon="13.6367663"><ele>332.5</ele><time>2026-05-06T13:45:49.371Z</time></trkpt><trkpt lat="37.3318776" lon="13.6369187"><ele>333.25</ele><time>2026-05-06T13:45:50.37Z</time></trkpt><trkpt lat="37.3319248" lon="13.6370619"><ele>334.0</ele><time>2026-05-06T13:45:51.37Z</time></trkpt><trkpt lat="37.3319708" lon="13.6372184"><ele>335.75</ele><time>2026-05-06T13:45:52.37Z</time></trkpt><trkpt lat="37.3320123" lon="13.6373998"><ele>337.5</ele><time>2026-05-06T13:45:53.37Z</time></trkpt><trkpt lat="37.3320499" lon="13.6375864"><ele>339.25</ele><time>2026-05-06T13:45:54.37Z</time></trkpt><trkpt lat="37.3320835" lon="13.637742"><ele>341.0</ele><time>2026-05-06T13:45:55.37Z</time></trkpt><trkpt lat="37.3321144" lon="13.6378886"><ele>341.0</ele><time>2026-05-06T13:45:56.37Z</time></trkpt><trkpt lat="37.332142" lon="13.6380102"><ele>341.0</ele><time>2026-05-06T13:45:57.37Z</time></trkpt><trkpt lat="37.3321595" lon="13.6381034"><ele>341.0</ele><time>2026-05-06T13:45:58.37Z</time></trkpt><trkpt lat="37.3321815" lon="13.6382555"><ele>341.0</ele><time>2026-05-06T13:46:00.37Z</time></trkpt><trkpt lat="37.3321883" lon="13.6383366"><ele>341.0</ele><time>2026-05-06T13:46:01.37Z</time></trkpt><trkpt lat="37.332204" lon="13.6384255"><ele>341.0</ele><time>2026-05-06T13:46:02.37Z</time></trkpt><trkpt lat="37.3322415" lon="13.6385388"><ele>339.0</ele><time>2026-05-06T13:46:03.37Z</time></trkpt><trkpt lat="37.3322998" lon="13.6386728"><ele>337.0</ele><time>2026-05-06T13:46:04.37Z</time></trkpt><trkpt lat="37.3323724" lon="13.6388287"><ele>335.0</ele><time>2026-05-06T13:46:05.37Z</time></trkpt><trkpt lat="37.3324579" lon="13.638997"><ele>333.0</ele><time>2026-05-06T13:46:06.371Z</time></trkpt><trkpt lat="37.3325499" lon="13.6391753"><ele>333.0</ele><time>2026-05-06T13:46:07.37Z</time></trkpt><trkpt lat="37.3326292" lon="13.6393393"><ele>333.0</ele><time>2026-05-06T13:46:08.371Z</time></trkpt><trkpt lat="37.3327014" lon="13.6394787"><ele>333.0</ele><time>2026-05-06T13:46:09.37Z</time></trkpt><trkpt lat="37.3327734" lon="13.6396141"><ele>333.0</ele><time>2026-05-06T13:46:10.37Z</time></trkpt><trkpt lat="37.3328369" lon="13.6397443"><ele>333.5</ele><time>2026-05-06T13:46:11.37Z</time></trkpt><trkpt lat="37.332901" lon="13.6398667"><ele>334.0</ele><time>2026-05-06T13:46:12.37Z</time></trkpt><trkpt lat="37.3329684" lon="13.6399854"><ele>334.5</ele><time>2026-05-06T13:46:13.372Z</time></trkpt><trkpt lat="37.3330359" lon="13.6401203"><ele>335.0</ele><time>2026-05-06T13:46:14.372Z</time></trkpt><trkpt lat="37.3330983" lon="13.6402593"><ele>333.75</ele><time>2026-05-06T13:46:15.371Z</time></trkpt><trkpt lat="37.3331518" lon="13.6404053"><ele>332.5</ele><time>2026-05-06T13:46:16.371Z</time></trkpt><trkpt lat="37.3331984" lon="13.6405687"><ele>331.25</ele><time>2026-05-06T13:46:17.37Z</time></trkpt><trkpt lat="37.3332376" lon="13.6407515"><ele>330.0</ele><time>2026-05-06T13:46:18.37Z</time></trkpt><trkpt lat="37.3332704" lon="13.6409402"><ele>330.0</ele><time>2026-05-06T13:46:19.37Z</time></trkpt><trkpt lat="37.333291" lon="13.6411233"><ele>330.0</ele><time>2026-05-06T13:46:20.371Z</time></trkpt><trkpt lat="37.3333048" lon="13.6413028"><ele>330.0</ele><time>2026-05-06T13:46:21.371Z</time></trkpt><trkpt lat="37.3333135" lon="13.6414972"><ele>330.0</ele><time>2026-05-06T13:46:22.371Z</time></trkpt><trkpt lat="37.3333179" lon="13.6416949"><ele>331.0</ele><time>2026-05-06T13:46:23.371Z</time></trkpt><trkpt lat="37.3333191" lon="13.6418939"><ele>332.0</ele><time>2026-05-06T13:46:24.37Z</time></trkpt><trkpt lat="37.3333193" lon="13.6420903"><ele>333.0</ele><time>2026-05-06T13:46:25.37Z</time></trkpt><trkpt lat="37.3333185" lon="13.6422834"><ele>334.0</ele><time>2026-05-06T13:46:26.37Z</time></trkpt><trkpt lat="37.3333237" lon="13.6424691"><ele>335.0</ele><time>2026-05-06T13:46:27.37Z</time></trkpt><trkpt lat="37.3333265" lon="13.6426336"><ele>336.0</ele><time>2026-05-06T13:46:28.371Z</time></trkpt><trkpt lat="37.3333265" lon="13.642789"><ele>337.0</ele><time>2026-05-06T13:46:29.37Z</time></trkpt><trkpt lat="37.3333216" lon="13.6429338"><ele>338.0</ele><time>2026-05-06T13:46:30.37Z</time></trkpt><trkpt lat="37.3333225" lon="13.6430715"><ele>339.0</ele><time>2026-05-06T13:46:31.37Z</time></trkpt><trkpt lat="37.3333238" lon="13.6432083"><ele>340.0</ele><time>2026-05-06T13:46:32.371Z</time></trkpt><trkpt lat="37.3333315" lon="13.6433457"><ele>341.0</ele><time>2026-05-06T13:46:33.371Z</time></trkpt><trkpt lat="37.3333315" lon="13.6434716"><ele>342.0</ele><time>2026-05-06T13:46:34.37Z</time></trkpt><trkpt lat="37.3333182" lon="13.6435782"><ele>344.0</ele><time>2026-05-06T13:46:35.37Z</time></trkpt><trkpt lat="37.3333294" lon="13.643712"><ele>346.0</ele><time>2026-05-06T13:46:36.371Z</time></trkpt><trkpt lat="37.333338" lon="13.6438589"><ele>348.0</ele><time>2026-05-06T13:46:37.37Z</time></trkpt><trkpt lat="37.3333545" lon="13.6440134"><ele>350.0</ele><time>2026-05-06T13:46:38.372Z</time></trkpt><trkpt lat="37.3333733" lon="13.6441717"><ele>350.0</ele><time>2026-05-06T13:46:39.371Z</time></trkpt><trkpt lat="37.3333925" lon="13.6443031"><ele>350.0</ele><time>2026-05-06T13:46:40.372Z</time></trkpt><trkpt lat="37.3334118" lon="13.644431"><ele>350.0</ele><time>2026-05-06T13:46:41.37Z</time></trkpt><trkpt lat="37.3334309" lon="13.6445547"><ele>350.0</ele><time>2026-05-06T13:46:42.371Z</time></trkpt><trkpt lat="37.3334544" lon="13.6446832"><ele>350.0</ele><time>2026-05-06T13:46:43.37Z</time></trkpt><trkpt lat="37.3334773" lon="13.6448155"><ele>351.0</ele><time>2026-05-06T13:46:44.37Z</time></trkpt><trkpt lat="37.3335033" lon="13.6449347"><ele>352.0</ele><time>2026-05-06T13:46:45.371Z</time></trkpt><trkpt lat="37.3335255" lon="13.6450624"><ele>353.0</ele><time>2026-05-06T13:46:46.37Z</time></trkpt><trkpt lat="37.3335463" lon="13.6451679"><ele>354.0</ele><time>2026-05-06T13:46:47.371Z</time></trkpt><trkpt lat="37.3335647" lon="13.6452643"><ele>355.0</ele><time>2026-05-06T13:46:48.37Z</time></trkpt><trkpt lat="37.3335929" lon="13.6453438"><ele>356.0</ele><time>2026-05-06T13:46:49.371Z</time></trkpt><trkpt lat="37.3336259" lon="13.6454215"><ele>357.0</ele><time>2026-05-06T13:46:50.371Z</time></trkpt><trkpt lat="37.333659" lon="13.6454963"><ele>358.0</ele><time>2026-05-06T13:46:51.37Z</time></trkpt><trkpt lat="37.333738" lon="13.6456216"><ele>359.0</ele><time>2026-05-06T13:46:53.37Z</time></trkpt><trkpt lat="37.3337847" lon="13.6456812"><ele>360.0</ele><time>2026-05-06T13:46:54.37Z</time></trkpt><trkpt lat="37.3338494" lon="13.6457981"><ele>361.0</ele><time>2026-05-06T13:46:56.37Z</time></trkpt><trkpt lat="37.3339022" lon="13.6459089"><ele>358.25</ele><time>2026-05-06T13:46:58.371Z</time></trkpt><trkpt lat="37.3339818" lon="13.6460292"><ele>355.5</ele><time>2026-05-06T13:47:00.37Z</time></trkpt><trkpt lat="37.3340606" lon="13.6461359"><ele>352.75</ele><time>2026-05-06T13:47:02.37Z</time></trkpt><trkpt lat="37.3341364" lon="13.6462246"><ele>350.0</ele><time>2026-05-06T13:47:04.37Z</time></trkpt><trkpt lat="37.3342085" lon="13.6463319"><ele>349.83333333333337</ele><time>2026-05-06T13:47:06.37Z</time></trkpt><trkpt lat="37.3342464" lon="13.6463977"><ele>349.6666666666667</ele><time>2026-05-06T13:47:07.37Z</time></trkpt><trkpt lat="37.3342873" lon="13.646474"><ele>349.5</ele><time>2026-05-06T13:47:08.372Z</time></trkpt><trkpt lat="37.3343353" lon="13.6465658"><ele>349.3333333333333</ele><time>2026-05-06T13:47:09.37Z</time></trkpt><trkpt lat="37.334375" lon="13.6466516"><ele>349.16666666666663</ele><time>2026-05-06T13:47:10.37Z</time></trkpt><trkpt lat="37.3344054" lon="13.6467258"><ele>349.0</ele><time>2026-05-06T13:47:11.37Z</time></trkpt><trkpt lat="37.3344443" lon="13.6468201"><ele>349.0</ele><time>2026-05-06T13:47:12.37Z</time></trkpt><trkpt lat="37.3344881" lon="13.6469363"><ele>349.0</ele><time>2026-05-06T13:47:13.371Z</time></trkpt><trkpt lat="37.3345256" lon="13.6470588"><ele>349.0</ele><time>2026-05-06T13:47:14.371Z</time></trkpt><trkpt lat="37.3345615" lon="13.6471894"><ele>349.0</ele><time>2026-05-06T13:47:15.37Z</time></trkpt><trkpt lat="37.3345894" lon="13.6472946"><ele>349.0</ele><time>2026-05-06T13:47:16.371Z</time></trkpt><trkpt lat="37.3346087" lon="13.6473836"><ele>349.5</ele><time>2026-05-06T13:47:17.37Z</time></trkpt><trkpt lat="37.334616" lon="13.6474813"><ele>350.0</ele><time>2026-05-06T13:47:18.37Z</time></trkpt><trkpt lat="37.3346124" lon="13.6475827"><ele>350.5</ele><time>2026-05-06T13:47:19.37Z</time></trkpt><trkpt lat="37.3345978" lon="13.6476755"><ele>351.0</ele><time>2026-05-06T13:47:20.371Z</time></trkpt><trkpt lat="37.3345727" lon="13.6477704"><ele>351.5</ele><time>2026-05-06T13:47:21.37Z</time></trkpt><trkpt lat="37.3345354" lon="13.6478683"><ele>352.0</ele><time>2026-05-06T13:47:22.37Z</time></trkpt><trkpt lat="37.3344942" lon="13.6479478"><ele>352.0</ele><time>2026-05-06T13:47:23.37Z</time></trkpt><trkpt lat="37.334451" lon="13.6480086"><ele>352.0</ele><time>2026-05-06T13:47:24.371Z</time></trkpt><trkpt lat="37.3343922" lon="13.6481077"><ele>352.0</ele><time>2026-05-06T13:47:26.37Z</time></trkpt><trkpt lat="37.3344306" lon="13.6482109"><ele>352.0</ele><time>2026-05-06T13:47:29.37Z</time></trkpt><trkpt lat="37.334496" lon="13.6483066"><ele>352.0</ele><time>2026-05-06T13:47:31.372Z</time></trkpt><trkpt lat="37.3345398" lon="13.6483639"><ele>352.0</ele><time>2026-05-06T13:47:32.37Z</time></trkpt><trkpt lat="37.3346457" lon="13.6484548"><ele>352.0</ele><time>2026-05-06T13:47:34.371Z</time></trkpt><trkpt lat="37.334703" lon="13.6485024"><ele>352.0</ele><time>2026-05-06T13:47:35.37Z</time></trkpt><trkpt lat="37.3347633" lon="13.6485498"><ele>352.0</ele><time>2026-05-06T13:47:36.37Z</time></trkpt><trkpt lat="37.334828" lon="13.648592"><ele>352.0</ele><time>2026-05-06T13:47:37.371Z</time></trkpt><trkpt lat="37.3348883" lon="13.6486341"><ele>352.0</ele><time>2026-05-06T13:47:38.37Z</time></trkpt><trkpt lat="37.334954" lon="13.6486699"><ele>352.0</ele><time>2026-05-06T13:47:39.37Z</time></trkpt><trkpt lat="37.335018" lon="13.6487111"><ele>352.0</ele><time>2026-05-06T13:47:40.371Z</time></trkpt><trkpt lat="37.3350795" lon="13.6487616"><ele>350.0</ele><time>2026-05-06T13:47:41.371Z</time></trkpt><trkpt lat="37.3351343" lon="13.6488203"><ele>348.0</ele><time>2026-05-06T13:47:42.37Z</time></trkpt><trkpt lat="37.335185" lon="13.6488792"><ele>346.0</ele><time>2026-05-06T13:47:43.371Z</time></trkpt><trkpt lat="37.3352299" lon="13.6489371"><ele>344.0</ele><time>2026-05-06T13:47:44.37Z</time></trkpt><trkpt lat="37.3352696" lon="13.6490006"><ele>342.0</ele><time>2026-05-06T13:47:45.37Z</time></trkpt><trkpt lat="37.3353114" lon="13.6490633"><ele>340.0</ele><time>2026-05-06T13:47:46.371Z</time></trkpt><trkpt lat="37.3353528" lon="13.6491306"><ele>338.0</ele><time>2026-05-06T13:47:47.37Z</time></trkpt><trkpt lat="37.335393" lon="13.6492014"><ele>338.0</ele><time>2026-05-06T13:47:48.37Z</time></trkpt><trkpt lat="37.3354327" lon="13.6492737"><ele>338.0</ele><time>2026-05-06T13:47:49.37Z</time></trkpt><trkpt lat="37.33547" lon="13.6493504"><ele>338.0</ele><time>2026-05-06T13:47:50.371Z</time></trkpt><trkpt lat="37.335505" lon="13.6494267"><ele>338.0</ele><time>2026-05-06T13:47:51.37Z</time></trkpt><trkpt lat="37.3355391" lon="13.6495037"><ele>338.0</ele><time>2026-05-06T13:47:52.371Z</time></trkpt><trkpt lat="37.3355705" lon="13.6495781"><ele>338.0</ele><time>2026-05-06T13:47:53.37Z</time></trkpt><trkpt lat="37.3356174" lon="13.649723"><ele>336.0</ele><time>2026-05-06T13:47:55.37Z</time></trkpt><trkpt lat="37.3356379" lon="13.6498694"><ele>334.0</ele><time>2026-05-06T13:47:57.371Z</time></trkpt><trkpt lat="37.3356754" lon="13.6500058"><ele>332.0</ele><time>2026-05-06T13:47:59.37Z</time></trkpt><trkpt lat="37.335723" lon="13.6501315"><ele>330.0</ele><time>2026-05-06T13:48:01.37Z</time></trkpt><trkpt lat="37.3357353" lon="13.6502435"><ele>328.0</ele><time>2026-05-06T13:48:03.37Z</time></trkpt><trkpt lat="37.335745" lon="13.6503445"><ele>327.59999999999997</ele><time>2026-05-06T13:48:06.37Z</time></trkpt><trkpt lat="37.3357358" lon="13.650453"><ele>327.2</ele><time>2026-05-06T13:49:40.371Z</time></trkpt><trkpt lat="37.3357534" lon="13.6505588"><ele>326.8</ele><time>2026-05-06T13:49:42.371Z</time></trkpt><trkpt lat="37.3357592" lon="13.650674"><ele>326.4</ele><time>2026-05-06T13:49:44.371Z</time></trkpt><trkpt lat="37.3357695" lon="13.6508056"><ele>326.0</ele><time>2026-05-06T13:49:46.37Z</time></trkpt><trkpt lat="37.3357857" lon="13.6509143"><ele>326.0</ele><time>2026-05-06T13:49:48.37Z</time></trkpt><trkpt lat="37.3358083" lon="13.651007"><ele>326.0</ele><time>2026-05-06T13:49:50.37Z</time></trkpt><trkpt lat="37.3358232" lon="13.6511016"><ele>326.0</ele><time>2026-05-06T13:49:52.37Z</time></trkpt><trkpt lat="37.3358373" lon="13.6512425"><ele>326.0</ele><time>2026-05-06T13:49:54.37Z</time></trkpt><trkpt lat="37.3358384" lon="13.6513936"><ele>326.0</ele><time>2026-05-06T13:49:56.371Z</time></trkpt><trkpt lat="37.3358356" lon="13.6515448"><ele>325.5</ele><time>2026-05-06T13:49:58.37Z</time></trkpt><trkpt lat="37.3358517" lon="13.6516947"><ele>325.0</ele><time>2026-05-06T13:50:00.37Z</time></trkpt><trkpt lat="37.3358556" lon="13.6518439"><ele>324.5</ele><time>2026-05-06T13:50:02.37Z</time></trkpt><trkpt lat="37.3358542" lon="13.6519893"><ele>324.0</ele><time>2026-05-06T13:50:04.37Z</time></trkpt><trkpt lat="37.3358509" lon="13.652128"><ele>323.79999999999995</ele><time>2026-05-06T13:50:06.37Z</time></trkpt><trkpt lat="37.3358789" lon="13.6522754"><ele>323.59999999999997</ele><time>2026-05-06T13:50:08.37Z</time></trkpt><trkpt lat="37.335923" lon="13.6524251"><ele>323.4</ele><time>2026-05-06T13:50:10.37Z</time></trkpt><trkpt lat="37.3359402" lon="13.652508"><ele>323.2</ele><time>2026-05-06T13:50:11.371Z</time></trkpt><trkpt lat="37.3359498" lon="13.652598"><ele>323.0</ele><time>2026-05-06T13:50:12.371Z</time></trkpt><trkpt lat="37.3359609" lon="13.6526778"><ele>322.2</ele><time>2026-05-06T13:50:13.37Z</time></trkpt><trkpt lat="37.3359665" lon="13.6528306"><ele>321.4</ele><time>2026-05-06T13:50:15.37Z</time></trkpt><trkpt lat="37.335963" lon="13.6529685"><ele>320.59999999999997</ele><time>2026-05-06T13:50:17.37Z</time></trkpt><trkpt lat="37.3359598" lon="13.6531006"><ele>319.79999999999995</ele><time>2026-05-06T13:50:19.37Z</time></trkpt><trkpt lat="37.335957" lon="13.6532236"><ele>319.0</ele><time>2026-05-06T13:50:21.37Z</time></trkpt><trkpt lat="37.3359627" lon="13.6533405"><ele>319.0</ele><time>2026-05-06T13:50:23.37Z</time></trkpt><trkpt lat="37.3360056" lon="13.6534533"><ele>319.0</ele><time>2026-05-06T13:50:25.37Z</time></trkpt><trkpt lat="37.3360509" lon="13.6535753"><ele>319.0</ele><time>2026-05-06T13:50:27.37Z</time></trkpt><trkpt lat="37.3360669" lon="13.6536981"><ele>319.0</ele><time>2026-05-06T13:50:29.371Z</time></trkpt><trkpt lat="37.3360769" lon="13.6537853"><ele>319.0</ele><time>2026-05-06T13:50:30.371Z</time></trkpt><trkpt lat="37.3360849" lon="13.6538667"><ele>319.0</ele><time>2026-05-06T13:50:31.371Z</time></trkpt><trkpt lat="37.3360962" lon="13.6539533"><ele>318.5</ele><time>2026-05-06T13:50:32.371Z</time></trkpt><trkpt lat="37.336108" lon="13.6540336"><ele>318.0</ele><time>2026-05-06T13:50:33.371Z</time></trkpt><trkpt lat="37.336122" lon="13.6541118"><ele>317.5</ele><time>2026-05-06T13:50:34.37Z</time></trkpt><trkpt lat="37.3361374" lon="13.6541902"><ele>317.0</ele><time>2026-05-06T13:50:35.37Z</time></trkpt><trkpt lat="37.3361666" lon="13.654344"><ele>316.5</ele><time>2026-05-06T13:50:37.37Z</time></trkpt><trkpt lat="37.3362055" lon="13.654492"><ele>316.0</ele><time>2026-05-06T13:50:39.37Z</time></trkpt><trkpt lat="37.3362401" lon="13.6546308"><ele>315.3333333333333</ele><time>2026-05-06T13:50:41.37Z</time></trkpt><trkpt lat="37.3362682" lon="13.654777"><ele>314.66666666666663</ele><time>2026-05-06T13:50:43.37Z</time></trkpt><trkpt lat="37.3362866" lon="13.6549325"><ele>314.0</ele><time>2026-05-06T13:50:45.371Z</time></trkpt><trkpt lat="37.3362867" lon="13.6550184"><ele>313.3333333333333</ele><time>2026-05-06T13:50:46.371Z</time></trkpt><trkpt lat="37.3362837" lon="13.6551022"><ele>312.6666666666667</ele><time>2026-05-06T13:50:47.37Z</time></trkpt><trkpt lat="37.3362784" lon="13.6551813"><ele>312.0</ele><time>2026-05-06T13:50:48.371Z</time></trkpt><trkpt lat="37.3362503" lon="13.6553176"><ele>311.5</ele><time>2026-05-06T13:50:50.37Z</time></trkpt><trkpt lat="37.336199" lon="13.6554408"><ele>311.0</ele><time>2026-05-06T13:50:52.371Z</time></trkpt><trkpt lat="37.3361632" lon="13.6555646"><ele>310.5</ele><time>2026-05-06T13:50:54.37Z</time></trkpt><trkpt lat="37.3361466" lon="13.6557101"><ele>310.0</ele><time>2026-05-06T13:50:56.37Z</time></trkpt><trkpt lat="37.3361335" lon="13.6558672"><ele>310.0</ele><time>2026-05-06T13:50:58.371Z</time></trkpt><trkpt lat="37.3361389" lon="13.6560208"><ele>310.0</ele><time>2026-05-06T13:51:00.371Z</time></trkpt><trkpt lat="37.3361479" lon="13.656112"><ele>310.0</ele><time>2026-05-06T13:51:01.37Z</time></trkpt><trkpt lat="37.3361575" lon="13.6562011"><ele>310.0</ele><time>2026-05-06T13:51:02.37Z</time></trkpt><trkpt lat="37.336174" lon="13.6562843"><ele>310.0</ele><time>2026-05-06T13:51:03.37Z</time></trkpt><trkpt lat="37.3361977" lon="13.6564409"><ele>309.16666666666663</ele><time>2026-05-06T13:51:05.37Z</time></trkpt><trkpt lat="37.3362037" lon="13.6565214"><ele>308.3333333333333</ele><time>2026-05-06T13:51:06.37Z</time></trkpt><trkpt lat="37.3362195" lon="13.6566756"><ele>307.5</ele><time>2026-05-06T13:51:08.371Z</time></trkpt><trkpt lat="37.3362304" lon="13.6567537"><ele>306.6666666666667</ele><time>2026-05-06T13:51:09.37Z</time></trkpt><trkpt lat="37.3362386" lon="13.6568361"><ele>305.83333333333337</ele><time>2026-05-06T13:51:10.371Z</time></trkpt><trkpt lat="37.336239" lon="13.6569222"><ele>305.0</ele><time>2026-05-06T13:51:11.37Z</time></trkpt><trkpt lat="37.3362251" lon="13.6570014"><ele>303.5</ele><time>2026-05-06T13:51:12.371Z</time></trkpt><trkpt lat="37.3361924" lon="13.6570766"><ele>302.0</ele><time>2026-05-06T13:51:13.37Z</time></trkpt><trkpt lat="37.3361539" lon="13.6571468"><ele>300.5</ele><time>2026-05-06T13:51:14.372Z</time></trkpt><trkpt lat="37.336124" lon="13.6572219"><ele>299.0</ele><time>2026-05-06T13:51:15.37Z</time></trkpt><trkpt lat="37.3361022" lon="13.6572985"><ele>297.5</ele><time>2026-05-06T13:51:16.371Z</time></trkpt><trkpt lat="37.336061" lon="13.6574334"><ele>296.0</ele><time>2026-05-06T13:51:18.37Z</time></trkpt><trkpt lat="37.3360145" lon="13.6575312"><ele>296.0</ele><time>2026-05-06T13:51:20.37Z</time></trkpt><trkpt lat="37.3359708" lon="13.6576321"><ele>296.0</ele><time>2026-05-06T13:51:22.371Z</time></trkpt><trkpt lat="37.3359166" lon="13.6577211"><ele>296.0</ele><time>2026-05-06T13:51:24.371Z</time></trkpt><trkpt lat="37.3358698" lon="13.6577906"><ele>296.0</ele><time>2026-05-06T13:51:26.37Z</time></trkpt><trkpt lat="37.3358066" lon="13.6578645"><ele>296.0</ele><time>2026-05-06T13:51:29.371Z</time></trkpt><trkpt lat="37.3357362" lon="13.6579125"><ele>296.0</ele><time>2026-05-06T13:51:31.37Z</time></trkpt><trkpt lat="37.3356228" lon="13.6579667"><ele>295.83333333333337</ele><time>2026-05-06T13:51:33.37Z</time></trkpt><trkpt lat="37.3355483" lon="13.6579967"><ele>295.6666666666667</ele><time>2026-05-06T13:51:34.37Z</time></trkpt><trkpt lat="37.3354721" lon="13.6580252"><ele>295.5</ele><time>2026-05-06T13:51:35.37Z</time></trkpt><trkpt lat="37.3353893" lon="13.6580552"><ele>295.3333333333333</ele><time>2026-05-06T13:51:36.37Z</time></trkpt><trkpt lat="37.3353037" lon="13.6580762"><ele>295.16666666666663</ele><time>2026-05-06T13:51:37.37Z</time></trkpt><trkpt lat="37.3352119" lon="13.6580845"><ele>295.0</ele><time>2026-05-06T13:51:38.37Z</time></trkpt><trkpt lat="37.335116" lon="13.6580889"><ele>295.0</ele><time>2026-05-06T13:51:39.371Z</time></trkpt><trkpt lat="37.3350056" lon="13.6580908"><ele>295.0</ele><time>2026-05-06T13:51:40.37Z</time></trkpt><trkpt lat="37.3349" lon="13.6580978"><ele>295.0</ele><time>2026-05-06T13:51:41.37Z</time></trkpt><trkpt lat="37.334797" lon="13.6581082"><ele>295.0</ele><time>2026-05-06T13:51:42.37Z</time></trkpt><trkpt lat="37.334707" lon="13.6581257"><ele>295.0</ele><time>2026-05-06T13:51:43.37Z</time></trkpt><trkpt lat="37.3346172" lon="13.6581565"><ele>296.6</ele><time>2026-05-06T13:51:44.37Z</time></trkpt><trkpt lat="37.3345264" lon="13.6582076"><ele>298.2</ele><time>2026-05-06T13:51:45.37Z</time></trkpt><trkpt lat="37.3344299" lon="13.6582775"><ele>299.8</ele><time>2026-05-06T13:51:46.37Z</time></trkpt><trkpt lat="37.33433" lon="13.6583599"><ele>301.4</ele><time>2026-05-06T13:51:47.37Z</time></trkpt><trkpt lat="37.3342387" lon="13.6584384"><ele>303.0</ele><time>2026-05-06T13:51:48.371Z</time></trkpt><trkpt lat="37.3341452" lon="13.6585157"><ele>303.0</ele><time>2026-05-06T13:51:49.371Z</time></trkpt><trkpt lat="37.3340472" lon="13.6585879"><ele>303.0</ele><time>2026-05-06T13:51:50.37Z</time></trkpt><trkpt lat="37.3339441" lon="13.6586466"><ele>303.0</ele><time>2026-05-06T13:51:51.371Z</time></trkpt><trkpt lat="37.3338329" lon="13.6586937"><ele>303.0</ele><time>2026-05-06T13:51:52.37Z</time></trkpt><trkpt lat="37.3337334" lon="13.6587442"><ele>304.0</ele><time>2026-05-06T13:51:53.37Z</time></trkpt><trkpt lat="37.3336241" lon="13.6587854"><ele>305.0</ele><time>2026-05-06T13:51:54.371Z</time></trkpt><trkpt lat="37.3335118" lon="13.6588277"><ele>306.0</ele><time>2026-05-06T13:51:55.37Z</time></trkpt><trkpt lat="37.3333978" lon="13.6588691"><ele>307.0</ele><time>2026-05-06T13:51:56.371Z</time></trkpt><trkpt lat="37.3332866" lon="13.6589088"><ele>307.0</ele><time>2026-05-06T13:51:57.37Z</time></trkpt><trkpt lat="37.3331738" lon="13.6589483"><ele>307.0</ele><time>2026-05-06T13:51:58.37Z</time></trkpt><trkpt lat="37.3330589" lon="13.6589877"><ele>307.0</ele><time>2026-05-06T13:51:59.37Z</time></trkpt><trkpt lat="37.3329443" lon="13.6590281"><ele>307.0</ele><time>2026-05-06T13:52:00.371Z</time></trkpt><trkpt lat="37.3328312" lon="13.6590673"><ele>308.5</ele><time>2026-05-06T13:52:01.371Z</time></trkpt><trkpt lat="37.3327187" lon="13.6591025"><ele>310.0</ele><time>2026-05-06T13:52:02.37Z</time></trkpt><trkpt lat="37.3326068" lon="13.6591392"><ele>311.5</ele><time>2026-05-06T13:52:03.371Z</time></trkpt><trkpt lat="37.3324942" lon="13.6591819"><ele>313.0</ele><time>2026-05-06T13:52:04.37Z</time></trkpt><trkpt lat="37.3323814" lon="13.6592276"><ele>313.0</ele><time>2026-05-06T13:52:05.37Z</time></trkpt><trkpt lat="37.3322654" lon="13.6592759"><ele>313.0</ele><time>2026-05-06T13:52:06.371Z</time></trkpt><trkpt lat="37.3321502" lon="13.659328"><ele>313.0</ele><time>2026-05-06T13:52:07.37Z</time></trkpt><trkpt lat="37.332039" lon="13.6593927"><ele>313.0</ele><time>2026-05-06T13:52:08.371Z</time></trkpt><trkpt lat="37.3319336" lon="13.659473"><ele>315.0</ele><time>2026-05-06T13:52:09.371Z</time></trkpt><trkpt lat="37.3318334" lon="13.6595682"><ele>317.0</ele><time>2026-05-06T13:52:10.37Z</time></trkpt><trkpt lat="37.3317412" lon="13.6596849"><ele>319.0</ele><time>2026-05-06T13:52:11.37Z</time></trkpt><trkpt lat="37.3316509" lon="13.6597902"><ele>321.0</ele><time>2026-05-06T13:52:12.37Z</time></trkpt><trkpt lat="37.3315677" lon="13.6598886"><ele>321.0</ele><time>2026-05-06T13:52:13.37Z</time></trkpt><trkpt lat="37.3314849" lon="13.6599856"><ele>321.0</ele><time>2026-05-06T13:52:14.37Z</time></trkpt><trkpt lat="37.3314061" lon="13.6600791"><ele>321.0</ele><time>2026-05-06T13:52:15.37Z</time></trkpt><trkpt lat="37.3313301" lon="13.6601694"><ele>321.0</ele><time>2026-05-06T13:52:16.37Z</time></trkpt><trkpt lat="37.3312616" lon="13.6602502"><ele>321.0</ele><time>2026-05-06T13:52:17.37Z</time></trkpt><trkpt lat="37.331195" lon="13.6603275"><ele>321.3333333333333</ele><time>2026-05-06T13:52:18.37Z</time></trkpt><trkpt lat="37.3311349" lon="13.6603953"><ele>321.6666666666667</ele><time>2026-05-06T13:52:19.371Z</time></trkpt><trkpt lat="37.3310944" lon="13.6604673"><ele>322.0</ele><time>2026-05-06T13:52:20.37Z</time></trkpt><trkpt lat="37.3311005" lon="13.6606102"><ele>322.33333333333337</ele><time>2026-05-06T13:52:22.37Z</time></trkpt><trkpt lat="37.3311482" lon="13.660665"><ele>322.6666666666667</ele><time>2026-05-06T13:52:23.37Z</time></trkpt><trkpt lat="37.3312225" lon="13.6606974"><ele>323.0</ele><time>2026-05-06T13:52:24.37Z</time></trkpt><trkpt lat="37.331324" lon="13.6607121"><ele>323.0</ele><time>2026-05-06T13:52:25.37Z</time></trkpt><trkpt lat="37.3314504" lon="13.660721"><ele>323.0</ele><time>2026-05-06T13:52:26.37Z</time></trkpt><trkpt lat="37.3315929" lon="13.6607296"><ele>323.0</ele><time>2026-05-06T13:52:27.37Z</time></trkpt><trkpt lat="37.331751" lon="13.6607437"><ele>323.0</ele><time>2026-05-06T13:52:28.371Z</time></trkpt><trkpt lat="37.3319167" lon="13.6607641"><ele>323.0</ele><time>2026-05-06T13:52:29.37Z</time></trkpt><trkpt lat="37.3320806" lon="13.6607951"><ele>323.0</ele><time>2026-05-06T13:52:30.371Z</time></trkpt><trkpt lat="37.3322282" lon="13.6608491"><ele>323.0</ele><time>2026-05-06T13:52:31.37Z</time></trkpt><trkpt lat="37.3323607" lon="13.6609311"><ele>324.6666666666667</ele><time>2026-05-06T13:52:32.37Z</time></trkpt><trkpt lat="37.3324819" lon="13.6610402"><ele>326.3333333333333</ele><time>2026-05-06T13:52:33.371Z</time></trkpt><trkpt lat="37.3325952" lon="13.6611779"><ele>328.0</ele><time>2026-05-06T13:52:34.37Z</time></trkpt><trkpt lat="37.3327117" lon="13.6613275"><ele>328.66666666666663</ele><time>2026-05-06T13:52:35.371Z</time></trkpt><trkpt lat="37.3328312" lon="13.6614833"><ele>329.3333333333333</ele><time>2026-05-06T13:52:36.37Z</time></trkpt><trkpt lat="37.3329538" lon="13.6616392"><ele>330.0</ele><time>2026-05-06T13:52:37.37Z</time></trkpt><trkpt lat="37.3330761" lon="13.661795"><ele>330.25</ele><time>2026-05-06T13:52:38.37Z</time></trkpt><trkpt lat="37.3331879" lon="13.6619346"><ele>330.5</ele><time>2026-05-06T13:52:39.37Z</time></trkpt><trkpt lat="37.3332915" lon="13.6620617"><ele>330.75</ele><time>2026-05-06T13:52:40.37Z</time></trkpt><trkpt lat="37.3333821" lon="13.6621747"><ele>331.0</ele><time>2026-05-06T13:52:41.37Z</time></trkpt><trkpt lat="37.3334696" lon="13.6622957"><ele>330.66666666666663</ele><time>2026-05-06T13:52:42.37Z</time></trkpt><trkpt lat="37.3335527" lon="13.6624394"><ele>330.3333333333333</ele><time>2026-05-06T13:52:43.37Z</time></trkpt><trkpt lat="37.3336306" lon="13.6626011"><ele>330.0</ele><time>2026-05-06T13:52:44.37Z</time></trkpt><trkpt lat="37.333702" lon="13.6627825"><ele>330.0</ele><time>2026-05-06T13:52:45.37Z</time></trkpt><trkpt lat="37.3337684" lon="13.662974"><ele>330.0</ele><time>2026-05-06T13:52:46.37Z</time></trkpt><trkpt lat="37.3338305" lon="13.6631525"><ele>330.0</ele><time>2026-05-06T13:52:47.37Z</time></trkpt><trkpt lat="37.3338902" lon="13.6633216"><ele>329.25</ele><time>2026-05-06T13:52:48.37Z</time></trkpt><trkpt lat="37.3339469" lon="13.6634841"><ele>328.5</ele><time>2026-05-06T13:52:49.37Z</time></trkpt><trkpt lat="37.3340064" lon="13.6636488"><ele>327.75</ele><time>2026-05-06T13:52:50.37Z</time></trkpt><trkpt lat="37.3340651" lon="13.6638219"><ele>327.0</ele><time>2026-05-06T13:52:51.371Z</time></trkpt><trkpt lat="37.3341315" lon="13.6640132"><ele>326.6666666666667</ele><time>2026-05-06T13:52:52.37Z</time></trkpt><trkpt lat="37.3342032" lon="13.6642218"><ele>326.33333333333337</ele><time>2026-05-06T13:52:53.37Z</time></trkpt><trkpt lat="37.334274" lon="13.6644252"><ele>326.0</ele><time>2026-05-06T13:52:54.37Z</time></trkpt><trkpt lat="37.3343446" lon="13.6646228"><ele>325.6666666666667</ele><time>2026-05-06T13:52:55.37Z</time></trkpt><trkpt lat="37.3344218" lon="13.6648379"><ele>325.3333333333333</ele><time>2026-05-06T13:52:56.37Z</time></trkpt><trkpt lat="37.3345056" lon="13.6650701"><ele>325.0</ele><time>2026-05-06T13:52:57.37Z</time></trkpt><trkpt lat="37.3345866" lon="13.6653085"><ele>326.3333333333333</ele><time>2026-05-06T13:52:58.37Z</time></trkpt><trkpt lat="37.3346623" lon="13.665527"><ele>327.6666666666667</ele><time>2026-05-06T13:52:59.37Z</time></trkpt><trkpt lat="37.3347354" lon="13.6657333"><ele>329.0</ele><time>2026-05-06T13:53:00.37Z</time></trkpt><trkpt lat="37.3348056" lon="13.6659278"><ele>327.25</ele><time>2026-05-06T13:53:01.37Z</time></trkpt><trkpt lat="37.3348707" lon="13.6661067"><ele>325.5</ele><time>2026-05-06T13:53:02.37Z</time></trkpt><trkpt lat="37.3349274" lon="13.6662723"><ele>323.75</ele><time>2026-05-06T13:53:03.37Z</time></trkpt><trkpt lat="37.3349721" lon="13.6664293"><ele>322.0</ele><time>2026-05-06T13:53:04.37Z</time></trkpt><trkpt lat="37.3349943" lon="13.6665822"><ele>322.0</ele><time>2026-05-06T13:53:05.37Z</time></trkpt><trkpt lat="37.3349911" lon="13.6667263"><ele>322.0</ele><time>2026-05-06T13:53:06.37Z</time></trkpt><trkpt lat="37.3349634" lon="13.6668691"><ele>322.0</ele><time>2026-05-06T13:53:07.37Z</time></trkpt><trkpt lat="37.334912" lon="13.6670034"><ele>322.0</ele><time>2026-05-06T13:53:08.37Z</time></trkpt><trkpt lat="37.3348349" lon="13.6671239"><ele>321.25</ele><time>2026-05-06T13:53:09.37Z</time></trkpt><trkpt lat="37.3347427" lon="13.6672305"><ele>320.5</ele><time>2026-05-06T13:53:10.37Z</time></trkpt><trkpt lat="37.3346353" lon="13.6673334"><ele>319.75</ele><time>2026-05-06T13:53:11.37Z</time></trkpt><trkpt lat="37.3345219" lon="13.6674374"><ele>319.0</ele><time>2026-05-06T13:53:12.37Z</time></trkpt><trkpt lat="37.3344047" lon="13.6675441"><ele>319.0</ele><time>2026-05-06T13:53:13.37Z</time></trkpt><trkpt lat="37.3342757" lon="13.6676643"><ele>319.0</ele><time>2026-05-06T13:53:14.37Z</time></trkpt><trkpt lat="37.3341354" lon="13.6677913"><ele>319.0</ele><time>2026-05-06T13:53:15.37Z</time></trkpt><trkpt lat="37.3340115" lon="13.6679093"><ele>318.0</ele><time>2026-05-06T13:53:16.37Z</time></trkpt><trkpt lat="37.3338997" lon="13.6680204"><ele>317.0</ele><time>2026-05-06T13:53:17.37Z</time></trkpt><trkpt lat="37.3338116" lon="13.6681364"><ele>316.0</ele><time>2026-05-06T13:53:18.37Z</time></trkpt><trkpt lat="37.3337604" lon="13.6682591"><ele>315.0</ele><time>2026-05-06T13:53:19.37Z</time></trkpt><trkpt lat="37.3337429" lon="13.6683786"><ele>314.6</ele><time>2026-05-06T13:53:20.371Z</time></trkpt><trkpt lat="37.333754" lon="13.6684989"><ele>314.2</ele><time>2026-05-06T13:53:21.37Z</time></trkpt><trkpt lat="37.3337959" lon="13.6686109"><ele>313.8</ele><time>2026-05-06T13:53:22.37Z</time></trkpt><trkpt lat="37.33386" lon="13.6687087"><ele>313.4</ele><time>2026-05-06T13:53:23.37Z</time></trkpt><trkpt lat="37.3339507" lon="13.6687999"><ele>313.0</ele><time>2026-05-06T13:53:24.37Z</time></trkpt><trkpt lat="37.3340665" lon="13.6689035"><ele>313.0</ele><time>2026-05-06T13:53:25.371Z</time></trkpt><trkpt lat="37.3341992" lon="13.6690161"><ele>313.0</ele><time>2026-05-06T13:53:26.37Z</time></trkpt><trkpt lat="37.3343311" lon="13.6691306"><ele>313.0</ele><time>2026-05-06T13:53:27.37Z</time></trkpt><trkpt lat="37.3344541" lon="13.6692413"><ele>313.0</ele><time>2026-05-06T13:53:28.371Z</time></trkpt><trkpt lat="37.3345707" lon="13.6693472"><ele>313.0</ele><time>2026-05-06T13:53:29.37Z</time></trkpt><trkpt lat="37.3346664" lon="13.6694589"><ele>313.0</ele><time>2026-05-06T13:53:30.371Z</time></trkpt><trkpt lat="37.3347459" lon="13.6695891"><ele>313.0</ele><time>2026-05-06T13:53:31.37Z</time></trkpt><trkpt lat="37.3348053" lon="13.6697378"><ele>314.75</ele><time>2026-05-06T13:53:32.37Z</time></trkpt><trkpt lat="37.3348467" lon="13.6699024"><ele>316.5</ele><time>2026-05-06T13:53:33.371Z</time></trkpt><trkpt lat="37.3348832" lon="13.6700769"><ele>318.25</ele><time>2026-05-06T13:53:34.37Z</time></trkpt><trkpt lat="37.3349213" lon="13.6702583"><ele>320.0</ele><time>2026-05-06T13:53:35.37Z</time></trkpt><trkpt lat="37.3349564" lon="13.6704435"><ele>320.5</ele><time>2026-05-06T13:53:36.37Z</time></trkpt><trkpt lat="37.3349915" lon="13.6706272"><ele>321.0</ele><time>2026-05-06T13:53:37.37Z</time></trkpt><trkpt lat="37.3350306" lon="13.6708064"><ele>321.5</ele><time>2026-05-06T13:53:38.37Z</time></trkpt><trkpt lat="37.3350708" lon="13.6709691"><ele>322.0</ele><time>2026-05-06T13:53:39.37Z</time></trkpt><trkpt lat="37.335117" lon="13.6711141"><ele>321.0</ele><time>2026-05-06T13:53:40.37Z</time></trkpt><trkpt lat="37.3351925" lon="13.6712381"><ele>320.0</ele><time>2026-05-06T13:53:41.37Z</time></trkpt><trkpt lat="37.335295" lon="13.6713529"><ele>319.0</ele><time>2026-05-06T13:53:42.371Z</time></trkpt><trkpt lat="37.3354215" lon="13.6714571"><ele>318.0</ele><time>2026-05-06T13:53:43.371Z</time></trkpt><trkpt lat="37.3355576" lon="13.6715533"><ele>318.0</ele><time>2026-05-06T13:53:44.37Z</time></trkpt><trkpt lat="37.3356828" lon="13.6716396"><ele>318.0</ele><time>2026-05-06T13:53:45.37Z</time></trkpt><trkpt lat="37.3357987" lon="13.6717232"><ele>318.0</ele><time>2026-05-06T13:53:46.371Z</time></trkpt><trkpt lat="37.3359054" lon="13.6718032"><ele>318.0</ele><time>2026-05-06T13:53:47.37Z</time></trkpt><trkpt lat="37.3360146" lon="13.6718794"><ele>318.6</ele><time>2026-05-06T13:53:48.37Z</time></trkpt><trkpt lat="37.3361196" lon="13.6719506"><ele>319.20000000000005</ele><time>2026-05-06T13:53:49.37Z</time></trkpt><trkpt lat="37.3362142" lon="13.6720153"><ele>319.8</ele><time>2026-05-06T13:53:50.37Z</time></trkpt><trkpt lat="37.3362936" lon="13.672076"><ele>320.40000000000003</ele><time>2026-05-06T13:53:51.37Z</time></trkpt><trkpt lat="37.3363456" lon="13.6721494"><ele>321.0</ele><time>2026-05-06T13:53:52.37Z</time></trkpt><trkpt lat="37.3363817" lon="13.6722354"><ele>321.6</ele><time>2026-05-06T13:53:53.371Z</time></trkpt><trkpt lat="37.3364166" lon="13.6723213"><ele>322.20000000000005</ele><time>2026-05-06T13:53:54.37Z</time></trkpt><trkpt lat="37.336434" lon="13.6724414"><ele>322.79999999999995</ele><time>2026-05-06T13:53:55.371Z</time></trkpt><trkpt lat="37.3364625" lon="13.6725456"><ele>323.4</ele><time>2026-05-06T13:53:56.37Z</time></trkpt><trkpt lat="37.336501" lon="13.6726499"><ele>324.0</ele><time>2026-05-06T13:53:57.371Z</time></trkpt><trkpt lat="37.336552" lon="13.6727542"><ele>324.3333333333333</ele><time>2026-05-06T13:53:58.37Z</time></trkpt><trkpt lat="37.3365915" lon="13.6728512"><ele>324.6666666666667</ele><time>2026-05-06T13:53:59.371Z</time></trkpt><trkpt lat="37.3366282" lon="13.6729505"><ele>325.0</ele><time>2026-05-06T13:54:00.37Z</time></trkpt><trkpt lat="37.3366642" lon="13.6730541"><ele>325.33333333333337</ele><time>2026-05-06T13:54:01.371Z</time></trkpt><trkpt lat="37.3367026" lon="13.6731443"><ele>325.6666666666667</ele><time>2026-05-06T13:54:02.37Z</time></trkpt><trkpt lat="37.3367366" lon="13.6732226"><ele>326.0</ele><time>2026-05-06T13:54:03.37Z</time></trkpt><trkpt lat="37.3367682" lon="13.6732924"><ele>326.0</ele><time>2026-05-06T13:54:04.37Z</time></trkpt><trkpt lat="37.3368396" lon="13.6734214"><ele>326.0</ele><time>2026-05-06T13:54:06.37Z</time></trkpt><trkpt lat="37.3369133" lon="13.673543"><ele>326.0</ele><time>2026-05-06T13:54:08.37Z</time></trkpt><trkpt lat="37.3369647" lon="13.6736018"><ele>326.0</ele><time>2026-05-06T13:54:09.37Z</time></trkpt><trkpt lat="37.3370103" lon="13.6736564"><ele>326.0</ele><time>2026-05-06T13:54:10.37Z</time></trkpt><trkpt lat="37.337061" lon="13.6737106"><ele>326.0</ele><time>2026-05-06T13:54:11.371Z</time></trkpt><trkpt lat="37.3371124" lon="13.6737603"><ele>325.33333333333337</ele><time>2026-05-06T13:54:12.37Z</time></trkpt><trkpt lat="37.3371643" lon="13.673807"><ele>324.6666666666667</ele><time>2026-05-06T13:54:13.371Z</time></trkpt><trkpt lat="37.3372143" lon="13.6738602"><ele>324.0</ele><time>2026-05-06T13:54:14.37Z</time></trkpt><trkpt lat="37.3372652" lon="13.6739142"><ele>323.3333333333333</ele><time>2026-05-06T13:54:15.371Z</time></trkpt><trkpt lat="37.3373123" lon="13.6739678"><ele>322.66666666666663</ele><time>2026-05-06T13:54:16.37Z</time></trkpt><trkpt lat="37.3374013" lon="13.6740745"><ele>322.0</ele><time>2026-05-06T13:54:18.37Z</time></trkpt><trkpt lat="37.337456" lon="13.6741279"><ele>321.42857142857144</ele><time>2026-05-06T13:54:19.37Z</time></trkpt><trkpt lat="37.3375033" lon="13.6741879"><ele>320.8571428571429</ele><time>2026-05-06T13:54:20.37Z</time></trkpt><trkpt lat="37.3375523" lon="13.6742477"><ele>320.2857142857143</ele><time>2026-05-06T13:54:21.37Z</time></trkpt><trkpt lat="37.3375941" lon="13.6743181"><ele>319.7142857142857</ele><time>2026-05-06T13:54:22.371Z</time></trkpt><trkpt lat="37.3376351" lon="13.6743883"><ele>319.14285714285717</ele><time>2026-05-06T13:54:23.371Z</time></trkpt><trkpt lat="37.3376646" lon="13.6744597"><ele>318.57142857142856</ele><time>2026-05-06T13:54:24.37Z</time></trkpt><trkpt lat="37.3377008" lon="13.6745347"><ele>318.0</ele><time>2026-05-06T13:54:25.369Z</time></trkpt><trkpt lat="37.33773" lon="13.6746093"><ele>316.7142857142857</ele><time>2026-05-06T13:54:26.369Z</time></trkpt><trkpt lat="37.3377593" lon="13.6746871"><ele>315.42857142857144</ele><time>2026-05-06T13:54:27.369Z</time></trkpt><trkpt lat="37.337792" lon="13.6747603"><ele>314.14285714285717</ele><time>2026-05-06T13:54:28.37Z</time></trkpt><trkpt lat="37.3378213" lon="13.6748421"><ele>312.8571428571429</ele><time>2026-05-06T13:54:29.369Z</time></trkpt><trkpt lat="37.3378492" lon="13.6749153"><ele>311.57142857142856</ele><time>2026-05-06T13:54:30.369Z</time></trkpt><trkpt lat="37.3378773" lon="13.6749915"><ele>310.28571428571433</ele><time>2026-05-06T13:54:31.369Z</time></trkpt><trkpt lat="37.337906" lon="13.6750663"><ele>309.0</ele><time>2026-05-06T13:54:32.37Z</time></trkpt><trkpt lat="37.3379643" lon="13.6752059"><ele>307.8333333333333</ele><time>2026-05-06T13:54:34.369Z</time></trkpt><trkpt lat="37.3380287" lon="13.6753433"><ele>306.6666666666667</ele><time>2026-05-06T13:54:36.369Z</time></trkpt><trkpt lat="37.3380581" lon="13.6754183"><ele>305.5</ele><time>2026-05-06T13:54:37.369Z</time></trkpt><trkpt lat="37.3380905" lon="13.6754908"><ele>304.33333333333337</ele><time>2026-05-06T13:54:38.369Z</time></trkpt><trkpt lat="37.3381281" lon="13.6755563"><ele>303.1666666666667</ele><time>2026-05-06T13:54:39.369Z</time></trkpt><trkpt lat="37.3381931" lon="13.6756656"><ele>302.0</ele><time>2026-05-06T13:54:41.369Z</time></trkpt><trkpt lat="37.338249" lon="13.67576"><ele>301.6666666666667</ele><time>2026-05-06T13:54:43.369Z</time></trkpt><trkpt lat="37.338302" lon="13.6758432"><ele>301.33333333333337</ele><time>2026-05-06T13:54:45.369Z</time></trkpt><trkpt lat="37.3383479" lon="13.6759277"><ele>301.0</ele><time>2026-05-06T13:54:47.37Z</time></trkpt><trkpt lat="37.3383947" lon="13.6760189"><ele>300.6666666666667</ele><time>2026-05-06T13:54:49.369Z</time></trkpt><trkpt lat="37.3384395" lon="13.6761036"><ele>300.3333333333333</ele><time>2026-05-06T13:54:51.369Z</time></trkpt><trkpt lat="37.3384784" lon="13.6761849"><ele>300.0</ele><time>2026-05-06T13:54:53.369Z</time></trkpt><trkpt lat="37.3385204" lon="13.67628"><ele>299.0</ele><time>2026-05-06T13:54:55.369Z</time></trkpt><trkpt lat="37.3385621" lon="13.6763754"><ele>298.0</ele><time>2026-05-06T13:54:57.369Z</time></trkpt><trkpt lat="37.3385804" lon="13.6764885"><ele>297.0</ele><time>2026-05-06T13:54:59.369Z</time></trkpt><trkpt lat="37.3386226" lon="13.6765728"><ele>296.0</ele><time>2026-05-06T13:55:01.369Z</time></trkpt><trkpt lat="37.338696" lon="13.6766687"><ele>295.0</ele><time>2026-05-06T13:55:03.37Z</time></trkpt><trkpt lat="37.3387661" lon="13.6768246"><ele>295.0</ele><time>2026-05-06T13:55:05.369Z</time></trkpt><trkpt lat="37.3388043" lon="13.6769233"><ele>295.0</ele><time>2026-05-06T13:55:06.369Z</time></trkpt><trkpt lat="37.3388407" lon="13.6770382"><ele>295.0</ele><time>2026-05-06T13:55:07.369Z</time></trkpt><trkpt lat="37.3388781" lon="13.6771733"><ele>295.0</ele><time>2026-05-06T13:55:08.369Z</time></trkpt><trkpt lat="37.3389103" lon="13.6773231"><ele>295.0</ele><time>2026-05-06T13:55:09.369Z</time></trkpt><trkpt lat="37.3389449" lon="13.6774697"><ele>298.25</ele><time>2026-05-06T13:55:10.369Z</time></trkpt><trkpt lat="37.338998" lon="13.6776323"><ele>301.5</ele><time>2026-05-06T13:55:11.37Z</time></trkpt><trkpt lat="37.3390471" lon="13.6777742"><ele>304.75</ele><time>2026-05-06T13:55:12.37Z</time></trkpt><trkpt lat="37.3390928" lon="13.6779072"><ele>308.0</ele><time>2026-05-06T13:55:13.369Z</time></trkpt><trkpt lat="37.3391409" lon="13.6780382"><ele>308.33333333333337</ele><time>2026-05-06T13:55:14.369Z</time></trkpt><trkpt lat="37.3391669" lon="13.6781291"><ele>308.6666666666667</ele><time>2026-05-06T13:55:15.37Z</time></trkpt><trkpt lat="37.3391845" lon="13.6782225"><ele>309.0</ele><time>2026-05-06T13:55:16.37Z</time></trkpt><trkpt lat="37.3392054" lon="13.678313"><ele>309.3333333333333</ele><time>2026-05-06T13:55:17.369Z</time></trkpt><trkpt lat="37.3392461" lon="13.6783935"><ele>309.66666666666663</ele><time>2026-05-06T13:55:18.37Z</time></trkpt><trkpt lat="37.3392982" lon="13.6784648"><ele>310.0</ele><time>2026-05-06T13:55:19.37Z</time></trkpt><trkpt lat="37.3393522" lon="13.6785225"><ele>310.0</ele><time>2026-05-06T13:55:20.37Z</time></trkpt><trkpt lat="37.3394004" lon="13.6785786"><ele>310.0</ele><time>2026-05-06T13:55:21.369Z</time></trkpt><trkpt lat="37.3394566" lon="13.6786327"><ele>310.0</ele><time>2026-05-06T13:55:22.369Z</time></trkpt><trkpt lat="37.339533" lon="13.678693"><ele>310.0</ele><time>2026-05-06T13:55:24.369Z</time></trkpt><trkpt lat="37.3396346" lon="13.6786549"><ele>310.0</ele><time>2026-05-06T13:55:26.369Z</time></trkpt><trkpt lat="37.339697" lon="13.6786383"><ele>310.0</ele><time>2026-05-06T13:55:27.37Z</time></trkpt><trkpt lat="37.3397611" lon="13.6786323"><ele>311.2</ele><time>2026-05-06T13:55:28.369Z</time></trkpt><trkpt lat="37.3398258" lon="13.6786318"><ele>312.4</ele><time>2026-05-06T13:55:29.369Z</time></trkpt><trkpt lat="37.3398907" lon="13.6786326"><ele>313.6</ele><time>2026-05-06T13:55:30.371Z</time></trkpt><trkpt lat="37.3400129" lon="13.6786288"><ele>314.8</ele><time>2026-05-06T13:55:32.37Z</time></trkpt><trkpt lat="37.3401302" lon="13.6785907"><ele>316.0</ele><time>2026-05-06T13:55:34.369Z</time></trkpt><trkpt lat="37.3402224" lon="13.6785202"><ele>316.16666666666663</ele><time>2026-05-06T13:55:36.369Z</time></trkpt><trkpt lat="37.3402556" lon="13.6784203"><ele>316.3333333333333</ele><time>2026-05-06T13:55:38.37Z</time></trkpt><trkpt lat="37.3402576" lon="13.6783144"><ele>316.5</ele><time>2026-05-06T13:55:40.369Z</time></trkpt><trkpt lat="37.3402304" lon="13.6781985"><ele>316.6666666666667</ele><time>2026-05-06T13:55:42.37Z</time></trkpt><trkpt lat="37.340207" lon="13.6781241"><ele>316.83333333333337</ele><time>2026-05-06T13:55:43.369Z</time></trkpt><trkpt lat="37.340179" lon="13.6780012"><ele>317.0</ele><time>2026-05-06T13:55:45.369Z</time></trkpt><trkpt lat="37.3401329" lon="13.6779028"><ele>317.0</ele><time>2026-05-06T13:55:47.369Z</time></trkpt><trkpt lat="37.3400781" lon="13.677821"><ele>317.0</ele><time>2026-05-06T13:55:49.37Z</time></trkpt><trkpt lat="37.3400106" lon="13.677741"><ele>317.0</ele><time>2026-05-06T13:55:51.369Z</time></trkpt><trkpt lat="37.3399582" lon="13.6776889"><ele>317.0</ele><time>2026-05-06T13:55:53.37Z</time></trkpt><trkpt lat="37.3400124" lon="13.6777491"><ele>317.0</ele><time>2026-05-06T13:56:00.369Z</time></trkpt><trkpt lat="37.3400649" lon="13.6778047"><ele>317.0</ele><time>2026-05-06T13:56:01.369Z</time></trkpt><trkpt lat="37.3401125" lon="13.677868"><ele>317.0</ele><time>2026-05-06T13:56:02.369Z</time></trkpt><trkpt lat="37.3401812" lon="13.6779702"><ele>317.0</ele><time>2026-05-06T13:56:04.369Z</time></trkpt><trkpt lat="37.3402042" lon="13.6780767"><ele>317.0</ele><time>2026-05-06T13:56:06.369Z</time></trkpt><trkpt lat="37.3402288" lon="13.6781833"><ele>317.0</ele><time>2026-05-06T13:56:08.369Z</time></trkpt><trkpt lat="37.3402283" lon="13.6782902"><ele>317.0</ele><time>2026-05-06T13:56:10.369Z</time></trkpt><trkpt lat="37.3402383" lon="13.6781557"><ele>317.0</ele><time>2026-05-06T13:56:16.369Z</time></trkpt><trkpt lat="37.3402036" lon="13.6780581"><ele>317.0</ele><time>2026-05-06T13:56:18.369Z</time></trkpt><trkpt lat="37.3401691" lon="13.6779692"><ele>317.0</ele><time>2026-05-06T13:56:20.369Z</time></trkpt><trkpt lat="37.3401217" lon="13.6778802"><ele>317.0</ele><time>2026-05-06T13:56:22.37Z</time></trkpt><trkpt lat="37.3400648" lon="13.6778093"><ele>317.0</ele><time>2026-05-06T13:56:24.371Z</time></trkpt><trkpt lat="37.3400018" lon="13.6777453"><ele>317.0</ele><time>2026-05-06T13:56:26.369Z</time></trkpt><trkpt lat="37.3399472" lon="13.6776685"><ele>317.0</ele><time>2026-05-06T13:56:29.369Z</time></trkpt><trkpt lat="37.340026" lon="13.6777617"><ele>317.0</ele><time>2026-05-06T13:56:35.369Z</time></trkpt><trkpt lat="37.3400985" lon="13.67785"><ele>317.0</ele><time>2026-05-06T13:56:37.369Z</time></trkpt><trkpt lat="37.3401691" lon="13.6779535"><ele>317.0</ele><time>2026-05-06T13:56:39.37Z</time></trkpt><trkpt lat="37.3401813" lon="13.6780392"><ele>317.0</ele><time>2026-05-06T13:56:41.37Z</time></trkpt><trkpt lat="37.3401925" lon="13.6781407"><ele>317.0</ele><time>2026-05-06T13:56:44.369Z</time></trkpt><trkpt lat="37.3402118" lon="13.6780493"><ele>317.0</ele><time>2026-05-06T13:56:49.369Z</time></trkpt><trkpt lat="37.3401751" lon="13.6779753"><ele>317.0</ele><time>2026-05-06T13:56:53.369Z</time></trkpt><trkpt lat="37.3401266" lon="13.677902"><ele>317.0</ele><time>2026-05-06T14:03:29.369Z</time></trkpt><trkpt lat="37.3400882" lon="13.6778251"><ele>317.0</ele><time>2026-05-06T14:03:32.369Z</time></trkpt><trkpt lat="37.3400303" lon="13.6777658"><ele>317.0</ele><time>2026-05-06T14:03:34.369Z</time></trkpt><trkpt lat="37.339959" lon="13.6777301"><ele>317.0</ele><time>2026-05-06T14:03:36.369Z</time></trkpt><trkpt lat="37.3398863" lon="13.6777046"><ele>316.6666666666667</ele><time>2026-05-06T14:03:38.368Z</time></trkpt><trkpt lat="37.3398092" lon="13.6776512"><ele>316.33333333333337</ele><time>2026-05-06T14:03:41.37Z</time></trkpt><trkpt lat="37.3397478" lon="13.6775962"><ele>316.0</ele><time>2026-05-06T14:03:44.369Z</time></trkpt><trkpt lat="37.3397925" lon="13.6776662"><ele>315.6666666666667</ele><time>2026-05-06T14:03:48.369Z</time></trkpt><trkpt lat="37.3398984" lon="13.6776871"><ele>315.3333333333333</ele><time>2026-05-06T14:03:50.369Z</time></trkpt><trkpt lat="37.339961" lon="13.6777147"><ele>315.0</ele><time>2026-05-06T14:03:51.369Z</time></trkpt><trkpt lat="37.3400206" lon="13.6777519"><ele>315.4</ele><time>2026-05-06T14:03:52.37Z</time></trkpt><trkpt lat="37.3401096" lon="13.6778631"><ele>315.8</ele><time>2026-05-06T14:03:54.37Z</time></trkpt><trkpt lat="37.3401579" lon="13.6779317"><ele>316.2</ele><time>2026-05-06T14:03:55.368Z</time></trkpt><trkpt lat="37.3401837" lon="13.6780281"><ele>316.6</ele><time>2026-05-06T14:03:58.368Z</time></trkpt><trkpt lat="37.3402204" lon="13.6781468"><ele>317.0</ele><time>2026-05-06T14:04:01.369Z</time></trkpt><trkpt lat="37.3402578" lon="13.6782726"><ele>317.0</ele><time>2026-05-06T14:04:03.37Z</time></trkpt><trkpt lat="37.3402668" lon="13.678381"><ele>317.0</ele><time>2026-05-06T14:04:05.369Z</time></trkpt><trkpt lat="37.3402507" lon="13.6784824"><ele>317.0</ele><time>2026-05-06T14:04:19.369Z</time></trkpt><trkpt lat="37.340194" lon="13.6785559"><ele>317.0</ele><time>2026-05-06T14:04:21.369Z</time></trkpt><trkpt lat="37.3401177" lon="13.6786003"><ele>317.0</ele><time>2026-05-06T14:04:23.368Z</time></trkpt><trkpt lat="37.3400247" lon="13.6786262"><ele>317.0</ele><time>2026-05-06T14:04:25.37Z</time></trkpt><trkpt lat="37.3399331" lon="13.6786277"><ele>316.83333333333337</ele><time>2026-05-06T14:04:27.369Z</time></trkpt><trkpt lat="37.3398445" lon="13.6786329"><ele>316.6666666666667</ele><time>2026-05-06T14:04:29.37Z</time></trkpt><trkpt lat="37.3397619" lon="13.6786459"><ele>316.5</ele><time>2026-05-06T14:04:31.369Z</time></trkpt><trkpt lat="37.3396681" lon="13.6786555"><ele>316.3333333333333</ele><time>2026-05-06T14:04:33.369Z</time></trkpt><trkpt lat="37.3395882" lon="13.6786967"><ele>316.16666666666663</ele><time>2026-05-06T14:04:35.369Z</time></trkpt><trkpt lat="37.3395877" lon="13.6787948"><ele>316.0</ele><time>2026-05-06T14:04:38.369Z</time></trkpt><trkpt lat="37.339627" lon="13.6788904"><ele>316.0</ele><time>2026-05-06T14:04:40.368Z</time></trkpt><trkpt lat="37.3396555" lon="13.6789805"><ele>316.0</ele><time>2026-05-06T14:04:41.368Z</time></trkpt><trkpt lat="37.3396865" lon="13.6790847"><ele>316.0</ele><time>2026-05-06T14:04:42.369Z</time></trkpt><trkpt lat="37.3397286" lon="13.6792101"><ele>316.0</ele><time>2026-05-06T14:04:43.368Z</time></trkpt><trkpt lat="37.3397767" lon="13.6793478"><ele>316.0</ele><time>2026-05-06T14:04:44.368Z</time></trkpt><trkpt lat="37.3398185" lon="13.6795029"><ele>316.25</ele><time>2026-05-06T14:04:45.368Z</time></trkpt><trkpt lat="37.3398608" lon="13.6796507"><ele>316.5</ele><time>2026-05-06T14:04:46.369Z</time></trkpt><trkpt lat="37.3398998" lon="13.6798067"><ele>316.75</ele><time>2026-05-06T14:04:47.368Z</time></trkpt><trkpt lat="37.3399458" lon="13.6799789"><ele>317.0</ele><time>2026-05-06T14:04:48.37Z</time></trkpt><trkpt lat="37.3399817" lon="13.6801346"><ele>317.6</ele><time>2026-05-06T14:04:49.369Z</time></trkpt><trkpt lat="37.3400147" lon="13.6802798"><ele>318.2</ele><time>2026-05-06T14:04:50.369Z</time></trkpt><trkpt lat="37.3400385" lon="13.6804074"><ele>318.8</ele><time>2026-05-06T14:04:51.369Z</time></trkpt><trkpt lat="37.3400668" lon="13.6805219"><ele>319.4</ele><time>2026-05-06T14:04:52.369Z</time></trkpt><trkpt lat="37.3400861" lon="13.680612"><ele>320.0</ele><time>2026-05-06T14:04:53.37Z</time></trkpt><trkpt lat="37.3401075" lon="13.6806969"><ele>320.0</ele><time>2026-05-06T14:04:54.368Z</time></trkpt><trkpt lat="37.3401154" lon="13.6807897"><ele>320.0</ele><time>2026-05-06T14:04:55.368Z</time></trkpt><trkpt lat="37.3401266" lon="13.6808727"><ele>320.0</ele><time>2026-05-06T14:04:56.368Z</time></trkpt><trkpt lat="37.3401315" lon="13.6809527"><ele>320.0</ele><time>2026-05-06T14:04:57.368Z</time></trkpt><trkpt lat="37.3401376" lon="13.6811018"><ele>320.0</ele><time>2026-05-06T14:04:59.369Z</time></trkpt><trkpt lat="37.3401454" lon="13.6812334"><ele>320.0</ele><time>2026-05-06T14:05:01.369Z</time></trkpt><trkpt lat="37.3401611" lon="13.6813442"><ele>320.1666666666667</ele><time>2026-05-06T14:05:03.369Z</time></trkpt><trkpt lat="37.3401787" lon="13.681428"><ele>320.33333333333337</ele><time>2026-05-06T14:05:05.368Z</time></trkpt><trkpt lat="37.3401838" lon="13.6815291"><ele>320.5</ele><time>2026-05-06T14:06:48.368Z</time></trkpt><trkpt lat="37.3402065" lon="13.6816367"><ele>320.6666666666667</ele><time>2026-05-06T14:06:50.368Z</time></trkpt><trkpt lat="37.3402456" lon="13.6817689"><ele>320.8333333333333</ele><time>2026-05-06T14:06:52.369Z</time></trkpt><trkpt lat="37.340266" lon="13.6818483"><ele>321.0</ele><time>2026-05-06T14:06:53.368Z</time></trkpt><trkpt lat="37.3402916" lon="13.6819567"><ele>321.3333333333333</ele><time>2026-05-06T14:06:54.369Z</time></trkpt><trkpt lat="37.3403092" lon="13.6820573"><ele>321.6666666666667</ele><time>2026-05-06T14:06:55.37Z</time></trkpt><trkpt lat="37.3403226" lon="13.6821504"><ele>322.0</ele><time>2026-05-06T14:06:56.369Z</time></trkpt><trkpt lat="37.3403357" lon="13.6822545"><ele>322.33333333333337</ele><time>2026-05-06T14:06:57.368Z</time></trkpt><trkpt lat="37.3403483" lon="13.682351"><ele>322.6666666666667</ele><time>2026-05-06T14:06:58.369Z</time></trkpt><trkpt lat="37.3403509" lon="13.6824872"><ele>323.0</ele><time>2026-05-06T14:07:00.368Z</time></trkpt><trkpt lat="37.3403394" lon="13.6825823"><ele>323.0</ele><time>2026-05-06T14:07:02.368Z</time></trkpt><trkpt lat="37.3403563" lon="13.6826669"><ele>323.0</ele><time>2026-05-06T14:07:05.369Z</time></trkpt><trkpt lat="37.3403842" lon="13.6825712"><ele>323.0</ele><time>2026-05-06T14:07:08.369Z</time></trkpt><trkpt lat="37.3403513" lon="13.682452"><ele>323.0</ele><time>2026-05-06T14:07:10.368Z</time></trkpt><trkpt lat="37.3403351" lon="13.6823358"><ele>323.0</ele><time>2026-05-06T14:07:12.368Z</time></trkpt><trkpt lat="37.3403258" lon="13.6822044"><ele>323.0</ele><time>2026-05-06T14:07:14.368Z</time></trkpt><trkpt lat="37.3403087" lon="13.6821238"><ele>323.0</ele><time>2026-05-06T14:07:15.37Z</time></trkpt><trkpt lat="37.3402947" lon="13.6820462"><ele>323.0</ele><time>2026-05-06T14:07:16.37Z</time></trkpt><trkpt lat="37.3402744" lon="13.6819196"><ele>323.0</ele><time>2026-05-06T14:07:18.37Z</time></trkpt><trkpt lat="37.3402536" lon="13.6818041"><ele>323.0</ele><time>2026-05-06T14:07:20.368Z</time></trkpt><trkpt lat="37.3402131" lon="13.6816324"><ele>323.0</ele><time>2026-05-06T14:07:22.368Z</time></trkpt><trkpt lat="37.3401892" lon="13.6815068"><ele>322.59999999999997</ele><time>2026-05-06T14:07:23.369Z</time></trkpt><trkpt lat="37.3401732" lon="13.681387"><ele>322.2</ele><time>2026-05-06T14:07:24.368Z</time></trkpt><trkpt lat="37.3401525" lon="13.6812553"><ele>321.8</ele><time>2026-05-06T14:07:25.37Z</time></trkpt><trkpt lat="37.3401427" lon="13.6811252"><ele>321.4</ele><time>2026-05-06T14:07:26.369Z</time></trkpt><trkpt lat="37.3401285" lon="13.6810104"><ele>321.0</ele><time>2026-05-06T14:07:27.368Z</time></trkpt><trkpt lat="37.3401079" lon="13.6808989"><ele>320.8333333333333</ele><time>2026-05-06T14:07:28.368Z</time></trkpt><trkpt lat="37.3400891" lon="13.6807956"><ele>320.6666666666667</ele><time>2026-05-06T14:07:29.368Z</time></trkpt><trkpt lat="37.3400746" lon="13.6807059"><ele>320.5</ele><time>2026-05-06T14:07:30.369Z</time></trkpt><trkpt lat="37.3400603" lon="13.6805873"><ele>320.33333333333337</ele><time>2026-05-06T14:07:31.368Z</time></trkpt><trkpt lat="37.3400427" lon="13.680463"><ele>320.1666666666667</ele><time>2026-05-06T14:07:32.368Z</time></trkpt><trkpt lat="37.3400216" lon="13.680347"><ele>320.0</ele><time>2026-05-06T14:07:33.368Z</time></trkpt><trkpt lat="37.3399959" lon="13.680236"><ele>319.5</ele><time>2026-05-06T14:07:34.368Z</time></trkpt><trkpt lat="37.3399698" lon="13.680134"><ele>319.0</ele><time>2026-05-06T14:07:35.369Z</time></trkpt><trkpt lat="37.339952" lon="13.6800392"><ele>318.5</ele><time>2026-05-06T14:07:36.368Z</time></trkpt><trkpt lat="37.3399236" lon="13.6799445"><ele>318.0</ele><time>2026-05-06T14:07:37.369Z</time></trkpt><trkpt lat="37.3399007" lon="13.6798573"><ele>317.5</ele><time>2026-05-06T14:07:38.368Z</time></trkpt><trkpt lat="37.3398777" lon="13.6797675"><ele>317.0</ele><time>2026-05-06T14:07:39.368Z</time></trkpt><trkpt lat="37.3398571" lon="13.6796822"><ele>317.0</ele><time>2026-05-06T14:07:40.368Z</time></trkpt><trkpt lat="37.3398373" lon="13.679597"><ele>317.0</ele><time>2026-05-06T14:07:41.368Z</time></trkpt><trkpt lat="37.3398227" lon="13.6795197"><ele>317.0</ele><time>2026-05-06T14:07:42.368Z</time></trkpt><trkpt lat="37.3398008" lon="13.6794432"><ele>317.0</ele><time>2026-05-06T14:07:43.369Z</time></trkpt><trkpt lat="37.339763" lon="13.679319"><ele>317.0</ele><time>2026-05-06T14:07:45.368Z</time></trkpt><trkpt lat="37.3397217" lon="13.6792105"><ele>317.0</ele><time>2026-05-06T14:07:47.368Z</time></trkpt><trkpt lat="37.3396837" lon="13.6790936"><ele>316.83333333333337</ele><time>2026-05-06T14:07:49.368Z</time></trkpt><trkpt lat="37.3396476" lon="13.6789695"><ele>316.6666666666667</ele><time>2026-05-06T14:07:51.368Z</time></trkpt><trkpt lat="37.3396048" lon="13.6788632"><ele>316.5</ele><time>2026-05-06T14:07:53.368Z</time></trkpt><trkpt lat="37.3395789" lon="13.6787733"><ele>316.3333333333333</ele><time>2026-05-06T14:07:55.368Z</time></trkpt><trkpt lat="37.3395998" lon="13.678691"><ele>316.16666666666663</ele><time>2026-05-06T14:07:57.368Z</time></trkpt><trkpt lat="37.3396841" lon="13.6786583"><ele>316.0</ele><time>2026-05-06T14:07:59.368Z</time></trkpt><trkpt lat="37.339785" lon="13.67865"><ele>316.0</ele><time>2026-05-06T14:08:01.369Z</time></trkpt><trkpt lat="37.3398816" lon="13.6786393"><ele>316.0</ele><time>2026-05-06T14:08:03.369Z</time></trkpt><trkpt lat="37.3399749" lon="13.6786476"><ele>316.0</ele><time>2026-05-06T14:08:05.368Z</time></trkpt><trkpt lat="37.3400745" lon="13.6786392"><ele>316.0</ele><time>2026-05-06T14:08:07.368Z</time></trkpt><trkpt lat="37.3401658" lon="13.6785883"><ele>316.0</ele><time>2026-05-06T14:08:09.369Z</time></trkpt><trkpt lat="37.3402311" lon="13.6785023"><ele>316.16666666666663</ele><time>2026-05-06T14:08:11.368Z</time></trkpt><trkpt lat="37.3402562" lon="13.6783923"><ele>316.3333333333333</ele><time>2026-05-06T14:08:13.368Z</time></trkpt><trkpt lat="37.3402456" lon="13.678284"><ele>316.5</ele><time>2026-05-06T14:08:15.369Z</time></trkpt><trkpt lat="37.3402139" lon="13.6781623"><ele>316.6666666666667</ele><time>2026-05-06T14:08:17.368Z</time></trkpt><trkpt lat="37.3401802" lon="13.6780797"><ele>316.83333333333337</ele><time>2026-05-06T14:08:19.368Z</time></trkpt><trkpt lat="37.3401633" lon="13.6779976"><ele>317.0</ele><time>2026-05-06T14:15:32.367Z</time></trkpt><trkpt lat="37.3401404" lon="13.6779164"><ele>317.0</ele><time>2026-05-06T14:22:36.366Z</time></trkpt><trkpt lat="37.340157" lon="13.678023"><ele>317.0</ele><time>2026-05-06T14:22:40.366Z</time></trkpt><trkpt lat="37.3402197" lon="13.6781126"><ele>317.0</ele><time>2026-05-06T14:22:42.367Z</time></trkpt><trkpt lat="37.3402609" lon="13.6782412"><ele>317.0</ele><time>2026-05-06T14:22:44.367Z</time></trkpt><trkpt lat="37.3402747" lon="13.6783655"><ele>317.0</ele><time>2026-05-06T14:22:46.367Z</time></trkpt><trkpt lat="37.3402633" lon="13.6784875"><ele>317.0</ele><time>2026-05-06T14:22:48.367Z</time></trkpt><trkpt lat="37.3402105" lon="13.6785684"><ele>317.0</ele><time>2026-05-06T14:22:50.367Z</time></trkpt><trkpt lat="37.3401343" lon="13.6786108"><ele>317.0</ele><time>2026-05-06T14:22:52.366Z</time></trkpt><trkpt lat="37.3400431" lon="13.6786411"><ele>317.0</ele><time>2026-05-06T14:22:54.367Z</time></trkpt><trkpt lat="37.3399388" lon="13.6786474"><ele>317.0</ele><time>2026-05-06T14:22:56.367Z</time></trkpt><trkpt lat="37.3398315" lon="13.6786445"><ele>316.83333333333337</ele><time>2026-05-06T14:22:58.366Z</time></trkpt><trkpt lat="37.3397184" lon="13.6786613"><ele>316.6666666666667</ele><time>2026-05-06T14:23:00.367Z</time></trkpt><trkpt lat="37.3396283" lon="13.6786881"><ele>316.5</ele><time>2026-05-06T14:23:02.366Z</time></trkpt><trkpt lat="37.3395567" lon="13.678747"><ele>316.3333333333333</ele><time>2026-05-06T14:25:35.366Z</time></trkpt><trkpt lat="37.3394916" lon="13.6786814"><ele>316.16666666666663</ele><time>2026-05-06T14:25:38.366Z</time></trkpt><trkpt lat="37.3394404" lon="13.6786183"><ele>316.0</ele><time>2026-05-06T14:25:40.366Z</time></trkpt><trkpt lat="37.3393705" lon="13.6785657"><ele>315.0</ele><time>2026-05-06T14:25:42.365Z</time></trkpt><trkpt lat="37.3393079" lon="13.6784991"><ele>314.0</ele><time>2026-05-06T14:25:44.365Z</time></trkpt><trkpt lat="37.3392576" lon="13.6784026"><ele>313.0</ele><time>2026-05-06T14:25:46.366Z</time></trkpt><trkpt lat="37.3392116" lon="13.6783118"><ele>312.0</ele><time>2026-05-06T14:25:48.366Z</time></trkpt><trkpt lat="37.3391926" lon="13.6782168"><ele>311.0</ele><time>2026-05-06T14:25:50.366Z</time></trkpt><trkpt lat="37.339172" lon="13.6780994"><ele>310.0</ele><time>2026-05-06T14:25:52.366Z</time></trkpt><trkpt lat="37.3391399" lon="13.678"><ele>310.0</ele><time>2026-05-06T14:25:53.365Z</time></trkpt><trkpt lat="37.3390985" lon="13.6778768"><ele>310.0</ele><time>2026-05-06T14:25:54.366Z</time></trkpt><trkpt lat="37.3390645" lon="13.6777678"><ele>310.0</ele><time>2026-05-06T14:25:55.366Z</time></trkpt><trkpt lat="37.3390264" lon="13.6776613"><ele>310.0</ele><time>2026-05-06T14:25:56.366Z</time></trkpt><trkpt lat="37.3389898" lon="13.6775703"><ele>310.0</ele><time>2026-05-06T14:25:57.367Z</time></trkpt><trkpt lat="37.3389639" lon="13.6774658"><ele>309.66666666666663</ele><time>2026-05-06T14:25:58.366Z</time></trkpt><trkpt lat="37.3389358" lon="13.6773545"><ele>309.3333333333333</ele><time>2026-05-06T14:25:59.366Z</time></trkpt><trkpt lat="37.3389046" lon="13.6772501"><ele>309.0</ele><time>2026-05-06T14:26:00.365Z</time></trkpt><trkpt lat="37.3388829" lon="13.6771563"><ele>308.6666666666667</ele><time>2026-05-06T14:26:01.366Z</time></trkpt><trkpt lat="37.3388604" lon="13.6770795"><ele>308.33333333333337</ele><time>2026-05-06T14:26:02.366Z</time></trkpt><trkpt lat="37.3388392" lon="13.6770046"><ele>308.0</ele><time>2026-05-06T14:26:03.367Z</time></trkpt><trkpt lat="37.3388001" lon="13.6768636"><ele>305.4</ele><time>2026-05-06T14:26:05.366Z</time></trkpt><trkpt lat="37.3387418" lon="13.6767344"><ele>302.8</ele><time>2026-05-06T14:26:07.366Z</time></trkpt><trkpt lat="37.3387042" lon="13.6766586"><ele>300.2</ele><time>2026-05-06T14:26:08.366Z</time></trkpt><trkpt lat="37.3386573" lon="13.6765689"><ele>297.6</ele><time>2026-05-06T14:26:09.365Z</time></trkpt><trkpt lat="37.3386085" lon="13.6764551"><ele>295.0</ele><time>2026-05-06T14:26:10.365Z</time></trkpt><trkpt lat="37.3385453" lon="13.6763123"><ele>295.0</ele><time>2026-05-06T14:26:11.365Z</time></trkpt><trkpt lat="37.338474" lon="13.676163"><ele>295.0</ele><time>2026-05-06T14:26:12.366Z</time></trkpt><trkpt lat="37.338403" lon="13.6760159"><ele>295.0</ele><time>2026-05-06T14:26:13.366Z</time></trkpt><trkpt lat="37.3383305" lon="13.6758717"><ele>295.0</ele><time>2026-05-06T14:26:14.366Z</time></trkpt><trkpt lat="37.338261" lon="13.6757504"><ele>296.25</ele><time>2026-05-06T14:26:15.366Z</time></trkpt><trkpt lat="37.3381903" lon="13.6756279"><ele>297.5</ele><time>2026-05-06T14:26:16.368Z</time></trkpt><trkpt lat="37.338117" lon="13.6755083"><ele>298.75</ele><time>2026-05-06T14:26:17.366Z</time></trkpt><trkpt lat="37.3380635" lon="13.6753847"><ele>300.0</ele><time>2026-05-06T14:26:18.366Z</time></trkpt><trkpt lat="37.338007" lon="13.6752527"><ele>302.25</ele><time>2026-05-06T14:26:19.365Z</time></trkpt><trkpt lat="37.3379546" lon="13.675113"><ele>304.5</ele><time>2026-05-06T14:26:20.366Z</time></trkpt><trkpt lat="37.3379057" lon="13.6749753"><ele>306.75</ele><time>2026-05-06T14:26:21.366Z</time></trkpt><trkpt lat="37.3378558" lon="13.6748393"><ele>309.0</ele><time>2026-05-06T14:26:22.365Z</time></trkpt><trkpt lat="37.33781" lon="13.6747064"><ele>309.0</ele><time>2026-05-06T14:26:23.365Z</time></trkpt><trkpt lat="37.3377639" lon="13.6745808"><ele>309.0</ele><time>2026-05-06T14:26:24.368Z</time></trkpt><trkpt lat="37.3377038" lon="13.6744688"><ele>309.0</ele><time>2026-05-06T14:26:25.365Z</time></trkpt><trkpt lat="37.3376397" lon="13.6743525"><ele>309.0</ele><time>2026-05-06T14:26:26.366Z</time></trkpt><trkpt lat="37.3375775" lon="13.6742634"><ele>309.0</ele><time>2026-05-06T14:26:27.365Z</time></trkpt><trkpt lat="37.3375057" lon="13.6741694"><ele>310.8</ele><time>2026-05-06T14:26:28.366Z</time></trkpt><trkpt lat="37.337434" lon="13.6740863"><ele>312.59999999999997</ele><time>2026-05-06T14:26:29.366Z</time></trkpt><trkpt lat="37.3373533" lon="13.6740042"><ele>314.4</ele><time>2026-05-06T14:26:30.366Z</time></trkpt><trkpt lat="37.3372716" lon="13.6739138"><ele>316.2</ele><time>2026-05-06T14:26:31.366Z</time></trkpt><trkpt lat="37.3371791" lon="13.6738202"><ele>318.0</ele><time>2026-05-06T14:26:32.365Z</time></trkpt><trkpt lat="37.3370943" lon="13.6737203"><ele>318.8</ele><time>2026-05-06T14:26:33.367Z</time></trkpt><trkpt lat="37.3370107" lon="13.6736242"><ele>319.6</ele><time>2026-05-06T14:26:34.366Z</time></trkpt><trkpt lat="37.3369436" lon="13.6735313"><ele>320.40000000000003</ele><time>2026-05-06T14:26:35.366Z</time></trkpt><trkpt lat="37.3368855" lon="13.6734385"><ele>321.20000000000005</ele><time>2026-05-06T14:26:36.367Z</time></trkpt><trkpt lat="37.3368238" lon="13.6733446"><ele>322.0</ele><time>2026-05-06T14:26:37.366Z</time></trkpt><trkpt lat="37.3367799" lon="13.6732558"><ele>322.2857142857143</ele><time>2026-05-06T14:26:38.366Z</time></trkpt><trkpt lat="37.3367417" lon="13.6731688"><ele>322.57142857142856</ele><time>2026-05-06T14:26:39.366Z</time></trkpt><trkpt lat="37.3367083" lon="13.6730863"><ele>322.8571428571429</ele><time>2026-05-06T14:26:40.367Z</time></trkpt><trkpt lat="37.336673" lon="13.6730132"><ele>323.1428571428571</ele><time>2026-05-06T14:26:41.366Z</time></trkpt><trkpt lat="37.3366424" lon="13.6729317"><ele>323.42857142857144</ele><time>2026-05-06T14:26:42.366Z</time></trkpt><trkpt lat="37.3366141" lon="13.6728489"><ele>323.7142857142857</ele><time>2026-05-06T14:26:43.365Z</time></trkpt><trkpt lat="37.336584" lon="13.6727661"><ele>324.0</ele><time>2026-05-06T14:26:44.366Z</time></trkpt><trkpt lat="37.3365482" lon="13.6726851"><ele>324.0</ele><time>2026-05-06T14:26:45.366Z</time></trkpt><trkpt lat="37.3365128" lon="13.6726032"><ele>324.0</ele><time>2026-05-06T14:26:46.366Z</time></trkpt><trkpt lat="37.3364815" lon="13.6725224"><ele>324.0</ele><time>2026-05-06T14:26:47.365Z</time></trkpt><trkpt lat="37.3364613" lon="13.6724361"><ele>324.0</ele><time>2026-05-06T14:26:48.367Z</time></trkpt><trkpt lat="37.3364355" lon="13.6723567"><ele>324.0</ele><time>2026-05-06T14:26:49.366Z</time></trkpt><trkpt lat="37.3364116" lon="13.6722341"><ele>324.0</ele><time>2026-05-06T14:26:51.366Z</time></trkpt><trkpt lat="37.3363772" lon="13.6721513"><ele>323.25</ele><time>2026-05-06T14:26:54.365Z</time></trkpt><trkpt lat="37.336295" lon="13.6720556"><ele>322.5</ele><time>2026-05-06T14:26:56.366Z</time></trkpt><trkpt lat="37.3362158" lon="13.6719965"><ele>321.75</ele><time>2026-05-06T14:26:57.365Z</time></trkpt><trkpt lat="37.3361125" lon="13.6719164"><ele>321.0</ele><time>2026-05-06T14:26:58.365Z</time></trkpt><trkpt lat="37.3359946" lon="13.6718303"><ele>320.0</ele><time>2026-05-06T14:26:59.366Z</time></trkpt><trkpt lat="37.335862" lon="13.6717324"><ele>319.0</ele><time>2026-05-06T14:27:00.367Z</time></trkpt><trkpt lat="37.3357134" lon="13.6716237"><ele>318.0</ele><time>2026-05-06T14:27:01.365Z</time></trkpt><trkpt lat="37.3355712" lon="13.6715238"><ele>317.25</ele><time>2026-05-06T14:27:02.367Z</time></trkpt><trkpt lat="37.3354431" lon="13.6714317"><ele>316.5</ele><time>2026-05-06T14:27:03.366Z</time></trkpt><trkpt lat="37.3353359" lon="13.6713433"><ele>315.75</ele><time>2026-05-06T14:27:04.366Z</time></trkpt><trkpt lat="37.3352474" lon="13.6712455"><ele>315.0</ele><time>2026-05-06T14:27:05.366Z</time></trkpt><trkpt lat="37.3351748" lon="13.6711306"><ele>316.75</ele><time>2026-05-06T14:27:06.366Z</time></trkpt><trkpt lat="37.335114" lon="13.6710024"><ele>318.5</ele><time>2026-05-06T14:27:07.366Z</time></trkpt><trkpt lat="37.335071" lon="13.6708667"><ele>320.25</ele><time>2026-05-06T14:27:08.366Z</time></trkpt><trkpt lat="37.3350437" lon="13.6707011"><ele>322.0</ele><time>2026-05-06T14:27:09.368Z</time></trkpt><trkpt lat="37.3350001" lon="13.6705166"><ele>322.0</ele><time>2026-05-06T14:27:10.366Z</time></trkpt><trkpt lat="37.3349593" lon="13.6703214"><ele>322.0</ele><time>2026-05-06T14:27:11.366Z</time></trkpt><trkpt lat="37.3349273" lon="13.670132"><ele>322.0</ele><time>2026-05-06T14:27:12.367Z</time></trkpt><trkpt lat="37.3348884" lon="13.6699559"><ele>321.5</ele><time>2026-05-06T14:27:13.365Z</time></trkpt><trkpt lat="37.3348464" lon="13.6697929"><ele>321.0</ele><time>2026-05-06T14:27:14.365Z</time></trkpt><trkpt lat="37.3347977" lon="13.6696442"><ele>320.5</ele><time>2026-05-06T14:27:15.366Z</time></trkpt><trkpt lat="37.3347312" lon="13.6695081"><ele>320.0</ele><time>2026-05-06T14:27:16.367Z</time></trkpt><trkpt lat="37.3346437" lon="13.6693809"><ele>317.6666666666667</ele><time>2026-05-06T14:27:17.366Z</time></trkpt><trkpt lat="37.3345134" lon="13.6692631"><ele>315.3333333333333</ele><time>2026-05-06T14:27:18.366Z</time></trkpt><trkpt lat="37.334375" lon="13.6691444"><ele>313.0</ele><time>2026-05-06T14:27:19.366Z</time></trkpt><trkpt lat="37.3342474" lon="13.6690302"><ele>313.0</ele><time>2026-05-06T14:27:20.366Z</time></trkpt><trkpt lat="37.3341345" lon="13.6689308"><ele>313.0</ele><time>2026-05-06T14:27:21.366Z</time></trkpt><trkpt lat="37.3340289" lon="13.6688398"><ele>313.0</ele><time>2026-05-06T14:27:22.365Z</time></trkpt><trkpt lat="37.3339465" lon="13.6687538"><ele>313.0</ele><time>2026-05-06T14:27:23.365Z</time></trkpt><trkpt lat="37.3338727" lon="13.6686643"><ele>315.0</ele><time>2026-05-06T14:27:24.366Z</time></trkpt><trkpt lat="37.3338222" lon="13.6685625"><ele>317.0</ele><time>2026-05-06T14:27:25.366Z</time></trkpt><trkpt lat="37.3337936" lon="13.6684547"><ele>319.0</ele><time>2026-05-06T14:27:26.366Z</time></trkpt><trkpt lat="37.333793" lon="13.6683423"><ele>321.0</ele><time>2026-05-06T14:27:27.365Z</time></trkpt><trkpt lat="37.3338215" lon="13.6682253"><ele>323.0</ele><time>2026-05-06T14:27:28.365Z</time></trkpt><trkpt lat="37.3338745" lon="13.6681116"><ele>322.0</ele><time>2026-05-06T14:27:29.366Z</time></trkpt><trkpt lat="37.3339648" lon="13.6680057"><ele>321.0</ele><time>2026-05-06T14:27:30.367Z</time></trkpt><trkpt lat="37.3340762" lon="13.6678943"><ele>320.0</ele><time>2026-05-06T14:27:31.367Z</time></trkpt><trkpt lat="37.3341978" lon="13.667782"><ele>319.0</ele><time>2026-05-06T14:27:32.366Z</time></trkpt><trkpt lat="37.3343327" lon="13.6676621"><ele>319.0</ele><time>2026-05-06T14:27:33.366Z</time></trkpt><trkpt lat="37.3344612" lon="13.6675472"><ele>319.0</ele><time>2026-05-06T14:27:34.366Z</time></trkpt><trkpt lat="37.3345774" lon="13.6674361"><ele>319.0</ele><time>2026-05-06T14:27:35.367Z</time></trkpt><trkpt lat="37.3346831" lon="13.6673316"><ele>319.0</ele><time>2026-05-06T14:27:36.365Z</time></trkpt><trkpt lat="37.3347796" lon="13.6672369"><ele>319.75</ele><time>2026-05-06T14:27:37.366Z</time></trkpt><trkpt lat="37.3348745" lon="13.6671325"><ele>320.5</ele><time>2026-05-06T14:27:38.366Z</time></trkpt><trkpt lat="37.3349476" lon="13.667011"><ele>321.25</ele><time>2026-05-06T14:27:39.365Z</time></trkpt><trkpt lat="37.3349998" lon="13.6668766"><ele>322.0</ele><time>2026-05-06T14:27:40.366Z</time></trkpt><trkpt lat="37.3350256" lon="13.666729"><ele>322.0</ele><time>2026-05-06T14:27:41.366Z</time></trkpt><trkpt lat="37.3350221" lon="13.6665699"><ele>322.0</ele><time>2026-05-06T14:27:42.365Z</time></trkpt><trkpt lat="37.33499" lon="13.6663903"><ele>322.0</ele><time>2026-05-06T14:27:43.366Z</time></trkpt><trkpt lat="37.3349307" lon="13.6662051"><ele>322.0</ele><time>2026-05-06T14:27:44.366Z</time></trkpt><trkpt lat="37.3348585" lon="13.666004"><ele>321.0</ele><time>2026-05-06T14:27:45.365Z</time></trkpt><trkpt lat="37.3347843" lon="13.6657866"><ele>320.0</ele><time>2026-05-06T14:27:46.365Z</time></trkpt><trkpt lat="37.3347087" lon="13.6655691"><ele>319.0</ele><time>2026-05-06T14:27:47.366Z</time></trkpt><trkpt lat="37.334636" lon="13.6653719"><ele>321.0</ele><time>2026-05-06T14:27:48.367Z</time></trkpt><trkpt lat="37.334567" lon="13.6651734"><ele>323.0</ele><time>2026-05-06T14:27:49.366Z</time></trkpt><trkpt lat="37.3345013" lon="13.6649804"><ele>325.0</ele><time>2026-05-06T14:27:50.366Z</time></trkpt><trkpt lat="37.3344321" lon="13.6647953"><ele>325.0</ele><time>2026-05-06T14:27:51.366Z</time></trkpt><trkpt lat="37.3343748" lon="13.6646124"><ele>325.0</ele><time>2026-05-06T14:27:52.367Z</time></trkpt><trkpt lat="37.3343108" lon="13.6644308"><ele>325.0</ele><time>2026-05-06T14:27:53.365Z</time></trkpt><trkpt lat="37.3342416" lon="13.6642336"><ele>325.3333333333333</ele><time>2026-05-06T14:27:54.365Z</time></trkpt><trkpt lat="37.3341682" lon="13.6640205"><ele>325.6666666666667</ele><time>2026-05-06T14:27:55.367Z</time></trkpt><trkpt lat="37.33409" lon="13.6638051"><ele>326.0</ele><time>2026-05-06T14:27:56.366Z</time></trkpt><trkpt lat="37.3340109" lon="13.6635816"><ele>326.33333333333337</ele><time>2026-05-06T14:27:57.366Z</time></trkpt><trkpt lat="37.3339409" lon="13.6633777"><ele>326.6666666666667</ele><time>2026-05-06T14:27:58.367Z</time></trkpt><trkpt lat="37.3338745" lon="13.6631828"><ele>327.0</ele><time>2026-05-06T14:27:59.367Z</time></trkpt><trkpt lat="37.3338026" lon="13.6629892"><ele>327.75</ele><time>2026-05-06T14:28:00.366Z</time></trkpt><trkpt lat="37.3337358" lon="13.6628096"><ele>328.5</ele><time>2026-05-06T14:28:01.366Z</time></trkpt><trkpt lat="37.3336753" lon="13.6626492"><ele>329.25</ele><time>2026-05-06T14:28:02.366Z</time></trkpt><trkpt lat="37.3336105" lon="13.6624883"><ele>330.0</ele><time>2026-05-06T14:28:03.365Z</time></trkpt><trkpt lat="37.3335302" lon="13.6623398"><ele>330.3333333333333</ele><time>2026-05-06T14:28:04.366Z</time></trkpt><trkpt lat="37.333426" lon="13.6621882"><ele>330.66666666666663</ele><time>2026-05-06T14:28:05.366Z</time></trkpt><trkpt lat="37.3333117" lon="13.6620312"><ele>331.0</ele><time>2026-05-06T14:28:06.365Z</time></trkpt><trkpt lat="37.3331997" lon="13.6618881"><ele>331.0</ele><time>2026-05-06T14:28:07.366Z</time></trkpt><trkpt lat="37.3330926" lon="13.6617533"><ele>331.0</ele><time>2026-05-06T14:28:08.367Z</time></trkpt><trkpt lat="37.3329904" lon="13.6616192"><ele>331.0</ele><time>2026-05-06T14:28:09.366Z</time></trkpt><trkpt lat="37.3328801" lon="13.6614864"><ele>330.75</ele><time>2026-05-06T14:28:10.366Z</time></trkpt><trkpt lat="37.3327697" lon="13.6613484"><ele>330.5</ele><time>2026-05-06T14:28:11.366Z</time></trkpt><trkpt lat="37.3326637" lon="13.6612114"><ele>330.25</ele><time>2026-05-06T14:28:12.366Z</time></trkpt><trkpt lat="37.3325672" lon="13.6610941"><ele>330.0</ele><time>2026-05-06T14:28:13.366Z</time></trkpt><trkpt lat="37.3324695" lon="13.6609865"><ele>329.5</ele><time>2026-05-06T14:28:14.366Z</time></trkpt><trkpt lat="37.3323704" lon="13.6608932"><ele>329.0</ele><time>2026-05-06T14:28:15.366Z</time></trkpt><trkpt lat="37.3322718" lon="13.6608259"><ele>328.5</ele><time>2026-05-06T14:28:16.365Z</time></trkpt><trkpt lat="37.332157" lon="13.660789"><ele>328.0</ele><time>2026-05-06T14:28:17.365Z</time></trkpt><trkpt lat="37.3320472" lon="13.6607598"><ele>327.0</ele><time>2026-05-06T14:28:18.367Z</time></trkpt><trkpt lat="37.3319384" lon="13.6607445"><ele>326.0</ele><time>2026-05-06T14:28:19.366Z</time></trkpt><trkpt lat="37.3318381" lon="13.6607314"><ele>325.0</ele><time>2026-05-06T14:28:20.366Z</time></trkpt><trkpt lat="37.3317434" lon="13.66072"><ele>324.0</ele><time>2026-05-06T14:28:21.366Z</time></trkpt><trkpt lat="37.3316384" lon="13.6607046"><ele>323.0</ele><time>2026-05-06T14:28:22.366Z</time></trkpt><trkpt lat="37.3315431" lon="13.6606895"><ele>323.0</ele><time>2026-05-06T14:28:23.367Z</time></trkpt><trkpt lat="37.3314566" lon="13.6606774"><ele>323.0</ele><time>2026-05-06T14:28:24.365Z</time></trkpt><trkpt lat="37.3313851" lon="13.6606507"><ele>323.0</ele><time>2026-05-06T14:28:25.365Z</time></trkpt><trkpt lat="37.3313269" lon="13.660614"><ele>323.0</ele><time>2026-05-06T14:28:26.366Z</time></trkpt><trkpt lat="37.331274" lon="13.6605004"><ele>323.0</ele><time>2026-05-06T14:28:28.366Z</time></trkpt><trkpt lat="37.331285" lon="13.6603902"><ele>323.0</ele><time>2026-05-06T14:28:30.366Z</time></trkpt><trkpt lat="37.3313331" lon="13.6603029"><ele>322.59999999999997</ele><time>2026-05-06T14:28:34.365Z</time></trkpt><trkpt lat="37.331401" lon="13.6601985"><ele>322.2</ele><time>2026-05-06T14:28:36.366Z</time></trkpt><trkpt lat="37.3314697" lon="13.6601105"><ele>321.8</ele><time>2026-05-06T14:28:37.366Z</time></trkpt><trkpt lat="37.3315513" lon="13.6600082"><ele>321.4</ele><time>2026-05-06T14:28:38.365Z</time></trkpt><trkpt lat="37.3316266" lon="13.6599131"><ele>321.0</ele><time>2026-05-06T14:28:39.365Z</time></trkpt><trkpt lat="37.3317056" lon="13.6598196"><ele>321.0</ele><time>2026-05-06T14:28:40.366Z</time></trkpt><trkpt lat="37.3317753" lon="13.6597316"><ele>321.0</ele><time>2026-05-06T14:28:41.365Z</time></trkpt><trkpt lat="37.3318457" lon="13.6596539"><ele>321.0</ele><time>2026-05-06T14:28:42.365Z</time></trkpt><trkpt lat="37.3319128" lon="13.6595791"><ele>321.0</ele><time>2026-05-06T14:28:43.365Z</time></trkpt><trkpt lat="37.3319824" lon="13.6595086"><ele>321.0</ele><time>2026-05-06T14:28:44.365Z</time></trkpt><trkpt lat="37.3320548" lon="13.6594588"><ele>320.6666666666667</ele><time>2026-05-06T14:28:45.367Z</time></trkpt><trkpt lat="37.3321295" lon="13.6594063"><ele>320.3333333333333</ele><time>2026-05-06T14:28:46.365Z</time></trkpt><trkpt lat="37.3322058" lon="13.6593688"><ele>320.0</ele><time>2026-05-06T14:28:47.367Z</time></trkpt><trkpt lat="37.3322771" lon="13.6593349"><ele>319.66666666666663</ele><time>2026-05-06T14:28:48.366Z</time></trkpt><trkpt lat="37.3323518" lon="13.6593061"><ele>319.3333333333333</ele><time>2026-05-06T14:28:49.367Z</time></trkpt><trkpt lat="37.3324218" lon="13.6592763"><ele>319.0</ele><time>2026-05-06T14:28:50.366Z</time></trkpt><trkpt lat="37.332498" lon="13.6592503"><ele>317.8</ele><time>2026-05-06T14:28:51.366Z</time></trkpt><trkpt lat="37.3325764" lon="13.6592173"><ele>316.59999999999997</ele><time>2026-05-06T14:28:52.367Z</time></trkpt><trkpt lat="37.3326644" lon="13.6591893"><ele>315.4</ele><time>2026-05-06T14:28:53.365Z</time></trkpt><trkpt lat="37.3327576" lon="13.6591584"><ele>314.2</ele><time>2026-05-06T14:28:54.366Z</time></trkpt><trkpt lat="37.3328455" lon="13.659123"><ele>313.0</ele><time>2026-05-06T14:28:55.367Z</time></trkpt><trkpt lat="37.332936" lon="13.6590903"><ele>313.0</ele><time>2026-05-06T14:28:56.366Z</time></trkpt><trkpt lat="37.3330197" lon="13.6590604"><ele>313.0</ele><time>2026-05-06T14:28:57.366Z</time></trkpt><trkpt lat="37.3331025" lon="13.6590304"><ele>313.0</ele><time>2026-05-06T14:28:58.365Z</time></trkpt><trkpt lat="37.3332017" lon="13.6589918"><ele>313.0</ele><time>2026-05-06T14:28:59.366Z</time></trkpt><trkpt lat="37.3333104" lon="13.658949"><ele>313.0</ele><time>2026-05-06T14:29:00.366Z</time></trkpt><trkpt lat="37.3334262" lon="13.6589039"><ele>311.8</ele><time>2026-05-06T14:29:01.365Z</time></trkpt><trkpt lat="37.3335343" lon="13.6588645"><ele>310.6</ele><time>2026-05-06T14:29:02.365Z</time></trkpt><trkpt lat="37.333643" lon="13.6588242"><ele>309.4</ele><time>2026-05-06T14:29:03.366Z</time></trkpt><trkpt lat="37.3337437" lon="13.6587867"><ele>308.2</ele><time>2026-05-06T14:29:04.366Z</time></trkpt><trkpt lat="37.3338443" lon="13.6587447"><ele>307.0</ele><time>2026-05-06T14:29:05.365Z</time></trkpt><trkpt lat="37.3339419" lon="13.6587058"><ele>306.2</ele><time>2026-05-06T14:29:06.365Z</time></trkpt><trkpt lat="37.3340374" lon="13.6586537"><ele>305.4</ele><time>2026-05-06T14:29:07.365Z</time></trkpt><trkpt lat="37.334132" lon="13.658592"><ele>304.6</ele><time>2026-05-06T14:29:08.367Z</time></trkpt><trkpt lat="37.334228" lon="13.6585159"><ele>303.8</ele><time>2026-05-06T14:29:09.366Z</time></trkpt><trkpt lat="37.334318" lon="13.6584407"><ele>303.0</ele><time>2026-05-06T14:29:10.366Z</time></trkpt><trkpt lat="37.3344034" lon="13.6583688"><ele>303.0</ele><time>2026-05-06T14:29:11.365Z</time></trkpt><trkpt lat="37.3344908" lon="13.6583109"><ele>303.0</ele><time>2026-05-06T14:29:12.366Z</time></trkpt><trkpt lat="37.3345835" lon="13.6582541"><ele>303.0</ele><time>2026-05-06T14:29:13.366Z</time></trkpt><trkpt lat="37.3346898" lon="13.6582064"><ele>303.0</ele><time>2026-05-06T14:29:14.366Z</time></trkpt><trkpt lat="37.3348118" lon="13.6581714"><ele>303.0</ele><time>2026-05-06T14:29:15.366Z</time></trkpt><trkpt lat="37.3349426" lon="13.6581475"><ele>301.0</ele><time>2026-05-06T14:29:16.365Z</time></trkpt><trkpt lat="37.3350709" lon="13.6581419"><ele>299.0</ele><time>2026-05-06T14:29:17.366Z</time></trkpt><trkpt lat="37.3351938" lon="13.6581331"><ele>297.0</ele><time>2026-05-06T14:29:18.366Z</time></trkpt><trkpt lat="37.3353063" lon="13.6581228"><ele>295.0</ele><time>2026-05-06T14:29:19.366Z</time></trkpt><trkpt lat="37.3354139" lon="13.6580979"><ele>295.0</ele><time>2026-05-06T14:29:20.366Z</time></trkpt><trkpt lat="37.3355074" lon="13.6580629"><ele>295.0</ele><time>2026-05-06T14:29:21.366Z</time></trkpt><trkpt lat="37.3355908" lon="13.6580216"><ele>295.0</ele><time>2026-05-06T14:29:22.365Z</time></trkpt><trkpt lat="37.3356651" lon="13.6579851"><ele>295.0</ele><time>2026-05-06T14:29:23.366Z</time></trkpt><trkpt lat="37.3357483" lon="13.6579363"><ele>295.0</ele><time>2026-05-06T14:29:24.365Z</time></trkpt><trkpt lat="37.3358252" lon="13.6578765"><ele>295.0</ele><time>2026-05-06T14:29:25.365Z</time></trkpt><trkpt lat="37.335901" lon="13.6577808"><ele>295.2</ele><time>2026-05-06T14:29:26.365Z</time></trkpt><trkpt lat="37.3359711" lon="13.6576779"><ele>295.4</ele><time>2026-05-06T14:29:27.365Z</time></trkpt><trkpt lat="37.3360233" lon="13.6575703"><ele>295.6</ele><time>2026-05-06T14:29:28.366Z</time></trkpt><trkpt lat="37.3360752" lon="13.6574693"><ele>295.8</ele><time>2026-05-06T14:29:29.365Z</time></trkpt><trkpt lat="37.3361077" lon="13.6573624"><ele>296.0</ele><time>2026-05-06T14:29:30.366Z</time></trkpt><trkpt lat="37.3361426" lon="13.6572497"><ele>296.0</ele><time>2026-05-06T14:29:31.365Z</time></trkpt><trkpt lat="37.3361803" lon="13.6571522"><ele>296.0</ele><time>2026-05-06T14:29:32.366Z</time></trkpt><trkpt lat="37.3362293" lon="13.657049"><ele>296.0</ele><time>2026-05-06T14:29:33.366Z</time></trkpt><trkpt lat="37.3362589" lon="13.6569556"><ele>296.0</ele><time>2026-05-06T14:29:34.366Z</time></trkpt><trkpt lat="37.3362565" lon="13.6568511"><ele>296.0</ele><time>2026-05-06T14:29:35.365Z</time></trkpt><trkpt lat="37.336253" lon="13.6567261"><ele>296.0</ele><time>2026-05-06T14:29:36.365Z</time></trkpt><trkpt lat="37.3362351" lon="13.6565815"><ele>298.25</ele><time>2026-05-06T14:29:37.365Z</time></trkpt><trkpt lat="37.3362166" lon="13.6564257"><ele>300.5</ele><time>2026-05-06T14:29:38.367Z</time></trkpt><trkpt lat="37.3361913" lon="13.6562548"><ele>302.75</ele><time>2026-05-06T14:29:39.365Z</time></trkpt><trkpt lat="37.3361676" lon="13.6560816"><ele>305.0</ele><time>2026-05-06T14:29:40.366Z</time></trkpt><trkpt lat="37.3361602" lon="13.6559294"><ele>306.25</ele><time>2026-05-06T14:29:41.365Z</time></trkpt><trkpt lat="37.3361687" lon="13.6557762"><ele>307.5</ele><time>2026-05-06T14:29:42.365Z</time></trkpt><trkpt lat="37.3361965" lon="13.6556252"><ele>308.75</ele><time>2026-05-06T14:29:43.365Z</time></trkpt><trkpt lat="37.3362214" lon="13.655488"><ele>310.0</ele><time>2026-05-06T14:29:44.366Z</time></trkpt><trkpt lat="37.3362559" lon="13.6553749"><ele>310.4</ele><time>2026-05-06T14:29:45.365Z</time></trkpt><trkpt lat="37.3362892" lon="13.6552674"><ele>310.8</ele><time>2026-05-06T14:29:46.365Z</time></trkpt><trkpt lat="37.3363067" lon="13.6551651"><ele>311.2</ele><time>2026-05-06T14:29:47.368Z</time></trkpt><trkpt lat="37.3363224" lon="13.6550529"><ele>311.6</ele><time>2026-05-06T14:29:48.365Z</time></trkpt><trkpt lat="37.3363173" lon="13.6549096"><ele>312.0</ele><time>2026-05-06T14:29:49.365Z</time></trkpt><trkpt lat="37.3363016" lon="13.654773"><ele>312.0</ele><time>2026-05-06T14:29:50.365Z</time></trkpt><trkpt lat="37.3362707" lon="13.6546218"><ele>312.0</ele><time>2026-05-06T14:29:51.366Z</time></trkpt><trkpt lat="37.3362447" lon="13.6544956"><ele>312.0</ele><time>2026-05-06T14:29:52.365Z</time></trkpt><trkpt lat="37.3362134" lon="13.6543809"><ele>312.0</ele><time>2026-05-06T14:29:53.365Z</time></trkpt><trkpt lat="37.3361804" lon="13.6542466"><ele>312.0</ele><time>2026-05-06T14:29:54.366Z</time></trkpt><trkpt lat="37.3361475" lon="13.6540964"><ele>313.0</ele><time>2026-05-06T14:29:55.366Z</time></trkpt><trkpt lat="37.336117" lon="13.6539303"><ele>314.0</ele><time>2026-05-06T14:29:56.365Z</time></trkpt><trkpt lat="37.3361031" lon="13.6537796"><ele>315.0</ele><time>2026-05-06T14:29:57.365Z</time></trkpt><trkpt lat="37.3360896" lon="13.6536465"><ele>316.0</ele><time>2026-05-06T14:29:58.365Z</time></trkpt><trkpt lat="37.3360521" lon="13.6535216"><ele>316.6</ele><time>2026-05-06T14:29:59.366Z</time></trkpt><trkpt lat="37.3360099" lon="13.6534083"><ele>317.20000000000005</ele><time>2026-05-06T14:30:00.365Z</time></trkpt><trkpt lat="37.3359873" lon="13.6533102"><ele>317.79999999999995</ele><time>2026-05-06T14:30:01.365Z</time></trkpt><trkpt lat="37.3359814" lon="13.6532047"><ele>318.4</ele><time>2026-05-06T14:30:02.365Z</time></trkpt><trkpt lat="37.3359852" lon="13.6530783"><ele>319.0</ele><time>2026-05-06T14:30:03.366Z</time></trkpt><trkpt lat="37.3359868" lon="13.6529423"><ele>319.79999999999995</ele><time>2026-05-06T14:30:04.365Z</time></trkpt><trkpt lat="37.3359889" lon="13.6527873"><ele>320.59999999999997</ele><time>2026-05-06T14:30:05.366Z</time></trkpt><trkpt lat="37.3359804" lon="13.6526525"><ele>321.4</ele><time>2026-05-06T14:30:06.365Z</time></trkpt><trkpt lat="37.335966" lon="13.6525272"><ele>322.2</ele><time>2026-05-06T14:30:07.367Z</time></trkpt><trkpt lat="37.3359445" lon="13.6524026"><ele>323.0</ele><time>2026-05-06T14:30:08.367Z</time></trkpt><trkpt lat="37.3359048" lon="13.6522922"><ele>323.0</ele><time>2026-05-06T14:30:09.366Z</time></trkpt><trkpt lat="37.3358814" lon="13.6521902"><ele>323.0</ele><time>2026-05-06T14:30:10.367Z</time></trkpt><trkpt lat="37.3358696" lon="13.6520806"><ele>323.0</ele><time>2026-05-06T14:30:11.365Z</time></trkpt><trkpt lat="37.3358762" lon="13.6519659"><ele>323.0</ele><time>2026-05-06T14:30:12.366Z</time></trkpt><trkpt lat="37.3358752" lon="13.6518413"><ele>323.0</ele><time>2026-05-06T14:30:13.365Z</time></trkpt><trkpt lat="37.3358694" lon="13.6517072"><ele>323.2</ele><time>2026-05-06T14:30:14.366Z</time></trkpt><trkpt lat="37.3358576" lon="13.6515533"><ele>323.4</ele><time>2026-05-06T14:30:15.365Z</time></trkpt><trkpt lat="37.3358467" lon="13.6514222"><ele>323.59999999999997</ele><time>2026-05-06T14:30:16.367Z</time></trkpt><trkpt lat="37.3358437" lon="13.6512998"><ele>323.79999999999995</ele><time>2026-05-06T14:30:17.366Z</time></trkpt><trkpt lat="37.3358402" lon="13.6511854"><ele>324.0</ele><time>2026-05-06T14:30:18.366Z</time></trkpt><trkpt lat="37.3358287" lon="13.6510656"><ele>324.4</ele><time>2026-05-06T14:30:19.365Z</time></trkpt><trkpt lat="37.3358056" lon="13.6509205"><ele>324.79999999999995</ele><time>2026-05-06T14:30:20.366Z</time></trkpt><trkpt lat="37.3357827" lon="13.6507792"><ele>325.20000000000005</ele><time>2026-05-06T14:30:21.366Z</time></trkpt><trkpt lat="37.3357593" lon="13.6506538"><ele>325.6</ele><time>2026-05-06T14:30:22.366Z</time></trkpt><trkpt lat="37.3357555" lon="13.6505286"><ele>326.0</ele><time>2026-05-06T14:30:23.366Z</time></trkpt><trkpt lat="37.3357546" lon="13.6504074"><ele>326.0</ele><time>2026-05-06T14:30:24.366Z</time></trkpt><trkpt lat="37.3357446" lon="13.6502933"><ele>326.0</ele><time>2026-05-06T14:30:25.366Z</time></trkpt><trkpt lat="37.3357341" lon="13.650184"><ele>326.0</ele><time>2026-05-06T14:30:26.365Z</time></trkpt><trkpt lat="37.3357108" lon="13.6500691"><ele>326.0</ele><time>2026-05-06T14:30:27.365Z</time></trkpt><trkpt lat="37.3356735" lon="13.6499518"><ele>326.0</ele><time>2026-05-06T14:30:28.366Z</time></trkpt><trkpt lat="37.3356505" lon="13.6498396"><ele>326.33333333333337</ele><time>2026-05-06T14:30:29.365Z</time></trkpt><trkpt lat="37.3356394" lon="13.6497239"><ele>326.6666666666667</ele><time>2026-05-06T14:30:30.366Z</time></trkpt><trkpt lat="37.3356124" lon="13.6496281"><ele>327.0</ele><time>2026-05-06T14:30:31.365Z</time></trkpt><trkpt lat="37.3355739" lon="13.6495345"><ele>327.3333333333333</ele><time>2026-05-06T14:30:32.366Z</time></trkpt><trkpt lat="37.3355295" lon="13.6494473"><ele>327.66666666666663</ele><time>2026-05-06T14:30:33.366Z</time></trkpt><trkpt lat="37.3354814" lon="13.6493577"><ele>328.0</ele><time>2026-05-06T14:30:34.366Z</time></trkpt><trkpt lat="37.3354333" lon="13.6492615"><ele>329.66666666666663</ele><time>2026-05-06T14:30:35.365Z</time></trkpt><trkpt lat="37.3353815" lon="13.6491742"><ele>331.3333333333333</ele><time>2026-05-06T14:30:36.365Z</time></trkpt><trkpt lat="37.3353264" lon="13.6490879"><ele>333.0</ele><time>2026-05-06T14:30:37.365Z</time></trkpt><trkpt lat="37.3352727" lon="13.6490052"><ele>334.6666666666667</ele><time>2026-05-06T14:30:38.365Z</time></trkpt><trkpt lat="37.3352159" lon="13.6489194"><ele>336.33333333333337</ele><time>2026-05-06T14:30:39.366Z</time></trkpt><trkpt lat="37.3351528" lon="13.6488425"><ele>338.0</ele><time>2026-05-06T14:30:40.367Z</time></trkpt><trkpt lat="37.3350749" lon="13.6487732"><ele>338.0</ele><time>2026-05-06T14:30:41.365Z</time></trkpt><trkpt lat="37.3349926" lon="13.6487048"><ele>338.0</ele><time>2026-05-06T14:30:42.365Z</time></trkpt><trkpt lat="37.3349009" lon="13.6486382"><ele>338.0</ele><time>2026-05-06T14:30:43.367Z</time></trkpt><trkpt lat="37.3348159" lon="13.6485752"><ele>338.0</ele><time>2026-05-06T14:30:44.365Z</time></trkpt><trkpt lat="37.3347347" lon="13.6485205"><ele>338.0</ele><time>2026-05-06T14:30:45.367Z</time></trkpt><trkpt lat="37.3346541" lon="13.6484551"><ele>340.33333333333337</ele><time>2026-05-06T14:30:46.366Z</time></trkpt><trkpt lat="37.3345802" lon="13.6483839"><ele>342.6666666666667</ele><time>2026-05-06T14:30:47.366Z</time></trkpt><trkpt lat="37.3345126" lon="13.6483081"><ele>345.0</ele><time>2026-05-06T14:30:48.366Z</time></trkpt><trkpt lat="37.3344598" lon="13.6482359"><ele>347.3333333333333</ele><time>2026-05-06T14:30:49.367Z</time></trkpt><trkpt lat="37.334422" lon="13.6481706"><ele>349.66666666666663</ele><time>2026-05-06T14:30:50.366Z</time></trkpt><trkpt lat="37.3344105" lon="13.6480708"><ele>352.0</ele><time>2026-05-06T14:30:52.365Z</time></trkpt><trkpt lat="37.3344998" lon="13.6479196"><ele>352.0</ele><time>2026-05-06T14:30:54.367Z</time></trkpt><trkpt lat="37.3345547" lon="13.6478262"><ele>352.0</ele><time>2026-05-06T14:30:55.366Z</time></trkpt><trkpt lat="37.3345926" lon="13.6477231"><ele>352.0</ele><time>2026-05-06T14:30:56.365Z</time></trkpt><trkpt lat="37.3346208" lon="13.6476134"><ele>352.0</ele><time>2026-05-06T14:30:57.365Z</time></trkpt><trkpt lat="37.334625" lon="13.6475117"><ele>352.0</ele><time>2026-05-06T14:30:58.366Z</time></trkpt><trkpt lat="37.3346116" lon="13.6473977"><ele>352.0</ele><time>2026-05-06T14:30:59.365Z</time></trkpt><trkpt lat="37.3345797" lon="13.6472566"><ele>352.40000000000003</ele><time>2026-05-06T14:31:00.366Z</time></trkpt><trkpt lat="37.334546" lon="13.6471323"><ele>352.8</ele><time>2026-05-06T14:31:01.366Z</time></trkpt><trkpt lat="37.3345102" lon="13.6470157"><ele>353.2</ele><time>2026-05-06T14:31:02.365Z</time></trkpt><trkpt lat="37.3344678" lon="13.6469076"><ele>353.6</ele><time>2026-05-06T14:31:03.366Z</time></trkpt><trkpt lat="37.3344177" lon="13.6467971"><ele>354.0</ele><time>2026-05-06T14:31:04.365Z</time></trkpt><trkpt lat="37.3343697" lon="13.6466754"><ele>353.0</ele><time>2026-05-06T14:31:05.367Z</time></trkpt><trkpt lat="37.3343153" lon="13.6465552"><ele>352.0</ele><time>2026-05-06T14:31:06.367Z</time></trkpt><trkpt lat="37.334263" lon="13.6464494"><ele>351.0</ele><time>2026-05-06T14:31:07.366Z</time></trkpt><trkpt lat="37.3342106" lon="13.6463448"><ele>350.0</ele><time>2026-05-06T14:31:08.365Z</time></trkpt><trkpt lat="37.3341525" lon="13.6462426"><ele>349.0</ele><time>2026-05-06T14:31:09.365Z</time></trkpt><trkpt lat="37.334087" lon="13.6461419"><ele>349.2</ele><time>2026-05-06T14:31:10.366Z</time></trkpt><trkpt lat="37.3340181" lon="13.6460421"><ele>349.4</ele><time>2026-05-06T14:31:11.366Z</time></trkpt><trkpt lat="37.333948" lon="13.6459436"><ele>349.6</ele><time>2026-05-06T14:31:12.366Z</time></trkpt><trkpt lat="37.3338777" lon="13.6458386"><ele>349.8</ele><time>2026-05-06T14:31:13.366Z</time></trkpt><trkpt lat="37.3338128" lon="13.6457372"><ele>350.0</ele><time>2026-05-06T14:31:14.366Z</time></trkpt><trkpt lat="37.3337451" lon="13.6456368"><ele>351.2</ele><time>2026-05-06T14:31:15.365Z</time></trkpt><trkpt lat="37.3336799" lon="13.6455325"><ele>352.4</ele><time>2026-05-06T14:31:16.365Z</time></trkpt><trkpt lat="37.3336278" lon="13.6454315"><ele>353.6</ele><time>2026-05-06T14:31:17.368Z</time></trkpt><trkpt lat="37.3335896" lon="13.6453174"><ele>354.8</ele><time>2026-05-06T14:31:18.365Z</time></trkpt><trkpt lat="37.3335647" lon="13.6452053"><ele>356.0</ele><time>2026-05-06T14:31:19.366Z</time></trkpt><trkpt lat="37.3335457" lon="13.645101"><ele>356.0</ele><time>2026-05-06T14:31:20.366Z</time></trkpt><trkpt lat="37.3335255" lon="13.6450018"><ele>356.0</ele><time>2026-05-06T14:31:21.365Z</time></trkpt><trkpt lat="37.3335092" lon="13.6449009"><ele>356.0</ele><time>2026-05-06T14:31:22.365Z</time></trkpt><trkpt lat="37.333487" lon="13.6447977"><ele>356.0</ele><time>2026-05-06T14:31:23.365Z</time></trkpt><trkpt lat="37.3334723" lon="13.6446893"><ele>356.0</ele><time>2026-05-06T14:31:24.365Z</time></trkpt><trkpt lat="37.3334458" lon="13.6445876"><ele>356.0</ele><time>2026-05-06T14:31:25.365Z</time></trkpt><trkpt lat="37.3334227" lon="13.6444881"><ele>355.0</ele><time>2026-05-06T14:31:26.367Z</time></trkpt><trkpt lat="37.3334125" lon="13.6443894"><ele>354.0</ele><time>2026-05-06T14:31:27.365Z</time></trkpt><trkpt lat="37.3334021" lon="13.6442979"><ele>353.0</ele><time>2026-05-06T14:31:28.365Z</time></trkpt><trkpt lat="37.3333929" lon="13.6442063"><ele>352.0</ele><time>2026-05-06T14:31:29.365Z</time></trkpt><trkpt lat="37.333389" lon="13.6440711"><ele>351.0</ele><time>2026-05-06T14:31:31.366Z</time></trkpt><trkpt lat="37.3333833" lon="13.6439852"><ele>350.0</ele><time>2026-05-06T14:31:34.367Z</time></trkpt><trkpt lat="37.3333771" lon="13.6438727"><ele>350.0</ele><time>2026-05-06T14:31:38.366Z</time></trkpt><trkpt lat="37.3333703" lon="13.6437743"><ele>350.0</ele><time>2026-05-06T14:31:40.365Z</time></trkpt><trkpt lat="37.3333585" lon="13.6436316"><ele>350.0</ele><time>2026-05-06T14:31:42.365Z</time></trkpt><trkpt lat="37.3333523" lon="13.6434768"><ele>350.0</ele><time>2026-05-06T14:31:44.367Z</time></trkpt><trkpt lat="37.3333579" lon="13.6433776"><ele>350.0</ele><time>2026-05-06T14:31:45.367Z</time></trkpt><trkpt lat="37.3333531" lon="13.6432632"><ele>348.4</ele><time>2026-05-06T14:31:46.366Z</time></trkpt><trkpt lat="37.3333466" lon="13.643112"><ele>346.8</ele><time>2026-05-06T14:31:47.365Z</time></trkpt><trkpt lat="37.3333439" lon="13.6429726"><ele>345.20000000000005</ele><time>2026-05-06T14:31:48.365Z</time></trkpt><trkpt lat="37.333341" lon="13.6428414"><ele>343.6</ele><time>2026-05-06T14:31:49.367Z</time></trkpt><trkpt lat="37.3333362" lon="13.6427155"><ele>342.0</ele><time>2026-05-06T14:31:50.365Z</time></trkpt><trkpt lat="37.3333406" lon="13.642611"><ele>341.0</ele><time>2026-05-06T14:31:51.366Z</time></trkpt><trkpt lat="37.3333452" lon="13.6424982"><ele>340.0</ele><time>2026-05-06T14:31:52.365Z</time></trkpt><trkpt lat="37.3333488" lon="13.6423854"><ele>339.0</ele><time>2026-05-06T14:31:53.365Z</time></trkpt><trkpt lat="37.333352" lon="13.6422733"><ele>338.0</ele><time>2026-05-06T14:31:54.366Z</time></trkpt><trkpt lat="37.3333494" lon="13.642146"><ele>337.0</ele><time>2026-05-06T14:31:55.365Z</time></trkpt><trkpt lat="37.3333437" lon="13.6419823"><ele>336.0</ele><time>2026-05-06T14:31:56.366Z</time></trkpt><trkpt lat="37.333343" lon="13.6418238"><ele>335.0</ele><time>2026-05-06T14:31:57.367Z</time></trkpt><trkpt lat="37.3333381" lon="13.6416686"><ele>334.0</ele><time>2026-05-06T14:31:58.365Z</time></trkpt><trkpt lat="37.3333328" lon="13.6415264"><ele>333.0</ele><time>2026-05-06T14:31:59.366Z</time></trkpt><trkpt lat="37.3333266" lon="13.6413871"><ele>333.0</ele><time>2026-05-06T14:32:00.365Z</time></trkpt><trkpt lat="37.3333174" lon="13.6412503"><ele>333.0</ele><time>2026-05-06T14:32:01.365Z</time></trkpt><trkpt lat="37.3333081" lon="13.6411125"><ele>333.0</ele><time>2026-05-06T14:32:02.366Z</time></trkpt><trkpt lat="37.3332972" lon="13.6409614"><ele>333.0</ele><time>2026-05-06T14:32:03.365Z</time></trkpt><trkpt lat="37.3332723" lon="13.6408054"><ele>333.5</ele><time>2026-05-06T14:32:04.366Z</time></trkpt><trkpt lat="37.333226" lon="13.6406235"><ele>334.0</ele><time>2026-05-06T14:32:05.366Z</time></trkpt><trkpt lat="37.3331801" lon="13.6404501"><ele>334.5</ele><time>2026-05-06T14:32:06.365Z</time></trkpt><trkpt lat="37.333119" lon="13.6402841"><ele>335.0</ele><time>2026-05-06T14:32:07.366Z</time></trkpt><trkpt lat="37.3330422" lon="13.6401117"><ele>335.0</ele><time>2026-05-06T14:32:08.366Z</time></trkpt><trkpt lat="37.3329428" lon="13.6399208"><ele>335.0</ele><time>2026-05-06T14:32:09.365Z</time></trkpt><trkpt lat="37.3328433" lon="13.6397275"><ele>335.0</ele><time>2026-05-06T14:32:10.365Z</time></trkpt><trkpt lat="37.332758" lon="13.6395534"><ele>334.5</ele><time>2026-05-06T14:32:11.366Z</time></trkpt><trkpt lat="37.3326764" lon="13.6393967"><ele>334.0</ele><time>2026-05-06T14:32:12.365Z</time></trkpt><trkpt lat="37.3325982" lon="13.6392554"><ele>333.5</ele><time>2026-05-06T14:32:13.366Z</time></trkpt><trkpt lat="37.3325306" lon="13.6391198"><ele>333.0</ele><time>2026-05-06T14:32:14.365Z</time></trkpt><trkpt lat="37.3324627" lon="13.6389804"><ele>333.0</ele><time>2026-05-06T14:32:15.365Z</time></trkpt><trkpt lat="37.3323893" lon="13.6388389"><ele>333.0</ele><time>2026-05-06T14:32:16.368Z</time></trkpt><trkpt lat="37.3323294" lon="13.638708"><ele>333.0</ele><time>2026-05-06T14:32:17.366Z</time></trkpt><trkpt lat="37.3322787" lon="13.6385871"><ele>333.0</ele><time>2026-05-06T14:32:18.365Z</time></trkpt><trkpt lat="37.3322434" lon="13.6384836"><ele>332.5</ele><time>2026-05-06T14:32:19.366Z</time></trkpt><trkpt lat="37.3322189" lon="13.6383942"><ele>332.0</ele><time>2026-05-06T14:32:20.365Z</time></trkpt><trkpt lat="37.3322018" lon="13.6382603"><ele>331.5</ele><time>2026-05-06T14:32:22.366Z</time></trkpt><trkpt lat="37.3322257" lon="13.6381814"><ele>331.0</ele><time>2026-05-06T14:32:25.367Z</time></trkpt><trkpt lat="37.3340137" lon="13.6459744"><ele>334.6</ele><time>2026-05-06T14:45:36.57Z</time></trkpt><trkpt lat="37.3340339" lon="13.646068"><ele>338.20000000000005</ele><time>2026-05-06T14:45:58.364Z</time></trkpt><trkpt lat="37.3340921" lon="13.6461506"><ele>341.79999999999995</ele><time>2026-05-06T14:45:59.364Z</time></trkpt><trkpt lat="37.3341565" lon="13.6462551"><ele>345.4</ele><time>2026-05-06T14:46:00.365Z</time></trkpt><trkpt lat="37.3342189" lon="13.6463605"><ele>349.0</ele><time>2026-05-06T14:46:01.364Z</time></trkpt><trkpt lat="37.3342695" lon="13.6464507"><ele>349.0</ele><time>2026-05-06T14:46:02.364Z</time></trkpt><trkpt lat="37.3343198" lon="13.646551"><ele>349.0</ele><time>2026-05-06T14:46:03.364Z</time></trkpt><trkpt lat="37.3343692" lon="13.6466625"><ele>349.0</ele><time>2026-05-06T14:46:04.364Z</time></trkpt><trkpt lat="37.3344134" lon="13.6467715"><ele>349.0</ele><time>2026-05-06T14:46:05.364Z</time></trkpt><trkpt lat="37.334453" lon="13.6468743"><ele>349.0</ele><time>2026-05-06T14:46:06.364Z</time></trkpt><trkpt lat="37.3344902" lon="13.6469771"><ele>349.8333333333333</ele><time>2026-05-06T14:46:07.364Z</time></trkpt><trkpt lat="37.3345241" lon="13.6470797"><ele>350.66666666666663</ele><time>2026-05-06T14:46:08.364Z</time></trkpt><trkpt lat="37.3345546" lon="13.6471854"><ele>351.5</ele><time>2026-05-06T14:46:09.365Z</time></trkpt><trkpt lat="37.3345806" lon="13.6472857"><ele>352.3333333333333</ele><time>2026-05-06T14:46:10.364Z</time></trkpt><trkpt lat="37.3346019" lon="13.6473767"><ele>353.1666666666667</ele><time>2026-05-06T14:46:11.364Z</time></trkpt><trkpt lat="37.3346123" lon="13.6474705"><ele>354.0</ele><time>2026-05-06T14:46:12.365Z</time></trkpt><trkpt lat="37.3346098" lon="13.6475725"><ele>354.0</ele><time>2026-05-06T14:46:13.364Z</time></trkpt><trkpt lat="37.3345968" lon="13.6476772"><ele>354.0</ele><time>2026-05-06T14:46:14.365Z</time></trkpt><trkpt lat="37.3345688" lon="13.6477826"><ele>354.0</ele><time>2026-05-06T14:46:15.364Z</time></trkpt><trkpt lat="37.3345277" lon="13.6478798"><ele>354.0</ele><time>2026-05-06T14:46:16.364Z</time></trkpt><trkpt lat="37.3344766" lon="13.6479668"><ele>354.0</ele><time>2026-05-06T14:46:17.364Z</time></trkpt><trkpt lat="37.3344159" lon="13.6480507"><ele>354.0</ele><time>2026-05-06T14:46:18.364Z</time></trkpt><trkpt lat="37.3343519" lon="13.648131"><ele>353.6666666666667</ele><time>2026-05-06T14:46:19.365Z</time></trkpt><trkpt lat="37.3342944" lon="13.6482022"><ele>353.3333333333333</ele><time>2026-05-06T14:46:20.365Z</time></trkpt><trkpt lat="37.3342393" lon="13.6482718"><ele>353.0</ele><time>2026-05-06T14:46:21.365Z</time></trkpt><trkpt lat="37.33418" lon="13.6483555"><ele>352.66666666666663</ele><time>2026-05-06T14:46:22.364Z</time></trkpt><trkpt lat="37.3341257" lon="13.6484378"><ele>352.3333333333333</ele><time>2026-05-06T14:46:23.365Z</time></trkpt><trkpt lat="37.3340757" lon="13.6485101"><ele>352.0</ele><time>2026-05-06T14:46:24.364Z</time></trkpt><trkpt lat="37.3340248" lon="13.648592"><ele>351.6</ele><time>2026-05-06T14:46:25.364Z</time></trkpt><trkpt lat="37.3339685" lon="13.6486756"><ele>351.20000000000005</ele><time>2026-05-06T14:46:26.364Z</time></trkpt><trkpt lat="37.3339082" lon="13.6487449"><ele>350.8</ele><time>2026-05-06T14:46:27.364Z</time></trkpt><trkpt lat="37.3338353" lon="13.6488179"><ele>350.4</ele><time>2026-05-06T14:46:28.364Z</time></trkpt><trkpt lat="37.333758" lon="13.6489035"><ele>350.0</ele><time>2026-05-06T14:46:29.364Z</time></trkpt><trkpt lat="37.3336823" lon="13.6489965"><ele>352.5</ele><time>2026-05-06T14:46:30.364Z</time></trkpt><trkpt lat="37.3336124" lon="13.6490697"><ele>355.0</ele><time>2026-05-06T14:46:31.364Z</time></trkpt><trkpt lat="37.3335384" lon="13.6491483"><ele>357.5</ele><time>2026-05-06T14:46:32.364Z</time></trkpt><trkpt lat="37.3334676" lon="13.6492299"><ele>360.0</ele><time>2026-05-06T14:46:33.364Z</time></trkpt><trkpt lat="37.333401" lon="13.6492851"><ele>362.5</ele><time>2026-05-06T14:46:34.364Z</time></trkpt><trkpt lat="37.3333337" lon="13.6493317"><ele>365.0</ele><time>2026-05-06T14:46:35.364Z</time></trkpt><trkpt lat="37.3332709" lon="13.6493773"><ele>364.5</ele><time>2026-05-06T14:46:36.364Z</time></trkpt><trkpt lat="37.3331953" lon="13.6494681"><ele>364.0</ele><time>2026-05-06T14:46:38.364Z</time></trkpt><trkpt lat="37.3331563" lon="13.6495369"><ele>363.5</ele><time>2026-05-06T14:46:39.364Z</time></trkpt><trkpt lat="37.3331106" lon="13.6496305"><ele>363.0</ele><time>2026-05-06T14:46:40.365Z</time></trkpt><trkpt lat="37.3330648" lon="13.6497302"><ele>362.5</ele><time>2026-05-06T14:46:41.364Z</time></trkpt><trkpt lat="37.3330188" lon="13.6498344"><ele>362.0</ele><time>2026-05-06T14:46:42.365Z</time></trkpt><trkpt lat="37.3329742" lon="13.6499472"><ele>365.20000000000005</ele><time>2026-05-06T14:46:43.364Z</time></trkpt><trkpt lat="37.3329237" lon="13.6500631"><ele>368.4</ele><time>2026-05-06T14:46:44.364Z</time></trkpt><trkpt lat="37.3328504" lon="13.6501716"><ele>371.6</ele><time>2026-05-06T14:46:45.365Z</time></trkpt><trkpt lat="37.3327729" lon="13.6502754"><ele>374.79999999999995</ele><time>2026-05-06T14:46:46.364Z</time></trkpt><trkpt lat="37.3327048" lon="13.6503535"><ele>378.0</ele><time>2026-05-06T14:46:47.364Z</time></trkpt><trkpt lat="37.3326404" lon="13.6504133"><ele>378.0</ele><time>2026-05-06T14:46:48.363Z</time></trkpt><trkpt lat="37.3325794" lon="13.6504674"><ele>378.0</ele><time>2026-05-06T14:46:49.363Z</time></trkpt><trkpt lat="37.3325175" lon="13.6505266"><ele>378.0</ele><time>2026-05-06T14:46:50.363Z</time></trkpt><trkpt lat="37.3324528" lon="13.6505837"><ele>378.0</ele><time>2026-05-06T14:46:51.364Z</time></trkpt><trkpt lat="37.332387" lon="13.6506493"><ele>378.0</ele><time>2026-05-06T14:46:52.364Z</time></trkpt><trkpt lat="37.3323234" lon="13.6507372"><ele>378.0</ele><time>2026-05-06T14:46:53.363Z</time></trkpt><trkpt lat="37.3322698" lon="13.6508315"><ele>378.0</ele><time>2026-05-06T14:46:54.365Z</time></trkpt><trkpt lat="37.3322248" lon="13.6509218"><ele>378.0</ele><time>2026-05-06T14:46:55.364Z</time></trkpt><trkpt lat="37.332181" lon="13.6510024"><ele>378.0</ele><time>2026-05-06T14:46:56.363Z</time></trkpt><trkpt lat="37.332139" lon="13.6510895"><ele>378.0</ele><time>2026-05-06T14:46:57.364Z</time></trkpt><trkpt lat="37.3320981" lon="13.6511915"><ele>378.0</ele><time>2026-05-06T14:46:58.365Z</time></trkpt><trkpt lat="37.3320608" lon="13.6513073"><ele>378.0</ele><time>2026-05-06T14:46:59.363Z</time></trkpt><trkpt lat="37.3320262" lon="13.651435"><ele>380.0</ele><time>2026-05-06T14:47:00.364Z</time></trkpt><trkpt lat="37.3319851" lon="13.6515788"><ele>382.0</ele><time>2026-05-06T14:47:01.364Z</time></trkpt><trkpt lat="37.3319374" lon="13.6517374"><ele>384.0</ele><time>2026-05-06T14:47:02.365Z</time></trkpt><trkpt lat="37.3318878" lon="13.6519125"><ele>386.0</ele><time>2026-05-06T14:47:03.364Z</time></trkpt><trkpt lat="37.3318376" lon="13.6520818"><ele>386.0</ele><time>2026-05-06T14:47:04.364Z</time></trkpt><trkpt lat="37.3317998" lon="13.6522168"><ele>386.0</ele><time>2026-05-06T14:47:05.365Z</time></trkpt><trkpt lat="37.3317749" lon="13.6523304"><ele>386.0</ele><time>2026-05-06T14:47:06.364Z</time></trkpt><trkpt lat="37.3317456" lon="13.65243"><ele>386.0</ele><time>2026-05-06T14:47:07.364Z</time></trkpt><trkpt lat="37.3317016" lon="13.6525289"><ele>386.0</ele><time>2026-05-06T14:47:08.364Z</time></trkpt><trkpt lat="37.3316413" lon="13.6526301"><ele>385.99999999999994</ele><time>2026-05-06T14:47:09.365Z</time></trkpt><trkpt lat="37.3315721" lon="13.6527291"><ele>386.0</ele><time>2026-05-06T14:47:10.363Z</time></trkpt><trkpt lat="37.3315136" lon="13.652824"><ele>386.0</ele><time>2026-05-06T14:47:11.364Z</time></trkpt><trkpt lat="37.3314647" lon="13.6529056"><ele>386.0</ele><time>2026-05-06T14:47:12.364Z</time></trkpt><trkpt lat="37.3314124" lon="13.6529724"><ele>385.99999999999994</ele><time>2026-05-06T14:47:13.364Z</time></trkpt><trkpt lat="37.3313557" lon="13.653033"><ele>386.0</ele><time>2026-05-06T14:47:14.364Z</time></trkpt><trkpt lat="37.3313019" lon="13.6531041"><ele>385.99999999999994</ele><time>2026-05-06T14:47:15.364Z</time></trkpt><trkpt lat="37.3312519" lon="13.6531829"><ele>386.0</ele><time>2026-05-06T14:47:16.363Z</time></trkpt><trkpt lat="37.3312025" lon="13.6532613"><ele>386.0</ele><time>2026-05-06T14:47:17.365Z</time></trkpt><trkpt lat="37.3311527" lon="13.6533297"><ele>386.0</ele><time>2026-05-06T14:47:18.364Z</time></trkpt><trkpt lat="37.3310964" lon="13.653394"><ele>385.99999999999994</ele><time>2026-05-06T14:47:19.364Z</time></trkpt><trkpt lat="37.3310449" lon="13.6534639"><ele>386.0</ele><time>2026-05-06T14:47:20.363Z</time></trkpt><trkpt lat="37.331006" lon="13.6535426"><ele>384.3333333333333</ele><time>2026-05-06T14:47:21.364Z</time></trkpt><trkpt lat="37.3309772" lon="13.6536344"><ele>382.66666666666663</ele><time>2026-05-06T14:47:22.364Z</time></trkpt><trkpt lat="37.3309544" lon="13.6537305"><ele>381.0</ele><time>2026-05-06T14:47:23.365Z</time></trkpt><trkpt lat="37.3309314" lon="13.6538155"><ele>379.3333333333333</ele><time>2026-05-06T14:47:24.364Z</time></trkpt><trkpt lat="37.3308985" lon="13.6538975"><ele>377.66666666666663</ele><time>2026-05-06T14:47:25.364Z</time></trkpt><trkpt lat="37.3308536" lon="13.6539724"><ele>376.0</ele><time>2026-05-06T14:47:26.364Z</time></trkpt><trkpt lat="37.3307972" lon="13.6540415"><ele>376.0</ele><time>2026-05-06T14:47:27.365Z</time></trkpt><trkpt lat="37.3307303" lon="13.6541041"><ele>376.0</ele><time>2026-05-06T14:47:28.365Z</time></trkpt><trkpt lat="37.3306571" lon="13.6541697"><ele>376.0</ele><time>2026-05-06T14:47:29.364Z</time></trkpt><trkpt lat="37.3305956" lon="13.654245"><ele>376.0</ele><time>2026-05-06T14:47:30.364Z</time></trkpt><trkpt lat="37.3305468" lon="13.6543228"><ele>376.0</ele><time>2026-05-06T14:47:31.363Z</time></trkpt><trkpt lat="37.3304953" lon="13.6544053"><ele>376.0</ele><time>2026-05-06T14:47:32.364Z</time></trkpt><trkpt lat="37.3304423" lon="13.6544847"><ele>375.8333333333333</ele><time>2026-05-06T14:47:33.363Z</time></trkpt><trkpt lat="37.330394" lon="13.6545609"><ele>375.66666666666663</ele><time>2026-05-06T14:47:34.366Z</time></trkpt><trkpt lat="37.3303553" lon="13.6546397"><ele>375.5</ele><time>2026-05-06T14:47:35.363Z</time></trkpt><trkpt lat="37.3303219" lon="13.6547135"><ele>375.3333333333333</ele><time>2026-05-06T14:47:36.365Z</time></trkpt><trkpt lat="37.3302924" lon="13.654788"><ele>375.1666666666667</ele><time>2026-05-06T14:47:37.363Z</time></trkpt><trkpt lat="37.330266" lon="13.6548623"><ele>375.0</ele><time>2026-05-06T14:47:38.364Z</time></trkpt><trkpt lat="37.3302256" lon="13.6550025"><ele>375.0</ele><time>2026-05-06T14:47:40.365Z</time></trkpt><trkpt lat="37.3302007" lon="13.6551214"><ele>375.0</ele><time>2026-05-06T14:47:42.364Z</time></trkpt><trkpt lat="37.330181" lon="13.6552451"><ele>375.0</ele><time>2026-05-06T14:47:44.363Z</time></trkpt><trkpt lat="37.3301471" lon="13.6553649"><ele>375.0</ele><time>2026-05-06T14:47:46.364Z</time></trkpt><trkpt lat="37.3300744" lon="13.6554694"><ele>375.0</ele><time>2026-05-06T14:47:48.364Z</time></trkpt><trkpt lat="37.3300275" lon="13.6555273"><ele>373.5</ele><time>2026-05-06T14:47:49.365Z</time></trkpt><trkpt lat="37.3299691" lon="13.6555877"><ele>372.0</ele><time>2026-05-06T14:47:50.363Z</time></trkpt><trkpt lat="37.3299038" lon="13.655635"><ele>370.5</ele><time>2026-05-06T14:47:51.365Z</time></trkpt><trkpt lat="37.3298223" lon="13.6556668"><ele>369.0</ele><time>2026-05-06T14:47:52.364Z</time></trkpt><trkpt lat="37.3297281" lon="13.655692"><ele>367.5</ele><time>2026-05-06T14:47:53.364Z</time></trkpt><trkpt lat="37.3296179" lon="13.6557052"><ele>366.0</ele><time>2026-05-06T14:47:54.364Z</time></trkpt><trkpt lat="37.3294959" lon="13.6557078"><ele>366.0</ele><time>2026-05-06T14:47:55.364Z</time></trkpt><trkpt lat="37.3293667" lon="13.6557046"><ele>366.0</ele><time>2026-05-06T14:47:56.363Z</time></trkpt><trkpt lat="37.3292291" lon="13.6556985"><ele>366.0</ele><time>2026-05-06T14:47:57.363Z</time></trkpt><trkpt lat="37.3290812" lon="13.6556927"><ele>366.0</ele><time>2026-05-06T14:47:58.365Z</time></trkpt><trkpt lat="37.3289446" lon="13.6556949"><ele>366.4</ele><time>2026-05-06T14:47:59.365Z</time></trkpt><trkpt lat="37.3288191" lon="13.6556842"><ele>366.8</ele><time>2026-05-06T14:48:00.364Z</time></trkpt><trkpt lat="37.3287012" lon="13.6556692"><ele>367.2</ele><time>2026-05-06T14:48:01.365Z</time></trkpt><trkpt lat="37.328597" lon="13.6556564"><ele>367.59999999999997</ele><time>2026-05-06T14:48:02.364Z</time></trkpt><trkpt lat="37.3285016" lon="13.6556568"><ele>368.0</ele><time>2026-05-06T14:48:03.365Z</time></trkpt><trkpt lat="37.3284129" lon="13.655675"><ele>368.0</ele><time>2026-05-06T14:48:04.365Z</time></trkpt><trkpt lat="37.3283284" lon="13.6557019"><ele>368.0</ele><time>2026-05-06T14:48:05.363Z</time></trkpt><trkpt lat="37.3282484" lon="13.6557224"><ele>368.0</ele><time>2026-05-06T14:48:06.363Z</time></trkpt><trkpt lat="37.3281818" lon="13.6557069"><ele>368.0</ele><time>2026-05-06T14:48:07.364Z</time></trkpt><trkpt lat="37.3281212" lon="13.6556789"><ele>368.0</ele><time>2026-05-06T14:48:08.366Z</time></trkpt><trkpt lat="37.3280655" lon="13.6556351"><ele>368.0</ele><time>2026-05-06T14:48:09.364Z</time></trkpt><trkpt lat="37.3280186" lon="13.6555781"><ele>368.0</ele><time>2026-05-06T14:48:10.364Z</time></trkpt><trkpt lat="37.3279729" lon="13.6555104"><ele>368.0</ele><time>2026-05-06T14:48:11.364Z</time></trkpt><trkpt lat="37.3279385" lon="13.6554291"><ele>368.0</ele><time>2026-05-06T14:48:12.364Z</time></trkpt><trkpt lat="37.3278935" lon="13.6553587"><ele>368.0</ele><time>2026-05-06T14:48:13.364Z</time></trkpt><trkpt lat="37.3278539" lon="13.6552854"><ele>368.0</ele><time>2026-05-06T14:48:14.364Z</time></trkpt><trkpt lat="37.3278099" lon="13.6552192"><ele>368.0</ele><time>2026-05-06T14:48:15.364Z</time></trkpt><trkpt lat="37.3277622" lon="13.6551553"><ele>368.0</ele><time>2026-05-06T14:48:16.365Z</time></trkpt><trkpt lat="37.3277032" lon="13.6550926"><ele>368.0</ele><time>2026-05-06T14:48:17.365Z</time></trkpt><trkpt lat="37.3276402" lon="13.655047"><ele>370.0</ele><time>2026-05-06T14:48:18.363Z</time></trkpt><trkpt lat="37.3275744" lon="13.6550047"><ele>372.0</ele><time>2026-05-06T14:48:19.364Z</time></trkpt><trkpt lat="37.3275182" lon="13.654965"><ele>374.0</ele><time>2026-05-06T14:48:20.364Z</time></trkpt><trkpt lat="37.3274261" lon="13.6549122"><ele>376.0</ele><time>2026-05-06T14:48:22.365Z</time></trkpt><trkpt lat="37.3273055" lon="13.6549346"><ele>378.0</ele><time>2026-05-06T14:48:24.364Z</time></trkpt><trkpt lat="37.327229" lon="13.6549732"><ele>380.0</ele><time>2026-05-06T14:48:25.364Z</time></trkpt><trkpt lat="37.3271433" lon="13.6550115"><ele>380.0</ele><time>2026-05-06T14:48:26.364Z</time></trkpt><trkpt lat="37.3270518" lon="13.6550542"><ele>380.0</ele><time>2026-05-06T14:48:27.364Z</time></trkpt><trkpt lat="37.3269532" lon="13.6550975"><ele>380.0</ele><time>2026-05-06T14:48:28.365Z</time></trkpt><trkpt lat="37.3268509" lon="13.6551321"><ele>380.0</ele><time>2026-05-06T14:48:29.363Z</time></trkpt><trkpt lat="37.3267466" lon="13.6551542"><ele>380.0</ele><time>2026-05-06T14:48:30.364Z</time></trkpt><trkpt lat="37.3266383" lon="13.6551703"><ele>380.0</ele><time>2026-05-06T14:48:31.364Z</time></trkpt><trkpt lat="37.3265301" lon="13.6551822"><ele>380.0</ele><time>2026-05-06T14:48:32.364Z</time></trkpt><trkpt lat="37.326422" lon="13.6551961"><ele>380.0</ele><time>2026-05-06T14:48:33.365Z</time></trkpt><trkpt lat="37.3263129" lon="13.6552092"><ele>380.0</ele><time>2026-05-06T14:48:34.366Z</time></trkpt><trkpt lat="37.3262057" lon="13.6552213"><ele>380.0</ele><time>2026-05-06T14:48:35.365Z</time></trkpt><trkpt lat="37.3260947" lon="13.6552401"><ele>380.2</ele><time>2026-05-06T14:48:36.364Z</time></trkpt><trkpt lat="37.3259914" lon="13.6552595"><ele>380.4</ele><time>2026-05-06T14:48:37.364Z</time></trkpt><trkpt lat="37.3258905" lon="13.6552794"><ele>380.6</ele><time>2026-05-06T14:48:38.363Z</time></trkpt><trkpt lat="37.3257906" lon="13.6553003"><ele>380.8</ele><time>2026-05-06T14:48:39.364Z</time></trkpt><trkpt lat="37.325691" lon="13.6553286"><ele>381.0</ele><time>2026-05-06T14:48:40.363Z</time></trkpt><trkpt lat="37.3255961" lon="13.6553597"><ele>378.4</ele><time>2026-05-06T14:48:41.364Z</time></trkpt><trkpt lat="37.3255075" lon="13.6553891"><ele>375.8</ele><time>2026-05-06T14:48:42.364Z</time></trkpt><trkpt lat="37.3254191" lon="13.6554148"><ele>373.2</ele><time>2026-05-06T14:48:43.365Z</time></trkpt><trkpt lat="37.3253284" lon="13.6554195"><ele>370.59999999999997</ele><time>2026-05-06T14:48:44.364Z</time></trkpt><trkpt lat="37.3252295" lon="13.6554092"><ele>368.0</ele><time>2026-05-06T14:48:45.364Z</time></trkpt><trkpt lat="37.3251311" lon="13.6553918"><ele>368.0</ele><time>2026-05-06T14:48:46.364Z</time></trkpt><trkpt lat="37.3250326" lon="13.6553723"><ele>368.0</ele><time>2026-05-06T14:48:47.364Z</time></trkpt><trkpt lat="37.3249323" lon="13.6553619"><ele>368.0</ele><time>2026-05-06T14:48:48.365Z</time></trkpt><trkpt lat="37.3248386" lon="13.6553502"><ele>368.0</ele><time>2026-05-06T14:48:49.364Z</time></trkpt><trkpt lat="37.3247471" lon="13.6553408"><ele>368.0</ele><time>2026-05-06T14:48:50.364Z</time></trkpt><trkpt lat="37.3246661" lon="13.6553281"><ele>367.5714285714286</ele><time>2026-05-06T14:48:51.364Z</time></trkpt><trkpt lat="37.3245868" lon="13.6553138"><ele>367.1428571428571</ele><time>2026-05-06T14:48:52.364Z</time></trkpt><trkpt lat="37.324512" lon="13.6552901"><ele>366.7142857142857</ele><time>2026-05-06T14:48:53.364Z</time></trkpt><trkpt lat="37.324444" lon="13.6552756"><ele>366.28571428571433</ele><time>2026-05-06T14:48:54.365Z</time></trkpt><trkpt lat="37.3243738" lon="13.6552604"><ele>365.8571428571429</ele><time>2026-05-06T14:48:55.363Z</time></trkpt><trkpt lat="37.32431" lon="13.6552482"><ele>365.42857142857144</ele><time>2026-05-06T14:48:56.363Z</time></trkpt><trkpt lat="37.3242416" lon="13.6552328"><ele>365.0</ele><time>2026-05-06T14:48:57.366Z</time></trkpt><trkpt lat="37.3241744" lon="13.6552263"><ele>365.14285714285717</ele><time>2026-05-06T14:48:58.363Z</time></trkpt><trkpt lat="37.3241042" lon="13.6552252"><ele>365.2857142857143</ele><time>2026-05-06T14:48:59.364Z</time></trkpt><trkpt lat="37.3240357" lon="13.6552161"><ele>365.42857142857144</ele><time>2026-05-06T14:49:00.365Z</time></trkpt><trkpt lat="37.3239666" lon="13.655212"><ele>365.57142857142856</ele><time>2026-05-06T14:49:01.364Z</time></trkpt><trkpt lat="37.3238979" lon="13.6552097"><ele>365.7142857142857</ele><time>2026-05-06T14:49:02.365Z</time></trkpt><trkpt lat="37.3238277" lon="13.6552125"><ele>365.8571428571429</ele><time>2026-05-06T14:49:03.364Z</time></trkpt><trkpt lat="37.323757" lon="13.6552181"><ele>366.0</ele><time>2026-05-06T14:49:04.363Z</time></trkpt><trkpt lat="37.3236874" lon="13.6552199"><ele>366.0</ele><time>2026-05-06T14:49:05.365Z</time></trkpt><trkpt lat="37.3236122" lon="13.6552246"><ele>366.0</ele><time>2026-05-06T14:49:06.364Z</time></trkpt><trkpt lat="37.323539" lon="13.6552257"><ele>366.0</ele><time>2026-05-06T14:49:07.363Z</time></trkpt><trkpt lat="37.3234648" lon="13.6552094"><ele>366.0</ele><time>2026-05-06T14:49:08.364Z</time></trkpt><trkpt lat="37.3233834" lon="13.6552043"><ele>366.0</ele><time>2026-05-06T14:49:09.364Z</time></trkpt><trkpt lat="37.3233023" lon="13.6551991"><ele>366.0</ele><time>2026-05-06T14:49:10.364Z</time></trkpt><trkpt lat="37.3232132" lon="13.6551906"><ele>366.0</ele><time>2026-05-06T14:49:11.364Z</time></trkpt><trkpt lat="37.3231265" lon="13.6551897"><ele>366.0</ele><time>2026-05-06T14:49:12.365Z</time></trkpt><trkpt lat="37.3230319" lon="13.6551877"><ele>366.0</ele><time>2026-05-06T14:49:13.363Z</time></trkpt><trkpt lat="37.3229344" lon="13.6551875"><ele>366.0</ele><time>2026-05-06T14:49:14.364Z</time></trkpt><trkpt lat="37.3228392" lon="13.6551852"><ele>366.0</ele><time>2026-05-06T14:49:15.364Z</time></trkpt><trkpt lat="37.3227417" lon="13.6551798"><ele>364.8333333333333</ele><time>2026-05-06T14:49:16.364Z</time></trkpt><trkpt lat="37.3226488" lon="13.6551738"><ele>363.6666666666667</ele><time>2026-05-06T14:49:17.363Z</time></trkpt><trkpt lat="37.3225737" lon="13.6552"><ele>362.5</ele><time>2026-05-06T14:49:18.364Z</time></trkpt><trkpt lat="37.3224941" lon="13.6552113"><ele>361.33333333333337</ele><time>2026-05-06T14:49:19.363Z</time></trkpt><trkpt lat="37.3224178" lon="13.6552207"><ele>360.1666666666667</ele><time>2026-05-06T14:49:20.363Z</time></trkpt><trkpt lat="37.3223458" lon="13.6552353"><ele>359.0</ele><time>2026-05-06T14:49:21.364Z</time></trkpt><trkpt lat="37.3222733" lon="13.6552476"><ele>357.83333333333337</ele><time>2026-05-06T14:49:22.364Z</time></trkpt><trkpt lat="37.3222078" lon="13.6552788"><ele>356.6666666666667</ele><time>2026-05-06T14:49:23.364Z</time></trkpt><trkpt lat="37.3221321" lon="13.6553013"><ele>355.5</ele><time>2026-05-06T14:49:24.364Z</time></trkpt><trkpt lat="37.3220552" lon="13.6553254"><ele>354.3333333333333</ele><time>2026-05-06T14:49:25.363Z</time></trkpt><trkpt lat="37.321974" lon="13.6553523"><ele>353.16666666666663</ele><time>2026-05-06T14:49:26.364Z</time></trkpt><trkpt lat="37.3218936" lon="13.655373"><ele>352.0</ele><time>2026-05-06T14:49:27.364Z</time></trkpt><trkpt lat="37.3218106" lon="13.6554046"><ele>350.8333333333333</ele><time>2026-05-06T14:49:28.365Z</time></trkpt><trkpt lat="37.321728" lon="13.6554369"><ele>349.66666666666663</ele><time>2026-05-06T14:49:29.363Z</time></trkpt><trkpt lat="37.3216436" lon="13.6554719"><ele>348.5</ele><time>2026-05-06T14:49:30.364Z</time></trkpt><trkpt lat="37.3215656" lon="13.6555118"><ele>347.3333333333333</ele><time>2026-05-06T14:49:31.363Z</time></trkpt><trkpt lat="37.3214883" lon="13.6555524"><ele>346.1666666666667</ele><time>2026-05-06T14:49:32.365Z</time></trkpt><trkpt lat="37.3214088" lon="13.6555883"><ele>345.0</ele><time>2026-05-06T14:49:33.364Z</time></trkpt><trkpt lat="37.3213257" lon="13.6556273"><ele>344.5</ele><time>2026-05-06T14:49:34.364Z</time></trkpt><trkpt lat="37.321252" lon="13.6556789"><ele>344.0</ele><time>2026-05-06T14:49:35.364Z</time></trkpt><trkpt lat="37.3211807" lon="13.6557127"><ele>343.5</ele><time>2026-05-06T14:49:36.364Z</time></trkpt><trkpt lat="37.3211062" lon="13.6557512"><ele>343.0</ele><time>2026-05-06T14:49:37.364Z</time></trkpt><trkpt lat="37.3210419" lon="13.6557875"><ele>342.5</ele><time>2026-05-06T14:49:38.364Z</time></trkpt><trkpt lat="37.3209685" lon="13.655818"><ele>342.0</ele><time>2026-05-06T14:49:39.363Z</time></trkpt><trkpt lat="37.3208972" lon="13.6558511"><ele>342.0</ele><time>2026-05-06T14:49:40.364Z</time></trkpt><trkpt lat="37.3208287" lon="13.6558916"><ele>342.0</ele><time>2026-05-06T14:49:41.363Z</time></trkpt><trkpt lat="37.3207597" lon="13.6559268"><ele>342.0</ele><time>2026-05-06T14:49:42.363Z</time></trkpt><trkpt lat="37.3206904" lon="13.6559534"><ele>342.0</ele><time>2026-05-06T14:49:43.364Z</time></trkpt><trkpt lat="37.3206186" lon="13.6559818"><ele>342.0</ele><time>2026-05-06T14:49:44.363Z</time></trkpt><trkpt lat="37.3205486" lon="13.6560057"><ele>342.0</ele><time>2026-05-06T14:49:45.365Z</time></trkpt><trkpt lat="37.3204271" lon="13.6560568"><ele>341.40000000000003</ele><time>2026-05-06T14:49:47.364Z</time></trkpt><trkpt lat="37.3203284" lon="13.6561006"><ele>340.8</ele><time>2026-05-06T14:49:49.363Z</time></trkpt><trkpt lat="37.3202622" lon="13.6561632"><ele>340.2</ele><time>2026-05-06T14:49:51.363Z</time></trkpt><trkpt lat="37.3201604" lon="13.6562093"><ele>339.6</ele><time>2026-05-06T14:49:53.364Z</time></trkpt><trkpt lat="37.3200433" lon="13.6561645"><ele>339.0</ele><time>2026-05-06T14:49:55.365Z</time></trkpt><trkpt lat="37.3199699" lon="13.6561026"><ele>339.0</ele><time>2026-05-06T14:49:56.364Z</time></trkpt><trkpt lat="37.3198863" lon="13.6560294"><ele>339.0</ele><time>2026-05-06T14:49:57.364Z</time></trkpt><trkpt lat="37.319786" lon="13.655936"><ele>339.0</ele><time>2026-05-06T14:49:58.364Z</time></trkpt><trkpt lat="37.3196979" lon="13.6558651"><ele>339.0</ele><time>2026-05-06T14:49:59.363Z</time></trkpt><trkpt lat="37.3196113" lon="13.6557915"><ele>339.0</ele><time>2026-05-06T14:50:00.365Z</time></trkpt><trkpt lat="37.3195374" lon="13.655732"><ele>340.0</ele><time>2026-05-06T14:50:01.364Z</time></trkpt><trkpt lat="37.3194859" lon="13.6556855"><ele>341.0</ele><time>2026-05-06T14:50:02.364Z</time></trkpt><trkpt lat="37.3194304" lon="13.6556403"><ele>342.0</ele><time>2026-05-06T14:50:03.363Z</time></trkpt><trkpt lat="37.3193671" lon="13.6555814"><ele>343.0</ele><time>2026-05-06T14:50:04.364Z</time></trkpt><trkpt lat="37.3193002" lon="13.6555256"><ele>344.0</ele><time>2026-05-06T14:50:05.363Z</time></trkpt><trkpt lat="37.3192329" lon="13.6554679"><ele>345.0</ele><time>2026-05-06T14:50:06.364Z</time></trkpt><trkpt lat="37.3191771" lon="13.6554221"><ele>346.0</ele><time>2026-05-06T14:50:07.363Z</time></trkpt><trkpt lat="37.3191102" lon="13.6553687"><ele>346.0</ele><time>2026-05-06T14:50:08.364Z</time></trkpt><trkpt lat="37.3190499" lon="13.6553033"><ele>346.0</ele><time>2026-05-06T14:50:09.364Z</time></trkpt><trkpt lat="37.318985" lon="13.6552431"><ele>346.0</ele><time>2026-05-06T14:50:10.364Z</time></trkpt><trkpt lat="37.3189096" lon="13.6551784"><ele>346.0</ele><time>2026-05-06T14:50:11.363Z</time></trkpt><trkpt lat="37.3188439" lon="13.6551233"><ele>346.0</ele><time>2026-05-06T14:50:12.363Z</time></trkpt><trkpt lat="37.3187862" lon="13.6550851"><ele>346.0</ele><time>2026-05-06T14:50:13.364Z</time></trkpt><trkpt lat="37.3187349" lon="13.6550356"><ele>348.4</ele><time>2026-05-06T14:50:14.363Z</time></trkpt><trkpt lat="37.3186554" lon="13.6549664"><ele>350.8</ele><time>2026-05-06T14:50:16.363Z</time></trkpt><trkpt lat="37.3185738" lon="13.6549162"><ele>353.2</ele><time>2026-05-06T14:50:22.365Z</time></trkpt><trkpt lat="37.3185051" lon="13.6549362"><ele>355.59999999999997</ele><time>2026-05-06T14:50:24.363Z</time></trkpt><trkpt lat="37.3184391" lon="13.655063"><ele>358.0</ele><time>2026-05-06T14:50:26.363Z</time></trkpt><trkpt lat="37.3183668" lon="13.6552074"><ele>358.0</ele><time>2026-05-06T14:50:28.364Z</time></trkpt><trkpt lat="37.3183219" lon="13.6552932"><ele>358.0</ele><time>2026-05-06T14:50:29.364Z</time></trkpt><trkpt lat="37.3182882" lon="13.6553704"><ele>358.0</ele><time>2026-05-06T14:50:30.365Z</time></trkpt><trkpt lat="37.3182497" lon="13.6554334"><ele>358.0</ele><time>2026-05-06T14:50:31.364Z</time></trkpt><trkpt lat="37.3181701" lon="13.6554763"><ele>358.0</ele><time>2026-05-06T14:50:33.364Z</time></trkpt><trkpt lat="37.3180721" lon="13.6554002"><ele>358.0</ele><time>2026-05-06T14:50:35.364Z</time></trkpt><trkpt lat="37.3180192" lon="13.6553496"><ele>358.00000000000006</ele><time>2026-05-06T14:50:36.363Z</time></trkpt><trkpt lat="37.3179609" lon="13.6552952"><ele>358.0</ele><time>2026-05-06T14:50:37.363Z</time></trkpt><trkpt lat="37.3179002" lon="13.655234"><ele>358.0</ele><time>2026-05-06T14:50:38.364Z</time></trkpt><trkpt lat="37.3178359" lon="13.6551814"><ele>358.0</ele><time>2026-05-06T14:50:39.364Z</time></trkpt><trkpt lat="37.3177737" lon="13.6551293"><ele>358.0</ele><time>2026-05-06T14:50:40.364Z</time></trkpt><trkpt lat="37.3177133" lon="13.6550836"><ele>358.00000000000006</ele><time>2026-05-06T14:50:41.364Z</time></trkpt><trkpt lat="37.3176547" lon="13.6550343"><ele>358.0</ele><time>2026-05-06T14:50:42.364Z</time></trkpt><trkpt lat="37.3175945" lon="13.6549871"><ele>359.79999999999995</ele><time>2026-05-06T14:50:43.364Z</time></trkpt><trkpt lat="37.3175385" lon="13.6549383"><ele>361.6</ele><time>2026-05-06T14:50:44.364Z</time></trkpt><trkpt lat="37.3174833" lon="13.6548894"><ele>363.4</ele><time>2026-05-06T14:50:45.364Z</time></trkpt><trkpt lat="37.3173994" lon="13.6548428"><ele>365.20000000000005</ele><time>2026-05-06T14:50:47.364Z</time></trkpt><trkpt lat="37.3173439" lon="13.654882"><ele>367.0</ele><time>2026-05-06T14:50:49.364Z</time></trkpt><trkpt lat="37.3175232" lon="13.654917"><ele>367.0</ele><time>2026-05-06T14:55:34.673Z</time></trkpt><trkpt lat="37.3174251" lon="13.654875"><ele>367.0</ele><time>2026-05-06T14:58:14.364Z</time></trkpt><trkpt lat="37.3173785" lon="13.6548088"><ele>367.0</ele><time>2026-05-06T14:58:16.364Z</time></trkpt><trkpt lat="37.3174098" lon="13.655006"><ele>367.0</ele><time>2026-05-06T14:59:58.364Z</time></trkpt><trkpt lat="37.3175003" lon="13.654997"><ele>367.0</ele><time>2026-05-06T15:03:23.363Z</time></trkpt><trkpt lat="37.3174709" lon="13.6549172"><ele>367.0</ele><time>2026-05-06T15:05:13.364Z</time></trkpt><trkpt lat="37.3175079" lon="13.6549872"><ele>367.0</ele><time>2026-05-06T15:07:29.363Z</time></trkpt><trkpt lat="37.3174548" lon="13.6549427"><ele>367.0</ele><time>2026-05-06T15:07:43.282Z</time></trkpt><trkpt lat="37.3174809" lon="13.6550191"><ele>367.0</ele><time>2026-05-06T15:07:57.318Z</time></trkpt><trkpt lat="37.3174513" lon="13.6549443"><ele>367.0</ele><time>2026-05-06T15:12:23.295Z</time></trkpt></trkseg></trk></gpx>